<?xml version="1.0" encoding="UTF-8" standalone="no" ?>
<gpx xmlns="http://www.topografix.com/GPX/1/1" xmlns:xsi="http://www.w3.org/2001/XMLSchema-instance" xsi:schemaLocation="http://www.topografix.com/GPX/1/1 http://www.topografix.com/GPX/1/1/gpx.xsd" version="1.1" creator="VisuGPX - https://www.visugpx.com">
  <metadata>
    <name>Valence-Nîmes 3: Bourg-Saint-Andéol -&amp;gt; Avignon</name>
  </metadata>
  <trk>
    <name><![CDATA[Valence-Nîmes 3: Bourg-Saint-Andéol -> Avignon]]></name>
    <extensions>
      <line xmlns="http://www.topografix.com/GPX/gpx_style/0/2">
        <color>0000FF</color>
        <width>4</width>
      </line>
    </extensions>
    <trkseg>
      <trkpt lat="44.3698" lon="4.64694">
        <ele>99.91232</ele>
        <time>2025-02-03T09:22:20.046Z</time>
      </trkpt>
      <trkpt lat="44.3697" lon="4.64693">
        <ele>99.91232</ele>
        <time>2025-02-03T09:22:23.029Z</time>
      </trkpt>
      <trkpt lat="44.3696" lon="4.64687">
        <ele>99.91232</ele>
        <time>2025-02-03T09:22:26.025Z</time>
      </trkpt>
      <trkpt lat="44.36951" lon="4.64681">
        <ele>99.91232</ele>
        <time>2025-02-03T09:22:29.026Z</time>
      </trkpt>
      <trkpt lat="44.3694" lon="4.64676">
        <ele>99.91232</ele>
        <time>2025-02-03T09:22:33.022Z</time>
      </trkpt>
      <trkpt lat="44.36931" lon="4.64672">
        <ele>99.91232</ele>
        <time>2025-02-03T09:22:36.064Z</time>
      </trkpt>
      <trkpt lat="44.36921" lon="4.64667">
        <ele>99.91232</ele>
        <time>2025-02-03T09:22:40.035Z</time>
      </trkpt>
      <trkpt lat="44.36911" lon="4.64669">
        <ele>99.91232</ele>
        <time>2025-02-03T09:22:45.022Z</time>
      </trkpt>
      <trkpt lat="44.36895" lon="4.64673">
        <ele>99.91232</ele>
        <time>2025-02-03T09:24:36.036Z</time>
      </trkpt>
      <trkpt lat="44.36884" lon="4.64676">
        <ele>100.368385</ele>
        <time>2025-02-03T09:24:40.036Z</time>
      </trkpt>
      <trkpt lat="44.36876" lon="4.64683">
        <ele>100.820568</ele>
        <time>2025-02-03T09:24:45.039Z</time>
      </trkpt>
      <trkpt lat="44.36868" lon="4.64689">
        <ele>101.250697</ele>
        <time>2025-02-03T09:24:54.036Z</time>
      </trkpt>
      <trkpt lat="44.36862" lon="4.64701">
        <ele>101.728345</ele>
        <time>2025-02-03T09:24:58.035Z</time>
      </trkpt>
      <trkpt lat="44.3686" lon="4.64716">
        <ele>102.250558</ele>
        <time>2025-02-03T09:25:02.023Z</time>
      </trkpt>
      <trkpt lat="44.3686" lon="4.6473">
        <ele>102.713609</ele>
        <time>2025-02-03T09:25:06.049Z</time>
      </trkpt>
      <trkpt lat="44.36859" lon="4.64743">
        <ele>103.163537</ele>
        <time>2025-02-03T09:25:10.042Z</time>
      </trkpt>
      <trkpt lat="44.36858" lon="4.64756">
        <ele>103.596996</ele>
        <time>2025-02-03T09:25:14.038Z</time>
      </trkpt>
      <trkpt lat="44.36857" lon="4.64769">
        <ele>104.037695</ele>
        <time>2025-02-03T09:25:18.036Z</time>
      </trkpt>
      <trkpt lat="44.36855" lon="4.64784">
        <ele>104.549131</ele>
        <time>2025-02-03T09:25:23.027Z</time>
      </trkpt>
      <trkpt lat="44.36854" lon="4.64798">
        <ele>105.00884</ele>
        <time>2025-02-03T09:25:27.044Z</time>
      </trkpt>
      <trkpt lat="44.36853" lon="4.64813">
        <ele>105.526306</ele>
        <time>2025-02-03T09:25:32.032Z</time>
      </trkpt>
      <trkpt lat="44.36852" lon="4.64828">
        <ele>106.049334</ele>
        <time>2025-02-03T09:25:37.035Z</time>
      </trkpt>
      <trkpt lat="44.3685" lon="4.64844">
        <ele>106.564756</ele>
        <time>2025-02-03T09:25:42.016Z</time>
      </trkpt>
      <trkpt lat="44.36849" lon="4.64857">
        <ele>106.998765</ele>
        <time>2025-02-03T09:25:46.051Z</time>
      </trkpt>
      <trkpt lat="44.36848" lon="4.6487">
        <ele>107.448722</ele>
        <time>2025-02-03T09:25:50.018Z</time>
      </trkpt>
      <trkpt lat="44.36846" lon="4.64883">
        <ele>107.902381</ele>
        <time>2025-02-03T09:25:54.031Z</time>
      </trkpt>
      <trkpt lat="44.36845" lon="4.64897">
        <ele>108.348155</ele>
        <time>2025-02-03T09:25:58.035Z</time>
      </trkpt>
      <trkpt lat="44.36844" lon="4.64911">
        <ele>108.215211</ele>
        <time>2025-02-03T09:26:02.018Z</time>
      </trkpt>
      <trkpt lat="44.36843" lon="4.64926">
        <ele>108.079605</ele>
        <time>2025-02-03T09:26:06.030Z</time>
      </trkpt>
      <trkpt lat="44.36841" lon="4.64942">
        <ele>107.934728</ele>
        <time>2025-02-03T09:26:10.057Z</time>
      </trkpt>
      <trkpt lat="44.3684" lon="4.64956">
        <ele>107.798102</ele>
        <time>2025-02-03T09:26:14.035Z</time>
      </trkpt>
      <trkpt lat="44.36839" lon="4.64972">
        <ele>107.65181</ele>
        <time>2025-02-03T09:26:18.057Z</time>
      </trkpt>
      <trkpt lat="44.36838" lon="4.64985">
        <ele>107.531239</ele>
        <time>2025-02-03T09:26:21.041Z</time>
      </trkpt>
      <trkpt lat="44.36837" lon="4.64998">
        <ele>107.412933</ele>
        <time>2025-02-03T09:26:24.037Z</time>
      </trkpt>
      <trkpt lat="44.36835" lon="4.65011">
        <ele>107.292502</ele>
        <time>2025-02-03T09:26:27.056Z</time>
      </trkpt>
      <trkpt lat="44.36834" lon="4.65025">
        <ele>107.162473</ele>
        <time>2025-02-03T09:26:30.033Z</time>
      </trkpt>
      <trkpt lat="44.36832" lon="4.6504">
        <ele>107.024976</ele>
        <time>2025-02-03T09:26:33.051Z</time>
      </trkpt>
      <trkpt lat="44.3683" lon="4.65055">
        <ele>106.882553</ele>
        <time>2025-02-03T09:26:36.035Z</time>
      </trkpt>
      <trkpt lat="44.36828" lon="4.65073">
        <ele>106.71617</ele>
        <time>2025-02-03T09:26:39.040Z</time>
      </trkpt>
      <trkpt lat="44.36826" lon="4.65091">
        <ele>106.545478</ele>
        <time>2025-02-03T09:26:42.039Z</time>
      </trkpt>
      <trkpt lat="44.36825" lon="4.65104">
        <ele>106.429631</ele>
        <time>2025-02-03T09:26:44.053Z</time>
      </trkpt>
      <trkpt lat="44.36823" lon="4.65117">
        <ele>106.306884</ele>
        <time>2025-02-03T09:26:46.040Z</time>
      </trkpt>
      <trkpt lat="44.36823" lon="4.6513">
        <ele>106.182281</ele>
        <time>2025-02-03T09:26:48.046Z</time>
      </trkpt>
      <trkpt lat="44.36821" lon="4.65143">
        <ele>106.062528</ele>
        <time>2025-02-03T09:26:50.035Z</time>
      </trkpt>
      <trkpt lat="44.3682" lon="4.65156">
        <ele>105.902296</ele>
        <time>2025-02-03T09:26:52.048Z</time>
      </trkpt>
      <trkpt lat="44.36818" lon="4.65169">
        <ele>105.721455</ele>
        <time>2025-02-03T09:26:54.017Z</time>
      </trkpt>
      <trkpt lat="44.36817" lon="4.65183">
        <ele>105.528823</ele>
        <time>2025-02-03T09:26:56.047Z</time>
      </trkpt>
      <trkpt lat="44.36815" lon="4.65198">
        <ele>105.318702</ele>
        <time>2025-02-03T09:26:58.049Z</time>
      </trkpt>
      <trkpt lat="44.36813" lon="4.65214">
        <ele>105.109057</ele>
        <time>2025-02-03T09:27:00.046Z</time>
      </trkpt>
      <trkpt lat="44.36812" lon="4.65229">
        <ele>104.9066</ele>
        <time>2025-02-03T09:27:02.056Z</time>
      </trkpt>
      <trkpt lat="44.3681" lon="4.65244">
        <ele>104.696127</ele>
        <time>2025-02-03T09:27:04.015Z</time>
      </trkpt>
      <trkpt lat="44.36809" lon="4.65259">
        <ele>104.495466</ele>
        <time>2025-02-03T09:27:06.012Z</time>
      </trkpt>
      <trkpt lat="44.36807" lon="4.65273">
        <ele>104.297201</ele>
        <time>2025-02-03T09:27:08.024Z</time>
      </trkpt>
      <trkpt lat="44.36806" lon="4.65288">
        <ele>104.104782</ele>
        <time>2025-02-03T09:27:10.026Z</time>
      </trkpt>
      <trkpt lat="44.36805" lon="4.65301">
        <ele>103.919934</ele>
        <time>2025-02-03T09:27:12.052Z</time>
      </trkpt>
      <trkpt lat="44.36803" lon="4.65314">
        <ele>103.746454</ele>
        <time>2025-02-03T09:27:14.057Z</time>
      </trkpt>
      <trkpt lat="44.36802" lon="4.65327">
        <ele>103.566645</ele>
        <time>2025-02-03T09:27:16.048Z</time>
      </trkpt>
      <trkpt lat="44.36801" lon="4.6534">
        <ele>103.389161</ele>
        <time>2025-02-03T09:27:18.037Z</time>
      </trkpt>
      <trkpt lat="44.368" lon="4.65353">
        <ele>103.218748</ele>
        <time>2025-02-03T09:27:20.063Z</time>
      </trkpt>
      <trkpt lat="44.36799" lon="4.65371">
        <ele>102.97234</ele>
        <time>2025-02-03T09:27:23.039Z</time>
      </trkpt>
      <trkpt lat="44.36797" lon="4.65389">
        <ele>102.731638</ele>
        <time>2025-02-03T09:27:26.044Z</time>
      </trkpt>
      <trkpt lat="44.36795" lon="4.65406">
        <ele>102.587087</ele>
        <time>2025-02-03T09:27:29.050Z</time>
      </trkpt>
      <trkpt lat="44.36794" lon="4.65424">
        <ele>102.485722</ele>
        <time>2025-02-03T09:27:32.049Z</time>
      </trkpt>
      <trkpt lat="44.36793" lon="4.65441">
        <ele>102.387238</ele>
        <time>2025-02-03T09:27:35.037Z</time>
      </trkpt>
      <trkpt lat="44.36791" lon="4.65459">
        <ele>102.285701</ele>
        <time>2025-02-03T09:27:38.033Z</time>
      </trkpt>
      <trkpt lat="44.3679" lon="4.65476">
        <ele>102.187877</ele>
        <time>2025-02-03T09:27:41.052Z</time>
      </trkpt>
      <trkpt lat="44.36788" lon="4.65493">
        <ele>102.089268</ele>
        <time>2025-02-03T09:27:44.040Z</time>
      </trkpt>
      <trkpt lat="44.36786" lon="4.65511">
        <ele>101.989872</ele>
        <time>2025-02-03T09:27:47.030Z</time>
      </trkpt>
      <trkpt lat="44.36785" lon="4.65523">
        <ele>101.918606</ele>
        <time>2025-02-03T09:27:49.059Z</time>
      </trkpt>
      <trkpt lat="44.36783" lon="4.65542">
        <ele>101.812123</ele>
        <time>2025-02-03T09:27:52.053Z</time>
      </trkpt>
      <trkpt lat="44.36781" lon="4.6556">
        <ele>101.707384</ele>
        <time>2025-02-03T09:27:55.039Z</time>
      </trkpt>
      <trkpt lat="44.3678" lon="4.65578">
        <ele>101.606728</ele>
        <time>2025-02-03T09:27:58.028Z</time>
      </trkpt>
      <trkpt lat="44.36778" lon="4.65596">
        <ele>101.506671</ele>
        <time>2025-02-03T09:28:01.050Z</time>
      </trkpt>
      <trkpt lat="44.36777" lon="4.65613">
        <ele>101.409404</ele>
        <time>2025-02-03T09:28:04.003Z</time>
      </trkpt>
      <trkpt lat="44.36775" lon="4.65629">
        <ele>101.316352</ele>
        <time>2025-02-03T09:28:07.034Z</time>
      </trkpt>
      <trkpt lat="44.36767" lon="4.65643">
        <ele>101.203536</ele>
        <time>2025-02-03T09:28:10.023Z</time>
      </trkpt>
      <trkpt lat="44.36757" lon="4.65644">
        <ele>101.076065</ele>
        <time>2025-02-03T09:28:12.027Z</time>
      </trkpt>
      <trkpt lat="44.36747" lon="4.65642">
        <ele>100.938162</ele>
        <time>2025-02-03T09:28:14.011Z</time>
      </trkpt>
      <trkpt lat="44.36736" lon="4.65639">
        <ele>100.797336</ele>
        <time>2025-02-03T09:28:16.044Z</time>
      </trkpt>
      <trkpt lat="44.36726" lon="4.65636">
        <ele>100.65392</ele>
        <time>2025-02-03T09:28:18.039Z</time>
      </trkpt>
      <trkpt lat="44.36715" lon="4.65633">
        <ele>100.513287</ele>
        <time>2025-02-03T09:28:20.035Z</time>
      </trkpt>
      <trkpt lat="44.36705" lon="4.6563">
        <ele>100.374376</ele>
        <time>2025-02-03T09:28:22.042Z</time>
      </trkpt>
      <trkpt lat="44.36694" lon="4.65628">
        <ele>100.234681</ele>
        <time>2025-02-03T09:28:24.037Z</time>
      </trkpt>
      <trkpt lat="44.36684" lon="4.65625">
        <ele>100.090559</ele>
        <time>2025-02-03T09:28:26.011Z</time>
      </trkpt>
      <trkpt lat="44.36673" lon="4.65622">
        <ele>99.948747</ele>
        <time>2025-02-03T09:28:28.052Z</time>
      </trkpt>
      <trkpt lat="44.36663" lon="4.6562">
        <ele>99.812587</ele>
        <time>2025-02-03T09:28:30.036Z</time>
      </trkpt>
      <trkpt lat="44.36652" lon="4.65619">
        <ele>99.674691</ele>
        <time>2025-02-03T09:28:32.018Z</time>
      </trkpt>
      <trkpt lat="44.36642" lon="4.65617">
        <ele>99.534741</ele>
        <time>2025-02-03T09:28:34.033Z</time>
      </trkpt>
      <trkpt lat="44.3663" lon="4.65616">
        <ele>99.381308</ele>
        <time>2025-02-03T09:28:36.044Z</time>
      </trkpt>
      <trkpt lat="44.36618" lon="4.65615">
        <ele>99.213201</ele>
        <time>2025-02-03T09:28:38.036Z</time>
      </trkpt>
      <trkpt lat="44.36605" lon="4.65614">
        <ele>99.0412</ele>
        <time>2025-02-03T09:28:40.037Z</time>
      </trkpt>
      <trkpt lat="44.36592" lon="4.65613">
        <ele>98.870622</ele>
        <time>2025-02-03T09:28:42.006Z</time>
      </trkpt>
      <trkpt lat="44.36579" lon="4.65612">
        <ele>98.852613</ele>
        <time>2025-02-03T09:28:44.026Z</time>
      </trkpt>
      <trkpt lat="44.36566" lon="4.65611">
        <ele>98.848549</ele>
        <time>2025-02-03T09:28:46.035Z</time>
      </trkpt>
      <trkpt lat="44.36554" lon="4.6561">
        <ele>98.844546</ele>
        <time>2025-02-03T09:28:48.040Z</time>
      </trkpt>
      <trkpt lat="44.36541" lon="4.65609">
        <ele>98.840508</ele>
        <time>2025-02-03T09:28:50.051Z</time>
      </trkpt>
      <trkpt lat="44.36529" lon="4.65607">
        <ele>98.836561</ele>
        <time>2025-02-03T09:28:52.043Z</time>
      </trkpt>
      <trkpt lat="44.36517" lon="4.65606">
        <ele>98.832647</ele>
        <time>2025-02-03T09:28:54.025Z</time>
      </trkpt>
      <trkpt lat="44.36504" lon="4.65605">
        <ele>98.828544</ele>
        <time>2025-02-03T09:28:56.003Z</time>
      </trkpt>
      <trkpt lat="44.36491" lon="4.65603">
        <ele>98.824333</ele>
        <time>2025-02-03T09:28:58.017Z</time>
      </trkpt>
      <trkpt lat="44.36478" lon="4.65602">
        <ele>98.820233</ele>
        <time>2025-02-03T09:29:00.035Z</time>
      </trkpt>
      <trkpt lat="44.36466" lon="4.656">
        <ele>98.816224</ele>
        <time>2025-02-03T09:29:02.013Z</time>
      </trkpt>
      <trkpt lat="44.36453" lon="4.65599">
        <ele>98.812244</ele>
        <time>2025-02-03T09:29:04.036Z</time>
      </trkpt>
      <trkpt lat="44.36441" lon="4.65597">
        <ele>98.808203</ele>
        <time>2025-02-03T09:29:06.022Z</time>
      </trkpt>
      <trkpt lat="44.36428" lon="4.65596">
        <ele>98.804167</ele>
        <time>2025-02-03T09:29:08.031Z</time>
      </trkpt>
      <trkpt lat="44.36416" lon="4.65595">
        <ele>98.800229</ele>
        <time>2025-02-03T09:29:10.039Z</time>
      </trkpt>
      <trkpt lat="44.36403" lon="4.65594">
        <ele>98.788172</ele>
        <time>2025-02-03T09:29:12.032Z</time>
      </trkpt>
      <trkpt lat="44.3639" lon="4.65593">
        <ele>98.77195</ele>
        <time>2025-02-03T09:29:14.032Z</time>
      </trkpt>
      <trkpt lat="44.36378" lon="4.65592">
        <ele>98.755849</ele>
        <time>2025-02-03T09:29:16.034Z</time>
      </trkpt>
      <trkpt lat="44.36365" lon="4.65591">
        <ele>98.739748</ele>
        <time>2025-02-03T09:29:18.040Z</time>
      </trkpt>
      <trkpt lat="44.36352" lon="4.65589">
        <ele>98.723356</ele>
        <time>2025-02-03T09:29:20.047Z</time>
      </trkpt>
      <trkpt lat="44.3634" lon="4.65588">
        <ele>98.707128</ele>
        <time>2025-02-03T09:29:22.026Z</time>
      </trkpt>
      <trkpt lat="44.36327" lon="4.65586">
        <ele>98.690618</ele>
        <time>2025-02-03T09:29:24.036Z</time>
      </trkpt>
      <trkpt lat="44.36314" lon="4.65584">
        <ele>98.674141</ele>
        <time>2025-02-03T09:29:26.030Z</time>
      </trkpt>
      <trkpt lat="44.36301" lon="4.65581">
        <ele>98.657638</ele>
        <time>2025-02-03T09:29:28.014Z</time>
      </trkpt>
      <trkpt lat="44.36289" lon="4.65578">
        <ele>98.641453</ele>
        <time>2025-02-03T09:29:30.034Z</time>
      </trkpt>
      <trkpt lat="44.36276" lon="4.65575">
        <ele>98.625551</ele>
        <time>2025-02-03T09:29:32.028Z</time>
      </trkpt>
      <trkpt lat="44.36264" lon="4.65572">
        <ele>98.609286</ele>
        <time>2025-02-03T09:29:34.035Z</time>
      </trkpt>
      <trkpt lat="44.36251" lon="4.65569">
        <ele>98.593265</ele>
        <time>2025-02-03T09:29:36.030Z</time>
      </trkpt>
      <trkpt lat="44.36239" lon="4.65566">
        <ele>98.577173</ele>
        <time>2025-02-03T09:29:38.038Z</time>
      </trkpt>
      <trkpt lat="44.36227" lon="4.65562">
        <ele>98.560838</ele>
        <time>2025-02-03T09:29:40.039Z</time>
      </trkpt>
      <trkpt lat="44.36215" lon="4.65558">
        <ele>98.544883</ele>
        <time>2025-02-03T09:29:42.041Z</time>
      </trkpt>
      <trkpt lat="44.36203" lon="4.65555">
        <ele>98.528985</ele>
        <time>2025-02-03T09:29:44.033Z</time>
      </trkpt>
      <trkpt lat="44.36191" lon="4.65552">
        <ele>98.512784</ele>
        <time>2025-02-03T09:29:46.031Z</time>
      </trkpt>
      <trkpt lat="44.36179" lon="4.6555">
        <ele>98.496996</ele>
        <time>2025-02-03T09:29:48.043Z</time>
      </trkpt>
      <trkpt lat="44.36166" lon="4.65549">
        <ele>98.480986</ele>
        <time>2025-02-03T09:29:50.042Z</time>
      </trkpt>
      <trkpt lat="44.36154" lon="4.65549">
        <ele>98.464729</ele>
        <time>2025-02-03T09:29:52.043Z</time>
      </trkpt>
      <trkpt lat="44.36142" lon="4.65549">
        <ele>98.448342</ele>
        <time>2025-02-03T09:29:54.038Z</time>
      </trkpt>
      <trkpt lat="44.36129" lon="4.65551">
        <ele>98.431901</ele>
        <time>2025-02-03T09:29:56.038Z</time>
      </trkpt>
      <trkpt lat="44.36116" lon="4.65553">
        <ele>98.415272</ele>
        <time>2025-02-03T09:29:58.026Z</time>
      </trkpt>
      <trkpt lat="44.36104" lon="4.65556">
        <ele>98.398595</ele>
        <time>2025-02-03T09:30:00.046Z</time>
      </trkpt>
      <trkpt lat="44.36091" lon="4.65558">
        <ele>98.381717</ele>
        <time>2025-02-03T09:30:02.037Z</time>
      </trkpt>
      <trkpt lat="44.36078" lon="4.65559">
        <ele>98.364206</ele>
        <time>2025-02-03T09:30:04.034Z</time>
      </trkpt>
      <trkpt lat="44.36064" lon="4.65561">
        <ele>98.34672</ele>
        <time>2025-02-03T09:30:06.075Z</time>
      </trkpt>
      <trkpt lat="44.36051" lon="4.65562">
        <ele>98.314029</ele>
        <time>2025-02-03T09:30:08.041Z</time>
      </trkpt>
      <trkpt lat="44.36038" lon="4.65563">
        <ele>98.244751</ele>
        <time>2025-02-03T09:30:10.035Z</time>
      </trkpt>
      <trkpt lat="44.36025" lon="4.65563">
        <ele>98.174991</ele>
        <time>2025-02-03T09:30:12.029Z</time>
      </trkpt>
      <trkpt lat="44.36011" lon="4.65563">
        <ele>98.105258</ele>
        <time>2025-02-03T09:30:14.027Z</time>
      </trkpt>
      <trkpt lat="44.35998" lon="4.65564">
        <ele>98.036525</ele>
        <time>2025-02-03T09:30:16.036Z</time>
      </trkpt>
      <trkpt lat="44.35986" lon="4.65565">
        <ele>97.968763</ele>
        <time>2025-02-03T09:30:18.106Z</time>
      </trkpt>
      <trkpt lat="44.35973" lon="4.65568">
        <ele>97.899548</ele>
        <time>2025-02-03T09:30:20.007Z</time>
      </trkpt>
      <trkpt lat="44.3596" lon="4.65571">
        <ele>97.832426</ele>
        <time>2025-02-03T09:30:22.031Z</time>
      </trkpt>
      <trkpt lat="44.35948" lon="4.65574">
        <ele>97.766342</ele>
        <time>2025-02-03T09:30:24.050Z</time>
      </trkpt>
      <trkpt lat="44.35936" lon="4.65578">
        <ele>97.702444</ele>
        <time>2025-02-03T09:30:26.029Z</time>
      </trkpt>
      <trkpt lat="44.35924" lon="4.65582">
        <ele>97.637987</ele>
        <time>2025-02-03T09:30:28.034Z</time>
      </trkpt>
      <trkpt lat="44.35912" lon="4.65586">
        <ele>97.573578</ele>
        <time>2025-02-03T09:30:30.011Z</time>
      </trkpt>
      <trkpt lat="44.359" lon="4.6559">
        <ele>97.508364</ele>
        <time>2025-02-03T09:30:32.032Z</time>
      </trkpt>
      <trkpt lat="44.35889" lon="4.65595">
        <ele>97.443453</ele>
        <time>2025-02-03T09:30:34.054Z</time>
      </trkpt>
      <trkpt lat="44.35876" lon="4.656">
        <ele>97.398601</ele>
        <time>2025-02-03T09:30:36.031Z</time>
      </trkpt>
      <trkpt lat="44.35864" lon="4.65605">
        <ele>97.545394</ele>
        <time>2025-02-03T09:30:38.031Z</time>
      </trkpt>
      <trkpt lat="44.35852" lon="4.65609">
        <ele>97.686792</ele>
        <time>2025-02-03T09:30:40.047Z</time>
      </trkpt>
      <trkpt lat="44.3584" lon="4.65613">
        <ele>97.823979</ele>
        <time>2025-02-03T09:30:42.036Z</time>
      </trkpt>
      <trkpt lat="44.35829" lon="4.65617">
        <ele>97.960272</ele>
        <time>2025-02-03T09:30:44.032Z</time>
      </trkpt>
      <trkpt lat="44.35816" lon="4.65621">
        <ele>98.103693</ele>
        <time>2025-02-03T09:30:46.032Z</time>
      </trkpt>
      <trkpt lat="44.35804" lon="4.65626">
        <ele>98.247198</ele>
        <time>2025-02-03T09:30:48.030Z</time>
      </trkpt>
      <trkpt lat="44.35792" lon="4.65629">
        <ele>98.382292</ele>
        <time>2025-02-03T09:30:50.015Z</time>
      </trkpt>
      <trkpt lat="44.35781" lon="4.65634">
        <ele>98.518827</ele>
        <time>2025-02-03T09:30:52.036Z</time>
      </trkpt>
      <trkpt lat="44.3577" lon="4.65643">
        <ele>98.658691</ele>
        <time>2025-02-03T09:30:54.035Z</time>
      </trkpt>
      <trkpt lat="44.35762" lon="4.65656">
        <ele>98.796134</ele>
        <time>2025-02-03T09:30:56.045Z</time>
      </trkpt>
      <trkpt lat="44.35758" lon="4.65671">
        <ele>98.928842</ele>
        <time>2025-02-03T09:30:58.023Z</time>
      </trkpt>
      <trkpt lat="44.35755" lon="4.65685">
        <ele>99.052978</ele>
        <time>2025-02-03T09:31:00.022Z</time>
      </trkpt>
      <trkpt lat="44.35751" lon="4.65701">
        <ele>99.189762</ele>
        <time>2025-02-03T09:31:03.042Z</time>
      </trkpt>
      <trkpt lat="44.35757" lon="4.65691">
        <ele>99.300889</ele>
        <time>2025-02-03T09:31:16.010Z</time>
      </trkpt>
      <trkpt lat="44.35753" lon="4.65678">
        <ele>99.412308</ele>
        <time>2025-02-03T09:31:19.029Z</time>
      </trkpt>
      <trkpt lat="44.35742" lon="4.65676">
        <ele>99.455103</ele>
        <time>2025-02-03T09:31:22.039Z</time>
      </trkpt>
      <trkpt lat="44.35729" lon="4.65676">
        <ele>99.492023</ele>
        <time>2025-02-03T09:31:25.020Z</time>
      </trkpt>
      <trkpt lat="44.35717" lon="4.65676">
        <ele>99.526303</ele>
        <time>2025-02-03T09:31:28.042Z</time>
      </trkpt>
      <trkpt lat="44.35706" lon="4.65675">
        <ele>99.560455</ele>
        <time>2025-02-03T09:31:31.018Z</time>
      </trkpt>
      <trkpt lat="44.35694" lon="4.65674">
        <ele>99.593327</ele>
        <time>2025-02-03T09:31:34.036Z</time>
      </trkpt>
      <trkpt lat="44.35682" lon="4.65673">
        <ele>99.628033</ele>
        <time>2025-02-03T09:31:37.034Z</time>
      </trkpt>
      <trkpt lat="44.35669" lon="4.65671">
        <ele>99.665973</ele>
        <time>2025-02-03T09:31:40.038Z</time>
      </trkpt>
      <trkpt lat="44.3566" lon="4.65669">
        <ele>99.692324</ele>
        <time>2025-02-03T09:31:42.028Z</time>
      </trkpt>
      <trkpt lat="44.3565" lon="4.65669">
        <ele>99.720273</ele>
        <time>2025-02-03T09:31:44.032Z</time>
      </trkpt>
      <trkpt lat="44.35641" lon="4.65669">
        <ele>99.747659</ele>
        <time>2025-02-03T09:31:46.030Z</time>
      </trkpt>
      <trkpt lat="44.35631" lon="4.65667">
        <ele>99.774851</ele>
        <time>2025-02-03T09:31:48.035Z</time>
      </trkpt>
      <trkpt lat="44.35622" lon="4.65666">
        <ele>99.802582</ele>
        <time>2025-02-03T09:31:50.056Z</time>
      </trkpt>
      <trkpt lat="44.35612" lon="4.65666">
        <ele>99.830012</ele>
        <time>2025-02-03T09:31:52.040Z</time>
      </trkpt>
      <trkpt lat="44.35602" lon="4.65665">
        <ele>99.858578</ele>
        <time>2025-02-03T09:31:54.045Z</time>
      </trkpt>
      <trkpt lat="44.35592" lon="4.65664">
        <ele>99.887404</ele>
        <time>2025-02-03T09:31:56.033Z</time>
      </trkpt>
      <trkpt lat="44.35582" lon="4.65664">
        <ele>99.917075</ele>
        <time>2025-02-03T09:31:58.003Z</time>
      </trkpt>
      <trkpt lat="44.35571" lon="4.65665">
        <ele>99.940079</ele>
        <time>2025-02-03T09:32:00.025Z</time>
      </trkpt>
      <trkpt lat="44.3556" lon="4.65665">
        <ele>99.896074</ele>
        <time>2025-02-03T09:32:02.041Z</time>
      </trkpt>
      <trkpt lat="44.35549" lon="4.65665">
        <ele>99.849304</ele>
        <time>2025-02-03T09:32:04.046Z</time>
      </trkpt>
      <trkpt lat="44.35537" lon="4.65666">
        <ele>99.803726</ele>
        <time>2025-02-03T09:32:06.033Z</time>
      </trkpt>
      <trkpt lat="44.35526" lon="4.65665">
        <ele>99.760121</ele>
        <time>2025-02-03T09:32:08.046Z</time>
      </trkpt>
      <trkpt lat="44.35516" lon="4.65663">
        <ele>99.718117</ele>
        <time>2025-02-03T09:32:10.029Z</time>
      </trkpt>
      <trkpt lat="44.35506" lon="4.65659">
        <ele>99.676452</ele>
        <time>2025-02-03T09:32:12.037Z</time>
      </trkpt>
      <trkpt lat="44.35496" lon="4.65654">
        <ele>99.633624</ele>
        <time>2025-02-03T09:32:14.022Z</time>
      </trkpt>
      <trkpt lat="44.35486" lon="4.65649">
        <ele>99.589449</ele>
        <time>2025-02-03T09:32:16.022Z</time>
      </trkpt>
      <trkpt lat="44.35475" lon="4.65643">
        <ele>99.545852</ele>
        <time>2025-02-03T09:32:18.049Z</time>
      </trkpt>
      <trkpt lat="44.35465" lon="4.65638">
        <ele>99.502153</ele>
        <time>2025-02-03T09:32:20.039Z</time>
      </trkpt>
      <trkpt lat="44.35455" lon="4.65632">
        <ele>99.458454</ele>
        <time>2025-02-03T09:32:22.051Z</time>
      </trkpt>
      <trkpt lat="44.35445" lon="4.65626">
        <ele>99.413766</ele>
        <time>2025-02-03T09:32:24.027Z</time>
      </trkpt>
      <trkpt lat="44.35434" lon="4.6562">
        <ele>99.367576</ele>
        <time>2025-02-03T09:32:26.033Z</time>
      </trkpt>
      <trkpt lat="44.35423" lon="4.65613">
        <ele>99.318205</ele>
        <time>2025-02-03T09:32:28.038Z</time>
      </trkpt>
      <trkpt lat="44.35412" lon="4.65606">
        <ele>99.269411</ele>
        <time>2025-02-03T09:32:30.052Z</time>
      </trkpt>
      <trkpt lat="44.35401" lon="4.65599">
        <ele>99.228582</ele>
        <time>2025-02-03T09:32:32.027Z</time>
      </trkpt>
      <trkpt lat="44.3539" lon="4.65592">
        <ele>99.271451</ele>
        <time>2025-02-03T09:32:34.035Z</time>
      </trkpt>
      <trkpt lat="44.3538" lon="4.65585">
        <ele>99.313229</ele>
        <time>2025-02-03T09:32:36.041Z</time>
      </trkpt>
      <trkpt lat="44.35368" lon="4.65581">
        <ele>99.356697</ele>
        <time>2025-02-03T09:32:38.022Z</time>
      </trkpt>
      <trkpt lat="44.35357" lon="4.65582">
        <ele>99.397166</ele>
        <time>2025-02-03T09:32:40.033Z</time>
      </trkpt>
      <trkpt lat="44.35347" lon="4.65586">
        <ele>99.435466</ele>
        <time>2025-02-03T09:32:42.017Z</time>
      </trkpt>
      <trkpt lat="44.35336" lon="4.65594">
        <ele>99.479778</ele>
        <time>2025-02-03T09:32:44.040Z</time>
      </trkpt>
      <trkpt lat="44.35326" lon="4.65602">
        <ele>99.522962</ele>
        <time>2025-02-03T09:32:46.047Z</time>
      </trkpt>
      <trkpt lat="44.35316" lon="4.6561">
        <ele>99.565775</ele>
        <time>2025-02-03T09:32:48.033Z</time>
      </trkpt>
      <trkpt lat="44.35306" lon="4.65617">
        <ele>99.607627</ele>
        <time>2025-02-03T09:32:50.029Z</time>
      </trkpt>
      <trkpt lat="44.35296" lon="4.65625">
        <ele>99.648152</ele>
        <time>2025-02-03T09:32:52.021Z</time>
      </trkpt>
      <trkpt lat="44.35286" lon="4.65631">
        <ele>99.686294</ele>
        <time>2025-02-03T09:32:54.032Z</time>
      </trkpt>
      <trkpt lat="44.35277" lon="4.65639">
        <ele>99.726494</ele>
        <time>2025-02-03T09:32:56.059Z</time>
      </trkpt>
      <trkpt lat="44.35267" lon="4.65646">
        <ele>99.765488</ele>
        <time>2025-02-03T09:32:58.030Z</time>
      </trkpt>
      <trkpt lat="44.35258" lon="4.65653">
        <ele>99.804356</ele>
        <time>2025-02-03T09:33:00.034Z</time>
      </trkpt>
      <trkpt lat="44.35248" lon="4.6566">
        <ele>99.844044</ele>
        <time>2025-02-03T09:33:02.017Z</time>
      </trkpt>
      <trkpt lat="44.35238" lon="4.65666">
        <ele>99.878702</ele>
        <time>2025-02-03T09:33:04.043Z</time>
      </trkpt>
      <trkpt lat="44.35229" lon="4.65674">
        <ele>99.865834</ele>
        <time>2025-02-03T09:33:06.022Z</time>
      </trkpt>
      <trkpt lat="44.35219" lon="4.65681">
        <ele>99.852966</ele>
        <time>2025-02-03T09:33:08.026Z</time>
      </trkpt>
      <trkpt lat="44.35209" lon="4.65688">
        <ele>99.839696</ele>
        <time>2025-02-03T09:33:10.021Z</time>
      </trkpt>
      <trkpt lat="44.35199" lon="4.65696">
        <ele>99.826376</ele>
        <time>2025-02-03T09:33:12.047Z</time>
      </trkpt>
      <trkpt lat="44.35189" lon="4.65703">
        <ele>99.812991</ele>
        <time>2025-02-03T09:33:14.030Z</time>
      </trkpt>
      <trkpt lat="44.35179" lon="4.6571">
        <ele>99.800006</ele>
        <time>2025-02-03T09:33:16.051Z</time>
      </trkpt>
      <trkpt lat="44.35169" lon="4.65717">
        <ele>99.786594</ele>
        <time>2025-02-03T09:33:18.039Z</time>
      </trkpt>
      <trkpt lat="44.35158" lon="4.65725">
        <ele>99.772701</ele>
        <time>2025-02-03T09:33:20.024Z</time>
      </trkpt>
      <trkpt lat="44.35148" lon="4.65732">
        <ele>99.75942</ele>
        <time>2025-02-03T09:33:22.120Z</time>
      </trkpt>
      <trkpt lat="44.35138" lon="4.6574">
        <ele>99.745978</ele>
        <time>2025-02-03T09:33:24.002Z</time>
      </trkpt>
      <trkpt lat="44.35128" lon="4.65748">
        <ele>99.732347</ele>
        <time>2025-02-03T09:33:26.002Z</time>
      </trkpt>
      <trkpt lat="44.35118" lon="4.65755">
        <ele>99.719151</ele>
        <time>2025-02-03T09:33:28.024Z</time>
      </trkpt>
      <trkpt lat="44.35108" lon="4.65763">
        <ele>99.706033</ele>
        <time>2025-02-03T09:33:30.043Z</time>
      </trkpt>
      <trkpt lat="44.35099" lon="4.65771">
        <ele>99.692695</ele>
        <time>2025-02-03T09:33:32.047Z</time>
      </trkpt>
      <trkpt lat="44.35089" lon="4.65779">
        <ele>99.679724</ele>
        <time>2025-02-03T09:33:34.029Z</time>
      </trkpt>
      <trkpt lat="44.35079" lon="4.65786">
        <ele>99.669816</ele>
        <time>2025-02-03T09:33:36.032Z</time>
      </trkpt>
      <trkpt lat="44.35069" lon="4.65793">
        <ele>99.674477</ele>
        <time>2025-02-03T09:33:38.021Z</time>
      </trkpt>
      <trkpt lat="44.35059" lon="4.65801">
        <ele>99.679207</ele>
        <time>2025-02-03T09:33:40.020Z</time>
      </trkpt>
      <trkpt lat="44.35049" lon="4.65809">
        <ele>99.683872</ele>
        <time>2025-02-03T09:33:42.028Z</time>
      </trkpt>
      <trkpt lat="44.35039" lon="4.65816">
        <ele>99.68857</ele>
        <time>2025-02-03T09:33:44.026Z</time>
      </trkpt>
      <trkpt lat="44.35029" lon="4.65823">
        <ele>99.693218</ele>
        <time>2025-02-03T09:33:46.022Z</time>
      </trkpt>
      <trkpt lat="44.35018" lon="4.65831">
        <ele>99.698056</ele>
        <time>2025-02-03T09:33:48.047Z</time>
      </trkpt>
      <trkpt lat="44.35008" lon="4.65839">
        <ele>99.702831</ele>
        <time>2025-02-03T09:33:50.024Z</time>
      </trkpt>
      <trkpt lat="44.34998" lon="4.65846">
        <ele>99.707469</ele>
        <time>2025-02-03T09:33:52.021Z</time>
      </trkpt>
      <trkpt lat="44.34987" lon="4.65854">
        <ele>99.712321</ele>
        <time>2025-02-03T09:33:54.026Z</time>
      </trkpt>
      <trkpt lat="44.34977" lon="4.65861">
        <ele>99.717123</ele>
        <time>2025-02-03T09:33:56.023Z</time>
      </trkpt>
      <trkpt lat="44.34967" lon="4.6587">
        <ele>99.72204</ele>
        <time>2025-02-03T09:33:58.037Z</time>
      </trkpt>
      <trkpt lat="44.34957" lon="4.65878">
        <ele>99.726827</ele>
        <time>2025-02-03T09:34:00.049Z</time>
      </trkpt>
      <trkpt lat="44.34946" lon="4.65885">
        <ele>99.731601</ele>
        <time>2025-02-03T09:34:02.022Z</time>
      </trkpt>
      <trkpt lat="44.34936" lon="4.65892">
        <ele>99.73626</ele>
        <time>2025-02-03T09:34:04.053Z</time>
      </trkpt>
      <trkpt lat="44.34926" lon="4.65898">
        <ele>99.740783</ele>
        <time>2025-02-03T09:34:06.036Z</time>
      </trkpt>
      <trkpt lat="44.34915" lon="4.65904">
        <ele>99.758594</ele>
        <time>2025-02-03T09:34:08.026Z</time>
      </trkpt>
      <trkpt lat="44.34904" lon="4.65908">
        <ele>99.786374</ele>
        <time>2025-02-03T09:34:10.051Z</time>
      </trkpt>
      <trkpt lat="44.34892" lon="4.6591">
        <ele>99.814152</ele>
        <time>2025-02-03T09:34:12.028Z</time>
      </trkpt>
      <trkpt lat="44.34882" lon="4.65913">
        <ele>99.840309</ele>
        <time>2025-02-03T09:34:14.032Z</time>
      </trkpt>
      <trkpt lat="44.34871" lon="4.65914">
        <ele>99.866435</ele>
        <time>2025-02-03T09:34:16.040Z</time>
      </trkpt>
      <trkpt lat="44.34859" lon="4.65915">
        <ele>99.893654</ele>
        <time>2025-02-03T09:34:18.010Z</time>
      </trkpt>
      <trkpt lat="44.34849" lon="4.65916">
        <ele>99.91781</ele>
        <time>2025-02-03T09:34:20.032Z</time>
      </trkpt>
      <trkpt lat="44.34838" lon="4.65917">
        <ele>99.944207</ele>
        <time>2025-02-03T09:34:22.035Z</time>
      </trkpt>
      <trkpt lat="44.34827" lon="4.65917">
        <ele>99.969985</ele>
        <time>2025-02-03T09:34:24.045Z</time>
      </trkpt>
      <trkpt lat="44.34817" lon="4.65918">
        <ele>99.99439</ele>
        <time>2025-02-03T09:34:26.051Z</time>
      </trkpt>
      <trkpt lat="44.34807" lon="4.65919">
        <ele>100.01857</ele>
        <time>2025-02-03T09:34:28.026Z</time>
      </trkpt>
      <trkpt lat="44.34796" lon="4.65918">
        <ele>100.044237</ele>
        <time>2025-02-03T09:34:30.040Z</time>
      </trkpt>
      <trkpt lat="44.34786" lon="4.65916">
        <ele>100.069035</ele>
        <time>2025-02-03T09:34:32.034Z</time>
      </trkpt>
      <trkpt lat="44.34776" lon="4.65912">
        <ele>100.093829</ele>
        <time>2025-02-03T09:34:34.017Z</time>
      </trkpt>
      <trkpt lat="44.34768" lon="4.65907">
        <ele>100.115773</ele>
        <time>2025-02-03T09:34:36.028Z</time>
      </trkpt>
      <trkpt lat="44.3476" lon="4.65901">
        <ele>100.13748</ele>
        <time>2025-02-03T09:34:38.024Z</time>
      </trkpt>
      <trkpt lat="44.34748" lon="4.65894">
        <ele>100.168385</ele>
        <time>2025-02-03T09:34:41.043Z</time>
      </trkpt>
      <trkpt lat="44.34735" lon="4.65887">
        <ele>100.171462</ele>
        <time>2025-02-03T09:34:44.003Z</time>
      </trkpt>
      <trkpt lat="44.34726" lon="4.65881">
        <ele>100.170894</ele>
        <time>2025-02-03T09:34:46.010Z</time>
      </trkpt>
      <trkpt lat="44.34718" lon="4.65875">
        <ele>100.170329</ele>
        <time>2025-02-03T09:34:48.025Z</time>
      </trkpt>
      <trkpt lat="44.34709" lon="4.65869">
        <ele>100.169768</ele>
        <time>2025-02-03T09:34:50.047Z</time>
      </trkpt>
      <trkpt lat="44.347" lon="4.65864">
        <ele>100.169196</ele>
        <time>2025-02-03T09:34:52.020Z</time>
      </trkpt>
      <trkpt lat="44.34691" lon="4.65858">
        <ele>100.168631</ele>
        <time>2025-02-03T09:34:54.026Z</time>
      </trkpt>
      <trkpt lat="44.34683" lon="4.65851">
        <ele>100.16807</ele>
        <time>2025-02-03T09:34:56.020Z</time>
      </trkpt>
      <trkpt lat="44.34675" lon="4.65843">
        <ele>100.167504</ele>
        <time>2025-02-03T09:34:58.035Z</time>
      </trkpt>
      <trkpt lat="44.34667" lon="4.65835">
        <ele>100.166937</ele>
        <time>2025-02-03T09:35:00.008Z</time>
      </trkpt>
      <trkpt lat="44.34659" lon="4.65828">
        <ele>100.166388</ele>
        <time>2025-02-03T09:35:02.028Z</time>
      </trkpt>
      <trkpt lat="44.3465" lon="4.65823">
        <ele>100.165805</ele>
        <time>2025-02-03T09:35:04.035Z</time>
      </trkpt>
      <trkpt lat="44.34636" lon="4.65821">
        <ele>100.165022</ele>
        <time>2025-02-03T09:35:07.046Z</time>
      </trkpt>
      <trkpt lat="44.34623" lon="4.65822">
        <ele>100.164271</ele>
        <time>2025-02-03T09:35:10.039Z</time>
      </trkpt>
      <trkpt lat="44.34615" lon="4.65826">
        <ele>100.163739</ele>
        <time>2025-02-03T09:35:12.025Z</time>
      </trkpt>
      <trkpt lat="44.34606" lon="4.6583">
        <ele>100.163217</ele>
        <time>2025-02-03T09:35:14.027Z</time>
      </trkpt>
      <trkpt lat="44.34598" lon="4.65837">
        <ele>100.162671</ele>
        <time>2025-02-03T09:35:16.035Z</time>
      </trkpt>
      <trkpt lat="44.34588" lon="4.65843">
        <ele>100.162013</ele>
        <time>2025-02-03T09:35:18.032Z</time>
      </trkpt>
      <trkpt lat="44.34576" lon="4.65849">
        <ele>100.145952</ele>
        <time>2025-02-03T09:35:20.038Z</time>
      </trkpt>
      <trkpt lat="44.34565" lon="4.65856">
        <ele>100.119006</ele>
        <time>2025-02-03T09:35:22.011Z</time>
      </trkpt>
      <trkpt lat="44.34555" lon="4.65863">
        <ele>100.09296</ele>
        <time>2025-02-03T09:35:24.037Z</time>
      </trkpt>
      <trkpt lat="44.34544" lon="4.65869">
        <ele>100.066439</ele>
        <time>2025-02-03T09:35:26.038Z</time>
      </trkpt>
      <trkpt lat="44.34533" lon="4.65876">
        <ele>100.040237</ele>
        <time>2025-02-03T09:35:28.017Z</time>
      </trkpt>
      <trkpt lat="44.34523" lon="4.65882">
        <ele>100.014795</ele>
        <time>2025-02-03T09:35:29.997Z</time>
      </trkpt>
      <trkpt lat="44.34512" lon="4.65888">
        <ele>99.990079</ele>
        <time>2025-02-03T09:35:32.023Z</time>
      </trkpt>
      <trkpt lat="44.34502" lon="4.65894">
        <ele>99.965381</ele>
        <time>2025-02-03T09:35:34.001Z</time>
      </trkpt>
      <trkpt lat="44.34493" lon="4.65901">
        <ele>99.9417</ele>
        <time>2025-02-03T09:35:36.013Z</time>
      </trkpt>
      <trkpt lat="44.34483" lon="4.65906">
        <ele>99.918141</ele>
        <time>2025-02-03T09:35:38.013Z</time>
      </trkpt>
      <trkpt lat="44.34473" lon="4.65913">
        <ele>99.893237</ele>
        <time>2025-02-03T09:35:40.018Z</time>
      </trkpt>
      <trkpt lat="44.34463" lon="4.65919">
        <ele>99.868253</ele>
        <time>2025-02-03T09:35:42.027Z</time>
      </trkpt>
      <trkpt lat="44.34452" lon="4.65925">
        <ele>99.843619</ele>
        <time>2025-02-03T09:35:44.037Z</time>
      </trkpt>
      <trkpt lat="44.34442" lon="4.65931">
        <ele>99.818367</ele>
        <time>2025-02-03T09:35:46.036Z</time>
      </trkpt>
      <trkpt lat="44.34432" lon="4.65937">
        <ele>99.793668</ele>
        <time>2025-02-03T09:35:48.039Z</time>
      </trkpt>
      <trkpt lat="44.34422" lon="4.65943">
        <ele>99.769788</ele>
        <time>2025-02-03T09:35:50.035Z</time>
      </trkpt>
      <trkpt lat="44.34413" lon="4.65949">
        <ele>99.743095</ele>
        <time>2025-02-03T09:35:52.042Z</time>
      </trkpt>
      <trkpt lat="44.34404" lon="4.65956">
        <ele>99.714523</ele>
        <time>2025-02-03T09:35:54.030Z</time>
      </trkpt>
      <trkpt lat="44.34394" lon="4.65962">
        <ele>99.68511</ele>
        <time>2025-02-03T09:35:56.046Z</time>
      </trkpt>
      <trkpt lat="44.34384" lon="4.65967">
        <ele>99.655081</ele>
        <time>2025-02-03T09:35:58.036Z</time>
      </trkpt>
      <trkpt lat="44.34373" lon="4.65973">
        <ele>99.623671</ele>
        <time>2025-02-03T09:36:00.032Z</time>
      </trkpt>
      <trkpt lat="44.34363" lon="4.65979">
        <ele>99.593034</ele>
        <time>2025-02-03T09:36:02.036Z</time>
      </trkpt>
      <trkpt lat="44.34353" lon="4.65986">
        <ele>99.561034</ele>
        <time>2025-02-03T09:36:04.018Z</time>
      </trkpt>
      <trkpt lat="44.34342" lon="4.65992">
        <ele>99.528779</ele>
        <time>2025-02-03T09:36:06.040Z</time>
      </trkpt>
      <trkpt lat="44.34331" lon="4.65999">
        <ele>99.494756</ele>
        <time>2025-02-03T09:36:08.036Z</time>
      </trkpt>
      <trkpt lat="44.3432" lon="4.66005">
        <ele>99.461835</ele>
        <time>2025-02-03T09:36:10.028Z</time>
      </trkpt>
      <trkpt lat="44.34309" lon="4.66012">
        <ele>99.429089</ele>
        <time>2025-02-03T09:36:12.027Z</time>
      </trkpt>
      <trkpt lat="44.34298" lon="4.66018">
        <ele>99.396678</ele>
        <time>2025-02-03T09:36:14.030Z</time>
      </trkpt>
      <trkpt lat="44.34288" lon="4.66025">
        <ele>99.3646</ele>
        <time>2025-02-03T09:36:16.049Z</time>
      </trkpt>
      <trkpt lat="44.34277" lon="4.66031">
        <ele>99.333123</ele>
        <time>2025-02-03T09:36:18.031Z</time>
      </trkpt>
      <trkpt lat="44.34266" lon="4.66038">
        <ele>99.300278</ele>
        <time>2025-02-03T09:36:20.024Z</time>
      </trkpt>
      <trkpt lat="44.34256" lon="4.66044">
        <ele>99.269457</ele>
        <time>2025-02-03T09:36:22.028Z</time>
      </trkpt>
      <trkpt lat="44.34245" lon="4.6605">
        <ele>99.255963</ele>
        <time>2025-02-03T09:36:24.031Z</time>
      </trkpt>
      <trkpt lat="44.34235" lon="4.66055">
        <ele>99.251216</ele>
        <time>2025-02-03T09:36:26.059Z</time>
      </trkpt>
      <trkpt lat="44.34224" lon="4.6606">
        <ele>99.246685</ele>
        <time>2025-02-03T09:36:28.025Z</time>
      </trkpt>
      <trkpt lat="44.34214" lon="4.66064">
        <ele>99.242081</ele>
        <time>2025-02-03T09:36:30.011Z</time>
      </trkpt>
      <trkpt lat="44.34202" lon="4.66068">
        <ele>99.237227</ele>
        <time>2025-02-03T09:36:32.022Z</time>
      </trkpt>
      <trkpt lat="44.34191" lon="4.66072">
        <ele>99.232318</ele>
        <time>2025-02-03T09:36:34.011Z</time>
      </trkpt>
      <trkpt lat="44.34179" lon="4.66076">
        <ele>99.227354</ele>
        <time>2025-02-03T09:36:36.039Z</time>
      </trkpt>
      <trkpt lat="44.34168" lon="4.6608">
        <ele>99.222548</ele>
        <time>2025-02-03T09:36:38.030Z</time>
      </trkpt>
      <trkpt lat="44.34157" lon="4.66085">
        <ele>99.217719</ele>
        <time>2025-02-03T09:36:40.030Z</time>
      </trkpt>
      <trkpt lat="44.34146" lon="4.66089">
        <ele>99.212986</ele>
        <time>2025-02-03T09:36:42.018Z</time>
      </trkpt>
      <trkpt lat="44.34135" lon="4.66092">
        <ele>99.208349</ele>
        <time>2025-02-03T09:36:44.055Z</time>
      </trkpt>
      <trkpt lat="44.34125" lon="4.66097">
        <ele>99.203816</ele>
        <time>2025-02-03T09:36:46.034Z</time>
      </trkpt>
      <trkpt lat="44.34114" lon="4.66101">
        <ele>99.199226</ele>
        <time>2025-02-03T09:36:48.029Z</time>
      </trkpt>
      <trkpt lat="44.34103" lon="4.66105">
        <ele>99.194518</ele>
        <time>2025-02-03T09:36:50.045Z</time>
      </trkpt>
      <trkpt lat="44.34092" lon="4.66109">
        <ele>99.189719</ele>
        <time>2025-02-03T09:36:52.029Z</time>
      </trkpt>
      <trkpt lat="44.34082" lon="4.66112">
        <ele>99.185353</ele>
        <time>2025-02-03T09:36:54.029Z</time>
      </trkpt>
      <trkpt lat="44.34071" lon="4.66116">
        <ele>99.074267</ele>
        <time>2025-02-03T09:36:56.044Z</time>
      </trkpt>
      <trkpt lat="44.34061" lon="4.6612">
        <ele>98.937345</ele>
        <time>2025-02-03T09:36:58.048Z</time>
      </trkpt>
      <trkpt lat="44.3405" lon="4.66124">
        <ele>98.794957</ele>
        <time>2025-02-03T09:37:00.033Z</time>
      </trkpt>
      <trkpt lat="44.34039" lon="4.66128">
        <ele>98.650516</ele>
        <time>2025-02-03T09:37:02.033Z</time>
      </trkpt>
      <trkpt lat="44.34029" lon="4.6613">
        <ele>98.515438</ele>
        <time>2025-02-03T09:37:04.039Z</time>
      </trkpt>
      <trkpt lat="44.34019" lon="4.66134">
        <ele>98.383414</ele>
        <time>2025-02-03T09:37:06.029Z</time>
      </trkpt>
      <trkpt lat="44.34008" lon="4.66137">
        <ele>98.243516</ele>
        <time>2025-02-03T09:37:08.027Z</time>
      </trkpt>
      <trkpt lat="44.33996" lon="4.66141">
        <ele>98.090729</ele>
        <time>2025-02-03T09:37:10.041Z</time>
      </trkpt>
      <trkpt lat="44.33984" lon="4.66145">
        <ele>97.927164</ele>
        <time>2025-02-03T09:37:12.036Z</time>
      </trkpt>
      <trkpt lat="44.33971" lon="4.66149">
        <ele>97.757725</ele>
        <time>2025-02-03T09:37:14.030Z</time>
      </trkpt>
      <trkpt lat="44.33958" lon="4.6615">
        <ele>97.595965</ele>
        <time>2025-02-03T09:37:16.034Z</time>
      </trkpt>
      <trkpt lat="44.33945" lon="4.66148">
        <ele>97.426797</ele>
        <time>2025-02-03T09:37:18.012Z</time>
      </trkpt>
      <trkpt lat="44.33933" lon="4.66142">
        <ele>97.26024</ele>
        <time>2025-02-03T09:37:20.032Z</time>
      </trkpt>
      <trkpt lat="44.33921" lon="4.66134">
        <ele>97.093724</ele>
        <time>2025-02-03T09:37:22.030Z</time>
      </trkpt>
      <trkpt lat="44.3391" lon="4.66127">
        <ele>96.93495</ele>
        <time>2025-02-03T09:37:24.030Z</time>
      </trkpt>
      <trkpt lat="44.33899" lon="4.6612">
        <ele>96.956199</ele>
        <time>2025-02-03T09:37:26.024Z</time>
      </trkpt>
      <trkpt lat="44.33887" lon="4.66112">
        <ele>97.063648</ele>
        <time>2025-02-03T09:37:28.036Z</time>
      </trkpt>
      <trkpt lat="44.33876" lon="4.66106">
        <ele>97.166224</ele>
        <time>2025-02-03T09:37:30.025Z</time>
      </trkpt>
      <trkpt lat="44.33866" lon="4.66099">
        <ele>97.265645</ele>
        <time>2025-02-03T09:37:32.050Z</time>
      </trkpt>
      <trkpt lat="44.33856" lon="4.66091">
        <ele>97.365447</ele>
        <time>2025-02-03T09:37:34.044Z</time>
      </trkpt>
      <trkpt lat="44.33845" lon="4.66084">
        <ele>97.469016</ele>
        <time>2025-02-03T09:37:36.026Z</time>
      </trkpt>
      <trkpt lat="44.33834" lon="4.66078">
        <ele>97.569063</ele>
        <time>2025-02-03T09:37:38.045Z</time>
      </trkpt>
      <trkpt lat="44.33823" lon="4.66072">
        <ele>97.667352</ele>
        <time>2025-02-03T09:37:40.010Z</time>
      </trkpt>
      <trkpt lat="44.33812" lon="4.66068">
        <ele>97.769363</ele>
        <time>2025-02-03T09:37:42.020Z</time>
      </trkpt>
      <trkpt lat="44.338" lon="4.66066">
        <ele>97.871729</ele>
        <time>2025-02-03T09:37:44.021Z</time>
      </trkpt>
      <trkpt lat="44.33788" lon="4.66063">
        <ele>97.974943</ele>
        <time>2025-02-03T09:37:46.025Z</time>
      </trkpt>
      <trkpt lat="44.33776" lon="4.66061">
        <ele>98.078577</ele>
        <time>2025-02-03T09:37:48.022Z</time>
      </trkpt>
      <trkpt lat="44.33764" lon="4.66058">
        <ele>98.178505</ele>
        <time>2025-02-03T09:37:50.011Z</time>
      </trkpt>
      <trkpt lat="44.33753" lon="4.66054">
        <ele>98.27991</ele>
        <time>2025-02-03T09:37:52.027Z</time>
      </trkpt>
      <trkpt lat="44.33741" lon="4.66049">
        <ele>98.385222</ele>
        <time>2025-02-03T09:37:54.018Z</time>
      </trkpt>
      <trkpt lat="44.3373" lon="4.66044">
        <ele>98.361637</ele>
        <time>2025-02-03T09:37:56.048Z</time>
      </trkpt>
      <trkpt lat="44.33719" lon="4.6604">
        <ele>98.255475</ele>
        <time>2025-02-03T09:37:58.028Z</time>
      </trkpt>
      <trkpt lat="44.33707" lon="4.66035">
        <ele>98.149489</ele>
        <time>2025-02-03T09:38:00.049Z</time>
      </trkpt>
      <trkpt lat="44.33697" lon="4.6603">
        <ele>98.046539</ele>
        <time>2025-02-03T09:38:02.012Z</time>
      </trkpt>
      <trkpt lat="44.33685" lon="4.66026">
        <ele>97.937739</ele>
        <time>2025-02-03T09:38:04.036Z</time>
      </trkpt>
      <trkpt lat="44.33673" lon="4.66021">
        <ele>97.825777</ele>
        <time>2025-02-03T09:38:06.031Z</time>
      </trkpt>
      <trkpt lat="44.33661" lon="4.66015">
        <ele>97.708807</ele>
        <time>2025-02-03T09:38:08.040Z</time>
      </trkpt>
      <trkpt lat="44.3365" lon="4.66009">
        <ele>97.595529</ele>
        <time>2025-02-03T09:38:10.035Z</time>
      </trkpt>
      <trkpt lat="44.33637" lon="4.66004">
        <ele>97.476416</ele>
        <time>2025-02-03T09:38:12.044Z</time>
      </trkpt>
      <trkpt lat="44.33625" lon="4.65998">
        <ele>97.359478</ele>
        <time>2025-02-03T09:38:14.029Z</time>
      </trkpt>
      <trkpt lat="44.33613" lon="4.65992">
        <ele>97.239739</ele>
        <time>2025-02-03T09:38:16.022Z</time>
      </trkpt>
      <trkpt lat="44.336" lon="4.65986">
        <ele>97.11996</ele>
        <time>2025-02-03T09:38:18.030Z</time>
      </trkpt>
      <trkpt lat="44.33588" lon="4.6598">
        <ele>97.001052</ele>
        <time>2025-02-03T09:38:20.020Z</time>
      </trkpt>
      <trkpt lat="44.33576" lon="4.65973">
        <ele>96.879578</ele>
        <time>2025-02-03T09:38:22.021Z</time>
      </trkpt>
      <trkpt lat="44.33563" lon="4.65967">
        <ele>96.769367</ele>
        <time>2025-02-03T09:38:24.028Z</time>
      </trkpt>
      <trkpt lat="44.3355" lon="4.6596">
        <ele>96.697725</ele>
        <time>2025-02-03T09:38:26.018Z</time>
      </trkpt>
      <trkpt lat="44.33538" lon="4.65955">
        <ele>96.627609</ele>
        <time>2025-02-03T09:38:28.022Z</time>
      </trkpt>
      <trkpt lat="44.33526" lon="4.65951">
        <ele>96.562254</ele>
        <time>2025-02-03T09:38:30.031Z</time>
      </trkpt>
      <trkpt lat="44.33515" lon="4.65947">
        <ele>96.503164</ele>
        <time>2025-02-03T09:38:32.033Z</time>
      </trkpt>
      <trkpt lat="44.33505" lon="4.65945">
        <ele>96.454172</ele>
        <time>2025-02-03T09:38:34.027Z</time>
      </trkpt>
      <trkpt lat="44.33494" lon="4.65944">
        <ele>96.395025</ele>
        <time>2025-02-03T09:38:37.028Z</time>
      </trkpt>
      <trkpt lat="44.33484" lon="4.65943">
        <ele>96.338555</ele>
        <time>2025-02-03T09:38:40.039Z</time>
      </trkpt>
      <trkpt lat="44.33473" lon="4.6594">
        <ele>96.282113</ele>
        <time>2025-02-03T09:38:42.011Z</time>
      </trkpt>
      <trkpt lat="44.3346" lon="4.65936">
        <ele>96.213532</ele>
        <time>2025-02-03T09:38:44.025Z</time>
      </trkpt>
      <trkpt lat="44.33446" lon="4.65931">
        <ele>96.137317</ele>
        <time>2025-02-03T09:38:46.033Z</time>
      </trkpt>
      <trkpt lat="44.33432" lon="4.65925">
        <ele>96.057654</ele>
        <time>2025-02-03T09:38:48.050Z</time>
      </trkpt>
      <trkpt lat="44.33417" lon="4.65919">
        <ele>95.974241</ele>
        <time>2025-02-03T09:38:50.020Z</time>
      </trkpt>
      <trkpt lat="44.33402" lon="4.65915">
        <ele>95.896659</ele>
        <time>2025-02-03T09:38:52.040Z</time>
      </trkpt>
      <trkpt lat="44.33387" lon="4.65913">
        <ele>95.851859</ele>
        <time>2025-02-03T09:38:54.025Z</time>
      </trkpt>
      <trkpt lat="44.33373" lon="4.65914">
        <ele>95.913705</ele>
        <time>2025-02-03T09:38:56.032Z</time>
      </trkpt>
      <trkpt lat="44.33359" lon="4.65915">
        <ele>95.973078</ele>
        <time>2025-02-03T09:38:58.029Z</time>
      </trkpt>
      <trkpt lat="44.33346" lon="4.65917">
        <ele>96.028406</ele>
        <time>2025-02-03T09:39:00.062Z</time>
      </trkpt>
      <trkpt lat="44.33333" lon="4.65921">
        <ele>96.082689</ele>
        <time>2025-02-03T09:39:02.003Z</time>
      </trkpt>
      <trkpt lat="44.33321" lon="4.65924">
        <ele>96.135573</ele>
        <time>2025-02-03T09:39:04.027Z</time>
      </trkpt>
      <trkpt lat="44.33309" lon="4.65926">
        <ele>96.183982</ele>
        <time>2025-02-03T09:39:06.032Z</time>
      </trkpt>
      <trkpt lat="44.33299" lon="4.65929">
        <ele>96.229535</ele>
        <time>2025-02-03T09:39:08.007Z</time>
      </trkpt>
      <trkpt lat="44.33288" lon="4.65933">
        <ele>96.275962</ele>
        <time>2025-02-03T09:39:10.030Z</time>
      </trkpt>
      <trkpt lat="44.33276" lon="4.65938">
        <ele>96.328953</ele>
        <time>2025-02-03T09:39:12.025Z</time>
      </trkpt>
      <trkpt lat="44.33265" lon="4.65942">
        <ele>96.376763</ele>
        <time>2025-02-03T09:39:14.028Z</time>
      </trkpt>
      <trkpt lat="44.33254" lon="4.65945">
        <ele>96.423265</ele>
        <time>2025-02-03T09:39:16.044Z</time>
      </trkpt>
      <trkpt lat="44.33244" lon="4.65948">
        <ele>96.467816</ele>
        <time>2025-02-03T09:39:18.033Z</time>
      </trkpt>
      <trkpt lat="44.33232" lon="4.65951">
        <ele>96.519094</ele>
        <time>2025-02-03T09:39:20.041Z</time>
      </trkpt>
      <trkpt lat="44.33219" lon="4.65954">
        <ele>96.574982</ele>
        <time>2025-02-03T09:39:22.027Z</time>
      </trkpt>
      <trkpt lat="44.33207" lon="4.65957">
        <ele>96.60406</ele>
        <time>2025-02-03T09:39:24.035Z</time>
      </trkpt>
      <trkpt lat="44.33195" lon="4.65962">
        <ele>96.622763</ele>
        <time>2025-02-03T09:39:26.032Z</time>
      </trkpt>
      <trkpt lat="44.33184" lon="4.65966">
        <ele>96.639869</ele>
        <time>2025-02-03T09:39:28.027Z</time>
      </trkpt>
      <trkpt lat="44.33173" lon="4.6597">
        <ele>96.656889</ele>
        <time>2025-02-03T09:39:30.027Z</time>
      </trkpt>
      <trkpt lat="44.33162" lon="4.65975">
        <ele>96.67298</ele>
        <time>2025-02-03T09:39:32.025Z</time>
      </trkpt>
      <trkpt lat="44.33152" lon="4.65977">
        <ele>96.687948</ele>
        <time>2025-02-03T09:39:34.023Z</time>
      </trkpt>
      <trkpt lat="44.33142" lon="4.6598">
        <ele>96.703098</ele>
        <time>2025-02-03T09:39:36.028Z</time>
      </trkpt>
      <trkpt lat="44.33132" lon="4.65982">
        <ele>96.719009</ele>
        <time>2025-02-03T09:39:38.042Z</time>
      </trkpt>
      <trkpt lat="44.33121" lon="4.65982">
        <ele>96.733909</ele>
        <time>2025-02-03T09:39:40.044Z</time>
      </trkpt>
      <trkpt lat="44.33111" lon="4.65981">
        <ele>96.748715</ele>
        <time>2025-02-03T09:39:42.027Z</time>
      </trkpt>
      <trkpt lat="44.33102" lon="4.65979">
        <ele>96.763236</ele>
        <time>2025-02-03T09:39:44.028Z</time>
      </trkpt>
      <trkpt lat="44.33092" lon="4.65978">
        <ele>96.777758</ele>
        <time>2025-02-03T09:39:46.028Z</time>
      </trkpt>
      <trkpt lat="44.33082" lon="4.65976">
        <ele>96.792353</ele>
        <time>2025-02-03T09:39:48.035Z</time>
      </trkpt>
      <trkpt lat="44.33072" lon="4.65974">
        <ele>96.807679</ele>
        <time>2025-02-03T09:39:50.022Z</time>
      </trkpt>
      <trkpt lat="44.33062" lon="4.65972">
        <ele>96.822974</ele>
        <time>2025-02-03T09:39:52.029Z</time>
      </trkpt>
      <trkpt lat="44.33051" lon="4.65969">
        <ele>96.838995</ele>
        <time>2025-02-03T09:39:54.316Z</time>
      </trkpt>
      <trkpt lat="44.3304" lon="4.65967">
        <ele>96.855127</ele>
        <time>2025-02-03T09:39:56.023Z</time>
      </trkpt>
      <trkpt lat="44.3303" lon="4.65965">
        <ele>96.834084</ele>
        <time>2025-02-03T09:39:58.034Z</time>
      </trkpt>
      <trkpt lat="44.33019" lon="4.65964">
        <ele>96.800106</ele>
        <time>2025-02-03T09:40:00.024Z</time>
      </trkpt>
      <trkpt lat="44.33009" lon="4.65964">
        <ele>96.76681</ele>
        <time>2025-02-03T09:40:02.054Z</time>
      </trkpt>
      <trkpt lat="44.32998" lon="4.65962">
        <ele>96.731777</ele>
        <time>2025-02-03T09:40:04.026Z</time>
      </trkpt>
      <trkpt lat="44.32988" lon="4.65962">
        <ele>96.698506</ele>
        <time>2025-02-03T09:40:06.029Z</time>
      </trkpt>
      <trkpt lat="44.32976" lon="4.65963">
        <ele>96.661949</ele>
        <time>2025-02-03T09:40:08.035Z</time>
      </trkpt>
      <trkpt lat="44.32965" lon="4.65965">
        <ele>96.625264</ele>
        <time>2025-02-03T09:40:10.048Z</time>
      </trkpt>
      <trkpt lat="44.32954" lon="4.65967">
        <ele>96.588414</ele>
        <time>2025-02-03T09:40:12.021Z</time>
      </trkpt>
      <trkpt lat="44.32942" lon="4.65968">
        <ele>96.55143</ele>
        <time>2025-02-03T09:40:14.025Z</time>
      </trkpt>
      <trkpt lat="44.32931" lon="4.65967">
        <ele>96.513781</ele>
        <time>2025-02-03T09:40:15.999Z</time>
      </trkpt>
      <trkpt lat="44.3292" lon="4.65964">
        <ele>96.479573</ele>
        <time>2025-02-03T09:40:18.017Z</time>
      </trkpt>
      <trkpt lat="44.3291" lon="4.65961">
        <ele>96.446677</ele>
        <time>2025-02-03T09:40:20.024Z</time>
      </trkpt>
      <trkpt lat="44.32901" lon="4.65959">
        <ele>96.414335</ele>
        <time>2025-02-03T09:40:22.027Z</time>
      </trkpt>
      <trkpt lat="44.32891" lon="4.65957">
        <ele>96.384188</ele>
        <time>2025-02-03T09:40:24.041Z</time>
      </trkpt>
      <trkpt lat="44.32882" lon="4.65955">
        <ele>96.353761</ele>
        <time>2025-02-03T09:40:26.030Z</time>
      </trkpt>
      <trkpt lat="44.32871" lon="4.65953">
        <ele>96.319182</ele>
        <time>2025-02-03T09:40:28.057Z</time>
      </trkpt>
      <trkpt lat="44.32861" lon="4.6595">
        <ele>96.284535</ele>
        <time>2025-02-03T09:40:30.050Z</time>
      </trkpt>
      <trkpt lat="44.3285" lon="4.65948">
        <ele>96.306674</ele>
        <time>2025-02-03T09:40:32.030Z</time>
      </trkpt>
      <trkpt lat="44.32839" lon="4.65947">
        <ele>96.340645</ele>
        <time>2025-02-03T09:40:34.023Z</time>
      </trkpt>
      <trkpt lat="44.32829" lon="4.65946">
        <ele>96.372792</ele>
        <time>2025-02-03T09:40:36.007Z</time>
      </trkpt>
      <trkpt lat="44.32819" lon="4.65944">
        <ele>96.404588</ele>
        <time>2025-02-03T09:40:38.038Z</time>
      </trkpt>
      <trkpt lat="44.32809" lon="4.65942">
        <ele>96.435506</ele>
        <time>2025-02-03T09:40:40.029Z</time>
      </trkpt>
      <trkpt lat="44.32799" lon="4.6594">
        <ele>96.467351</ele>
        <time>2025-02-03T09:40:42.036Z</time>
      </trkpt>
      <trkpt lat="44.32789" lon="4.65937">
        <ele>96.500472</ele>
        <time>2025-02-03T09:40:44.035Z</time>
      </trkpt>
      <trkpt lat="44.32778" lon="4.65935">
        <ele>96.533829</ele>
        <time>2025-02-03T09:40:46.040Z</time>
      </trkpt>
      <trkpt lat="44.32768" lon="4.65932">
        <ele>96.566591</ele>
        <time>2025-02-03T09:40:48.035Z</time>
      </trkpt>
      <trkpt lat="44.32758" lon="4.65929">
        <ele>96.60006</ele>
        <time>2025-02-03T09:40:50.041Z</time>
      </trkpt>
      <trkpt lat="44.32747" lon="4.65927">
        <ele>96.633143</ele>
        <time>2025-02-03T09:40:52.043Z</time>
      </trkpt>
      <trkpt lat="44.32737" lon="4.65924">
        <ele>96.665336</ele>
        <time>2025-02-03T09:40:54.028Z</time>
      </trkpt>
      <trkpt lat="44.32728" lon="4.65921">
        <ele>96.695502</ele>
        <time>2025-02-03T09:40:56.031Z</time>
      </trkpt>
      <trkpt lat="44.32718" lon="4.6592">
        <ele>96.725873</ele>
        <time>2025-02-03T09:40:58.048Z</time>
      </trkpt>
      <trkpt lat="44.32709" lon="4.65918">
        <ele>96.755341</ele>
        <time>2025-02-03T09:41:00.052Z</time>
      </trkpt>
      <trkpt lat="44.32699" lon="4.65916">
        <ele>96.785996</ele>
        <time>2025-02-03T09:41:02.024Z</time>
      </trkpt>
      <trkpt lat="44.32689" lon="4.65913">
        <ele>96.817484</ele>
        <time>2025-02-03T09:41:04.041Z</time>
      </trkpt>
      <trkpt lat="44.32679" lon="4.6591">
        <ele>96.847844</ele>
        <time>2025-02-03T09:41:06.027Z</time>
      </trkpt>
      <trkpt lat="44.3267" lon="4.65909">
        <ele>96.872219</ele>
        <time>2025-02-03T09:41:08.040Z</time>
      </trkpt>
      <trkpt lat="44.32656" lon="4.65909">
        <ele>96.907228</ele>
        <time>2025-02-03T09:41:11.025Z</time>
      </trkpt>
      <trkpt lat="44.32647" lon="4.6591">
        <ele>96.931905</ele>
        <time>2025-02-03T09:41:13.017Z</time>
      </trkpt>
      <trkpt lat="44.32637" lon="4.65912">
        <ele>96.956583</ele>
        <time>2025-02-03T09:41:15.018Z</time>
      </trkpt>
      <trkpt lat="44.32627" lon="4.65914">
        <ele>96.982561</ele>
        <time>2025-02-03T09:41:17.044Z</time>
      </trkpt>
      <trkpt lat="44.32618" lon="4.65915">
        <ele>97.006858</ele>
        <time>2025-02-03T09:41:19.043Z</time>
      </trkpt>
      <trkpt lat="44.32609" lon="4.65917">
        <ele>97.030916</ele>
        <time>2025-02-03T09:41:21.033Z</time>
      </trkpt>
      <trkpt lat="44.32599" lon="4.65918">
        <ele>97.055696</ele>
        <time>2025-02-03T09:41:23.038Z</time>
      </trkpt>
      <trkpt lat="44.32589" lon="4.65919">
        <ele>97.082138</ele>
        <time>2025-02-03T09:41:25.019Z</time>
      </trkpt>
      <trkpt lat="44.32577" lon="4.65923">
        <ele>97.112321</ele>
        <time>2025-02-03T09:41:27.029Z</time>
      </trkpt>
      <trkpt lat="44.32567" lon="4.6593">
        <ele>97.143071</ele>
        <time>2025-02-03T09:41:29.030Z</time>
      </trkpt>
      <trkpt lat="44.32557" lon="4.6594">
        <ele>97.17411</ele>
        <time>2025-02-03T09:41:31.026Z</time>
      </trkpt>
      <trkpt lat="44.32548" lon="4.65951">
        <ele>97.204691</ele>
        <time>2025-02-03T09:41:33.007Z</time>
      </trkpt>
      <trkpt lat="44.3254" lon="4.65961">
        <ele>97.232657</ele>
        <time>2025-02-03T09:41:34.999Z</time>
      </trkpt>
      <trkpt lat="44.32532" lon="4.65972">
        <ele>97.261093</ele>
        <time>2025-02-03T09:41:37.002Z</time>
      </trkpt>
      <trkpt lat="44.32524" lon="4.65982">
        <ele>97.288651</ele>
        <time>2025-02-03T09:41:39.060Z</time>
      </trkpt>
      <trkpt lat="44.32516" lon="4.65992">
        <ele>97.311634</ele>
        <time>2025-02-03T09:41:41.031Z</time>
      </trkpt>
      <trkpt lat="44.32509" lon="4.66002">
        <ele>97.327387</ele>
        <time>2025-02-03T09:41:43.022Z</time>
      </trkpt>
      <trkpt lat="44.32501" lon="4.66012">
        <ele>97.343191</ele>
        <time>2025-02-03T09:41:45.033Z</time>
      </trkpt>
      <trkpt lat="44.32494" lon="4.66022">
        <ele>97.357997</ele>
        <time>2025-02-03T09:41:47.027Z</time>
      </trkpt>
      <trkpt lat="44.32487" lon="4.66031">
        <ele>97.372728</ele>
        <time>2025-02-03T09:41:49.037Z</time>
      </trkpt>
      <trkpt lat="44.3248" lon="4.66041">
        <ele>97.387277</ele>
        <time>2025-02-03T09:41:51.034Z</time>
      </trkpt>
      <trkpt lat="44.32473" lon="4.6605">
        <ele>97.401353</ele>
        <time>2025-02-03T09:41:53.027Z</time>
      </trkpt>
      <trkpt lat="44.32466" lon="4.66059">
        <ele>97.416085</ele>
        <time>2025-02-03T09:41:55.019Z</time>
      </trkpt>
      <trkpt lat="44.32459" lon="4.66069">
        <ele>97.43018</ele>
        <time>2025-02-03T09:41:57.046Z</time>
      </trkpt>
      <trkpt lat="44.32453" lon="4.66078">
        <ele>97.444044</ele>
        <time>2025-02-03T09:41:59.013Z</time>
      </trkpt>
      <trkpt lat="44.32446" lon="4.66088">
        <ele>97.458579</ele>
        <time>2025-02-03T09:42:01.039Z</time>
      </trkpt>
      <trkpt lat="44.32439" lon="4.66098">
        <ele>97.474489</ele>
        <time>2025-02-03T09:42:03.041Z</time>
      </trkpt>
      <trkpt lat="44.32431" lon="4.66108">
        <ele>97.489959</ele>
        <time>2025-02-03T09:42:05.017Z</time>
      </trkpt>
      <trkpt lat="44.32424" lon="4.66118">
        <ele>97.504946</ele>
        <time>2025-02-03T09:42:07.041Z</time>
      </trkpt>
      <trkpt lat="44.32417" lon="4.66128">
        <ele>97.51972</ele>
        <time>2025-02-03T09:42:09.034Z</time>
      </trkpt>
      <trkpt lat="44.32411" lon="4.66137">
        <ele>97.533584</ele>
        <time>2025-02-03T09:42:11.018Z</time>
      </trkpt>
      <trkpt lat="44.32404" lon="4.66147">
        <ele>97.547773</ele>
        <time>2025-02-03T09:42:13.031Z</time>
      </trkpt>
      <trkpt lat="44.32399" lon="4.66156">
        <ele>97.561329</ele>
        <time>2025-02-03T09:42:15.028Z</time>
      </trkpt>
      <trkpt lat="44.32392" lon="4.66166">
        <ele>97.574959</ele>
        <time>2025-02-03T09:42:17.042Z</time>
      </trkpt>
      <trkpt lat="44.32385" lon="4.66175">
        <ele>97.508286</ele>
        <time>2025-02-03T09:42:19.038Z</time>
      </trkpt>
      <trkpt lat="44.32378" lon="4.66185">
        <ele>97.440838</ele>
        <time>2025-02-03T09:42:21.046Z</time>
      </trkpt>
      <trkpt lat="44.32372" lon="4.66195">
        <ele>97.376993</ele>
        <time>2025-02-03T09:42:23.039Z</time>
      </trkpt>
      <trkpt lat="44.32365" lon="4.66205">
        <ele>97.311071</ele>
        <time>2025-02-03T09:42:25.027Z</time>
      </trkpt>
      <trkpt lat="44.32359" lon="4.66214">
        <ele>97.246899</ele>
        <time>2025-02-03T09:42:27.024Z</time>
      </trkpt>
      <trkpt lat="44.3235" lon="4.66229">
        <ele>97.153824</ele>
        <time>2025-02-03T09:42:30.043Z</time>
      </trkpt>
      <trkpt lat="44.32343" lon="4.66238">
        <ele>97.090202</ele>
        <time>2025-02-03T09:42:32.031Z</time>
      </trkpt>
      <trkpt lat="44.32335" lon="4.66253">
        <ele>96.998282</ele>
        <time>2025-02-03T09:42:35.007Z</time>
      </trkpt>
      <trkpt lat="44.32326" lon="4.66267">
        <ele>96.907285</ele>
        <time>2025-02-03T09:42:38.047Z</time>
      </trkpt>
      <trkpt lat="44.32317" lon="4.66281">
        <ele>96.814265</ele>
        <time>2025-02-03T09:42:41.011Z</time>
      </trkpt>
      <trkpt lat="44.3231" lon="4.66291">
        <ele>96.749828</ele>
        <time>2025-02-03T09:42:43.025Z</time>
      </trkpt>
      <trkpt lat="44.323" lon="4.66304">
        <ele>96.657325</ele>
        <time>2025-02-03T09:42:46.031Z</time>
      </trkpt>
      <trkpt lat="44.32294" lon="4.66312">
        <ele>96.595818</ele>
        <time>2025-02-03T09:42:48.028Z</time>
      </trkpt>
      <trkpt lat="44.32287" lon="4.66322">
        <ele>96.532935</ele>
        <time>2025-02-03T09:42:50.030Z</time>
      </trkpt>
      <trkpt lat="44.3228" lon="4.66331">
        <ele>96.466623</ele>
        <time>2025-02-03T09:42:52.045Z</time>
      </trkpt>
      <trkpt lat="44.32273" lon="4.66341">
        <ele>96.400456</ele>
        <time>2025-02-03T09:42:53.999Z</time>
      </trkpt>
      <trkpt lat="44.32266" lon="4.66351">
        <ele>96.411746</ele>
        <time>2025-02-03T09:42:56.010Z</time>
      </trkpt>
      <trkpt lat="44.32259" lon="4.6636">
        <ele>96.610152</ele>
        <time>2025-02-03T09:42:58.006Z</time>
      </trkpt>
      <trkpt lat="44.32251" lon="4.6637">
        <ele>96.815035</ele>
        <time>2025-02-03T09:43:00.048Z</time>
      </trkpt>
      <trkpt lat="44.32244" lon="4.66379">
        <ele>97.018788</ele>
        <time>2025-02-03T09:43:02.036Z</time>
      </trkpt>
      <trkpt lat="44.32236" lon="4.66388">
        <ele>97.215677</ele>
        <time>2025-02-03T09:43:04.023Z</time>
      </trkpt>
      <trkpt lat="44.3223" lon="4.66399">
        <ele>97.412602</ele>
        <time>2025-02-03T09:43:06.026Z</time>
      </trkpt>
      <trkpt lat="44.32222" lon="4.66408">
        <ele>97.60999</ele>
        <time>2025-02-03T09:43:08.025Z</time>
      </trkpt>
      <trkpt lat="44.32215" lon="4.66418">
        <ele>97.818689</ele>
        <time>2025-02-03T09:43:10.025Z</time>
      </trkpt>
      <trkpt lat="44.32208" lon="4.66429">
        <ele>98.026995</ele>
        <time>2025-02-03T09:43:12.022Z</time>
      </trkpt>
      <trkpt lat="44.32201" lon="4.66438">
        <ele>98.220982</ele>
        <time>2025-02-03T09:43:14.026Z</time>
      </trkpt>
      <trkpt lat="44.32194" lon="4.66449">
        <ele>98.430998</ele>
        <time>2025-02-03T09:43:16.025Z</time>
      </trkpt>
      <trkpt lat="44.32186" lon="4.66459">
        <ele>98.641725</ele>
        <time>2025-02-03T09:43:18.043Z</time>
      </trkpt>
      <trkpt lat="44.32179" lon="4.66468">
        <ele>98.841713</ele>
        <time>2025-02-03T09:43:20.034Z</time>
      </trkpt>
      <trkpt lat="44.32171" lon="4.66478">
        <ele>99.041123</ele>
        <time>2025-02-03T09:43:22.030Z</time>
      </trkpt>
      <trkpt lat="44.32164" lon="4.66488">
        <ele>99.254116</ele>
        <time>2025-02-03T09:43:24.033Z</time>
      </trkpt>
      <trkpt lat="44.32157" lon="4.66499">
        <ele>99.451334</ele>
        <time>2025-02-03T09:43:26.009Z</time>
      </trkpt>
      <trkpt lat="44.32151" lon="4.6651">
        <ele>99.654898</ele>
        <time>2025-02-03T09:43:28.033Z</time>
      </trkpt>
      <trkpt lat="44.32146" lon="4.66523">
        <ele>99.865763</ele>
        <time>2025-02-03T09:43:30.042Z</time>
      </trkpt>
      <trkpt lat="44.32141" lon="4.66535">
        <ele>99.902685</ele>
        <time>2025-02-03T09:43:32.031Z</time>
      </trkpt>
      <trkpt lat="44.32137" lon="4.66546">
        <ele>99.832381</ele>
        <time>2025-02-03T09:43:34.034Z</time>
      </trkpt>
      <trkpt lat="44.32133" lon="4.66558">
        <ele>99.75923</ele>
        <time>2025-02-03T09:43:36.032Z</time>
      </trkpt>
      <trkpt lat="44.32129" lon="4.6657">
        <ele>99.686451</ele>
        <time>2025-02-03T09:43:38.013Z</time>
      </trkpt>
      <trkpt lat="44.32127" lon="4.66583">
        <ele>99.612345</ele>
        <time>2025-02-03T09:43:40.025Z</time>
      </trkpt>
      <trkpt lat="44.32123" lon="4.66596">
        <ele>99.534091</ele>
        <time>2025-02-03T09:43:42.017Z</time>
      </trkpt>
      <trkpt lat="44.32121" lon="4.66608">
        <ele>99.463198</ele>
        <time>2025-02-03T09:43:44.029Z</time>
      </trkpt>
      <trkpt lat="44.32117" lon="4.66626">
        <ele>99.359229</ele>
        <time>2025-02-03T09:43:47.045Z</time>
      </trkpt>
      <trkpt lat="44.32114" lon="4.66644">
        <ele>99.254258</ele>
        <time>2025-02-03T09:43:50.046Z</time>
      </trkpt>
      <trkpt lat="44.3211" lon="4.66657">
        <ele>99.1755</ele>
        <time>2025-02-03T09:43:52.042Z</time>
      </trkpt>
      <trkpt lat="44.32107" lon="4.6667">
        <ele>99.1012</ele>
        <time>2025-02-03T09:43:54.030Z</time>
      </trkpt>
      <trkpt lat="44.32104" lon="4.66683">
        <ele>99.026642</ele>
        <time>2025-02-03T09:43:56.029Z</time>
      </trkpt>
      <trkpt lat="44.321" lon="4.66695">
        <ele>98.947612</ele>
        <time>2025-02-03T09:43:58.046Z</time>
      </trkpt>
      <trkpt lat="44.32095" lon="4.66708">
        <ele>98.869593</ele>
        <time>2025-02-03T09:44:00.025Z</time>
      </trkpt>
      <trkpt lat="44.3209" lon="4.66719">
        <ele>98.795147</ele>
        <time>2025-02-03T09:44:02.041Z</time>
      </trkpt>
      <trkpt lat="44.32084" lon="4.6673">
        <ele>98.719407</ele>
        <time>2025-02-03T09:44:04.026Z</time>
      </trkpt>
      <trkpt lat="44.32079" lon="4.66742">
        <ele>98.642269</ele>
        <time>2025-02-03T09:44:06.023Z</time>
      </trkpt>
      <trkpt lat="44.32073" lon="4.66753">
        <ele>98.563259</ele>
        <time>2025-02-03T09:44:08.033Z</time>
      </trkpt>
      <trkpt lat="44.32066" lon="4.66763">
        <ele>98.480829</ele>
        <time>2025-02-03T09:44:10.037Z</time>
      </trkpt>
      <trkpt lat="44.32058" lon="4.66773">
        <ele>98.397315</ele>
        <time>2025-02-03T09:44:12.037Z</time>
      </trkpt>
      <trkpt lat="44.32051" lon="4.66783">
        <ele>98.311159</ele>
        <time>2025-02-03T09:44:14.023Z</time>
      </trkpt>
      <trkpt lat="44.32042" lon="4.66791">
        <ele>98.222352</ele>
        <time>2025-02-03T09:44:16.012Z</time>
      </trkpt>
      <trkpt lat="44.32034" lon="4.668">
        <ele>98.136297</ele>
        <time>2025-02-03T09:44:18.040Z</time>
      </trkpt>
      <trkpt lat="44.32026" lon="4.66807">
        <ele>98.057656</ele>
        <time>2025-02-03T09:44:20.027Z</time>
      </trkpt>
      <trkpt lat="44.32018" lon="4.66814">
        <ele>97.975011</ele>
        <time>2025-02-03T09:44:22.014Z</time>
      </trkpt>
      <trkpt lat="44.32009" lon="4.66821">
        <ele>97.893525</ele>
        <time>2025-02-03T09:44:24.031Z</time>
      </trkpt>
      <trkpt lat="44.32001" lon="4.66829">
        <ele>97.813953</ele>
        <time>2025-02-03T09:44:26.034Z</time>
      </trkpt>
      <trkpt lat="44.31993" lon="4.66836">
        <ele>97.736648</ele>
        <time>2025-02-03T09:44:28.026Z</time>
      </trkpt>
      <trkpt lat="44.31985" lon="4.66843">
        <ele>97.657299</ele>
        <time>2025-02-03T09:44:30.030Z</time>
      </trkpt>
      <trkpt lat="44.31977" lon="4.6685">
        <ele>97.576012</ele>
        <time>2025-02-03T09:44:32.033Z</time>
      </trkpt>
      <trkpt lat="44.31968" lon="4.66857">
        <ele>97.49033</ele>
        <time>2025-02-03T09:44:34.045Z</time>
      </trkpt>
      <trkpt lat="44.3196" lon="4.66864">
        <ele>97.408127</ele>
        <time>2025-02-03T09:44:36.033Z</time>
      </trkpt>
      <trkpt lat="44.31951" lon="4.66871">
        <ele>97.323718</ele>
        <time>2025-02-03T09:44:38.028Z</time>
      </trkpt>
      <trkpt lat="44.31942" lon="4.66878">
        <ele>97.23644</ele>
        <time>2025-02-03T09:44:40.042Z</time>
      </trkpt>
      <trkpt lat="44.31933" lon="4.66885">
        <ele>97.154954</ele>
        <time>2025-02-03T09:44:42.023Z</time>
      </trkpt>
      <trkpt lat="44.31925" lon="4.66892">
        <ele>97.073161</ele>
        <time>2025-02-03T09:44:44.054Z</time>
      </trkpt>
      <trkpt lat="44.31915" lon="4.66898">
        <ele>97.014656</ele>
        <time>2025-02-03T09:44:46.020Z</time>
      </trkpt>
      <trkpt lat="44.31906" lon="4.66904">
        <ele>96.96944</ele>
        <time>2025-02-03T09:44:48.045Z</time>
      </trkpt>
      <trkpt lat="44.31896" lon="4.66909">
        <ele>96.922422</ele>
        <time>2025-02-03T09:44:50.020Z</time>
      </trkpt>
      <trkpt lat="44.31886" lon="4.66913">
        <ele>96.873986</ele>
        <time>2025-02-03T09:44:52.008Z</time>
      </trkpt>
      <trkpt lat="44.31876" lon="4.66914">
        <ele>96.82907</ele>
        <time>2025-02-03T09:44:54.030Z</time>
      </trkpt>
      <trkpt lat="44.31867" lon="4.66915">
        <ele>96.788199</ele>
        <time>2025-02-03T09:44:56.038Z</time>
      </trkpt>
      <trkpt lat="44.31854" lon="4.66914">
        <ele>96.730277</ele>
        <time>2025-02-03T09:44:59.015Z</time>
      </trkpt>
      <trkpt lat="44.31841" lon="4.66917">
        <ele>96.671083</ele>
        <time>2025-02-03T09:45:02.016Z</time>
      </trkpt>
      <trkpt lat="44.31832" lon="4.66928">
        <ele>96.617308</ele>
        <time>2025-02-03T09:45:05.030Z</time>
      </trkpt>
      <trkpt lat="44.31828" lon="4.66941">
        <ele>96.571531</ele>
        <time>2025-02-03T09:45:07.029Z</time>
      </trkpt>
      <trkpt lat="44.31824" lon="4.66956">
        <ele>96.52134</ele>
        <time>2025-02-03T09:45:09.038Z</time>
      </trkpt>
      <trkpt lat="44.3182" lon="4.6697">
        <ele>96.473342</ele>
        <time>2025-02-03T09:45:11.027Z</time>
      </trkpt>
      <trkpt lat="44.31816" lon="4.66984">
        <ele>96.423543</ele>
        <time>2025-02-03T09:45:13.012Z</time>
      </trkpt>
      <trkpt lat="44.31813" lon="4.66999">
        <ele>96.373889</ele>
        <time>2025-02-03T09:45:15.031Z</time>
      </trkpt>
      <trkpt lat="44.31808" lon="4.67013">
        <ele>96.324508</ele>
        <time>2025-02-03T09:45:17.032Z</time>
      </trkpt>
      <trkpt lat="44.31805" lon="4.67028">
        <ele>96.274407</ele>
        <time>2025-02-03T09:45:19.033Z</time>
      </trkpt>
      <trkpt lat="44.31801" lon="4.67042">
        <ele>96.259774</ele>
        <time>2025-02-03T09:45:21.055Z</time>
      </trkpt>
      <trkpt lat="44.31797" lon="4.67056">
        <ele>96.317443</ele>
        <time>2025-02-03T09:45:23.032Z</time>
      </trkpt>
      <trkpt lat="44.31793" lon="4.6707">
        <ele>96.372977</ele>
        <time>2025-02-03T09:45:25.036Z</time>
      </trkpt>
      <trkpt lat="44.31789" lon="4.67083">
        <ele>96.42908</ele>
        <time>2025-02-03T09:45:27.040Z</time>
      </trkpt>
      <trkpt lat="44.31786" lon="4.67096">
        <ele>96.484209</ele>
        <time>2025-02-03T09:45:29.038Z</time>
      </trkpt>
      <trkpt lat="44.31782" lon="4.67109">
        <ele>96.538034</ele>
        <time>2025-02-03T09:45:31.031Z</time>
      </trkpt>
      <trkpt lat="44.31778" lon="4.67123">
        <ele>96.595423</ele>
        <time>2025-02-03T09:45:33.052Z</time>
      </trkpt>
      <trkpt lat="44.31774" lon="4.67136">
        <ele>96.650032</ele>
        <time>2025-02-03T09:45:35.037Z</time>
      </trkpt>
      <trkpt lat="44.31771" lon="4.67149">
        <ele>96.703519</ele>
        <time>2025-02-03T09:45:37.031Z</time>
      </trkpt>
      <trkpt lat="44.31768" lon="4.67162">
        <ele>96.757175</ele>
        <time>2025-02-03T09:45:39.048Z</time>
      </trkpt>
      <trkpt lat="44.31764" lon="4.67175">
        <ele>96.811581</ele>
        <time>2025-02-03T09:45:41.022Z</time>
      </trkpt>
      <trkpt lat="44.31761" lon="4.67187">
        <ele>96.862842</ele>
        <time>2025-02-03T09:45:43.044Z</time>
      </trkpt>
      <trkpt lat="44.31758" lon="4.672">
        <ele>96.915019</ele>
        <time>2025-02-03T09:45:45.033Z</time>
      </trkpt>
      <trkpt lat="44.31755" lon="4.67212">
        <ele>96.965933</ele>
        <time>2025-02-03T09:45:47.037Z</time>
      </trkpt>
      <trkpt lat="44.31751" lon="4.67225">
        <ele>97.019464</ele>
        <time>2025-02-03T09:45:49.031Z</time>
      </trkpt>
      <trkpt lat="44.31747" lon="4.67238">
        <ele>97.074433</ele>
        <time>2025-02-03T09:45:51.028Z</time>
      </trkpt>
      <trkpt lat="44.31744" lon="4.67251">
        <ele>97.130106</ele>
        <time>2025-02-03T09:45:53.031Z</time>
      </trkpt>
      <trkpt lat="44.3174" lon="4.67264">
        <ele>97.181634</ele>
        <time>2025-02-03T09:45:55.040Z</time>
      </trkpt>
      <trkpt lat="44.31737" lon="4.67276">
        <ele>97.217564</ele>
        <time>2025-02-03T09:45:57.043Z</time>
      </trkpt>
      <trkpt lat="44.31734" lon="4.67289">
        <ele>97.215168</ele>
        <time>2025-02-03T09:45:59.032Z</time>
      </trkpt>
      <trkpt lat="44.3173" lon="4.67302">
        <ele>97.212755</ele>
        <time>2025-02-03T09:46:01.038Z</time>
      </trkpt>
      <trkpt lat="44.31727" lon="4.67314">
        <ele>97.210425</ele>
        <time>2025-02-03T09:46:03.043Z</time>
      </trkpt>
      <trkpt lat="44.31724" lon="4.67327">
        <ele>97.208046</ele>
        <time>2025-02-03T09:46:05.035Z</time>
      </trkpt>
      <trkpt lat="44.3172" lon="4.67339">
        <ele>97.205674</ele>
        <time>2025-02-03T09:46:07.034Z</time>
      </trkpt>
      <trkpt lat="44.31717" lon="4.67352">
        <ele>97.203269</ele>
        <time>2025-02-03T09:46:09.015Z</time>
      </trkpt>
      <trkpt lat="44.31714" lon="4.67364">
        <ele>97.201037</ele>
        <time>2025-02-03T09:46:11.035Z</time>
      </trkpt>
      <trkpt lat="44.31709" lon="4.67382">
        <ele>97.197634</ele>
        <time>2025-02-03T09:46:14.038Z</time>
      </trkpt>
      <trkpt lat="44.31705" lon="4.67393">
        <ele>97.195389</ele>
        <time>2025-02-03T09:46:16.052Z</time>
      </trkpt>
      <trkpt lat="44.31703" lon="4.67406">
        <ele>97.193099</ele>
        <time>2025-02-03T09:46:18.029Z</time>
      </trkpt>
      <trkpt lat="44.31699" lon="4.67417">
        <ele>97.190855</ele>
        <time>2025-02-03T09:46:20.005Z</time>
      </trkpt>
      <trkpt lat="44.31695" lon="4.6743">
        <ele>97.188476</ele>
        <time>2025-02-03T09:46:22.006Z</time>
      </trkpt>
      <trkpt lat="44.31692" lon="4.67443">
        <ele>97.186045</ele>
        <time>2025-02-03T09:46:24.028Z</time>
      </trkpt>
      <trkpt lat="44.31687" lon="4.67455">
        <ele>97.183689</ele>
        <time>2025-02-03T09:46:26.035Z</time>
      </trkpt>
      <trkpt lat="44.31682" lon="4.67465">
        <ele>97.181404</ele>
        <time>2025-02-03T09:46:28.055Z</time>
      </trkpt>
      <trkpt lat="44.31671" lon="4.67476">
        <ele>97.178083</ele>
        <time>2025-02-03T09:46:31.039Z</time>
      </trkpt>
      <trkpt lat="44.31663" lon="4.67483">
        <ele>97.175689</ele>
        <time>2025-02-03T09:46:33.048Z</time>
      </trkpt>
      <trkpt lat="44.31654" lon="4.6749">
        <ele>97.17256</ele>
        <time>2025-02-03T09:46:35.069Z</time>
      </trkpt>
      <trkpt lat="44.31646" lon="4.67496">
        <ele>97.166548</ele>
        <time>2025-02-03T09:46:37.030Z</time>
      </trkpt>
      <trkpt lat="44.31637" lon="4.67504">
        <ele>97.160494</ele>
        <time>2025-02-03T09:46:39.039Z</time>
      </trkpt>
      <trkpt lat="44.31628" lon="4.67511">
        <ele>97.154206</ele>
        <time>2025-02-03T09:46:41.056Z</time>
      </trkpt>
      <trkpt lat="44.31619" lon="4.67518">
        <ele>97.147939</ele>
        <time>2025-02-03T09:46:43.036Z</time>
      </trkpt>
      <trkpt lat="44.3161" lon="4.67525">
        <ele>97.141503</ele>
        <time>2025-02-03T09:46:45.026Z</time>
      </trkpt>
      <trkpt lat="44.31601" lon="4.67533">
        <ele>97.135076</ele>
        <time>2025-02-03T09:46:47.043Z</time>
      </trkpt>
      <trkpt lat="44.31592" lon="4.6754">
        <ele>97.128512</ele>
        <time>2025-02-03T09:46:49.027Z</time>
      </trkpt>
      <trkpt lat="44.31583" lon="4.67548">
        <ele>97.121983</ele>
        <time>2025-02-03T09:46:51.027Z</time>
      </trkpt>
      <trkpt lat="44.31573" lon="4.67556">
        <ele>97.115484</ele>
        <time>2025-02-03T09:46:53.034Z</time>
      </trkpt>
      <trkpt lat="44.31564" lon="4.67564">
        <ele>97.108747</ele>
        <time>2025-02-03T09:46:55.033Z</time>
      </trkpt>
      <trkpt lat="44.31554" lon="4.67572">
        <ele>97.101959</ele>
        <time>2025-02-03T09:46:57.018Z</time>
      </trkpt>
      <trkpt lat="44.31544" lon="4.6758">
        <ele>97.095051</ele>
        <time>2025-02-03T09:46:59.030Z</time>
      </trkpt>
      <trkpt lat="44.31534" lon="4.67587">
        <ele>97.088243</ele>
        <time>2025-02-03T09:47:01.031Z</time>
      </trkpt>
      <trkpt lat="44.31525" lon="4.67594">
        <ele>97.081592</ele>
        <time>2025-02-03T09:47:03.030Z</time>
      </trkpt>
      <trkpt lat="44.31515" lon="4.67602">
        <ele>97.074721</ele>
        <time>2025-02-03T09:47:05.044Z</time>
      </trkpt>
      <trkpt lat="44.31505" lon="4.6761">
        <ele>97.067768</ele>
        <time>2025-02-03T09:47:07.029Z</time>
      </trkpt>
      <trkpt lat="44.31496" lon="4.67618">
        <ele>97.050269</ele>
        <time>2025-02-03T09:47:09.039Z</time>
      </trkpt>
      <trkpt lat="44.31486" lon="4.67625">
        <ele>97.023217</ele>
        <time>2025-02-03T09:47:11.047Z</time>
      </trkpt>
      <trkpt lat="44.31477" lon="4.67632">
        <ele>96.996674</ele>
        <time>2025-02-03T09:47:13.032Z</time>
      </trkpt>
      <trkpt lat="44.31468" lon="4.6764">
        <ele>96.969131</ele>
        <time>2025-02-03T09:47:15.039Z</time>
      </trkpt>
      <trkpt lat="44.31459" lon="4.67647">
        <ele>96.942858</ele>
        <time>2025-02-03T09:47:17.032Z</time>
      </trkpt>
      <trkpt lat="44.3145" lon="4.67654">
        <ele>96.915735</ele>
        <time>2025-02-03T09:47:19.004Z</time>
      </trkpt>
      <trkpt lat="44.31441" lon="4.67663">
        <ele>96.887661</ele>
        <time>2025-02-03T09:47:21.023Z</time>
      </trkpt>
      <trkpt lat="44.31432" lon="4.6767">
        <ele>96.861236</ele>
        <time>2025-02-03T09:47:23.038Z</time>
      </trkpt>
      <trkpt lat="44.31424" lon="4.67677">
        <ele>96.835994</ele>
        <time>2025-02-03T09:47:25.030Z</time>
      </trkpt>
      <trkpt lat="44.31415" lon="4.67684">
        <ele>96.811064</ele>
        <time>2025-02-03T09:47:27.025Z</time>
      </trkpt>
      <trkpt lat="44.31406" lon="4.67691">
        <ele>96.784229</ele>
        <time>2025-02-03T09:47:29.045Z</time>
      </trkpt>
      <trkpt lat="44.31398" lon="4.67699">
        <ele>96.758575</ele>
        <time>2025-02-03T09:47:31.033Z</time>
      </trkpt>
      <trkpt lat="44.31389" lon="4.67705">
        <ele>96.733196</ele>
        <time>2025-02-03T09:47:33.031Z</time>
      </trkpt>
      <trkpt lat="44.31381" lon="4.67712">
        <ele>96.708267</ele>
        <time>2025-02-03T09:47:35.055Z</time>
      </trkpt>
      <trkpt lat="44.31372" lon="4.67718">
        <ele>96.683739</ele>
        <time>2025-02-03T09:47:37.028Z</time>
      </trkpt>
      <trkpt lat="44.31365" lon="4.67726">
        <ele>96.660096</ele>
        <time>2025-02-03T09:47:39.046Z</time>
      </trkpt>
      <trkpt lat="44.31357" lon="4.67733">
        <ele>96.635927</ele>
        <time>2025-02-03T09:47:41.039Z</time>
      </trkpt>
      <trkpt lat="44.31349" lon="4.67739">
        <ele>96.612337</ele>
        <time>2025-02-03T09:47:43.052Z</time>
      </trkpt>
      <trkpt lat="44.3134" lon="4.67745">
        <ele>96.612007</ele>
        <time>2025-02-03T09:47:45.046Z</time>
      </trkpt>
      <trkpt lat="44.31328" lon="4.67754">
        <ele>96.631485</ele>
        <time>2025-02-03T09:47:48.041Z</time>
      </trkpt>
      <trkpt lat="44.3132" lon="4.6776">
        <ele>96.645076</ele>
        <time>2025-02-03T09:47:50.056Z</time>
      </trkpt>
      <trkpt lat="44.31312" lon="4.67767">
        <ele>96.658752</ele>
        <time>2025-02-03T09:47:52.050Z</time>
      </trkpt>
      <trkpt lat="44.31304" lon="4.67774">
        <ele>96.672873</ele>
        <time>2025-02-03T09:47:54.030Z</time>
      </trkpt>
      <trkpt lat="44.31295" lon="4.67781">
        <ele>96.687326</ele>
        <time>2025-02-03T09:47:56.032Z</time>
      </trkpt>
      <trkpt lat="44.31286" lon="4.67789">
        <ele>96.701709</ele>
        <time>2025-02-03T09:47:58.030Z</time>
      </trkpt>
      <trkpt lat="44.31278" lon="4.67796">
        <ele>96.716039</ele>
        <time>2025-02-03T09:48:00.034Z</time>
      </trkpt>
      <trkpt lat="44.31269" lon="4.67802">
        <ele>96.730135</ele>
        <time>2025-02-03T09:48:02.028Z</time>
      </trkpt>
      <trkpt lat="44.31261" lon="4.67809">
        <ele>96.744733</ele>
        <time>2025-02-03T09:48:04.043Z</time>
      </trkpt>
      <trkpt lat="44.31252" lon="4.67816">
        <ele>96.759206</ele>
        <time>2025-02-03T09:48:06.031Z</time>
      </trkpt>
      <trkpt lat="44.31243" lon="4.67824">
        <ele>96.773836</ele>
        <time>2025-02-03T09:48:08.047Z</time>
      </trkpt>
      <trkpt lat="44.31234" lon="4.67831">
        <ele>96.78852</ele>
        <time>2025-02-03T09:48:10.030Z</time>
      </trkpt>
      <trkpt lat="44.31226" lon="4.67838">
        <ele>96.803503</ele>
        <time>2025-02-03T09:48:12.051Z</time>
      </trkpt>
      <trkpt lat="44.31217" lon="4.67845">
        <ele>96.818176</ele>
        <time>2025-02-03T09:48:14.041Z</time>
      </trkpt>
      <trkpt lat="44.31208" lon="4.67852">
        <ele>96.832577</ele>
        <time>2025-02-03T09:48:16.026Z</time>
      </trkpt>
      <trkpt lat="44.31199" lon="4.67859">
        <ele>96.846948</ele>
        <time>2025-02-03T09:48:18.036Z</time>
      </trkpt>
      <trkpt lat="44.31191" lon="4.67866">
        <ele>96.861598</ele>
        <time>2025-02-03T09:48:20.045Z</time>
      </trkpt>
      <trkpt lat="44.31182" lon="4.67873">
        <ele>96.799993</ele>
        <time>2025-02-03T09:48:22.032Z</time>
      </trkpt>
      <trkpt lat="44.31173" lon="4.67881">
        <ele>96.729217</ele>
        <time>2025-02-03T09:48:24.037Z</time>
      </trkpt>
      <trkpt lat="44.31164" lon="4.67889">
        <ele>96.657899</ele>
        <time>2025-02-03T09:48:26.039Z</time>
      </trkpt>
      <trkpt lat="44.31156" lon="4.67896">
        <ele>96.592197</ele>
        <time>2025-02-03T09:48:28.026Z</time>
      </trkpt>
      <trkpt lat="44.31147" lon="4.67902">
        <ele>96.526384</ele>
        <time>2025-02-03T09:48:30.027Z</time>
      </trkpt>
      <trkpt lat="44.31138" lon="4.67909">
        <ele>96.456782</ele>
        <time>2025-02-03T09:48:32.040Z</time>
      </trkpt>
      <trkpt lat="44.31129" lon="4.67917">
        <ele>96.385524</ele>
        <time>2025-02-03T09:48:34.035Z</time>
      </trkpt>
      <trkpt lat="44.3112" lon="4.67925">
        <ele>96.312761</ele>
        <time>2025-02-03T09:48:36.026Z</time>
      </trkpt>
      <trkpt lat="44.3111" lon="4.67931">
        <ele>96.239136</ele>
        <time>2025-02-03T09:48:38.036Z</time>
      </trkpt>
      <trkpt lat="44.31101" lon="4.67937">
        <ele>96.173861</ele>
        <time>2025-02-03T09:48:40.020Z</time>
      </trkpt>
      <trkpt lat="44.31093" lon="4.67945">
        <ele>96.104734</ele>
        <time>2025-02-03T09:48:42.044Z</time>
      </trkpt>
      <trkpt lat="44.31084" lon="4.67952">
        <ele>96.036631</ele>
        <time>2025-02-03T09:48:44.035Z</time>
      </trkpt>
      <trkpt lat="44.31075" lon="4.67959">
        <ele>95.962066</ele>
        <time>2025-02-03T09:48:46.046Z</time>
      </trkpt>
      <trkpt lat="44.31065" lon="4.67967">
        <ele>95.888075</ele>
        <time>2025-02-03T09:48:48.030Z</time>
      </trkpt>
      <trkpt lat="44.31056" lon="4.67974">
        <ele>95.816211</ele>
        <time>2025-02-03T09:48:50.035Z</time>
      </trkpt>
      <trkpt lat="44.31047" lon="4.67982">
        <ele>95.743495</ele>
        <time>2025-02-03T09:48:52.032Z</time>
      </trkpt>
      <trkpt lat="44.31038" lon="4.6799">
        <ele>95.671745</ele>
        <time>2025-02-03T09:48:54.030Z</time>
      </trkpt>
      <trkpt lat="44.31029" lon="4.67997">
        <ele>95.635434</ele>
        <time>2025-02-03T09:48:56.038Z</time>
      </trkpt>
      <trkpt lat="44.3102" lon="4.68005">
        <ele>95.619612</ele>
        <time>2025-02-03T09:48:58.019Z</time>
      </trkpt>
      <trkpt lat="44.31012" lon="4.68012">
        <ele>95.604098</ele>
        <time>2025-02-03T09:49:00.031Z</time>
      </trkpt>
      <trkpt lat="44.31003" lon="4.68019">
        <ele>95.588509</ele>
        <time>2025-02-03T09:49:02.036Z</time>
      </trkpt>
      <trkpt lat="44.30994" lon="4.68026">
        <ele>95.572463</ele>
        <time>2025-02-03T09:49:04.049Z</time>
      </trkpt>
      <trkpt lat="44.30985" lon="4.68033">
        <ele>95.557288</ele>
        <time>2025-02-03T09:49:06.014Z</time>
      </trkpt>
      <trkpt lat="44.30976" lon="4.6804">
        <ele>95.541027</ele>
        <time>2025-02-03T09:49:08.040Z</time>
      </trkpt>
      <trkpt lat="44.30967" lon="4.68047">
        <ele>95.524738</ele>
        <time>2025-02-03T09:49:10.026Z</time>
      </trkpt>
      <trkpt lat="44.30958" lon="4.68054">
        <ele>95.508784</ele>
        <time>2025-02-03T09:49:12.032Z</time>
      </trkpt>
      <trkpt lat="44.3095" lon="4.68062">
        <ele>95.493551</ele>
        <time>2025-02-03T09:49:14.039Z</time>
      </trkpt>
      <trkpt lat="44.30943" lon="4.68071">
        <ele>95.477885</ele>
        <time>2025-02-03T09:49:16.036Z</time>
      </trkpt>
      <trkpt lat="44.30935" lon="4.68081">
        <ele>95.461575</ele>
        <time>2025-02-03T09:49:18.056Z</time>
      </trkpt>
      <trkpt lat="44.30927" lon="4.6809">
        <ele>95.445775</ele>
        <time>2025-02-03T09:49:20.026Z</time>
      </trkpt>
      <trkpt lat="44.3092" lon="4.681">
        <ele>95.429844</ele>
        <time>2025-02-03T09:49:22.029Z</time>
      </trkpt>
      <trkpt lat="44.30912" lon="4.68109">
        <ele>95.414926</ele>
        <time>2025-02-03T09:49:24.046Z</time>
      </trkpt>
      <trkpt lat="44.30905" lon="4.68119">
        <ele>95.39936</ele>
        <time>2025-02-03T09:49:26.021Z</time>
      </trkpt>
      <trkpt lat="44.30899" lon="4.68129">
        <ele>95.383995</ele>
        <time>2025-02-03T09:49:28.057Z</time>
      </trkpt>
      <trkpt lat="44.30892" lon="4.68139">
        <ele>95.368775</ele>
        <time>2025-02-03T09:49:30.047Z</time>
      </trkpt>
      <trkpt lat="44.30885" lon="4.68149">
        <ele>95.36154</ele>
        <time>2025-02-03T09:49:32.024Z</time>
      </trkpt>
      <trkpt lat="44.30878" lon="4.68158">
        <ele>95.356525</ele>
        <time>2025-02-03T09:49:34.043Z</time>
      </trkpt>
      <trkpt lat="44.3087" lon="4.68167">
        <ele>95.351271</ele>
        <time>2025-02-03T09:49:36.014Z</time>
      </trkpt>
      <trkpt lat="44.30861" lon="4.68175">
        <ele>95.346109</ele>
        <time>2025-02-03T09:49:38.050Z</time>
      </trkpt>
      <trkpt lat="44.30853" lon="4.68183">
        <ele>95.341053</ele>
        <time>2025-02-03T09:49:40.008Z</time>
      </trkpt>
      <trkpt lat="44.30845" lon="4.6819">
        <ele>95.335976</ele>
        <time>2025-02-03T09:49:42.047Z</time>
      </trkpt>
      <trkpt lat="44.30837" lon="4.68199">
        <ele>95.330814</ele>
        <time>2025-02-03T09:49:44.026Z</time>
      </trkpt>
      <trkpt lat="44.3083" lon="4.68207">
        <ele>95.325773</ele>
        <time>2025-02-03T09:49:46.026Z</time>
      </trkpt>
      <trkpt lat="44.30821" lon="4.68215">
        <ele>95.320461</ele>
        <time>2025-02-03T09:49:48.062Z</time>
      </trkpt>
      <trkpt lat="44.30812" lon="4.68222">
        <ele>95.315009</ele>
        <time>2025-02-03T09:49:50.048Z</time>
      </trkpt>
      <trkpt lat="44.30802" lon="4.68229">
        <ele>95.30941</ele>
        <time>2025-02-03T09:49:52.028Z</time>
      </trkpt>
      <trkpt lat="44.30792" lon="4.68235">
        <ele>95.30395</ele>
        <time>2025-02-03T09:49:54.028Z</time>
      </trkpt>
      <trkpt lat="44.30782" lon="4.6824">
        <ele>95.29842</ele>
        <time>2025-02-03T09:49:56.038Z</time>
      </trkpt>
      <trkpt lat="44.30772" lon="4.68245">
        <ele>95.292935</ele>
        <time>2025-02-03T09:49:57.999Z</time>
      </trkpt>
      <trkpt lat="44.30762" lon="4.6825">
        <ele>95.287498</ele>
        <time>2025-02-03T09:50:00.019Z</time>
      </trkpt>
      <trkpt lat="44.30752" lon="4.68255">
        <ele>95.281943</ele>
        <time>2025-02-03T09:50:02.045Z</time>
      </trkpt>
      <trkpt lat="44.30743" lon="4.6826">
        <ele>95.276945</ele>
        <time>2025-02-03T09:50:04.043Z</time>
      </trkpt>
      <trkpt lat="44.30735" lon="4.68267">
        <ele>95.271401</ele>
        <time>2025-02-03T09:50:06.034Z</time>
      </trkpt>
      <trkpt lat="44.30727" lon="4.68276">
        <ele>95.264433</ele>
        <time>2025-02-03T09:50:08.023Z</time>
      </trkpt>
      <trkpt lat="44.3072" lon="4.68285">
        <ele>95.258143</ele>
        <time>2025-02-03T09:50:10.031Z</time>
      </trkpt>
      <trkpt lat="44.30715" lon="4.68296">
        <ele>95.251933</ele>
        <time>2025-02-03T09:50:12.043Z</time>
      </trkpt>
      <trkpt lat="44.3071" lon="4.68311">
        <ele>95.243482</ele>
        <time>2025-02-03T09:50:15.022Z</time>
      </trkpt>
      <trkpt lat="44.30702" lon="4.68322">
        <ele>95.235741</ele>
        <time>2025-02-03T09:50:18.017Z</time>
      </trkpt>
      <trkpt lat="44.3069" lon="4.68317">
        <ele>95.227593</ele>
        <time>2025-02-03T09:50:21.023Z</time>
      </trkpt>
      <trkpt lat="44.30684" lon="4.68302">
        <ele>95.219091</ele>
        <time>2025-02-03T09:50:24.021Z</time>
      </trkpt>
      <trkpt lat="44.30676" lon="4.68287">
        <ele>95.210061</ele>
        <time>2025-02-03T09:50:27.033Z</time>
      </trkpt>
      <trkpt lat="44.30668" lon="4.68273">
        <ele>95.201334</ele>
        <time>2025-02-03T09:50:30.022Z</time>
      </trkpt>
      <trkpt lat="44.30657" lon="4.68263">
        <ele>95.192226</ele>
        <time>2025-02-03T09:50:33.014Z</time>
      </trkpt>
      <trkpt lat="44.30649" lon="4.68259">
        <ele>95.186046</ele>
        <time>2025-02-03T09:50:34.994Z</time>
      </trkpt>
      <trkpt lat="44.30639" lon="4.68255">
        <ele>95.179554</ele>
        <time>2025-02-03T09:50:37.023Z</time>
      </trkpt>
      <trkpt lat="44.3063" lon="4.68251">
        <ele>95.173075</ele>
        <time>2025-02-03T09:50:38.999Z</time>
      </trkpt>
      <trkpt lat="44.30621" lon="4.68248">
        <ele>95.166594</ele>
        <time>2025-02-03T09:50:41.031Z</time>
      </trkpt>
      <trkpt lat="44.30612" lon="4.68244">
        <ele>95.160246</ele>
        <time>2025-02-03T09:50:43.025Z</time>
      </trkpt>
      <trkpt lat="44.30603" lon="4.6824">
        <ele>95.153759</ele>
        <time>2025-02-03T09:50:45.044Z</time>
      </trkpt>
      <trkpt lat="44.30594" lon="4.68236">
        <ele>95.178308</ele>
        <time>2025-02-03T09:50:47.026Z</time>
      </trkpt>
      <trkpt lat="44.30584" lon="4.68233">
        <ele>95.24065</ele>
        <time>2025-02-03T09:50:49.024Z</time>
      </trkpt>
      <trkpt lat="44.30575" lon="4.68229">
        <ele>95.303528</ele>
        <time>2025-02-03T09:50:51.025Z</time>
      </trkpt>
      <trkpt lat="44.30565" lon="4.68224">
        <ele>95.366266</ele>
        <time>2025-02-03T09:50:53.027Z</time>
      </trkpt>
      <trkpt lat="44.30556" lon="4.68221">
        <ele>95.428961</ele>
        <time>2025-02-03T09:50:55.022Z</time>
      </trkpt>
      <trkpt lat="44.30546" lon="4.68217">
        <ele>95.492517</ele>
        <time>2025-02-03T09:50:57.032Z</time>
      </trkpt>
      <trkpt lat="44.30537" lon="4.68213">
        <ele>95.556201</ele>
        <time>2025-02-03T09:50:59.032Z</time>
      </trkpt>
      <trkpt lat="44.30527" lon="4.68208">
        <ele>95.619227</ele>
        <time>2025-02-03T09:51:01.034Z</time>
      </trkpt>
      <trkpt lat="44.30518" lon="4.68205">
        <ele>95.682384</ele>
        <time>2025-02-03T09:51:03.026Z</time>
      </trkpt>
      <trkpt lat="44.30508" lon="4.68202">
        <ele>95.74585</ele>
        <time>2025-02-03T09:51:05.031Z</time>
      </trkpt>
      <trkpt lat="44.30498" lon="4.68199">
        <ele>95.808487</ele>
        <time>2025-02-03T09:51:07.022Z</time>
      </trkpt>
      <trkpt lat="44.30488" lon="4.68196">
        <ele>95.873616</ele>
        <time>2025-02-03T09:51:09.037Z</time>
      </trkpt>
      <trkpt lat="44.30478" lon="4.68195">
        <ele>95.936873</ele>
        <time>2025-02-03T09:51:11.054Z</time>
      </trkpt>
      <trkpt lat="44.30469" lon="4.68194">
        <ele>95.997294</ele>
        <time>2025-02-03T09:51:13.026Z</time>
      </trkpt>
      <trkpt lat="44.30459" lon="4.68194">
        <ele>96.057067</ele>
        <time>2025-02-03T09:51:15.031Z</time>
      </trkpt>
      <trkpt lat="44.3045" lon="4.68194">
        <ele>96.11684</ele>
        <time>2025-02-03T09:51:17.041Z</time>
      </trkpt>
      <trkpt lat="44.3044" lon="4.68194">
        <ele>96.179142</ele>
        <time>2025-02-03T09:51:19.031Z</time>
      </trkpt>
      <trkpt lat="44.3043" lon="4.68194">
        <ele>96.242119</ele>
        <time>2025-02-03T09:51:21.027Z</time>
      </trkpt>
      <trkpt lat="44.3042" lon="4.68195">
        <ele>96.271787</ele>
        <time>2025-02-03T09:51:23.025Z</time>
      </trkpt>
      <trkpt lat="44.3041" lon="4.68196">
        <ele>96.156193</ele>
        <time>2025-02-03T09:51:25.047Z</time>
      </trkpt>
      <trkpt lat="44.304" lon="4.68198">
        <ele>96.043599</ele>
        <time>2025-02-03T09:51:27.038Z</time>
      </trkpt>
      <trkpt lat="44.3039" lon="4.682">
        <ele>95.930712</ele>
        <time>2025-02-03T09:51:29.040Z</time>
      </trkpt>
      <trkpt lat="44.3038" lon="4.68202">
        <ele>95.817824</ele>
        <time>2025-02-03T09:51:31.019Z</time>
      </trkpt>
      <trkpt lat="44.30369" lon="4.68205">
        <ele>95.695366</ele>
        <time>2025-02-03T09:51:33.019Z</time>
      </trkpt>
      <trkpt lat="44.30358" lon="4.68207">
        <ele>95.576661</ele>
        <time>2025-02-03T09:51:35.030Z</time>
      </trkpt>
      <trkpt lat="44.30348" lon="4.6821">
        <ele>95.464132</ele>
        <time>2025-02-03T09:51:37.005Z</time>
      </trkpt>
      <trkpt lat="44.30338" lon="4.68213">
        <ele>95.349414</ele>
        <time>2025-02-03T09:51:39.038Z</time>
      </trkpt>
      <trkpt lat="44.30328" lon="4.68216">
        <ele>95.234147</ele>
        <time>2025-02-03T09:51:41.035Z</time>
      </trkpt>
      <trkpt lat="44.30317" lon="4.6822">
        <ele>95.113799</ele>
        <time>2025-02-03T09:51:43.041Z</time>
      </trkpt>
      <trkpt lat="44.30307" lon="4.68224">
        <ele>94.994101</ele>
        <time>2025-02-03T09:51:45.035Z</time>
      </trkpt>
      <trkpt lat="44.30296" lon="4.68227">
        <ele>94.873516</ele>
        <time>2025-02-03T09:51:47.029Z</time>
      </trkpt>
      <trkpt lat="44.30286" lon="4.68229">
        <ele>94.755907</ele>
        <time>2025-02-03T09:51:49.029Z</time>
      </trkpt>
      <trkpt lat="44.30275" lon="4.68231">
        <ele>94.63907</ele>
        <time>2025-02-03T09:51:51.037Z</time>
      </trkpt>
      <trkpt lat="44.30265" lon="4.68231">
        <ele>94.522664</ele>
        <time>2025-02-03T09:51:53.051Z</time>
      </trkpt>
      <trkpt lat="44.30254" lon="4.68233">
        <ele>94.403692</ele>
        <time>2025-02-03T09:51:55.048Z</time>
      </trkpt>
      <trkpt lat="44.30244" lon="4.68232">
        <ele>94.300841</ele>
        <time>2025-02-03T09:51:57.017Z</time>
      </trkpt>
      <trkpt lat="44.30233" lon="4.68231">
        <ele>94.299338</ele>
        <time>2025-02-03T09:51:59.037Z</time>
      </trkpt>
      <trkpt lat="44.30223" lon="4.68229">
        <ele>94.297799</ele>
        <time>2025-02-03T09:52:01.024Z</time>
      </trkpt>
      <trkpt lat="44.30212" lon="4.68228">
        <ele>94.296244</ele>
        <time>2025-02-03T09:52:03.016Z</time>
      </trkpt>
      <trkpt lat="44.30202" lon="4.68227">
        <ele>94.294712</ele>
        <time>2025-02-03T09:52:05.035Z</time>
      </trkpt>
      <trkpt lat="44.30191" lon="4.68226">
        <ele>94.293165</ele>
        <time>2025-02-03T09:52:07.034Z</time>
      </trkpt>
      <trkpt lat="44.3018" lon="4.68225">
        <ele>94.291661</ele>
        <time>2025-02-03T09:52:09.041Z</time>
      </trkpt>
      <trkpt lat="44.3017" lon="4.68225">
        <ele>94.29016</ele>
        <time>2025-02-03T09:52:11.026Z</time>
      </trkpt>
      <trkpt lat="44.30159" lon="4.68227">
        <ele>94.288603</ele>
        <time>2025-02-03T09:52:13.027Z</time>
      </trkpt>
      <trkpt lat="44.30149" lon="4.68228">
        <ele>94.287092</ele>
        <time>2025-02-03T09:52:15.031Z</time>
      </trkpt>
      <trkpt lat="44.30139" lon="4.68231">
        <ele>94.285571</ele>
        <time>2025-02-03T09:52:17.044Z</time>
      </trkpt>
      <trkpt lat="44.30128" lon="4.68233">
        <ele>94.284056</ele>
        <time>2025-02-03T09:52:19.028Z</time>
      </trkpt>
      <trkpt lat="44.30118" lon="4.68235">
        <ele>94.282517</ele>
        <time>2025-02-03T09:52:21.023Z</time>
      </trkpt>
      <trkpt lat="44.30107" lon="4.68238">
        <ele>94.280948</ele>
        <time>2025-02-03T09:52:23.042Z</time>
      </trkpt>
      <trkpt lat="44.30096" lon="4.68241">
        <ele>94.279402</ele>
        <time>2025-02-03T09:52:25.038Z</time>
      </trkpt>
      <trkpt lat="44.30086" lon="4.68245">
        <ele>94.277842</ele>
        <time>2025-02-03T09:52:27.033Z</time>
      </trkpt>
      <trkpt lat="44.30076" lon="4.68249">
        <ele>94.276283</ele>
        <time>2025-02-03T09:52:29.024Z</time>
      </trkpt>
      <trkpt lat="44.30065" lon="4.68254">
        <ele>94.274103</ele>
        <time>2025-02-03T09:52:31.016Z</time>
      </trkpt>
      <trkpt lat="44.30056" lon="4.6826">
        <ele>94.269626</ele>
        <time>2025-02-03T09:52:33.025Z</time>
      </trkpt>
      <trkpt lat="44.30045" lon="4.68265">
        <ele>94.264963</ele>
        <time>2025-02-03T09:52:35.039Z</time>
      </trkpt>
      <trkpt lat="44.30035" lon="4.6827">
        <ele>94.260478</ele>
        <time>2025-02-03T09:52:37.025Z</time>
      </trkpt>
      <trkpt lat="44.30025" lon="4.68275">
        <ele>94.25594</ele>
        <time>2025-02-03T09:52:39.046Z</time>
      </trkpt>
      <trkpt lat="44.30015" lon="4.6828">
        <ele>94.251277</ele>
        <time>2025-02-03T09:52:41.044Z</time>
      </trkpt>
      <trkpt lat="44.30004" lon="4.68285">
        <ele>94.246627</ele>
        <time>2025-02-03T09:52:43.028Z</time>
      </trkpt>
      <trkpt lat="44.29993" lon="4.68287">
        <ele>94.242088</ele>
        <time>2025-02-03T09:52:45.034Z</time>
      </trkpt>
      <trkpt lat="44.29983" lon="4.68289">
        <ele>94.237499</ele>
        <time>2025-02-03T09:52:47.034Z</time>
      </trkpt>
      <trkpt lat="44.29972" lon="4.68289">
        <ele>94.233034</ele>
        <time>2025-02-03T09:52:49.046Z</time>
      </trkpt>
      <trkpt lat="44.29961" lon="4.68288">
        <ele>94.228536</ele>
        <time>2025-02-03T09:52:51.041Z</time>
      </trkpt>
      <trkpt lat="44.29951" lon="4.68284">
        <ele>94.224118</ele>
        <time>2025-02-03T09:52:53.029Z</time>
      </trkpt>
      <trkpt lat="44.29941" lon="4.6828">
        <ele>94.219753</ele>
        <time>2025-02-03T09:52:55.022Z</time>
      </trkpt>
      <trkpt lat="44.29931" lon="4.68276">
        <ele>94.215418</ele>
        <time>2025-02-03T09:52:57.027Z</time>
      </trkpt>
      <trkpt lat="44.29922" lon="4.68269">
        <ele>94.211164</ele>
        <time>2025-02-03T09:52:59.032Z</time>
      </trkpt>
      <trkpt lat="44.29913" lon="4.68264">
        <ele>94.20686</ele>
        <time>2025-02-03T09:53:01.031Z</time>
      </trkpt>
      <trkpt lat="44.29904" lon="4.68257">
        <ele>94.202643</ele>
        <time>2025-02-03T09:53:03.026Z</time>
      </trkpt>
      <trkpt lat="44.29895" lon="4.6825">
        <ele>94.193119</ele>
        <time>2025-02-03T09:53:05.030Z</time>
      </trkpt>
      <trkpt lat="44.29887" lon="4.68242">
        <ele>94.166205</ele>
        <time>2025-02-03T09:53:07.027Z</time>
      </trkpt>
      <trkpt lat="44.29878" lon="4.68234">
        <ele>94.139291</ele>
        <time>2025-02-03T09:53:09.032Z</time>
      </trkpt>
      <trkpt lat="44.29869" lon="4.68226">
        <ele>94.111295</ele>
        <time>2025-02-03T09:53:11.032Z</time>
      </trkpt>
      <trkpt lat="44.2986" lon="4.68219">
        <ele>94.084645</ele>
        <time>2025-02-03T09:53:13.023Z</time>
      </trkpt>
      <trkpt lat="44.29852" lon="4.68211">
        <ele>94.057253</ele>
        <time>2025-02-03T09:53:15.026Z</time>
      </trkpt>
      <trkpt lat="44.29843" lon="4.68204">
        <ele>94.031395</ele>
        <time>2025-02-03T09:53:17.032Z</time>
      </trkpt>
      <trkpt lat="44.29834" lon="4.68198">
        <ele>94.005575</ele>
        <time>2025-02-03T09:53:19.030Z</time>
      </trkpt>
      <trkpt lat="44.29825" lon="4.68192">
        <ele>93.979375</ele>
        <time>2025-02-03T09:53:21.029Z</time>
      </trkpt>
      <trkpt lat="44.29817" lon="4.68185">
        <ele>93.953408</ele>
        <time>2025-02-03T09:53:23.024Z</time>
      </trkpt>
      <trkpt lat="44.29807" lon="4.68179">
        <ele>93.92625</ele>
        <time>2025-02-03T09:53:25.030Z</time>
      </trkpt>
      <trkpt lat="44.29798" lon="4.68173">
        <ele>93.899971</ele>
        <time>2025-02-03T09:53:27.033Z</time>
      </trkpt>
      <trkpt lat="44.29789" lon="4.68167">
        <ele>93.872909</ele>
        <time>2025-02-03T09:53:29.032Z</time>
      </trkpt>
      <trkpt lat="44.2978" lon="4.68161">
        <ele>93.847666</ele>
        <time>2025-02-03T09:53:31.027Z</time>
      </trkpt>
      <trkpt lat="44.29771" lon="4.68155">
        <ele>93.821146</ele>
        <time>2025-02-03T09:53:33.038Z</time>
      </trkpt>
      <trkpt lat="44.29763" lon="4.68149">
        <ele>93.795646</ele>
        <time>2025-02-03T09:53:35.032Z</time>
      </trkpt>
      <trkpt lat="44.29754" lon="4.68142">
        <ele>93.769445</ele>
        <time>2025-02-03T09:53:37.017Z</time>
      </trkpt>
      <trkpt lat="44.29746" lon="4.68136">
        <ele>93.745329</ele>
        <time>2025-02-03T09:53:39.025Z</time>
      </trkpt>
      <trkpt lat="44.29737" lon="4.68129">
        <ele>93.736103</ele>
        <time>2025-02-03T09:53:41.031Z</time>
      </trkpt>
      <trkpt lat="44.29729" lon="4.68123">
        <ele>93.768134</ele>
        <time>2025-02-03T09:53:43.008Z</time>
      </trkpt>
      <trkpt lat="44.29721" lon="4.68115">
        <ele>93.801436</ele>
        <time>2025-02-03T09:53:45.048Z</time>
      </trkpt>
      <trkpt lat="44.29712" lon="4.68108">
        <ele>93.834696</ele>
        <time>2025-02-03T09:53:47.029Z</time>
      </trkpt>
      <trkpt lat="44.29704" lon="4.681">
        <ele>93.867712</ele>
        <time>2025-02-03T09:53:49.037Z</time>
      </trkpt>
      <trkpt lat="44.29696" lon="4.68092">
        <ele>93.900719</ele>
        <time>2025-02-03T09:53:51.035Z</time>
      </trkpt>
      <trkpt lat="44.29689" lon="4.68083">
        <ele>93.934207</ele>
        <time>2025-02-03T09:53:53.031Z</time>
      </trkpt>
      <trkpt lat="44.29681" lon="4.68074">
        <ele>93.967714</ele>
        <time>2025-02-03T09:53:55.015Z</time>
      </trkpt>
      <trkpt lat="44.29674" lon="4.68065">
        <ele>94.001154</ele>
        <time>2025-02-03T09:53:57.035Z</time>
      </trkpt>
      <trkpt lat="44.29667" lon="4.68055">
        <ele>94.034343</ele>
        <time>2025-02-03T09:53:59.015Z</time>
      </trkpt>
      <trkpt lat="44.2966" lon="4.68046">
        <ele>94.06601</ele>
        <time>2025-02-03T09:54:01.012Z</time>
      </trkpt>
      <trkpt lat="44.29651" lon="4.68032">
        <ele>94.112551</ele>
        <time>2025-02-03T09:54:04.034Z</time>
      </trkpt>
      <trkpt lat="44.29645" lon="4.68022">
        <ele>94.14326</ele>
        <time>2025-02-03T09:54:06.042Z</time>
      </trkpt>
      <trkpt lat="44.29638" lon="4.68012">
        <ele>94.174595</ele>
        <time>2025-02-03T09:54:08.022Z</time>
      </trkpt>
      <trkpt lat="44.29633" lon="4.68002">
        <ele>94.204965</ele>
        <time>2025-02-03T09:54:10.038Z</time>
      </trkpt>
      <trkpt lat="44.29628" lon="4.67992">
        <ele>94.236336</ele>
        <time>2025-02-03T09:54:12.035Z</time>
      </trkpt>
      <trkpt lat="44.29622" lon="4.67982">
        <ele>94.26674</ele>
        <time>2025-02-03T09:54:14.015Z</time>
      </trkpt>
      <trkpt lat="44.29616" lon="4.67973">
        <ele>94.297825</ele>
        <time>2025-02-03T09:54:16.033Z</time>
      </trkpt>
      <trkpt lat="44.29609" lon="4.67963">
        <ele>94.328577</ele>
        <time>2025-02-03T09:54:18.026Z</time>
      </trkpt>
      <trkpt lat="44.29603" lon="4.67954">
        <ele>94.3423</ele>
        <time>2025-02-03T09:54:20.024Z</time>
      </trkpt>
      <trkpt lat="44.29598" lon="4.67943">
        <ele>94.353377</ele>
        <time>2025-02-03T09:54:22.017Z</time>
      </trkpt>
      <trkpt lat="44.29595" lon="4.67931">
        <ele>94.364439</ele>
        <time>2025-02-03T09:54:24.033Z</time>
      </trkpt>
      <trkpt lat="44.29593" lon="4.67918">
        <ele>94.375896</ele>
        <time>2025-02-03T09:54:26.014Z</time>
      </trkpt>
      <trkpt lat="44.29593" lon="4.67904">
        <ele>94.387342</ele>
        <time>2025-02-03T09:54:28.016Z</time>
      </trkpt>
      <trkpt lat="44.29593" lon="4.67891">
        <ele>94.39853</ele>
        <time>2025-02-03T09:54:30.031Z</time>
      </trkpt>
      <trkpt lat="44.29594" lon="4.67873">
        <ele>94.414552</ele>
        <time>2025-02-03T09:54:33.040Z</time>
      </trkpt>
      <trkpt lat="44.29593" lon="4.67855">
        <ele>94.429629</ele>
        <time>2025-02-03T09:54:36.027Z</time>
      </trkpt>
      <trkpt lat="44.29592" lon="4.67843">
        <ele>94.440568</ele>
        <time>2025-02-03T09:54:38.029Z</time>
      </trkpt>
      <trkpt lat="44.2959" lon="4.6783">
        <ele>94.45139</ele>
        <time>2025-02-03T09:54:40.038Z</time>
      </trkpt>
      <trkpt lat="44.29588" lon="4.67818">
        <ele>94.462219</ele>
        <time>2025-02-03T09:54:42.030Z</time>
      </trkpt>
      <trkpt lat="44.29587" lon="4.67805">
        <ele>94.473385</ele>
        <time>2025-02-03T09:54:44.054Z</time>
      </trkpt>
      <trkpt lat="44.29587" lon="4.67792">
        <ele>94.484831</ele>
        <time>2025-02-03T09:54:46.041Z</time>
      </trkpt>
      <trkpt lat="44.29588" lon="4.67774">
        <ele>94.500079</ele>
        <time>2025-02-03T09:54:49.025Z</time>
      </trkpt>
      <trkpt lat="44.29589" lon="4.67758">
        <ele>94.513901</ele>
        <time>2025-02-03T09:54:52.011Z</time>
      </trkpt>
      <trkpt lat="44.29591" lon="4.67742">
        <ele>94.527942</ele>
        <time>2025-02-03T09:54:55.025Z</time>
      </trkpt>
      <trkpt lat="44.29592" lon="4.67726">
        <ele>94.54207</ele>
        <time>2025-02-03T09:54:58.037Z</time>
      </trkpt>
      <trkpt lat="44.29594" lon="4.6771">
        <ele>94.573438</ele>
        <time>2025-02-03T09:55:01.026Z</time>
      </trkpt>
      <trkpt lat="44.29596" lon="4.67694">
        <ele>94.618194</ele>
        <time>2025-02-03T09:55:04.044Z</time>
      </trkpt>
      <trkpt lat="44.29597" lon="4.67677">
        <ele>94.669994</ele>
        <time>2025-02-03T09:55:07.012Z</time>
      </trkpt>
      <trkpt lat="44.29598" lon="4.67664">
        <ele>94.706476</ele>
        <time>2025-02-03T09:55:09.039Z</time>
      </trkpt>
      <trkpt lat="44.29599" lon="4.67647">
        <ele>94.757025</ele>
        <time>2025-02-03T09:55:12.028Z</time>
      </trkpt>
      <trkpt lat="44.296" lon="4.6763">
        <ele>94.807151</ele>
        <time>2025-02-03T09:55:15.029Z</time>
      </trkpt>
      <trkpt lat="44.29601" lon="4.67613">
        <ele>94.854515</ele>
        <time>2025-02-03T09:55:18.022Z</time>
      </trkpt>
      <trkpt lat="44.29601" lon="4.67596">
        <ele>94.903251</ele>
        <time>2025-02-03T09:55:21.025Z</time>
      </trkpt>
      <trkpt lat="44.29598" lon="4.6758">
        <ele>94.951123</ele>
        <time>2025-02-03T09:55:24.007Z</time>
      </trkpt>
      <trkpt lat="44.29596" lon="4.67564">
        <ele>95.000591</ele>
        <time>2025-02-03T09:55:27.046Z</time>
      </trkpt>
      <trkpt lat="44.29592" lon="4.67547">
        <ele>95.050394</ele>
        <time>2025-02-03T09:55:30.034Z</time>
      </trkpt>
      <trkpt lat="44.29589" lon="4.67531">
        <ele>95.09883</ele>
        <time>2025-02-03T09:55:33.027Z</time>
      </trkpt>
      <trkpt lat="44.29586" lon="4.67514">
        <ele>95.149975</ele>
        <time>2025-02-03T09:55:36.042Z</time>
      </trkpt>
      <trkpt lat="44.29581" lon="4.67499">
        <ele>95.199288</ele>
        <time>2025-02-03T09:55:39.029Z</time>
      </trkpt>
      <trkpt lat="44.29571" lon="4.67488">
        <ele>95.249834</ele>
        <time>2025-02-03T09:55:42.015Z</time>
      </trkpt>
      <trkpt lat="44.29558" lon="4.67486">
        <ele>95.28914</ele>
        <time>2025-02-03T09:55:45.038Z</time>
      </trkpt>
      <trkpt lat="44.29544" lon="4.67486">
        <ele>95.313528</ele>
        <time>2025-02-03T09:55:48.020Z</time>
      </trkpt>
      <trkpt lat="44.29535" lon="4.67488">
        <ele>95.330135</ele>
        <time>2025-02-03T09:55:50.019Z</time>
      </trkpt>
      <trkpt lat="44.29525" lon="4.67488">
        <ele>95.347349</ele>
        <time>2025-02-03T09:55:52.006Z</time>
      </trkpt>
      <trkpt lat="44.29516" lon="4.67488">
        <ele>95.36457</ele>
        <time>2025-02-03T09:55:54.013Z</time>
      </trkpt>
      <trkpt lat="44.29506" lon="4.67489">
        <ele>95.382019</ele>
        <time>2025-02-03T09:55:56.028Z</time>
      </trkpt>
      <trkpt lat="44.29496" lon="4.6749">
        <ele>95.399792</ele>
        <time>2025-02-03T09:55:58.028Z</time>
      </trkpt>
      <trkpt lat="44.29486" lon="4.6749">
        <ele>95.418082</ele>
        <time>2025-02-03T09:56:00.034Z</time>
      </trkpt>
      <trkpt lat="44.29475" lon="4.67491">
        <ele>95.437122</ele>
        <time>2025-02-03T09:56:02.010Z</time>
      </trkpt>
      <trkpt lat="44.29465" lon="4.67491">
        <ele>95.456307</ele>
        <time>2025-02-03T09:56:04.036Z</time>
      </trkpt>
      <trkpt lat="44.29454" lon="4.67491">
        <ele>95.474961</ele>
        <time>2025-02-03T09:56:06.028Z</time>
      </trkpt>
      <trkpt lat="44.29443" lon="4.6749">
        <ele>95.494547</ele>
        <time>2025-02-03T09:56:08.044Z</time>
      </trkpt>
      <trkpt lat="44.29432" lon="4.67487">
        <ele>95.514154</ele>
        <time>2025-02-03T09:56:10.025Z</time>
      </trkpt>
      <trkpt lat="44.29422" lon="4.67484">
        <ele>95.533697</ele>
        <time>2025-02-03T09:56:12.038Z</time>
      </trkpt>
      <trkpt lat="44.29411" lon="4.6748">
        <ele>95.553107</ele>
        <time>2025-02-03T09:56:13.998Z</time>
      </trkpt>
      <trkpt lat="44.29401" lon="4.67475">
        <ele>95.572319</ele>
        <time>2025-02-03T09:56:16.018Z</time>
      </trkpt>
      <trkpt lat="44.29391" lon="4.6747">
        <ele>95.591922</ele>
        <time>2025-02-03T09:56:18.049Z</time>
      </trkpt>
      <trkpt lat="44.2938" lon="4.67464">
        <ele>95.612142</ele>
        <time>2025-02-03T09:56:20.050Z</time>
      </trkpt>
      <trkpt lat="44.2937" lon="4.6746">
        <ele>95.631412</ele>
        <time>2025-02-03T09:56:22.021Z</time>
      </trkpt>
      <trkpt lat="44.2936" lon="4.67455">
        <ele>95.650778</ele>
        <time>2025-02-03T09:56:24.029Z</time>
      </trkpt>
      <trkpt lat="44.2935" lon="4.67451">
        <ele>95.670143</ele>
        <time>2025-02-03T09:56:26.026Z</time>
      </trkpt>
      <trkpt lat="44.29339" lon="4.67446">
        <ele>95.690299</ele>
        <time>2025-02-03T09:56:28.022Z</time>
      </trkpt>
      <trkpt lat="44.29328" lon="4.67442">
        <ele>95.710817</ele>
        <time>2025-02-03T09:56:30.041Z</time>
      </trkpt>
      <trkpt lat="44.29317" lon="4.67439">
        <ele>95.731129</ele>
        <time>2025-02-03T09:56:32.037Z</time>
      </trkpt>
      <trkpt lat="44.29306" lon="4.67434">
        <ele>95.751805</ele>
        <time>2025-02-03T09:56:34.026Z</time>
      </trkpt>
      <trkpt lat="44.29295" lon="4.67431">
        <ele>95.772535</ele>
        <time>2025-02-03T09:56:36.026Z</time>
      </trkpt>
      <trkpt lat="44.29283" lon="4.67428">
        <ele>95.793392</ele>
        <time>2025-02-03T09:56:38.030Z</time>
      </trkpt>
      <trkpt lat="44.29272" lon="4.67425">
        <ele>95.814122</ele>
        <time>2025-02-03T09:56:40.041Z</time>
      </trkpt>
      <trkpt lat="44.2926" lon="4.67422">
        <ele>95.835003</ele>
        <time>2025-02-03T09:56:42.028Z</time>
      </trkpt>
      <trkpt lat="44.29249" lon="4.6742">
        <ele>95.856087</ele>
        <time>2025-02-03T09:56:44.022Z</time>
      </trkpt>
      <trkpt lat="44.29237" lon="4.67416">
        <ele>95.877221</ele>
        <time>2025-02-03T09:56:46.031Z</time>
      </trkpt>
      <trkpt lat="44.29226" lon="4.67413">
        <ele>95.898408</ele>
        <time>2025-02-03T09:56:48.024Z</time>
      </trkpt>
      <trkpt lat="44.29214" lon="4.6741">
        <ele>95.919596</ele>
        <time>2025-02-03T09:56:50.031Z</time>
      </trkpt>
      <trkpt lat="44.29202" lon="4.67407">
        <ele>95.873506</ele>
        <time>2025-02-03T09:56:52.024Z</time>
      </trkpt>
      <trkpt lat="44.29191" lon="4.67404">
        <ele>95.812476</ele>
        <time>2025-02-03T09:56:54.046Z</time>
      </trkpt>
      <trkpt lat="44.29179" lon="4.67402">
        <ele>95.752714</ele>
        <time>2025-02-03T09:56:56.020Z</time>
      </trkpt>
      <trkpt lat="44.29168" lon="4.67399">
        <ele>95.692321</ele>
        <time>2025-02-03T09:56:58.035Z</time>
      </trkpt>
      <trkpt lat="44.29156" lon="4.67396">
        <ele>95.631291</ele>
        <time>2025-02-03T09:57:00.033Z</time>
      </trkpt>
      <trkpt lat="44.29144" lon="4.67392">
        <ele>95.570472</ele>
        <time>2025-02-03T09:57:02.042Z</time>
      </trkpt>
      <trkpt lat="44.29133" lon="4.67388">
        <ele>95.509366</ele>
        <time>2025-02-03T09:57:04.018Z</time>
      </trkpt>
      <trkpt lat="44.29121" lon="4.67384">
        <ele>95.448888</ele>
        <time>2025-02-03T09:57:06.020Z</time>
      </trkpt>
      <trkpt lat="44.2911" lon="4.67381">
        <ele>95.388646</ele>
        <time>2025-02-03T09:57:08.026Z</time>
      </trkpt>
      <trkpt lat="44.29098" lon="4.67377">
        <ele>95.328749</ele>
        <time>2025-02-03T09:57:10.022Z</time>
      </trkpt>
      <trkpt lat="44.29087" lon="4.67374">
        <ele>95.26951</ele>
        <time>2025-02-03T09:57:12.020Z</time>
      </trkpt>
      <trkpt lat="44.29076" lon="4.67369">
        <ele>95.209585</ele>
        <time>2025-02-03T09:57:14.031Z</time>
      </trkpt>
      <trkpt lat="44.29065" lon="4.67365">
        <ele>95.149844</ele>
        <time>2025-02-03T09:57:16.029Z</time>
      </trkpt>
      <trkpt lat="44.29053" lon="4.67362">
        <ele>95.089864</ele>
        <time>2025-02-03T09:57:18.034Z</time>
      </trkpt>
      <trkpt lat="44.29042" lon="4.67358">
        <ele>95.03071</ele>
        <time>2025-02-03T09:57:20.021Z</time>
      </trkpt>
      <trkpt lat="44.29031" lon="4.67354">
        <ele>95.011118</ele>
        <time>2025-02-03T09:57:22.040Z</time>
      </trkpt>
      <trkpt lat="44.29019" lon="4.67352">
        <ele>95.029488</ele>
        <time>2025-02-03T09:57:24.026Z</time>
      </trkpt>
      <trkpt lat="44.29008" lon="4.67349">
        <ele>95.047666</ele>
        <time>2025-02-03T09:57:26.035Z</time>
      </trkpt>
      <trkpt lat="44.28996" lon="4.67347">
        <ele>95.065551</ele>
        <time>2025-02-03T09:57:28.023Z</time>
      </trkpt>
      <trkpt lat="44.28985" lon="4.67345">
        <ele>95.083182</ele>
        <time>2025-02-03T09:57:30.036Z</time>
      </trkpt>
      <trkpt lat="44.28974" lon="4.67342">
        <ele>95.101516</ele>
        <time>2025-02-03T09:57:32.013Z</time>
      </trkpt>
      <trkpt lat="44.28963" lon="4.6734">
        <ele>95.119349</ele>
        <time>2025-02-03T09:57:34.020Z</time>
      </trkpt>
      <trkpt lat="44.28951" lon="4.67339">
        <ele>95.137185</ele>
        <time>2025-02-03T09:57:36.032Z</time>
      </trkpt>
      <trkpt lat="44.2894" lon="4.67337">
        <ele>95.155597</ele>
        <time>2025-02-03T09:57:38.027Z</time>
      </trkpt>
      <trkpt lat="44.28928" lon="4.67335">
        <ele>95.173983</ele>
        <time>2025-02-03T09:57:40.024Z</time>
      </trkpt>
      <trkpt lat="44.28916" lon="4.67334">
        <ele>95.192455</ele>
        <time>2025-02-03T09:57:42.028Z</time>
      </trkpt>
      <trkpt lat="44.28905" lon="4.67333">
        <ele>95.211093</ele>
        <time>2025-02-03T09:57:44.026Z</time>
      </trkpt>
      <trkpt lat="44.28893" lon="4.67331">
        <ele>95.229363</ele>
        <time>2025-02-03T09:57:46.031Z</time>
      </trkpt>
      <trkpt lat="44.28882" lon="4.67328">
        <ele>95.247633</ele>
        <time>2025-02-03T09:57:48.028Z</time>
      </trkpt>
      <trkpt lat="44.2887" lon="4.67327">
        <ele>95.265718</ele>
        <time>2025-02-03T09:57:50.025Z</time>
      </trkpt>
      <trkpt lat="44.28859" lon="4.67324">
        <ele>95.284175</ele>
        <time>2025-02-03T09:57:52.032Z</time>
      </trkpt>
      <trkpt lat="44.28847" lon="4.67321">
        <ele>95.254934</ele>
        <time>2025-02-03T09:57:54.026Z</time>
      </trkpt>
      <trkpt lat="44.28836" lon="4.6732">
        <ele>95.223185</ele>
        <time>2025-02-03T09:57:56.036Z</time>
      </trkpt>
      <trkpt lat="44.28825" lon="4.67318">
        <ele>95.192054</ele>
        <time>2025-02-03T09:57:58.013Z</time>
      </trkpt>
      <trkpt lat="44.28814" lon="4.67315">
        <ele>95.160556</ele>
        <time>2025-02-03T09:58:00.030Z</time>
      </trkpt>
      <trkpt lat="44.28803" lon="4.67312">
        <ele>95.129571</ele>
        <time>2025-02-03T09:58:02.024Z</time>
      </trkpt>
      <trkpt lat="44.28792" lon="4.6731">
        <ele>95.099018</ele>
        <time>2025-02-03T09:58:04.017Z</time>
      </trkpt>
      <trkpt lat="44.28781" lon="4.67307">
        <ele>95.06907</ele>
        <time>2025-02-03T09:58:06.030Z</time>
      </trkpt>
      <trkpt lat="44.28771" lon="4.67305">
        <ele>95.038871</ele>
        <time>2025-02-03T09:58:08.038Z</time>
      </trkpt>
      <trkpt lat="44.28759" lon="4.67303">
        <ele>95.007571</ele>
        <time>2025-02-03T09:58:10.041Z</time>
      </trkpt>
      <trkpt lat="44.28748" lon="4.67302">
        <ele>94.976422</ele>
        <time>2025-02-03T09:58:12.020Z</time>
      </trkpt>
      <trkpt lat="44.28738" lon="4.673">
        <ele>94.947073</ele>
        <time>2025-02-03T09:58:14.019Z</time>
      </trkpt>
      <trkpt lat="44.28728" lon="4.67299">
        <ele>94.919019</ele>
        <time>2025-02-03T09:58:16.040Z</time>
      </trkpt>
      <trkpt lat="44.28717" lon="4.67298">
        <ele>94.888844</ele>
        <time>2025-02-03T09:58:18.024Z</time>
      </trkpt>
      <trkpt lat="44.28706" lon="4.67295">
        <ele>94.85902</ele>
        <time>2025-02-03T09:58:20.036Z</time>
      </trkpt>
      <trkpt lat="44.28696" lon="4.67294">
        <ele>94.829532</ele>
        <time>2025-02-03T09:58:22.048Z</time>
      </trkpt>
      <trkpt lat="44.28685" lon="4.67293">
        <ele>94.800624</ele>
        <time>2025-02-03T09:58:24.042Z</time>
      </trkpt>
      <trkpt lat="44.28675" lon="4.67292">
        <ele>94.725885</ele>
        <time>2025-02-03T09:58:26.028Z</time>
      </trkpt>
      <trkpt lat="44.28665" lon="4.67291">
        <ele>94.606437</ele>
        <time>2025-02-03T09:58:28.037Z</time>
      </trkpt>
      <trkpt lat="44.28655" lon="4.67289">
        <ele>94.49137</ele>
        <time>2025-02-03T09:58:30.036Z</time>
      </trkpt>
      <trkpt lat="44.28645" lon="4.67289">
        <ele>94.379262</ele>
        <time>2025-02-03T09:58:32.025Z</time>
      </trkpt>
      <trkpt lat="44.28636" lon="4.67287">
        <ele>94.266697</ele>
        <time>2025-02-03T09:58:34.026Z</time>
      </trkpt>
      <trkpt lat="44.28626" lon="4.67287">
        <ele>94.154691</ele>
        <time>2025-02-03T09:58:36.033Z</time>
      </trkpt>
      <trkpt lat="44.28616" lon="4.67287">
        <ele>94.043822</ele>
        <time>2025-02-03T09:58:38.023Z</time>
      </trkpt>
      <trkpt lat="44.28607" lon="4.67285">
        <ele>93.937671</ele>
        <time>2025-02-03T09:58:40.035Z</time>
      </trkpt>
      <trkpt lat="44.28601" lon="4.67276">
        <ele>93.83069</ele>
        <time>2025-02-03T09:58:42.018Z</time>
      </trkpt>
      <trkpt lat="44.28597" lon="4.6726">
        <ele>93.685885</ele>
        <time>2025-02-03T09:58:45.025Z</time>
      </trkpt>
      <trkpt lat="44.28594" lon="4.67248">
        <ele>93.577807</ele>
        <time>2025-02-03T09:58:47.011Z</time>
      </trkpt>
      <trkpt lat="44.28591" lon="4.67235">
        <ele>93.462982</ele>
        <time>2025-02-03T09:58:49.014Z</time>
      </trkpt>
      <trkpt lat="44.28587" lon="4.67222">
        <ele>93.346189</ele>
        <time>2025-02-03T09:58:51.027Z</time>
      </trkpt>
      <trkpt lat="44.28584" lon="4.67208">
        <ele>93.229772</ele>
        <time>2025-02-03T09:58:53.037Z</time>
      </trkpt>
      <trkpt lat="44.28581" lon="4.67195">
        <ele>93.110615</ele>
        <time>2025-02-03T09:58:55.024Z</time>
      </trkpt>
      <trkpt lat="44.28577" lon="4.67182">
        <ele>92.992169</ele>
        <time>2025-02-03T09:58:57.024Z</time>
      </trkpt>
      <trkpt lat="44.28571" lon="4.67172">
        <ele>92.884471</ele>
        <time>2025-02-03T09:58:59.028Z</time>
      </trkpt>
      <trkpt lat="44.28561" lon="4.67169">
        <ele>92.769748</ele>
        <time>2025-02-03T09:59:01.029Z</time>
      </trkpt>
      <trkpt lat="44.28551" lon="4.67169">
        <ele>92.657018</ele>
        <time>2025-02-03T09:59:03.005Z</time>
      </trkpt>
      <trkpt lat="44.28541" lon="4.67171">
        <ele>92.573122</ele>
        <time>2025-02-03T09:59:05.012Z</time>
      </trkpt>
      <trkpt lat="44.28531" lon="4.67172">
        <ele>92.49294</ele>
        <time>2025-02-03T09:59:07.017Z</time>
      </trkpt>
      <trkpt lat="44.28522" lon="4.67172">
        <ele>92.41204</ele>
        <time>2025-02-03T09:59:09.043Z</time>
      </trkpt>
      <trkpt lat="44.28512" lon="4.67173">
        <ele>92.33105</ele>
        <time>2025-02-03T09:59:11.028Z</time>
      </trkpt>
      <trkpt lat="44.28502" lon="4.67174">
        <ele>92.245745</ele>
        <time>2025-02-03T09:59:13.019Z</time>
      </trkpt>
      <trkpt lat="44.28492" lon="4.67174">
        <ele>92.159734</ele>
        <time>2025-02-03T09:59:14.998Z</time>
      </trkpt>
      <trkpt lat="44.28482" lon="4.67174">
        <ele>92.074642</ele>
        <time>2025-02-03T09:59:17.017Z</time>
      </trkpt>
      <trkpt lat="44.28472" lon="4.67175">
        <ele>91.988631</ele>
        <time>2025-02-03T09:59:19.019Z</time>
      </trkpt>
      <trkpt lat="44.28462" lon="4.67175">
        <ele>91.904379</ele>
        <time>2025-02-03T09:59:21.018Z</time>
      </trkpt>
      <trkpt lat="44.28452" lon="4.67175">
        <ele>91.824333</ele>
        <time>2025-02-03T09:59:23.038Z</time>
      </trkpt>
      <trkpt lat="44.28442" lon="4.67175">
        <ele>91.739241</ele>
        <time>2025-02-03T09:59:25.017Z</time>
      </trkpt>
      <trkpt lat="44.28432" lon="4.67175">
        <ele>91.653288</ele>
        <time>2025-02-03T09:59:27.032Z</time>
      </trkpt>
      <trkpt lat="44.28422" lon="4.67175">
        <ele>91.568984</ele>
        <time>2025-02-03T09:59:29.042Z</time>
      </trkpt>
      <trkpt lat="44.28412" lon="4.67176">
        <ele>91.48456</ele>
        <time>2025-02-03T09:59:31.021Z</time>
      </trkpt>
      <trkpt lat="44.28401" lon="4.67176">
        <ele>91.397707</ele>
        <time>2025-02-03T09:59:33.016Z</time>
      </trkpt>
      <trkpt lat="44.28391" lon="4.67176">
        <ele>91.312538</ele>
        <time>2025-02-03T09:59:35.014Z</time>
      </trkpt>
      <trkpt lat="44.28381" lon="4.67176">
        <ele>91.229077</ele>
        <time>2025-02-03T09:59:37.017Z</time>
      </trkpt>
      <trkpt lat="44.28371" lon="4.67176">
        <ele>91.211485</ele>
        <time>2025-02-03T09:59:39.039Z</time>
      </trkpt>
      <trkpt lat="44.28361" lon="4.67175">
        <ele>91.312258</ele>
        <time>2025-02-03T09:59:41.025Z</time>
      </trkpt>
      <trkpt lat="44.28352" lon="4.67171">
        <ele>91.41456</ele>
        <time>2025-02-03T09:59:43.028Z</time>
      </trkpt>
      <trkpt lat="44.28343" lon="4.67164">
        <ele>91.517338</ele>
        <time>2025-02-03T09:59:45.033Z</time>
      </trkpt>
      <trkpt lat="44.28336" lon="4.67153">
        <ele>91.621442</ele>
        <time>2025-02-03T09:59:47.020Z</time>
      </trkpt>
      <trkpt lat="44.28329" lon="4.67143">
        <ele>91.723865</ele>
        <time>2025-02-03T09:59:49.033Z</time>
      </trkpt>
      <trkpt lat="44.2832" lon="4.67139">
        <ele>91.828944</ele>
        <time>2025-02-03T09:59:51.041Z</time>
      </trkpt>
      <trkpt lat="44.2831" lon="4.67141">
        <ele>91.926969</ele>
        <time>2025-02-03T09:59:53.035Z</time>
      </trkpt>
      <trkpt lat="44.28302" lon="4.67148">
        <ele>92.022165</ele>
        <time>2025-02-03T09:59:55.034Z</time>
      </trkpt>
      <trkpt lat="44.28294" lon="4.67155">
        <ele>92.117402</ele>
        <time>2025-02-03T09:59:57.044Z</time>
      </trkpt>
      <trkpt lat="44.28286" lon="4.67161">
        <ele>92.211944</ele>
        <time>2025-02-03T09:59:59.025Z</time>
      </trkpt>
      <trkpt lat="44.28278" lon="4.67168">
        <ele>92.306988</ele>
        <time>2025-02-03T10:00:01.046Z</time>
      </trkpt>
      <trkpt lat="44.28267" lon="4.67178">
        <ele>92.44392</ele>
        <time>2025-02-03T10:00:04.008Z</time>
      </trkpt>
      <trkpt lat="44.28256" lon="4.67187">
        <ele>92.580089</ele>
        <time>2025-02-03T10:00:07.041Z</time>
      </trkpt>
      <trkpt lat="44.28244" lon="4.67197">
        <ele>92.719531</ele>
        <time>2025-02-03T10:00:10.024Z</time>
      </trkpt>
      <trkpt lat="44.28236" lon="4.67205">
        <ele>92.813469</ele>
        <time>2025-02-03T10:00:12.037Z</time>
      </trkpt>
      <trkpt lat="44.28229" lon="4.67211">
        <ele>92.907139</ele>
        <time>2025-02-03T10:00:14.032Z</time>
      </trkpt>
      <trkpt lat="44.28221" lon="4.67219">
        <ele>93.002778</ele>
        <time>2025-02-03T10:00:16.042Z</time>
      </trkpt>
      <trkpt lat="44.28213" lon="4.67225">
        <ele>93.012404</ele>
        <time>2025-02-03T10:00:18.028Z</time>
      </trkpt>
      <trkpt lat="44.28205" lon="4.67232">
        <ele>93.011726</ele>
        <time>2025-02-03T10:00:20.018Z</time>
      </trkpt>
      <trkpt lat="44.28196" lon="4.67236">
        <ele>93.011064</ele>
        <time>2025-02-03T10:00:22.027Z</time>
      </trkpt>
      <trkpt lat="44.28187" lon="4.67235">
        <ele>93.010399</ele>
        <time>2025-02-03T10:00:24.027Z</time>
      </trkpt>
      <trkpt lat="44.28178" lon="4.67232">
        <ele>93.009712</ele>
        <time>2025-02-03T10:00:26.034Z</time>
      </trkpt>
      <trkpt lat="44.2817" lon="4.67225">
        <ele>93.009039</ele>
        <time>2025-02-03T10:00:28.001Z</time>
      </trkpt>
      <trkpt lat="44.28163" lon="4.67216">
        <ele>93.008364</ele>
        <time>2025-02-03T10:00:30.014Z</time>
      </trkpt>
      <trkpt lat="44.28155" lon="4.67209">
        <ele>93.007697</ele>
        <time>2025-02-03T10:00:32.007Z</time>
      </trkpt>
      <trkpt lat="44.28147" lon="4.67201">
        <ele>93.006989</ele>
        <time>2025-02-03T10:00:34.003Z</time>
      </trkpt>
      <trkpt lat="44.28139" lon="4.67193">
        <ele>93.006268</ele>
        <time>2025-02-03T10:00:36.026Z</time>
      </trkpt>
      <trkpt lat="44.28131" lon="4.67185">
        <ele>93.005542</ele>
        <time>2025-02-03T10:00:38.022Z</time>
      </trkpt>
      <trkpt lat="44.28122" lon="4.67178">
        <ele>93.004831</ele>
        <time>2025-02-03T10:00:40.011Z</time>
      </trkpt>
      <trkpt lat="44.28113" lon="4.67173">
        <ele>93.004104</ele>
        <time>2025-02-03T10:00:42.016Z</time>
      </trkpt>
      <trkpt lat="44.28103" lon="4.67169">
        <ele>93.003392</ele>
        <time>2025-02-03T10:00:44.022Z</time>
      </trkpt>
      <trkpt lat="44.28093" lon="4.67166">
        <ele>93.002632</ele>
        <time>2025-02-03T10:00:46.016Z</time>
      </trkpt>
      <trkpt lat="44.28083" lon="4.67164">
        <ele>93.001898</ele>
        <time>2025-02-03T10:00:48.019Z</time>
      </trkpt>
      <trkpt lat="44.28073" lon="4.67161">
        <ele>93.001129</ele>
        <time>2025-02-03T10:00:50.020Z</time>
      </trkpt>
      <trkpt lat="44.28062" lon="4.67158">
        <ele>93.000372</ele>
        <time>2025-02-03T10:00:52.029Z</time>
      </trkpt>
      <trkpt lat="44.28052" lon="4.67155">
        <ele>93.03281</ele>
        <time>2025-02-03T10:00:54.023Z</time>
      </trkpt>
      <trkpt lat="44.28042" lon="4.67153">
        <ele>93.093064</ele>
        <time>2025-02-03T10:00:56.044Z</time>
      </trkpt>
      <trkpt lat="44.28032" lon="4.6715">
        <ele>93.154956</ele>
        <time>2025-02-03T10:00:58.038Z</time>
      </trkpt>
      <trkpt lat="44.28022" lon="4.67148">
        <ele>93.213653</ele>
        <time>2025-02-03T10:00:59.997Z</time>
      </trkpt>
      <trkpt lat="44.28013" lon="4.67145">
        <ele>93.273457</ele>
        <time>2025-02-03T10:01:02.012Z</time>
      </trkpt>
      <trkpt lat="44.28003" lon="4.67143">
        <ele>93.334677</ele>
        <time>2025-02-03T10:01:04.019Z</time>
      </trkpt>
      <trkpt lat="44.27992" lon="4.6714">
        <ele>93.39685</ele>
        <time>2025-02-03T10:01:06.037Z</time>
      </trkpt>
      <trkpt lat="44.27982" lon="4.67137">
        <ele>93.45807</ele>
        <time>2025-02-03T10:01:08.015Z</time>
      </trkpt>
      <trkpt lat="44.27972" lon="4.67134">
        <ele>93.51896</ele>
        <time>2025-02-03T10:01:10.053Z</time>
      </trkpt>
      <trkpt lat="44.27963" lon="4.67132">
        <ele>93.577505</ele>
        <time>2025-02-03T10:01:12.027Z</time>
      </trkpt>
      <trkpt lat="44.27953" lon="4.67129">
        <ele>93.638219</ele>
        <time>2025-02-03T10:01:14.037Z</time>
      </trkpt>
      <trkpt lat="44.27943" lon="4.67126">
        <ele>93.698522</ele>
        <time>2025-02-03T10:01:16.023Z</time>
      </trkpt>
      <trkpt lat="44.27933" lon="4.67122">
        <ele>93.760013</ele>
        <time>2025-02-03T10:01:18.008Z</time>
      </trkpt>
      <trkpt lat="44.27924" lon="4.67118">
        <ele>93.817756</ele>
        <time>2025-02-03T10:01:20.022Z</time>
      </trkpt>
      <trkpt lat="44.27915" lon="4.67113">
        <ele>93.875214</ele>
        <time>2025-02-03T10:01:22.024Z</time>
      </trkpt>
      <trkpt lat="44.27907" lon="4.67108">
        <ele>93.931888</ele>
        <time>2025-02-03T10:01:24.018Z</time>
      </trkpt>
      <trkpt lat="44.27898" lon="4.67102">
        <ele>93.98967</ele>
        <time>2025-02-03T10:01:26.019Z</time>
      </trkpt>
      <trkpt lat="44.2789" lon="4.67096">
        <ele>94.044534</ele>
        <time>2025-02-03T10:01:28.035Z</time>
      </trkpt>
      <trkpt lat="44.27882" lon="4.6709">
        <ele>94.079712</ele>
        <time>2025-02-03T10:01:30.019Z</time>
      </trkpt>
      <trkpt lat="44.27874" lon="4.67085">
        <ele>94.075595</ele>
        <time>2025-02-03T10:01:32.013Z</time>
      </trkpt>
      <trkpt lat="44.27865" lon="4.67079">
        <ele>94.071341</ele>
        <time>2025-02-03T10:01:34.037Z</time>
      </trkpt>
      <trkpt lat="44.27857" lon="4.67073">
        <ele>94.06706</ele>
        <time>2025-02-03T10:01:36.029Z</time>
      </trkpt>
      <trkpt lat="44.27848" lon="4.67068">
        <ele>94.0628</ele>
        <time>2025-02-03T10:01:38.014Z</time>
      </trkpt>
      <trkpt lat="44.27839" lon="4.67063">
        <ele>94.058695</ele>
        <time>2025-02-03T10:01:40.035Z</time>
      </trkpt>
      <trkpt lat="44.27831" lon="4.67059">
        <ele>94.054501</ele>
        <time>2025-02-03T10:01:42.023Z</time>
      </trkpt>
      <trkpt lat="44.27822" lon="4.67054">
        <ele>94.050294</ele>
        <time>2025-02-03T10:01:44.034Z</time>
      </trkpt>
      <trkpt lat="44.27813" lon="4.6705">
        <ele>94.046164</ele>
        <time>2025-02-03T10:01:46.035Z</time>
      </trkpt>
      <trkpt lat="44.27805" lon="4.67046">
        <ele>94.041991</ele>
        <time>2025-02-03T10:01:48.045Z</time>
      </trkpt>
      <trkpt lat="44.27796" lon="4.67042">
        <ele>94.037899</ele>
        <time>2025-02-03T10:01:50.024Z</time>
      </trkpt>
      <trkpt lat="44.27787" lon="4.67038">
        <ele>94.033735</ele>
        <time>2025-02-03T10:01:52.014Z</time>
      </trkpt>
      <trkpt lat="44.27774" lon="4.67033">
        <ele>94.027602</ele>
        <time>2025-02-03T10:01:55.036Z</time>
      </trkpt>
      <trkpt lat="44.27765" lon="4.67029">
        <ele>94.023409</ele>
        <time>2025-02-03T10:01:57.030Z</time>
      </trkpt>
      <trkpt lat="44.27756" lon="4.67025">
        <ele>94.019247</ele>
        <time>2025-02-03T10:01:59.039Z</time>
      </trkpt>
      <trkpt lat="44.27747" lon="4.67021">
        <ele>94.01492</ele>
        <time>2025-02-03T10:02:01.017Z</time>
      </trkpt>
      <trkpt lat="44.27738" lon="4.67018">
        <ele>94.010689</ele>
        <time>2025-02-03T10:02:03.027Z</time>
      </trkpt>
      <trkpt lat="44.27729" lon="4.67013">
        <ele>94.006357</ele>
        <time>2025-02-03T10:02:05.023Z</time>
      </trkpt>
      <trkpt lat="44.2772" lon="4.67008">
        <ele>94.001844</ele>
        <time>2025-02-03T10:02:07.025Z</time>
      </trkpt>
      <trkpt lat="44.27711" lon="4.67001">
        <ele>93.972337</ele>
        <time>2025-02-03T10:02:09.016Z</time>
      </trkpt>
      <trkpt lat="44.27704" lon="4.66992">
        <ele>93.923755</ele>
        <time>2025-02-03T10:02:11.025Z</time>
      </trkpt>
      <trkpt lat="44.27696" lon="4.66982">
        <ele>93.876439</ele>
        <time>2025-02-03T10:02:13.020Z</time>
      </trkpt>
      <trkpt lat="44.2769" lon="4.66972">
        <ele>93.829784</ele>
        <time>2025-02-03T10:02:15.026Z</time>
      </trkpt>
      <trkpt lat="44.27683" lon="4.66962">
        <ele>93.782068</ele>
        <time>2025-02-03T10:02:17.044Z</time>
      </trkpt>
      <trkpt lat="44.27676" lon="4.66952">
        <ele>93.734928</ele>
        <time>2025-02-03T10:02:19.028Z</time>
      </trkpt>
      <trkpt lat="44.27669" lon="4.66942">
        <ele>93.6882</ele>
        <time>2025-02-03T10:02:21.022Z</time>
      </trkpt>
      <trkpt lat="44.27662" lon="4.66933">
        <ele>93.640529</ele>
        <time>2025-02-03T10:02:23.024Z</time>
      </trkpt>
      <trkpt lat="44.27655" lon="4.66922">
        <ele>93.592541</ele>
        <time>2025-02-03T10:02:25.025Z</time>
      </trkpt>
      <trkpt lat="44.27648" lon="4.66912">
        <ele>93.544414</ele>
        <time>2025-02-03T10:02:27.023Z</time>
      </trkpt>
      <trkpt lat="44.27641" lon="4.66901">
        <ele>93.495631</ele>
        <time>2025-02-03T10:02:29.017Z</time>
      </trkpt>
      <trkpt lat="44.27634" lon="4.66891">
        <ele>93.44758</ele>
        <time>2025-02-03T10:02:31.039Z</time>
      </trkpt>
      <trkpt lat="44.27627" lon="4.66881">
        <ele>93.398274</ele>
        <time>2025-02-03T10:02:33.036Z</time>
      </trkpt>
      <trkpt lat="44.27619" lon="4.66871">
        <ele>93.349786</ele>
        <time>2025-02-03T10:02:35.019Z</time>
      </trkpt>
      <trkpt lat="44.27612" lon="4.66861">
        <ele>93.301825</ele>
        <time>2025-02-03T10:02:37.011Z</time>
      </trkpt>
      <trkpt lat="44.27606" lon="4.66851">
        <ele>93.254769</ele>
        <time>2025-02-03T10:02:39.023Z</time>
      </trkpt>
      <trkpt lat="44.27598" lon="4.66841">
        <ele>93.20541</ele>
        <time>2025-02-03T10:02:41.025Z</time>
      </trkpt>
      <trkpt lat="44.27591" lon="4.66831">
        <ele>93.154602</ele>
        <time>2025-02-03T10:02:43.055Z</time>
      </trkpt>
      <trkpt lat="44.27583" lon="4.66821">
        <ele>93.077057</ele>
        <time>2025-02-03T10:02:45.038Z</time>
      </trkpt>
      <trkpt lat="44.27575" lon="4.66812">
        <ele>92.989723</ele>
        <time>2025-02-03T10:02:47.031Z</time>
      </trkpt>
      <trkpt lat="44.27567" lon="4.66803">
        <ele>92.901193</ele>
        <time>2025-02-03T10:02:49.021Z</time>
      </trkpt>
      <trkpt lat="44.27559" lon="4.66795">
        <ele>92.81491</ele>
        <time>2025-02-03T10:02:51.015Z</time>
      </trkpt>
      <trkpt lat="44.2755" lon="4.66786">
        <ele>92.728951</ele>
        <time>2025-02-03T10:02:53.028Z</time>
      </trkpt>
      <trkpt lat="44.27542" lon="4.66778">
        <ele>92.642663</ele>
        <time>2025-02-03T10:02:55.029Z</time>
      </trkpt>
      <trkpt lat="44.27534" lon="4.6677">
        <ele>92.55706</ele>
        <time>2025-02-03T10:02:57.031Z</time>
      </trkpt>
      <trkpt lat="44.27526" lon="4.66761">
        <ele>92.471812</ele>
        <time>2025-02-03T10:02:59.023Z</time>
      </trkpt>
      <trkpt lat="44.27518" lon="4.66753">
        <ele>92.38721</ele>
        <time>2025-02-03T10:03:01.020Z</time>
      </trkpt>
      <trkpt lat="44.2751" lon="4.66745">
        <ele>92.303352</ele>
        <time>2025-02-03T10:03:03.025Z</time>
      </trkpt>
      <trkpt lat="44.27502" lon="4.66737">
        <ele>92.221226</ele>
        <time>2025-02-03T10:03:05.033Z</time>
      </trkpt>
      <trkpt lat="44.27494" lon="4.66729">
        <ele>92.137598</ele>
        <time>2025-02-03T10:03:07.030Z</time>
      </trkpt>
      <trkpt lat="44.27486" lon="4.66721">
        <ele>92.055814</ele>
        <time>2025-02-03T10:03:09.025Z</time>
      </trkpt>
      <trkpt lat="44.27478" lon="4.66713">
        <ele>91.973513</ele>
        <time>2025-02-03T10:03:11.031Z</time>
      </trkpt>
      <trkpt lat="44.2747" lon="4.66705">
        <ele>91.891734</ele>
        <time>2025-02-03T10:03:13.020Z</time>
      </trkpt>
      <trkpt lat="44.27462" lon="4.66697">
        <ele>91.811328</ele>
        <time>2025-02-03T10:03:15.025Z</time>
      </trkpt>
      <trkpt lat="44.27454" lon="4.66689">
        <ele>91.726765</ele>
        <time>2025-02-03T10:03:17.030Z</time>
      </trkpt>
      <trkpt lat="44.27446" lon="4.66681">
        <ele>91.642098</ele>
        <time>2025-02-03T10:03:19.023Z</time>
      </trkpt>
      <trkpt lat="44.27439" lon="4.66673">
        <ele>91.633742</ele>
        <time>2025-02-03T10:03:21.043Z</time>
      </trkpt>
      <trkpt lat="44.2743" lon="4.66665">
        <ele>91.648791</ele>
        <time>2025-02-03T10:03:23.026Z</time>
      </trkpt>
      <trkpt lat="44.27422" lon="4.66659">
        <ele>91.663509</ele>
        <time>2025-02-03T10:03:25.043Z</time>
      </trkpt>
      <trkpt lat="44.27414" lon="4.66652">
        <ele>91.678016</ele>
        <time>2025-02-03T10:03:27.022Z</time>
      </trkpt>
      <trkpt lat="44.27405" lon="4.66647">
        <ele>91.692199</ele>
        <time>2025-02-03T10:03:29.023Z</time>
      </trkpt>
      <trkpt lat="44.27396" lon="4.66644">
        <ele>91.706171</ele>
        <time>2025-02-03T10:03:31.027Z</time>
      </trkpt>
      <trkpt lat="44.27387" lon="4.66641">
        <ele>91.720593</ele>
        <time>2025-02-03T10:03:33.041Z</time>
      </trkpt>
      <trkpt lat="44.27377" lon="4.66641">
        <ele>91.735267</ele>
        <time>2025-02-03T10:03:35.020Z</time>
      </trkpt>
      <trkpt lat="44.27367" lon="4.6664">
        <ele>91.750272</ele>
        <time>2025-02-03T10:03:37.046Z</time>
      </trkpt>
      <trkpt lat="44.27358" lon="4.6664">
        <ele>91.765393</ele>
        <time>2025-02-03T10:03:39.037Z</time>
      </trkpt>
      <trkpt lat="44.27348" lon="4.6664">
        <ele>91.780514</ele>
        <time>2025-02-03T10:03:41.023Z</time>
      </trkpt>
      <trkpt lat="44.27338" lon="4.66639">
        <ele>91.795641</ele>
        <time>2025-02-03T10:03:43.037Z</time>
      </trkpt>
      <trkpt lat="44.27328" lon="4.66639">
        <ele>91.810455</ele>
        <time>2025-02-03T10:03:45.021Z</time>
      </trkpt>
      <trkpt lat="44.27318" lon="4.6664">
        <ele>91.825578</ele>
        <time>2025-02-03T10:03:47.020Z</time>
      </trkpt>
      <trkpt lat="44.27308" lon="4.66641">
        <ele>91.84124</ele>
        <time>2025-02-03T10:03:49.026Z</time>
      </trkpt>
      <trkpt lat="44.27298" lon="4.66643">
        <ele>91.85632</ele>
        <time>2025-02-03T10:03:51.027Z</time>
      </trkpt>
      <trkpt lat="44.27289" lon="4.66646">
        <ele>91.87102</ele>
        <time>2025-02-03T10:03:53.031Z</time>
      </trkpt>
      <trkpt lat="44.27279" lon="4.66649">
        <ele>91.88655</ele>
        <time>2025-02-03T10:03:55.028Z</time>
      </trkpt>
      <trkpt lat="44.27269" lon="4.66654">
        <ele>91.899057</ele>
        <time>2025-02-03T10:03:57.041Z</time>
      </trkpt>
      <trkpt lat="44.27259" lon="4.66659">
        <ele>91.904956</ele>
        <time>2025-02-03T10:03:59.009Z</time>
      </trkpt>
      <trkpt lat="44.2725" lon="4.66664">
        <ele>91.910868</ele>
        <time>2025-02-03T10:04:01.032Z</time>
      </trkpt>
      <trkpt lat="44.2724" lon="4.66669">
        <ele>91.916983</ele>
        <time>2025-02-03T10:04:03.030Z</time>
      </trkpt>
      <trkpt lat="44.2723" lon="4.66673">
        <ele>91.922978</ele>
        <time>2025-02-03T10:04:05.017Z</time>
      </trkpt>
      <trkpt lat="44.27219" lon="4.66674">
        <ele>91.929055</ele>
        <time>2025-02-03T10:04:07.016Z</time>
      </trkpt>
      <trkpt lat="44.27208" lon="4.66674">
        <ele>91.935408</ele>
        <time>2025-02-03T10:04:09.003Z</time>
      </trkpt>
      <trkpt lat="44.27198" lon="4.66671">
        <ele>91.941485</ele>
        <time>2025-02-03T10:04:11.008Z</time>
      </trkpt>
      <trkpt lat="44.27187" lon="4.66669">
        <ele>91.947478</ele>
        <time>2025-02-03T10:04:13.027Z</time>
      </trkpt>
      <trkpt lat="44.27177" lon="4.66666">
        <ele>91.953734</ele>
        <time>2025-02-03T10:04:15.029Z</time>
      </trkpt>
      <trkpt lat="44.27165" lon="4.66662">
        <ele>91.960241</ele>
        <time>2025-02-03T10:04:17.035Z</time>
      </trkpt>
      <trkpt lat="44.27155" lon="4.66659">
        <ele>91.966401</ele>
        <time>2025-02-03T10:04:19.023Z</time>
      </trkpt>
      <trkpt lat="44.27144" lon="4.66656">
        <ele>91.972762</ele>
        <time>2025-02-03T10:04:21.023Z</time>
      </trkpt>
      <trkpt lat="44.27133" lon="4.66653">
        <ele>91.979002</ele>
        <time>2025-02-03T10:04:23.031Z</time>
      </trkpt>
      <trkpt lat="44.27123" lon="4.6665">
        <ele>91.98525</ele>
        <time>2025-02-03T10:04:25.022Z</time>
      </trkpt>
      <trkpt lat="44.27112" lon="4.66647">
        <ele>91.991378</ele>
        <time>2025-02-03T10:04:27.017Z</time>
      </trkpt>
      <trkpt lat="44.27102" lon="4.66645">
        <ele>91.997398</ele>
        <time>2025-02-03T10:04:29.022Z</time>
      </trkpt>
      <trkpt lat="44.27091" lon="4.66642">
        <ele>92.009691</ele>
        <time>2025-02-03T10:04:31.031Z</time>
      </trkpt>
      <trkpt lat="44.2708" lon="4.66638">
        <ele>92.025822</ele>
        <time>2025-02-03T10:04:33.027Z</time>
      </trkpt>
      <trkpt lat="44.27069" lon="4.66636">
        <ele>92.042495</ele>
        <time>2025-02-03T10:04:35.028Z</time>
      </trkpt>
      <trkpt lat="44.27059" lon="4.66634">
        <ele>92.058707</ele>
        <time>2025-02-03T10:04:37.042Z</time>
      </trkpt>
      <trkpt lat="44.27048" lon="4.66637">
        <ele>92.075144</ele>
        <time>2025-02-03T10:04:39.020Z</time>
      </trkpt>
      <trkpt lat="44.27038" lon="4.66643">
        <ele>92.091859</ele>
        <time>2025-02-03T10:04:41.021Z</time>
      </trkpt>
      <trkpt lat="44.27029" lon="4.66653">
        <ele>92.108881</ele>
        <time>2025-02-03T10:04:43.017Z</time>
      </trkpt>
      <trkpt lat="44.2702" lon="4.66663">
        <ele>92.126219</ele>
        <time>2025-02-03T10:04:45.023Z</time>
      </trkpt>
      <trkpt lat="44.27009" lon="4.66666">
        <ele>92.142961</ele>
        <time>2025-02-03T10:04:47.011Z</time>
      </trkpt>
      <trkpt lat="44.26999" lon="4.66663">
        <ele>92.158651</ele>
        <time>2025-02-03T10:04:49.011Z</time>
      </trkpt>
      <trkpt lat="44.26987" lon="4.66655">
        <ele>92.177414</ele>
        <time>2025-02-03T10:04:52.025Z</time>
      </trkpt>
      <trkpt lat="44.26978" lon="4.66648">
        <ele>92.194093</ele>
        <time>2025-02-03T10:04:55.041Z</time>
      </trkpt>
      <trkpt lat="44.26969" lon="4.6664">
        <ele>92.209315</ele>
        <time>2025-02-03T10:04:58.028Z</time>
      </trkpt>
      <trkpt lat="44.26962" lon="4.66629">
        <ele>92.224937</ele>
        <time>2025-02-03T10:05:01.045Z</time>
      </trkpt>
      <trkpt lat="44.26953" lon="4.66617">
        <ele>92.244274</ele>
        <time>2025-02-03T10:05:04.013Z</time>
      </trkpt>
      <trkpt lat="44.26946" lon="4.66606">
        <ele>92.259511</ele>
        <time>2025-02-03T10:05:06.024Z</time>
      </trkpt>
      <trkpt lat="44.26939" lon="4.66594">
        <ele>92.223987</ele>
        <time>2025-02-03T10:05:08.014Z</time>
      </trkpt>
      <trkpt lat="44.2693" lon="4.66581">
        <ele>92.089093</ele>
        <time>2025-02-03T10:05:10.026Z</time>
      </trkpt>
      <trkpt lat="44.26921" lon="4.66568">
        <ele>91.948432</ele>
        <time>2025-02-03T10:05:12.022Z</time>
      </trkpt>
      <trkpt lat="44.26913" lon="4.66556">
        <ele>91.811674</ele>
        <time>2025-02-03T10:05:14.016Z</time>
      </trkpt>
      <trkpt lat="44.26904" lon="4.66543">
        <ele>91.681293</ele>
        <time>2025-02-03T10:05:16.017Z</time>
      </trkpt>
      <trkpt lat="44.26896" lon="4.66532">
        <ele>91.552036</ele>
        <time>2025-02-03T10:05:18.034Z</time>
      </trkpt>
      <trkpt lat="44.26887" lon="4.66522">
        <ele>91.429241</ele>
        <time>2025-02-03T10:05:20.031Z</time>
      </trkpt>
      <trkpt lat="44.26878" lon="4.66513">
        <ele>91.309316</ele>
        <time>2025-02-03T10:05:22.017Z</time>
      </trkpt>
      <trkpt lat="44.26868" lon="4.66505">
        <ele>91.190565</ele>
        <time>2025-02-03T10:05:24.020Z</time>
      </trkpt>
      <trkpt lat="44.26859" lon="4.66498">
        <ele>91.071305</ele>
        <time>2025-02-03T10:05:26.020Z</time>
      </trkpt>
      <trkpt lat="44.26848" lon="4.66492">
        <ele>90.950089</ele>
        <time>2025-02-03T10:05:28.046Z</time>
      </trkpt>
      <trkpt lat="44.26838" lon="4.66486">
        <ele>90.831547</ele>
        <time>2025-02-03T10:05:30.037Z</time>
      </trkpt>
      <trkpt lat="44.26829" lon="4.6648">
        <ele>90.715967</ele>
        <time>2025-02-03T10:05:32.048Z</time>
      </trkpt>
      <trkpt lat="44.26819" lon="4.66474">
        <ele>90.600815</ele>
        <time>2025-02-03T10:05:34.025Z</time>
      </trkpt>
      <trkpt lat="44.26809" lon="4.66468">
        <ele>90.484581</ele>
        <time>2025-02-03T10:05:36.025Z</time>
      </trkpt>
      <trkpt lat="44.268" lon="4.66462">
        <ele>90.375551</ele>
        <time>2025-02-03T10:05:38.016Z</time>
      </trkpt>
      <trkpt lat="44.26791" lon="4.66455">
        <ele>90.285015</ele>
        <time>2025-02-03T10:05:40.024Z</time>
      </trkpt>
      <trkpt lat="44.26782" lon="4.66449">
        <ele>90.208132</ele>
        <time>2025-02-03T10:05:42.021Z</time>
      </trkpt>
      <trkpt lat="44.26774" lon="4.66443">
        <ele>90.135843</ele>
        <time>2025-02-03T10:05:44.047Z</time>
      </trkpt>
      <trkpt lat="44.26766" lon="4.66435">
        <ele>90.063836</ele>
        <time>2025-02-03T10:05:45.996Z</time>
      </trkpt>
      <trkpt lat="44.26757" lon="4.66428">
        <ele>89.989722</ele>
        <time>2025-02-03T10:05:48.018Z</time>
      </trkpt>
      <trkpt lat="44.26749" lon="4.66422">
        <ele>89.917181</ele>
        <time>2025-02-03T10:05:50.025Z</time>
      </trkpt>
      <trkpt lat="44.26741" lon="4.66415">
        <ele>89.845968</ele>
        <time>2025-02-03T10:05:52.021Z</time>
      </trkpt>
      <trkpt lat="44.26731" lon="4.66411">
        <ele>89.774211</ele>
        <time>2025-02-03T10:05:54.026Z</time>
      </trkpt>
      <trkpt lat="44.26722" lon="4.66408">
        <ele>89.697846</ele>
        <time>2025-02-03T10:05:56.015Z</time>
      </trkpt>
      <trkpt lat="44.26712" lon="4.66405">
        <ele>89.622586</ele>
        <time>2025-02-03T10:05:58.020Z</time>
      </trkpt>
      <trkpt lat="44.26702" lon="4.66403">
        <ele>89.549161</ele>
        <time>2025-02-03T10:06:00.010Z</time>
      </trkpt>
      <trkpt lat="44.26693" lon="4.66401">
        <ele>89.478056</ele>
        <time>2025-02-03T10:06:02.013Z</time>
      </trkpt>
      <trkpt lat="44.26684" lon="4.664">
        <ele>89.407916</ele>
        <time>2025-02-03T10:06:04.026Z</time>
      </trkpt>
      <trkpt lat="44.26674" lon="4.664">
        <ele>89.336956</ele>
        <time>2025-02-03T10:06:06.025Z</time>
      </trkpt>
      <trkpt lat="44.26665" lon="4.66401">
        <ele>89.265635</ele>
        <time>2025-02-03T10:06:08.022Z</time>
      </trkpt>
      <trkpt lat="44.26655" lon="4.66403">
        <ele>89.194112</ele>
        <time>2025-02-03T10:06:09.997Z</time>
      </trkpt>
      <trkpt lat="44.26646" lon="4.66405">
        <ele>89.119669</ele>
        <time>2025-02-03T10:06:12.024Z</time>
      </trkpt>
      <trkpt lat="44.26636" lon="4.66406">
        <ele>89.046307</ele>
        <time>2025-02-03T10:06:14.021Z</time>
      </trkpt>
      <trkpt lat="44.26626" lon="4.66407">
        <ele>88.972193</ele>
        <time>2025-02-03T10:06:16.033Z</time>
      </trkpt>
      <trkpt lat="44.26616" lon="4.66408">
        <ele>89.012869</ele>
        <time>2025-02-03T10:06:18.031Z</time>
      </trkpt>
      <trkpt lat="44.26605" lon="4.66409">
        <ele>89.066999</ele>
        <time>2025-02-03T10:06:20.051Z</time>
      </trkpt>
      <trkpt lat="44.26595" lon="4.6641">
        <ele>89.121065</ele>
        <time>2025-02-03T10:06:22.034Z</time>
      </trkpt>
      <trkpt lat="44.26584" lon="4.66411">
        <ele>89.174985</ele>
        <time>2025-02-03T10:06:24.018Z</time>
      </trkpt>
      <trkpt lat="44.26574" lon="4.66412">
        <ele>89.228009</ele>
        <time>2025-02-03T10:06:26.030Z</time>
      </trkpt>
      <trkpt lat="44.26563" lon="4.66413">
        <ele>89.282612</ele>
        <time>2025-02-03T10:06:28.042Z</time>
      </trkpt>
      <trkpt lat="44.26553" lon="4.66414">
        <ele>89.335636</ele>
        <time>2025-02-03T10:06:30.029Z</time>
      </trkpt>
      <trkpt lat="44.26542" lon="4.66415">
        <ele>89.38854</ele>
        <time>2025-02-03T10:06:32.027Z</time>
      </trkpt>
      <trkpt lat="44.26532" lon="4.66416">
        <ele>89.440458</ele>
        <time>2025-02-03T10:06:34.033Z</time>
      </trkpt>
      <trkpt lat="44.26522" lon="4.66416">
        <ele>89.494447</ele>
        <time>2025-02-03T10:06:36.019Z</time>
      </trkpt>
      <trkpt lat="44.26511" lon="4.66418">
        <ele>89.547471</ele>
        <time>2025-02-03T10:06:38.025Z</time>
      </trkpt>
      <trkpt lat="44.26501" lon="4.66418">
        <ele>89.600931</ele>
        <time>2025-02-03T10:06:40.021Z</time>
      </trkpt>
      <trkpt lat="44.2649" lon="4.66419">
        <ele>89.654332</ele>
        <time>2025-02-03T10:06:42.029Z</time>
      </trkpt>
      <trkpt lat="44.2648" lon="4.66418">
        <ele>89.708241</ele>
        <time>2025-02-03T10:06:44.025Z</time>
      </trkpt>
      <trkpt lat="44.26469" lon="4.66419">
        <ele>89.761118</ele>
        <time>2025-02-03T10:06:46.037Z</time>
      </trkpt>
      <trkpt lat="44.26459" lon="4.66419">
        <ele>89.8145</ele>
        <time>2025-02-03T10:06:48.024Z</time>
      </trkpt>
      <trkpt lat="44.26449" lon="4.66419">
        <ele>89.865859</ele>
        <time>2025-02-03T10:06:50.020Z</time>
      </trkpt>
      <trkpt lat="44.26439" lon="4.6642">
        <ele>89.880283</ele>
        <time>2025-02-03T10:06:52.024Z</time>
      </trkpt>
      <trkpt lat="44.26429" lon="4.6642">
        <ele>89.880462</ele>
        <time>2025-02-03T10:06:54.019Z</time>
      </trkpt>
      <trkpt lat="44.26418" lon="4.6642">
        <ele>89.880645</ele>
        <time>2025-02-03T10:06:56.018Z</time>
      </trkpt>
      <trkpt lat="44.26408" lon="4.66422">
        <ele>89.880829</ele>
        <time>2025-02-03T10:06:58.024Z</time>
      </trkpt>
      <trkpt lat="44.26398" lon="4.66424">
        <ele>89.881009</ele>
        <time>2025-02-03T10:07:00.043Z</time>
      </trkpt>
      <trkpt lat="44.26388" lon="4.66427">
        <ele>89.881196</ele>
        <time>2025-02-03T10:07:02.020Z</time>
      </trkpt>
      <trkpt lat="44.26378" lon="4.6643">
        <ele>89.881385</ele>
        <time>2025-02-03T10:07:04.015Z</time>
      </trkpt>
      <trkpt lat="44.26368" lon="4.66435">
        <ele>89.881574</ele>
        <time>2025-02-03T10:07:06.020Z</time>
      </trkpt>
      <trkpt lat="44.26358" lon="4.66438">
        <ele>89.881746</ele>
        <time>2025-02-03T10:07:08.017Z</time>
      </trkpt>
      <trkpt lat="44.26349" lon="4.66441">
        <ele>89.881928</ele>
        <time>2025-02-03T10:07:10.024Z</time>
      </trkpt>
      <trkpt lat="44.26339" lon="4.66436">
        <ele>89.882116</ele>
        <time>2025-02-03T10:07:12.016Z</time>
      </trkpt>
      <trkpt lat="44.26329" lon="4.6643">
        <ele>89.882304</ele>
        <time>2025-02-03T10:07:14.024Z</time>
      </trkpt>
      <trkpt lat="44.26319" lon="4.66424">
        <ele>89.882497</ele>
        <time>2025-02-03T10:07:16.019Z</time>
      </trkpt>
      <trkpt lat="44.2631" lon="4.66418">
        <ele>89.882688</ele>
        <time>2025-02-03T10:07:18.019Z</time>
      </trkpt>
      <trkpt lat="44.263" lon="4.66412">
        <ele>89.882875</ele>
        <time>2025-02-03T10:07:20.021Z</time>
      </trkpt>
      <trkpt lat="44.2629" lon="4.66407">
        <ele>89.88306</ele>
        <time>2025-02-03T10:07:22.019Z</time>
      </trkpt>
      <trkpt lat="44.26281" lon="4.66401">
        <ele>89.88325</ele>
        <time>2025-02-03T10:07:24.019Z</time>
      </trkpt>
      <trkpt lat="44.26271" lon="4.66394">
        <ele>89.890045</ele>
        <time>2025-02-03T10:07:26.043Z</time>
      </trkpt>
      <trkpt lat="44.26261" lon="4.66388">
        <ele>89.909603</ele>
        <time>2025-02-03T10:07:28.017Z</time>
      </trkpt>
      <trkpt lat="44.26252" lon="4.66381">
        <ele>89.928907</ele>
        <time>2025-02-03T10:07:30.037Z</time>
      </trkpt>
      <trkpt lat="44.26243" lon="4.66373">
        <ele>89.947458</ele>
        <time>2025-02-03T10:07:32.024Z</time>
      </trkpt>
      <trkpt lat="44.26235" lon="4.66364">
        <ele>89.966533</ele>
        <time>2025-02-03T10:07:34.014Z</time>
      </trkpt>
      <trkpt lat="44.26227" lon="4.66355">
        <ele>89.985438</ele>
        <time>2025-02-03T10:07:36.022Z</time>
      </trkpt>
      <trkpt lat="44.26219" lon="4.66345">
        <ele>90.004181</ele>
        <time>2025-02-03T10:07:38.043Z</time>
      </trkpt>
      <trkpt lat="44.26212" lon="4.66335">
        <ele>90.022269</ele>
        <time>2025-02-03T10:07:40.030Z</time>
      </trkpt>
      <trkpt lat="44.26204" lon="4.66325">
        <ele>90.040795</ele>
        <time>2025-02-03T10:07:42.016Z</time>
      </trkpt>
      <trkpt lat="44.26198" lon="4.66315">
        <ele>90.05804</ele>
        <time>2025-02-03T10:07:44.009Z</time>
      </trkpt>
      <trkpt lat="44.26192" lon="4.66305">
        <ele>90.074685</ele>
        <time>2025-02-03T10:07:46.029Z</time>
      </trkpt>
      <trkpt lat="44.26185" lon="4.66296">
        <ele>90.091151</ele>
        <time>2025-02-03T10:07:48.018Z</time>
      </trkpt>
      <trkpt lat="44.26174" lon="4.66286">
        <ele>90.114895</ele>
        <time>2025-02-03T10:07:51.027Z</time>
      </trkpt>
      <trkpt lat="44.26162" lon="4.6628">
        <ele>90.138808</ele>
        <time>2025-02-03T10:07:54.022Z</time>
      </trkpt>
      <trkpt lat="44.26149" lon="4.66278">
        <ele>90.161669</ele>
        <time>2025-02-03T10:07:57.024Z</time>
      </trkpt>
      <trkpt lat="44.26138" lon="4.66278">
        <ele>90.1824</ele>
        <time>2025-02-03T10:08:00.020Z</time>
      </trkpt>
      <trkpt lat="44.26129" lon="4.66271">
        <ele>90.200305</ele>
        <time>2025-02-03T10:08:03.012Z</time>
      </trkpt>
      <trkpt lat="44.26126" lon="4.66256">
        <ele>90.216102</ele>
        <time>2025-02-03T10:08:06.015Z</time>
      </trkpt>
      <trkpt lat="44.26122" lon="4.66241">
        <ele>90.229705</ele>
        <time>2025-02-03T10:08:09.026Z</time>
      </trkpt>
      <trkpt lat="44.26119" lon="4.66224">
        <ele>90.244086</ele>
        <time>2025-02-03T10:08:12.039Z</time>
      </trkpt>
      <trkpt lat="44.26118" lon="4.66206">
        <ele>90.258889</ele>
        <time>2025-02-03T10:08:15.036Z</time>
      </trkpt>
      <trkpt lat="44.26115" lon="4.66189">
        <ele>90.273404</ele>
        <time>2025-02-03T10:08:18.042Z</time>
      </trkpt>
      <trkpt lat="44.26111" lon="4.66172">
        <ele>90.288198</ele>
        <time>2025-02-03T10:08:21.008Z</time>
      </trkpt>
      <trkpt lat="44.26107" lon="4.66156">
        <ele>90.30278</ele>
        <time>2025-02-03T10:08:24.034Z</time>
      </trkpt>
      <trkpt lat="44.26104" lon="4.6614">
        <ele>90.316639</ele>
        <time>2025-02-03T10:08:26.997Z</time>
      </trkpt>
      <trkpt lat="44.26101" lon="4.66124">
        <ele>90.330626</ele>
        <time>2025-02-03T10:08:30.026Z</time>
      </trkpt>
      <trkpt lat="44.26098" lon="4.66109">
        <ele>90.34322</ele>
        <time>2025-02-03T10:08:33.026Z</time>
      </trkpt>
      <trkpt lat="44.26096" lon="4.66096">
        <ele>90.353974</ele>
        <time>2025-02-03T10:08:36.014Z</time>
      </trkpt>
      <trkpt lat="44.26098" lon="4.66082">
        <ele>90.366109</ele>
        <time>2025-02-03T10:08:41.015Z</time>
      </trkpt>
      <trkpt lat="44.26102" lon="4.66069">
        <ele>90.377682</ele>
        <time>2025-02-03T10:08:44.037Z</time>
      </trkpt>
      <trkpt lat="44.26103" lon="4.66056">
        <ele>90.388805</ele>
        <time>2025-02-03T10:08:45.992Z</time>
      </trkpt>
      <trkpt lat="44.26103" lon="4.66043">
        <ele>90.399914</ele>
        <time>2025-02-03T10:08:48.023Z</time>
      </trkpt>
      <trkpt lat="44.26103" lon="4.6603">
        <ele>90.410954</ele>
        <time>2025-02-03T10:08:50.018Z</time>
      </trkpt>
      <trkpt lat="44.26104" lon="4.66011">
        <ele>90.389926</ele>
        <time>2025-02-03T10:08:53.021Z</time>
      </trkpt>
      <trkpt lat="44.26103" lon="4.65995">
        <ele>90.351837</ele>
        <time>2025-02-03T10:08:56.034Z</time>
      </trkpt>
      <trkpt lat="44.26104" lon="4.65982">
        <ele>90.319394</ele>
        <time>2025-02-03T10:08:59.031Z</time>
      </trkpt>
      <trkpt lat="44.26104" lon="4.65968">
        <ele>90.283815</ele>
        <time>2025-02-03T10:09:03.043Z</time>
      </trkpt>
      <trkpt lat="44.26107" lon="4.65952">
        <ele>90.243446</ele>
        <time>2025-02-03T10:09:08.003Z</time>
      </trkpt>
      <trkpt lat="44.26105" lon="4.65937">
        <ele>90.204448</ele>
        <time>2025-02-03T10:09:11.023Z</time>
      </trkpt>
      <trkpt lat="44.26095" lon="4.65929">
        <ele>90.165535</ele>
        <time>2025-02-03T10:09:13.008Z</time>
      </trkpt>
      <trkpt lat="44.26085" lon="4.65931">
        <ele>90.130081</ele>
        <time>2025-02-03T10:09:15.024Z</time>
      </trkpt>
      <trkpt lat="44.26077" lon="4.6594">
        <ele>90.097178</ele>
        <time>2025-02-03T10:09:17.018Z</time>
      </trkpt>
      <trkpt lat="44.26068" lon="4.65953">
        <ele>90.051379</ele>
        <time>2025-02-03T10:09:20.024Z</time>
      </trkpt>
      <trkpt lat="44.26056" lon="4.65963">
        <ele>90.002786</ele>
        <time>2025-02-03T10:09:23.025Z</time>
      </trkpt>
      <trkpt lat="44.26043" lon="4.65969">
        <ele>89.957856</ele>
        <time>2025-02-03T10:09:26.029Z</time>
      </trkpt>
      <trkpt lat="44.26032" lon="4.65973">
        <ele>89.91594</ele>
        <time>2025-02-03T10:09:29.025Z</time>
      </trkpt>
      <trkpt lat="44.26019" lon="4.65975">
        <ele>89.872371</ele>
        <time>2025-02-03T10:09:32.027Z</time>
      </trkpt>
      <trkpt lat="44.26007" lon="4.65977">
        <ele>89.82864</ele>
        <time>2025-02-03T10:09:35.027Z</time>
      </trkpt>
      <trkpt lat="44.25995" lon="4.65979">
        <ele>89.774686</ele>
        <time>2025-02-03T10:09:38.031Z</time>
      </trkpt>
      <trkpt lat="44.25983" lon="4.65981">
        <ele>89.681439</ele>
        <time>2025-02-03T10:09:41.022Z</time>
      </trkpt>
      <trkpt lat="44.25971" lon="4.65985">
        <ele>89.593796</ele>
        <time>2025-02-03T10:09:44.021Z</time>
      </trkpt>
      <trkpt lat="44.25961" lon="4.65987">
        <ele>89.516367</ele>
        <time>2025-02-03T10:09:47.024Z</time>
      </trkpt>
      <trkpt lat="44.2595" lon="4.65984">
        <ele>89.431878</ele>
        <time>2025-02-03T10:09:50.039Z</time>
      </trkpt>
      <trkpt lat="44.25938" lon="4.65979">
        <ele>89.333022</ele>
        <time>2025-02-03T10:09:53.003Z</time>
      </trkpt>
      <trkpt lat="44.25929" lon="4.65967">
        <ele>89.238109</ele>
        <time>2025-02-03T10:09:56.016Z</time>
      </trkpt>
      <trkpt lat="44.25919" lon="4.65958">
        <ele>89.149573</ele>
        <time>2025-02-03T10:09:59.018Z</time>
      </trkpt>
      <trkpt lat="44.25909" lon="4.65954">
        <ele>89.065356</ele>
        <time>2025-02-03T10:10:02.017Z</time>
      </trkpt>
      <trkpt lat="44.25897" lon="4.65957">
        <ele>88.975879</ele>
        <time>2025-02-03T10:10:05.022Z</time>
      </trkpt>
      <trkpt lat="44.25886" lon="4.6596">
        <ele>88.888662</ele>
        <time>2025-02-03T10:10:08.019Z</time>
      </trkpt>
      <trkpt lat="44.25873" lon="4.65962">
        <ele>88.785834</ele>
        <time>2025-02-03T10:10:11.017Z</time>
      </trkpt>
      <trkpt lat="44.2586" lon="4.65964">
        <ele>88.684172</ele>
        <time>2025-02-03T10:10:14.037Z</time>
      </trkpt>
      <trkpt lat="44.25847" lon="4.65964">
        <ele>88.583863</ele>
        <time>2025-02-03T10:10:17.029Z</time>
      </trkpt>
      <trkpt lat="44.25834" lon="4.65967">
        <ele>88.486567</ele>
        <time>2025-02-03T10:10:20.025Z</time>
      </trkpt>
      <trkpt lat="44.25821" lon="4.65969">
        <ele>88.413614</ele>
        <time>2025-02-03T10:10:23.032Z</time>
      </trkpt>
      <trkpt lat="44.2581" lon="4.65976">
        <ele>88.394326</ele>
        <time>2025-02-03T10:10:26.015Z</time>
      </trkpt>
      <trkpt lat="44.25799" lon="4.65986">
        <ele>88.373341</ele>
        <time>2025-02-03T10:10:29.018Z</time>
      </trkpt>
      <trkpt lat="44.25791" lon="4.65993">
        <ele>88.35914</ele>
        <time>2025-02-03T10:10:31.023Z</time>
      </trkpt>
      <trkpt lat="44.25784" lon="4.66001">
        <ele>88.344976</ele>
        <time>2025-02-03T10:10:33.027Z</time>
      </trkpt>
      <trkpt lat="44.25777" lon="4.6601">
        <ele>88.33009</ele>
        <time>2025-02-03T10:10:35.018Z</time>
      </trkpt>
      <trkpt lat="44.25771" lon="4.66019">
        <ele>88.31565</ele>
        <time>2025-02-03T10:10:37.004Z</time>
      </trkpt>
      <trkpt lat="44.25764" lon="4.66028">
        <ele>88.301394</ele>
        <time>2025-02-03T10:10:39.021Z</time>
      </trkpt>
      <trkpt lat="44.25754" lon="4.66041">
        <ele>88.279771</ele>
        <time>2025-02-03T10:10:42.019Z</time>
      </trkpt>
      <trkpt lat="44.25746" lon="4.66048">
        <ele>88.265507</ele>
        <time>2025-02-03T10:10:44.010Z</time>
      </trkpt>
      <trkpt lat="44.25738" lon="4.66054">
        <ele>88.250987</ele>
        <time>2025-02-03T10:10:46.019Z</time>
      </trkpt>
      <trkpt lat="44.2573" lon="4.66061">
        <ele>88.236765</ele>
        <time>2025-02-03T10:10:48.019Z</time>
      </trkpt>
      <trkpt lat="44.25722" lon="4.66067">
        <ele>88.221807</ele>
        <time>2025-02-03T10:10:50.002Z</time>
      </trkpt>
      <trkpt lat="44.25713" lon="4.66073">
        <ele>88.206813</ele>
        <time>2025-02-03T10:10:52.015Z</time>
      </trkpt>
      <trkpt lat="44.25704" lon="4.66076">
        <ele>88.191786</ele>
        <time>2025-02-03T10:10:54.017Z</time>
      </trkpt>
      <trkpt lat="44.25695" lon="4.6608">
        <ele>88.176967</ele>
        <time>2025-02-03T10:10:56.014Z</time>
      </trkpt>
      <trkpt lat="44.25681" lon="4.66084">
        <ele>88.156045</ele>
        <time>2025-02-03T10:10:59.019Z</time>
      </trkpt>
      <trkpt lat="44.25672" lon="4.66087">
        <ele>88.141575</ele>
        <time>2025-02-03T10:11:01.022Z</time>
      </trkpt>
      <trkpt lat="44.25663" lon="4.66089">
        <ele>88.249859</ele>
        <time>2025-02-03T10:11:03.022Z</time>
      </trkpt>
      <trkpt lat="44.25654" lon="4.66092">
        <ele>88.380059</ele>
        <time>2025-02-03T10:11:05.026Z</time>
      </trkpt>
      <trkpt lat="44.25645" lon="4.66094">
        <ele>88.506347</ele>
        <time>2025-02-03T10:11:07.029Z</time>
      </trkpt>
      <trkpt lat="44.25636" lon="4.66097">
        <ele>88.639492</ele>
        <time>2025-02-03T10:11:09.052Z</time>
      </trkpt>
      <trkpt lat="44.25627" lon="4.66099">
        <ele>88.77045</ele>
        <time>2025-02-03T10:11:11.038Z</time>
      </trkpt>
      <trkpt lat="44.25617" lon="4.66101">
        <ele>88.899757</ele>
        <time>2025-02-03T10:11:13.024Z</time>
      </trkpt>
      <trkpt lat="44.25608" lon="4.66101">
        <ele>89.033907</ele>
        <time>2025-02-03T10:11:15.016Z</time>
      </trkpt>
      <trkpt lat="44.25599" lon="4.66098">
        <ele>89.162319</ele>
        <time>2025-02-03T10:11:17.010Z</time>
      </trkpt>
      <trkpt lat="44.2559" lon="4.66094">
        <ele>89.288302</ele>
        <time>2025-02-03T10:11:19.031Z</time>
      </trkpt>
      <trkpt lat="44.25578" lon="4.66086">
        <ele>89.471195</ele>
        <time>2025-02-03T10:11:22.019Z</time>
      </trkpt>
      <trkpt lat="44.25567" lon="4.6608">
        <ele>89.646596</ele>
        <time>2025-02-03T10:11:25.033Z</time>
      </trkpt>
      <trkpt lat="44.25556" lon="4.66077">
        <ele>89.799898</ele>
        <time>2025-02-03T10:11:28.014Z</time>
      </trkpt>
      <trkpt lat="44.2555" lon="4.66091">
        <ele>89.959499</ele>
        <time>2025-02-03T10:11:31.012Z</time>
      </trkpt>
      <trkpt lat="44.25553" lon="4.66108">
        <ele>90.139577</ele>
        <time>2025-02-03T10:11:34.036Z</time>
      </trkpt>
      <trkpt lat="44.25556" lon="4.66126">
        <ele>90.318725</ele>
        <time>2025-02-03T10:11:37.071Z</time>
      </trkpt>
      <trkpt lat="44.25559" lon="4.66144">
        <ele>90.504327</ele>
        <time>2025-02-03T10:11:40.009Z</time>
      </trkpt>
      <trkpt lat="44.25562" lon="4.66157">
        <ele>90.645194</ele>
        <time>2025-02-03T10:11:42.007Z</time>
      </trkpt>
      <trkpt lat="44.25564" lon="4.66172">
        <ele>90.596439</ele>
        <time>2025-02-03T10:11:44.016Z</time>
      </trkpt>
      <trkpt lat="44.25567" lon="4.66189">
        <ele>90.530703</ele>
        <time>2025-02-03T10:11:46.052Z</time>
      </trkpt>
      <trkpt lat="44.25569" lon="4.66205">
        <ele>90.465725</ele>
        <time>2025-02-03T10:11:48.021Z</time>
      </trkpt>
      <trkpt lat="44.25571" lon="4.66219">
        <ele>90.41181</ele>
        <time>2025-02-03T10:11:51.042Z</time>
      </trkpt>
      <trkpt lat="44.25575" lon="4.66235">
        <ele>90.346118</ele>
        <time>2025-02-03T10:11:56.031Z</time>
      </trkpt>
      <trkpt lat="44.25577" lon="4.66254">
        <ele>90.273069</ele>
        <time>2025-02-03T10:11:59.044Z</time>
      </trkpt>
      <trkpt lat="44.25578" lon="4.66269">
        <ele>90.213148</ele>
        <time>2025-02-03T10:12:01.036Z</time>
      </trkpt>
      <trkpt lat="44.25579" lon="4.66286">
        <ele>90.148492</ele>
        <time>2025-02-03T10:12:03.022Z</time>
      </trkpt>
      <trkpt lat="44.25581" lon="4.66301">
        <ele>90.087934</ele>
        <time>2025-02-03T10:12:05.007Z</time>
      </trkpt>
      <trkpt lat="44.25582" lon="4.66316">
        <ele>90.030842</ele>
        <time>2025-02-03T10:12:07.022Z</time>
      </trkpt>
      <trkpt lat="44.25583" lon="4.6633">
        <ele>89.976319</ele>
        <time>2025-02-03T10:12:09.063Z</time>
      </trkpt>
      <trkpt lat="44.25584" lon="4.66343">
        <ele>89.926091</ele>
        <time>2025-02-03T10:12:11.013Z</time>
      </trkpt>
      <trkpt lat="44.25585" lon="4.66355">
        <ele>89.876759</ele>
        <time>2025-02-03T10:12:13.017Z</time>
      </trkpt>
      <trkpt lat="44.25587" lon="4.66373">
        <ele>89.80863</ele>
        <time>2025-02-03T10:12:16.025Z</time>
      </trkpt>
      <trkpt lat="44.25589" lon="4.66389">
        <ele>89.743014</ele>
        <time>2025-02-03T10:12:19.037Z</time>
      </trkpt>
      <trkpt lat="44.2559" lon="4.66406">
        <ele>89.674855</ele>
        <time>2025-02-03T10:12:22.033Z</time>
      </trkpt>
      <trkpt lat="44.25592" lon="4.66422">
        <ele>89.556868</ele>
        <time>2025-02-03T10:12:25.027Z</time>
      </trkpt>
      <trkpt lat="44.25593" lon="4.66439">
        <ele>89.438382</ele>
        <time>2025-02-03T10:12:28.011Z</time>
      </trkpt>
      <trkpt lat="44.25594" lon="4.66454">
        <ele>89.325935</ele>
        <time>2025-02-03T10:12:31.011Z</time>
      </trkpt>
      <trkpt lat="44.25588" lon="4.66466">
        <ele>89.221854</ele>
        <time>2025-02-03T10:12:34.010Z</time>
      </trkpt>
      <trkpt lat="44.25576" lon="4.6647">
        <ele>89.099431</ele>
        <time>2025-02-03T10:12:37.029Z</time>
      </trkpt>
      <trkpt lat="44.25565" lon="4.66476">
        <ele>88.980721</ele>
        <time>2025-02-03T10:12:40.021Z</time>
      </trkpt>
      <trkpt lat="44.25554" lon="4.66481">
        <ele>88.859905</ele>
        <time>2025-02-03T10:12:43.015Z</time>
      </trkpt>
      <trkpt lat="44.25542" lon="4.66488">
        <ele>88.728581</ele>
        <time>2025-02-03T10:12:46.585Z</time>
      </trkpt>
      <trkpt lat="44.25533" lon="4.66492">
        <ele>88.636599</ele>
        <time>2025-02-03T10:12:48.012Z</time>
      </trkpt>
      <trkpt lat="44.25521" lon="4.66498">
        <ele>88.502183</ele>
        <time>2025-02-03T10:12:51.018Z</time>
      </trkpt>
      <trkpt lat="44.25512" lon="4.66503">
        <ele>88.408262</ele>
        <time>2025-02-03T10:12:53.016Z</time>
      </trkpt>
      <trkpt lat="44.25504" lon="4.66507">
        <ele>88.317704</ele>
        <time>2025-02-03T10:12:55.015Z</time>
      </trkpt>
      <trkpt lat="44.25495" lon="4.66511">
        <ele>88.225928</ele>
        <time>2025-02-03T10:12:57.004Z</time>
      </trkpt>
      <trkpt lat="44.25486" lon="4.66515">
        <ele>88.131753</ele>
        <time>2025-02-03T10:12:59.021Z</time>
      </trkpt>
      <trkpt lat="44.25478" lon="4.6652">
        <ele>88.04023</ele>
        <time>2025-02-03T10:13:01.018Z</time>
      </trkpt>
      <trkpt lat="44.25469" lon="4.66524">
        <ele>87.943913</ele>
        <time>2025-02-03T10:13:03.027Z</time>
      </trkpt>
      <trkpt lat="44.2546" lon="4.66528">
        <ele>87.863012</ele>
        <time>2025-02-03T10:13:05.025Z</time>
      </trkpt>
      <trkpt lat="44.25451" lon="4.66532">
        <ele>87.860271</ele>
        <time>2025-02-03T10:13:07.044Z</time>
      </trkpt>
      <trkpt lat="44.25442" lon="4.66537">
        <ele>87.857544</ele>
        <time>2025-02-03T10:13:09.007Z</time>
      </trkpt>
      <trkpt lat="44.25433" lon="4.66541">
        <ele>87.854674</ele>
        <time>2025-02-03T10:13:11.017Z</time>
      </trkpt>
      <trkpt lat="44.25423" lon="4.66546">
        <ele>87.851768</ele>
        <time>2025-02-03T10:13:13.028Z</time>
      </trkpt>
      <trkpt lat="44.25414" lon="4.66551">
        <ele>87.848842</ele>
        <time>2025-02-03T10:13:15.027Z</time>
      </trkpt>
      <trkpt lat="44.25404" lon="4.66556">
        <ele>87.845875</ele>
        <time>2025-02-03T10:13:17.031Z</time>
      </trkpt>
      <trkpt lat="44.25395" lon="4.6656">
        <ele>87.842908</ele>
        <time>2025-02-03T10:13:19.031Z</time>
      </trkpt>
      <trkpt lat="44.25385" lon="4.66565">
        <ele>87.840001</ele>
        <time>2025-02-03T10:13:21.027Z</time>
      </trkpt>
      <trkpt lat="44.25376" lon="4.6657">
        <ele>87.837048</ele>
        <time>2025-02-03T10:13:23.035Z</time>
      </trkpt>
      <trkpt lat="44.25366" lon="4.66575">
        <ele>87.834067</ele>
        <time>2025-02-03T10:13:25.040Z</time>
      </trkpt>
      <trkpt lat="44.25356" lon="4.66579">
        <ele>87.830996</ele>
        <time>2025-02-03T10:13:27.030Z</time>
      </trkpt>
      <trkpt lat="44.25346" lon="4.66584">
        <ele>87.827926</ele>
        <time>2025-02-03T10:13:29.025Z</time>
      </trkpt>
      <trkpt lat="44.25336" lon="4.66589">
        <ele>87.824918</ele>
        <time>2025-02-03T10:13:31.033Z</time>
      </trkpt>
      <trkpt lat="44.25326" lon="4.66594">
        <ele>87.821731</ele>
        <time>2025-02-03T10:13:33.027Z</time>
      </trkpt>
      <trkpt lat="44.25316" lon="4.66599">
        <ele>87.818624</ele>
        <time>2025-02-03T10:13:35.026Z</time>
      </trkpt>
      <trkpt lat="44.25306" lon="4.66604">
        <ele>87.815457</ele>
        <time>2025-02-03T10:13:37.041Z</time>
      </trkpt>
      <trkpt lat="44.25296" lon="4.6661">
        <ele>87.812314</ele>
        <time>2025-02-03T10:13:39.030Z</time>
      </trkpt>
      <trkpt lat="44.25285" lon="4.66614">
        <ele>87.893611</ele>
        <time>2025-02-03T10:13:41.016Z</time>
      </trkpt>
      <trkpt lat="44.25276" lon="4.66619">
        <ele>88.025727</ele>
        <time>2025-02-03T10:13:43.018Z</time>
      </trkpt>
      <trkpt lat="44.25266" lon="4.66624">
        <ele>88.156664</ele>
        <time>2025-02-03T10:13:45.055Z</time>
      </trkpt>
      <trkpt lat="44.25256" lon="4.66629">
        <ele>88.287911</ele>
        <time>2025-02-03T10:13:47.006Z</time>
      </trkpt>
      <trkpt lat="44.25246" lon="4.66634">
        <ele>88.414696</ele>
        <time>2025-02-03T10:13:49.037Z</time>
      </trkpt>
      <trkpt lat="44.25237" lon="4.66639">
        <ele>88.544159</ele>
        <time>2025-02-03T10:13:51.034Z</time>
      </trkpt>
      <trkpt lat="44.25227" lon="4.66644">
        <ele>88.675542</ele>
        <time>2025-02-03T10:13:53.005Z</time>
      </trkpt>
      <trkpt lat="44.25218" lon="4.66651">
        <ele>88.807459</ele>
        <time>2025-02-03T10:13:55.036Z</time>
      </trkpt>
      <trkpt lat="44.25211" lon="4.66661">
        <ele>88.927193</ele>
        <time>2025-02-03T10:13:57.022Z</time>
      </trkpt>
      <trkpt lat="44.25206" lon="4.66672">
        <ele>89.042014</ele>
        <time>2025-02-03T10:13:59.015Z</time>
      </trkpt>
      <trkpt lat="44.25203" lon="4.66684">
        <ele>89.162102</ele>
        <time>2025-02-03T10:14:01.035Z</time>
      </trkpt>
      <trkpt lat="44.25199" lon="4.66696">
        <ele>89.278216</ele>
        <time>2025-02-03T10:14:03.023Z</time>
      </trkpt>
      <trkpt lat="44.25195" lon="4.66709">
        <ele>89.405258</ele>
        <time>2025-02-03T10:14:05.023Z</time>
      </trkpt>
      <trkpt lat="44.25191" lon="4.66722">
        <ele>89.528974</ele>
        <time>2025-02-03T10:14:07.031Z</time>
      </trkpt>
      <trkpt lat="44.25188" lon="4.66734">
        <ele>89.647234</ele>
        <time>2025-02-03T10:14:09.036Z</time>
      </trkpt>
      <trkpt lat="44.25184" lon="4.66746">
        <ele>89.765992</ele>
        <time>2025-02-03T10:14:11.006Z</time>
      </trkpt>
      <trkpt lat="44.2518" lon="4.66758">
        <ele>89.885079</ele>
        <time>2025-02-03T10:14:13.064Z</time>
      </trkpt>
      <trkpt lat="44.25177" lon="4.6677">
        <ele>90.002377</ele>
        <time>2025-02-03T10:14:15.003Z</time>
      </trkpt>
      <trkpt lat="44.25173" lon="4.66782">
        <ele>90.07602</ele>
        <time>2025-02-03T10:14:17.003Z</time>
      </trkpt>
      <trkpt lat="44.25169" lon="4.66795">
        <ele>90.094646</ele>
        <time>2025-02-03T10:14:19.018Z</time>
      </trkpt>
      <trkpt lat="44.25165" lon="4.66807">
        <ele>90.112971</ele>
        <time>2025-02-03T10:14:21.021Z</time>
      </trkpt>
      <trkpt lat="44.25161" lon="4.66819">
        <ele>90.130837</ele>
        <time>2025-02-03T10:14:23.031Z</time>
      </trkpt>
      <trkpt lat="44.25157" lon="4.66831">
        <ele>90.148833</ele>
        <time>2025-02-03T10:14:25.034Z</time>
      </trkpt>
      <trkpt lat="44.25154" lon="4.66843">
        <ele>90.167132</ele>
        <time>2025-02-03T10:14:27.026Z</time>
      </trkpt>
      <trkpt lat="44.2515" lon="4.66855">
        <ele>90.184977</ele>
        <time>2025-02-03T10:14:29.250Z</time>
      </trkpt>
      <trkpt lat="44.25147" lon="4.66867">
        <ele>90.20257</ele>
        <time>2025-02-03T10:14:31.023Z</time>
      </trkpt>
      <trkpt lat="44.25141" lon="4.66883">
        <ele>90.228151</ele>
        <time>2025-02-03T10:14:34.023Z</time>
      </trkpt>
      <trkpt lat="44.25137" lon="4.66895">
        <ele>90.245522</ele>
        <time>2025-02-03T10:14:36.036Z</time>
      </trkpt>
      <trkpt lat="44.25133" lon="4.66907">
        <ele>90.26294</ele>
        <time>2025-02-03T10:14:38.011Z</time>
      </trkpt>
      <trkpt lat="44.2513" lon="4.66918">
        <ele>90.28028</ele>
        <time>2025-02-03T10:14:40.033Z</time>
      </trkpt>
      <trkpt lat="44.25126" lon="4.6693">
        <ele>90.29804</ele>
        <time>2025-02-03T10:14:42.031Z</time>
      </trkpt>
      <trkpt lat="44.25123" lon="4.66942">
        <ele>90.315582</ele>
        <time>2025-02-03T10:14:44.007Z</time>
      </trkpt>
      <trkpt lat="44.25118" lon="4.66954">
        <ele>90.334603</ele>
        <time>2025-02-03T10:14:46.031Z</time>
      </trkpt>
      <trkpt lat="44.25114" lon="4.66967">
        <ele>90.352928</ele>
        <time>2025-02-03T10:14:48.024Z</time>
      </trkpt>
      <trkpt lat="44.25112" lon="4.66979">
        <ele>90.371099</ele>
        <time>2025-02-03T10:14:50.031Z</time>
      </trkpt>
      <trkpt lat="44.25108" lon="4.66992">
        <ele>90.389126</ele>
        <time>2025-02-03T10:14:52.004Z</time>
      </trkpt>
      <trkpt lat="44.25104" lon="4.67004">
        <ele>90.40753</ele>
        <time>2025-02-03T10:14:54.013Z</time>
      </trkpt>
      <trkpt lat="44.251" lon="4.67016">
        <ele>90.324696</ele>
        <time>2025-02-03T10:14:56.023Z</time>
      </trkpt>
      <trkpt lat="44.25095" lon="4.67027">
        <ele>90.206228</ele>
        <time>2025-02-03T10:14:58.035Z</time>
      </trkpt>
      <trkpt lat="44.25089" lon="4.67044">
        <ele>90.034221</ele>
        <time>2025-02-03T10:15:01.028Z</time>
      </trkpt>
      <trkpt lat="44.25086" lon="4.67056">
        <ele>89.915238</ele>
        <time>2025-02-03T10:15:03.033Z</time>
      </trkpt>
      <trkpt lat="44.2508" lon="4.67071">
        <ele>89.759143</ele>
        <time>2025-02-03T10:15:06.057Z</time>
      </trkpt>
      <trkpt lat="44.25072" lon="4.67085">
        <ele>89.594223</ele>
        <time>2025-02-03T10:15:09.074Z</time>
      </trkpt>
      <trkpt lat="44.25061" lon="4.67096">
        <ele>89.423781</ele>
        <time>2025-02-03T10:15:12.016Z</time>
      </trkpt>
      <trkpt lat="44.25054" lon="4.67103">
        <ele>89.308694</ele>
        <time>2025-02-03T10:15:14.005Z</time>
      </trkpt>
      <trkpt lat="44.25046" lon="4.67111">
        <ele>89.192503</ele>
        <time>2025-02-03T10:15:16.028Z</time>
      </trkpt>
      <trkpt lat="44.25038" lon="4.67125">
        <ele>89.02379</ele>
        <time>2025-02-03T10:15:19.030Z</time>
      </trkpt>
      <trkpt lat="44.25032" lon="4.67142">
        <ele>88.854299</ele>
        <time>2025-02-03T10:15:22.043Z</time>
      </trkpt>
      <trkpt lat="44.25028" lon="4.67154">
        <ele>88.732598</ele>
        <time>2025-02-03T10:15:24.019Z</time>
      </trkpt>
      <trkpt lat="44.25025" lon="4.67166">
        <ele>88.613613</ele>
        <time>2025-02-03T10:15:26.033Z</time>
      </trkpt>
      <trkpt lat="44.25019" lon="4.67183">
        <ele>88.439455</ele>
        <time>2025-02-03T10:15:29.042Z</time>
      </trkpt>
      <trkpt lat="44.25015" lon="4.67195">
        <ele>88.323492</ele>
        <time>2025-02-03T10:15:31.021Z</time>
      </trkpt>
      <trkpt lat="44.25009" lon="4.67211">
        <ele>88.153922</ele>
        <time>2025-02-03T10:15:34.028Z</time>
      </trkpt>
      <trkpt lat="44.25003" lon="4.67228">
        <ele>88.10235</ele>
        <time>2025-02-03T10:15:37.024Z</time>
      </trkpt>
      <trkpt lat="44.24998" lon="4.67244">
        <ele>88.080805</ele>
        <time>2025-02-03T10:15:40.050Z</time>
      </trkpt>
      <trkpt lat="44.24995" lon="4.67261">
        <ele>88.059562</ele>
        <time>2025-02-03T10:15:43.030Z</time>
      </trkpt>
      <trkpt lat="44.2499" lon="4.67278">
        <ele>88.038101</ele>
        <time>2025-02-03T10:15:46.045Z</time>
      </trkpt>
      <trkpt lat="44.24985" lon="4.67295">
        <ele>88.016666</ele>
        <time>2025-02-03T10:15:49.012Z</time>
      </trkpt>
      <trkpt lat="44.2498" lon="4.67311">
        <ele>87.995613</ele>
        <time>2025-02-03T10:15:52.026Z</time>
      </trkpt>
      <trkpt lat="44.24973" lon="4.67326">
        <ele>87.973936</ele>
        <time>2025-02-03T10:15:55.029Z</time>
      </trkpt>
      <trkpt lat="44.24966" lon="4.67341">
        <ele>87.952635</ele>
        <time>2025-02-03T10:15:58.028Z</time>
      </trkpt>
      <trkpt lat="44.24961" lon="4.67351">
        <ele>87.937556</ele>
        <time>2025-02-03T10:16:00.025Z</time>
      </trkpt>
      <trkpt lat="44.24954" lon="4.6736">
        <ele>87.922126</ele>
        <time>2025-02-03T10:16:02.014Z</time>
      </trkpt>
      <trkpt lat="44.24945" lon="4.67374">
        <ele>87.900399</ele>
        <time>2025-02-03T10:16:05.015Z</time>
      </trkpt>
      <trkpt lat="44.24939" lon="4.67382">
        <ele>87.885197</ele>
        <time>2025-02-03T10:16:07.036Z</time>
      </trkpt>
      <trkpt lat="44.24928" lon="4.67393">
        <ele>87.862931</ele>
        <time>2025-02-03T10:16:10.004Z</time>
      </trkpt>
      <trkpt lat="44.24917" lon="4.67404">
        <ele>87.840466</ele>
        <time>2025-02-03T10:16:13.040Z</time>
      </trkpt>
      <trkpt lat="44.24906" lon="4.67414">
        <ele>87.818373</ele>
        <time>2025-02-03T10:16:16.024Z</time>
      </trkpt>
      <trkpt lat="44.24894" lon="4.67422">
        <ele>87.803293</ele>
        <time>2025-02-03T10:16:19.042Z</time>
      </trkpt>
      <trkpt lat="44.24885" lon="4.67427">
        <ele>87.792753</ele>
        <time>2025-02-03T10:16:21.033Z</time>
      </trkpt>
      <trkpt lat="44.24876" lon="4.67431">
        <ele>87.781969</ele>
        <time>2025-02-03T10:16:23.025Z</time>
      </trkpt>
      <trkpt lat="44.24868" lon="4.67435">
        <ele>87.771534</ele>
        <time>2025-02-03T10:16:25.027Z</time>
      </trkpt>
      <trkpt lat="44.24859" lon="4.6744">
        <ele>87.760784</ele>
        <time>2025-02-03T10:16:27.027Z</time>
      </trkpt>
      <trkpt lat="44.2485" lon="4.67445">
        <ele>87.750136</ele>
        <time>2025-02-03T10:16:29.037Z</time>
      </trkpt>
      <trkpt lat="44.24841" lon="4.67449">
        <ele>87.739538</ele>
        <time>2025-02-03T10:16:31.032Z</time>
      </trkpt>
      <trkpt lat="44.24832" lon="4.67454">
        <ele>87.728405</ele>
        <time>2025-02-03T10:16:33.029Z</time>
      </trkpt>
      <trkpt lat="44.24823" lon="4.67459">
        <ele>87.717284</ele>
        <time>2025-02-03T10:16:35.021Z</time>
      </trkpt>
      <trkpt lat="44.24814" lon="4.67464">
        <ele>87.706444</ele>
        <time>2025-02-03T10:16:37.027Z</time>
      </trkpt>
      <trkpt lat="44.24806" lon="4.6747">
        <ele>87.695702</ele>
        <time>2025-02-03T10:16:39.031Z</time>
      </trkpt>
      <trkpt lat="44.24797" lon="4.67476">
        <ele>87.684953</ele>
        <time>2025-02-03T10:16:41.026Z</time>
      </trkpt>
      <trkpt lat="44.24789" lon="4.67482">
        <ele>87.674489</ele>
        <time>2025-02-03T10:16:43.033Z</time>
      </trkpt>
      <trkpt lat="44.24782" lon="4.67489">
        <ele>87.664098</ele>
        <time>2025-02-03T10:16:45.026Z</time>
      </trkpt>
      <trkpt lat="44.24771" lon="4.67499">
        <ele>87.649284</ele>
        <time>2025-02-03T10:16:48.017Z</time>
      </trkpt>
      <trkpt lat="44.24763" lon="4.67505">
        <ele>87.638711</ele>
        <time>2025-02-03T10:16:50.013Z</time>
      </trkpt>
      <trkpt lat="44.24755" lon="4.67512">
        <ele>87.628125</ele>
        <time>2025-02-03T10:16:52.018Z</time>
      </trkpt>
      <trkpt lat="44.24748" lon="4.6752">
        <ele>87.6178</ele>
        <time>2025-02-03T10:16:54.021Z</time>
      </trkpt>
      <trkpt lat="44.2474" lon="4.67527">
        <ele>87.624507</ele>
        <time>2025-02-03T10:16:56.029Z</time>
      </trkpt>
      <trkpt lat="44.24732" lon="4.67534">
        <ele>87.640346</ele>
        <time>2025-02-03T10:16:58.001Z</time>
      </trkpt>
      <trkpt lat="44.24724" lon="4.67541">
        <ele>87.656315</ele>
        <time>2025-02-03T10:17:00.034Z</time>
      </trkpt>
      <trkpt lat="44.24716" lon="4.67547">
        <ele>87.672022</ele>
        <time>2025-02-03T10:17:02.038Z</time>
      </trkpt>
      <trkpt lat="44.24704" lon="4.67553">
        <ele>87.694427</ele>
        <time>2025-02-03T10:17:05.018Z</time>
      </trkpt>
      <trkpt lat="44.24694" lon="4.67554">
        <ele>87.710536</ele>
        <time>2025-02-03T10:17:07.020Z</time>
      </trkpt>
      <trkpt lat="44.24685" lon="4.67554">
        <ele>87.726936</ele>
        <time>2025-02-03T10:17:09.034Z</time>
      </trkpt>
      <trkpt lat="44.24675" lon="4.67556">
        <ele>87.743606</ele>
        <time>2025-02-03T10:17:11.043Z</time>
      </trkpt>
      <trkpt lat="44.24666" lon="4.67559">
        <ele>87.759896</ele>
        <time>2025-02-03T10:17:13.027Z</time>
      </trkpt>
      <trkpt lat="44.24657" lon="4.67571">
        <ele>87.781235</ele>
        <time>2025-02-03T10:17:16.029Z</time>
      </trkpt>
      <trkpt lat="44.24655" lon="4.67588">
        <ele>87.801694</ele>
        <time>2025-02-03T10:17:19.010Z</time>
      </trkpt>
      <trkpt lat="44.24654" lon="4.67604">
        <ele>87.821273</ele>
        <time>2025-02-03T10:17:22.019Z</time>
      </trkpt>
      <trkpt lat="44.24655" lon="4.67619">
        <ele>87.839859</ele>
        <time>2025-02-03T10:17:25.025Z</time>
      </trkpt>
      <trkpt lat="44.24655" lon="4.67635">
        <ele>87.858931</ele>
        <time>2025-02-03T10:17:28.033Z</time>
      </trkpt>
      <trkpt lat="44.24656" lon="4.67649">
        <ele>87.877039</ele>
        <time>2025-02-03T10:17:31.025Z</time>
      </trkpt>
      <trkpt lat="44.24658" lon="4.67663">
        <ele>87.894398</ele>
        <time>2025-02-03T10:17:34.032Z</time>
      </trkpt>
      <trkpt lat="44.24658" lon="4.67676">
        <ele>87.910336</ele>
        <time>2025-02-03T10:17:37.025Z</time>
      </trkpt>
      <trkpt lat="44.24659" lon="4.6769">
        <ele>87.945667</ele>
        <time>2025-02-03T10:17:40.046Z</time>
      </trkpt>
      <trkpt lat="44.24659" lon="4.67704">
        <ele>88.014041</ele>
        <time>2025-02-03T10:17:43.025Z</time>
      </trkpt>
      <trkpt lat="44.24657" lon="4.67718">
        <ele>88.079003</ele>
        <time>2025-02-03T10:17:46.022Z</time>
      </trkpt>
      <trkpt lat="44.24653" lon="4.67732">
        <ele>88.153116</ele>
        <time>2025-02-03T10:17:49.008Z</time>
      </trkpt>
      <trkpt lat="44.24649" lon="4.67747">
        <ele>88.23275</ele>
        <time>2025-02-03T10:17:52.035Z</time>
      </trkpt>
      <trkpt lat="44.24645" lon="4.67761">
        <ele>88.305574</ele>
        <time>2025-02-03T10:17:55.036Z</time>
      </trkpt>
      <trkpt lat="44.24641" lon="4.67776">
        <ele>88.379915</ele>
        <time>2025-02-03T10:17:58.037Z</time>
      </trkpt>
      <trkpt lat="44.24637" lon="4.67792">
        <ele>88.462243</ele>
        <time>2025-02-03T10:18:01.020Z</time>
      </trkpt>
      <trkpt lat="44.24633" lon="4.67809">
        <ele>88.548398</ele>
        <time>2025-02-03T10:18:04.029Z</time>
      </trkpt>
      <trkpt lat="44.24628" lon="4.67827">
        <ele>88.638418</ele>
        <time>2025-02-03T10:18:07.027Z</time>
      </trkpt>
      <trkpt lat="44.24623" lon="4.67844">
        <ele>88.729386</ele>
        <time>2025-02-03T10:18:09.995Z</time>
      </trkpt>
      <trkpt lat="44.24617" lon="4.6786">
        <ele>88.817298</ele>
        <time>2025-02-03T10:18:13.036Z</time>
      </trkpt>
      <trkpt lat="44.24612" lon="4.67876">
        <ele>88.898783</ele>
        <time>2025-02-03T10:18:16.030Z</time>
      </trkpt>
      <trkpt lat="44.24608" lon="4.67893">
        <ele>88.984481</ele>
        <time>2025-02-03T10:18:19.014Z</time>
      </trkpt>
      <trkpt lat="44.24603" lon="4.6791">
        <ele>89.072881</ele>
        <time>2025-02-03T10:18:22.022Z</time>
      </trkpt>
      <trkpt lat="44.24598" lon="4.67927">
        <ele>89.1274</ele>
        <time>2025-02-03T10:18:25.048Z</time>
      </trkpt>
      <trkpt lat="44.24594" lon="4.67945">
        <ele>89.120121</ele>
        <time>2025-02-03T10:18:28.026Z</time>
      </trkpt>
      <trkpt lat="44.24593" lon="4.67963">
        <ele>89.112845</ele>
        <time>2025-02-03T10:18:31.012Z</time>
      </trkpt>
      <trkpt lat="44.24592" lon="4.67976">
        <ele>89.107892</ele>
        <time>2025-02-03T10:18:33.012Z</time>
      </trkpt>
      <trkpt lat="44.24592" lon="4.67994">
        <ele>89.100751</ele>
        <time>2025-02-03T10:18:36.040Z</time>
      </trkpt>
      <trkpt lat="44.24594" lon="4.68012">
        <ele>89.093578</ele>
        <time>2025-02-03T10:18:39.033Z</time>
      </trkpt>
      <trkpt lat="44.24596" lon="4.6803">
        <ele>89.086753</ele>
        <time>2025-02-03T10:18:42.025Z</time>
      </trkpt>
      <trkpt lat="44.24598" lon="4.68046">
        <ele>89.080165</ele>
        <time>2025-02-03T10:18:45.036Z</time>
      </trkpt>
      <trkpt lat="44.24601" lon="4.68061">
        <ele>89.074171</ele>
        <time>2025-02-03T10:18:48.028Z</time>
      </trkpt>
      <trkpt lat="44.24605" lon="4.68074">
        <ele>89.068389</ele>
        <time>2025-02-03T10:18:51.045Z</time>
      </trkpt>
      <trkpt lat="44.24609" lon="4.68088">
        <ele>89.0625</ele>
        <time>2025-02-03T10:18:54.031Z</time>
      </trkpt>
      <trkpt lat="44.24613" lon="4.68102">
        <ele>89.056656</ele>
        <time>2025-02-03T10:18:57.022Z</time>
      </trkpt>
      <trkpt lat="44.24618" lon="4.68117">
        <ele>89.050213</ele>
        <time>2025-02-03T10:19:00.029Z</time>
      </trkpt>
      <trkpt lat="44.24621" lon="4.68131">
        <ele>89.044369</ele>
        <time>2025-02-03T10:19:03.030Z</time>
      </trkpt>
      <trkpt lat="44.24622" lon="4.68147">
        <ele>89.038126</ele>
        <time>2025-02-03T10:19:06.022Z</time>
      </trkpt>
      <trkpt lat="44.24621" lon="4.68162">
        <ele>89.032178</ele>
        <time>2025-02-03T10:19:09.035Z</time>
      </trkpt>
      <trkpt lat="44.24618" lon="4.68179">
        <ele>88.97159</ele>
        <time>2025-02-03T10:19:12.015Z</time>
      </trkpt>
      <trkpt lat="44.24615" lon="4.68191">
        <ele>88.922602</ele>
        <time>2025-02-03T10:19:14.045Z</time>
      </trkpt>
      <trkpt lat="44.2461" lon="4.68206">
        <ele>88.854649</ele>
        <time>2025-02-03T10:19:17.020Z</time>
      </trkpt>
      <trkpt lat="44.24604" lon="4.68221">
        <ele>88.790075</ele>
        <time>2025-02-03T10:19:20.031Z</time>
      </trkpt>
      <trkpt lat="44.24603" lon="4.68238">
        <ele>88.725699</ele>
        <time>2025-02-03T10:19:23.025Z</time>
      </trkpt>
      <trkpt lat="44.24604" lon="4.68254">
        <ele>88.663639</ele>
        <time>2025-02-03T10:19:26.038Z</time>
      </trkpt>
      <trkpt lat="44.24606" lon="4.68269">
        <ele>88.604005</ele>
        <time>2025-02-03T10:19:29.029Z</time>
      </trkpt>
      <trkpt lat="44.24608" lon="4.68284">
        <ele>88.543812</ele>
        <time>2025-02-03T10:19:32.003Z</time>
      </trkpt>
      <trkpt lat="44.24611" lon="4.68299">
        <ele>88.484253</ele>
        <time>2025-02-03T10:19:35.039Z</time>
      </trkpt>
      <trkpt lat="44.24614" lon="4.68313">
        <ele>88.425936</ele>
        <time>2025-02-03T10:19:38.042Z</time>
      </trkpt>
      <trkpt lat="44.24618" lon="4.68327">
        <ele>88.369464</ele>
        <time>2025-02-03T10:19:41.025Z</time>
      </trkpt>
      <trkpt lat="44.24621" lon="4.6834">
        <ele>88.315928</ele>
        <time>2025-02-03T10:19:44.025Z</time>
      </trkpt>
      <trkpt lat="44.24624" lon="4.68353">
        <ele>88.262174</ele>
        <time>2025-02-03T10:19:47.039Z</time>
      </trkpt>
      <trkpt lat="44.24627" lon="4.68366">
        <ele>88.208449</ele>
        <time>2025-02-03T10:19:50.021Z</time>
      </trkpt>
      <trkpt lat="44.24631" lon="4.68379">
        <ele>88.153742</ele>
        <time>2025-02-03T10:19:53.035Z</time>
      </trkpt>
      <trkpt lat="44.24635" lon="4.68392">
        <ele>88.099241</ele>
        <time>2025-02-03T10:19:56.025Z</time>
      </trkpt>
      <trkpt lat="44.24639" lon="4.68405">
        <ele>88.080134</ele>
        <time>2025-02-03T10:19:59.031Z</time>
      </trkpt>
      <trkpt lat="44.24643" lon="4.68418">
        <ele>88.179875</ele>
        <time>2025-02-03T10:20:02.019Z</time>
      </trkpt>
      <trkpt lat="44.24647" lon="4.68431">
        <ele>88.276635</ele>
        <time>2025-02-03T10:20:05.037Z</time>
      </trkpt>
      <trkpt lat="44.2465" lon="4.68444">
        <ele>88.379036</ele>
        <time>2025-02-03T10:20:08.023Z</time>
      </trkpt>
      <trkpt lat="44.24655" lon="4.68457">
        <ele>88.479413</ele>
        <time>2025-02-03T10:20:11.015Z</time>
      </trkpt>
      <trkpt lat="44.24659" lon="4.68471">
        <ele>88.583682</ele>
        <time>2025-02-03T10:20:14.021Z</time>
      </trkpt>
      <trkpt lat="44.24663" lon="4.68484">
        <ele>88.68353</ele>
        <time>2025-02-03T10:20:17.033Z</time>
      </trkpt>
      <trkpt lat="44.24667" lon="4.68497">
        <ele>88.784685</ele>
        <time>2025-02-03T10:20:20.024Z</time>
      </trkpt>
      <trkpt lat="44.24671" lon="4.6851">
        <ele>88.885468</ele>
        <time>2025-02-03T10:20:23.057Z</time>
      </trkpt>
      <trkpt lat="44.24674" lon="4.68524">
        <ele>88.989847</ele>
        <time>2025-02-03T10:20:26.032Z</time>
      </trkpt>
      <trkpt lat="44.24678" lon="4.68538">
        <ele>89.09831</ele>
        <time>2025-02-03T10:20:29.037Z</time>
      </trkpt>
      <trkpt lat="44.24681" lon="4.68552">
        <ele>89.198743</ele>
        <time>2025-02-03T10:20:32.022Z</time>
      </trkpt>
      <trkpt lat="44.24684" lon="4.68566">
        <ele>89.301717</ele>
        <time>2025-02-03T10:20:35.020Z</time>
      </trkpt>
      <trkpt lat="44.24688" lon="4.68579">
        <ele>89.405441</ele>
        <time>2025-02-03T10:20:38.020Z</time>
      </trkpt>
      <trkpt lat="44.24692" lon="4.68593">
        <ele>89.51222</ele>
        <time>2025-02-03T10:20:41.029Z</time>
      </trkpt>
      <trkpt lat="44.24695" lon="4.68608">
        <ele>89.621962</ele>
        <time>2025-02-03T10:20:44.031Z</time>
      </trkpt>
      <trkpt lat="44.24699" lon="4.68621">
        <ele>89.720671</ele>
        <time>2025-02-03T10:20:47.026Z</time>
      </trkpt>
      <trkpt lat="44.24702" lon="4.68634">
        <ele>89.818103</ele>
        <time>2025-02-03T10:20:50.041Z</time>
      </trkpt>
      <trkpt lat="44.24704" lon="4.68647">
        <ele>89.819192</ele>
        <time>2025-02-03T10:20:53.037Z</time>
      </trkpt>
      <trkpt lat="44.24706" lon="4.68661">
        <ele>89.798303</ele>
        <time>2025-02-03T10:20:56.042Z</time>
      </trkpt>
      <trkpt lat="44.24707" lon="4.68676">
        <ele>89.775579</ele>
        <time>2025-02-03T10:20:59.037Z</time>
      </trkpt>
      <trkpt lat="44.24708" lon="4.68691">
        <ele>89.753686</ele>
        <time>2025-02-03T10:21:02.047Z</time>
      </trkpt>
      <trkpt lat="44.24707" lon="4.68706">
        <ele>89.731574</ele>
        <time>2025-02-03T10:21:05.016Z</time>
      </trkpt>
      <trkpt lat="44.24705" lon="4.68721">
        <ele>89.708352</ele>
        <time>2025-02-03T10:21:08.044Z</time>
      </trkpt>
      <trkpt lat="44.24702" lon="4.68737">
        <ele>89.68469</ele>
        <time>2025-02-03T10:21:11.043Z</time>
      </trkpt>
      <trkpt lat="44.24699" lon="4.68753">
        <ele>89.659202</ele>
        <time>2025-02-03T10:21:14.017Z</time>
      </trkpt>
      <trkpt lat="44.24696" lon="4.68769">
        <ele>89.634965</ele>
        <time>2025-02-03T10:21:17.023Z</time>
      </trkpt>
      <trkpt lat="44.24694" lon="4.68785">
        <ele>89.611453</ele>
        <time>2025-02-03T10:21:20.045Z</time>
      </trkpt>
      <trkpt lat="44.24691" lon="4.688">
        <ele>89.588076</ele>
        <time>2025-02-03T10:21:23.034Z</time>
      </trkpt>
      <trkpt lat="44.24689" lon="4.68814">
        <ele>89.566776</ele>
        <time>2025-02-03T10:21:26.033Z</time>
      </trkpt>
      <trkpt lat="44.24687" lon="4.68827">
        <ele>89.54697</ele>
        <time>2025-02-03T10:21:29.031Z</time>
      </trkpt>
      <trkpt lat="44.24684" lon="4.6884">
        <ele>89.526026</ele>
        <time>2025-02-03T10:21:33.022Z</time>
      </trkpt>
      <trkpt lat="44.2468" lon="4.68862">
        <ele>89.492926</ele>
        <time>2025-02-03T10:22:44.031Z</time>
      </trkpt>
      <trkpt lat="44.24678" lon="4.68877">
        <ele>89.470518</ele>
        <time>2025-02-03T10:22:48.019Z</time>
      </trkpt>
      <trkpt lat="44.24676" lon="4.68893">
        <ele>89.444618</ele>
        <time>2025-02-03T10:22:52.040Z</time>
      </trkpt>
      <trkpt lat="44.24675" lon="4.6891">
        <ele>89.417755</ele>
        <time>2025-02-03T10:22:56.052Z</time>
      </trkpt>
      <trkpt lat="44.24675" lon="4.68923">
        <ele>89.396601</ele>
        <time>2025-02-03T10:22:59.030Z</time>
      </trkpt>
      <trkpt lat="44.24675" lon="4.68937">
        <ele>89.374652</ele>
        <time>2025-02-03T10:23:02.034Z</time>
      </trkpt>
      <trkpt lat="44.24675" lon="4.68952">
        <ele>89.350466</ele>
        <time>2025-02-03T10:23:05.047Z</time>
      </trkpt>
      <trkpt lat="44.24675" lon="4.68967">
        <ele>89.326562</ele>
        <time>2025-02-03T10:23:08.044Z</time>
      </trkpt>
      <trkpt lat="44.24676" lon="4.68981">
        <ele>89.303166</ele>
        <time>2025-02-03T10:23:11.032Z</time>
      </trkpt>
      <trkpt lat="44.24676" lon="4.68996">
        <ele>89.279434</ele>
        <time>2025-02-03T10:23:14.029Z</time>
      </trkpt>
      <trkpt lat="44.24676" lon="4.69011">
        <ele>89.255558</ele>
        <time>2025-02-03T10:23:17.051Z</time>
      </trkpt>
      <trkpt lat="44.24676" lon="4.69025">
        <ele>89.232812</ele>
        <time>2025-02-03T10:23:20.027Z</time>
      </trkpt>
      <trkpt lat="44.24676" lon="4.69039">
        <ele>89.210057</ele>
        <time>2025-02-03T10:23:23.027Z</time>
      </trkpt>
      <trkpt lat="44.24676" lon="4.69054">
        <ele>89.18715</ele>
        <time>2025-02-03T10:23:26.033Z</time>
      </trkpt>
      <trkpt lat="44.24675" lon="4.69068">
        <ele>89.164378</ele>
        <time>2025-02-03T10:23:29.038Z</time>
      </trkpt>
      <trkpt lat="44.24675" lon="4.69082">
        <ele>89.141295</ele>
        <time>2025-02-03T10:23:32.026Z</time>
      </trkpt>
      <trkpt lat="44.24675" lon="4.69096">
        <ele>89.118682</ele>
        <time>2025-02-03T10:23:35.036Z</time>
      </trkpt>
      <trkpt lat="44.24674" lon="4.6911">
        <ele>89.096146</ele>
        <time>2025-02-03T10:23:38.026Z</time>
      </trkpt>
      <trkpt lat="44.24672" lon="4.69125">
        <ele>89.072472</ele>
        <time>2025-02-03T10:23:41.042Z</time>
      </trkpt>
      <trkpt lat="44.24671" lon="4.6914">
        <ele>89.058672</ele>
        <time>2025-02-03T10:23:44.030Z</time>
      </trkpt>
      <trkpt lat="44.2467" lon="4.69154">
        <ele>89.055295</ele>
        <time>2025-02-03T10:23:47.024Z</time>
      </trkpt>
      <trkpt lat="44.24669" lon="4.69168">
        <ele>89.051823</ele>
        <time>2025-02-03T10:23:50.029Z</time>
      </trkpt>
      <trkpt lat="44.24667" lon="4.69183">
        <ele>89.048231</ele>
        <time>2025-02-03T10:23:53.025Z</time>
      </trkpt>
      <trkpt lat="44.24666" lon="4.69197">
        <ele>89.044739</ele>
        <time>2025-02-03T10:23:56.051Z</time>
      </trkpt>
      <trkpt lat="44.24665" lon="4.69212">
        <ele>89.041197</ele>
        <time>2025-02-03T10:23:59.038Z</time>
      </trkpt>
      <trkpt lat="44.24663" lon="4.69226">
        <ele>89.03765</ele>
        <time>2025-02-03T10:24:02.030Z</time>
      </trkpt>
      <trkpt lat="44.24661" lon="4.69241">
        <ele>89.03408</ele>
        <time>2025-02-03T10:24:05.033Z</time>
      </trkpt>
      <trkpt lat="44.24659" lon="4.69255">
        <ele>89.030535</ele>
        <time>2025-02-03T10:24:08.026Z</time>
      </trkpt>
      <trkpt lat="44.24658" lon="4.6927">
        <ele>89.026962</ele>
        <time>2025-02-03T10:24:11.027Z</time>
      </trkpt>
      <trkpt lat="44.24657" lon="4.69285">
        <ele>89.023354</ele>
        <time>2025-02-03T10:24:14.030Z</time>
      </trkpt>
      <trkpt lat="44.24655" lon="4.69301">
        <ele>89.019548</ele>
        <time>2025-02-03T10:24:17.033Z</time>
      </trkpt>
      <trkpt lat="44.24653" lon="4.69316">
        <ele>89.015784</ele>
        <time>2025-02-03T10:24:20.026Z</time>
      </trkpt>
      <trkpt lat="44.24652" lon="4.69331">
        <ele>89.012101</ele>
        <time>2025-02-03T10:24:23.025Z</time>
      </trkpt>
      <trkpt lat="44.24651" lon="4.69346">
        <ele>89.0084</ele>
        <time>2025-02-03T10:24:26.037Z</time>
      </trkpt>
      <trkpt lat="44.24649" lon="4.69362">
        <ele>89.004632</ele>
        <time>2025-02-03T10:24:29.035Z</time>
      </trkpt>
      <trkpt lat="44.24648" lon="4.69377">
        <ele>89.000928</ele>
        <time>2025-02-03T10:24:32.018Z</time>
      </trkpt>
      <trkpt lat="44.24647" lon="4.69392">
        <ele>89.061509</ele>
        <time>2025-02-03T10:24:35.041Z</time>
      </trkpt>
      <trkpt lat="44.24646" lon="4.69407">
        <ele>89.143221</ele>
        <time>2025-02-03T10:24:38.022Z</time>
      </trkpt>
      <trkpt lat="44.24646" lon="4.69421">
        <ele>89.221295</ele>
        <time>2025-02-03T10:24:41.041Z</time>
      </trkpt>
      <trkpt lat="44.24644" lon="4.69435">
        <ele>89.300011</ele>
        <time>2025-02-03T10:24:44.032Z</time>
      </trkpt>
      <trkpt lat="44.24644" lon="4.6945">
        <ele>89.381965</ele>
        <time>2025-02-03T10:24:47.021Z</time>
      </trkpt>
      <trkpt lat="44.24643" lon="4.69465">
        <ele>89.462986</ele>
        <time>2025-02-03T10:24:50.024Z</time>
      </trkpt>
      <trkpt lat="44.24641" lon="4.6948">
        <ele>89.54378</ele>
        <time>2025-02-03T10:24:53.027Z</time>
      </trkpt>
      <trkpt lat="44.2464" lon="4.69494">
        <ele>89.623776</ele>
        <time>2025-02-03T10:24:56.043Z</time>
      </trkpt>
      <trkpt lat="44.24639" lon="4.69509">
        <ele>89.703772</ele>
        <time>2025-02-03T10:24:59.028Z</time>
      </trkpt>
      <trkpt lat="44.24638" lon="4.69523">
        <ele>89.784664</ele>
        <time>2025-02-03T10:25:02.024Z</time>
      </trkpt>
      <trkpt lat="44.24637" lon="4.69538">
        <ele>89.865913</ele>
        <time>2025-02-03T10:25:05.023Z</time>
      </trkpt>
      <trkpt lat="44.24636" lon="4.69553">
        <ele>89.948799</ele>
        <time>2025-02-03T10:25:08.024Z</time>
      </trkpt>
      <trkpt lat="44.24635" lon="4.69568">
        <ele>90.032623</ele>
        <time>2025-02-03T10:25:11.033Z</time>
      </trkpt>
      <trkpt lat="44.24633" lon="4.69583">
        <ele>90.115597</ele>
        <time>2025-02-03T10:25:14.033Z</time>
      </trkpt>
      <trkpt lat="44.24632" lon="4.69598">
        <ele>90.197938</ele>
        <time>2025-02-03T10:25:17.035Z</time>
      </trkpt>
      <trkpt lat="44.24631" lon="4.69613">
        <ele>90.281008</ele>
        <time>2025-02-03T10:25:20.009Z</time>
      </trkpt>
      <trkpt lat="44.24629" lon="4.69629">
        <ele>90.366709</ele>
        <time>2025-02-03T10:25:23.019Z</time>
      </trkpt>
      <trkpt lat="44.24628" lon="4.69644">
        <ele>90.319257</ele>
        <time>2025-02-03T10:25:26.026Z</time>
      </trkpt>
      <trkpt lat="44.24627" lon="4.6966">
        <ele>90.250885</ele>
        <time>2025-02-03T10:25:29.031Z</time>
      </trkpt>
      <trkpt lat="44.24625" lon="4.69675">
        <ele>90.185013</ele>
        <time>2025-02-03T10:25:32.023Z</time>
      </trkpt>
      <trkpt lat="44.24624" lon="4.69689">
        <ele>90.118991</ele>
        <time>2025-02-03T10:25:35.035Z</time>
      </trkpt>
      <trkpt lat="44.24623" lon="4.69704">
        <ele>90.054932</ele>
        <time>2025-02-03T10:25:38.049Z</time>
      </trkpt>
      <trkpt lat="44.24622" lon="4.69718">
        <ele>89.991309</ele>
        <time>2025-02-03T10:25:41.039Z</time>
      </trkpt>
      <trkpt lat="44.24621" lon="4.69732">
        <ele>89.931306</ele>
        <time>2025-02-03T10:25:44.026Z</time>
      </trkpt>
      <trkpt lat="44.2462" lon="4.69745">
        <ele>89.875675</ele>
        <time>2025-02-03T10:25:47.033Z</time>
      </trkpt>
      <trkpt lat="44.24619" lon="4.69758">
        <ele>89.817797</ele>
        <time>2025-02-03T10:25:50.043Z</time>
      </trkpt>
      <trkpt lat="44.24618" lon="4.69771">
        <ele>89.759482</ele>
        <time>2025-02-03T10:25:53.033Z</time>
      </trkpt>
      <trkpt lat="44.24617" lon="4.69784">
        <ele>89.702596</ele>
        <time>2025-02-03T10:25:56.030Z</time>
      </trkpt>
      <trkpt lat="44.24616" lon="4.698">
        <ele>89.630668</ele>
        <time>2025-02-03T10:26:00.011Z</time>
      </trkpt>
      <trkpt lat="44.24615" lon="4.69813">
        <ele>89.5746</ele>
        <time>2025-02-03T10:26:03.011Z</time>
      </trkpt>
      <trkpt lat="44.24614" lon="4.69826">
        <ele>89.51745</ele>
        <time>2025-02-03T10:26:06.027Z</time>
      </trkpt>
      <trkpt lat="44.24613" lon="4.69839">
        <ele>89.458477</ele>
        <time>2025-02-03T10:26:09.027Z</time>
      </trkpt>
      <trkpt lat="44.24612" lon="4.69852">
        <ele>89.400094</ele>
        <time>2025-02-03T10:26:12.025Z</time>
      </trkpt>
      <trkpt lat="44.2461" lon="4.69866">
        <ele>89.339766</ele>
        <time>2025-02-03T10:26:18.016Z</time>
      </trkpt>
      <trkpt lat="44.24606" lon="4.69879">
        <ele>89.276009</ele>
        <time>2025-02-03T10:26:22.034Z</time>
      </trkpt>
      <trkpt lat="44.24606" lon="4.69895">
        <ele>89.293837</ele>
        <time>2025-02-03T10:26:26.023Z</time>
      </trkpt>
      <trkpt lat="44.24612" lon="4.69909">
        <ele>89.313249</ele>
        <time>2025-02-03T10:26:30.028Z</time>
      </trkpt>
      <trkpt lat="44.24613" lon="4.69925">
        <ele>89.331411</ele>
        <time>2025-02-03T10:26:34.021Z</time>
      </trkpt>
      <trkpt lat="44.24605" lon="4.69934">
        <ele>89.347276</ele>
        <time>2025-02-03T10:26:37.013Z</time>
      </trkpt>
      <trkpt lat="44.24597" lon="4.69945">
        <ele>89.36568</ele>
        <time>2025-02-03T10:26:40.024Z</time>
      </trkpt>
      <trkpt lat="44.24588" lon="4.69958">
        <ele>89.386036</ele>
        <time>2025-02-03T10:26:43.008Z</time>
      </trkpt>
      <trkpt lat="44.2458" lon="4.69973">
        <ele>89.407023</ele>
        <time>2025-02-03T10:26:46.025Z</time>
      </trkpt>
      <trkpt lat="44.24573" lon="4.69988">
        <ele>89.428012</ele>
        <time>2025-02-03T10:26:49.031Z</time>
      </trkpt>
      <trkpt lat="44.24567" lon="4.70003">
        <ele>89.447256</ele>
        <time>2025-02-03T10:26:52.021Z</time>
      </trkpt>
      <trkpt lat="44.24562" lon="4.70016">
        <ele>89.464061</ele>
        <time>2025-02-03T10:26:55.031Z</time>
      </trkpt>
      <trkpt lat="44.24557" lon="4.70028">
        <ele>89.479737</ele>
        <time>2025-02-03T10:26:58.032Z</time>
      </trkpt>
      <trkpt lat="44.24552" lon="4.70041">
        <ele>89.496329</ele>
        <time>2025-02-03T10:27:02.031Z</time>
      </trkpt>
      <trkpt lat="44.24548" lon="4.70052">
        <ele>89.511074</ele>
        <time>2025-02-03T10:27:06.010Z</time>
      </trkpt>
      <trkpt lat="44.2454" lon="4.7006">
        <ele>89.526249</ele>
        <time>2025-02-03T10:27:10.037Z</time>
      </trkpt>
      <trkpt lat="44.24546" lon="4.70071">
        <ele>89.541668</ele>
        <time>2025-02-03T10:27:15.036Z</time>
      </trkpt>
      <trkpt lat="44.24552" lon="4.70081">
        <ele>89.557525</ele>
        <time>2025-02-03T10:27:20.020Z</time>
      </trkpt>
      <trkpt lat="44.24548" lon="4.70095">
        <ele>89.634383</ele>
        <time>2025-02-03T10:27:24.039Z</time>
      </trkpt>
      <trkpt lat="44.24543" lon="4.70108">
        <ele>89.733281</ele>
        <time>2025-02-03T10:27:28.030Z</time>
      </trkpt>
      <trkpt lat="44.24538" lon="4.70121">
        <ele>89.837168</ele>
        <time>2025-02-03T10:27:32.021Z</time>
      </trkpt>
      <trkpt lat="44.24533" lon="4.70135">
        <ele>89.936409</ele>
        <time>2025-02-03T10:27:36.024Z</time>
      </trkpt>
      <trkpt lat="44.24528" lon="4.70149">
        <ele>90.043739</ele>
        <time>2025-02-03T10:27:40.023Z</time>
      </trkpt>
      <trkpt lat="44.24523" lon="4.70164">
        <ele>90.154535</ele>
        <time>2025-02-03T10:27:44.022Z</time>
      </trkpt>
      <trkpt lat="44.24519" lon="4.70175">
        <ele>90.239997</ele>
        <time>2025-02-03T10:27:47.001Z</time>
      </trkpt>
      <trkpt lat="44.24514" lon="4.70187">
        <ele>90.329991</ele>
        <time>2025-02-03T10:27:50.035Z</time>
      </trkpt>
      <trkpt lat="44.24509" lon="4.702">
        <ele>90.427196</ele>
        <time>2025-02-03T10:27:53.048Z</time>
      </trkpt>
      <trkpt lat="44.24504" lon="4.70212">
        <ele>90.524761</ele>
        <time>2025-02-03T10:27:56.033Z</time>
      </trkpt>
      <trkpt lat="44.245" lon="4.70225">
        <ele>90.622388</ele>
        <time>2025-02-03T10:27:59.027Z</time>
      </trkpt>
      <trkpt lat="44.24495" lon="4.70238">
        <ele>90.72076</ele>
        <time>2025-02-03T10:28:02.029Z</time>
      </trkpt>
      <trkpt lat="44.2449" lon="4.70251">
        <ele>90.817966</ele>
        <time>2025-02-03T10:28:05.041Z</time>
      </trkpt>
      <trkpt lat="44.24485" lon="4.70264">
        <ele>90.920431</ele>
        <time>2025-02-03T10:28:08.031Z</time>
      </trkpt>
      <trkpt lat="44.2448" lon="4.70277">
        <ele>91.02081</ele>
        <time>2025-02-03T10:28:11.037Z</time>
      </trkpt>
      <trkpt lat="44.24475" lon="4.7029">
        <ele>91.117334</ele>
        <time>2025-02-03T10:28:14.022Z</time>
      </trkpt>
      <trkpt lat="44.24469" lon="4.70305">
        <ele>91.23124</ele>
        <time>2025-02-03T10:28:17.048Z</time>
      </trkpt>
      <trkpt lat="44.24463" lon="4.70321">
        <ele>91.147761</ele>
        <time>2025-02-03T10:28:20.007Z</time>
      </trkpt>
      <trkpt lat="44.24457" lon="4.70337">
        <ele>91.014269</ele>
        <time>2025-02-03T10:28:23.024Z</time>
      </trkpt>
      <trkpt lat="44.24453" lon="4.70349">
        <ele>90.920819</ele>
        <time>2025-02-03T10:28:25.042Z</time>
      </trkpt>
      <trkpt lat="44.24448" lon="4.70361">
        <ele>90.822775</ele>
        <time>2025-02-03T10:28:27.057Z</time>
      </trkpt>
      <trkpt lat="44.24444" lon="4.70373">
        <ele>90.72154</ele>
        <time>2025-02-03T10:28:29.026Z</time>
      </trkpt>
      <trkpt lat="44.24439" lon="4.70386">
        <ele>90.62048</ele>
        <time>2025-02-03T10:28:31.017Z</time>
      </trkpt>
      <trkpt lat="44.24434" lon="4.70398">
        <ele>90.516674</ele>
        <time>2025-02-03T10:28:33.032Z</time>
      </trkpt>
      <trkpt lat="44.2443" lon="4.70412">
        <ele>90.40984</ele>
        <time>2025-02-03T10:28:35.030Z</time>
      </trkpt>
      <trkpt lat="44.24425" lon="4.70425">
        <ele>90.299421</ele>
        <time>2025-02-03T10:28:37.025Z</time>
      </trkpt>
      <trkpt lat="44.24419" lon="4.70438">
        <ele>90.19354</ele>
        <time>2025-02-03T10:28:39.032Z</time>
      </trkpt>
      <trkpt lat="44.24414" lon="4.70452">
        <ele>90.083675</ele>
        <time>2025-02-03T10:28:41.033Z</time>
      </trkpt>
      <trkpt lat="44.24409" lon="4.70465">
        <ele>89.97378</ele>
        <time>2025-02-03T10:28:43.036Z</time>
      </trkpt>
      <trkpt lat="44.24403" lon="4.70478">
        <ele>89.863265</ele>
        <time>2025-02-03T10:28:45.028Z</time>
      </trkpt>
      <trkpt lat="44.24397" lon="4.70489">
        <ele>89.758866</ele>
        <time>2025-02-03T10:28:47.024Z</time>
      </trkpt>
      <trkpt lat="44.2439" lon="4.705">
        <ele>89.656589</ele>
        <time>2025-02-03T10:28:49.022Z</time>
      </trkpt>
      <trkpt lat="44.24383" lon="4.7051">
        <ele>89.555868</ele>
        <time>2025-02-03T10:28:51.032Z</time>
      </trkpt>
      <trkpt lat="44.24376" lon="4.70519">
        <ele>89.462609</ele>
        <time>2025-02-03T10:28:56.027Z</time>
      </trkpt>
      <trkpt lat="44.24363" lon="4.70522">
        <ele>89.584011</ele>
        <time>2025-02-03T10:30:33.012Z</time>
      </trkpt>
      <trkpt lat="44.24354" lon="4.70529">
        <ele>89.702422</ele>
        <time>2025-02-03T10:30:36.025Z</time>
      </trkpt>
      <trkpt lat="44.24343" lon="4.70533">
        <ele>89.840084</ele>
        <time>2025-02-03T10:30:39.012Z</time>
      </trkpt>
      <trkpt lat="44.2433" lon="4.70533">
        <ele>90.000094</ele>
        <time>2025-02-03T10:30:41.996Z</time>
      </trkpt>
      <trkpt lat="44.2432" lon="4.70532">
        <ele>90.109207</ele>
        <time>2025-02-03T10:30:44.011Z</time>
      </trkpt>
      <trkpt lat="44.24311" lon="4.70532">
        <ele>90.221806</ele>
        <time>2025-02-03T10:30:46.027Z</time>
      </trkpt>
      <trkpt lat="44.24302" lon="4.70531">
        <ele>90.329036</ele>
        <time>2025-02-03T10:30:48.025Z</time>
      </trkpt>
      <trkpt lat="44.24292" lon="4.7053">
        <ele>90.443341</ele>
        <time>2025-02-03T10:30:50.016Z</time>
      </trkpt>
      <trkpt lat="44.24283" lon="4.70529">
        <ele>90.557567</ele>
        <time>2025-02-03T10:30:52.006Z</time>
      </trkpt>
      <trkpt lat="44.24273" lon="4.70528">
        <ele>90.675142</ele>
        <time>2025-02-03T10:30:54.016Z</time>
      </trkpt>
      <trkpt lat="44.24263" lon="4.70526">
        <ele>90.793815</ele>
        <time>2025-02-03T10:30:56.020Z</time>
      </trkpt>
      <trkpt lat="44.24253" lon="4.70525">
        <ele>90.910108</ele>
        <time>2025-02-03T10:30:58.024Z</time>
      </trkpt>
      <trkpt lat="44.24243" lon="4.70524">
        <ele>91.027876</ele>
        <time>2025-02-03T10:31:00.017Z</time>
      </trkpt>
      <trkpt lat="44.24234" lon="4.70522">
        <ele>91.142181</ele>
        <time>2025-02-03T10:31:02.039Z</time>
      </trkpt>
      <trkpt lat="44.24224" lon="4.70521">
        <ele>91.253905</ele>
        <time>2025-02-03T10:31:04.021Z</time>
      </trkpt>
      <trkpt lat="44.24215" lon="4.70521">
        <ele>91.363097</ele>
        <time>2025-02-03T10:31:06.020Z</time>
      </trkpt>
      <trkpt lat="44.24206" lon="4.70519">
        <ele>91.474254</ele>
        <time>2025-02-03T10:31:08.016Z</time>
      </trkpt>
      <trkpt lat="44.24197" lon="4.70518">
        <ele>91.571731</ele>
        <time>2025-02-03T10:31:10.030Z</time>
      </trkpt>
      <trkpt lat="44.24184" lon="4.70519">
        <ele>91.423743</ele>
        <time>2025-02-03T10:31:13.030Z</time>
      </trkpt>
      <trkpt lat="44.24172" lon="4.70522">
        <ele>91.28469</ele>
        <time>2025-02-03T10:31:16.033Z</time>
      </trkpt>
      <trkpt lat="44.24161" lon="4.70526">
        <ele>91.158265</ele>
        <time>2025-02-03T10:31:19.017Z</time>
      </trkpt>
      <trkpt lat="44.24151" lon="4.7053">
        <ele>91.031425</ele>
        <time>2025-02-03T10:31:22.016Z</time>
      </trkpt>
      <trkpt lat="44.2414" lon="4.70533">
        <ele>90.911646</ele>
        <time>2025-02-03T10:31:25.047Z</time>
      </trkpt>
      <trkpt lat="44.24131" lon="4.70535">
        <ele>90.803002</ele>
        <time>2025-02-03T10:31:28.023Z</time>
      </trkpt>
      <trkpt lat="44.24122" lon="4.70535">
        <ele>90.697643</ele>
        <time>2025-02-03T10:31:31.017Z</time>
      </trkpt>
      <trkpt lat="44.24112" lon="4.70534">
        <ele>90.588885</ele>
        <time>2025-02-03T10:31:34.025Z</time>
      </trkpt>
      <trkpt lat="44.24102" lon="4.70535">
        <ele>90.472815</ele>
        <time>2025-02-03T10:31:37.037Z</time>
      </trkpt>
      <trkpt lat="44.24091" lon="4.70535">
        <ele>90.339897</ele>
        <time>2025-02-03T10:31:40.025Z</time>
      </trkpt>
      <trkpt lat="44.24082" lon="4.70536">
        <ele>90.234346</ele>
        <time>2025-02-03T10:31:42.025Z</time>
      </trkpt>
      <trkpt lat="44.24072" lon="4.70537">
        <ele>90.130065</ele>
        <time>2025-02-03T10:31:44.016Z</time>
      </trkpt>
      <trkpt lat="44.24061" lon="4.70538">
        <ele>89.995889</ele>
        <time>2025-02-03T10:31:45.994Z</time>
      </trkpt>
      <trkpt lat="44.24049" lon="4.70539">
        <ele>89.855576</ele>
        <time>2025-02-03T10:31:48.021Z</time>
      </trkpt>
      <trkpt lat="44.24036" lon="4.70541">
        <ele>89.711983</ele>
        <time>2025-02-03T10:31:50.023Z</time>
      </trkpt>
      <trkpt lat="44.24023" lon="4.70542">
        <ele>89.558116</ele>
        <time>2025-02-03T10:31:51.996Z</time>
      </trkpt>
      <trkpt lat="44.24009" lon="4.70543">
        <ele>89.434849</ele>
        <time>2025-02-03T10:31:54.012Z</time>
      </trkpt>
      <trkpt lat="44.23995" lon="4.70546">
        <ele>89.31861</ele>
        <time>2025-02-03T10:31:56.061Z</time>
      </trkpt>
      <trkpt lat="44.23981" lon="4.70547">
        <ele>89.205375</ele>
        <time>2025-02-03T10:31:58.019Z</time>
      </trkpt>
      <trkpt lat="44.23967" lon="4.70548">
        <ele>89.091435</ele>
        <time>2025-02-03T10:32:00.024Z</time>
      </trkpt>
      <trkpt lat="44.23953" lon="4.70549">
        <ele>88.978236</ele>
        <time>2025-02-03T10:32:02.021Z</time>
      </trkpt>
      <trkpt lat="44.23939" lon="4.70551">
        <ele>88.865723</ele>
        <time>2025-02-03T10:32:04.024Z</time>
      </trkpt>
      <trkpt lat="44.23925" lon="4.70553">
        <ele>88.755526</ele>
        <time>2025-02-03T10:32:06.021Z</time>
      </trkpt>
      <trkpt lat="44.23911" lon="4.70554">
        <ele>88.644004</ele>
        <time>2025-02-03T10:32:08.012Z</time>
      </trkpt>
      <trkpt lat="44.23898" lon="4.70556">
        <ele>88.535244</ele>
        <time>2025-02-03T10:32:10.033Z</time>
      </trkpt>
      <trkpt lat="44.23884" lon="4.70557">
        <ele>88.425267</ele>
        <time>2025-02-03T10:32:12.007Z</time>
      </trkpt>
      <trkpt lat="44.23871" lon="4.70558">
        <ele>88.319353</ele>
        <time>2025-02-03T10:32:14.011Z</time>
      </trkpt>
      <trkpt lat="44.23858" lon="4.70559">
        <ele>88.215014</ele>
        <time>2025-02-03T10:32:16.042Z</time>
      </trkpt>
      <trkpt lat="44.23846" lon="4.70561">
        <ele>88.11434</ele>
        <time>2025-02-03T10:32:18.026Z</time>
      </trkpt>
      <trkpt lat="44.23834" lon="4.70562">
        <ele>88.067466</ele>
        <time>2025-02-03T10:32:20.019Z</time>
      </trkpt>
      <trkpt lat="44.23823" lon="4.70563">
        <ele>88.073283</ele>
        <time>2025-02-03T10:32:22.015Z</time>
      </trkpt>
      <trkpt lat="44.23811" lon="4.70565">
        <ele>88.079003</ele>
        <time>2025-02-03T10:32:24.021Z</time>
      </trkpt>
      <trkpt lat="44.23801" lon="4.70565">
        <ele>88.084199</ele>
        <time>2025-02-03T10:32:26.022Z</time>
      </trkpt>
      <trkpt lat="44.23789" lon="4.70571">
        <ele>88.090465</ele>
        <time>2025-02-03T10:32:29.003Z</time>
      </trkpt>
      <trkpt lat="44.23786" lon="4.70588">
        <ele>88.096782</ele>
        <time>2025-02-03T10:32:32.020Z</time>
      </trkpt>
      <trkpt lat="44.2379" lon="4.706">
        <ele>88.101467</ele>
        <time>2025-02-03T10:32:34.022Z</time>
      </trkpt>
      <trkpt lat="44.23794" lon="4.70611">
        <ele>88.106055</ele>
        <time>2025-02-03T10:32:36.021Z</time>
      </trkpt>
      <trkpt lat="44.23798" lon="4.70622">
        <ele>88.110632</ele>
        <time>2025-02-03T10:32:38.039Z</time>
      </trkpt>
      <trkpt lat="44.23801" lon="4.70635">
        <ele>88.11531</ele>
        <time>2025-02-03T10:32:40.012Z</time>
      </trkpt>
      <trkpt lat="44.23798" lon="4.70651">
        <ele>88.121613</ele>
        <time>2025-02-03T10:32:43.010Z</time>
      </trkpt>
      <trkpt lat="44.23786" lon="4.70656">
        <ele>88.127658</ele>
        <time>2025-02-03T10:32:46.023Z</time>
      </trkpt>
      <trkpt lat="44.23777" lon="4.70656">
        <ele>88.132301</ele>
        <time>2025-02-03T10:32:48.003Z</time>
      </trkpt>
      <trkpt lat="44.23768" lon="4.70655">
        <ele>88.136896</ele>
        <time>2025-02-03T10:32:50.014Z</time>
      </trkpt>
      <trkpt lat="44.23759" lon="4.70655">
        <ele>88.141541</ele>
        <time>2025-02-03T10:32:52.020Z</time>
      </trkpt>
      <trkpt lat="44.23749" lon="4.70655">
        <ele>88.146131</ele>
        <time>2025-02-03T10:32:54.010Z</time>
      </trkpt>
      <trkpt lat="44.23741" lon="4.70655">
        <ele>88.150626</ele>
        <time>2025-02-03T10:32:55.995Z</time>
      </trkpt>
      <trkpt lat="44.23731" lon="4.70655">
        <ele>88.155682</ele>
        <time>2025-02-03T10:32:57.990Z</time>
      </trkpt>
      <trkpt lat="44.2372" lon="4.70655">
        <ele>88.160895</ele>
        <time>2025-02-03T10:33:00.000Z</time>
      </trkpt>
      <trkpt lat="44.2371" lon="4.70655">
        <ele>88.166108</ele>
        <time>2025-02-03T10:33:02.020Z</time>
      </trkpt>
      <trkpt lat="44.23701" lon="4.70656">
        <ele>88.171066</ele>
        <time>2025-02-03T10:33:04.023Z</time>
      </trkpt>
      <trkpt lat="44.23691" lon="4.70656">
        <ele>88.176124</ele>
        <time>2025-02-03T10:33:06.018Z</time>
      </trkpt>
      <trkpt lat="44.23681" lon="4.70656">
        <ele>88.181028</ele>
        <time>2025-02-03T10:33:08.022Z</time>
      </trkpt>
      <trkpt lat="44.23672" lon="4.70656">
        <ele>88.186087</ele>
        <time>2025-02-03T10:33:10.019Z</time>
      </trkpt>
      <trkpt lat="44.23662" lon="4.70657">
        <ele>88.191153</ele>
        <time>2025-02-03T10:33:12.017Z</time>
      </trkpt>
      <trkpt lat="44.23652" lon="4.70658">
        <ele>88.196234</ele>
        <time>2025-02-03T10:33:14.017Z</time>
      </trkpt>
      <trkpt lat="44.23642" lon="4.70659">
        <ele>88.201556</ele>
        <time>2025-02-03T10:33:16.018Z</time>
      </trkpt>
      <trkpt lat="44.23632" lon="4.7066">
        <ele>88.206787</ele>
        <time>2025-02-03T10:33:18.035Z</time>
      </trkpt>
      <trkpt lat="44.23622" lon="4.70661">
        <ele>88.211905</ele>
        <time>2025-02-03T10:33:20.015Z</time>
      </trkpt>
      <trkpt lat="44.23612" lon="4.70662">
        <ele>88.217137</ele>
        <time>2025-02-03T10:33:22.044Z</time>
      </trkpt>
      <trkpt lat="44.23601" lon="4.70663">
        <ele>88.222465</ele>
        <time>2025-02-03T10:33:24.041Z</time>
      </trkpt>
      <trkpt lat="44.23591" lon="4.70664">
        <ele>88.2278</ele>
        <time>2025-02-03T10:33:26.014Z</time>
      </trkpt>
      <trkpt lat="44.23581" lon="4.70666">
        <ele>88.233035</ele>
        <time>2025-02-03T10:33:27.997Z</time>
      </trkpt>
      <trkpt lat="44.23571" lon="4.70667">
        <ele>88.238183</ele>
        <time>2025-02-03T10:33:30.027Z</time>
      </trkpt>
      <trkpt lat="44.23562" lon="4.70669">
        <ele>88.2429</ele>
        <time>2025-02-03T10:33:32.015Z</time>
      </trkpt>
      <trkpt lat="44.23552" lon="4.70671">
        <ele>88.247224</ele>
        <time>2025-02-03T10:33:34.035Z</time>
      </trkpt>
      <trkpt lat="44.23542" lon="4.70672">
        <ele>88.146228</ele>
        <time>2025-02-03T10:33:36.010Z</time>
      </trkpt>
      <trkpt lat="44.23531" lon="4.70673">
        <ele>88.045572</ele>
        <time>2025-02-03T10:33:38.004Z</time>
      </trkpt>
      <trkpt lat="44.23522" lon="4.70675">
        <ele>87.947167</ele>
        <time>2025-02-03T10:33:40.037Z</time>
      </trkpt>
      <trkpt lat="44.23512" lon="4.70678">
        <ele>87.852221</ele>
        <time>2025-02-03T10:33:42.030Z</time>
      </trkpt>
      <trkpt lat="44.23503" lon="4.7068">
        <ele>87.754342</ele>
        <time>2025-02-03T10:33:44.022Z</time>
      </trkpt>
      <trkpt lat="44.23493" lon="4.70683">
        <ele>87.658015</ele>
        <time>2025-02-03T10:33:46.031Z</time>
      </trkpt>
      <trkpt lat="44.23484" lon="4.70685">
        <ele>87.563069</ele>
        <time>2025-02-03T10:33:48.024Z</time>
      </trkpt>
      <trkpt lat="44.23474" lon="4.70688">
        <ele>87.465166</ele>
        <time>2025-02-03T10:33:50.013Z</time>
      </trkpt>
      <trkpt lat="44.23464" lon="4.70691">
        <ele>87.366309</ele>
        <time>2025-02-03T10:33:52.014Z</time>
      </trkpt>
      <trkpt lat="44.23455" lon="4.70693">
        <ele>87.270121</ele>
        <time>2025-02-03T10:33:54.016Z</time>
      </trkpt>
      <trkpt lat="44.23445" lon="4.70695">
        <ele>87.17161</ele>
        <time>2025-02-03T10:33:56.015Z</time>
      </trkpt>
      <trkpt lat="44.23436" lon="4.70698">
        <ele>87.076398</ele>
        <time>2025-02-03T10:33:58.013Z</time>
      </trkpt>
      <trkpt lat="44.23426" lon="4.70701">
        <ele>86.975742</ele>
        <time>2025-02-03T10:34:00.026Z</time>
      </trkpt>
      <trkpt lat="44.23416" lon="4.70704">
        <ele>86.875578</ele>
        <time>2025-02-03T10:34:02.016Z</time>
      </trkpt>
      <trkpt lat="44.23406" lon="4.70708">
        <ele>86.769541</ele>
        <time>2025-02-03T10:34:04.027Z</time>
      </trkpt>
      <trkpt lat="44.23395" lon="4.70712">
        <ele>86.662727</ele>
        <time>2025-02-03T10:34:06.013Z</time>
      </trkpt>
      <trkpt lat="44.23385" lon="4.70716">
        <ele>86.559753</ele>
        <time>2025-02-03T10:34:08.012Z</time>
      </trkpt>
      <trkpt lat="44.23375" lon="4.7072">
        <ele>86.456365</ele>
        <time>2025-02-03T10:34:10.015Z</time>
      </trkpt>
      <trkpt lat="44.23364" lon="4.70724">
        <ele>86.370072</ele>
        <time>2025-02-03T10:34:12.008Z</time>
      </trkpt>
      <trkpt lat="44.23354" lon="4.70728">
        <ele>86.288385</ele>
        <time>2025-02-03T10:34:14.014Z</time>
      </trkpt>
      <trkpt lat="44.23344" lon="4.70732">
        <ele>86.208075</ele>
        <time>2025-02-03T10:34:16.010Z</time>
      </trkpt>
      <trkpt lat="44.23334" lon="4.70735">
        <ele>86.128371</ele>
        <time>2025-02-03T10:34:18.029Z</time>
      </trkpt>
      <trkpt lat="44.23325" lon="4.70739">
        <ele>86.051667</ele>
        <time>2025-02-03T10:34:20.018Z</time>
      </trkpt>
      <trkpt lat="44.23316" lon="4.70743">
        <ele>85.976891</ele>
        <time>2025-02-03T10:34:22.045Z</time>
      </trkpt>
      <trkpt lat="44.23307" lon="4.70748">
        <ele>85.902485</ele>
        <time>2025-02-03T10:34:24.003Z</time>
      </trkpt>
      <trkpt lat="44.23297" lon="4.70752">
        <ele>85.826059</ele>
        <time>2025-02-03T10:34:26.023Z</time>
      </trkpt>
      <trkpt lat="44.23289" lon="4.70756">
        <ele>85.753909</ele>
        <time>2025-02-03T10:34:28.041Z</time>
      </trkpt>
      <trkpt lat="44.2328" lon="4.7076">
        <ele>85.683785</ele>
        <time>2025-02-03T10:34:30.027Z</time>
      </trkpt>
      <trkpt lat="44.23271" lon="4.70765">
        <ele>85.610355</ele>
        <time>2025-02-03T10:34:32.019Z</time>
      </trkpt>
      <trkpt lat="44.23262" lon="4.70769">
        <ele>85.537469</ele>
        <time>2025-02-03T10:34:34.017Z</time>
      </trkpt>
      <trkpt lat="44.23254" lon="4.70773">
        <ele>85.464772</ele>
        <time>2025-02-03T10:34:36.015Z</time>
      </trkpt>
      <trkpt lat="44.23245" lon="4.70778">
        <ele>85.39318</ele>
        <time>2025-02-03T10:34:38.017Z</time>
      </trkpt>
      <trkpt lat="44.23236" lon="4.70783">
        <ele>85.316398</ele>
        <time>2025-02-03T10:34:40.028Z</time>
      </trkpt>
      <trkpt lat="44.23227" lon="4.70787">
        <ele>85.242589</ele>
        <time>2025-02-03T10:34:42.017Z</time>
      </trkpt>
      <trkpt lat="44.23218" lon="4.70792">
        <ele>85.167128</ele>
        <time>2025-02-03T10:34:44.010Z</time>
      </trkpt>
      <trkpt lat="44.23209" lon="4.70797">
        <ele>85.092851</ele>
        <time>2025-02-03T10:34:46.016Z</time>
      </trkpt>
      <trkpt lat="44.232" lon="4.70802">
        <ele>85.01262</ele>
        <time>2025-02-03T10:34:48.025Z</time>
      </trkpt>
      <trkpt lat="44.23191" lon="4.70806">
        <ele>84.929418</ele>
        <time>2025-02-03T10:34:50.040Z</time>
      </trkpt>
      <trkpt lat="44.23182" lon="4.70811">
        <ele>84.851308</ele>
        <time>2025-02-03T10:34:52.033Z</time>
      </trkpt>
      <trkpt lat="44.23169" lon="4.70816">
        <ele>84.736641</ele>
        <time>2025-02-03T10:34:55.046Z</time>
      </trkpt>
      <trkpt lat="44.2316" lon="4.70815">
        <ele>84.656919</ele>
        <time>2025-02-03T10:34:57.033Z</time>
      </trkpt>
      <trkpt lat="44.23152" lon="4.7081">
        <ele>84.575634</ele>
        <time>2025-02-03T10:34:59.018Z</time>
      </trkpt>
      <trkpt lat="44.23144" lon="4.70803">
        <ele>84.495447</ele>
        <time>2025-02-03T10:35:01.034Z</time>
      </trkpt>
      <trkpt lat="44.23136" lon="4.70795">
        <ele>84.411809</ele>
        <time>2025-02-03T10:35:03.022Z</time>
      </trkpt>
      <trkpt lat="44.23126" lon="4.70793">
        <ele>84.329867</ele>
        <time>2025-02-03T10:35:04.999Z</time>
      </trkpt>
      <trkpt lat="44.23115" lon="4.70798">
        <ele>84.229127</ele>
        <time>2025-02-03T10:35:07.999Z</time>
      </trkpt>
      <trkpt lat="44.23109" lon="4.70808">
        <ele>84.144829</ele>
        <time>2025-02-03T10:35:11.002Z</time>
      </trkpt>
      <trkpt lat="44.23102" lon="4.70818">
        <ele>84.059865</ele>
        <time>2025-02-03T10:35:14.020Z</time>
      </trkpt>
      <trkpt lat="44.23092" lon="4.70823">
        <ele>83.964835</ele>
        <time>2025-02-03T10:35:17.034Z</time>
      </trkpt>
      <trkpt lat="44.2308" lon="4.70829">
        <ele>83.856537</ele>
        <time>2025-02-03T10:35:20.005Z</time>
      </trkpt>
      <trkpt lat="44.23067" lon="4.70832">
        <ele>83.743653</ele>
        <time>2025-02-03T10:35:23.009Z</time>
      </trkpt>
      <trkpt lat="44.23056" lon="4.70843">
        <ele>83.629229</ele>
        <time>2025-02-03T10:35:26.010Z</time>
      </trkpt>
      <trkpt lat="44.23053" lon="4.70859">
        <ele>83.526463</ele>
        <time>2025-02-03T10:35:28.015Z</time>
      </trkpt>
      <trkpt lat="44.23048" lon="4.70873">
        <ele>83.567851</ele>
        <time>2025-02-03T10:35:29.996Z</time>
      </trkpt>
      <trkpt lat="44.23039" lon="4.70882">
        <ele>83.638041</ele>
        <time>2025-02-03T10:35:32.020Z</time>
      </trkpt>
      <trkpt lat="44.23028" lon="4.70887">
        <ele>83.70892</ele>
        <time>2025-02-03T10:35:33.996Z</time>
      </trkpt>
      <trkpt lat="44.23018" lon="4.70893">
        <ele>83.780002</ele>
        <time>2025-02-03T10:35:35.995Z</time>
      </trkpt>
      <trkpt lat="44.23008" lon="4.70898">
        <ele>83.84796</ele>
        <time>2025-02-03T10:35:38.000Z</time>
      </trkpt>
      <trkpt lat="44.22998" lon="4.70904">
        <ele>83.916624</ele>
        <time>2025-02-03T10:35:40.011Z</time>
      </trkpt>
      <trkpt lat="44.22988" lon="4.7091">
        <ele>83.983342</ele>
        <time>2025-02-03T10:35:42.034Z</time>
      </trkpt>
      <trkpt lat="44.22979" lon="4.70916">
        <ele>84.048146</ele>
        <time>2025-02-03T10:35:44.020Z</time>
      </trkpt>
      <trkpt lat="44.2297" lon="4.70922">
        <ele>84.113931</ele>
        <time>2025-02-03T10:35:46.020Z</time>
      </trkpt>
      <trkpt lat="44.2296" lon="4.70926">
        <ele>84.176403</ele>
        <time>2025-02-03T10:35:48.000Z</time>
      </trkpt>
      <trkpt lat="44.2295" lon="4.70931">
        <ele>84.242364</ele>
        <time>2025-02-03T10:35:50.019Z</time>
      </trkpt>
      <trkpt lat="44.22941" lon="4.70935">
        <ele>84.30501</ele>
        <time>2025-02-03T10:35:52.017Z</time>
      </trkpt>
      <trkpt lat="44.22932" lon="4.70941">
        <ele>84.369929</ele>
        <time>2025-02-03T10:35:54.016Z</time>
      </trkpt>
      <trkpt lat="44.22922" lon="4.70946">
        <ele>84.434521</ele>
        <time>2025-02-03T10:35:56.014Z</time>
      </trkpt>
      <trkpt lat="44.22913" lon="4.70951">
        <ele>84.499905</ele>
        <time>2025-02-03T10:35:58.027Z</time>
      </trkpt>
      <trkpt lat="44.22903" lon="4.70956">
        <ele>84.564027</ele>
        <time>2025-02-03T10:36:00.024Z</time>
      </trkpt>
      <trkpt lat="44.22894" lon="4.70961">
        <ele>84.629655</ele>
        <time>2025-02-03T10:36:02.022Z</time>
      </trkpt>
      <trkpt lat="44.22884" lon="4.70966">
        <ele>84.672571</ele>
        <time>2025-02-03T10:36:04.014Z</time>
      </trkpt>
      <trkpt lat="44.22875" lon="4.70972">
        <ele>84.703351</ele>
        <time>2025-02-03T10:36:06.033Z</time>
      </trkpt>
      <trkpt lat="44.22865" lon="4.70977">
        <ele>84.734142</ele>
        <time>2025-02-03T10:36:08.009Z</time>
      </trkpt>
      <trkpt lat="44.22855" lon="4.70983">
        <ele>84.765516</ele>
        <time>2025-02-03T10:36:10.011Z</time>
      </trkpt>
      <trkpt lat="44.22845" lon="4.70987">
        <ele>84.796443</ele>
        <time>2025-02-03T10:36:12.014Z</time>
      </trkpt>
      <trkpt lat="44.22835" lon="4.70993">
        <ele>84.827867</ele>
        <time>2025-02-03T10:36:14.019Z</time>
      </trkpt>
      <trkpt lat="44.22826" lon="4.70998">
        <ele>84.857754</ele>
        <time>2025-02-03T10:36:16.020Z</time>
      </trkpt>
      <trkpt lat="44.22817" lon="4.71003">
        <ele>84.887232</ele>
        <time>2025-02-03T10:36:18.012Z</time>
      </trkpt>
      <trkpt lat="44.22808" lon="4.71008">
        <ele>84.915644</ele>
        <time>2025-02-03T10:36:20.019Z</time>
      </trkpt>
      <trkpt lat="44.22799" lon="4.71011">
        <ele>84.943983</ele>
        <time>2025-02-03T10:36:22.035Z</time>
      </trkpt>
      <trkpt lat="44.22789" lon="4.71012">
        <ele>84.973763</ele>
        <time>2025-02-03T10:36:24.017Z</time>
      </trkpt>
      <trkpt lat="44.22779" lon="4.7101">
        <ele>85.004943</ele>
        <time>2025-02-03T10:36:26.027Z</time>
      </trkpt>
      <trkpt lat="44.22768" lon="4.71008">
        <ele>85.03594</ele>
        <time>2025-02-03T10:36:28.015Z</time>
      </trkpt>
      <trkpt lat="44.22758" lon="4.71006">
        <ele>85.066528</ele>
        <time>2025-02-03T10:36:30.017Z</time>
      </trkpt>
      <trkpt lat="44.22748" lon="4.71005">
        <ele>85.096712</ele>
        <time>2025-02-03T10:36:32.016Z</time>
      </trkpt>
      <trkpt lat="44.22738" lon="4.71004">
        <ele>85.126915</ele>
        <time>2025-02-03T10:36:34.006Z</time>
      </trkpt>
      <trkpt lat="44.22728" lon="4.71003">
        <ele>85.157362</ele>
        <time>2025-02-03T10:36:36.012Z</time>
      </trkpt>
      <trkpt lat="44.22717" lon="4.71002">
        <ele>85.190005</ele>
        <time>2025-02-03T10:36:38.036Z</time>
      </trkpt>
      <trkpt lat="44.22707" lon="4.71">
        <ele>85.228251</ele>
        <time>2025-02-03T10:36:40.019Z</time>
      </trkpt>
      <trkpt lat="44.22697" lon="4.70998">
        <ele>85.268205</ele>
        <time>2025-02-03T10:36:42.032Z</time>
      </trkpt>
      <trkpt lat="44.22687" lon="4.70996">
        <ele>85.306532</ele>
        <time>2025-02-03T10:36:44.011Z</time>
      </trkpt>
      <trkpt lat="44.22677" lon="4.70995">
        <ele>85.345441</ele>
        <time>2025-02-03T10:36:46.019Z</time>
      </trkpt>
      <trkpt lat="44.22667" lon="4.70994">
        <ele>85.384602</ele>
        <time>2025-02-03T10:36:48.025Z</time>
      </trkpt>
      <trkpt lat="44.22657" lon="4.70992">
        <ele>85.422271</ele>
        <time>2025-02-03T10:36:50.015Z</time>
      </trkpt>
      <trkpt lat="44.22647" lon="4.70992">
        <ele>85.461724</ele>
        <time>2025-02-03T10:36:52.038Z</time>
      </trkpt>
      <trkpt lat="44.22637" lon="4.70992">
        <ele>85.501927</ele>
        <time>2025-02-03T10:36:54.034Z</time>
      </trkpt>
      <trkpt lat="44.22626" lon="4.7099">
        <ele>85.542892</ele>
        <time>2025-02-03T10:36:56.024Z</time>
      </trkpt>
      <trkpt lat="44.22615" lon="4.70988">
        <ele>85.585259</ele>
        <time>2025-02-03T10:36:58.044Z</time>
      </trkpt>
      <trkpt lat="44.22605" lon="4.70987">
        <ele>85.626007</ele>
        <time>2025-02-03T10:37:00.019Z</time>
      </trkpt>
      <trkpt lat="44.22595" lon="4.70986">
        <ele>85.664857</ele>
        <time>2025-02-03T10:37:02.027Z</time>
      </trkpt>
      <trkpt lat="44.22584" lon="4.70984">
        <ele>85.704534</ele>
        <time>2025-02-03T10:37:04.045Z</time>
      </trkpt>
      <trkpt lat="44.22574" lon="4.70984">
        <ele>85.743206</ele>
        <time>2025-02-03T10:37:06.013Z</time>
      </trkpt>
      <trkpt lat="44.22565" lon="4.70982">
        <ele>85.780902</ele>
        <time>2025-02-03T10:37:08.042Z</time>
      </trkpt>
      <trkpt lat="44.22554" lon="4.70981">
        <ele>85.821379</ele>
        <time>2025-02-03T10:37:10.017Z</time>
      </trkpt>
      <trkpt lat="44.22544" lon="4.70979">
        <ele>85.86311</ele>
        <time>2025-02-03T10:37:12.021Z</time>
      </trkpt>
      <trkpt lat="44.22534" lon="4.70982">
        <ele>85.886755</ele>
        <time>2025-02-03T10:37:14.025Z</time>
      </trkpt>
      <trkpt lat="44.22527" lon="4.70993">
        <ele>85.893486</ele>
        <time>2025-02-03T10:37:16.008Z</time>
      </trkpt>
      <trkpt lat="44.22523" lon="4.71006">
        <ele>85.900171</ele>
        <time>2025-02-03T10:37:18.028Z</time>
      </trkpt>
      <trkpt lat="44.2252" lon="4.71019">
        <ele>85.906463</ele>
        <time>2025-02-03T10:37:20.025Z</time>
      </trkpt>
      <trkpt lat="44.22516" lon="4.71032">
        <ele>85.912899</ele>
        <time>2025-02-03T10:37:22.018Z</time>
      </trkpt>
      <trkpt lat="44.22513" lon="4.71044">
        <ele>85.919058</ele>
        <time>2025-02-03T10:37:24.018Z</time>
      </trkpt>
      <trkpt lat="44.2251" lon="4.71057">
        <ele>85.925328</ele>
        <time>2025-02-03T10:37:26.028Z</time>
      </trkpt>
      <trkpt lat="44.22506" lon="4.71069">
        <ele>85.931377</ele>
        <time>2025-02-03T10:37:28.040Z</time>
      </trkpt>
      <trkpt lat="44.22503" lon="4.71082">
        <ele>85.937797</ele>
        <time>2025-02-03T10:37:30.021Z</time>
      </trkpt>
      <trkpt lat="44.225" lon="4.71095">
        <ele>85.944043</ele>
        <time>2025-02-03T10:37:32.041Z</time>
      </trkpt>
      <trkpt lat="44.22496" lon="4.71108">
        <ele>85.95031</ele>
        <time>2025-02-03T10:37:34.011Z</time>
      </trkpt>
      <trkpt lat="44.22493" lon="4.7112">
        <ele>85.956628</ele>
        <time>2025-02-03T10:37:36.004Z</time>
      </trkpt>
      <trkpt lat="44.22489" lon="4.71134">
        <ele>85.963266</ele>
        <time>2025-02-03T10:37:38.017Z</time>
      </trkpt>
      <trkpt lat="44.22486" lon="4.71146">
        <ele>85.969229</ele>
        <time>2025-02-03T10:37:40.031Z</time>
      </trkpt>
      <trkpt lat="44.22483" lon="4.71158">
        <ele>85.975257</ele>
        <time>2025-02-03T10:37:42.003Z</time>
      </trkpt>
      <trkpt lat="44.22479" lon="4.71171">
        <ele>85.98155</ele>
        <time>2025-02-03T10:37:44.017Z</time>
      </trkpt>
      <trkpt lat="44.22476" lon="4.71183">
        <ele>85.987647</ele>
        <time>2025-02-03T10:37:46.018Z</time>
      </trkpt>
      <trkpt lat="44.22471" lon="4.712">
        <ele>85.996361</ele>
        <time>2025-02-03T10:37:48.998Z</time>
      </trkpt>
      <trkpt lat="44.22468" lon="4.71213">
        <ele>86.010593</ele>
        <time>2025-02-03T10:37:51.026Z</time>
      </trkpt>
      <trkpt lat="44.22464" lon="4.71225">
        <ele>86.036455</ele>
        <time>2025-02-03T10:37:53.029Z</time>
      </trkpt>
      <trkpt lat="44.2246" lon="4.71237">
        <ele>86.061572</ele>
        <time>2025-02-03T10:37:55.026Z</time>
      </trkpt>
      <trkpt lat="44.22454" lon="4.71247">
        <ele>86.086583</ele>
        <time>2025-02-03T10:37:57.023Z</time>
      </trkpt>
      <trkpt lat="44.22447" lon="4.71255">
        <ele>86.1122</ele>
        <time>2025-02-03T10:37:59.023Z</time>
      </trkpt>
      <trkpt lat="44.22439" lon="4.71263">
        <ele>86.139714</ele>
        <time>2025-02-03T10:38:01.023Z</time>
      </trkpt>
      <trkpt lat="44.2243" lon="4.71269">
        <ele>86.167304</ele>
        <time>2025-02-03T10:38:03.028Z</time>
      </trkpt>
      <trkpt lat="44.22421" lon="4.71276">
        <ele>86.194486</ele>
        <time>2025-02-03T10:38:05.025Z</time>
      </trkpt>
      <trkpt lat="44.22412" lon="4.71284">
        <ele>86.222334</ele>
        <time>2025-02-03T10:38:07.014Z</time>
      </trkpt>
      <trkpt lat="44.22404" lon="4.71291">
        <ele>86.250043</ele>
        <time>2025-02-03T10:38:09.019Z</time>
      </trkpt>
      <trkpt lat="44.22395" lon="4.71299">
        <ele>86.27836</ele>
        <time>2025-02-03T10:38:11.019Z</time>
      </trkpt>
      <trkpt lat="44.22386" lon="4.71306">
        <ele>86.305906</ele>
        <time>2025-02-03T10:38:13.031Z</time>
      </trkpt>
      <trkpt lat="44.22377" lon="4.71315">
        <ele>86.334757</ele>
        <time>2025-02-03T10:38:15.037Z</time>
      </trkpt>
      <trkpt lat="44.22368" lon="4.71323">
        <ele>86.363952</ele>
        <time>2025-02-03T10:38:17.018Z</time>
      </trkpt>
      <trkpt lat="44.22359" lon="4.71331">
        <ele>86.392921</ele>
        <time>2025-02-03T10:38:19.019Z</time>
      </trkpt>
      <trkpt lat="44.22351" lon="4.71339">
        <ele>86.420698</ele>
        <time>2025-02-03T10:38:21.015Z</time>
      </trkpt>
      <trkpt lat="44.22342" lon="4.71347">
        <ele>86.449102</ele>
        <time>2025-02-03T10:38:23.017Z</time>
      </trkpt>
      <trkpt lat="44.22334" lon="4.71355">
        <ele>86.47706</ele>
        <time>2025-02-03T10:38:25.026Z</time>
      </trkpt>
      <trkpt lat="44.22325" lon="4.71364">
        <ele>86.461392</ele>
        <time>2025-02-03T10:38:27.030Z</time>
      </trkpt>
      <trkpt lat="44.22317" lon="4.71371">
        <ele>86.415254</ele>
        <time>2025-02-03T10:38:29.021Z</time>
      </trkpt>
      <trkpt lat="44.22308" lon="4.71379">
        <ele>86.370768</ele>
        <time>2025-02-03T10:38:31.022Z</time>
      </trkpt>
      <trkpt lat="44.22301" lon="4.71386">
        <ele>86.329604</ele>
        <time>2025-02-03T10:38:33.019Z</time>
      </trkpt>
      <trkpt lat="44.22292" lon="4.71394">
        <ele>86.283481</ele>
        <time>2025-02-03T10:38:35.029Z</time>
      </trkpt>
      <trkpt lat="44.22284" lon="4.71403">
        <ele>86.238809</ele>
        <time>2025-02-03T10:38:37.017Z</time>
      </trkpt>
      <trkpt lat="44.22277" lon="4.7141">
        <ele>86.197648</ele>
        <time>2025-02-03T10:38:39.024Z</time>
      </trkpt>
      <trkpt lat="44.22269" lon="4.71418">
        <ele>86.15482</ele>
        <time>2025-02-03T10:38:41.032Z</time>
      </trkpt>
      <trkpt lat="44.22261" lon="4.71426">
        <ele>86.109249</ele>
        <time>2025-02-03T10:38:43.030Z</time>
      </trkpt>
      <trkpt lat="44.22254" lon="4.71434">
        <ele>86.068435</ele>
        <time>2025-02-03T10:38:45.015Z</time>
      </trkpt>
      <trkpt lat="44.22246" lon="4.71441">
        <ele>86.024886</ele>
        <time>2025-02-03T10:38:47.014Z</time>
      </trkpt>
      <trkpt lat="44.22238" lon="4.71449">
        <ele>85.982226</ele>
        <time>2025-02-03T10:38:49.026Z</time>
      </trkpt>
      <trkpt lat="44.22227" lon="4.7146">
        <ele>85.922139</ele>
        <time>2025-02-03T10:38:52.021Z</time>
      </trkpt>
      <trkpt lat="44.2222" lon="4.71468">
        <ele>85.880839</ele>
        <time>2025-02-03T10:38:54.020Z</time>
      </trkpt>
      <trkpt lat="44.22213" lon="4.71476">
        <ele>85.840217</ele>
        <time>2025-02-03T10:38:56.015Z</time>
      </trkpt>
      <trkpt lat="44.22203" lon="4.71487">
        <ele>85.784143</ele>
        <time>2025-02-03T10:38:58.999Z</time>
      </trkpt>
      <trkpt lat="44.22196" lon="4.71494">
        <ele>85.743347</ele>
        <time>2025-02-03T10:39:01.021Z</time>
      </trkpt>
      <trkpt lat="44.22188" lon="4.71502">
        <ele>85.702892</ele>
        <time>2025-02-03T10:39:02.998Z</time>
      </trkpt>
      <trkpt lat="44.22181" lon="4.71511">
        <ele>85.659688</ele>
        <time>2025-02-03T10:39:05.020Z</time>
      </trkpt>
      <trkpt lat="44.22174" lon="4.71519">
        <ele>85.615013</ele>
        <time>2025-02-03T10:39:07.023Z</time>
      </trkpt>
      <trkpt lat="44.22163" lon="4.7153">
        <ele>85.549696</ele>
        <time>2025-02-03T10:39:10.028Z</time>
      </trkpt>
      <trkpt lat="44.22157" lon="4.71538">
        <ele>85.506205</ele>
        <time>2025-02-03T10:39:12.033Z</time>
      </trkpt>
      <trkpt lat="44.22146" lon="4.7155">
        <ele>85.441824</ele>
        <time>2025-02-03T10:39:15.032Z</time>
      </trkpt>
      <trkpt lat="44.22139" lon="4.71558">
        <ele>85.39646</ele>
        <time>2025-02-03T10:39:17.049Z</time>
      </trkpt>
      <trkpt lat="44.22128" lon="4.7157">
        <ele>85.331865</ele>
        <time>2025-02-03T10:39:20.020Z</time>
      </trkpt>
      <trkpt lat="44.22121" lon="4.71578">
        <ele>85.287849</ele>
        <time>2025-02-03T10:39:22.019Z</time>
      </trkpt>
      <trkpt lat="44.22111" lon="4.71591">
        <ele>85.223326</ele>
        <time>2025-02-03T10:39:25.016Z</time>
      </trkpt>
      <trkpt lat="44.22104" lon="4.71599">
        <ele>85.177467</ele>
        <time>2025-02-03T10:39:27.023Z</time>
      </trkpt>
      <trkpt lat="44.22097" lon="4.71607">
        <ele>85.13329</ele>
        <time>2025-02-03T10:39:29.004Z</time>
      </trkpt>
      <trkpt lat="44.22087" lon="4.71618">
        <ele>85.072508</ele>
        <time>2025-02-03T10:39:32.036Z</time>
      </trkpt>
      <trkpt lat="44.22078" lon="4.71629">
        <ele>85.01362</ele>
        <time>2025-02-03T10:39:35.013Z</time>
      </trkpt>
      <trkpt lat="44.22067" lon="4.7164">
        <ele>84.947918</ele>
        <time>2025-02-03T10:39:38.022Z</time>
      </trkpt>
      <trkpt lat="44.22059" lon="4.71648">
        <ele>84.902767</ele>
        <time>2025-02-03T10:39:40.025Z</time>
      </trkpt>
      <trkpt lat="44.2205" lon="4.7166">
        <ele>84.842469</ele>
        <time>2025-02-03T10:39:43.031Z</time>
      </trkpt>
      <trkpt lat="44.22042" lon="4.71671">
        <ele>84.929537</ele>
        <time>2025-02-03T10:39:46.022Z</time>
      </trkpt>
      <trkpt lat="44.22034" lon="4.7168">
        <ele>85.147985</ele>
        <time>2025-02-03T10:39:49.022Z</time>
      </trkpt>
      <trkpt lat="44.22025" lon="4.71689">
        <ele>85.362907</ele>
        <time>2025-02-03T10:39:52.022Z</time>
      </trkpt>
      <trkpt lat="44.22017" lon="4.71698">
        <ele>85.577187</ele>
        <time>2025-02-03T10:39:55.035Z</time>
      </trkpt>
      <trkpt lat="44.22008" lon="4.71707">
        <ele>85.789714</ele>
        <time>2025-02-03T10:39:58.022Z</time>
      </trkpt>
      <trkpt lat="44.22" lon="4.71716">
        <ele>86.001507</ele>
        <time>2025-02-03T10:40:01.013Z</time>
      </trkpt>
      <trkpt lat="44.21992" lon="4.71724">
        <ele>86.202294</ele>
        <time>2025-02-03T10:40:04.023Z</time>
      </trkpt>
      <trkpt lat="44.21983" lon="4.71731">
        <ele>86.407244</ele>
        <time>2025-02-03T10:40:07.038Z</time>
      </trkpt>
      <trkpt lat="44.21974" lon="4.71737">
        <ele>86.61214</ele>
        <time>2025-02-03T10:40:10.012Z</time>
      </trkpt>
      <trkpt lat="44.21965" lon="4.71742">
        <ele>86.815396</ele>
        <time>2025-02-03T10:40:13.036Z</time>
      </trkpt>
      <trkpt lat="44.21956" lon="4.71747">
        <ele>87.005769</ele>
        <time>2025-02-03T10:40:16.017Z</time>
      </trkpt>
      <trkpt lat="44.21946" lon="4.71752">
        <ele>87.208797</ele>
        <time>2025-02-03T10:40:19.015Z</time>
      </trkpt>
      <trkpt lat="44.21937" lon="4.71757">
        <ele>87.410181</ele>
        <time>2025-02-03T10:40:22.020Z</time>
      </trkpt>
      <trkpt lat="44.21929" lon="4.71762">
        <ele>87.593115</ele>
        <time>2025-02-03T10:40:25.019Z</time>
      </trkpt>
      <trkpt lat="44.21918" lon="4.71769">
        <ele>87.830472</ele>
        <time>2025-02-03T10:40:29.018Z</time>
      </trkpt>
      <trkpt lat="44.21909" lon="4.71777">
        <ele>88.05573</ele>
        <time>2025-02-03T10:40:33.030Z</time>
      </trkpt>
      <trkpt lat="44.21901" lon="4.71786">
        <ele>88.266409</ele>
        <time>2025-02-03T10:40:37.025Z</time>
      </trkpt>
      <trkpt lat="44.21893" lon="4.71799">
        <ele>88.407955</ele>
        <time>2025-02-03T10:40:41.013Z</time>
      </trkpt>
      <trkpt lat="44.21886" lon="4.71813">
        <ele>88.227933</ele>
        <time>2025-02-03T10:40:44.011Z</time>
      </trkpt>
      <trkpt lat="44.21879" lon="4.71829">
        <ele>88.016308</ele>
        <time>2025-02-03T10:40:47.008Z</time>
      </trkpt>
      <trkpt lat="44.21872" lon="4.71841">
        <ele>87.852451</ele>
        <time>2025-02-03T10:40:49.040Z</time>
      </trkpt>
      <trkpt lat="44.21866" lon="4.71854">
        <ele>87.677801</ele>
        <time>2025-02-03T10:40:51.024Z</time>
      </trkpt>
      <trkpt lat="44.21859" lon="4.71867">
        <ele>87.495001</ele>
        <time>2025-02-03T10:40:53.025Z</time>
      </trkpt>
      <trkpt lat="44.2185" lon="4.7188">
        <ele>87.304623</ele>
        <time>2025-02-03T10:40:55.030Z</time>
      </trkpt>
      <trkpt lat="44.21841" lon="4.71894">
        <ele>87.099406</ele>
        <time>2025-02-03T10:40:57.023Z</time>
      </trkpt>
      <trkpt lat="44.2183" lon="4.71906">
        <ele>86.881681</ele>
        <time>2025-02-03T10:40:59.006Z</time>
      </trkpt>
      <trkpt lat="44.21818" lon="4.71918">
        <ele>86.650175</ele>
        <time>2025-02-03T10:41:01.019Z</time>
      </trkpt>
      <trkpt lat="44.21806" lon="4.71931">
        <ele>86.417331</ele>
        <time>2025-02-03T10:41:03.017Z</time>
      </trkpt>
      <trkpt lat="44.21793" lon="4.71946">
        <ele>86.168872</ele>
        <time>2025-02-03T10:41:05.025Z</time>
      </trkpt>
      <trkpt lat="44.2178" lon="4.71959">
        <ele>85.917998</ele>
        <time>2025-02-03T10:41:07.022Z</time>
      </trkpt>
      <trkpt lat="44.21766" lon="4.71971">
        <ele>85.679265</ele>
        <time>2025-02-03T10:41:09.007Z</time>
      </trkpt>
      <trkpt lat="44.21751" lon="4.71984">
        <ele>85.600548</ele>
        <time>2025-02-03T10:41:11.015Z</time>
      </trkpt>
      <trkpt lat="44.21738" lon="4.71998">
        <ele>85.522838</ele>
        <time>2025-02-03T10:41:13.015Z</time>
      </trkpt>
      <trkpt lat="44.21724" lon="4.72011">
        <ele>85.446074</ele>
        <time>2025-02-03T10:41:15.030Z</time>
      </trkpt>
      <trkpt lat="44.2171" lon="4.72021">
        <ele>85.373168</ele>
        <time>2025-02-03T10:41:17.029Z</time>
      </trkpt>
      <trkpt lat="44.21698" lon="4.72033">
        <ele>85.304365</ele>
        <time>2025-02-03T10:41:19.017Z</time>
      </trkpt>
      <trkpt lat="44.21686" lon="4.72044">
        <ele>85.238227</ele>
        <time>2025-02-03T10:41:21.019Z</time>
      </trkpt>
      <trkpt lat="44.21675" lon="4.72055">
        <ele>85.175907</ele>
        <time>2025-02-03T10:41:23.015Z</time>
      </trkpt>
      <trkpt lat="44.21664" lon="4.72064">
        <ele>85.115055</ele>
        <time>2025-02-03T10:41:25.031Z</time>
      </trkpt>
      <trkpt lat="44.21653" lon="4.72074">
        <ele>85.056139</ele>
        <time>2025-02-03T10:41:27.022Z</time>
      </trkpt>
      <trkpt lat="44.21643" lon="4.72082">
        <ele>85.000006</ele>
        <time>2025-02-03T10:41:28.994Z</time>
      </trkpt>
      <trkpt lat="44.21632" lon="4.72091">
        <ele>84.944616</ele>
        <time>2025-02-03T10:41:30.991Z</time>
      </trkpt>
      <trkpt lat="44.21622" lon="4.721">
        <ele>84.888261</ele>
        <time>2025-02-03T10:41:33.016Z</time>
      </trkpt>
      <trkpt lat="44.21612" lon="4.72109">
        <ele>84.85322</ele>
        <time>2025-02-03T10:41:35.007Z</time>
      </trkpt>
      <trkpt lat="44.21602" lon="4.72116">
        <ele>84.846304</ele>
        <time>2025-02-03T10:41:37.029Z</time>
      </trkpt>
      <trkpt lat="44.21593" lon="4.72124">
        <ele>84.839323</ele>
        <time>2025-02-03T10:41:39.003Z</time>
      </trkpt>
      <trkpt lat="44.21583" lon="4.72132">
        <ele>84.832531</ele>
        <time>2025-02-03T10:41:41.017Z</time>
      </trkpt>
      <trkpt lat="44.21574" lon="4.72139">
        <ele>84.825768</ele>
        <time>2025-02-03T10:41:43.021Z</time>
      </trkpt>
      <trkpt lat="44.21564" lon="4.72146">
        <ele>84.818972</ele>
        <time>2025-02-03T10:41:45.025Z</time>
      </trkpt>
      <trkpt lat="44.21555" lon="4.72154">
        <ele>84.812249</ele>
        <time>2025-02-03T10:41:47.036Z</time>
      </trkpt>
      <trkpt lat="44.21545" lon="4.7216">
        <ele>84.80573</ele>
        <time>2025-02-03T10:41:49.028Z</time>
      </trkpt>
      <trkpt lat="44.21536" lon="4.72167">
        <ele>84.799127</ele>
        <time>2025-02-03T10:41:51.024Z</time>
      </trkpt>
      <trkpt lat="44.21527" lon="4.72174">
        <ele>84.7927</ele>
        <time>2025-02-03T10:41:53.018Z</time>
      </trkpt>
      <trkpt lat="44.21517" lon="4.72181">
        <ele>84.785891</ele>
        <time>2025-02-03T10:41:55.023Z</time>
      </trkpt>
      <trkpt lat="44.21508" lon="4.72188">
        <ele>84.779268</ele>
        <time>2025-02-03T10:41:57.016Z</time>
      </trkpt>
      <trkpt lat="44.21498" lon="4.72195">
        <ele>84.772615</ele>
        <time>2025-02-03T10:41:59.034Z</time>
      </trkpt>
      <trkpt lat="44.21489" lon="4.72201">
        <ele>84.765945</ele>
        <time>2025-02-03T10:42:01.033Z</time>
      </trkpt>
      <trkpt lat="44.21479" lon="4.72207">
        <ele>84.759442</ele>
        <time>2025-02-03T10:42:03.020Z</time>
      </trkpt>
      <trkpt lat="44.2147" lon="4.72213">
        <ele>84.753035</ele>
        <time>2025-02-03T10:42:05.020Z</time>
      </trkpt>
      <trkpt lat="44.2146" lon="4.72219">
        <ele>84.746703</ele>
        <time>2025-02-03T10:42:07.021Z</time>
      </trkpt>
      <trkpt lat="44.21451" lon="4.72225">
        <ele>84.774149</ele>
        <time>2025-02-03T10:42:09.020Z</time>
      </trkpt>
      <trkpt lat="44.21441" lon="4.72229">
        <ele>84.821206</ele>
        <time>2025-02-03T10:42:11.020Z</time>
      </trkpt>
      <trkpt lat="44.21432" lon="4.72235">
        <ele>84.866157</ele>
        <time>2025-02-03T10:42:13.018Z</time>
      </trkpt>
      <trkpt lat="44.2142" lon="4.72242">
        <ele>84.925614</ele>
        <time>2025-02-03T10:42:16.022Z</time>
      </trkpt>
      <trkpt lat="44.21408" lon="4.72251">
        <ele>84.987262</ele>
        <time>2025-02-03T10:42:19.002Z</time>
      </trkpt>
      <trkpt lat="44.21395" lon="4.72257">
        <ele>85.049081</ele>
        <time>2025-02-03T10:42:22.031Z</time>
      </trkpt>
      <trkpt lat="44.21386" lon="4.72262">
        <ele>85.092846</ele>
        <time>2025-02-03T10:42:24.048Z</time>
      </trkpt>
      <trkpt lat="44.21378" lon="4.72266">
        <ele>85.134409</ele>
        <time>2025-02-03T10:42:26.017Z</time>
      </trkpt>
      <trkpt lat="44.21369" lon="4.72271">
        <ele>85.176402</ele>
        <time>2025-02-03T10:42:28.021Z</time>
      </trkpt>
      <trkpt lat="44.2136" lon="4.72276">
        <ele>85.220591</ele>
        <time>2025-02-03T10:42:30.013Z</time>
      </trkpt>
      <trkpt lat="44.21351" lon="4.72281">
        <ele>85.265747</ele>
        <time>2025-02-03T10:42:32.018Z</time>
      </trkpt>
      <trkpt lat="44.21342" lon="4.72286">
        <ele>85.311572</ele>
        <time>2025-02-03T10:42:34.015Z</time>
      </trkpt>
      <trkpt lat="44.21332" lon="4.7229">
        <ele>85.356696</ele>
        <time>2025-02-03T10:42:36.043Z</time>
      </trkpt>
      <trkpt lat="44.21323" lon="4.72295">
        <ele>85.402565</ele>
        <time>2025-02-03T10:42:38.019Z</time>
      </trkpt>
      <trkpt lat="44.21313" lon="4.72299">
        <ele>85.447556</ele>
        <time>2025-02-03T10:42:40.037Z</time>
      </trkpt>
      <trkpt lat="44.21304" lon="4.72303">
        <ele>85.492916</ele>
        <time>2025-02-03T10:42:42.016Z</time>
      </trkpt>
      <trkpt lat="44.21295" lon="4.72308">
        <ele>85.537318</ele>
        <time>2025-02-03T10:42:44.010Z</time>
      </trkpt>
      <trkpt lat="44.21286" lon="4.72311">
        <ele>85.589519</ele>
        <time>2025-02-03T10:42:46.015Z</time>
      </trkpt>
      <trkpt lat="44.21276" lon="4.72313">
        <ele>85.657265</ele>
        <time>2025-02-03T10:42:48.038Z</time>
      </trkpt>
      <trkpt lat="44.21267" lon="4.72317">
        <ele>85.724868</ele>
        <time>2025-02-03T10:42:50.020Z</time>
      </trkpt>
      <trkpt lat="44.21258" lon="4.7232">
        <ele>85.790351</ele>
        <time>2025-02-03T10:42:52.036Z</time>
      </trkpt>
      <trkpt lat="44.21249" lon="4.72324">
        <ele>85.856957</ele>
        <time>2025-02-03T10:42:53.998Z</time>
      </trkpt>
      <trkpt lat="44.21237" lon="4.72329">
        <ele>85.949429</ele>
        <time>2025-02-03T10:42:57.040Z</time>
      </trkpt>
      <trkpt lat="44.21225" lon="4.72334">
        <ele>86.034102</ele>
        <time>2025-02-03T10:43:00.018Z</time>
      </trkpt>
      <trkpt lat="44.21214" lon="4.72338">
        <ele>86.112083</ele>
        <time>2025-02-03T10:43:03.024Z</time>
      </trkpt>
      <trkpt lat="44.21204" lon="4.72342">
        <ele>86.190484</ele>
        <time>2025-02-03T10:43:06.564Z</time>
      </trkpt>
      <trkpt lat="44.21194" lon="4.72344">
        <ele>86.26172</ele>
        <time>2025-02-03T10:43:09.008Z</time>
      </trkpt>
      <trkpt lat="44.21184" lon="4.72345">
        <ele>86.334953</ele>
        <time>2025-02-03T10:43:12.024Z</time>
      </trkpt>
      <trkpt lat="44.21174" lon="4.72346">
        <ele>86.402456</ele>
        <time>2025-02-03T10:43:15.020Z</time>
      </trkpt>
      <trkpt lat="44.21163" lon="4.72346">
        <ele>86.481882</ele>
        <time>2025-02-03T10:43:19.017Z</time>
      </trkpt>
      <trkpt lat="44.21152" lon="4.72346">
        <ele>86.558489</ele>
        <time>2025-02-03T10:43:23.029Z</time>
      </trkpt>
      <trkpt lat="44.21141" lon="4.72344">
        <ele>86.640472</ele>
        <time>2025-02-03T10:43:27.002Z</time>
      </trkpt>
      <trkpt lat="44.21129" lon="4.72343">
        <ele>86.719636</ele>
        <time>2025-02-03T10:43:30.998Z</time>
      </trkpt>
      <trkpt lat="44.21118" lon="4.72341">
        <ele>86.798214</ele>
        <time>2025-02-03T10:43:35.009Z</time>
      </trkpt>
      <trkpt lat="44.21109" lon="4.72339">
        <ele>86.79769</ele>
        <time>2025-02-03T10:43:39.024Z</time>
      </trkpt>
      <trkpt lat="44.21097" lon="4.72338">
        <ele>86.676663</ele>
        <time>2025-02-03T10:43:44.026Z</time>
      </trkpt>
      <trkpt lat="44.21087" lon="4.72338">
        <ele>86.571169</ele>
        <time>2025-02-03T10:43:49.008Z</time>
      </trkpt>
      <trkpt lat="44.21078" lon="4.7234">
        <ele>86.469056</ele>
        <time>2025-02-03T10:43:54.008Z</time>
      </trkpt>
      <trkpt lat="44.21067" lon="4.72344">
        <ele>86.34361</ele>
        <time>2025-02-03T10:43:58.005Z</time>
      </trkpt>
      <trkpt lat="44.21054" lon="4.72351">
        <ele>86.19739</ele>
        <time>2025-02-03T10:44:01.027Z</time>
      </trkpt>
      <trkpt lat="44.21044" lon="4.72357">
        <ele>86.08467</ele>
        <time>2025-02-03T10:44:03.019Z</time>
      </trkpt>
      <trkpt lat="44.21033" lon="4.72362">
        <ele>85.956385</ele>
        <time>2025-02-03T10:44:05.029Z</time>
      </trkpt>
      <trkpt lat="44.2102" lon="4.72369">
        <ele>85.815233</ele>
        <time>2025-02-03T10:44:06.992Z</time>
      </trkpt>
      <trkpt lat="44.21007" lon="4.72375">
        <ele>85.66098</ele>
        <time>2025-02-03T10:44:08.995Z</time>
      </trkpt>
      <trkpt lat="44.20991" lon="4.7238">
        <ele>85.496124</ele>
        <time>2025-02-03T10:44:11.013Z</time>
      </trkpt>
      <trkpt lat="44.20975" lon="4.72382">
        <ele>85.317701</ele>
        <time>2025-02-03T10:44:13.001Z</time>
      </trkpt>
      <trkpt lat="44.20958" lon="4.72382">
        <ele>85.134422</ele>
        <time>2025-02-03T10:44:15.018Z</time>
      </trkpt>
      <trkpt lat="44.2094" lon="4.72382">
        <ele>84.943684</ele>
        <time>2025-02-03T10:44:17.045Z</time>
      </trkpt>
      <trkpt lat="44.20931" lon="4.72382">
        <ele>84.909553</ele>
        <time>2025-02-03T10:44:17.996Z</time>
      </trkpt>
      <trkpt lat="44.20913" lon="4.7238">
        <ele>84.874919</ele>
        <time>2025-02-03T10:44:20.011Z</time>
      </trkpt>
      <trkpt lat="44.20903" lon="4.72379">
        <ele>84.857219</ele>
        <time>2025-02-03T10:44:21.007Z</time>
      </trkpt>
      <trkpt lat="44.20886" lon="4.72379">
        <ele>84.823789</ele>
        <time>2025-02-03T10:44:23.018Z</time>
      </trkpt>
      <trkpt lat="44.20869" lon="4.72379">
        <ele>84.792091</ele>
        <time>2025-02-03T10:44:25.019Z</time>
      </trkpt>
      <trkpt lat="44.20853" lon="4.72379">
        <ele>84.761368</ele>
        <time>2025-02-03T10:44:27.039Z</time>
      </trkpt>
      <trkpt lat="44.20838" lon="4.72379">
        <ele>84.732364</ele>
        <time>2025-02-03T10:44:29.031Z</time>
      </trkpt>
      <trkpt lat="44.20824" lon="4.72378">
        <ele>84.704313</ele>
        <time>2025-02-03T10:44:31.024Z</time>
      </trkpt>
      <trkpt lat="44.2081" lon="4.72378">
        <ele>84.677805</ele>
        <time>2025-02-03T10:44:33.002Z</time>
      </trkpt>
      <trkpt lat="44.20797" lon="4.72378">
        <ele>84.652842</ele>
        <time>2025-02-03T10:44:35.025Z</time>
      </trkpt>
      <trkpt lat="44.20785" lon="4.72377">
        <ele>84.629217</ele>
        <time>2025-02-03T10:44:37.021Z</time>
      </trkpt>
      <trkpt lat="44.20772" lon="4.72377">
        <ele>84.604826</ele>
        <time>2025-02-03T10:44:39.017Z</time>
      </trkpt>
      <trkpt lat="44.2076" lon="4.72375">
        <ele>84.58187</ele>
        <time>2025-02-03T10:44:41.015Z</time>
      </trkpt>
      <trkpt lat="44.20748" lon="4.72375">
        <ele>84.544063</ele>
        <time>2025-02-03T10:44:43.023Z</time>
      </trkpt>
      <trkpt lat="44.20736" lon="4.72374">
        <ele>84.503278</ele>
        <time>2025-02-03T10:44:45.014Z</time>
      </trkpt>
      <trkpt lat="44.20724" lon="4.72374">
        <ele>84.462503</ele>
        <time>2025-02-03T10:44:46.999Z</time>
      </trkpt>
      <trkpt lat="44.20712" lon="4.72375">
        <ele>84.422748</ele>
        <time>2025-02-03T10:44:49.016Z</time>
      </trkpt>
      <trkpt lat="44.20701" lon="4.72374">
        <ele>84.38333</ele>
        <time>2025-02-03T10:44:51.019Z</time>
      </trkpt>
      <trkpt lat="44.20689" lon="4.72373">
        <ele>84.343807</ele>
        <time>2025-02-03T10:44:53.026Z</time>
      </trkpt>
      <trkpt lat="44.20678" lon="4.72373">
        <ele>84.305045</ele>
        <time>2025-02-03T10:44:55.013Z</time>
      </trkpt>
      <trkpt lat="44.20666" lon="4.72372">
        <ele>84.265951</ele>
        <time>2025-02-03T10:44:57.031Z</time>
      </trkpt>
      <trkpt lat="44.20655" lon="4.72372">
        <ele>84.227895</ele>
        <time>2025-02-03T10:44:59.027Z</time>
      </trkpt>
      <trkpt lat="44.20644" lon="4.72373">
        <ele>84.189133</ele>
        <time>2025-02-03T10:45:01.018Z</time>
      </trkpt>
      <trkpt lat="44.20632" lon="4.72372">
        <ele>84.15073</ele>
        <time>2025-02-03T10:45:03.020Z</time>
      </trkpt>
      <trkpt lat="44.20621" lon="4.72372">
        <ele>84.112335</ele>
        <time>2025-02-03T10:45:05.021Z</time>
      </trkpt>
      <trkpt lat="44.2061" lon="4.72372">
        <ele>84.075292</ele>
        <time>2025-02-03T10:45:07.012Z</time>
      </trkpt>
      <trkpt lat="44.20599" lon="4.72373">
        <ele>84.038575</ele>
        <time>2025-02-03T10:45:09.015Z</time>
      </trkpt>
      <trkpt lat="44.20588" lon="4.72373">
        <ele>84.001536</ele>
        <time>2025-02-03T10:45:11.021Z</time>
      </trkpt>
      <trkpt lat="44.20578" lon="4.72373">
        <ele>83.965352</ele>
        <time>2025-02-03T10:45:13.034Z</time>
      </trkpt>
      <trkpt lat="44.20567" lon="4.72373">
        <ele>83.93246</ele>
        <time>2025-02-03T10:45:14.999Z</time>
      </trkpt>
      <trkpt lat="44.20556" lon="4.72375">
        <ele>83.899452</ele>
        <time>2025-02-03T10:45:17.025Z</time>
      </trkpt>
      <trkpt lat="44.20545" lon="4.72376">
        <ele>83.864341</ele>
        <time>2025-02-03T10:45:19.010Z</time>
      </trkpt>
      <trkpt lat="44.20533" lon="4.72377">
        <ele>83.830139</ele>
        <time>2025-02-03T10:45:21.021Z</time>
      </trkpt>
      <trkpt lat="44.20523" lon="4.72379">
        <ele>83.796808</ele>
        <time>2025-02-03T10:45:23.023Z</time>
      </trkpt>
      <trkpt lat="44.20511" lon="4.72381">
        <ele>83.762849</ele>
        <time>2025-02-03T10:45:25.056Z</time>
      </trkpt>
      <trkpt lat="44.205" lon="4.72383">
        <ele>83.72856</ele>
        <time>2025-02-03T10:45:27.031Z</time>
      </trkpt>
      <trkpt lat="44.20489" lon="4.72386">
        <ele>83.693776</ele>
        <time>2025-02-03T10:45:29.021Z</time>
      </trkpt>
      <trkpt lat="44.20478" lon="4.72388">
        <ele>83.65885</ele>
        <time>2025-02-03T10:45:31.018Z</time>
      </trkpt>
      <trkpt lat="44.20467" lon="4.72391">
        <ele>83.62516</ele>
        <time>2025-02-03T10:45:33.023Z</time>
      </trkpt>
      <trkpt lat="44.20456" lon="4.72394">
        <ele>83.592369</ele>
        <time>2025-02-03T10:45:35.037Z</time>
      </trkpt>
      <trkpt lat="44.20445" lon="4.72396">
        <ele>83.558153</ele>
        <time>2025-02-03T10:45:37.026Z</time>
      </trkpt>
      <trkpt lat="44.20434" lon="4.724">
        <ele>83.52446</ele>
        <time>2025-02-03T10:45:39.015Z</time>
      </trkpt>
      <trkpt lat="44.20424" lon="4.72403">
        <ele>83.491289</ele>
        <time>2025-02-03T10:45:41.018Z</time>
      </trkpt>
      <trkpt lat="44.20413" lon="4.72406">
        <ele>83.458417</ele>
        <time>2025-02-03T10:45:43.031Z</time>
      </trkpt>
      <trkpt lat="44.20403" lon="4.72409">
        <ele>83.425564</ele>
        <time>2025-02-03T10:45:45.024Z</time>
      </trkpt>
      <trkpt lat="44.20392" lon="4.72413">
        <ele>83.41992</ele>
        <time>2025-02-03T10:45:47.010Z</time>
      </trkpt>
      <trkpt lat="44.20381" lon="4.72416">
        <ele>83.420444</ele>
        <time>2025-02-03T10:45:49.035Z</time>
      </trkpt>
      <trkpt lat="44.20371" lon="4.7242">
        <ele>83.420974</ele>
        <time>2025-02-03T10:45:51.025Z</time>
      </trkpt>
      <trkpt lat="44.2036" lon="4.72424">
        <ele>83.421482</ele>
        <time>2025-02-03T10:45:53.029Z</time>
      </trkpt>
      <trkpt lat="44.2035" lon="4.72428">
        <ele>83.421992</ele>
        <time>2025-02-03T10:45:55.019Z</time>
      </trkpt>
      <trkpt lat="44.2034" lon="4.72432">
        <ele>83.422503</ele>
        <time>2025-02-03T10:45:57.021Z</time>
      </trkpt>
      <trkpt lat="44.2033" lon="4.72436">
        <ele>83.423018</ele>
        <time>2025-02-03T10:45:59.019Z</time>
      </trkpt>
      <trkpt lat="44.20319" lon="4.72441">
        <ele>83.423536</ele>
        <time>2025-02-03T10:46:01.030Z</time>
      </trkpt>
      <trkpt lat="44.20309" lon="4.72445">
        <ele>83.424037</ele>
        <time>2025-02-03T10:46:03.021Z</time>
      </trkpt>
      <trkpt lat="44.20299" lon="4.7245">
        <ele>83.424549</ele>
        <time>2025-02-03T10:46:05.025Z</time>
      </trkpt>
      <trkpt lat="44.20289" lon="4.72455">
        <ele>83.425081</ele>
        <time>2025-02-03T10:46:07.020Z</time>
      </trkpt>
      <trkpt lat="44.20278" lon="4.72458">
        <ele>83.425613</ele>
        <time>2025-02-03T10:46:09.024Z</time>
      </trkpt>
      <trkpt lat="44.20267" lon="4.7246">
        <ele>83.426159</ele>
        <time>2025-02-03T10:46:11.026Z</time>
      </trkpt>
      <trkpt lat="44.20255" lon="4.7246">
        <ele>83.426697</ele>
        <time>2025-02-03T10:46:13.019Z</time>
      </trkpt>
      <trkpt lat="44.20245" lon="4.72457">
        <ele>83.427217</ele>
        <time>2025-02-03T10:46:15.020Z</time>
      </trkpt>
      <trkpt lat="44.20235" lon="4.72453">
        <ele>83.427725</ele>
        <time>2025-02-03T10:46:17.019Z</time>
      </trkpt>
      <trkpt lat="44.20225" lon="4.72449">
        <ele>83.427131</ele>
        <time>2025-02-03T10:46:19.013Z</time>
      </trkpt>
      <trkpt lat="44.20216" lon="4.72445">
        <ele>83.421699</ele>
        <time>2025-02-03T10:46:21.001Z</time>
      </trkpt>
      <trkpt lat="44.20207" lon="4.7244">
        <ele>83.416258</ele>
        <time>2025-02-03T10:46:23.033Z</time>
      </trkpt>
      <trkpt lat="44.20198" lon="4.72437">
        <ele>83.410989</ele>
        <time>2025-02-03T10:46:25.014Z</time>
      </trkpt>
      <trkpt lat="44.20186" lon="4.72431">
        <ele>83.403598</ele>
        <time>2025-02-03T10:46:28.016Z</time>
      </trkpt>
      <trkpt lat="44.20173" lon="4.72425">
        <ele>83.396221</ele>
        <time>2025-02-03T10:46:31.016Z</time>
      </trkpt>
      <trkpt lat="44.20164" lon="4.72421">
        <ele>83.390908</ele>
        <time>2025-02-03T10:46:33.012Z</time>
      </trkpt>
      <trkpt lat="44.20155" lon="4.72417">
        <ele>83.385602</ele>
        <time>2025-02-03T10:46:35.020Z</time>
      </trkpt>
      <trkpt lat="44.20147" lon="4.72413">
        <ele>83.380355</ele>
        <time>2025-02-03T10:46:37.016Z</time>
      </trkpt>
      <trkpt lat="44.20138" lon="4.72409">
        <ele>83.375008</ele>
        <time>2025-02-03T10:46:39.024Z</time>
      </trkpt>
      <trkpt lat="44.20128" lon="4.72406">
        <ele>83.369543</ele>
        <time>2025-02-03T10:46:41.007Z</time>
      </trkpt>
      <trkpt lat="44.20119" lon="4.72401">
        <ele>83.36409</ele>
        <time>2025-02-03T10:46:43.024Z</time>
      </trkpt>
      <trkpt lat="44.2011" lon="4.72397">
        <ele>83.358441</ele>
        <time>2025-02-03T10:46:45.021Z</time>
      </trkpt>
      <trkpt lat="44.201" lon="4.72393">
        <ele>83.352931</ele>
        <time>2025-02-03T10:46:47.017Z</time>
      </trkpt>
      <trkpt lat="44.20091" lon="4.72389">
        <ele>83.347598</ele>
        <time>2025-02-03T10:46:49.049Z</time>
      </trkpt>
      <trkpt lat="44.20083" lon="4.72384">
        <ele>83.342369</ele>
        <time>2025-02-03T10:46:51.014Z</time>
      </trkpt>
      <trkpt lat="44.20074" lon="4.7238">
        <ele>83.337223</ele>
        <time>2025-02-03T10:46:53.028Z</time>
      </trkpt>
      <trkpt lat="44.20065" lon="4.72377">
        <ele>83.332049</ele>
        <time>2025-02-03T10:46:55.024Z</time>
      </trkpt>
      <trkpt lat="44.20052" lon="4.72375">
        <ele>83.347656</ele>
        <time>2025-02-03T10:46:58.014Z</time>
      </trkpt>
      <trkpt lat="44.20042" lon="4.72385">
        <ele>83.443077</ele>
        <time>2025-02-03T10:47:01.024Z</time>
      </trkpt>
      <trkpt lat="44.20042" lon="4.724">
        <ele>83.529565</ele>
        <time>2025-02-03T10:47:04.024Z</time>
      </trkpt>
      <trkpt lat="44.20043" lon="4.72415">
        <ele>83.615715</ele>
        <time>2025-02-03T10:47:07.009Z</time>
      </trkpt>
      <trkpt lat="44.20046" lon="4.72431">
        <ele>83.705717</ele>
        <time>2025-02-03T10:47:10.009Z</time>
      </trkpt>
      <trkpt lat="44.20048" lon="4.72446">
        <ele>83.795437</ele>
        <time>2025-02-03T10:47:13.035Z</time>
      </trkpt>
      <trkpt lat="44.2005" lon="4.7246">
        <ele>83.877394</ele>
        <time>2025-02-03T10:47:16.015Z</time>
      </trkpt>
      <trkpt lat="44.20053" lon="4.72475">
        <ele>83.96189</ele>
        <time>2025-02-03T10:47:18.995Z</time>
      </trkpt>
      <trkpt lat="44.20055" lon="4.7249">
        <ele>84.046738</ele>
        <time>2025-02-03T10:47:22.021Z</time>
      </trkpt>
      <trkpt lat="44.20057" lon="4.72502">
        <ele>84.11881</ele>
        <time>2025-02-03T10:47:25.027Z</time>
      </trkpt>
      <trkpt lat="44.20058" lon="4.72516">
        <ele>84.19665</ele>
        <time>2025-02-03T10:47:29.025Z</time>
      </trkpt>
      <trkpt lat="44.20059" lon="4.7253">
        <ele>84.275698</ele>
        <time>2025-02-03T10:47:33.023Z</time>
      </trkpt>
      <trkpt lat="44.2006" lon="4.72543">
        <ele>84.349523</ele>
        <time>2025-02-03T10:47:37.015Z</time>
      </trkpt>
      <trkpt lat="44.20059" lon="4.72556">
        <ele>84.42203</ele>
        <time>2025-02-03T10:47:41.020Z</time>
      </trkpt>
      <trkpt lat="44.20058" lon="4.72571">
        <ele>84.50726</ele>
        <time>2025-02-03T10:47:45.995Z</time>
      </trkpt>
      <trkpt lat="44.20055" lon="4.72583">
        <ele>84.578439</ele>
        <time>2025-02-03T10:47:50.011Z</time>
      </trkpt>
      <trkpt lat="44.20053" lon="4.72595">
        <ele>84.652775</ele>
        <time>2025-02-03T10:47:54.020Z</time>
      </trkpt>
      <trkpt lat="44.20048" lon="4.72609">
        <ele>84.734924</ele>
        <time>2025-02-03T10:47:58.007Z</time>
      </trkpt>
      <trkpt lat="44.20044" lon="4.72623">
        <ele>84.710243</ele>
        <time>2025-02-03T10:48:01.025Z</time>
      </trkpt>
      <trkpt lat="44.20039" lon="4.72634">
        <ele>84.678567</ele>
        <time>2025-02-03T10:48:03.015Z</time>
      </trkpt>
      <trkpt lat="44.20034" lon="4.72645">
        <ele>84.64556</ele>
        <time>2025-02-03T10:48:05.014Z</time>
      </trkpt>
      <trkpt lat="44.20028" lon="4.72655">
        <ele>84.611744</ele>
        <time>2025-02-03T10:48:07.017Z</time>
      </trkpt>
      <trkpt lat="44.20017" lon="4.72664">
        <ele>84.570645</ele>
        <time>2025-02-03T10:48:10.027Z</time>
      </trkpt>
      <trkpt lat="44.20001" lon="4.72653">
        <ele>84.509317</ele>
        <time>2025-02-03T11:06:29.015Z</time>
      </trkpt>
      <trkpt lat="44.19993" lon="4.72647">
        <ele>84.476221</ele>
        <time>2025-02-03T11:06:33.070Z</time>
      </trkpt>
      <trkpt lat="44.19982" lon="4.72643">
        <ele>84.436999</ele>
        <time>2025-02-03T11:06:37.032Z</time>
      </trkpt>
      <trkpt lat="44.1997" lon="4.72638">
        <ele>84.39572</ele>
        <time>2025-02-03T11:06:40.997Z</time>
      </trkpt>
      <trkpt lat="44.1996" lon="4.72635">
        <ele>84.360576</ele>
        <time>2025-02-03T11:06:44.017Z</time>
      </trkpt>
      <trkpt lat="44.1995" lon="4.72632">
        <ele>84.324502</ele>
        <time>2025-02-03T11:06:47.037Z</time>
      </trkpt>
      <trkpt lat="44.1994" lon="4.72629">
        <ele>84.290387</ele>
        <time>2025-02-03T11:06:50.013Z</time>
      </trkpt>
      <trkpt lat="44.19929" lon="4.72627">
        <ele>84.252112</ele>
        <time>2025-02-03T11:06:53.025Z</time>
      </trkpt>
      <trkpt lat="44.19918" lon="4.72624">
        <ele>84.213679</ele>
        <time>2025-02-03T11:06:56.033Z</time>
      </trkpt>
      <trkpt lat="44.19907" lon="4.72621">
        <ele>84.174713</ele>
        <time>2025-02-03T11:06:59.040Z</time>
      </trkpt>
      <trkpt lat="44.19895" lon="4.72618">
        <ele>84.132309</ele>
        <time>2025-02-03T11:07:02.015Z</time>
      </trkpt>
      <trkpt lat="44.19884" lon="4.72615">
        <ele>84.077264</ele>
        <time>2025-02-03T11:07:05.021Z</time>
      </trkpt>
      <trkpt lat="44.19871" lon="4.72612">
        <ele>84.013159</ele>
        <time>2025-02-03T11:07:08.019Z</time>
      </trkpt>
      <trkpt lat="44.19857" lon="4.7261">
        <ele>83.946879</ele>
        <time>2025-02-03T11:07:11.024Z</time>
      </trkpt>
      <trkpt lat="44.19845" lon="4.72607">
        <ele>83.883814</ele>
        <time>2025-02-03T11:07:14.012Z</time>
      </trkpt>
      <trkpt lat="44.19832" lon="4.72605">
        <ele>83.819542</ele>
        <time>2025-02-03T11:07:17.016Z</time>
      </trkpt>
      <trkpt lat="44.1982" lon="4.72603">
        <ele>83.760722</ele>
        <time>2025-02-03T11:07:20.013Z</time>
      </trkpt>
      <trkpt lat="44.19807" lon="4.726">
        <ele>83.695041</ele>
        <time>2025-02-03T11:07:23.008Z</time>
      </trkpt>
      <trkpt lat="44.19795" lon="4.72597">
        <ele>83.633327</ele>
        <time>2025-02-03T11:07:26.001Z</time>
      </trkpt>
      <trkpt lat="44.19783" lon="4.72597">
        <ele>83.576871</ele>
        <time>2025-02-03T11:07:29.022Z</time>
      </trkpt>
      <trkpt lat="44.19771" lon="4.72597">
        <ele>83.516952</ele>
        <time>2025-02-03T11:07:32.005Z</time>
      </trkpt>
      <trkpt lat="44.19759" lon="4.72598">
        <ele>83.454015</ele>
        <time>2025-02-03T11:07:35.030Z</time>
      </trkpt>
      <trkpt lat="44.19747" lon="4.72599">
        <ele>83.396852</ele>
        <time>2025-02-03T11:07:38.018Z</time>
      </trkpt>
      <trkpt lat="44.19735" lon="4.72605">
        <ele>83.334303</ele>
        <time>2025-02-03T11:07:41.035Z</time>
      </trkpt>
      <trkpt lat="44.19723" lon="4.72611">
        <ele>83.271215</ele>
        <time>2025-02-03T11:07:44.004Z</time>
      </trkpt>
      <trkpt lat="44.19712" lon="4.72617">
        <ele>83.234081</ele>
        <time>2025-02-03T11:07:47.026Z</time>
      </trkpt>
      <trkpt lat="44.197" lon="4.72624">
        <ele>83.236534</ele>
        <time>2025-02-03T11:07:50.017Z</time>
      </trkpt>
      <trkpt lat="44.1969" lon="4.7263">
        <ele>83.238653</ele>
        <time>2025-02-03T11:07:53.035Z</time>
      </trkpt>
      <trkpt lat="44.1968" lon="4.7263">
        <ele>83.240728</ele>
        <time>2025-02-03T11:07:56.006Z</time>
      </trkpt>
      <trkpt lat="44.19675" lon="4.72615">
        <ele>83.242981</ele>
        <time>2025-02-03T11:07:59.018Z</time>
      </trkpt>
      <trkpt lat="44.19669" lon="4.726">
        <ele>83.245436</ele>
        <time>2025-02-03T11:08:02.006Z</time>
      </trkpt>
      <trkpt lat="44.19663" lon="4.72591">
        <ele>83.247232</ele>
        <time>2025-02-03T11:08:04.019Z</time>
      </trkpt>
      <trkpt lat="44.19651" lon="4.72586">
        <ele>83.24969</ele>
        <time>2025-02-03T11:08:07.011Z</time>
      </trkpt>
      <trkpt lat="44.19641" lon="4.72586">
        <ele>83.251529</ele>
        <time>2025-02-03T11:08:09.019Z</time>
      </trkpt>
      <trkpt lat="44.19632" lon="4.72585">
        <ele>83.253291</ele>
        <time>2025-02-03T11:08:11.003Z</time>
      </trkpt>
      <trkpt lat="44.19619" lon="4.72584">
        <ele>83.255859</ele>
        <time>2025-02-03T11:08:14.020Z</time>
      </trkpt>
      <trkpt lat="44.1961" lon="4.72584">
        <ele>83.25764</ele>
        <time>2025-02-03T11:08:16.025Z</time>
      </trkpt>
      <trkpt lat="44.19601" lon="4.72583">
        <ele>83.259406</ele>
        <time>2025-02-03T11:08:18.027Z</time>
      </trkpt>
      <trkpt lat="44.19592" lon="4.72582">
        <ele>83.261189</ele>
        <time>2025-02-03T11:08:20.034Z</time>
      </trkpt>
      <trkpt lat="44.19583" lon="4.72581">
        <ele>83.262975</ele>
        <time>2025-02-03T11:08:22.030Z</time>
      </trkpt>
      <trkpt lat="44.19574" lon="4.72581">
        <ele>83.264755</ele>
        <time>2025-02-03T11:08:23.996Z</time>
      </trkpt>
      <trkpt lat="44.19564" lon="4.72582">
        <ele>83.266594</ele>
        <time>2025-02-03T11:08:26.016Z</time>
      </trkpt>
      <trkpt lat="44.19555" lon="4.72581">
        <ele>83.271426</ele>
        <time>2025-02-03T11:08:28.020Z</time>
      </trkpt>
      <trkpt lat="44.19546" lon="4.7258">
        <ele>83.368928</ele>
        <time>2025-02-03T11:08:30.015Z</time>
      </trkpt>
      <trkpt lat="44.19536" lon="4.7258">
        <ele>83.467034</ele>
        <time>2025-02-03T11:08:32.016Z</time>
      </trkpt>
      <trkpt lat="44.19523" lon="4.7258">
        <ele>83.609382</ele>
        <time>2025-02-03T11:08:35.021Z</time>
      </trkpt>
      <trkpt lat="44.19513" lon="4.72581">
        <ele>83.711238</ele>
        <time>2025-02-03T11:08:37.033Z</time>
      </trkpt>
      <trkpt lat="44.19504" lon="4.72584">
        <ele>83.816567</ele>
        <time>2025-02-03T11:08:39.030Z</time>
      </trkpt>
      <trkpt lat="44.19494" lon="4.72585">
        <ele>83.921227</ele>
        <time>2025-02-03T11:08:41.017Z</time>
      </trkpt>
      <trkpt lat="44.19484" lon="4.72586">
        <ele>84.028108</ele>
        <time>2025-02-03T11:08:43.013Z</time>
      </trkpt>
      <trkpt lat="44.19474" lon="4.72587">
        <ele>84.133616</ele>
        <time>2025-02-03T11:08:44.991Z</time>
      </trkpt>
      <trkpt lat="44.19463" lon="4.72587">
        <ele>84.242223</ele>
        <time>2025-02-03T11:08:47.018Z</time>
      </trkpt>
      <trkpt lat="44.19453" lon="4.72587">
        <ele>84.348721</ele>
        <time>2025-02-03T11:08:49.020Z</time>
      </trkpt>
      <trkpt lat="44.19443" lon="4.72586">
        <ele>84.457643</ele>
        <time>2025-02-03T11:08:51.024Z</time>
      </trkpt>
      <trkpt lat="44.19433" lon="4.72583">
        <ele>84.565496</ele>
        <time>2025-02-03T11:08:53.000Z</time>
      </trkpt>
      <trkpt lat="44.19423" lon="4.72579">
        <ele>84.671811</ele>
        <time>2025-02-03T11:08:55.016Z</time>
      </trkpt>
      <trkpt lat="44.19414" lon="4.72575">
        <ele>84.773378</ele>
        <time>2025-02-03T11:08:56.997Z</time>
      </trkpt>
      <trkpt lat="44.19405" lon="4.72571">
        <ele>84.876785</ele>
        <time>2025-02-03T11:08:59.024Z</time>
      </trkpt>
      <trkpt lat="44.19396" lon="4.72568">
        <ele>84.971957</ele>
        <time>2025-02-03T11:09:01.017Z</time>
      </trkpt>
      <trkpt lat="44.19387" lon="4.72565">
        <ele>85.068681</ele>
        <time>2025-02-03T11:09:03.023Z</time>
      </trkpt>
      <trkpt lat="44.19378" lon="4.72563">
        <ele>85.163423</ele>
        <time>2025-02-03T11:09:05.019Z</time>
      </trkpt>
      <trkpt lat="44.19369" lon="4.7256">
        <ele>85.125515</ele>
        <time>2025-02-03T11:09:07.016Z</time>
      </trkpt>
      <trkpt lat="44.1936" lon="4.72548">
        <ele>85.072594</ele>
        <time>2025-02-03T11:09:10.003Z</time>
      </trkpt>
      <trkpt lat="44.19361" lon="4.7253">
        <ele>85.017929</ele>
        <time>2025-02-03T11:09:13.016Z</time>
      </trkpt>
      <trkpt lat="44.19359" lon="4.72512">
        <ele>84.96539</ele>
        <time>2025-02-03T11:09:16.018Z</time>
      </trkpt>
      <trkpt lat="44.19354" lon="4.72497">
        <ele>84.9151</ele>
        <time>2025-02-03T11:09:18.997Z</time>
      </trkpt>
      <trkpt lat="44.19349" lon="4.72482">
        <ele>84.86601</ele>
        <time>2025-02-03T11:09:22.019Z</time>
      </trkpt>
      <trkpt lat="44.19344" lon="4.72467">
        <ele>84.817239</ele>
        <time>2025-02-03T11:09:25.017Z</time>
      </trkpt>
      <trkpt lat="44.19339" lon="4.72452">
        <ele>84.765708</ele>
        <time>2025-02-03T11:09:27.997Z</time>
      </trkpt>
      <trkpt lat="44.19334" lon="4.72437">
        <ele>84.717342</ele>
        <time>2025-02-03T11:09:31.010Z</time>
      </trkpt>
      <trkpt lat="44.1933" lon="4.72423">
        <ele>84.671587</ele>
        <time>2025-02-03T11:09:34.019Z</time>
      </trkpt>
      <trkpt lat="44.19326" lon="4.7241">
        <ele>84.626443</ele>
        <time>2025-02-03T11:09:37.003Z</time>
      </trkpt>
      <trkpt lat="44.1932" lon="4.72395">
        <ele>84.576291</ele>
        <time>2025-02-03T11:09:40.015Z</time>
      </trkpt>
      <trkpt lat="44.19315" lon="4.72379">
        <ele>84.523288</ele>
        <time>2025-02-03T11:09:43.018Z</time>
      </trkpt>
      <trkpt lat="44.1931" lon="4.72363">
        <ele>84.472216</ele>
        <time>2025-02-03T11:09:46.013Z</time>
      </trkpt>
      <trkpt lat="44.19305" lon="4.72348">
        <ele>84.420234</ele>
        <time>2025-02-03T11:09:48.995Z</time>
      </trkpt>
      <trkpt lat="44.193" lon="4.72332">
        <ele>84.418731</ele>
        <time>2025-02-03T11:09:52.011Z</time>
      </trkpt>
      <trkpt lat="44.19294" lon="4.72316">
        <ele>84.430535</ele>
        <time>2025-02-03T11:09:55.024Z</time>
      </trkpt>
      <trkpt lat="44.19289" lon="4.723">
        <ele>84.442</ele>
        <time>2025-02-03T11:09:58.018Z</time>
      </trkpt>
      <trkpt lat="44.19284" lon="4.72284">
        <ele>84.453642</ele>
        <time>2025-02-03T11:10:01.017Z</time>
      </trkpt>
      <trkpt lat="44.19279" lon="4.72269">
        <ele>84.464849</ele>
        <time>2025-02-03T11:10:04.031Z</time>
      </trkpt>
      <trkpt lat="44.19274" lon="4.72253">
        <ele>84.476436</ele>
        <time>2025-02-03T11:10:07.022Z</time>
      </trkpt>
      <trkpt lat="44.19269" lon="4.72237">
        <ele>84.488232</ele>
        <time>2025-02-03T11:10:10.003Z</time>
      </trkpt>
      <trkpt lat="44.19264" lon="4.7222">
        <ele>84.500261</ele>
        <time>2025-02-03T11:10:13.016Z</time>
      </trkpt>
      <trkpt lat="44.19259" lon="4.72204">
        <ele>84.512449</ele>
        <time>2025-02-03T11:10:16.021Z</time>
      </trkpt>
      <trkpt lat="44.19254" lon="4.72187">
        <ele>84.524784</ele>
        <time>2025-02-03T11:10:19.005Z</time>
      </trkpt>
      <trkpt lat="44.19249" lon="4.7217">
        <ele>84.536714</ele>
        <time>2025-02-03T11:10:22.032Z</time>
      </trkpt>
      <trkpt lat="44.19244" lon="4.72154">
        <ele>84.54851</ele>
        <time>2025-02-03T11:10:25.019Z</time>
      </trkpt>
      <trkpt lat="44.19238" lon="4.72137">
        <ele>84.560654</ele>
        <time>2025-02-03T11:10:28.019Z</time>
      </trkpt>
      <trkpt lat="44.19233" lon="4.72122">
        <ele>84.572178</ele>
        <time>2025-02-03T11:10:31.024Z</time>
      </trkpt>
      <trkpt lat="44.19228" lon="4.72107">
        <ele>84.556386</ele>
        <time>2025-02-03T11:10:34.024Z</time>
      </trkpt>
      <trkpt lat="44.19223" lon="4.72091">
        <ele>84.520281</ele>
        <time>2025-02-03T11:10:37.015Z</time>
      </trkpt>
      <trkpt lat="44.19218" lon="4.72075">
        <ele>84.482179</ele>
        <time>2025-02-03T11:10:40.013Z</time>
      </trkpt>
      <trkpt lat="44.19212" lon="4.72058">
        <ele>84.442041</ele>
        <time>2025-02-03T11:10:43.019Z</time>
      </trkpt>
      <trkpt lat="44.19208" lon="4.72041">
        <ele>84.402491</ele>
        <time>2025-02-03T11:10:46.021Z</time>
      </trkpt>
      <trkpt lat="44.19204" lon="4.72023">
        <ele>84.362268</ele>
        <time>2025-02-03T11:10:49.022Z</time>
      </trkpt>
      <trkpt lat="44.192" lon="4.72005">
        <ele>84.322077</ele>
        <time>2025-02-03T11:10:52.028Z</time>
      </trkpt>
      <trkpt lat="44.19197" lon="4.71987">
        <ele>84.2824</ele>
        <time>2025-02-03T11:10:55.018Z</time>
      </trkpt>
      <trkpt lat="44.19194" lon="4.7197">
        <ele>84.244113</ele>
        <time>2025-02-03T11:10:58.022Z</time>
      </trkpt>
      <trkpt lat="44.19191" lon="4.71954">
        <ele>84.207719</ele>
        <time>2025-02-03T11:11:01.033Z</time>
      </trkpt>
      <trkpt lat="44.19188" lon="4.71937">
        <ele>84.171804</ele>
        <time>2025-02-03T11:11:04.024Z</time>
      </trkpt>
      <trkpt lat="44.19185" lon="4.71922">
        <ele>84.136925</ele>
        <time>2025-02-03T11:11:07.003Z</time>
      </trkpt>
      <trkpt lat="44.19179" lon="4.71909">
        <ele>84.104693</ele>
        <time>2025-02-03T11:11:10.004Z</time>
      </trkpt>
      <trkpt lat="44.19169" lon="4.71901">
        <ele>84.069575</ele>
        <time>2025-02-03T11:11:13.005Z</time>
      </trkpt>
      <trkpt lat="44.1916" lon="4.71893">
        <ele>84.034589</ele>
        <time>2025-02-03T11:11:16.024Z</time>
      </trkpt>
      <trkpt lat="44.19149" lon="4.71885">
        <ele>83.985016</ele>
        <time>2025-02-03T11:11:19.014Z</time>
      </trkpt>
      <trkpt lat="44.19137" lon="4.71875">
        <ele>83.93336</ele>
        <time>2025-02-03T11:11:22.018Z</time>
      </trkpt>
      <trkpt lat="44.19126" lon="4.71867">
        <ele>83.883244</ele>
        <time>2025-02-03T11:11:25.013Z</time>
      </trkpt>
      <trkpt lat="44.19115" lon="4.71857">
        <ele>83.830662</ele>
        <time>2025-02-03T11:11:28.023Z</time>
      </trkpt>
      <trkpt lat="44.19105" lon="4.71849">
        <ele>83.782375</ele>
        <time>2025-02-03T11:11:31.015Z</time>
      </trkpt>
      <trkpt lat="44.19095" lon="4.71839">
        <ele>83.73526</ele>
        <time>2025-02-03T11:11:33.998Z</time>
      </trkpt>
      <trkpt lat="44.19089" lon="4.71828">
        <ele>83.695749</ele>
        <time>2025-02-03T11:11:37.018Z</time>
      </trkpt>
      <trkpt lat="44.1908" lon="4.71819">
        <ele>83.650247</ele>
        <time>2025-02-03T11:11:41.024Z</time>
      </trkpt>
      <trkpt lat="44.1907" lon="4.71823">
        <ele>83.611474</ele>
        <time>2025-02-03T11:11:44.023Z</time>
      </trkpt>
      <trkpt lat="44.19062" lon="4.71831">
        <ele>83.570448</ele>
        <time>2025-02-03T11:11:47.023Z</time>
      </trkpt>
      <trkpt lat="44.19053" lon="4.71841">
        <ele>83.525119</ele>
        <time>2025-02-03T11:11:50.007Z</time>
      </trkpt>
      <trkpt lat="44.19044" lon="4.71849">
        <ele>83.482622</ele>
        <time>2025-02-03T11:11:53.021Z</time>
      </trkpt>
      <trkpt lat="44.19035" lon="4.71857">
        <ele>83.440113</ele>
        <time>2025-02-03T11:11:56.004Z</time>
      </trkpt>
      <trkpt lat="44.19026" lon="4.71865">
        <ele>83.397244</ele>
        <time>2025-02-03T11:11:59.004Z</time>
      </trkpt>
      <trkpt lat="44.19017" lon="4.71874">
        <ele>83.354094</ele>
        <time>2025-02-03T11:12:02.016Z</time>
      </trkpt>
      <trkpt lat="44.19008" lon="4.71882">
        <ele>83.308068</ele>
        <time>2025-02-03T11:12:05.019Z</time>
      </trkpt>
      <trkpt lat="44.18997" lon="4.71891">
        <ele>83.249473</ele>
        <time>2025-02-03T11:12:08.017Z</time>
      </trkpt>
      <trkpt lat="44.18987" lon="4.71901">
        <ele>83.188848</ele>
        <time>2025-02-03T11:12:11.001Z</time>
      </trkpt>
      <trkpt lat="44.18978" lon="4.71915">
        <ele>83.127196</ele>
        <time>2025-02-03T11:12:14.004Z</time>
      </trkpt>
      <trkpt lat="44.18975" lon="4.71926">
        <ele>83.0838</ele>
        <time>2025-02-03T11:12:16.007Z</time>
      </trkpt>
      <trkpt lat="44.1897" lon="4.71942">
        <ele>83.026199</ele>
        <time>2025-02-03T11:12:19.015Z</time>
      </trkpt>
      <trkpt lat="44.18966" lon="4.71956">
        <ele>82.970939</ele>
        <time>2025-02-03T11:12:22.028Z</time>
      </trkpt>
      <trkpt lat="44.18961" lon="4.71969">
        <ele>82.922948</ele>
        <time>2025-02-03T11:12:25.018Z</time>
      </trkpt>
      <trkpt lat="44.18958" lon="4.71983">
        <ele>82.873186</ele>
        <time>2025-02-03T11:12:29.031Z</time>
      </trkpt>
      <trkpt lat="44.18952" lon="4.71999">
        <ele>82.810271</ele>
        <time>2025-02-03T11:12:32.005Z</time>
      </trkpt>
      <trkpt lat="44.18944" lon="4.72011">
        <ele>82.753368</ele>
        <time>2025-02-03T11:12:34.016Z</time>
      </trkpt>
      <trkpt lat="44.18935" lon="4.72023">
        <ele>82.692959</ele>
        <time>2025-02-03T11:12:36.012Z</time>
      </trkpt>
      <trkpt lat="44.18926" lon="4.72034">
        <ele>82.636535</ele>
        <time>2025-02-03T11:12:37.991Z</time>
      </trkpt>
      <trkpt lat="44.18917" lon="4.72044">
        <ele>82.582099</ele>
        <time>2025-02-03T11:12:40.014Z</time>
      </trkpt>
      <trkpt lat="44.18909" lon="4.72055">
        <ele>82.526742</ele>
        <time>2025-02-03T11:12:42.020Z</time>
      </trkpt>
      <trkpt lat="44.189" lon="4.72066">
        <ele>82.472556</ele>
        <time>2025-02-03T11:12:44.015Z</time>
      </trkpt>
      <trkpt lat="44.18893" lon="4.72076">
        <ele>82.434792</ele>
        <time>2025-02-03T11:12:46.012Z</time>
      </trkpt>
      <trkpt lat="44.18886" lon="4.72085">
        <ele>82.40604</ele>
        <time>2025-02-03T11:12:48.018Z</time>
      </trkpt>
      <trkpt lat="44.18879" lon="4.72095">
        <ele>82.376964</ele>
        <time>2025-02-03T11:12:50.018Z</time>
      </trkpt>
      <trkpt lat="44.18872" lon="4.72105">
        <ele>82.347467</ele>
        <time>2025-02-03T11:12:52.015Z</time>
      </trkpt>
      <trkpt lat="44.18865" lon="4.72114">
        <ele>82.318567</ele>
        <time>2025-02-03T11:12:54.013Z</time>
      </trkpt>
      <trkpt lat="44.18858" lon="4.72123">
        <ele>82.289947</ele>
        <time>2025-02-03T11:12:56.015Z</time>
      </trkpt>
      <trkpt lat="44.18851" lon="4.72133">
        <ele>82.260237</ele>
        <time>2025-02-03T11:12:58.018Z</time>
      </trkpt>
      <trkpt lat="44.18844" lon="4.72142">
        <ele>82.231267</ele>
        <time>2025-02-03T11:13:00.014Z</time>
      </trkpt>
      <trkpt lat="44.18838" lon="4.72152">
        <ele>82.203575</ele>
        <time>2025-02-03T11:13:02.031Z</time>
      </trkpt>
      <trkpt lat="44.18828" lon="4.72164">
        <ele>82.164386</ele>
        <time>2025-02-03T11:13:05.011Z</time>
      </trkpt>
      <trkpt lat="44.18815" lon="4.72164">
        <ele>82.12582</ele>
        <time>2025-02-03T11:13:08.000Z</time>
      </trkpt>
      <trkpt lat="44.18809" lon="4.72155">
        <ele>82.098441</ele>
        <time>2025-02-03T11:13:10.001Z</time>
      </trkpt>
      <trkpt lat="44.18802" lon="4.72145">
        <ele>82.070029</ele>
        <time>2025-02-03T11:13:12.024Z</time>
      </trkpt>
      <trkpt lat="44.18795" lon="4.72136">
        <ele>82.04059</ele>
        <time>2025-02-03T11:13:14.046Z</time>
      </trkpt>
      <trkpt lat="44.18789" lon="4.72126">
        <ele>82.011661</ele>
        <time>2025-02-03T11:13:16.015Z</time>
      </trkpt>
      <trkpt lat="44.18786" lon="4.72114">
        <ele>81.984313</ele>
        <time>2025-02-03T11:13:18.003Z</time>
      </trkpt>
      <trkpt lat="44.18783" lon="4.72101">
        <ele>81.956783</ele>
        <time>2025-02-03T11:13:20.017Z</time>
      </trkpt>
      <trkpt lat="44.18781" lon="4.72089">
        <ele>81.929265</ele>
        <time>2025-02-03T11:13:22.014Z</time>
      </trkpt>
      <trkpt lat="44.1878" lon="4.72071">
        <ele>81.974612</ele>
        <time>2025-02-03T11:13:25.020Z</time>
      </trkpt>
      <trkpt lat="44.18778" lon="4.72053">
        <ele>82.048713</ele>
        <time>2025-02-03T11:13:28.010Z</time>
      </trkpt>
      <trkpt lat="44.18776" lon="4.72035">
        <ele>82.125557</ele>
        <time>2025-02-03T11:13:31.036Z</time>
      </trkpt>
      <trkpt lat="44.18774" lon="4.72017">
        <ele>82.200135</ele>
        <time>2025-02-03T11:13:34.013Z</time>
      </trkpt>
      <trkpt lat="44.18772" lon="4.72004">
        <ele>82.252674</ele>
        <time>2025-02-03T11:13:36.014Z</time>
      </trkpt>
      <trkpt lat="44.1877" lon="4.71992">
        <ele>82.304179</ele>
        <time>2025-02-03T11:13:38.012Z</time>
      </trkpt>
      <trkpt lat="44.18769" lon="4.71979">
        <ele>82.357925</ele>
        <time>2025-02-03T11:13:40.004Z</time>
      </trkpt>
      <trkpt lat="44.18767" lon="4.71966">
        <ele>82.411855</ele>
        <time>2025-02-03T11:13:42.003Z</time>
      </trkpt>
      <trkpt lat="44.18765" lon="4.71954">
        <ele>82.464778</ele>
        <time>2025-02-03T11:13:43.991Z</time>
      </trkpt>
      <trkpt lat="44.18762" lon="4.71941">
        <ele>82.519177</ele>
        <time>2025-02-03T11:13:46.012Z</time>
      </trkpt>
      <trkpt lat="44.1876" lon="4.71923">
        <ele>82.595164</ele>
        <time>2025-02-03T11:13:49.014Z</time>
      </trkpt>
      <trkpt lat="44.18758" lon="4.7191">
        <ele>82.649094</ele>
        <time>2025-02-03T11:13:51.005Z</time>
      </trkpt>
      <trkpt lat="44.18756" lon="4.71897">
        <ele>82.703096</ele>
        <time>2025-02-03T11:13:53.015Z</time>
      </trkpt>
      <trkpt lat="44.18753" lon="4.71879">
        <ele>82.779231</ele>
        <time>2025-02-03T11:13:56.017Z</time>
      </trkpt>
      <trkpt lat="44.18751" lon="4.71866">
        <ele>82.832655</ele>
        <time>2025-02-03T11:13:58.035Z</time>
      </trkpt>
      <trkpt lat="44.1875" lon="4.71854">
        <ele>82.885173</ele>
        <time>2025-02-03T11:14:00.006Z</time>
      </trkpt>
      <trkpt lat="44.18748" lon="4.71836">
        <ele>82.965859</ele>
        <time>2025-02-03T11:14:03.026Z</time>
      </trkpt>
      <trkpt lat="44.18745" lon="4.71817">
        <ele>83.083504</ele>
        <time>2025-02-03T11:14:06.013Z</time>
      </trkpt>
      <trkpt lat="44.18743" lon="4.71805">
        <ele>83.164511</ele>
        <time>2025-02-03T11:14:08.023Z</time>
      </trkpt>
      <trkpt lat="44.1874" lon="4.71787">
        <ele>83.279493</ele>
        <time>2025-02-03T11:14:11.001Z</time>
      </trkpt>
      <trkpt lat="44.18737" lon="4.71769">
        <ele>83.392851</ele>
        <time>2025-02-03T11:14:14.014Z</time>
      </trkpt>
      <trkpt lat="44.18734" lon="4.71752">
        <ele>83.502845</ele>
        <time>2025-02-03T11:14:17.031Z</time>
      </trkpt>
      <trkpt lat="44.18732" lon="4.71736">
        <ele>83.607051</ele>
        <time>2025-02-03T11:14:20.016Z</time>
      </trkpt>
      <trkpt lat="44.1873" lon="4.7172">
        <ele>83.711167</ele>
        <time>2025-02-03T11:14:23.025Z</time>
      </trkpt>
      <trkpt lat="44.18727" lon="4.71704">
        <ele>83.813158</ele>
        <time>2025-02-03T11:14:26.026Z</time>
      </trkpt>
      <trkpt lat="44.18725" lon="4.71688">
        <ele>83.916345</ele>
        <time>2025-02-03T11:14:29.013Z</time>
      </trkpt>
      <trkpt lat="44.18722" lon="4.71671">
        <ele>84.022774</ele>
        <time>2025-02-03T11:14:32.022Z</time>
      </trkpt>
      <trkpt lat="44.1872" lon="4.71655">
        <ele>84.127176</ele>
        <time>2025-02-03T11:14:35.012Z</time>
      </trkpt>
      <trkpt lat="44.18718" lon="4.71638">
        <ele>84.23222</ele>
        <time>2025-02-03T11:14:38.016Z</time>
      </trkpt>
      <trkpt lat="44.18715" lon="4.71622">
        <ele>84.335603</ele>
        <time>2025-02-03T11:14:41.009Z</time>
      </trkpt>
      <trkpt lat="44.18713" lon="4.71607">
        <ele>84.431993</ele>
        <time>2025-02-03T11:14:44.007Z</time>
      </trkpt>
      <trkpt lat="44.1871" lon="4.71591">
        <ele>84.510326</ele>
        <time>2025-02-03T11:14:47.026Z</time>
      </trkpt>
      <trkpt lat="44.18708" lon="4.71576">
        <ele>84.348177</ele>
        <time>2025-02-03T11:14:50.002Z</time>
      </trkpt>
      <trkpt lat="44.18706" lon="4.71559">
        <ele>84.170114</ele>
        <time>2025-02-03T11:14:53.014Z</time>
      </trkpt>
      <trkpt lat="44.18704" lon="4.71543">
        <ele>84.002038</ele>
        <time>2025-02-03T11:14:56.018Z</time>
      </trkpt>
      <trkpt lat="44.18704" lon="4.71527">
        <ele>83.835915</ele>
        <time>2025-02-03T11:14:59.019Z</time>
      </trkpt>
      <trkpt lat="44.18701" lon="4.71512">
        <ele>83.671046</ele>
        <time>2025-02-03T11:15:02.010Z</time>
      </trkpt>
      <trkpt lat="44.18698" lon="4.71495">
        <ele>83.488219</ele>
        <time>2025-02-03T11:15:05.026Z</time>
      </trkpt>
      <trkpt lat="44.18695" lon="4.71478">
        <ele>83.307727</ele>
        <time>2025-02-03T11:15:08.010Z</time>
      </trkpt>
      <trkpt lat="44.18694" lon="4.71463">
        <ele>83.147018</ele>
        <time>2025-02-03T11:15:11.016Z</time>
      </trkpt>
      <trkpt lat="44.18692" lon="4.71446">
        <ele>82.9684</ele>
        <time>2025-02-03T11:15:14.038Z</time>
      </trkpt>
      <trkpt lat="44.1869" lon="4.7143">
        <ele>82.80164</ele>
        <time>2025-02-03T11:15:17.012Z</time>
      </trkpt>
      <trkpt lat="44.18688" lon="4.71416">
        <ele>82.645135</ele>
        <time>2025-02-03T11:15:19.993Z</time>
      </trkpt>
      <trkpt lat="44.18685" lon="4.71402">
        <ele>82.494743</ele>
        <time>2025-02-03T11:15:23.013Z</time>
      </trkpt>
      <trkpt lat="44.18676" lon="4.71393">
        <ele>82.341758</ele>
        <time>2025-02-03T11:15:26.015Z</time>
      </trkpt>
      <trkpt lat="44.18664" lon="4.71395">
        <ele>82.169398</ele>
        <time>2025-02-03T11:15:29.014Z</time>
      </trkpt>
      <trkpt lat="44.18652" lon="4.71402">
        <ele>81.979991</ele>
        <time>2025-02-03T11:15:32.012Z</time>
      </trkpt>
      <trkpt lat="44.1864" lon="4.71409">
        <ele>81.999223</ele>
        <time>2025-02-03T11:15:35.013Z</time>
      </trkpt>
      <trkpt lat="44.18632" lon="4.71413">
        <ele>82.102203</ele>
        <time>2025-02-03T11:15:37.014Z</time>
      </trkpt>
      <trkpt lat="44.18623" lon="4.71418">
        <ele>82.203441</ele>
        <time>2025-02-03T11:15:38.974Z</time>
      </trkpt>
      <trkpt lat="44.18615" lon="4.71423">
        <ele>82.307589</ele>
        <time>2025-02-03T11:15:41.009Z</time>
      </trkpt>
      <trkpt lat="44.18606" lon="4.71428">
        <ele>82.416415</ele>
        <time>2025-02-03T11:15:42.986Z</time>
      </trkpt>
      <trkpt lat="44.18596" lon="4.71433">
        <ele>82.525736</ele>
        <time>2025-02-03T11:15:45.013Z</time>
      </trkpt>
      <trkpt lat="44.18587" lon="4.71439">
        <ele>82.64443</ele>
        <time>2025-02-03T11:15:47.014Z</time>
      </trkpt>
      <trkpt lat="44.18577" lon="4.71443">
        <ele>82.758236</ele>
        <time>2025-02-03T11:15:49.001Z</time>
      </trkpt>
      <trkpt lat="44.18568" lon="4.7145">
        <ele>82.872529</ele>
        <time>2025-02-03T11:15:51.023Z</time>
      </trkpt>
      <trkpt lat="44.18558" lon="4.71455">
        <ele>82.989238</ele>
        <time>2025-02-03T11:15:53.015Z</time>
      </trkpt>
      <trkpt lat="44.18548" lon="4.71461">
        <ele>83.109186</ele>
        <time>2025-02-03T11:15:55.011Z</time>
      </trkpt>
      <trkpt lat="44.18539" lon="4.71466">
        <ele>83.223812</ele>
        <time>2025-02-03T11:15:57.015Z</time>
      </trkpt>
      <trkpt lat="44.1853" lon="4.71471">
        <ele>83.333404</ele>
        <time>2025-02-03T11:15:59.018Z</time>
      </trkpt>
      <trkpt lat="44.1852" lon="4.71477">
        <ele>83.450833</ele>
        <time>2025-02-03T11:16:01.014Z</time>
      </trkpt>
      <trkpt lat="44.18511" lon="4.71481">
        <ele>83.560943</ele>
        <time>2025-02-03T11:16:03.021Z</time>
      </trkpt>
      <trkpt lat="44.18501" lon="4.71487">
        <ele>83.673225</ele>
        <time>2025-02-03T11:16:05.018Z</time>
      </trkpt>
      <trkpt lat="44.18492" lon="4.71492">
        <ele>83.7873</ele>
        <time>2025-02-03T11:16:07.025Z</time>
      </trkpt>
      <trkpt lat="44.18482" lon="4.71496">
        <ele>83.900843</ele>
        <time>2025-02-03T11:16:09.013Z</time>
      </trkpt>
      <trkpt lat="44.18473" lon="4.71502">
        <ele>83.933552</ele>
        <time>2025-02-03T11:16:11.010Z</time>
      </trkpt>
      <trkpt lat="44.18464" lon="4.71508">
        <ele>83.95121</ele>
        <time>2025-02-03T11:16:13.017Z</time>
      </trkpt>
      <trkpt lat="44.18454" lon="4.71513">
        <ele>83.969646</ele>
        <time>2025-02-03T11:16:15.013Z</time>
      </trkpt>
      <trkpt lat="44.18444" lon="4.71519">
        <ele>83.988305</ele>
        <time>2025-02-03T11:16:17.014Z</time>
      </trkpt>
      <trkpt lat="44.18434" lon="4.71525">
        <ele>84.006383</ele>
        <time>2025-02-03T11:16:19.007Z</time>
      </trkpt>
      <trkpt lat="44.18425" lon="4.71532">
        <ele>84.024987</ele>
        <time>2025-02-03T11:16:21.029Z</time>
      </trkpt>
      <trkpt lat="44.18416" lon="4.71538">
        <ele>84.042706</ele>
        <time>2025-02-03T11:16:23.012Z</time>
      </trkpt>
      <trkpt lat="44.18407" lon="4.71544">
        <ele>84.059208</ele>
        <time>2025-02-03T11:16:25.016Z</time>
      </trkpt>
      <trkpt lat="44.18394" lon="4.7155">
        <ele>84.082521</ele>
        <time>2025-02-03T11:16:28.020Z</time>
      </trkpt>
      <trkpt lat="44.18386" lon="4.71555">
        <ele>84.098197</ele>
        <time>2025-02-03T11:16:30.014Z</time>
      </trkpt>
      <trkpt lat="44.18375" lon="4.71563">
        <ele>84.119807</ele>
        <time>2025-02-03T11:16:33.019Z</time>
      </trkpt>
      <trkpt lat="44.18363" lon="4.71571">
        <ele>84.143038</ele>
        <time>2025-02-03T11:16:36.016Z</time>
      </trkpt>
      <trkpt lat="44.18354" lon="4.71576">
        <ele>84.159286</ele>
        <time>2025-02-03T11:16:37.996Z</time>
      </trkpt>
      <trkpt lat="44.18346" lon="4.7158">
        <ele>84.174886</ele>
        <time>2025-02-03T11:16:40.018Z</time>
      </trkpt>
      <trkpt lat="44.18337" lon="4.71585">
        <ele>84.191568</ele>
        <time>2025-02-03T11:16:42.010Z</time>
      </trkpt>
      <trkpt lat="44.18329" lon="4.7159">
        <ele>84.207337</ele>
        <time>2025-02-03T11:16:44.012Z</time>
      </trkpt>
      <trkpt lat="44.18321" lon="4.71597">
        <ele>84.223402</ele>
        <time>2025-02-03T11:16:46.012Z</time>
      </trkpt>
      <trkpt lat="44.18312" lon="4.71602">
        <ele>84.252548</ele>
        <time>2025-02-03T11:16:48.011Z</time>
      </trkpt>
      <trkpt lat="44.18304" lon="4.71608">
        <ele>84.291898</ele>
        <time>2025-02-03T11:16:50.004Z</time>
      </trkpt>
      <trkpt lat="44.18295" lon="4.71613">
        <ele>84.331626</ele>
        <time>2025-02-03T11:16:52.015Z</time>
      </trkpt>
      <trkpt lat="44.18287" lon="4.71619">
        <ele>84.371355</ele>
        <time>2025-02-03T11:16:54.018Z</time>
      </trkpt>
      <trkpt lat="44.18279" lon="4.71625">
        <ele>84.410132</ele>
        <time>2025-02-03T11:16:56.010Z</time>
      </trkpt>
      <trkpt lat="44.1827" lon="4.71632">
        <ele>84.450318</ele>
        <time>2025-02-03T11:16:58.009Z</time>
      </trkpt>
      <trkpt lat="44.18261" lon="4.71637">
        <ele>84.491709</ele>
        <time>2025-02-03T11:17:00.007Z</time>
      </trkpt>
      <trkpt lat="44.18252" lon="4.71644">
        <ele>84.533615</ele>
        <time>2025-02-03T11:17:02.002Z</time>
      </trkpt>
      <trkpt lat="44.18244" lon="4.71651">
        <ele>84.57644</ele>
        <time>2025-02-03T11:17:04.015Z</time>
      </trkpt>
      <trkpt lat="44.18235" lon="4.71659">
        <ele>84.619977</ele>
        <time>2025-02-03T11:17:06.030Z</time>
      </trkpt>
      <trkpt lat="44.18226" lon="4.71667">
        <ele>84.665647</ele>
        <time>2025-02-03T11:17:08.018Z</time>
      </trkpt>
      <trkpt lat="44.18217" lon="4.71675">
        <ele>84.711434</ele>
        <time>2025-02-03T11:17:10.020Z</time>
      </trkpt>
      <trkpt lat="44.18208" lon="4.71683">
        <ele>84.755356</ele>
        <time>2025-02-03T11:17:12.018Z</time>
      </trkpt>
      <trkpt lat="44.18199" lon="4.71692">
        <ele>84.800456</ele>
        <time>2025-02-03T11:17:14.014Z</time>
      </trkpt>
      <trkpt lat="44.18191" lon="4.71699">
        <ele>84.843183</ele>
        <time>2025-02-03T11:17:16.016Z</time>
      </trkpt>
      <trkpt lat="44.18182" lon="4.71706">
        <ele>84.884715</ele>
        <time>2025-02-03T11:17:18.012Z</time>
      </trkpt>
      <trkpt lat="44.18174" lon="4.71713">
        <ele>84.927176</ele>
        <time>2025-02-03T11:17:20.007Z</time>
      </trkpt>
      <trkpt lat="44.18166" lon="4.71719">
        <ele>84.965157</ele>
        <time>2025-02-03T11:17:22.019Z</time>
      </trkpt>
      <trkpt lat="44.18157" lon="4.71726">
        <ele>84.913626</ele>
        <time>2025-02-03T11:17:24.070Z</time>
      </trkpt>
      <trkpt lat="44.18149" lon="4.71734">
        <ele>84.742231</ele>
        <time>2025-02-03T11:17:25.993Z</time>
      </trkpt>
      <trkpt lat="44.1814" lon="4.7174">
        <ele>84.556799</ele>
        <time>2025-02-03T11:17:28.035Z</time>
      </trkpt>
      <trkpt lat="44.18131" lon="4.71747">
        <ele>84.379743</ele>
        <time>2025-02-03T11:17:29.990Z</time>
      </trkpt>
      <trkpt lat="44.18122" lon="4.71753">
        <ele>84.201478</ele>
        <time>2025-02-03T11:17:32.013Z</time>
      </trkpt>
      <trkpt lat="44.18113" lon="4.71759">
        <ele>84.018201</ele>
        <time>2025-02-03T11:17:34.016Z</time>
      </trkpt>
      <trkpt lat="44.18104" lon="4.71766">
        <ele>83.841737</ele>
        <time>2025-02-03T11:17:35.986Z</time>
      </trkpt>
      <trkpt lat="44.18095" lon="4.71772">
        <ele>83.66408</ele>
        <time>2025-02-03T11:17:38.015Z</time>
      </trkpt>
      <trkpt lat="44.18086" lon="4.71779">
        <ele>83.484253</ele>
        <time>2025-02-03T11:17:40.012Z</time>
      </trkpt>
      <trkpt lat="44.18077" lon="4.71786">
        <ele>83.300667</ele>
        <time>2025-02-03T11:17:42.023Z</time>
      </trkpt>
      <trkpt lat="44.18069" lon="4.71794">
        <ele>83.1124</ele>
        <time>2025-02-03T11:17:44.006Z</time>
      </trkpt>
      <trkpt lat="44.1806" lon="4.71802">
        <ele>82.925984</ele>
        <time>2025-02-03T11:17:46.013Z</time>
      </trkpt>
      <trkpt lat="44.18052" lon="4.71809">
        <ele>82.759403</ele>
        <time>2025-02-03T11:17:48.016Z</time>
      </trkpt>
      <trkpt lat="44.18042" lon="4.71816">
        <ele>82.568389</ele>
        <time>2025-02-03T11:17:50.011Z</time>
      </trkpt>
      <trkpt lat="44.18033" lon="4.71824">
        <ele>82.376288</ele>
        <time>2025-02-03T11:17:52.023Z</time>
      </trkpt>
      <trkpt lat="44.18023" lon="4.71832">
        <ele>82.180012</ele>
        <time>2025-02-03T11:17:54.016Z</time>
      </trkpt>
      <trkpt lat="44.18014" lon="4.71839">
        <ele>81.987767</ele>
        <time>2025-02-03T11:17:55.993Z</time>
      </trkpt>
      <trkpt lat="44.18005" lon="4.71846">
        <ele>81.805712</ele>
        <time>2025-02-03T11:17:58.018Z</time>
      </trkpt>
      <trkpt lat="44.17996" lon="4.71854">
        <ele>81.793654</ele>
        <time>2025-02-03T11:18:00.016Z</time>
      </trkpt>
      <trkpt lat="44.17986" lon="4.71861">
        <ele>81.796791</ele>
        <time>2025-02-03T11:18:02.009Z</time>
      </trkpt>
      <trkpt lat="44.17977" lon="4.71868">
        <ele>81.799662</ele>
        <time>2025-02-03T11:18:04.032Z</time>
      </trkpt>
      <trkpt lat="44.17969" lon="4.71874">
        <ele>81.802563</ele>
        <time>2025-02-03T11:18:06.006Z</time>
      </trkpt>
      <trkpt lat="44.1796" lon="4.71881">
        <ele>81.805376</ele>
        <time>2025-02-03T11:18:08.026Z</time>
      </trkpt>
      <trkpt lat="44.17952" lon="4.71887">
        <ele>81.808083</ele>
        <time>2025-02-03T11:18:09.996Z</time>
      </trkpt>
      <trkpt lat="44.17943" lon="4.71893">
        <ele>81.810815</ele>
        <time>2025-02-03T11:18:12.006Z</time>
      </trkpt>
      <trkpt lat="44.17935" lon="4.71899">
        <ele>81.813576</ele>
        <time>2025-02-03T11:18:14.007Z</time>
      </trkpt>
      <trkpt lat="44.17926" lon="4.71905">
        <ele>81.816309</ele>
        <time>2025-02-03T11:18:16.000Z</time>
      </trkpt>
      <trkpt lat="44.17917" lon="4.71911">
        <ele>81.81911</ele>
        <time>2025-02-03T11:18:18.007Z</time>
      </trkpt>
      <trkpt lat="44.17905" lon="4.7192">
        <ele>81.823077</ele>
        <time>2025-02-03T11:18:21.011Z</time>
      </trkpt>
      <trkpt lat="44.17897" lon="4.71926">
        <ele>81.825845</ele>
        <time>2025-02-03T11:18:23.021Z</time>
      </trkpt>
      <trkpt lat="44.17888" lon="4.71932">
        <ele>81.828664</ele>
        <time>2025-02-03T11:18:25.012Z</time>
      </trkpt>
      <trkpt lat="44.17879" lon="4.71938">
        <ele>81.831527</ele>
        <time>2025-02-03T11:18:26.988Z</time>
      </trkpt>
      <trkpt lat="44.17871" lon="4.71943">
        <ele>81.834144</ele>
        <time>2025-02-03T11:18:29.024Z</time>
      </trkpt>
      <trkpt lat="44.17859" lon="4.7195">
        <ele>81.837817</ele>
        <time>2025-02-03T11:18:32.006Z</time>
      </trkpt>
      <trkpt lat="44.17847" lon="4.71958">
        <ele>81.841706</ele>
        <time>2025-02-03T11:18:35.020Z</time>
      </trkpt>
      <trkpt lat="44.17838" lon="4.71963">
        <ele>81.870793</ele>
        <time>2025-02-03T11:18:37.017Z</time>
      </trkpt>
      <trkpt lat="44.17829" lon="4.71968">
        <ele>81.915556</ele>
        <time>2025-02-03T11:18:39.034Z</time>
      </trkpt>
      <trkpt lat="44.1782" lon="4.71973">
        <ele>81.961651</ele>
        <time>2025-02-03T11:18:41.012Z</time>
      </trkpt>
      <trkpt lat="44.17812" lon="4.71978">
        <ele>82.005854</ele>
        <time>2025-02-03T11:18:43.006Z</time>
      </trkpt>
      <trkpt lat="44.17799" lon="4.71985">
        <ele>82.068204</ele>
        <time>2025-02-03T11:18:46.009Z</time>
      </trkpt>
      <trkpt lat="44.17787" lon="4.71992">
        <ele>82.129932</ele>
        <time>2025-02-03T11:18:49.018Z</time>
      </trkpt>
      <trkpt lat="44.17778" lon="4.71997">
        <ele>82.174124</ele>
        <time>2025-02-03T11:18:51.018Z</time>
      </trkpt>
      <trkpt lat="44.17766" lon="4.72003">
        <ele>82.235248</ele>
        <time>2025-02-03T11:18:54.026Z</time>
      </trkpt>
      <trkpt lat="44.17757" lon="4.72007">
        <ele>82.277785</ele>
        <time>2025-02-03T11:18:55.998Z</time>
      </trkpt>
      <trkpt lat="44.17748" lon="4.72012">
        <ele>82.321862</ele>
        <time>2025-02-03T11:18:58.011Z</time>
      </trkpt>
      <trkpt lat="44.17739" lon="4.72016">
        <ele>82.367255</ele>
        <time>2025-02-03T11:19:00.025Z</time>
      </trkpt>
      <trkpt lat="44.1773" lon="4.7202">
        <ele>82.411929</ele>
        <time>2025-02-03T11:19:02.020Z</time>
      </trkpt>
      <trkpt lat="44.1772" lon="4.72025">
        <ele>82.458202</ele>
        <time>2025-02-03T11:19:04.005Z</time>
      </trkpt>
      <trkpt lat="44.1771" lon="4.7203">
        <ele>82.506903</ele>
        <time>2025-02-03T11:19:06.004Z</time>
      </trkpt>
      <trkpt lat="44.17702" lon="4.72035">
        <ele>82.55068</ele>
        <time>2025-02-03T11:19:08.008Z</time>
      </trkpt>
      <trkpt lat="44.17693" lon="4.72039">
        <ele>82.594115</ele>
        <time>2025-02-03T11:19:10.013Z</time>
      </trkpt>
      <trkpt lat="44.17684" lon="4.72044">
        <ele>82.637604</ele>
        <time>2025-02-03T11:19:12.026Z</time>
      </trkpt>
      <trkpt lat="44.17675" lon="4.72048">
        <ele>82.681669</ele>
        <time>2025-02-03T11:19:14.010Z</time>
      </trkpt>
      <trkpt lat="44.17667" lon="4.72052">
        <ele>82.715148</ele>
        <time>2025-02-03T11:19:16.007Z</time>
      </trkpt>
      <trkpt lat="44.17654" lon="4.72057">
        <ele>82.763747</ele>
        <time>2025-02-03T11:19:19.008Z</time>
      </trkpt>
      <trkpt lat="44.17641" lon="4.72062">
        <ele>82.810797</ele>
        <time>2025-02-03T11:19:22.022Z</time>
      </trkpt>
      <trkpt lat="44.17629" lon="4.72067">
        <ele>82.857847</ele>
        <time>2025-02-03T11:19:25.028Z</time>
      </trkpt>
      <trkpt lat="44.1762" lon="4.72071">
        <ele>82.891995</ele>
        <time>2025-02-03T11:19:27.016Z</time>
      </trkpt>
      <trkpt lat="44.17611" lon="4.72075">
        <ele>82.925475</ele>
        <time>2025-02-03T11:19:29.020Z</time>
      </trkpt>
      <trkpt lat="44.17602" lon="4.7208">
        <ele>82.961284</ele>
        <time>2025-02-03T11:19:31.030Z</time>
      </trkpt>
      <trkpt lat="44.17593" lon="4.72083">
        <ele>82.996825</ele>
        <time>2025-02-03T11:19:33.026Z</time>
      </trkpt>
      <trkpt lat="44.17583" lon="4.72086">
        <ele>83.031772</ele>
        <time>2025-02-03T11:19:35.014Z</time>
      </trkpt>
      <trkpt lat="44.17571" lon="4.7209">
        <ele>83.079712</ele>
        <time>2025-02-03T11:19:38.016Z</time>
      </trkpt>
      <trkpt lat="44.17559" lon="4.72094">
        <ele>83.122238</ele>
        <time>2025-02-03T11:19:41.034Z</time>
      </trkpt>
      <trkpt lat="44.17548" lon="4.72098">
        <ele>83.166265</ele>
        <time>2025-02-03T11:19:44.004Z</time>
      </trkpt>
      <trkpt lat="44.17535" lon="4.72103">
        <ele>83.214002</ele>
        <time>2025-02-03T11:19:47.025Z</time>
      </trkpt>
      <trkpt lat="44.17522" lon="4.72108">
        <ele>83.26315</ele>
        <time>2025-02-03T11:19:49.995Z</time>
      </trkpt>
      <trkpt lat="44.17513" lon="4.72111">
        <ele>83.297443</ele>
        <time>2025-02-03T11:19:52.020Z</time>
      </trkpt>
      <trkpt lat="44.175" lon="4.72116">
        <ele>83.327657</ele>
        <time>2025-02-03T11:19:55.013Z</time>
      </trkpt>
      <trkpt lat="44.17491" lon="4.72118">
        <ele>83.287446</ele>
        <time>2025-02-03T11:19:57.008Z</time>
      </trkpt>
      <trkpt lat="44.17479" lon="4.72123">
        <ele>83.231343</ele>
        <time>2025-02-03T11:20:00.006Z</time>
      </trkpt>
      <trkpt lat="44.17467" lon="4.72127">
        <ele>83.180292</ele>
        <time>2025-02-03T11:20:03.003Z</time>
      </trkpt>
      <trkpt lat="44.17454" lon="4.7213">
        <ele>83.124145</ele>
        <time>2025-02-03T11:20:06.021Z</time>
      </trkpt>
      <trkpt lat="44.17443" lon="4.72135">
        <ele>83.073281</ele>
        <time>2025-02-03T11:20:08.994Z</time>
      </trkpt>
      <trkpt lat="44.17431" lon="4.72137">
        <ele>83.020564</ele>
        <time>2025-02-03T11:20:12.025Z</time>
      </trkpt>
      <trkpt lat="44.17418" lon="4.7214">
        <ele>82.964526</ele>
        <time>2025-02-03T11:20:14.981Z</time>
      </trkpt>
      <trkpt lat="44.17405" lon="4.72142">
        <ele>82.90826</ele>
        <time>2025-02-03T11:20:18.020Z</time>
      </trkpt>
      <trkpt lat="44.17392" lon="4.72145">
        <ele>82.850998</ele>
        <time>2025-02-03T11:20:21.012Z</time>
      </trkpt>
      <trkpt lat="44.17379" lon="4.72147">
        <ele>82.794259</ele>
        <time>2025-02-03T11:20:24.015Z</time>
      </trkpt>
      <trkpt lat="44.1737" lon="4.72149">
        <ele>82.753514</ele>
        <time>2025-02-03T11:20:26.017Z</time>
      </trkpt>
      <trkpt lat="44.17356" lon="4.7215">
        <ele>82.696509</ele>
        <time>2025-02-03T11:20:29.006Z</time>
      </trkpt>
      <trkpt lat="44.17347" lon="4.72151">
        <ele>82.655624</ele>
        <time>2025-02-03T11:20:30.999Z</time>
      </trkpt>
      <trkpt lat="44.17338" lon="4.72153">
        <ele>82.61427</ele>
        <time>2025-02-03T11:20:33.019Z</time>
      </trkpt>
      <trkpt lat="44.17328" lon="4.72155">
        <ele>82.572916</ele>
        <time>2025-02-03T11:20:35.011Z</time>
      </trkpt>
      <trkpt lat="44.17318" lon="4.72157">
        <ele>82.570292</ele>
        <time>2025-02-03T11:20:37.012Z</time>
      </trkpt>
      <trkpt lat="44.17308" lon="4.72158">
        <ele>82.582287</ele>
        <time>2025-02-03T11:20:39.009Z</time>
      </trkpt>
      <trkpt lat="44.17298" lon="4.7216">
        <ele>82.594426</ele>
        <time>2025-02-03T11:20:41.006Z</time>
      </trkpt>
      <trkpt lat="44.17288" lon="4.72162">
        <ele>82.606593</ele>
        <time>2025-02-03T11:20:43.010Z</time>
      </trkpt>
      <trkpt lat="44.17278" lon="4.72163">
        <ele>82.617979</ele>
        <time>2025-02-03T11:20:45.007Z</time>
      </trkpt>
      <trkpt lat="44.17268" lon="4.72164">
        <ele>82.629519</ele>
        <time>2025-02-03T11:20:47.019Z</time>
      </trkpt>
      <trkpt lat="44.17259" lon="4.72166">
        <ele>82.640815</ele>
        <time>2025-02-03T11:20:49.012Z</time>
      </trkpt>
      <trkpt lat="44.17249" lon="4.72167">
        <ele>82.652835</ele>
        <time>2025-02-03T11:20:51.011Z</time>
      </trkpt>
      <trkpt lat="44.17239" lon="4.72168">
        <ele>82.664109</ele>
        <time>2025-02-03T11:20:53.006Z</time>
      </trkpt>
      <trkpt lat="44.17229" lon="4.7217">
        <ele>82.676041</ele>
        <time>2025-02-03T11:20:55.020Z</time>
      </trkpt>
      <trkpt lat="44.17219" lon="4.72171">
        <ele>82.688029</ele>
        <time>2025-02-03T11:20:56.987Z</time>
      </trkpt>
      <trkpt lat="44.17209" lon="4.72172">
        <ele>82.700124</ele>
        <time>2025-02-03T11:20:58.991Z</time>
      </trkpt>
      <trkpt lat="44.17199" lon="4.72172">
        <ele>82.712083</ele>
        <time>2025-02-03T11:21:01.011Z</time>
      </trkpt>
      <trkpt lat="44.17189" lon="4.72173">
        <ele>82.723802</ele>
        <time>2025-02-03T11:21:03.019Z</time>
      </trkpt>
      <trkpt lat="44.17179" lon="4.72174">
        <ele>82.735773</ele>
        <time>2025-02-03T11:21:05.014Z</time>
      </trkpt>
      <trkpt lat="44.17169" lon="4.72174">
        <ele>82.747135</ele>
        <time>2025-02-03T11:21:07.022Z</time>
      </trkpt>
      <trkpt lat="44.17159" lon="4.72174">
        <ele>82.759208</ele>
        <time>2025-02-03T11:21:09.017Z</time>
      </trkpt>
      <trkpt lat="44.17149" lon="4.72175">
        <ele>82.771415</ele>
        <time>2025-02-03T11:21:11.012Z</time>
      </trkpt>
      <trkpt lat="44.17139" lon="4.72175">
        <ele>82.773506</ele>
        <time>2025-02-03T11:21:13.010Z</time>
      </trkpt>
      <trkpt lat="44.17128" lon="4.72176">
        <ele>82.772355</ele>
        <time>2025-02-03T11:21:15.030Z</time>
      </trkpt>
      <trkpt lat="44.17118" lon="4.72176">
        <ele>82.771228</ele>
        <time>2025-02-03T11:21:17.021Z</time>
      </trkpt>
      <trkpt lat="44.17108" lon="4.72176">
        <ele>82.770067</ele>
        <time>2025-02-03T11:21:19.013Z</time>
      </trkpt>
      <trkpt lat="44.17098" lon="4.72177">
        <ele>82.768916</ele>
        <time>2025-02-03T11:21:21.033Z</time>
      </trkpt>
      <trkpt lat="44.17087" lon="4.72177">
        <ele>82.767755</ele>
        <time>2025-02-03T11:21:23.020Z</time>
      </trkpt>
      <trkpt lat="44.17077" lon="4.72176">
        <ele>82.766591</ele>
        <time>2025-02-03T11:21:25.012Z</time>
      </trkpt>
      <trkpt lat="44.17066" lon="4.72177">
        <ele>82.76543</ele>
        <time>2025-02-03T11:21:27.009Z</time>
      </trkpt>
      <trkpt lat="44.17056" lon="4.72176">
        <ele>82.764292</ele>
        <time>2025-02-03T11:21:29.012Z</time>
      </trkpt>
      <trkpt lat="44.17046" lon="4.72175">
        <ele>82.763163</ele>
        <time>2025-02-03T11:21:30.994Z</time>
      </trkpt>
      <trkpt lat="44.17036" lon="4.72175">
        <ele>82.762012</ele>
        <time>2025-02-03T11:21:33.030Z</time>
      </trkpt>
      <trkpt lat="44.17025" lon="4.72174">
        <ele>82.760806</ele>
        <time>2025-02-03T11:21:35.016Z</time>
      </trkpt>
      <trkpt lat="44.17015" lon="4.72173">
        <ele>82.759645</ele>
        <time>2025-02-03T11:21:37.021Z</time>
      </trkpt>
      <trkpt lat="44.17004" lon="4.72173">
        <ele>82.758484</ele>
        <time>2025-02-03T11:21:39.017Z</time>
      </trkpt>
      <trkpt lat="44.16994" lon="4.72172">
        <ele>82.757356</ele>
        <time>2025-02-03T11:21:41.014Z</time>
      </trkpt>
      <trkpt lat="44.16983" lon="4.72172">
        <ele>82.75615</ele>
        <time>2025-02-03T11:21:43.012Z</time>
      </trkpt>
      <trkpt lat="44.16972" lon="4.72171">
        <ele>82.754922</ele>
        <time>2025-02-03T11:21:45.010Z</time>
      </trkpt>
      <trkpt lat="44.16961" lon="4.72171">
        <ele>82.687066</ele>
        <time>2025-02-03T11:21:47.022Z</time>
      </trkpt>
      <trkpt lat="44.1695" lon="4.7217">
        <ele>82.551876</ele>
        <time>2025-02-03T11:21:49.008Z</time>
      </trkpt>
      <trkpt lat="44.16939" lon="4.72169">
        <ele>82.417957</ele>
        <time>2025-02-03T11:21:51.014Z</time>
      </trkpt>
      <trkpt lat="44.16928" lon="4.72166">
        <ele>82.282558</ele>
        <time>2025-02-03T11:21:53.033Z</time>
      </trkpt>
      <trkpt lat="44.16917" lon="4.72166">
        <ele>82.147706</ele>
        <time>2025-02-03T11:21:55.035Z</time>
      </trkpt>
      <trkpt lat="44.16906" lon="4.72165">
        <ele>82.013433</ele>
        <time>2025-02-03T11:21:57.012Z</time>
      </trkpt>
      <trkpt lat="44.16895" lon="4.72164">
        <ele>81.879389</ele>
        <time>2025-02-03T11:21:59.021Z</time>
      </trkpt>
      <trkpt lat="44.16884" lon="4.72163">
        <ele>81.745524</ele>
        <time>2025-02-03T11:22:00.996Z</time>
      </trkpt>
      <trkpt lat="44.16873" lon="4.72162">
        <ele>81.612872</ele>
        <time>2025-02-03T11:22:03.021Z</time>
      </trkpt>
      <trkpt lat="44.16862" lon="4.72161">
        <ele>81.478682</ele>
        <time>2025-02-03T11:22:05.016Z</time>
      </trkpt>
      <trkpt lat="44.16851" lon="4.72159">
        <ele>81.342146</ele>
        <time>2025-02-03T11:22:07.027Z</time>
      </trkpt>
      <trkpt lat="44.1684" lon="4.72158">
        <ele>81.207955</ele>
        <time>2025-02-03T11:22:09.027Z</time>
      </trkpt>
      <trkpt lat="44.16829" lon="4.72156">
        <ele>81.072294</ele>
        <time>2025-02-03T11:22:11.035Z</time>
      </trkpt>
      <trkpt lat="44.16818" lon="4.72155">
        <ele>80.938021</ele>
        <time>2025-02-03T11:22:13.012Z</time>
      </trkpt>
      <trkpt lat="44.16806" lon="4.72154">
        <ele>80.800408</ele>
        <time>2025-02-03T11:22:15.022Z</time>
      </trkpt>
      <trkpt lat="44.16795" lon="4.72152">
        <ele>80.66363</ele>
        <time>2025-02-03T11:22:16.989Z</time>
      </trkpt>
      <trkpt lat="44.16784" lon="4.72151">
        <ele>80.605098</ele>
        <time>2025-02-03T11:22:19.001Z</time>
      </trkpt>
      <trkpt lat="44.16773" lon="4.72149">
        <ele>80.717428</ele>
        <time>2025-02-03T11:22:20.990Z</time>
      </trkpt>
      <trkpt lat="44.16762" lon="4.72148">
        <ele>80.829274</ele>
        <time>2025-02-03T11:22:22.991Z</time>
      </trkpt>
      <trkpt lat="44.16751" lon="4.72146">
        <ele>80.939526</ele>
        <time>2025-02-03T11:22:25.029Z</time>
      </trkpt>
      <trkpt lat="44.1674" lon="4.72145">
        <ele>81.048857</ele>
        <time>2025-02-03T11:22:27.013Z</time>
      </trkpt>
      <trkpt lat="44.16729" lon="4.72143">
        <ele>81.155274</ele>
        <time>2025-02-03T11:22:29.020Z</time>
      </trkpt>
      <trkpt lat="44.16719" lon="4.7214">
        <ele>81.261314</ele>
        <time>2025-02-03T11:22:31.017Z</time>
      </trkpt>
      <trkpt lat="44.16709" lon="4.72139">
        <ele>81.366489</ele>
        <time>2025-02-03T11:22:33.031Z</time>
      </trkpt>
      <trkpt lat="44.16698" lon="4.72137">
        <ele>81.472664</ele>
        <time>2025-02-03T11:22:34.991Z</time>
      </trkpt>
      <trkpt lat="44.16688" lon="4.72136">
        <ele>81.577916</ele>
        <time>2025-02-03T11:22:37.017Z</time>
      </trkpt>
      <trkpt lat="44.16677" lon="4.72136">
        <ele>81.687571</ele>
        <time>2025-02-03T11:22:39.015Z</time>
      </trkpt>
      <trkpt lat="44.16666" lon="4.72135">
        <ele>81.793314</ele>
        <time>2025-02-03T11:22:41.022Z</time>
      </trkpt>
      <trkpt lat="44.16655" lon="4.72133">
        <ele>81.904644</ele>
        <time>2025-02-03T11:22:43.018Z</time>
      </trkpt>
      <trkpt lat="44.16644" lon="4.72131">
        <ele>82.016233</ele>
        <time>2025-02-03T11:22:45.021Z</time>
      </trkpt>
      <trkpt lat="44.16633" lon="4.7213">
        <ele>82.12622</ele>
        <time>2025-02-03T11:22:47.018Z</time>
      </trkpt>
      <trkpt lat="44.16622" lon="4.72129">
        <ele>82.239071</ele>
        <time>2025-02-03T11:22:49.005Z</time>
      </trkpt>
      <trkpt lat="44.16611" lon="4.72128">
        <ele>82.35012</ele>
        <time>2025-02-03T11:22:51.001Z</time>
      </trkpt>
      <trkpt lat="44.166" lon="4.72127">
        <ele>82.365151</ele>
        <time>2025-02-03T11:22:53.026Z</time>
      </trkpt>
      <trkpt lat="44.1659" lon="4.72125">
        <ele>82.3479</ele>
        <time>2025-02-03T11:22:55.026Z</time>
      </trkpt>
      <trkpt lat="44.1658" lon="4.72122">
        <ele>82.331114</ele>
        <time>2025-02-03T11:22:57.020Z</time>
      </trkpt>
      <trkpt lat="44.16569" lon="4.72121">
        <ele>82.314424</ele>
        <time>2025-02-03T11:22:59.016Z</time>
      </trkpt>
      <trkpt lat="44.16559" lon="4.72119">
        <ele>82.297529</ele>
        <time>2025-02-03T11:23:01.019Z</time>
      </trkpt>
      <trkpt lat="44.16549" lon="4.72117">
        <ele>82.280403</ele>
        <time>2025-02-03T11:23:02.995Z</time>
      </trkpt>
      <trkpt lat="44.16538" lon="4.72116">
        <ele>82.263637</ele>
        <time>2025-02-03T11:23:04.996Z</time>
      </trkpt>
      <trkpt lat="44.16528" lon="4.72115">
        <ele>82.246799</ele>
        <time>2025-02-03T11:23:07.016Z</time>
      </trkpt>
      <trkpt lat="44.16517" lon="4.72114">
        <ele>82.229521</ele>
        <time>2025-02-03T11:23:09.010Z</time>
      </trkpt>
      <trkpt lat="44.16508" lon="4.72112">
        <ele>82.213701</ele>
        <time>2025-02-03T11:23:11.009Z</time>
      </trkpt>
      <trkpt lat="44.16498" lon="4.72112">
        <ele>82.197277</ele>
        <time>2025-02-03T11:23:13.021Z</time>
      </trkpt>
      <trkpt lat="44.16487" lon="4.72111">
        <ele>82.18017</ele>
        <time>2025-02-03T11:23:15.015Z</time>
      </trkpt>
      <trkpt lat="44.16477" lon="4.72109">
        <ele>82.163345</ele>
        <time>2025-02-03T11:23:17.034Z</time>
      </trkpt>
      <trkpt lat="44.16466" lon="4.72108">
        <ele>82.146047</ele>
        <time>2025-02-03T11:23:19.013Z</time>
      </trkpt>
      <trkpt lat="44.16456" lon="4.72107">
        <ele>82.128769</ele>
        <time>2025-02-03T11:23:21.015Z</time>
      </trkpt>
      <trkpt lat="44.16445" lon="4.72105">
        <ele>82.112106</ele>
        <time>2025-02-03T11:23:23.027Z</time>
      </trkpt>
      <trkpt lat="44.16435" lon="4.72104">
        <ele>82.095454</ele>
        <time>2025-02-03T11:23:25.014Z</time>
      </trkpt>
      <trkpt lat="44.16425" lon="4.72103">
        <ele>82.118415</ele>
        <time>2025-02-03T11:23:27.021Z</time>
      </trkpt>
      <trkpt lat="44.16415" lon="4.72102">
        <ele>82.1981</ele>
        <time>2025-02-03T11:23:29.033Z</time>
      </trkpt>
      <trkpt lat="44.16405" lon="4.72099">
        <ele>82.280517</ele>
        <time>2025-02-03T11:23:31.019Z</time>
      </trkpt>
      <trkpt lat="44.16394" lon="4.72097">
        <ele>82.364192</ele>
        <time>2025-02-03T11:23:33.023Z</time>
      </trkpt>
      <trkpt lat="44.16384" lon="4.72096">
        <ele>82.439947</ele>
        <time>2025-02-03T11:23:35.018Z</time>
      </trkpt>
      <trkpt lat="44.16373" lon="4.72095">
        <ele>82.522558</ele>
        <time>2025-02-03T11:23:37.022Z</time>
      </trkpt>
      <trkpt lat="44.16363" lon="4.72094">
        <ele>82.601691</ele>
        <time>2025-02-03T11:23:39.011Z</time>
      </trkpt>
      <trkpt lat="44.16353" lon="4.72092">
        <ele>82.676444</ele>
        <time>2025-02-03T11:23:41.016Z</time>
      </trkpt>
      <trkpt lat="44.16343" lon="4.72091">
        <ele>82.754694</ele>
        <time>2025-02-03T11:23:43.015Z</time>
      </trkpt>
      <trkpt lat="44.16334" lon="4.72089">
        <ele>82.830643</ele>
        <time>2025-02-03T11:23:45.020Z</time>
      </trkpt>
      <trkpt lat="44.16324" lon="4.72088">
        <ele>82.903283</ele>
        <time>2025-02-03T11:23:47.018Z</time>
      </trkpt>
      <trkpt lat="44.16314" lon="4.72087">
        <ele>82.979081</ele>
        <time>2025-02-03T11:23:49.017Z</time>
      </trkpt>
      <trkpt lat="44.16305" lon="4.72086">
        <ele>83.053224</ele>
        <time>2025-02-03T11:23:51.014Z</time>
      </trkpt>
      <trkpt lat="44.16295" lon="4.72086">
        <ele>83.128795</ele>
        <time>2025-02-03T11:23:53.021Z</time>
      </trkpt>
      <trkpt lat="44.16285" lon="4.72085">
        <ele>83.205569</ele>
        <time>2025-02-03T11:23:55.028Z</time>
      </trkpt>
      <trkpt lat="44.16275" lon="4.72084">
        <ele>83.281324</ele>
        <time>2025-02-03T11:23:57.014Z</time>
      </trkpt>
      <trkpt lat="44.16266" lon="4.72083">
        <ele>83.353796</ele>
        <time>2025-02-03T11:23:59.017Z</time>
      </trkpt>
      <trkpt lat="44.16256" lon="4.72083">
        <ele>83.429367</ele>
        <time>2025-02-03T11:24:01.030Z</time>
      </trkpt>
      <trkpt lat="44.16246" lon="4.72082">
        <ele>83.453497</ele>
        <time>2025-02-03T11:24:03.010Z</time>
      </trkpt>
      <trkpt lat="44.16237" lon="4.72081">
        <ele>83.408939</ele>
        <time>2025-02-03T11:24:05.033Z</time>
      </trkpt>
      <trkpt lat="44.16228" lon="4.72081">
        <ele>83.36593</ele>
        <time>2025-02-03T11:24:07.015Z</time>
      </trkpt>
      <trkpt lat="44.16218" lon="4.7208">
        <ele>83.321939</ele>
        <time>2025-02-03T11:24:09.016Z</time>
      </trkpt>
      <trkpt lat="44.16209" lon="4.72079">
        <ele>83.278464</ele>
        <time>2025-02-03T11:24:11.015Z</time>
      </trkpt>
      <trkpt lat="44.16199" lon="4.72079">
        <ele>83.234508</ele>
        <time>2025-02-03T11:24:13.014Z</time>
      </trkpt>
      <trkpt lat="44.1619" lon="4.72079">
        <ele>83.191521</ele>
        <time>2025-02-03T11:24:14.991Z</time>
      </trkpt>
      <trkpt lat="44.16181" lon="4.72079">
        <ele>83.148544</ele>
        <time>2025-02-03T11:24:17.020Z</time>
      </trkpt>
      <trkpt lat="44.16172" lon="4.72079">
        <ele>83.105081</ele>
        <time>2025-02-03T11:24:19.038Z</time>
      </trkpt>
      <trkpt lat="44.16162" lon="4.72078">
        <ele>83.061592</ele>
        <time>2025-02-03T11:24:21.017Z</time>
      </trkpt>
      <trkpt lat="44.16153" lon="4.72077">
        <ele>83.018103</ele>
        <time>2025-02-03T11:24:23.018Z</time>
      </trkpt>
      <trkpt lat="44.16144" lon="4.72077">
        <ele>82.975561</ele>
        <time>2025-02-03T11:24:25.022Z</time>
      </trkpt>
      <trkpt lat="44.16135" lon="4.72076">
        <ele>82.932086</ele>
        <time>2025-02-03T11:24:27.008Z</time>
      </trkpt>
      <trkpt lat="44.16125" lon="4.72077">
        <ele>82.888642</ele>
        <time>2025-02-03T11:24:29.020Z</time>
      </trkpt>
      <trkpt lat="44.16116" lon="4.72077">
        <ele>82.844721</ele>
        <time>2025-02-03T11:24:31.028Z</time>
      </trkpt>
      <trkpt lat="44.16107" lon="4.72077">
        <ele>82.802192</ele>
        <time>2025-02-03T11:24:32.998Z</time>
      </trkpt>
      <trkpt lat="44.16098" lon="4.72077">
        <ele>82.758686</ele>
        <time>2025-02-03T11:24:35.025Z</time>
      </trkpt>
      <trkpt lat="44.16089" lon="4.72076">
        <ele>82.716623</ele>
        <time>2025-02-03T11:24:37.014Z</time>
      </trkpt>
      <trkpt lat="44.16076" lon="4.72077">
        <ele>82.655785</ele>
        <time>2025-02-03T11:24:40.001Z</time>
      </trkpt>
      <trkpt lat="44.16063" lon="4.72079">
        <ele>82.622006</ele>
        <time>2025-02-03T11:24:43.020Z</time>
      </trkpt>
      <trkpt lat="44.16051" lon="4.72079">
        <ele>82.60417</ele>
        <time>2025-02-03T11:24:46.018Z</time>
      </trkpt>
      <trkpt lat="44.16042" lon="4.72072">
        <ele>82.589274</ele>
        <time>2025-02-03T11:24:48.999Z</time>
      </trkpt>
      <trkpt lat="44.16031" lon="4.72068">
        <ele>82.573422</ele>
        <time>2025-02-03T11:24:52.042Z</time>
      </trkpt>
      <trkpt lat="44.16019" lon="4.72068">
        <ele>82.556446</ele>
        <time>2025-02-03T11:24:55.008Z</time>
      </trkpt>
      <trkpt lat="44.16007" lon="4.72067">
        <ele>82.539022</ele>
        <time>2025-02-03T11:24:58.008Z</time>
      </trkpt>
      <trkpt lat="44.15995" lon="4.72069">
        <ele>82.520676</ele>
        <time>2025-02-03T11:25:00.986Z</time>
      </trkpt>
      <trkpt lat="44.15981" lon="4.7207">
        <ele>82.501067</ele>
        <time>2025-02-03T11:25:03.989Z</time>
      </trkpt>
      <trkpt lat="44.15968" lon="4.7207">
        <ele>82.481798</ele>
        <time>2025-02-03T11:25:07.015Z</time>
      </trkpt>
      <trkpt lat="44.15955" lon="4.72069">
        <ele>82.463095</ele>
        <time>2025-02-03T11:25:10.000Z</time>
      </trkpt>
      <trkpt lat="44.15941" lon="4.72071">
        <ele>82.443786</ele>
        <time>2025-02-03T11:25:13.010Z</time>
      </trkpt>
      <trkpt lat="44.15932" lon="4.72072">
        <ele>82.430087</ele>
        <time>2025-02-03T11:25:14.988Z</time>
      </trkpt>
      <trkpt lat="44.15922" lon="4.72072">
        <ele>82.416851</ele>
        <time>2025-02-03T11:25:17.006Z</time>
      </trkpt>
      <trkpt lat="44.15909" lon="4.72074">
        <ele>82.397493</ele>
        <time>2025-02-03T11:25:20.011Z</time>
      </trkpt>
      <trkpt lat="44.15899" lon="4.72076">
        <ele>82.383435</ele>
        <time>2025-02-03T11:25:22.019Z</time>
      </trkpt>
      <trkpt lat="44.15886" lon="4.72077">
        <ele>82.394292</ele>
        <time>2025-02-03T11:25:25.016Z</time>
      </trkpt>
      <trkpt lat="44.15876" lon="4.72078">
        <ele>82.421551</ele>
        <time>2025-02-03T11:25:27.006Z</time>
      </trkpt>
      <trkpt lat="44.15867" lon="4.72079">
        <ele>82.449332</ele>
        <time>2025-02-03T11:25:29.019Z</time>
      </trkpt>
      <trkpt lat="44.15857" lon="4.72081">
        <ele>82.476915</ele>
        <time>2025-02-03T11:25:31.016Z</time>
      </trkpt>
      <trkpt lat="44.15847" lon="4.72082">
        <ele>82.505657</ele>
        <time>2025-02-03T11:25:33.016Z</time>
      </trkpt>
      <trkpt lat="44.15837" lon="4.72084">
        <ele>82.533338</ele>
        <time>2025-02-03T11:25:35.018Z</time>
      </trkpt>
      <trkpt lat="44.15828" lon="4.72086">
        <ele>82.561535</ele>
        <time>2025-02-03T11:25:37.014Z</time>
      </trkpt>
      <trkpt lat="44.15818" lon="4.72086">
        <ele>82.590423</ele>
        <time>2025-02-03T11:25:39.013Z</time>
      </trkpt>
      <trkpt lat="44.15807" lon="4.72087">
        <ele>82.619915</ele>
        <time>2025-02-03T11:25:41.010Z</time>
      </trkpt>
      <trkpt lat="44.15797" lon="4.72088">
        <ele>82.648266</ele>
        <time>2025-02-03T11:25:43.030Z</time>
      </trkpt>
      <trkpt lat="44.15788" lon="4.7209">
        <ele>82.676463</ele>
        <time>2025-02-03T11:25:45.020Z</time>
      </trkpt>
      <trkpt lat="44.15777" lon="4.7209">
        <ele>82.705637</ele>
        <time>2025-02-03T11:25:47.012Z</time>
      </trkpt>
      <trkpt lat="44.15768" lon="4.72092">
        <ele>82.732415</ele>
        <time>2025-02-03T11:25:49.023Z</time>
      </trkpt>
      <trkpt lat="44.15758" lon="4.72093">
        <ele>82.760262</ele>
        <time>2025-02-03T11:25:51.013Z</time>
      </trkpt>
      <trkpt lat="44.15749" lon="4.72095">
        <ele>82.788459</ele>
        <time>2025-02-03T11:25:53.058Z</time>
      </trkpt>
      <trkpt lat="44.15739" lon="4.72096">
        <ele>82.816113</ele>
        <time>2025-02-03T11:25:54.992Z</time>
      </trkpt>
      <trkpt lat="44.1573" lon="4.72097">
        <ele>82.8425</ele>
        <time>2025-02-03T11:25:57.019Z</time>
      </trkpt>
      <trkpt lat="44.15717" lon="4.72099">
        <ele>82.879569</ele>
        <time>2025-02-03T11:26:00.026Z</time>
      </trkpt>
      <trkpt lat="44.15704" lon="4.72099">
        <ele>83.048363</ele>
        <time>2025-02-03T11:26:02.999Z</time>
      </trkpt>
      <trkpt lat="44.15697" lon="4.72086">
        <ele>83.226316</ele>
        <time>2025-02-03T11:26:06.000Z</time>
      </trkpt>
      <trkpt lat="44.15695" lon="4.72073">
        <ele>83.391573</ele>
        <time>2025-02-03T11:26:09.010Z</time>
      </trkpt>
      <trkpt lat="44.15694" lon="4.72058">
        <ele>83.557272</ele>
        <time>2025-02-03T11:26:13.037Z</time>
      </trkpt>
      <trkpt lat="44.157" lon="4.72044">
        <ele>83.743697</ele>
        <time>2025-02-03T11:26:16.997Z</time>
      </trkpt>
      <trkpt lat="44.15707" lon="4.72035">
        <ele>83.907428</ele>
        <time>2025-02-03T11:26:20.995Z</time>
      </trkpt>
      <trkpt lat="44.15716" lon="4.72029">
        <ele>84.057753</ele>
        <time>2025-02-03T11:26:25.028Z</time>
      </trkpt>
      <trkpt lat="44.15724" lon="4.72023">
        <ele>84.21149</ele>
        <time>2025-02-03T11:26:29.027Z</time>
      </trkpt>
      <trkpt lat="44.15732" lon="4.72017">
        <ele>84.359007</ele>
        <time>2025-02-03T11:26:33.025Z</time>
      </trkpt>
      <trkpt lat="44.15732" lon="4.72004">
        <ele>84.508559</ele>
        <time>2025-02-03T11:26:38.001Z</time>
      </trkpt>
      <trkpt lat="44.1572" lon="4.72004">
        <ele>84.697478</ele>
        <time>2025-02-03T11:26:43.007Z</time>
      </trkpt>
      <trkpt lat="44.15709" lon="4.72006">
        <ele>84.878648</ele>
        <time>2025-02-03T11:26:46.998Z</time>
      </trkpt>
      <trkpt lat="44.15699" lon="4.72008">
        <ele>85.035355</ele>
        <time>2025-02-03T11:26:50.011Z</time>
      </trkpt>
      <trkpt lat="44.15688" lon="4.72011">
        <ele>85.228045</ele>
        <time>2025-02-03T11:26:52.999Z</time>
      </trkpt>
      <trkpt lat="44.15676" lon="4.72013">
        <ele>85.4204</ele>
        <time>2025-02-03T11:26:56.040Z</time>
      </trkpt>
      <trkpt lat="44.15663" lon="4.72015">
        <ele>85.629066</ele>
        <time>2025-02-03T11:26:59.012Z</time>
      </trkpt>
      <trkpt lat="44.15651" lon="4.72019">
        <ele>85.803596</ele>
        <time>2025-02-03T11:27:02.029Z</time>
      </trkpt>
      <trkpt lat="44.15638" lon="4.72022">
        <ele>85.864748</ele>
        <time>2025-02-03T11:27:05.012Z</time>
      </trkpt>
      <trkpt lat="44.15626" lon="4.72025">
        <ele>85.925484</ele>
        <time>2025-02-03T11:27:08.007Z</time>
      </trkpt>
      <trkpt lat="44.15613" lon="4.72028">
        <ele>85.985628</ele>
        <time>2025-02-03T11:27:11.004Z</time>
      </trkpt>
      <trkpt lat="44.15602" lon="4.72037">
        <ele>86.047544</ele>
        <time>2025-02-03T11:27:13.996Z</time>
      </trkpt>
      <trkpt lat="44.15593" lon="4.72039">
        <ele>86.091891</ele>
        <time>2025-02-03T11:27:16.025Z</time>
      </trkpt>
      <trkpt lat="44.15584" lon="4.72041">
        <ele>86.135765</ele>
        <time>2025-02-03T11:27:18.013Z</time>
      </trkpt>
      <trkpt lat="44.15575" lon="4.72044">
        <ele>86.181294</ele>
        <time>2025-02-03T11:27:20.013Z</time>
      </trkpt>
      <trkpt lat="44.15565" lon="4.72047">
        <ele>86.227597</ele>
        <time>2025-02-03T11:27:22.013Z</time>
      </trkpt>
      <trkpt lat="44.15556" lon="4.7205">
        <ele>86.274428</ele>
        <time>2025-02-03T11:27:23.999Z</time>
      </trkpt>
      <trkpt lat="44.15546" lon="4.72053">
        <ele>86.321356</ele>
        <time>2025-02-03T11:27:26.023Z</time>
      </trkpt>
      <trkpt lat="44.15537" lon="4.72057">
        <ele>86.369736</ele>
        <time>2025-02-03T11:27:28.015Z</time>
      </trkpt>
      <trkpt lat="44.15527" lon="4.72059">
        <ele>86.417928</ele>
        <time>2025-02-03T11:27:30.013Z</time>
      </trkpt>
      <trkpt lat="44.15517" lon="4.72062">
        <ele>86.467117</ele>
        <time>2025-02-03T11:27:32.022Z</time>
      </trkpt>
      <trkpt lat="44.15507" lon="4.72065">
        <ele>86.515621</ele>
        <time>2025-02-03T11:27:34.016Z</time>
      </trkpt>
      <trkpt lat="44.15497" lon="4.72068">
        <ele>86.564579</ele>
        <time>2025-02-03T11:27:35.997Z</time>
      </trkpt>
      <trkpt lat="44.15487" lon="4.72071">
        <ele>86.614025</ele>
        <time>2025-02-03T11:27:38.013Z</time>
      </trkpt>
      <trkpt lat="44.15477" lon="4.72074">
        <ele>86.656904</ele>
        <time>2025-02-03T11:27:40.024Z</time>
      </trkpt>
      <trkpt lat="44.15467" lon="4.72077">
        <ele>86.665152</ele>
        <time>2025-02-03T11:27:42.015Z</time>
      </trkpt>
      <trkpt lat="44.15457" lon="4.7208">
        <ele>86.673536</ele>
        <time>2025-02-03T11:27:44.013Z</time>
      </trkpt>
      <trkpt lat="44.15446" lon="4.72083">
        <ele>86.682158</ele>
        <time>2025-02-03T11:27:46.015Z</time>
      </trkpt>
      <trkpt lat="44.15436" lon="4.72086">
        <ele>86.690609</ele>
        <time>2025-02-03T11:27:48.034Z</time>
      </trkpt>
      <trkpt lat="44.15426" lon="4.72089">
        <ele>86.698781</ele>
        <time>2025-02-03T11:27:50.018Z</time>
      </trkpt>
      <trkpt lat="44.15416" lon="4.72092">
        <ele>86.707152</ele>
        <time>2025-02-03T11:27:52.018Z</time>
      </trkpt>
      <trkpt lat="44.15406" lon="4.72095">
        <ele>86.715456</ele>
        <time>2025-02-03T11:27:54.015Z</time>
      </trkpt>
      <trkpt lat="44.15396" lon="4.72098">
        <ele>86.724238</ele>
        <time>2025-02-03T11:27:56.020Z</time>
      </trkpt>
      <trkpt lat="44.15385" lon="4.72101">
        <ele>86.732634</ele>
        <time>2025-02-03T11:27:58.036Z</time>
      </trkpt>
      <trkpt lat="44.15375" lon="4.72105">
        <ele>86.741205</ele>
        <time>2025-02-03T11:28:00.011Z</time>
      </trkpt>
      <trkpt lat="44.15365" lon="4.72109">
        <ele>86.74959</ele>
        <time>2025-02-03T11:28:02.030Z</time>
      </trkpt>
      <trkpt lat="44.15355" lon="4.72112">
        <ele>86.758013</ele>
        <time>2025-02-03T11:28:04.013Z</time>
      </trkpt>
      <trkpt lat="44.15346" lon="4.72114">
        <ele>86.765771</ele>
        <time>2025-02-03T11:28:06.015Z</time>
      </trkpt>
      <trkpt lat="44.15337" lon="4.72118">
        <ele>86.773076</ele>
        <time>2025-02-03T11:28:08.033Z</time>
      </trkpt>
      <trkpt lat="44.15328" lon="4.7212">
        <ele>86.780538</ele>
        <time>2025-02-03T11:28:10.010Z</time>
      </trkpt>
      <trkpt lat="44.15319" lon="4.72123">
        <ele>86.788091</ele>
        <time>2025-02-03T11:28:12.036Z</time>
      </trkpt>
      <trkpt lat="44.15306" lon="4.72127">
        <ele>86.798675</ele>
        <time>2025-02-03T11:28:15.036Z</time>
      </trkpt>
      <trkpt lat="44.15294" lon="4.72131">
        <ele>86.7802</ele>
        <time>2025-02-03T11:28:18.012Z</time>
      </trkpt>
      <trkpt lat="44.15281" lon="4.72135">
        <ele>86.751955</ele>
        <time>2025-02-03T11:28:21.016Z</time>
      </trkpt>
      <trkpt lat="44.15269" lon="4.72139">
        <ele>86.722574</ele>
        <time>2025-02-03T11:28:24.021Z</time>
      </trkpt>
      <trkpt lat="44.15256" lon="4.72142">
        <ele>86.693329</ele>
        <time>2025-02-03T11:28:27.021Z</time>
      </trkpt>
      <trkpt lat="44.15244" lon="4.72146">
        <ele>86.664968</ele>
        <time>2025-02-03T11:28:30.027Z</time>
      </trkpt>
      <trkpt lat="44.15231" lon="4.7215">
        <ele>86.636503</ele>
        <time>2025-02-03T11:28:33.017Z</time>
      </trkpt>
      <trkpt lat="44.1522" lon="4.72153">
        <ele>86.609941</ele>
        <time>2025-02-03T11:28:36.010Z</time>
      </trkpt>
      <trkpt lat="44.15208" lon="4.72157">
        <ele>86.583158</ele>
        <time>2025-02-03T11:28:39.015Z</time>
      </trkpt>
      <trkpt lat="44.15197" lon="4.7216">
        <ele>86.556253</ele>
        <time>2025-02-03T11:28:42.012Z</time>
      </trkpt>
      <trkpt lat="44.15185" lon="4.72164">
        <ele>86.530096</ele>
        <time>2025-02-03T11:28:45.013Z</time>
      </trkpt>
      <trkpt lat="44.15175" lon="4.72167">
        <ele>86.505401</ele>
        <time>2025-02-03T11:28:48.021Z</time>
      </trkpt>
      <trkpt lat="44.15163" lon="4.7217">
        <ele>86.478305</ele>
        <time>2025-02-03T11:28:51.015Z</time>
      </trkpt>
      <trkpt lat="44.1515" lon="4.72174">
        <ele>86.448008</ele>
        <time>2025-02-03T11:28:54.028Z</time>
      </trkpt>
      <trkpt lat="44.15141" lon="4.72176">
        <ele>86.427299</ele>
        <time>2025-02-03T11:28:56.005Z</time>
      </trkpt>
      <trkpt lat="44.15131" lon="4.72179">
        <ele>86.405608</ele>
        <time>2025-02-03T11:28:58.015Z</time>
      </trkpt>
      <trkpt lat="44.15122" lon="4.72182">
        <ele>86.426138</ele>
        <time>2025-02-03T11:29:00.014Z</time>
      </trkpt>
      <trkpt lat="44.15109" lon="4.72186">
        <ele>86.506764</ele>
        <time>2025-02-03T11:29:03.018Z</time>
      </trkpt>
      <trkpt lat="44.15097" lon="4.7219">
        <ele>86.581233</ele>
        <time>2025-02-03T11:29:06.016Z</time>
      </trkpt>
      <trkpt lat="44.15086" lon="4.72194">
        <ele>86.650738</ele>
        <time>2025-02-03T11:29:09.021Z</time>
      </trkpt>
      <trkpt lat="44.15075" lon="4.72198">
        <ele>86.721221</ele>
        <time>2025-02-03T11:29:12.036Z</time>
      </trkpt>
      <trkpt lat="44.15063" lon="4.72201">
        <ele>86.797007</ele>
        <time>2025-02-03T11:29:15.028Z</time>
      </trkpt>
      <trkpt lat="44.1505" lon="4.72204">
        <ele>86.876799</ele>
        <time>2025-02-03T11:29:18.013Z</time>
      </trkpt>
      <trkpt lat="44.15039" lon="4.72203">
        <ele>86.943638</ele>
        <time>2025-02-03T11:29:21.027Z</time>
      </trkpt>
      <trkpt lat="44.15029" lon="4.72201">
        <ele>87.007319</ele>
        <time>2025-02-03T11:29:25.019Z</time>
      </trkpt>
      <trkpt lat="44.15019" lon="4.72204">
        <ele>87.072021</ele>
        <time>2025-02-03T11:29:30.018Z</time>
      </trkpt>
      <trkpt lat="44.15008" lon="4.72208">
        <ele>87.141271</ele>
        <time>2025-02-03T11:29:35.016Z</time>
      </trkpt>
      <trkpt lat="44.14994" lon="4.72211">
        <ele>87.228822</ele>
        <time>2025-02-03T11:29:38.023Z</time>
      </trkpt>
      <trkpt lat="44.14982" lon="4.72216">
        <ele>87.304443</ele>
        <time>2025-02-03T11:29:40.020Z</time>
      </trkpt>
      <trkpt lat="44.14969" lon="4.72221">
        <ele>87.387384</ele>
        <time>2025-02-03T11:29:42.015Z</time>
      </trkpt>
      <trkpt lat="44.14956" lon="4.72228">
        <ele>87.468356</ele>
        <time>2025-02-03T11:29:44.024Z</time>
      </trkpt>
      <trkpt lat="44.14943" lon="4.72233">
        <ele>87.400159</ele>
        <time>2025-02-03T11:29:46.021Z</time>
      </trkpt>
      <trkpt lat="44.1493" lon="4.72237">
        <ele>87.248645</ele>
        <time>2025-02-03T11:29:48.039Z</time>
      </trkpt>
      <trkpt lat="44.14917" lon="4.72241">
        <ele>87.096207</ele>
        <time>2025-02-03T11:29:50.014Z</time>
      </trkpt>
      <trkpt lat="44.14904" lon="4.72245">
        <ele>86.952302</ele>
        <time>2025-02-03T11:29:52.017Z</time>
      </trkpt>
      <trkpt lat="44.14891" lon="4.72248">
        <ele>86.80406</ele>
        <time>2025-02-03T11:29:54.012Z</time>
      </trkpt>
      <trkpt lat="44.14878" lon="4.72251">
        <ele>86.658009</ele>
        <time>2025-02-03T11:29:56.022Z</time>
      </trkpt>
      <trkpt lat="44.14865" lon="4.72256">
        <ele>86.512472</ele>
        <time>2025-02-03T11:29:58.008Z</time>
      </trkpt>
      <trkpt lat="44.14853" lon="4.72258">
        <ele>86.369162</ele>
        <time>2025-02-03T11:30:00.018Z</time>
      </trkpt>
      <trkpt lat="44.1484" lon="4.72262">
        <ele>86.228276</ele>
        <time>2025-02-03T11:30:02.032Z</time>
      </trkpt>
      <trkpt lat="44.14828" lon="4.72266">
        <ele>86.085974</ele>
        <time>2025-02-03T11:30:04.011Z</time>
      </trkpt>
      <trkpt lat="44.14815" lon="4.72269">
        <ele>85.943504</ele>
        <time>2025-02-03T11:30:06.013Z</time>
      </trkpt>
      <trkpt lat="44.14803" lon="4.72272">
        <ele>85.800786</ele>
        <time>2025-02-03T11:30:08.025Z</time>
      </trkpt>
      <trkpt lat="44.1479" lon="4.72275">
        <ele>85.656112</ele>
        <time>2025-02-03T11:30:10.013Z</time>
      </trkpt>
      <trkpt lat="44.14777" lon="4.72278">
        <ele>85.506327</ele>
        <time>2025-02-03T11:30:12.015Z</time>
      </trkpt>
      <trkpt lat="44.14763" lon="4.7228">
        <ele>85.57712</ele>
        <time>2025-02-03T11:30:13.995Z</time>
      </trkpt>
      <trkpt lat="44.14751" lon="4.72282">
        <ele>85.666173</ele>
        <time>2025-02-03T11:30:15.998Z</time>
      </trkpt>
      <trkpt lat="44.14738" lon="4.72284">
        <ele>85.752809</ele>
        <time>2025-02-03T11:30:18.008Z</time>
      </trkpt>
      <trkpt lat="44.14726" lon="4.72286">
        <ele>85.838178</ele>
        <time>2025-02-03T11:30:20.014Z</time>
      </trkpt>
      <trkpt lat="44.14713" lon="4.72288">
        <ele>85.923547</ele>
        <time>2025-02-03T11:30:22.021Z</time>
      </trkpt>
      <trkpt lat="44.14701" lon="4.72289">
        <ele>86.006687</ele>
        <time>2025-02-03T11:30:23.997Z</time>
      </trkpt>
      <trkpt lat="44.14689" lon="4.72291">
        <ele>86.089443</ele>
        <time>2025-02-03T11:30:26.009Z</time>
      </trkpt>
      <trkpt lat="44.14678" lon="4.72292">
        <ele>86.167807</ele>
        <time>2025-02-03T11:30:28.011Z</time>
      </trkpt>
      <trkpt lat="44.14666" lon="4.72293">
        <ele>86.249306</ele>
        <time>2025-02-03T11:30:30.007Z</time>
      </trkpt>
      <trkpt lat="44.14654" lon="4.72294">
        <ele>86.331571</ele>
        <time>2025-02-03T11:30:32.009Z</time>
      </trkpt>
      <trkpt lat="44.14642" lon="4.72294">
        <ele>86.409758</ele>
        <time>2025-02-03T11:30:34.007Z</time>
      </trkpt>
      <trkpt lat="44.14631" lon="4.72296">
        <ele>86.489408</ele>
        <time>2025-02-03T11:30:36.032Z</time>
      </trkpt>
      <trkpt lat="44.14619" lon="4.72297">
        <ele>86.570389</ele>
        <time>2025-02-03T11:30:38.012Z</time>
      </trkpt>
      <trkpt lat="44.14607" lon="4.72299">
        <ele>86.653034</ele>
        <time>2025-02-03T11:30:40.015Z</time>
      </trkpt>
      <trkpt lat="44.14596" lon="4.72301">
        <ele>86.725396</ele>
        <time>2025-02-03T11:30:42.018Z</time>
      </trkpt>
      <trkpt lat="44.14585" lon="4.72301">
        <ele>86.720113</ele>
        <time>2025-02-03T11:30:44.009Z</time>
      </trkpt>
      <trkpt lat="44.14573" lon="4.72301">
        <ele>86.714829</ele>
        <time>2025-02-03T11:30:46.012Z</time>
      </trkpt>
      <trkpt lat="44.14563" lon="4.72302">
        <ele>86.709687</ele>
        <time>2025-02-03T11:30:48.022Z</time>
      </trkpt>
      <trkpt lat="44.14552" lon="4.72303">
        <ele>86.704774</ele>
        <time>2025-02-03T11:30:50.022Z</time>
      </trkpt>
      <trkpt lat="44.14542" lon="4.72305">
        <ele>86.699976</ele>
        <time>2025-02-03T11:30:52.008Z</time>
      </trkpt>
      <trkpt lat="44.14533" lon="4.72305">
        <ele>86.695352</ele>
        <time>2025-02-03T11:30:54.012Z</time>
      </trkpt>
      <trkpt lat="44.14523" lon="4.72306">
        <ele>86.690593</ele>
        <time>2025-02-03T11:30:56.010Z</time>
      </trkpt>
      <trkpt lat="44.14513" lon="4.72306">
        <ele>86.685969</ele>
        <time>2025-02-03T11:30:58.007Z</time>
      </trkpt>
      <trkpt lat="44.14504" lon="4.72307">
        <ele>86.681634</ele>
        <time>2025-02-03T11:31:00.015Z</time>
      </trkpt>
      <trkpt lat="44.14495" lon="4.72307">
        <ele>86.677301</ele>
        <time>2025-02-03T11:31:02.013Z</time>
      </trkpt>
      <trkpt lat="44.14486" lon="4.72307">
        <ele>86.673015</ele>
        <time>2025-02-03T11:31:04.038Z</time>
      </trkpt>
      <trkpt lat="44.14476" lon="4.72309">
        <ele>86.668547</ele>
        <time>2025-02-03T11:31:06.006Z</time>
      </trkpt>
      <trkpt lat="44.14464" lon="4.72309">
        <ele>86.662408</ele>
        <time>2025-02-03T11:31:09.026Z</time>
      </trkpt>
      <trkpt lat="44.14451" lon="4.7231">
        <ele>86.656251</ele>
        <time>2025-02-03T11:31:11.999Z</time>
      </trkpt>
      <trkpt lat="44.14438" lon="4.72309">
        <ele>86.650434</ele>
        <time>2025-02-03T11:31:15.016Z</time>
      </trkpt>
      <trkpt lat="44.14429" lon="4.72301">
        <ele>86.645083</ele>
        <time>2025-02-03T11:31:17.990Z</time>
      </trkpt>
      <trkpt lat="44.14422" lon="4.7229">
        <ele>86.640259</ele>
        <time>2025-02-03T11:31:21.000Z</time>
      </trkpt>
      <trkpt lat="44.14415" lon="4.72278">
        <ele>86.576843</ele>
        <time>2025-02-03T11:31:24.009Z</time>
      </trkpt>
      <trkpt lat="44.14407" lon="4.72268">
        <ele>86.513535</ele>
        <time>2025-02-03T11:31:27.022Z</time>
      </trkpt>
      <trkpt lat="44.14397" lon="4.72263">
        <ele>86.454114</ele>
        <time>2025-02-03T11:31:30.012Z</time>
      </trkpt>
      <trkpt lat="44.14387" lon="4.72259">
        <ele>86.391251</ele>
        <time>2025-02-03T11:31:33.025Z</time>
      </trkpt>
      <trkpt lat="44.14375" lon="4.72257">
        <ele>86.324702</ele>
        <time>2025-02-03T11:31:36.002Z</time>
      </trkpt>
      <trkpt lat="44.14364" lon="4.72255">
        <ele>86.259363</ele>
        <time>2025-02-03T11:31:39.022Z</time>
      </trkpt>
      <trkpt lat="44.14352" lon="4.72252">
        <ele>86.191424</ele>
        <time>2025-02-03T11:31:42.017Z</time>
      </trkpt>
      <trkpt lat="44.14341" lon="4.72249">
        <ele>86.126766</ele>
        <time>2025-02-03T11:31:45.015Z</time>
      </trkpt>
      <trkpt lat="44.1433" lon="4.72245">
        <ele>86.058636</ele>
        <time>2025-02-03T11:31:48.023Z</time>
      </trkpt>
      <trkpt lat="44.14318" lon="4.72241">
        <ele>85.991086</ele>
        <time>2025-02-03T11:31:50.993Z</time>
      </trkpt>
      <trkpt lat="44.14307" lon="4.72237">
        <ele>85.926223</ele>
        <time>2025-02-03T11:31:54.002Z</time>
      </trkpt>
      <trkpt lat="44.14296" lon="4.72234">
        <ele>85.861854</ele>
        <time>2025-02-03T11:31:56.999Z</time>
      </trkpt>
      <trkpt lat="44.14285" lon="4.7223">
        <ele>85.795998</ele>
        <time>2025-02-03T11:32:00.013Z</time>
      </trkpt>
      <trkpt lat="44.14275" lon="4.72225">
        <ele>85.731915</ele>
        <time>2025-02-03T11:32:03.027Z</time>
      </trkpt>
      <trkpt lat="44.14264" lon="4.72221">
        <ele>85.665277</ele>
        <time>2025-02-03T11:32:06.021Z</time>
      </trkpt>
      <trkpt lat="44.14252" lon="4.72217">
        <ele>85.606872</ele>
        <time>2025-02-03T11:32:09.023Z</time>
      </trkpt>
      <trkpt lat="44.14241" lon="4.72212">
        <ele>85.621668</ele>
        <time>2025-02-03T11:32:12.012Z</time>
      </trkpt>
      <trkpt lat="44.1423" lon="4.72208">
        <ele>85.635941</ele>
        <time>2025-02-03T11:32:15.022Z</time>
      </trkpt>
      <trkpt lat="44.14218" lon="4.72204">
        <ele>85.651487</ele>
        <time>2025-02-03T11:32:18.007Z</time>
      </trkpt>
      <trkpt lat="44.14207" lon="4.72199">
        <ele>85.666594</ele>
        <time>2025-02-03T11:32:21.011Z</time>
      </trkpt>
      <trkpt lat="44.14196" lon="4.72194">
        <ele>85.681688</ele>
        <time>2025-02-03T11:32:24.016Z</time>
      </trkpt>
      <trkpt lat="44.14184" lon="4.7219">
        <ele>85.696809</ele>
        <time>2025-02-03T11:32:27.015Z</time>
      </trkpt>
      <trkpt lat="44.14173" lon="4.72184">
        <ele>85.712231</ele>
        <time>2025-02-03T11:32:30.012Z</time>
      </trkpt>
      <trkpt lat="44.14162" lon="4.72178">
        <ele>85.727333</ele>
        <time>2025-02-03T11:32:33.009Z</time>
      </trkpt>
      <trkpt lat="44.14151" lon="4.72172">
        <ele>85.742074</ele>
        <time>2025-02-03T11:32:36.007Z</time>
      </trkpt>
      <trkpt lat="44.1414" lon="4.72166">
        <ele>85.756868</ele>
        <time>2025-02-03T11:32:39.003Z</time>
      </trkpt>
      <trkpt lat="44.14129" lon="4.7216">
        <ele>85.771981</ele>
        <time>2025-02-03T11:32:42.011Z</time>
      </trkpt>
      <trkpt lat="44.14119" lon="4.72153">
        <ele>85.78631</ele>
        <time>2025-02-03T11:32:45.028Z</time>
      </trkpt>
      <trkpt lat="44.14109" lon="4.72146">
        <ele>85.800564</ele>
        <time>2025-02-03T11:32:48.013Z</time>
      </trkpt>
      <trkpt lat="44.14098" lon="4.7214">
        <ele>85.814985</ele>
        <time>2025-02-03T11:32:51.018Z</time>
      </trkpt>
      <trkpt lat="44.14088" lon="4.72134">
        <ele>85.829745</ele>
        <time>2025-02-03T11:32:54.023Z</time>
      </trkpt>
      <trkpt lat="44.14077" lon="4.72128">
        <ele>85.817433</ele>
        <time>2025-02-03T11:32:57.017Z</time>
      </trkpt>
      <trkpt lat="44.14067" lon="4.72121">
        <ele>85.794658</ele>
        <time>2025-02-03T11:33:00.014Z</time>
      </trkpt>
      <trkpt lat="44.14057" lon="4.72115">
        <ele>85.771637</ele>
        <time>2025-02-03T11:33:03.030Z</time>
      </trkpt>
      <trkpt lat="44.14046" lon="4.72108">
        <ele>85.747442</ele>
        <time>2025-02-03T11:33:06.002Z</time>
      </trkpt>
      <trkpt lat="44.14036" lon="4.721">
        <ele>85.723105</ele>
        <time>2025-02-03T11:33:09.024Z</time>
      </trkpt>
      <trkpt lat="44.14025" lon="4.72093">
        <ele>85.699216</ele>
        <time>2025-02-03T11:33:12.022Z</time>
      </trkpt>
      <trkpt lat="44.14015" lon="4.72086">
        <ele>85.675739</ele>
        <time>2025-02-03T11:33:15.019Z</time>
      </trkpt>
      <trkpt lat="44.14005" lon="4.72079">
        <ele>85.652734</ele>
        <time>2025-02-03T11:33:18.031Z</time>
      </trkpt>
      <trkpt lat="44.13995" lon="4.72071">
        <ele>85.629257</ele>
        <time>2025-02-03T11:33:21.030Z</time>
      </trkpt>
      <trkpt lat="44.13985" lon="4.72064">
        <ele>85.605961</ele>
        <time>2025-02-03T11:33:24.021Z</time>
      </trkpt>
      <trkpt lat="44.13975" lon="4.72056">
        <ele>85.583563</ele>
        <time>2025-02-03T11:33:27.010Z</time>
      </trkpt>
      <trkpt lat="44.13965" lon="4.72048">
        <ele>85.560727</ele>
        <time>2025-02-03T11:33:30.012Z</time>
      </trkpt>
      <trkpt lat="44.13956" lon="4.7204">
        <ele>85.537465</ele>
        <time>2025-02-03T11:33:33.008Z</time>
      </trkpt>
      <trkpt lat="44.13946" lon="4.72032">
        <ele>85.514629</ele>
        <time>2025-02-03T11:33:36.026Z</time>
      </trkpt>
      <trkpt lat="44.13936" lon="4.72024">
        <ele>85.491641</ele>
        <time>2025-02-03T11:33:39.013Z</time>
      </trkpt>
      <trkpt lat="44.13927" lon="4.72016">
        <ele>85.468303</ele>
        <time>2025-02-03T11:33:42.016Z</time>
      </trkpt>
      <trkpt lat="44.13917" lon="4.72009">
        <ele>85.458374</ele>
        <time>2025-02-03T11:33:45.020Z</time>
      </trkpt>
      <trkpt lat="44.13906" lon="4.72001">
        <ele>85.448848</ele>
        <time>2025-02-03T11:33:48.023Z</time>
      </trkpt>
      <trkpt lat="44.13896" lon="4.71993">
        <ele>85.439252</ele>
        <time>2025-02-03T11:33:51.017Z</time>
      </trkpt>
      <trkpt lat="44.13886" lon="4.71984">
        <ele>85.429929</ele>
        <time>2025-02-03T11:33:54.011Z</time>
      </trkpt>
      <trkpt lat="44.13876" lon="4.71975">
        <ele>85.42047</ele>
        <time>2025-02-03T11:33:57.024Z</time>
      </trkpt>
      <trkpt lat="44.13866" lon="4.71967">
        <ele>85.410913</ele>
        <time>2025-02-03T11:34:00.013Z</time>
      </trkpt>
      <trkpt lat="44.13855" lon="4.71958">
        <ele>85.401167</ele>
        <time>2025-02-03T11:34:03.022Z</time>
      </trkpt>
      <trkpt lat="44.13845" lon="4.71948">
        <ele>85.391261</ele>
        <time>2025-02-03T11:34:06.007Z</time>
      </trkpt>
      <trkpt lat="44.13835" lon="4.71939">
        <ele>85.381809</ele>
        <time>2025-02-03T11:34:09.038Z</time>
      </trkpt>
      <trkpt lat="44.13825" lon="4.7193">
        <ele>85.372099</ele>
        <time>2025-02-03T11:34:12.021Z</time>
      </trkpt>
      <trkpt lat="44.13814" lon="4.71921">
        <ele>85.362255</ele>
        <time>2025-02-03T11:34:15.017Z</time>
      </trkpt>
      <trkpt lat="44.13804" lon="4.71912">
        <ele>85.352647</ele>
        <time>2025-02-03T11:34:18.023Z</time>
      </trkpt>
      <trkpt lat="44.13795" lon="4.71902">
        <ele>85.343106</ele>
        <time>2025-02-03T11:34:21.015Z</time>
      </trkpt>
      <trkpt lat="44.13785" lon="4.71894">
        <ele>85.333721</ele>
        <time>2025-02-03T11:34:24.027Z</time>
      </trkpt>
      <trkpt lat="44.13775" lon="4.71886">
        <ele>85.324841</ele>
        <time>2025-02-03T11:34:27.016Z</time>
      </trkpt>
      <trkpt lat="44.13765" lon="4.71877">
        <ele>85.312337</ele>
        <time>2025-02-03T11:34:30.016Z</time>
      </trkpt>
      <trkpt lat="44.13755" lon="4.71868">
        <ele>85.299174</ele>
        <time>2025-02-03T11:34:33.032Z</time>
      </trkpt>
      <trkpt lat="44.13745" lon="4.7186">
        <ele>85.286288</ele>
        <time>2025-02-03T11:34:36.013Z</time>
      </trkpt>
      <trkpt lat="44.13735" lon="4.7185">
        <ele>85.272491</ele>
        <time>2025-02-03T11:34:39.005Z</time>
      </trkpt>
      <trkpt lat="44.13725" lon="4.71842">
        <ele>85.259443</ele>
        <time>2025-02-03T11:34:42.014Z</time>
      </trkpt>
      <trkpt lat="44.13715" lon="4.71834">
        <ele>85.246036</ele>
        <time>2025-02-03T11:34:45.017Z</time>
      </trkpt>
      <trkpt lat="44.13705" lon="4.71825">
        <ele>85.232793</ele>
        <time>2025-02-03T11:34:48.008Z</time>
      </trkpt>
      <trkpt lat="44.13695" lon="4.71817">
        <ele>85.220058</ele>
        <time>2025-02-03T11:34:51.013Z</time>
      </trkpt>
      <trkpt lat="44.13686" lon="4.71808">
        <ele>85.20731</ele>
        <time>2025-02-03T11:34:54.017Z</time>
      </trkpt>
      <trkpt lat="44.13676" lon="4.71799">
        <ele>85.194298</ele>
        <time>2025-02-03T11:34:57.026Z</time>
      </trkpt>
      <trkpt lat="44.13666" lon="4.7179">
        <ele>85.180677</ele>
        <time>2025-02-03T11:35:00.001Z</time>
      </trkpt>
      <trkpt lat="44.13656" lon="4.71782">
        <ele>85.167504</ele>
        <time>2025-02-03T11:35:03.020Z</time>
      </trkpt>
      <trkpt lat="44.13647" lon="4.71773">
        <ele>85.155139</ele>
        <time>2025-02-03T11:35:06.015Z</time>
      </trkpt>
      <trkpt lat="44.13637" lon="4.71764">
        <ele>85.142217</ele>
        <time>2025-02-03T11:35:09.003Z</time>
      </trkpt>
      <trkpt lat="44.13628" lon="4.71756">
        <ele>85.129287</ele>
        <time>2025-02-03T11:35:11.992Z</time>
      </trkpt>
      <trkpt lat="44.13617" lon="4.71747">
        <ele>85.136718</ele>
        <time>2025-02-03T11:35:15.011Z</time>
      </trkpt>
      <trkpt lat="44.13607" lon="4.71739">
        <ele>85.188518</ele>
        <time>2025-02-03T11:35:18.007Z</time>
      </trkpt>
      <trkpt lat="44.13597" lon="4.7173">
        <ele>85.238867</ele>
        <time>2025-02-03T11:35:21.009Z</time>
      </trkpt>
      <trkpt lat="44.13587" lon="4.71721">
        <ele>85.287239</ele>
        <time>2025-02-03T11:35:24.023Z</time>
      </trkpt>
      <trkpt lat="44.13577" lon="4.71712">
        <ele>85.337196</ele>
        <time>2025-02-03T11:35:27.017Z</time>
      </trkpt>
      <trkpt lat="44.13568" lon="4.71704">
        <ele>85.385512</ele>
        <time>2025-02-03T11:35:30.007Z</time>
      </trkpt>
      <trkpt lat="44.13558" lon="4.71696">
        <ele>85.434347</ele>
        <time>2025-02-03T11:35:33.030Z</time>
      </trkpt>
      <trkpt lat="44.13548" lon="4.71688">
        <ele>85.482614</ele>
        <time>2025-02-03T11:35:35.996Z</time>
      </trkpt>
      <trkpt lat="44.13538" lon="4.7168">
        <ele>85.530409</ele>
        <time>2025-02-03T11:35:39.006Z</time>
      </trkpt>
      <trkpt lat="44.13529" lon="4.71672">
        <ele>85.578266</ele>
        <time>2025-02-03T11:35:42.010Z</time>
      </trkpt>
      <trkpt lat="44.13519" lon="4.71665">
        <ele>85.626135</ele>
        <time>2025-02-03T11:35:45.011Z</time>
      </trkpt>
      <trkpt lat="44.13509" lon="4.71658">
        <ele>85.672595</ele>
        <time>2025-02-03T11:35:48.013Z</time>
      </trkpt>
      <trkpt lat="44.13501" lon="4.71651">
        <ele>85.712385</ele>
        <time>2025-02-03T11:35:51.003Z</time>
      </trkpt>
      <trkpt lat="44.13492" lon="4.71646">
        <ele>85.751238</ele>
        <time>2025-02-03T11:35:54.014Z</time>
      </trkpt>
      <trkpt lat="44.13482" lon="4.7164">
        <ele>85.797914</ele>
        <time>2025-02-03T11:35:57.008Z</time>
      </trkpt>
      <trkpt lat="44.13472" lon="4.71634">
        <ele>85.843937</ele>
        <time>2025-02-03T11:36:00.006Z</time>
      </trkpt>
      <trkpt lat="44.13462" lon="4.71627">
        <ele>85.884492</ele>
        <time>2025-02-03T11:36:03.013Z</time>
      </trkpt>
      <trkpt lat="44.13451" lon="4.71621">
        <ele>85.892038</ele>
        <time>2025-02-03T11:36:06.006Z</time>
      </trkpt>
      <trkpt lat="44.13441" lon="4.71615">
        <ele>85.899345</ele>
        <time>2025-02-03T11:36:09.013Z</time>
      </trkpt>
      <trkpt lat="44.1343" lon="4.71609">
        <ele>85.906694</ele>
        <time>2025-02-03T11:36:12.013Z</time>
      </trkpt>
      <trkpt lat="44.1342" lon="4.71603">
        <ele>85.914186</ele>
        <time>2025-02-03T11:36:15.012Z</time>
      </trkpt>
      <trkpt lat="44.13408" lon="4.71597">
        <ele>85.922059</ele>
        <time>2025-02-03T11:36:18.007Z</time>
      </trkpt>
      <trkpt lat="44.13397" lon="4.71591">
        <ele>85.929871</ele>
        <time>2025-02-03T11:36:21.016Z</time>
      </trkpt>
      <trkpt lat="44.13385" lon="4.71586">
        <ele>85.937959</ele>
        <time>2025-02-03T11:36:24.014Z</time>
      </trkpt>
      <trkpt lat="44.13373" lon="4.71581">
        <ele>85.945971</ele>
        <time>2025-02-03T11:36:27.008Z</time>
      </trkpt>
      <trkpt lat="44.13362" lon="4.71576">
        <ele>85.953895</ele>
        <time>2025-02-03T11:36:30.005Z</time>
      </trkpt>
      <trkpt lat="44.1335" lon="4.71571">
        <ele>85.962156</ele>
        <time>2025-02-03T11:36:33.012Z</time>
      </trkpt>
      <trkpt lat="44.13338" lon="4.71567">
        <ele>85.970217</ele>
        <time>2025-02-03T11:36:36.014Z</time>
      </trkpt>
      <trkpt lat="44.13325" lon="4.71563">
        <ele>85.978338</ele>
        <time>2025-02-03T11:36:39.018Z</time>
      </trkpt>
      <trkpt lat="44.13313" lon="4.71559">
        <ele>85.986301</ele>
        <time>2025-02-03T11:36:42.009Z</time>
      </trkpt>
      <trkpt lat="44.13301" lon="4.71555">
        <ele>85.994433</ele>
        <time>2025-02-03T11:36:45.012Z</time>
      </trkpt>
      <trkpt lat="44.13289" lon="4.71551">
        <ele>85.994803</ele>
        <time>2025-02-03T11:36:48.017Z</time>
      </trkpt>
      <trkpt lat="44.13276" lon="4.71548">
        <ele>85.979152</ele>
        <time>2025-02-03T11:36:50.983Z</time>
      </trkpt>
      <trkpt lat="44.13264" lon="4.71544">
        <ele>85.964172</ele>
        <time>2025-02-03T11:36:54.006Z</time>
      </trkpt>
      <trkpt lat="44.13251" lon="4.71541">
        <ele>85.948083</ele>
        <time>2025-02-03T11:36:57.012Z</time>
      </trkpt>
      <trkpt lat="44.13239" lon="4.71538">
        <ele>85.932569</ele>
        <time>2025-02-03T11:37:00.019Z</time>
      </trkpt>
      <trkpt lat="44.13227" lon="4.71535">
        <ele>85.917297</ele>
        <time>2025-02-03T11:37:03.027Z</time>
      </trkpt>
      <trkpt lat="44.13214" lon="4.71533">
        <ele>85.901941</ele>
        <time>2025-02-03T11:37:05.985Z</time>
      </trkpt>
      <trkpt lat="44.13202" lon="4.71531">
        <ele>85.886123</ele>
        <time>2025-02-03T11:37:09.008Z</time>
      </trkpt>
      <trkpt lat="44.13189" lon="4.71529">
        <ele>85.87039</ele>
        <time>2025-02-03T11:37:12.017Z</time>
      </trkpt>
      <trkpt lat="44.13176" lon="4.71527">
        <ele>85.854432</ele>
        <time>2025-02-03T11:37:15.014Z</time>
      </trkpt>
      <trkpt lat="44.13163" lon="4.71525">
        <ele>85.83822</ele>
        <time>2025-02-03T11:37:18.018Z</time>
      </trkpt>
      <trkpt lat="44.1315" lon="4.71523">
        <ele>85.821798</ele>
        <time>2025-02-03T11:37:21.012Z</time>
      </trkpt>
      <trkpt lat="44.13137" lon="4.71522">
        <ele>85.805653</ele>
        <time>2025-02-03T11:37:24.012Z</time>
      </trkpt>
      <trkpt lat="44.13124" lon="4.71522">
        <ele>85.789652</ele>
        <time>2025-02-03T11:37:27.005Z</time>
      </trkpt>
      <trkpt lat="44.13111" lon="4.71522">
        <ele>85.741788</ele>
        <time>2025-02-03T11:37:30.017Z</time>
      </trkpt>
      <trkpt lat="44.13098" lon="4.71521">
        <ele>85.625305</ele>
        <time>2025-02-03T11:37:33.012Z</time>
      </trkpt>
      <trkpt lat="44.13084" lon="4.71521">
        <ele>85.50618</ele>
        <time>2025-02-03T11:37:36.006Z</time>
      </trkpt>
      <trkpt lat="44.13071" lon="4.71521">
        <ele>85.386151</ele>
        <time>2025-02-03T11:37:39.018Z</time>
      </trkpt>
      <trkpt lat="44.13062" lon="4.71521">
        <ele>85.30553</ele>
        <time>2025-02-03T11:37:41.006Z</time>
      </trkpt>
      <trkpt lat="44.13049" lon="4.71521">
        <ele>85.186403</ele>
        <time>2025-02-03T11:37:44.026Z</time>
      </trkpt>
      <trkpt lat="44.13036" lon="4.71521">
        <ele>85.070858</ele>
        <time>2025-02-03T11:37:47.020Z</time>
      </trkpt>
      <trkpt lat="44.13023" lon="4.71522">
        <ele>84.959608</ele>
        <time>2025-02-03T11:37:50.011Z</time>
      </trkpt>
      <trkpt lat="44.1301" lon="4.71522">
        <ele>84.838691</ele>
        <time>2025-02-03T11:37:53.003Z</time>
      </trkpt>
      <trkpt lat="44.12996" lon="4.71522">
        <ele>84.717759</ele>
        <time>2025-02-03T11:37:56.013Z</time>
      </trkpt>
      <trkpt lat="44.12987" lon="4.71522">
        <ele>84.637022</ele>
        <time>2025-02-03T11:37:58.006Z</time>
      </trkpt>
      <trkpt lat="44.12978" lon="4.71522">
        <ele>84.551922</ele>
        <time>2025-02-03T11:38:00.010Z</time>
      </trkpt>
      <trkpt lat="44.12964" lon="4.71523">
        <ele>84.431858</ele>
        <time>2025-02-03T11:38:03.023Z</time>
      </trkpt>
      <trkpt lat="44.12952" lon="4.71523">
        <ele>84.318061</ele>
        <time>2025-02-03T11:38:06.005Z</time>
      </trkpt>
      <trkpt lat="44.12942" lon="4.71524">
        <ele>84.235568</ele>
        <time>2025-02-03T11:38:08.005Z</time>
      </trkpt>
      <trkpt lat="44.12933" lon="4.71523">
        <ele>84.153946</ele>
        <time>2025-02-03T11:38:10.003Z</time>
      </trkpt>
      <trkpt lat="44.12921" lon="4.71524">
        <ele>84.032122</ele>
        <time>2025-02-03T11:38:13.009Z</time>
      </trkpt>
      <trkpt lat="44.12908" lon="4.71524">
        <ele>83.913151</ele>
        <time>2025-02-03T11:38:16.025Z</time>
      </trkpt>
      <trkpt lat="44.12895" lon="4.71525">
        <ele>83.787545</ele>
        <time>2025-02-03T11:38:19.003Z</time>
      </trkpt>
      <trkpt lat="44.12882" lon="4.71524">
        <ele>83.665773</ele>
        <time>2025-02-03T11:38:22.018Z</time>
      </trkpt>
      <trkpt lat="44.1287" lon="4.71524">
        <ele>83.55448</ele>
        <time>2025-02-03T11:38:25.002Z</time>
      </trkpt>
      <trkpt lat="44.12859" lon="4.71525">
        <ele>83.445965</ele>
        <time>2025-02-03T11:38:28.010Z</time>
      </trkpt>
      <trkpt lat="44.12848" lon="4.71525">
        <ele>83.344128</ele>
        <time>2025-02-03T11:38:31.011Z</time>
      </trkpt>
      <trkpt lat="44.12839" lon="4.7153">
        <ele>83.248209</ele>
        <time>2025-02-03T11:38:34.014Z</time>
      </trkpt>
      <trkpt lat="44.1283" lon="4.71535">
        <ele>83.159828</ele>
        <time>2025-02-03T11:38:37.025Z</time>
      </trkpt>
      <trkpt lat="44.12822" lon="4.71541">
        <ele>83.069748</ele>
        <time>2025-02-03T11:38:39.996Z</time>
      </trkpt>
      <trkpt lat="44.12815" lon="4.71552">
        <ele>82.974968</ele>
        <time>2025-02-03T11:38:43.013Z</time>
      </trkpt>
      <trkpt lat="44.1281" lon="4.71562">
        <ele>82.884538</ele>
        <time>2025-02-03T11:38:46.033Z</time>
      </trkpt>
      <trkpt lat="44.12801" lon="4.71566">
        <ele>82.793772</ele>
        <time>2025-02-03T11:38:49.011Z</time>
      </trkpt>
      <trkpt lat="44.12795" lon="4.7158">
        <ele>82.687423</ele>
        <time>2025-02-03T11:38:53.017Z</time>
      </trkpt>
      <trkpt lat="44.12794" lon="4.71596">
        <ele>82.572922</ele>
        <time>2025-02-03T11:38:57.018Z</time>
      </trkpt>
      <trkpt lat="44.12792" lon="4.71609">
        <ele>82.482494</ele>
        <time>2025-02-03T11:39:01.019Z</time>
      </trkpt>
      <trkpt lat="44.12787" lon="4.71624">
        <ele>82.560737</ele>
        <time>2025-02-03T11:40:46.020Z</time>
      </trkpt>
      <trkpt lat="44.12777" lon="4.71627">
        <ele>82.679852</ele>
        <time>2025-02-03T11:40:50.003Z</time>
      </trkpt>
      <trkpt lat="44.12767" lon="4.71626">
        <ele>82.79708</ele>
        <time>2025-02-03T11:40:53.004Z</time>
      </trkpt>
      <trkpt lat="44.12755" lon="4.71625">
        <ele>82.926652</ele>
        <time>2025-02-03T11:40:56.026Z</time>
      </trkpt>
      <trkpt lat="44.12742" lon="4.71624">
        <ele>83.07194</ele>
        <time>2025-02-03T11:40:59.068Z</time>
      </trkpt>
      <trkpt lat="44.12729" lon="4.71625">
        <ele>83.217085</ele>
        <time>2025-02-03T11:41:02.112Z</time>
      </trkpt>
      <trkpt lat="44.12716" lon="4.71624">
        <ele>83.36691</ele>
        <time>2025-02-03T11:41:05.041Z</time>
      </trkpt>
      <trkpt lat="44.12707" lon="4.71623">
        <ele>83.470394</ele>
        <time>2025-02-03T11:41:07.027Z</time>
      </trkpt>
      <trkpt lat="44.12697" lon="4.71624">
        <ele>83.580704</ele>
        <time>2025-02-03T11:41:08.986Z</time>
      </trkpt>
      <trkpt lat="44.12687" lon="4.71625">
        <ele>83.694568</ele>
        <time>2025-02-03T11:41:10.986Z</time>
      </trkpt>
      <trkpt lat="44.12677" lon="4.71626">
        <ele>83.807436</ele>
        <time>2025-02-03T11:41:12.997Z</time>
      </trkpt>
      <trkpt lat="44.12667" lon="4.71627">
        <ele>83.917785</ele>
        <time>2025-02-03T11:41:14.987Z</time>
      </trkpt>
      <trkpt lat="44.12657" lon="4.71628">
        <ele>84.030341</ele>
        <time>2025-02-03T11:41:17.001Z</time>
      </trkpt>
      <trkpt lat="44.12647" lon="4.71629">
        <ele>84.145326</ele>
        <time>2025-02-03T11:41:19.003Z</time>
      </trkpt>
      <trkpt lat="44.12637" lon="4.71628">
        <ele>84.258929</ele>
        <time>2025-02-03T11:41:21.001Z</time>
      </trkpt>
      <trkpt lat="44.12627" lon="4.71628">
        <ele>84.371524</ele>
        <time>2025-02-03T11:41:23.005Z</time>
      </trkpt>
      <trkpt lat="44.12617" lon="4.71628">
        <ele>84.480148</ele>
        <time>2025-02-03T11:41:24.995Z</time>
      </trkpt>
      <trkpt lat="44.12607" lon="4.71628">
        <ele>84.502691</ele>
        <time>2025-02-03T11:41:26.985Z</time>
      </trkpt>
      <trkpt lat="44.12597" lon="4.71628">
        <ele>84.525913</ele>
        <time>2025-02-03T11:41:29.013Z</time>
      </trkpt>
      <trkpt lat="44.12586" lon="4.71628">
        <ele>84.54868</ele>
        <time>2025-02-03T11:41:30.988Z</time>
      </trkpt>
      <trkpt lat="44.12576" lon="4.71628">
        <ele>84.57123</ele>
        <time>2025-02-03T11:41:33.001Z</time>
      </trkpt>
      <trkpt lat="44.12566" lon="4.71628">
        <ele>84.594006</ele>
        <time>2025-02-03T11:41:34.995Z</time>
      </trkpt>
      <trkpt lat="44.12556" lon="4.71627">
        <ele>84.617504</ele>
        <time>2025-02-03T11:41:37.020Z</time>
      </trkpt>
      <trkpt lat="44.12546" lon="4.71628">
        <ele>84.640501</ele>
        <time>2025-02-03T11:41:38.993Z</time>
      </trkpt>
      <trkpt lat="44.12536" lon="4.71628">
        <ele>84.662818</ele>
        <time>2025-02-03T11:41:41.024Z</time>
      </trkpt>
      <trkpt lat="44.12525" lon="4.71628">
        <ele>84.687388</ele>
        <time>2025-02-03T11:41:43.020Z</time>
      </trkpt>
      <trkpt lat="44.12515" lon="4.71629">
        <ele>84.710858</ele>
        <time>2025-02-03T11:41:45.014Z</time>
      </trkpt>
      <trkpt lat="44.12504" lon="4.71629">
        <ele>84.734306</ele>
        <time>2025-02-03T11:41:47.021Z</time>
      </trkpt>
      <trkpt lat="44.12493" lon="4.7163">
        <ele>84.758451</ele>
        <time>2025-02-03T11:41:49.014Z</time>
      </trkpt>
      <trkpt lat="44.12483" lon="4.7163">
        <ele>84.782796</ele>
        <time>2025-02-03T11:41:50.992Z</time>
      </trkpt>
      <trkpt lat="44.12472" lon="4.7163">
        <ele>84.806915</ele>
        <time>2025-02-03T11:41:53.020Z</time>
      </trkpt>
      <trkpt lat="44.12461" lon="4.71629">
        <ele>84.831715</ele>
        <time>2025-02-03T11:41:55.019Z</time>
      </trkpt>
      <trkpt lat="44.1245" lon="4.7163">
        <ele>84.856761</ele>
        <time>2025-02-03T11:41:57.018Z</time>
      </trkpt>
      <trkpt lat="44.12439" lon="4.7163">
        <ele>84.880655</ele>
        <time>2025-02-03T11:41:59.024Z</time>
      </trkpt>
      <trkpt lat="44.12428" lon="4.7163">
        <ele>84.800064</ele>
        <time>2025-02-03T11:42:00.996Z</time>
      </trkpt>
      <trkpt lat="44.12418" lon="4.71631">
        <ele>84.702352</ele>
        <time>2025-02-03T11:42:03.010Z</time>
      </trkpt>
      <trkpt lat="44.12407" lon="4.7163">
        <ele>84.606473</ele>
        <time>2025-02-03T11:42:05.029Z</time>
      </trkpt>
      <trkpt lat="44.12397" lon="4.71631">
        <ele>84.508781</ele>
        <time>2025-02-03T11:42:07.018Z</time>
      </trkpt>
      <trkpt lat="44.12387" lon="4.71632">
        <ele>84.413632</ele>
        <time>2025-02-03T11:42:09.021Z</time>
      </trkpt>
      <trkpt lat="44.12376" lon="4.71633">
        <ele>84.315793</ele>
        <time>2025-02-03T11:42:11.027Z</time>
      </trkpt>
      <trkpt lat="44.12366" lon="4.71633">
        <ele>84.219988</ele>
        <time>2025-02-03T11:42:13.003Z</time>
      </trkpt>
      <trkpt lat="44.12356" lon="4.71633">
        <ele>84.123242</ele>
        <time>2025-02-03T11:42:15.032Z</time>
      </trkpt>
      <trkpt lat="44.12346" lon="4.71635">
        <ele>84.03055</ele>
        <time>2025-02-03T11:42:17.014Z</time>
      </trkpt>
      <trkpt lat="44.12335" lon="4.71636">
        <ele>83.935288</ele>
        <time>2025-02-03T11:42:19.010Z</time>
      </trkpt>
      <trkpt lat="44.12325" lon="4.71637">
        <ele>83.838174</ele>
        <time>2025-02-03T11:42:21.022Z</time>
      </trkpt>
      <trkpt lat="44.12315" lon="4.71639">
        <ele>83.741857</ele>
        <time>2025-02-03T11:42:23.010Z</time>
      </trkpt>
      <trkpt lat="44.12304" lon="4.7164">
        <ele>83.645607</ele>
        <time>2025-02-03T11:42:25.022Z</time>
      </trkpt>
      <trkpt lat="44.12294" lon="4.71642">
        <ele>83.546292</ele>
        <time>2025-02-03T11:42:27.010Z</time>
      </trkpt>
      <trkpt lat="44.12283" lon="4.71645">
        <ele>83.446987</ele>
        <time>2025-02-03T11:42:29.013Z</time>
      </trkpt>
      <trkpt lat="44.12273" lon="4.71648">
        <ele>83.347889</ele>
        <time>2025-02-03T11:42:31.020Z</time>
      </trkpt>
      <trkpt lat="44.12262" lon="4.71651">
        <ele>83.247296</ele>
        <time>2025-02-03T11:42:33.011Z</time>
      </trkpt>
      <trkpt lat="44.12252" lon="4.71652">
        <ele>83.179041</ele>
        <time>2025-02-03T11:42:35.011Z</time>
      </trkpt>
      <trkpt lat="44.12241" lon="4.71655">
        <ele>83.125187</ele>
        <time>2025-02-03T11:42:36.996Z</time>
      </trkpt>
      <trkpt lat="44.12231" lon="4.71659">
        <ele>83.073102</ele>
        <time>2025-02-03T11:42:39.016Z</time>
      </trkpt>
      <trkpt lat="44.12221" lon="4.71663">
        <ele>83.019792</ele>
        <time>2025-02-03T11:42:41.026Z</time>
      </trkpt>
      <trkpt lat="44.1221" lon="4.71667">
        <ele>82.96627</ele>
        <time>2025-02-03T11:42:43.024Z</time>
      </trkpt>
      <trkpt lat="44.122" lon="4.71672">
        <ele>82.911904</ele>
        <time>2025-02-03T11:42:45.019Z</time>
      </trkpt>
      <trkpt lat="44.1219" lon="4.71675">
        <ele>82.858595</ele>
        <time>2025-02-03T11:42:47.010Z</time>
      </trkpt>
      <trkpt lat="44.1218" lon="4.7168">
        <ele>82.807071</ele>
        <time>2025-02-03T11:42:49.029Z</time>
      </trkpt>
      <trkpt lat="44.1217" lon="4.71684">
        <ele>82.756233</ele>
        <time>2025-02-03T11:42:51.019Z</time>
      </trkpt>
      <trkpt lat="44.1216" lon="4.71688">
        <ele>82.705542</ele>
        <time>2025-02-03T11:42:53.016Z</time>
      </trkpt>
      <trkpt lat="44.1215" lon="4.71693">
        <ele>82.654332</ele>
        <time>2025-02-03T11:42:55.023Z</time>
      </trkpt>
      <trkpt lat="44.1214" lon="4.71695">
        <ele>82.603209</ele>
        <time>2025-02-03T11:42:57.030Z</time>
      </trkpt>
      <trkpt lat="44.1213" lon="4.71698">
        <ele>82.551337</ele>
        <time>2025-02-03T11:42:59.016Z</time>
      </trkpt>
      <trkpt lat="44.1212" lon="4.71703">
        <ele>82.500866</ele>
        <time>2025-02-03T11:43:01.033Z</time>
      </trkpt>
      <trkpt lat="44.12111" lon="4.71705">
        <ele>82.45182</ele>
        <time>2025-02-03T11:43:03.021Z</time>
      </trkpt>
      <trkpt lat="44.12101" lon="4.71709">
        <ele>82.401089</ele>
        <time>2025-02-03T11:43:05.014Z</time>
      </trkpt>
      <trkpt lat="44.12091" lon="4.71712">
        <ele>82.34981</ele>
        <time>2025-02-03T11:43:07.013Z</time>
      </trkpt>
      <trkpt lat="44.12081" lon="4.71716">
        <ele>82.332011</ele>
        <time>2025-02-03T11:43:09.020Z</time>
      </trkpt>
      <trkpt lat="44.12071" lon="4.7172">
        <ele>82.360709</ele>
        <time>2025-02-03T11:43:11.018Z</time>
      </trkpt>
      <trkpt lat="44.12061" lon="4.71724">
        <ele>82.388132</ele>
        <time>2025-02-03T11:43:13.014Z</time>
      </trkpt>
      <trkpt lat="44.12052" lon="4.71727">
        <ele>82.415606</ele>
        <time>2025-02-03T11:43:15.017Z</time>
      </trkpt>
      <trkpt lat="44.12042" lon="4.71731">
        <ele>82.443882</ele>
        <time>2025-02-03T11:43:17.014Z</time>
      </trkpt>
      <trkpt lat="44.12032" lon="4.71735">
        <ele>82.470665</ele>
        <time>2025-02-03T11:43:19.029Z</time>
      </trkpt>
      <trkpt lat="44.12023" lon="4.71738">
        <ele>82.497926</ele>
        <time>2025-02-03T11:43:21.331Z</time>
      </trkpt>
      <trkpt lat="44.12013" lon="4.71743">
        <ele>82.525592</ele>
        <time>2025-02-03T11:43:23.007Z</time>
      </trkpt>
      <trkpt lat="44.12004" lon="4.71747">
        <ele>82.552934</ele>
        <time>2025-02-03T11:43:25.013Z</time>
      </trkpt>
      <trkpt lat="44.11994" lon="4.7175">
        <ele>82.581112</ele>
        <time>2025-02-03T11:43:27.016Z</time>
      </trkpt>
      <trkpt lat="44.11985" lon="4.71754">
        <ele>82.607734</ele>
        <time>2025-02-03T11:43:29.020Z</time>
      </trkpt>
      <trkpt lat="44.11975" lon="4.71758">
        <ele>82.635846</ele>
        <time>2025-02-03T11:43:31.009Z</time>
      </trkpt>
      <trkpt lat="44.11965" lon="4.71761">
        <ele>82.663639</ele>
        <time>2025-02-03T11:43:33.007Z</time>
      </trkpt>
      <trkpt lat="44.11955" lon="4.71766">
        <ele>82.693033</ele>
        <time>2025-02-03T11:43:35.032Z</time>
      </trkpt>
      <trkpt lat="44.11945" lon="4.71769">
        <ele>82.721945</ele>
        <time>2025-02-03T11:43:37.004Z</time>
      </trkpt>
      <trkpt lat="44.11935" lon="4.71773">
        <ele>82.750975</ele>
        <time>2025-02-03T11:43:39.005Z</time>
      </trkpt>
      <trkpt lat="44.11924" lon="4.71774">
        <ele>82.781519</ele>
        <time>2025-02-03T11:43:41.016Z</time>
      </trkpt>
      <trkpt lat="44.11913" lon="4.71775">
        <ele>82.810591</ele>
        <time>2025-02-03T11:43:43.013Z</time>
      </trkpt>
      <trkpt lat="44.11904" lon="4.71776">
        <ele>82.890996</ele>
        <time>2025-02-03T11:43:45.042Z</time>
      </trkpt>
      <trkpt lat="44.11895" lon="4.71779">
        <ele>82.987624</ele>
        <time>2025-02-03T11:43:46.997Z</time>
      </trkpt>
      <trkpt lat="44.11886" lon="4.71781">
        <ele>83.081354</ele>
        <time>2025-02-03T11:43:49.019Z</time>
      </trkpt>
      <trkpt lat="44.11873" lon="4.71786">
        <ele>83.221839</ele>
        <time>2025-02-03T11:43:52.011Z</time>
      </trkpt>
      <trkpt lat="44.11864" lon="4.71789">
        <ele>83.317928</ele>
        <time>2025-02-03T11:43:54.010Z</time>
      </trkpt>
      <trkpt lat="44.11855" lon="4.71793">
        <ele>83.415555</ele>
        <time>2025-02-03T11:43:56.008Z</time>
      </trkpt>
      <trkpt lat="44.11846" lon="4.71796">
        <ele>83.513754</ele>
        <time>2025-02-03T11:43:58.029Z</time>
      </trkpt>
      <trkpt lat="44.11837" lon="4.718">
        <ele>83.611363</ele>
        <time>2025-02-03T11:44:00.005Z</time>
      </trkpt>
      <trkpt lat="44.11827" lon="4.71803">
        <ele>83.714217</ele>
        <time>2025-02-03T11:44:02.006Z</time>
      </trkpt>
      <trkpt lat="44.11817" lon="4.71807">
        <ele>83.81763</ele>
        <time>2025-02-03T11:44:04.015Z</time>
      </trkpt>
      <trkpt lat="44.11808" lon="4.7181">
        <ele>83.919296</ele>
        <time>2025-02-03T11:44:06.003Z</time>
      </trkpt>
      <trkpt lat="44.11798" lon="4.71813">
        <ele>84.022518</ele>
        <time>2025-02-03T11:44:08.005Z</time>
      </trkpt>
      <trkpt lat="44.11788" lon="4.71817">
        <ele>84.133351</ele>
        <time>2025-02-03T11:44:10.004Z</time>
      </trkpt>
      <trkpt lat="44.11778" lon="4.71821">
        <ele>84.241983</ele>
        <time>2025-02-03T11:44:12.008Z</time>
      </trkpt>
      <trkpt lat="44.11768" lon="4.71824">
        <ele>84.351434</ele>
        <time>2025-02-03T11:44:14.020Z</time>
      </trkpt>
      <trkpt lat="44.11758" lon="4.71829">
        <ele>84.458868</ele>
        <time>2025-02-03T11:44:16.013Z</time>
      </trkpt>
      <trkpt lat="44.11748" lon="4.71832">
        <ele>84.566688</ele>
        <time>2025-02-03T11:44:18.036Z</time>
      </trkpt>
      <trkpt lat="44.11738" lon="4.71836">
        <ele>84.675132</ele>
        <time>2025-02-03T11:44:20.032Z</time>
      </trkpt>
      <trkpt lat="44.11728" lon="4.7184">
        <ele>84.661897</ele>
        <time>2025-02-03T11:44:21.991Z</time>
      </trkpt>
      <trkpt lat="44.11717" lon="4.71845">
        <ele>84.631654</ele>
        <time>2025-02-03T11:44:24.026Z</time>
      </trkpt>
      <trkpt lat="44.11707" lon="4.71848">
        <ele>84.602173</ele>
        <time>2025-02-03T11:44:26.019Z</time>
      </trkpt>
      <trkpt lat="44.11698" lon="4.71853">
        <ele>84.573862</ele>
        <time>2025-02-03T11:44:28.020Z</time>
      </trkpt>
      <trkpt lat="44.11688" lon="4.71856">
        <ele>84.544383</ele>
        <time>2025-02-03T11:44:30.014Z</time>
      </trkpt>
      <trkpt lat="44.11678" lon="4.71859">
        <ele>84.515369</ele>
        <time>2025-02-03T11:44:32.014Z</time>
      </trkpt>
      <trkpt lat="44.11667" lon="4.71863">
        <ele>84.484742</ele>
        <time>2025-02-03T11:44:34.036Z</time>
      </trkpt>
      <trkpt lat="44.11657" lon="4.71866">
        <ele>84.454304</ele>
        <time>2025-02-03T11:44:36.024Z</time>
      </trkpt>
      <trkpt lat="44.11646" lon="4.7187">
        <ele>84.423774</ele>
        <time>2025-02-03T11:44:37.990Z</time>
      </trkpt>
      <trkpt lat="44.11636" lon="4.71874">
        <ele>84.393096</ele>
        <time>2025-02-03T11:44:40.037Z</time>
      </trkpt>
      <trkpt lat="44.11626" lon="4.71878">
        <ele>84.363076</ele>
        <time>2025-02-03T11:44:42.018Z</time>
      </trkpt>
      <trkpt lat="44.11615" lon="4.71882">
        <ele>84.332821</ele>
        <time>2025-02-03T11:44:43.989Z</time>
      </trkpt>
      <trkpt lat="44.11605" lon="4.71886">
        <ele>84.302743</ele>
        <time>2025-02-03T11:44:46.009Z</time>
      </trkpt>
      <trkpt lat="44.11595" lon="4.71889">
        <ele>84.272272</ele>
        <time>2025-02-03T11:44:48.010Z</time>
      </trkpt>
      <trkpt lat="44.11584" lon="4.71893">
        <ele>84.241594</ele>
        <time>2025-02-03T11:44:50.005Z</time>
      </trkpt>
      <trkpt lat="44.11574" lon="4.71897">
        <ele>84.21103</ele>
        <time>2025-02-03T11:44:52.012Z</time>
      </trkpt>
      <trkpt lat="44.11563" lon="4.71901">
        <ele>84.180951</ele>
        <time>2025-02-03T11:44:54.020Z</time>
      </trkpt>
      <trkpt lat="44.11553" lon="4.71904">
        <ele>84.177948</ele>
        <time>2025-02-03T11:44:56.025Z</time>
      </trkpt>
      <trkpt lat="44.11543" lon="4.71907">
        <ele>84.176242</ele>
        <time>2025-02-03T11:44:58.014Z</time>
      </trkpt>
      <trkpt lat="44.11533" lon="4.71911">
        <ele>84.174518</ele>
        <time>2025-02-03T11:45:00.020Z</time>
      </trkpt>
      <trkpt lat="44.11523" lon="4.71915">
        <ele>84.172874</ele>
        <time>2025-02-03T11:45:02.007Z</time>
      </trkpt>
      <trkpt lat="44.11513" lon="4.71919">
        <ele>84.171195</ele>
        <time>2025-02-03T11:45:03.997Z</time>
      </trkpt>
      <trkpt lat="44.11504" lon="4.71924">
        <ele>84.169515</ele>
        <time>2025-02-03T11:45:06.001Z</time>
      </trkpt>
      <trkpt lat="44.11494" lon="4.71926">
        <ele>84.167885</ele>
        <time>2025-02-03T11:45:08.007Z</time>
      </trkpt>
      <trkpt lat="44.11484" lon="4.71929">
        <ele>84.166199</ele>
        <time>2025-02-03T11:45:10.009Z</time>
      </trkpt>
      <trkpt lat="44.11475" lon="4.71933">
        <ele>84.164577</ele>
        <time>2025-02-03T11:45:12.017Z</time>
      </trkpt>
      <trkpt lat="44.11465" lon="4.71935">
        <ele>84.162933</ele>
        <time>2025-02-03T11:45:14.015Z</time>
      </trkpt>
      <trkpt lat="44.11455" lon="4.71937">
        <ele>84.161336</ele>
        <time>2025-02-03T11:45:16.010Z</time>
      </trkpt>
      <trkpt lat="44.11445" lon="4.71941">
        <ele>84.159682</ele>
        <time>2025-02-03T11:45:18.013Z</time>
      </trkpt>
      <trkpt lat="44.11436" lon="4.71944">
        <ele>84.15805</ele>
        <time>2025-02-03T11:45:20.011Z</time>
      </trkpt>
      <trkpt lat="44.11426" lon="4.71947">
        <ele>84.156448</ele>
        <time>2025-02-03T11:45:21.999Z</time>
      </trkpt>
      <trkpt lat="44.11417" lon="4.71951">
        <ele>84.154774</ele>
        <time>2025-02-03T11:45:24.007Z</time>
      </trkpt>
      <trkpt lat="44.11407" lon="4.71954">
        <ele>84.15314</ele>
        <time>2025-02-03T11:45:26.007Z</time>
      </trkpt>
      <trkpt lat="44.11398" lon="4.71958">
        <ele>84.15151</ele>
        <time>2025-02-03T11:45:27.986Z</time>
      </trkpt>
      <trkpt lat="44.11389" lon="4.71963">
        <ele>84.140685</ele>
        <time>2025-02-03T11:45:30.006Z</time>
      </trkpt>
      <trkpt lat="44.11379" lon="4.71968">
        <ele>83.939213</ele>
        <time>2025-02-03T11:45:32.005Z</time>
      </trkpt>
      <trkpt lat="44.11369" lon="4.71971">
        <ele>83.73187</ele>
        <time>2025-02-03T11:45:34.022Z</time>
      </trkpt>
      <trkpt lat="44.1136" lon="4.71975">
        <ele>83.52747</ele>
        <time>2025-02-03T11:45:36.004Z</time>
      </trkpt>
      <trkpt lat="44.1135" lon="4.71979">
        <ele>83.319322</ele>
        <time>2025-02-03T11:45:38.017Z</time>
      </trkpt>
      <trkpt lat="44.1134" lon="4.71983">
        <ele>83.112089</ele>
        <time>2025-02-03T11:45:39.992Z</time>
      </trkpt>
      <trkpt lat="44.11329" lon="4.71988">
        <ele>82.883173</ele>
        <time>2025-02-03T11:45:41.990Z</time>
      </trkpt>
      <trkpt lat="44.11317" lon="4.71994">
        <ele>82.623235</ele>
        <time>2025-02-03T11:45:44.028Z</time>
      </trkpt>
      <trkpt lat="44.11304" lon="4.71999">
        <ele>82.350254</ele>
        <time>2025-02-03T11:45:46.012Z</time>
      </trkpt>
      <trkpt lat="44.11291" lon="4.72006">
        <ele>82.058812</ele>
        <time>2025-02-03T11:45:48.011Z</time>
      </trkpt>
      <trkpt lat="44.11275" lon="4.72011">
        <ele>81.735651</ele>
        <time>2025-02-03T11:45:50.012Z</time>
      </trkpt>
      <trkpt lat="44.11259" lon="4.72017">
        <ele>81.391205</ele>
        <time>2025-02-03T11:45:52.014Z</time>
      </trkpt>
      <trkpt lat="44.11243" lon="4.72023">
        <ele>81.066994</ele>
        <time>2025-02-03T11:45:54.015Z</time>
      </trkpt>
      <trkpt lat="44.11229" lon="4.72027">
        <ele>80.776714</ele>
        <time>2025-02-03T11:45:56.005Z</time>
      </trkpt>
      <trkpt lat="44.11217" lon="4.7203">
        <ele>80.535033</ele>
        <time>2025-02-03T11:45:57.987Z</time>
      </trkpt>
      <trkpt lat="44.11211" lon="4.72041">
        <ele>80.406105</ele>
        <time>2025-02-03T11:46:01.005Z</time>
      </trkpt>
      <trkpt lat="44.11214" lon="4.72055">
        <ele>80.291363</ele>
        <time>2025-02-03T11:46:04.016Z</time>
      </trkpt>
      <trkpt lat="44.11204" lon="4.72058">
        <ele>80.177843</ele>
        <time>2025-02-03T11:46:07.011Z</time>
      </trkpt>
      <trkpt lat="44.11194" lon="4.72061">
        <ele>80.059788</ele>
        <time>2025-02-03T11:46:10.022Z</time>
      </trkpt>
      <trkpt lat="44.11181" lon="4.72062">
        <ele>79.920608</ele>
        <time>2025-02-03T11:46:13.014Z</time>
      </trkpt>
      <trkpt lat="44.11168" lon="4.72065">
        <ele>79.772253</ele>
        <time>2025-02-03T11:46:16.019Z</time>
      </trkpt>
      <trkpt lat="44.11159" lon="4.72066">
        <ele>79.665719</ele>
        <time>2025-02-03T11:46:18.018Z</time>
      </trkpt>
      <trkpt lat="44.11149" lon="4.72068">
        <ele>79.5503</ele>
        <time>2025-02-03T11:46:20.013Z</time>
      </trkpt>
      <trkpt lat="44.11138" lon="4.72072">
        <ele>79.428538</ele>
        <time>2025-02-03T11:46:22.013Z</time>
      </trkpt>
      <trkpt lat="44.11127" lon="4.72077">
        <ele>79.294574</ele>
        <time>2025-02-03T11:46:24.008Z</time>
      </trkpt>
      <trkpt lat="44.11115" lon="4.72083">
        <ele>79.154241</ele>
        <time>2025-02-03T11:46:26.031Z</time>
      </trkpt>
      <trkpt lat="44.11104" lon="4.72089">
        <ele>79.018317</ele>
        <time>2025-02-03T11:46:27.995Z</time>
      </trkpt>
      <trkpt lat="44.11094" lon="4.72096">
        <ele>78.889759</ele>
        <time>2025-02-03T11:46:30.002Z</time>
      </trkpt>
      <trkpt lat="44.11083" lon="4.72101">
        <ele>78.764347</ele>
        <time>2025-02-03T11:46:32.005Z</time>
      </trkpt>
      <trkpt lat="44.11073" lon="4.72105">
        <ele>78.645828</ele>
        <time>2025-02-03T11:46:34.021Z</time>
      </trkpt>
      <trkpt lat="44.11063" lon="4.7211">
        <ele>78.526784</ele>
        <time>2025-02-03T11:46:36.015Z</time>
      </trkpt>
      <trkpt lat="44.11053" lon="4.72115">
        <ele>78.412111</ele>
        <time>2025-02-03T11:46:38.023Z</time>
      </trkpt>
      <trkpt lat="44.11044" lon="4.7212">
        <ele>78.305995</ele>
        <time>2025-02-03T11:46:40.002Z</time>
      </trkpt>
      <trkpt lat="44.11034" lon="4.72125">
        <ele>78.201276</ele>
        <time>2025-02-03T11:46:42.008Z</time>
      </trkpt>
      <trkpt lat="44.11025" lon="4.72131">
        <ele>78.097024</ele>
        <time>2025-02-03T11:46:44.023Z</time>
      </trkpt>
      <trkpt lat="44.11015" lon="4.72136">
        <ele>77.991165</ele>
        <time>2025-02-03T11:46:46.026Z</time>
      </trkpt>
      <trkpt lat="44.11007" lon="4.72141">
        <ele>77.893436</ele>
        <time>2025-02-03T11:46:48.023Z</time>
      </trkpt>
      <trkpt lat="44.10995" lon="4.7215">
        <ele>77.755202</ele>
        <time>2025-02-03T11:46:51.011Z</time>
      </trkpt>
      <trkpt lat="44.10987" lon="4.72158">
        <ele>77.654466</ele>
        <time>2025-02-03T11:46:52.990Z</time>
      </trkpt>
      <trkpt lat="44.10979" lon="4.72165">
        <ele>77.556717</ele>
        <time>2025-02-03T11:46:55.009Z</time>
      </trkpt>
      <trkpt lat="44.10971" lon="4.72171">
        <ele>77.458129</ele>
        <time>2025-02-03T11:46:57.017Z</time>
      </trkpt>
      <trkpt lat="44.10962" lon="4.72179">
        <ele>77.350923</ele>
        <time>2025-02-03T11:46:59.009Z</time>
      </trkpt>
      <trkpt lat="44.10954" lon="4.72187">
        <ele>77.246838</ele>
        <time>2025-02-03T11:47:01.015Z</time>
      </trkpt>
      <trkpt lat="44.10946" lon="4.72195">
        <ele>77.144444</ele>
        <time>2025-02-03T11:47:03.027Z</time>
      </trkpt>
      <trkpt lat="44.10938" lon="4.72203">
        <ele>77.046635</ele>
        <time>2025-02-03T11:47:05.015Z</time>
      </trkpt>
      <trkpt lat="44.10931" lon="4.72211">
        <ele>76.950766</ele>
        <time>2025-02-03T11:47:07.023Z</time>
      </trkpt>
      <trkpt lat="44.10924" lon="4.72219">
        <ele>76.851229</ele>
        <time>2025-02-03T11:47:09.019Z</time>
      </trkpt>
      <trkpt lat="44.10916" lon="4.72228">
        <ele>76.754293</ele>
        <time>2025-02-03T11:47:10.995Z</time>
      </trkpt>
      <trkpt lat="44.1091" lon="4.72237">
        <ele>76.658424</ele>
        <time>2025-02-03T11:47:13.006Z</time>
      </trkpt>
      <trkpt lat="44.10902" lon="4.72246">
        <ele>76.679643</ele>
        <time>2025-02-03T11:47:15.014Z</time>
      </trkpt>
      <trkpt lat="44.10895" lon="4.72255">
        <ele>76.797643</ele>
        <time>2025-02-03T11:47:17.014Z</time>
      </trkpt>
      <trkpt lat="44.10888" lon="4.72264">
        <ele>76.91298</ele>
        <time>2025-02-03T11:47:19.017Z</time>
      </trkpt>
      <trkpt lat="44.10881" lon="4.72274">
        <ele>77.032527</ele>
        <time>2025-02-03T11:47:21.023Z</time>
      </trkpt>
      <trkpt lat="44.10875" lon="4.72283">
        <ele>77.143145</ele>
        <time>2025-02-03T11:47:23.021Z</time>
      </trkpt>
      <trkpt lat="44.10868" lon="4.72292">
        <ele>77.254724</ele>
        <time>2025-02-03T11:47:25.013Z</time>
      </trkpt>
      <trkpt lat="44.10862" lon="4.72301">
        <ele>77.36551</ele>
        <time>2025-02-03T11:47:27.014Z</time>
      </trkpt>
      <trkpt lat="44.10856" lon="4.72312">
        <ele>77.485515</ele>
        <time>2025-02-03T11:47:29.018Z</time>
      </trkpt>
      <trkpt lat="44.10849" lon="4.72321">
        <ele>77.602369</ele>
        <time>2025-02-03T11:47:31.035Z</time>
      </trkpt>
      <trkpt lat="44.10842" lon="4.7233">
        <ele>77.719776</ele>
        <time>2025-02-03T11:47:33.009Z</time>
      </trkpt>
      <trkpt lat="44.10834" lon="4.72339">
        <ele>77.836293</ele>
        <time>2025-02-03T11:47:35.013Z</time>
      </trkpt>
      <trkpt lat="44.10827" lon="4.72347">
        <ele>77.949078</ele>
        <time>2025-02-03T11:47:37.017Z</time>
      </trkpt>
      <trkpt lat="44.1082" lon="4.72356">
        <ele>78.062427</ele>
        <time>2025-02-03T11:47:39.016Z</time>
      </trkpt>
      <trkpt lat="44.10813" lon="4.72364">
        <ele>78.174651</ele>
        <time>2025-02-03T11:47:40.999Z</time>
      </trkpt>
      <trkpt lat="44.10805" lon="4.72372">
        <ele>78.290779</ele>
        <time>2025-02-03T11:47:43.006Z</time>
      </trkpt>
      <trkpt lat="44.10799" lon="4.72381">
        <ele>78.40495</ele>
        <time>2025-02-03T11:47:45.018Z</time>
      </trkpt>
      <trkpt lat="44.10792" lon="4.72392">
        <ele>78.529323</ele>
        <time>2025-02-03T11:47:47.013Z</time>
      </trkpt>
      <trkpt lat="44.10784" lon="4.72402">
        <ele>78.657674</ele>
        <time>2025-02-03T11:47:49.022Z</time>
      </trkpt>
      <trkpt lat="44.10774" lon="4.72415">
        <ele>78.732603</ele>
        <time>2025-02-03T11:47:52.012Z</time>
      </trkpt>
      <trkpt lat="44.10768" lon="4.72425">
        <ele>78.505812</ele>
        <time>2025-02-03T11:47:54.013Z</time>
      </trkpt>
      <trkpt lat="44.10761" lon="4.72435">
        <ele>78.26349</ele>
        <time>2025-02-03T11:47:56.013Z</time>
      </trkpt>
      <trkpt lat="44.10754" lon="4.72444">
        <ele>78.037605</ele>
        <time>2025-02-03T11:47:58.009Z</time>
      </trkpt>
      <trkpt lat="44.10746" lon="4.72453">
        <ele>77.796683</ele>
        <time>2025-02-03T11:48:00.015Z</time>
      </trkpt>
      <trkpt lat="44.10739" lon="4.72462">
        <ele>77.575074</ele>
        <time>2025-02-03T11:48:02.044Z</time>
      </trkpt>
      <trkpt lat="44.10731" lon="4.72471">
        <ele>77.337433</ele>
        <time>2025-02-03T11:48:04.009Z</time>
      </trkpt>
      <trkpt lat="44.10723" lon="4.7248">
        <ele>77.084815</ele>
        <time>2025-02-03T11:48:06.017Z</time>
      </trkpt>
      <trkpt lat="44.10716" lon="4.72489">
        <ele>76.852989</ele>
        <time>2025-02-03T11:48:08.016Z</time>
      </trkpt>
      <trkpt lat="44.10707" lon="4.72498">
        <ele>76.605445</ele>
        <time>2025-02-03T11:48:10.016Z</time>
      </trkpt>
      <trkpt lat="44.107" lon="4.72507">
        <ele>76.367803</ele>
        <time>2025-02-03T11:48:12.025Z</time>
      </trkpt>
      <trkpt lat="44.10692" lon="4.72517">
        <ele>76.127928</ele>
        <time>2025-02-03T11:48:14.016Z</time>
      </trkpt>
      <trkpt lat="44.10685" lon="4.72526">
        <ele>75.885247</ele>
        <time>2025-02-03T11:48:16.016Z</time>
      </trkpt>
      <trkpt lat="44.10678" lon="4.72536">
        <ele>75.649132</ele>
        <time>2025-02-03T11:48:18.010Z</time>
      </trkpt>
      <trkpt lat="44.10671" lon="4.72546">
        <ele>75.414501</ele>
        <time>2025-02-03T11:48:20.018Z</time>
      </trkpt>
      <trkpt lat="44.10664" lon="4.72556">
        <ele>75.17868</ele>
        <time>2025-02-03T11:48:22.019Z</time>
      </trkpt>
      <trkpt lat="44.10656" lon="4.72565">
        <ele>74.941162</ele>
        <time>2025-02-03T11:48:24.017Z</time>
      </trkpt>
      <trkpt lat="44.10649" lon="4.72575">
        <ele>74.707028</ele>
        <time>2025-02-03T11:48:26.024Z</time>
      </trkpt>
      <trkpt lat="44.10642" lon="4.72585">
        <ele>74.564866</ele>
        <time>2025-02-03T11:48:28.021Z</time>
      </trkpt>
      <trkpt lat="44.10635" lon="4.72595">
        <ele>74.720304</ele>
        <time>2025-02-03T11:48:30.017Z</time>
      </trkpt>
      <trkpt lat="44.10628" lon="4.72605">
        <ele>74.879265</ele>
        <time>2025-02-03T11:48:32.017Z</time>
      </trkpt>
      <trkpt lat="44.10621" lon="4.72615">
        <ele>75.041514</ele>
        <time>2025-02-03T11:48:34.013Z</time>
      </trkpt>
      <trkpt lat="44.10613" lon="4.72625">
        <ele>75.20634</ele>
        <time>2025-02-03T11:48:36.011Z</time>
      </trkpt>
      <trkpt lat="44.10605" lon="4.72635">
        <ele>75.371925</ele>
        <time>2025-02-03T11:48:38.018Z</time>
      </trkpt>
      <trkpt lat="44.10598" lon="4.72645">
        <ele>75.531755</ele>
        <time>2025-02-03T11:48:40.003Z</time>
      </trkpt>
      <trkpt lat="44.1059" lon="4.72654">
        <ele>75.697339</ele>
        <time>2025-02-03T11:48:42.005Z</time>
      </trkpt>
      <trkpt lat="44.10583" lon="4.72664">
        <ele>75.856409</ele>
        <time>2025-02-03T11:48:43.993Z</time>
      </trkpt>
      <trkpt lat="44.10574" lon="4.72672">
        <ele>76.016796</ele>
        <time>2025-02-03T11:48:46.025Z</time>
      </trkpt>
      <trkpt lat="44.10567" lon="4.72682">
        <ele>76.17169</ele>
        <time>2025-02-03T11:48:48.023Z</time>
      </trkpt>
      <trkpt lat="44.10559" lon="4.72689">
        <ele>76.322356</ele>
        <time>2025-02-03T11:48:50.018Z</time>
      </trkpt>
      <trkpt lat="44.10551" lon="4.72697">
        <ele>76.474301</ele>
        <time>2025-02-03T11:48:52.007Z</time>
      </trkpt>
      <trkpt lat="44.10543" lon="4.72704">
        <ele>76.629062</ele>
        <time>2025-02-03T11:48:54.014Z</time>
      </trkpt>
      <trkpt lat="44.10535" lon="4.72711">
        <ele>76.783087</ele>
        <time>2025-02-03T11:48:56.010Z</time>
      </trkpt>
      <trkpt lat="44.10526" lon="4.72717">
        <ele>76.926883</ele>
        <time>2025-02-03T11:48:57.999Z</time>
      </trkpt>
      <trkpt lat="44.10518" lon="4.72723">
        <ele>77.071365</ele>
        <time>2025-02-03T11:49:00.018Z</time>
      </trkpt>
      <trkpt lat="44.1051" lon="4.72729">
        <ele>77.218473</ele>
        <time>2025-02-03T11:49:02.044Z</time>
      </trkpt>
      <trkpt lat="44.10501" lon="4.72734">
        <ele>77.367981</ele>
        <time>2025-02-03T11:49:04.014Z</time>
      </trkpt>
      <trkpt lat="44.10493" lon="4.7274">
        <ele>77.583081</ele>
        <time>2025-02-03T11:49:06.011Z</time>
      </trkpt>
      <trkpt lat="44.10484" lon="4.72745">
        <ele>77.801073</ele>
        <time>2025-02-03T11:49:08.016Z</time>
      </trkpt>
      <trkpt lat="44.10476" lon="4.72749">
        <ele>78.013994</ele>
        <time>2025-02-03T11:49:10.012Z</time>
      </trkpt>
      <trkpt lat="44.10467" lon="4.72753">
        <ele>78.224219</ele>
        <time>2025-02-03T11:49:12.028Z</time>
      </trkpt>
      <trkpt lat="44.10458" lon="4.72756">
        <ele>78.432978</ele>
        <time>2025-02-03T11:49:14.022Z</time>
      </trkpt>
      <trkpt lat="44.10449" lon="4.7276">
        <ele>78.645253</ele>
        <time>2025-02-03T11:49:16.021Z</time>
      </trkpt>
      <trkpt lat="44.1044" lon="4.72762">
        <ele>78.856674</ele>
        <time>2025-02-03T11:49:18.010Z</time>
      </trkpt>
      <trkpt lat="44.10431" lon="4.72765">
        <ele>79.072935</ele>
        <time>2025-02-03T11:49:20.024Z</time>
      </trkpt>
      <trkpt lat="44.10422" lon="4.72768">
        <ele>79.282448</ele>
        <time>2025-02-03T11:49:22.018Z</time>
      </trkpt>
      <trkpt lat="44.10413" lon="4.7277">
        <ele>79.491585</ele>
        <time>2025-02-03T11:49:24.013Z</time>
      </trkpt>
      <trkpt lat="44.104" lon="4.72772">
        <ele>79.796186</ele>
        <time>2025-02-03T11:49:26.999Z</time>
      </trkpt>
      <trkpt lat="44.10387" lon="4.72773">
        <ele>80.099877</ele>
        <time>2025-02-03T11:49:30.012Z</time>
      </trkpt>
      <trkpt lat="44.10378" lon="4.72774">
        <ele>80.307685</ele>
        <time>2025-02-03T11:49:32.046Z</time>
      </trkpt>
      <trkpt lat="44.10365" lon="4.72774">
        <ele>80.613675</ele>
        <time>2025-02-03T11:49:35.025Z</time>
      </trkpt>
      <trkpt lat="44.10355" lon="4.72775">
        <ele>80.823223</ele>
        <time>2025-02-03T11:49:37.022Z</time>
      </trkpt>
      <trkpt lat="44.10346" lon="4.72775">
        <ele>81.034939</ele>
        <time>2025-02-03T11:49:39.038Z</time>
      </trkpt>
      <trkpt lat="44.10336" lon="4.72775">
        <ele>81.260649</ele>
        <time>2025-02-03T11:49:41.032Z</time>
      </trkpt>
      <trkpt lat="44.10327" lon="4.72773">
        <ele>81.477769</ele>
        <time>2025-02-03T11:49:43.003Z</time>
      </trkpt>
      <trkpt lat="44.10318" lon="4.72772">
        <ele>81.442577</ele>
        <time>2025-02-03T11:49:44.995Z</time>
      </trkpt>
      <trkpt lat="44.10308" lon="4.7277">
        <ele>81.397774</ele>
        <time>2025-02-03T11:49:47.013Z</time>
      </trkpt>
      <trkpt lat="44.10298" lon="4.72768">
        <ele>81.352631</ele>
        <time>2025-02-03T11:49:49.017Z</time>
      </trkpt>
      <trkpt lat="44.10288" lon="4.72766">
        <ele>81.303369</ele>
        <time>2025-02-03T11:49:51.007Z</time>
      </trkpt>
      <trkpt lat="44.10278" lon="4.72763">
        <ele>81.256749</ele>
        <time>2025-02-03T11:49:53.004Z</time>
      </trkpt>
      <trkpt lat="44.10268" lon="4.72761">
        <ele>81.208689</ele>
        <time>2025-02-03T11:49:55.015Z</time>
      </trkpt>
      <trkpt lat="44.10258" lon="4.72759">
        <ele>81.161431</ele>
        <time>2025-02-03T11:49:57.028Z</time>
      </trkpt>
      <trkpt lat="44.10248" lon="4.72755">
        <ele>81.11386</ele>
        <time>2025-02-03T11:49:59.014Z</time>
      </trkpt>
      <trkpt lat="44.10239" lon="4.72751">
        <ele>81.066188</ele>
        <time>2025-02-03T11:50:01.015Z</time>
      </trkpt>
      <trkpt lat="44.10229" lon="4.72746">
        <ele>81.018846</ele>
        <time>2025-02-03T11:50:03.024Z</time>
      </trkpt>
      <trkpt lat="44.1022" lon="4.7274">
        <ele>80.972218</ele>
        <time>2025-02-03T11:50:05.013Z</time>
      </trkpt>
      <trkpt lat="44.1021" lon="4.72735">
        <ele>80.924203</ele>
        <time>2025-02-03T11:50:07.042Z</time>
      </trkpt>
      <trkpt lat="44.10201" lon="4.72731">
        <ele>80.878524</ele>
        <time>2025-02-03T11:50:09.017Z</time>
      </trkpt>
      <trkpt lat="44.10192" lon="4.72725">
        <ele>80.83372</ele>
        <time>2025-02-03T11:50:11.015Z</time>
      </trkpt>
      <trkpt lat="44.10183" lon="4.7272">
        <ele>80.787625</ele>
        <time>2025-02-03T11:50:13.012Z</time>
      </trkpt>
      <trkpt lat="44.10174" lon="4.72714">
        <ele>80.738856</ele>
        <time>2025-02-03T11:50:15.029Z</time>
      </trkpt>
      <trkpt lat="44.10165" lon="4.7271">
        <ele>80.694161</ele>
        <time>2025-02-03T11:50:17.031Z</time>
      </trkpt>
      <trkpt lat="44.10156" lon="4.72705">
        <ele>80.650431</ele>
        <time>2025-02-03T11:50:19.022Z</time>
      </trkpt>
      <trkpt lat="44.10143" lon="4.72698">
        <ele>80.616913</ele>
        <time>2025-02-03T11:50:22.039Z</time>
      </trkpt>
      <trkpt lat="44.10135" lon="4.72692">
        <ele>80.596195</ele>
        <time>2025-02-03T11:50:24.013Z</time>
      </trkpt>
      <trkpt lat="44.10127" lon="4.72686">
        <ele>80.574755</ele>
        <time>2025-02-03T11:50:26.006Z</time>
      </trkpt>
      <trkpt lat="44.10114" lon="4.72679">
        <ele>80.543238</ele>
        <time>2025-02-03T11:50:29.002Z</time>
      </trkpt>
      <trkpt lat="44.10106" lon="4.72674">
        <ele>80.522052</ele>
        <time>2025-02-03T11:50:31.008Z</time>
      </trkpt>
      <trkpt lat="44.10097" lon="4.72669">
        <ele>80.501025</ele>
        <time>2025-02-03T11:50:33.014Z</time>
      </trkpt>
      <trkpt lat="44.10089" lon="4.72663">
        <ele>80.480548</ele>
        <time>2025-02-03T11:50:35.032Z</time>
      </trkpt>
      <trkpt lat="44.10081" lon="4.72658">
        <ele>80.459097</ele>
        <time>2025-02-03T11:50:37.017Z</time>
      </trkpt>
      <trkpt lat="44.10072" lon="4.72652">
        <ele>80.437995</ele>
        <time>2025-02-03T11:50:39.017Z</time>
      </trkpt>
      <trkpt lat="44.10063" lon="4.72648">
        <ele>80.416834</ele>
        <time>2025-02-03T11:50:41.024Z</time>
      </trkpt>
      <trkpt lat="44.10054" lon="4.72644">
        <ele>80.395308</ele>
        <time>2025-02-03T11:50:43.015Z</time>
      </trkpt>
      <trkpt lat="44.10046" lon="4.7264">
        <ele>80.374151</ele>
        <time>2025-02-03T11:50:45.023Z</time>
      </trkpt>
      <trkpt lat="44.10037" lon="4.72636">
        <ele>80.352347</ele>
        <time>2025-02-03T11:50:47.016Z</time>
      </trkpt>
      <trkpt lat="44.10028" lon="4.72633">
        <ele>80.331651</ele>
        <time>2025-02-03T11:50:49.020Z</time>
      </trkpt>
      <trkpt lat="44.10019" lon="4.7263">
        <ele>80.310733</ele>
        <time>2025-02-03T11:50:51.017Z</time>
      </trkpt>
      <trkpt lat="44.10006" lon="4.72627">
        <ele>80.280211</ele>
        <time>2025-02-03T11:50:54.032Z</time>
      </trkpt>
      <trkpt lat="44.09996" lon="4.72627">
        <ele>80.259235</ele>
        <time>2025-02-03T11:50:56.032Z</time>
      </trkpt>
      <trkpt lat="44.09988" lon="4.72631">
        <ele>80.238382</ele>
        <time>2025-02-03T11:50:58.010Z</time>
      </trkpt>
      <trkpt lat="44.09975" lon="4.72635">
        <ele>80.266915</ele>
        <time>2025-02-03T11:51:01.009Z</time>
      </trkpt>
      <trkpt lat="44.09967" lon="4.72632">
        <ele>80.292235</ele>
        <time>2025-02-03T11:51:03.014Z</time>
      </trkpt>
      <trkpt lat="44.09958" lon="4.72628">
        <ele>80.317391</ele>
        <time>2025-02-03T11:51:05.019Z</time>
      </trkpt>
      <trkpt lat="44.09945" lon="4.72624">
        <ele>80.354543</ele>
        <time>2025-02-03T11:51:08.029Z</time>
      </trkpt>
      <trkpt lat="44.09932" lon="4.7262">
        <ele>80.392067</ele>
        <time>2025-02-03T11:51:11.033Z</time>
      </trkpt>
      <trkpt lat="44.09919" lon="4.72617">
        <ele>80.42889</ele>
        <time>2025-02-03T11:51:14.015Z</time>
      </trkpt>
      <trkpt lat="44.09906" lon="4.72615">
        <ele>80.464846</ele>
        <time>2025-02-03T11:51:17.015Z</time>
      </trkpt>
      <trkpt lat="44.09892" lon="4.72614">
        <ele>80.502759</ele>
        <time>2025-02-03T11:51:20.016Z</time>
      </trkpt>
      <trkpt lat="44.09883" lon="4.72612">
        <ele>80.52797</ele>
        <time>2025-02-03T11:51:22.020Z</time>
      </trkpt>
      <trkpt lat="44.09871" lon="4.72611">
        <ele>80.561549</ele>
        <time>2025-02-03T11:51:25.007Z</time>
      </trkpt>
      <trkpt lat="44.09859" lon="4.72609">
        <ele>80.596754</ele>
        <time>2025-02-03T11:51:28.027Z</time>
      </trkpt>
      <trkpt lat="44.09846" lon="4.7261">
        <ele>80.63213</ele>
        <time>2025-02-03T11:51:31.023Z</time>
      </trkpt>
      <trkpt lat="44.09833" lon="4.72608">
        <ele>80.669094</ele>
        <time>2025-02-03T11:51:34.012Z</time>
      </trkpt>
      <trkpt lat="44.0982" lon="4.72607">
        <ele>80.70473</ele>
        <time>2025-02-03T11:51:37.024Z</time>
      </trkpt>
      <trkpt lat="44.09808" lon="4.72608">
        <ele>80.736879</ele>
        <time>2025-02-03T11:51:40.034Z</time>
      </trkpt>
      <trkpt lat="44.09795" lon="4.72608">
        <ele>80.752078</ele>
        <time>2025-02-03T11:51:43.033Z</time>
      </trkpt>
      <trkpt lat="44.09786" lon="4.72609">
        <ele>80.762446</ele>
        <time>2025-02-03T11:51:45.027Z</time>
      </trkpt>
      <trkpt lat="44.09773" lon="4.72609">
        <ele>80.777416</ele>
        <time>2025-02-03T11:51:48.021Z</time>
      </trkpt>
      <trkpt lat="44.0976" lon="4.7261">
        <ele>80.791463</ele>
        <time>2025-02-03T11:51:51.014Z</time>
      </trkpt>
      <trkpt lat="44.09749" lon="4.7261">
        <ele>80.804701</ele>
        <time>2025-02-03T11:51:54.013Z</time>
      </trkpt>
      <trkpt lat="44.09738" lon="4.7261">
        <ele>80.817035</ele>
        <time>2025-02-03T11:51:57.019Z</time>
      </trkpt>
      <trkpt lat="44.09727" lon="4.7261">
        <ele>80.829697</ele>
        <time>2025-02-03T11:52:00.017Z</time>
      </trkpt>
      <trkpt lat="44.09716" lon="4.7261">
        <ele>80.842705</ele>
        <time>2025-02-03T11:52:03.021Z</time>
      </trkpt>
      <trkpt lat="44.09706" lon="4.7261">
        <ele>80.854331</ele>
        <time>2025-02-03T11:52:06.017Z</time>
      </trkpt>
      <trkpt lat="44.09697" lon="4.72611">
        <ele>80.864827</ele>
        <time>2025-02-03T11:52:09.023Z</time>
      </trkpt>
      <trkpt lat="44.09686" lon="4.72616">
        <ele>80.877496</ele>
        <time>2025-02-03T11:52:13.012Z</time>
      </trkpt>
      <trkpt lat="44.09686" lon="4.7263">
        <ele>80.8885</ele>
        <time>2025-02-03T11:52:16.009Z</time>
      </trkpt>
      <trkpt lat="44.09687" lon="4.72644">
        <ele>80.900471</ele>
        <time>2025-02-03T11:52:18.996Z</time>
      </trkpt>
      <trkpt lat="44.09687" lon="4.72658">
        <ele>80.911964</ele>
        <time>2025-02-03T11:52:22.010Z</time>
      </trkpt>
      <trkpt lat="44.09688" lon="4.72673">
        <ele>80.924316</ele>
        <time>2025-02-03T11:52:25.012Z</time>
      </trkpt>
      <trkpt lat="44.09689" lon="4.72688">
        <ele>80.936585</ele>
        <time>2025-02-03T11:52:28.015Z</time>
      </trkpt>
      <trkpt lat="44.09689" lon="4.72703">
        <ele>80.956045</ele>
        <time>2025-02-03T11:52:31.038Z</time>
      </trkpt>
      <trkpt lat="44.0969" lon="4.72717">
        <ele>80.983098</ele>
        <time>2025-02-03T11:52:34.029Z</time>
      </trkpt>
      <trkpt lat="44.09691" lon="4.72732">
        <ele>81.010043</ele>
        <time>2025-02-03T11:52:37.012Z</time>
      </trkpt>
      <trkpt lat="44.09691" lon="4.72748">
        <ele>81.038669</ele>
        <time>2025-02-03T11:52:40.013Z</time>
      </trkpt>
      <trkpt lat="44.09692" lon="4.72764">
        <ele>81.068931</ele>
        <time>2025-02-03T11:52:43.003Z</time>
      </trkpt>
      <trkpt lat="44.09693" lon="4.72781">
        <ele>81.098621</ele>
        <time>2025-02-03T11:52:46.023Z</time>
      </trkpt>
      <trkpt lat="44.09694" lon="4.72796">
        <ele>81.127231</ele>
        <time>2025-02-03T11:52:49.009Z</time>
      </trkpt>
      <trkpt lat="44.09695" lon="4.72812">
        <ele>81.156022</ele>
        <time>2025-02-03T11:52:52.018Z</time>
      </trkpt>
      <trkpt lat="44.09696" lon="4.72828">
        <ele>81.184622</ele>
        <time>2025-02-03T11:52:55.021Z</time>
      </trkpt>
      <trkpt lat="44.09696" lon="4.72844">
        <ele>81.214848</ele>
        <time>2025-02-03T11:52:58.015Z</time>
      </trkpt>
      <trkpt lat="44.09696" lon="4.7286">
        <ele>81.244149</ele>
        <time>2025-02-03T11:53:01.022Z</time>
      </trkpt>
      <trkpt lat="44.09698" lon="4.72876">
        <ele>81.273244</ele>
        <time>2025-02-03T11:53:04.026Z</time>
      </trkpt>
      <trkpt lat="44.09698" lon="4.72894">
        <ele>81.304561</ele>
        <time>2025-02-03T11:53:07.023Z</time>
      </trkpt>
      <trkpt lat="44.09698" lon="4.7291">
        <ele>81.335318</ele>
        <time>2025-02-03T11:53:10.011Z</time>
      </trkpt>
      <trkpt lat="44.09699" lon="4.72927">
        <ele>81.365706</ele>
        <time>2025-02-03T11:53:13.018Z</time>
      </trkpt>
      <trkpt lat="44.097" lon="4.72943">
        <ele>81.395604</ele>
        <time>2025-02-03T11:53:16.026Z</time>
      </trkpt>
      <trkpt lat="44.09701" lon="4.7296">
        <ele>81.26348</ele>
        <time>2025-02-03T11:53:19.021Z</time>
      </trkpt>
      <trkpt lat="44.09701" lon="4.72978">
        <ele>81.108817</ele>
        <time>2025-02-03T11:53:22.022Z</time>
      </trkpt>
      <trkpt lat="44.09701" lon="4.72996">
        <ele>80.951364</ele>
        <time>2025-02-03T11:53:25.018Z</time>
      </trkpt>
      <trkpt lat="44.09702" lon="4.73013">
        <ele>80.803395</ele>
        <time>2025-02-03T11:53:28.000Z</time>
      </trkpt>
      <trkpt lat="44.09704" lon="4.73029">
        <ele>80.654885</ele>
        <time>2025-02-03T11:53:31.015Z</time>
      </trkpt>
      <trkpt lat="44.09708" lon="4.73043">
        <ele>80.528789</ele>
        <time>2025-02-03T11:53:34.022Z</time>
      </trkpt>
      <trkpt lat="44.09715" lon="4.73052">
        <ele>80.406587</ele>
        <time>2025-02-03T11:53:37.008Z</time>
      </trkpt>
      <trkpt lat="44.09723" lon="4.73062">
        <ele>80.278098</ele>
        <time>2025-02-03T11:53:40.022Z</time>
      </trkpt>
      <trkpt lat="44.09725" lon="4.73076">
        <ele>80.155119</ele>
        <time>2025-02-03T11:53:43.021Z</time>
      </trkpt>
      <trkpt lat="44.09722" lon="4.73089">
        <ele>80.035523</ele>
        <time>2025-02-03T11:53:46.012Z</time>
      </trkpt>
      <trkpt lat="44.09715" lon="4.731">
        <ele>79.903648</ele>
        <time>2025-02-03T11:53:49.004Z</time>
      </trkpt>
      <trkpt lat="44.09706" lon="4.73106">
        <ele>79.787857</ele>
        <time>2025-02-03T11:53:51.007Z</time>
      </trkpt>
      <trkpt lat="44.09698" lon="4.73111">
        <ele>79.670264</ele>
        <time>2025-02-03T11:53:53.005Z</time>
      </trkpt>
      <trkpt lat="44.09687" lon="4.73117">
        <ele>79.534205</ele>
        <time>2025-02-03T11:53:55.012Z</time>
      </trkpt>
      <trkpt lat="44.09675" lon="4.7312">
        <ele>79.387953</ele>
        <time>2025-02-03T11:53:57.032Z</time>
      </trkpt>
      <trkpt lat="44.09664" lon="4.73119">
        <ele>79.245909</ele>
        <time>2025-02-03T11:53:58.992Z</time>
      </trkpt>
      <trkpt lat="44.09652" lon="4.73118">
        <ele>79.167578</ele>
        <time>2025-02-03T11:54:01.018Z</time>
      </trkpt>
      <trkpt lat="44.09643" lon="4.73117">
        <ele>79.128053</ele>
        <time>2025-02-03T11:54:03.024Z</time>
      </trkpt>
      <trkpt lat="44.09634" lon="4.73117">
        <ele>79.091009</ele>
        <time>2025-02-03T11:54:05.009Z</time>
      </trkpt>
      <trkpt lat="44.0962" lon="4.73116">
        <ele>79.037586</ele>
        <time>2025-02-03T11:54:08.021Z</time>
      </trkpt>
      <trkpt lat="44.09611" lon="4.73114">
        <ele>78.99928</ele>
        <time>2025-02-03T11:54:10.015Z</time>
      </trkpt>
      <trkpt lat="44.09602" lon="4.73112">
        <ele>78.961202</ele>
        <time>2025-02-03T11:54:12.015Z</time>
      </trkpt>
      <trkpt lat="44.09589" lon="4.7311">
        <ele>78.909754</ele>
        <time>2025-02-03T11:54:15.021Z</time>
      </trkpt>
      <trkpt lat="44.09577" lon="4.73107">
        <ele>78.859823</ele>
        <time>2025-02-03T11:54:18.015Z</time>
      </trkpt>
      <trkpt lat="44.09565" lon="4.73104">
        <ele>78.807921</ele>
        <time>2025-02-03T11:54:21.023Z</time>
      </trkpt>
      <trkpt lat="44.09553" lon="4.73099">
        <ele>78.756932</ele>
        <time>2025-02-03T11:54:24.025Z</time>
      </trkpt>
      <trkpt lat="44.09541" lon="4.73094">
        <ele>78.707754</ele>
        <time>2025-02-03T11:54:27.011Z</time>
      </trkpt>
      <trkpt lat="44.0953" lon="4.73087">
        <ele>78.657414</ele>
        <time>2025-02-03T11:54:30.010Z</time>
      </trkpt>
      <trkpt lat="44.09518" lon="4.73078">
        <ele>78.60386</ele>
        <time>2025-02-03T11:54:33.019Z</time>
      </trkpt>
      <trkpt lat="44.0951" lon="4.73073">
        <ele>78.566673</ele>
        <time>2025-02-03T11:54:35.015Z</time>
      </trkpt>
      <trkpt lat="44.09502" lon="4.73068">
        <ele>78.530365</ele>
        <time>2025-02-03T11:54:37.023Z</time>
      </trkpt>
      <trkpt lat="44.09492" lon="4.73065">
        <ele>78.490903</ele>
        <time>2025-02-03T11:54:39.010Z</time>
      </trkpt>
      <trkpt lat="44.09483" lon="4.73062">
        <ele>78.390714</ele>
        <time>2025-02-03T11:54:41.012Z</time>
      </trkpt>
      <trkpt lat="44.09473" lon="4.7306">
        <ele>78.193458</ele>
        <time>2025-02-03T11:54:43.011Z</time>
      </trkpt>
      <trkpt lat="44.09464" lon="4.73057">
        <ele>78.00217</ele>
        <time>2025-02-03T11:54:45.044Z</time>
      </trkpt>
      <trkpt lat="44.09451" lon="4.73055">
        <ele>77.738347</ele>
        <time>2025-02-03T11:54:48.015Z</time>
      </trkpt>
      <trkpt lat="44.09442" lon="4.73053">
        <ele>77.554027</ele>
        <time>2025-02-03T11:54:50.016Z</time>
      </trkpt>
      <trkpt lat="44.09428" lon="4.73053">
        <ele>77.278944</ele>
        <time>2025-02-03T11:54:53.018Z</time>
      </trkpt>
      <trkpt lat="44.09415" lon="4.73056">
        <ele>77.014195</ele>
        <time>2025-02-03T11:54:56.015Z</time>
      </trkpt>
      <trkpt lat="44.09406" lon="4.73063">
        <ele>76.800122</ele>
        <time>2025-02-03T11:54:58.035Z</time>
      </trkpt>
      <trkpt lat="44.09397" lon="4.7307">
        <ele>76.586258</ele>
        <time>2025-02-03T11:55:00.014Z</time>
      </trkpt>
      <trkpt lat="44.09386" lon="4.73076">
        <ele>76.355078</ele>
        <time>2025-02-03T11:55:02.019Z</time>
      </trkpt>
      <trkpt lat="44.09377" lon="4.73081">
        <ele>76.151571</ele>
        <time>2025-02-03T11:55:04.023Z</time>
      </trkpt>
      <trkpt lat="44.09368" lon="4.73087">
        <ele>75.949134</ele>
        <time>2025-02-03T11:55:06.016Z</time>
      </trkpt>
      <trkpt lat="44.09359" lon="4.73099">
        <ele>75.69712</ele>
        <time>2025-02-03T11:55:07.998Z</time>
      </trkpt>
      <trkpt lat="44.0935" lon="4.73115">
        <ele>75.397435</ele>
        <time>2025-02-03T11:55:10.018Z</time>
      </trkpt>
      <trkpt lat="44.09343" lon="4.7313">
        <ele>75.138918</ele>
        <time>2025-02-03T11:55:12.022Z</time>
      </trkpt>
      <trkpt lat="44.09335" lon="4.73145">
        <ele>74.870948</ele>
        <time>2025-02-03T11:55:14.018Z</time>
      </trkpt>
      <trkpt lat="44.09328" lon="4.73158">
        <ele>74.817853</ele>
        <time>2025-02-03T11:55:16.001Z</time>
      </trkpt>
      <trkpt lat="44.09321" lon="4.73171">
        <ele>74.804959</ele>
        <time>2025-02-03T11:55:18.017Z</time>
      </trkpt>
      <trkpt lat="44.09314" lon="4.73185">
        <ele>74.79081</ele>
        <time>2025-02-03T11:55:20.001Z</time>
      </trkpt>
      <trkpt lat="44.09307" lon="4.73198">
        <ele>74.777446</ele>
        <time>2025-02-03T11:55:22.012Z</time>
      </trkpt>
      <trkpt lat="44.093" lon="4.73211">
        <ele>74.764355</ele>
        <time>2025-02-03T11:55:24.011Z</time>
      </trkpt>
      <trkpt lat="44.09294" lon="4.73224">
        <ele>74.752183</ele>
        <time>2025-02-03T11:55:26.017Z</time>
      </trkpt>
      <trkpt lat="44.09288" lon="4.73237">
        <ele>74.739489</ele>
        <time>2025-02-03T11:55:28.038Z</time>
      </trkpt>
      <trkpt lat="44.09281" lon="4.73249">
        <ele>74.727116</ele>
        <time>2025-02-03T11:55:30.016Z</time>
      </trkpt>
      <trkpt lat="44.09275" lon="4.7326">
        <ele>74.715081</ele>
        <time>2025-02-03T11:55:32.023Z</time>
      </trkpt>
      <trkpt lat="44.09267" lon="4.73272">
        <ele>74.702415</ele>
        <time>2025-02-03T11:55:34.006Z</time>
      </trkpt>
      <trkpt lat="44.09261" lon="4.73284">
        <ele>74.690508</ele>
        <time>2025-02-03T11:55:36.023Z</time>
      </trkpt>
      <trkpt lat="44.09254" lon="4.73295">
        <ele>74.678569</ele>
        <time>2025-02-03T11:55:38.015Z</time>
      </trkpt>
      <trkpt lat="44.09248" lon="4.73307">
        <ele>74.666668</ele>
        <time>2025-02-03T11:55:40.012Z</time>
      </trkpt>
      <trkpt lat="44.09242" lon="4.73318">
        <ele>74.655221</ele>
        <time>2025-02-03T11:55:42.030Z</time>
      </trkpt>
      <trkpt lat="44.09238" lon="4.73331">
        <ele>74.643644</ele>
        <time>2025-02-03T11:55:43.992Z</time>
      </trkpt>
      <trkpt lat="44.09234" lon="4.73344">
        <ele>74.632681</ele>
        <time>2025-02-03T11:55:46.001Z</time>
      </trkpt>
      <trkpt lat="44.09231" lon="4.73357">
        <ele>74.678031</ele>
        <time>2025-02-03T11:55:48.021Z</time>
      </trkpt>
      <trkpt lat="44.09231" lon="4.73369">
        <ele>74.828081</ele>
        <time>2025-02-03T11:55:50.017Z</time>
      </trkpt>
      <trkpt lat="44.09231" lon="4.73383">
        <ele>74.992184</ele>
        <time>2025-02-03T11:55:52.007Z</time>
      </trkpt>
      <trkpt lat="44.0923" lon="4.73397">
        <ele>75.150898</ele>
        <time>2025-02-03T11:55:54.043Z</time>
      </trkpt>
      <trkpt lat="44.09229" lon="4.7341">
        <ele>75.308196</ele>
        <time>2025-02-03T11:55:56.043Z</time>
      </trkpt>
      <trkpt lat="44.09227" lon="4.73429">
        <ele>75.529514</ele>
        <time>2025-02-03T11:55:59.031Z</time>
      </trkpt>
      <trkpt lat="44.09227" lon="4.73442">
        <ele>75.684176</ele>
        <time>2025-02-03T11:56:01.019Z</time>
      </trkpt>
      <trkpt lat="44.09227" lon="4.73454">
        <ele>75.834082</ele>
        <time>2025-02-03T11:56:03.029Z</time>
      </trkpt>
      <trkpt lat="44.09227" lon="4.73473">
        <ele>76.054963</ele>
        <time>2025-02-03T11:56:06.013Z</time>
      </trkpt>
      <trkpt lat="44.09226" lon="4.73492">
        <ele>76.275789</ele>
        <time>2025-02-03T11:56:09.035Z</time>
      </trkpt>
      <trkpt lat="44.09225" lon="4.73505">
        <ele>76.434647</ele>
        <time>2025-02-03T11:56:11.016Z</time>
      </trkpt>
      <trkpt lat="44.09225" lon="4.73518">
        <ele>76.583382</ele>
        <time>2025-02-03T11:56:13.016Z</time>
      </trkpt>
      <trkpt lat="44.09225" lon="4.73531">
        <ele>76.736216</ele>
        <time>2025-02-03T11:56:15.014Z</time>
      </trkpt>
      <trkpt lat="44.09224" lon="4.73549">
        <ele>76.958179</ele>
        <time>2025-02-03T11:56:17.989Z</time>
      </trkpt>
      <trkpt lat="44.09225" lon="4.73562">
        <ele>77.110525</ele>
        <time>2025-02-03T11:56:20.013Z</time>
      </trkpt>
      <trkpt lat="44.09226" lon="4.73575">
        <ele>77.266622</ele>
        <time>2025-02-03T11:56:22.003Z</time>
      </trkpt>
      <trkpt lat="44.09227" lon="4.73588">
        <ele>77.41998</ele>
        <time>2025-02-03T11:56:24.038Z</time>
      </trkpt>
      <trkpt lat="44.09229" lon="4.73601">
        <ele>77.570007</ele>
        <time>2025-02-03T11:56:26.010Z</time>
      </trkpt>
      <trkpt lat="44.0923" lon="4.73614">
        <ele>77.571705</ele>
        <time>2025-02-03T11:56:28.015Z</time>
      </trkpt>
      <trkpt lat="44.09232" lon="4.73626">
        <ele>77.561487</ele>
        <time>2025-02-03T11:56:30.026Z</time>
      </trkpt>
      <trkpt lat="44.09233" lon="4.73645">
        <ele>77.546545</ele>
        <time>2025-02-03T11:56:33.019Z</time>
      </trkpt>
      <trkpt lat="44.09235" lon="4.73657">
        <ele>77.536529</ele>
        <time>2025-02-03T11:56:35.027Z</time>
      </trkpt>
      <trkpt lat="44.09236" lon="4.7367">
        <ele>77.526232</ele>
        <time>2025-02-03T11:56:37.018Z</time>
      </trkpt>
      <trkpt lat="44.09237" lon="4.73683">
        <ele>77.515864</ele>
        <time>2025-02-03T11:56:39.028Z</time>
      </trkpt>
      <trkpt lat="44.09238" lon="4.73696">
        <ele>77.505488</ele>
        <time>2025-02-03T11:56:41.015Z</time>
      </trkpt>
      <trkpt lat="44.0924" lon="4.73709">
        <ele>77.495326</ele>
        <time>2025-02-03T11:56:43.023Z</time>
      </trkpt>
      <trkpt lat="44.09241" lon="4.73721">
        <ele>77.485011</ele>
        <time>2025-02-03T11:56:44.999Z</time>
      </trkpt>
      <trkpt lat="44.09243" lon="4.73735">
        <ele>77.474271</ele>
        <time>2025-02-03T11:56:47.018Z</time>
      </trkpt>
      <trkpt lat="44.09244" lon="4.73748">
        <ele>77.463911</ele>
        <time>2025-02-03T11:56:49.028Z</time>
      </trkpt>
      <trkpt lat="44.09245" lon="4.73761">
        <ele>77.453047</ele>
        <time>2025-02-03T11:56:51.034Z</time>
      </trkpt>
      <trkpt lat="44.09246" lon="4.73774">
        <ele>77.442977</ele>
        <time>2025-02-03T11:56:53.010Z</time>
      </trkpt>
      <trkpt lat="44.09248" lon="4.73786">
        <ele>77.432931</ele>
        <time>2025-02-03T11:56:54.994Z</time>
      </trkpt>
      <trkpt lat="44.09249" lon="4.73799">
        <ele>77.422755</ele>
        <time>2025-02-03T11:56:56.998Z</time>
      </trkpt>
      <trkpt lat="44.0925" lon="4.73812">
        <ele>77.412605</ele>
        <time>2025-02-03T11:56:59.006Z</time>
      </trkpt>
      <trkpt lat="44.09252" lon="4.7383">
        <ele>77.397837</ele>
        <time>2025-02-03T11:57:02.006Z</time>
      </trkpt>
      <trkpt lat="44.09253" lon="4.73842">
        <ele>77.387836</ele>
        <time>2025-02-03T11:57:04.003Z</time>
      </trkpt>
      <trkpt lat="44.09255" lon="4.7386">
        <ele>77.337038</ele>
        <time>2025-02-03T11:57:06.987Z</time>
      </trkpt>
      <trkpt lat="44.09257" lon="4.73873">
        <ele>77.283762</ele>
        <time>2025-02-03T11:57:09.013Z</time>
      </trkpt>
      <trkpt lat="44.09258" lon="4.73886">
        <ele>77.228412</ele>
        <time>2025-02-03T11:57:11.022Z</time>
      </trkpt>
      <trkpt lat="44.09259" lon="4.73898">
        <ele>77.175122</ele>
        <time>2025-02-03T11:57:13.022Z</time>
      </trkpt>
      <trkpt lat="44.0926" lon="4.73911">
        <ele>77.120579</ele>
        <time>2025-02-03T11:57:15.020Z</time>
      </trkpt>
      <trkpt lat="44.09262" lon="4.73924">
        <ele>77.066731</ele>
        <time>2025-02-03T11:57:17.017Z</time>
      </trkpt>
      <trkpt lat="44.09263" lon="4.73937">
        <ele>77.011285</ele>
        <time>2025-02-03T11:57:19.014Z</time>
      </trkpt>
      <trkpt lat="44.09265" lon="4.73949">
        <ele>76.95819</ele>
        <time>2025-02-03T11:57:21.017Z</time>
      </trkpt>
      <trkpt lat="44.09266" lon="4.73962">
        <ele>76.905329</ele>
        <time>2025-02-03T11:57:23.015Z</time>
      </trkpt>
      <trkpt lat="44.09267" lon="4.73974">
        <ele>76.852233</ele>
        <time>2025-02-03T11:57:25.015Z</time>
      </trkpt>
      <trkpt lat="44.09269" lon="4.73987">
        <ele>76.798636</ele>
        <time>2025-02-03T11:57:27.044Z</time>
      </trkpt>
      <trkpt lat="44.0927" lon="4.74004">
        <ele>76.724965</ele>
        <time>2025-02-03T11:57:30.022Z</time>
      </trkpt>
      <trkpt lat="44.09273" lon="4.74021">
        <ele>76.651418</ele>
        <time>2025-02-03T11:57:33.018Z</time>
      </trkpt>
      <trkpt lat="44.09275" lon="4.74039">
        <ele>76.576935</ele>
        <time>2025-02-03T11:57:36.011Z</time>
      </trkpt>
      <trkpt lat="44.0928" lon="4.74055">
        <ele>76.503705</ele>
        <time>2025-02-03T11:57:39.005Z</time>
      </trkpt>
      <trkpt lat="44.09285" lon="4.74072">
        <ele>76.427099</ele>
        <time>2025-02-03T11:57:42.019Z</time>
      </trkpt>
      <trkpt lat="44.09291" lon="4.74086">
        <ele>76.357979</ele>
        <time>2025-02-03T11:57:45.021Z</time>
      </trkpt>
      <trkpt lat="44.09297" lon="4.74099">
        <ele>76.143948</ele>
        <time>2025-02-03T11:57:48.016Z</time>
      </trkpt>
      <trkpt lat="44.09302" lon="4.74111">
        <ele>75.853886</ele>
        <time>2025-02-03T11:57:51.026Z</time>
      </trkpt>
      <trkpt lat="44.09308" lon="4.74122">
        <ele>75.58007</ele>
        <time>2025-02-03T11:57:54.015Z</time>
      </trkpt>
      <trkpt lat="44.09315" lon="4.74134">
        <ele>75.254883</ele>
        <time>2025-02-03T11:57:58.032Z</time>
      </trkpt>
      <trkpt lat="44.09322" lon="4.74144">
        <ele>74.982699</ele>
        <time>2025-02-03T11:58:04.017Z</time>
      </trkpt>
      <trkpt lat="44.09327" lon="4.74153">
        <ele>74.745714</ele>
        <time>2025-02-03T11:58:39.120Z</time>
      </trkpt>
      <trkpt lat="44.09336" lon="4.74167">
        <ele>74.355005</ele>
        <time>2025-02-03T12:03:44.016Z</time>
      </trkpt>
      <trkpt lat="44.09343" lon="4.7418">
        <ele>74.021701</ele>
        <time>2025-02-03T12:03:49.008Z</time>
      </trkpt>
      <trkpt lat="44.0935" lon="4.74193">
        <ele>73.693252</ele>
        <time>2025-02-03T12:03:53.012Z</time>
      </trkpt>
      <trkpt lat="44.09357" lon="4.74203">
        <ele>73.418054</ele>
        <time>2025-02-03T12:03:56.024Z</time>
      </trkpt>
      <trkpt lat="44.09364" lon="4.74213">
        <ele>73.115727</ele>
        <time>2025-02-03T12:03:59.017Z</time>
      </trkpt>
      <trkpt lat="44.09371" lon="4.74225">
        <ele>72.812984</ele>
        <time>2025-02-03T12:04:02.021Z</time>
      </trkpt>
      <trkpt lat="44.09378" lon="4.74236">
        <ele>72.496555</ele>
        <time>2025-02-03T12:04:05.022Z</time>
      </trkpt>
      <trkpt lat="44.09385" lon="4.74248">
        <ele>72.189547</ele>
        <time>2025-02-03T12:04:08.035Z</time>
      </trkpt>
      <trkpt lat="44.09392" lon="4.74259">
        <ele>71.876543</ele>
        <time>2025-02-03T12:04:11.003Z</time>
      </trkpt>
      <trkpt lat="44.09399" lon="4.74271">
        <ele>71.555736</ele>
        <time>2025-02-03T12:04:14.005Z</time>
      </trkpt>
      <trkpt lat="44.09406" lon="4.74285">
        <ele>71.210683</ele>
        <time>2025-02-03T12:04:17.028Z</time>
      </trkpt>
      <trkpt lat="44.09413" lon="4.74297">
        <ele>71.243887</ele>
        <time>2025-02-03T12:04:19.999Z</time>
      </trkpt>
      <trkpt lat="44.09421" lon="4.74309">
        <ele>71.299486</ele>
        <time>2025-02-03T12:04:23.021Z</time>
      </trkpt>
      <trkpt lat="44.09429" lon="4.7432">
        <ele>71.356926</ele>
        <time>2025-02-03T12:04:26.012Z</time>
      </trkpt>
      <trkpt lat="44.09437" lon="4.74332">
        <ele>71.417017</ele>
        <time>2025-02-03T12:04:29.010Z</time>
      </trkpt>
      <trkpt lat="44.09446" lon="4.74345">
        <ele>71.479553</ele>
        <time>2025-02-03T12:04:32.026Z</time>
      </trkpt>
      <trkpt lat="44.09454" lon="4.74356">
        <ele>71.540037</ele>
        <time>2025-02-03T12:04:35.013Z</time>
      </trkpt>
      <trkpt lat="44.09464" lon="4.74367">
        <ele>71.601409</ele>
        <time>2025-02-03T12:04:38.013Z</time>
      </trkpt>
      <trkpt lat="44.09474" lon="4.74377">
        <ele>71.66167</ele>
        <time>2025-02-03T12:04:41.027Z</time>
      </trkpt>
      <trkpt lat="44.09484" lon="4.74387">
        <ele>71.724871</ele>
        <time>2025-02-03T12:04:44.011Z</time>
      </trkpt>
      <trkpt lat="44.09494" lon="4.74398">
        <ele>71.788771</ele>
        <time>2025-02-03T12:04:47.014Z</time>
      </trkpt>
      <trkpt lat="44.09504" lon="4.74409">
        <ele>71.85217</ele>
        <time>2025-02-03T12:04:50.011Z</time>
      </trkpt>
      <trkpt lat="44.09513" lon="4.74421">
        <ele>71.913497</ele>
        <time>2025-02-03T12:04:53.014Z</time>
      </trkpt>
      <trkpt lat="44.09523" lon="4.74431">
        <ele>71.976959</ele>
        <time>2025-02-03T12:04:56.017Z</time>
      </trkpt>
      <trkpt lat="44.09534" lon="4.74442">
        <ele>72.042211</ele>
        <time>2025-02-03T12:04:59.025Z</time>
      </trkpt>
      <trkpt lat="44.09541" lon="4.7445">
        <ele>72.08805</ele>
        <time>2025-02-03T12:05:01.012Z</time>
      </trkpt>
      <trkpt lat="44.09551" lon="4.74462">
        <ele>72.290128</ele>
        <time>2025-02-03T12:05:04.018Z</time>
      </trkpt>
      <trkpt lat="44.09559" lon="4.7447">
        <ele>72.440957</ele>
        <time>2025-02-03T12:05:06.013Z</time>
      </trkpt>
      <trkpt lat="44.09566" lon="4.74478">
        <ele>72.581456</ele>
        <time>2025-02-03T12:05:08.012Z</time>
      </trkpt>
      <trkpt lat="44.09576" lon="4.74491">
        <ele>72.786892</ele>
        <time>2025-02-03T12:05:11.018Z</time>
      </trkpt>
      <trkpt lat="44.09586" lon="4.74502">
        <ele>72.991956</ele>
        <time>2025-02-03T12:05:14.031Z</time>
      </trkpt>
      <trkpt lat="44.09593" lon="4.7451">
        <ele>73.131668</ele>
        <time>2025-02-03T12:05:16.019Z</time>
      </trkpt>
      <trkpt lat="44.096" lon="4.74519">
        <ele>73.27327</ele>
        <time>2025-02-03T12:05:18.014Z</time>
      </trkpt>
      <trkpt lat="44.09608" lon="4.74527">
        <ele>73.420313</ele>
        <time>2025-02-03T12:05:20.025Z</time>
      </trkpt>
      <trkpt lat="44.09615" lon="4.74535">
        <ele>73.564486</ele>
        <time>2025-02-03T12:05:22.012Z</time>
      </trkpt>
      <trkpt lat="44.09626" lon="4.74546">
        <ele>73.770651</ele>
        <time>2025-02-03T12:05:25.014Z</time>
      </trkpt>
      <trkpt lat="44.09636" lon="4.74557">
        <ele>73.974919</ele>
        <time>2025-02-03T12:05:28.015Z</time>
      </trkpt>
      <trkpt lat="44.09647" lon="4.74568">
        <ele>74.177866</ele>
        <time>2025-02-03T12:05:31.015Z</time>
      </trkpt>
      <trkpt lat="44.09657" lon="4.74579">
        <ele>74.374321</ele>
        <time>2025-02-03T12:05:34.014Z</time>
      </trkpt>
      <trkpt lat="44.09667" lon="4.74591">
        <ele>74.57407</ele>
        <time>2025-02-03T12:05:37.016Z</time>
      </trkpt>
      <trkpt lat="44.09677" lon="4.74602">
        <ele>74.770875</ele>
        <time>2025-02-03T12:05:40.017Z</time>
      </trkpt>
      <trkpt lat="44.09687" lon="4.74612">
        <ele>74.913989</ele>
        <time>2025-02-03T12:05:43.013Z</time>
      </trkpt>
      <trkpt lat="44.09697" lon="4.74622">
        <ele>75.016669</ele>
        <time>2025-02-03T12:05:46.019Z</time>
      </trkpt>
      <trkpt lat="44.09707" lon="4.74633">
        <ele>75.1221</ele>
        <time>2025-02-03T12:05:49.017Z</time>
      </trkpt>
      <trkpt lat="44.09717" lon="4.74643">
        <ele>75.226826</ele>
        <time>2025-02-03T12:05:51.999Z</time>
      </trkpt>
      <trkpt lat="44.09726" lon="4.74654">
        <ele>75.328248</ele>
        <time>2025-02-03T12:05:55.006Z</time>
      </trkpt>
      <trkpt lat="44.09737" lon="4.74664">
        <ele>75.438074</ele>
        <time>2025-02-03T12:05:58.005Z</time>
      </trkpt>
      <trkpt lat="44.09747" lon="4.74676">
        <ele>75.543885</ele>
        <time>2025-02-03T12:06:01.007Z</time>
      </trkpt>
      <trkpt lat="44.09756" lon="4.74689">
        <ele>75.650391</ele>
        <time>2025-02-03T12:06:04.001Z</time>
      </trkpt>
      <trkpt lat="44.09763" lon="4.74703">
        <ele>75.755686</ele>
        <time>2025-02-03T12:06:07.036Z</time>
      </trkpt>
      <trkpt lat="44.0977" lon="4.74718">
        <ele>75.860969</ele>
        <time>2025-02-03T12:06:10.021Z</time>
      </trkpt>
      <trkpt lat="44.09777" lon="4.74732">
        <ele>75.963285</ele>
        <time>2025-02-03T12:06:13.020Z</time>
      </trkpt>
      <trkpt lat="44.09784" lon="4.74746">
        <ele>76.065757</ele>
        <time>2025-02-03T12:06:16.026Z</time>
      </trkpt>
      <trkpt lat="44.09792" lon="4.7476">
        <ele>76.170512</ele>
        <time>2025-02-03T12:06:19.014Z</time>
      </trkpt>
      <trkpt lat="44.09799" lon="4.74774">
        <ele>76.271847</ele>
        <time>2025-02-03T12:06:22.041Z</time>
      </trkpt>
      <trkpt lat="44.09806" lon="4.74788">
        <ele>76.339812</ele>
        <time>2025-02-03T12:06:25.009Z</time>
      </trkpt>
      <trkpt lat="44.09813" lon="4.74802">
        <ele>76.258526</ele>
        <time>2025-02-03T12:06:28.011Z</time>
      </trkpt>
      <trkpt lat="44.09821" lon="4.74816">
        <ele>76.175653</ele>
        <time>2025-02-03T12:06:31.016Z</time>
      </trkpt>
      <trkpt lat="44.09831" lon="4.74826">
        <ele>76.090912</ele>
        <time>2025-02-03T12:06:34.007Z</time>
      </trkpt>
      <trkpt lat="44.09842" lon="4.74836">
        <ele>76.005765</ele>
        <time>2025-02-03T12:06:37.012Z</time>
      </trkpt>
      <trkpt lat="44.09853" lon="4.74845">
        <ele>75.920781</ele>
        <time>2025-02-03T12:06:40.012Z</time>
      </trkpt>
      <trkpt lat="44.09864" lon="4.74855">
        <ele>75.834074</ele>
        <time>2025-02-03T12:06:43.014Z</time>
      </trkpt>
      <trkpt lat="44.09875" lon="4.74865">
        <ele>75.746642</ele>
        <time>2025-02-03T12:06:46.003Z</time>
      </trkpt>
      <trkpt lat="44.09885" lon="4.74876">
        <ele>75.660597</ele>
        <time>2025-02-03T12:06:49.005Z</time>
      </trkpt>
      <trkpt lat="44.09895" lon="4.74888">
        <ele>75.573369</ele>
        <time>2025-02-03T12:06:52.019Z</time>
      </trkpt>
      <trkpt lat="44.09905" lon="4.749">
        <ele>75.487765</ele>
        <time>2025-02-03T12:06:55.011Z</time>
      </trkpt>
      <trkpt lat="44.09915" lon="4.74911">
        <ele>75.40192</ele>
        <time>2025-02-03T12:06:58.017Z</time>
      </trkpt>
      <trkpt lat="44.09926" lon="4.74922">
        <ele>75.314442</ele>
        <time>2025-02-03T12:07:00.994Z</time>
      </trkpt>
      <trkpt lat="44.09936" lon="4.74934">
        <ele>75.224607</ele>
        <time>2025-02-03T12:07:04.020Z</time>
      </trkpt>
      <trkpt lat="44.09944" lon="4.74941">
        <ele>75.163336</ele>
        <time>2025-02-03T12:07:06.014Z</time>
      </trkpt>
      <trkpt lat="44.09951" lon="4.74949">
        <ele>75.165859</ele>
        <time>2025-02-03T12:07:08.013Z</time>
      </trkpt>
      <trkpt lat="44.09958" lon="4.74957">
        <ele>75.169614</ele>
        <time>2025-02-03T12:07:10.007Z</time>
      </trkpt>
      <trkpt lat="44.09968" lon="4.74968">
        <ele>75.175032</ele>
        <time>2025-02-03T12:07:13.033Z</time>
      </trkpt>
      <trkpt lat="44.09975" lon="4.74976">
        <ele>75.178812</ele>
        <time>2025-02-03T12:07:15.020Z</time>
      </trkpt>
      <trkpt lat="44.09983" lon="4.74984">
        <ele>75.182599</ele>
        <time>2025-02-03T12:07:17.010Z</time>
      </trkpt>
      <trkpt lat="44.09992" lon="4.74996">
        <ele>75.188</ele>
        <time>2025-02-03T12:07:20.030Z</time>
      </trkpt>
      <trkpt lat="44.1" lon="4.75009">
        <ele>75.193183</ele>
        <time>2025-02-03T12:07:23.033Z</time>
      </trkpt>
      <trkpt lat="44.10006" lon="4.75019">
        <ele>75.19703</ele>
        <time>2025-02-03T12:07:25.013Z</time>
      </trkpt>
      <trkpt lat="44.10012" lon="4.75029">
        <ele>75.200781</ele>
        <time>2025-02-03T12:07:27.016Z</time>
      </trkpt>
      <trkpt lat="44.10018" lon="4.75038">
        <ele>75.20456</ele>
        <time>2025-02-03T12:07:29.017Z</time>
      </trkpt>
      <trkpt lat="44.10027" lon="4.75052">
        <ele>75.210013</ele>
        <time>2025-02-03T12:07:32.021Z</time>
      </trkpt>
      <trkpt lat="44.10036" lon="4.75066">
        <ele>75.215461</ele>
        <time>2025-02-03T12:07:35.018Z</time>
      </trkpt>
      <trkpt lat="44.10044" lon="4.7508">
        <ele>75.220924</ele>
        <time>2025-02-03T12:07:38.011Z</time>
      </trkpt>
      <trkpt lat="44.10048" lon="4.75098">
        <ele>75.226434</ele>
        <time>2025-02-03T12:07:41.013Z</time>
      </trkpt>
      <trkpt lat="44.10048" lon="4.75115">
        <ele>75.231517</ele>
        <time>2025-02-03T12:07:44.000Z</time>
      </trkpt>
      <trkpt lat="44.10048" lon="4.75133">
        <ele>75.237941</ele>
        <time>2025-02-03T12:07:47.015Z</time>
      </trkpt>
      <trkpt lat="44.10045" lon="4.75149">
        <ele>75.269249</ele>
        <time>2025-02-03T12:07:50.016Z</time>
      </trkpt>
      <trkpt lat="44.10039" lon="4.75165">
        <ele>75.30147</ele>
        <time>2025-02-03T12:07:53.018Z</time>
      </trkpt>
      <trkpt lat="44.10033" lon="4.75182">
        <ele>75.334651</ele>
        <time>2025-02-03T12:07:56.014Z</time>
      </trkpt>
      <trkpt lat="44.10029" lon="4.75195">
        <ele>75.358968</ele>
        <time>2025-02-03T12:07:58.019Z</time>
      </trkpt>
      <trkpt lat="44.10026" lon="4.75207">
        <ele>75.38311</ele>
        <time>2025-02-03T12:08:00.019Z</time>
      </trkpt>
      <trkpt lat="44.10024" lon="4.75221">
        <ele>75.407155</ele>
        <time>2025-02-03T12:08:02.016Z</time>
      </trkpt>
      <trkpt lat="44.10023" lon="4.75233">
        <ele>75.430077</ele>
        <time>2025-02-03T12:08:04.015Z</time>
      </trkpt>
      <trkpt lat="44.10021" lon="4.75246">
        <ele>75.452564</ele>
        <time>2025-02-03T12:08:06.017Z</time>
      </trkpt>
      <trkpt lat="44.1002" lon="4.75258">
        <ele>75.474979</ele>
        <time>2025-02-03T12:08:08.018Z</time>
      </trkpt>
      <trkpt lat="44.10018" lon="4.75275">
        <ele>75.5061</ele>
        <time>2025-02-03T12:08:11.020Z</time>
      </trkpt>
      <trkpt lat="44.10016" lon="4.75292">
        <ele>75.53711</ele>
        <time>2025-02-03T12:08:14.020Z</time>
      </trkpt>
      <trkpt lat="44.10015" lon="4.7531">
        <ele>75.568937</ele>
        <time>2025-02-03T12:08:17.037Z</time>
      </trkpt>
      <trkpt lat="44.10013" lon="4.75328">
        <ele>75.602042</ele>
        <time>2025-02-03T12:08:20.014Z</time>
      </trkpt>
      <trkpt lat="44.10011" lon="4.75346">
        <ele>75.633783</ele>
        <time>2025-02-03T12:08:23.026Z</time>
      </trkpt>
      <trkpt lat="44.10008" lon="4.75364">
        <ele>75.666725</ele>
        <time>2025-02-03T12:08:26.020Z</time>
      </trkpt>
      <trkpt lat="44.10006" lon="4.75382">
        <ele>75.643691</ele>
        <time>2025-02-03T12:08:29.012Z</time>
      </trkpt>
      <trkpt lat="44.10003" lon="4.754">
        <ele>75.550713</ele>
        <time>2025-02-03T12:08:32.025Z</time>
      </trkpt>
      <trkpt lat="44.10001" lon="4.75417">
        <ele>75.461636</ele>
        <time>2025-02-03T12:08:35.015Z</time>
      </trkpt>
      <trkpt lat="44.1" lon="4.75431">
        <ele>75.386142</ele>
        <time>2025-02-03T12:08:38.022Z</time>
      </trkpt>
      <trkpt lat="44.09998" lon="4.75447">
        <ele>75.30728</ele>
        <time>2025-02-03T12:08:42.015Z</time>
      </trkpt>
      <trkpt lat="44.09997" lon="4.75461">
        <ele>75.231119</ele>
        <time>2025-02-03T12:08:46.015Z</time>
      </trkpt>
      <trkpt lat="44.09993" lon="4.75475">
        <ele>75.156677</ele>
        <time>2025-02-03T12:08:49.013Z</time>
      </trkpt>
      <trkpt lat="44.09986" lon="4.75486">
        <ele>75.08001</ele>
        <time>2025-02-03T12:08:52.025Z</time>
      </trkpt>
      <trkpt lat="44.09977" lon="4.75495">
        <ele>74.99636</ele>
        <time>2025-02-03T12:08:55.006Z</time>
      </trkpt>
      <trkpt lat="44.09969" lon="4.75508">
        <ele>74.91082</ele>
        <time>2025-02-03T12:08:58.025Z</time>
      </trkpt>
      <trkpt lat="44.09962" lon="4.75522">
        <ele>74.825096</ele>
        <time>2025-02-03T12:09:01.016Z</time>
      </trkpt>
      <trkpt lat="44.09956" lon="4.75535">
        <ele>74.745607</ele>
        <time>2025-02-03T12:09:04.024Z</time>
      </trkpt>
      <trkpt lat="44.0995" lon="4.75548">
        <ele>74.666022</ele>
        <time>2025-02-03T12:09:07.043Z</time>
      </trkpt>
      <trkpt lat="44.09945" lon="4.75563">
        <ele>74.580607</ele>
        <time>2025-02-03T12:09:10.004Z</time>
      </trkpt>
      <trkpt lat="44.09941" lon="4.75579">
        <ele>74.498223</ele>
        <time>2025-02-03T12:09:13.012Z</time>
      </trkpt>
      <trkpt lat="44.0994" lon="4.75595">
        <ele>74.414031</ele>
        <time>2025-02-03T12:09:16.010Z</time>
      </trkpt>
      <trkpt lat="44.09934" lon="4.75609">
        <ele>74.320393</ele>
        <time>2025-02-03T12:09:19.008Z</time>
      </trkpt>
      <trkpt lat="44.09931" lon="4.75625">
        <ele>74.223591</ele>
        <time>2025-02-03T12:09:21.993Z</time>
      </trkpt>
      <trkpt lat="44.09931" lon="4.75641">
        <ele>74.128169</ele>
        <time>2025-02-03T12:09:25.013Z</time>
      </trkpt>
      <trkpt lat="44.09932" lon="4.75656">
        <ele>74.042453</ele>
        <time>2025-02-03T12:09:28.044Z</time>
      </trkpt>
      <trkpt lat="44.09933" lon="4.75669">
        <ele>73.965417</ele>
        <time>2025-02-03T12:09:33.022Z</time>
      </trkpt>
      <trkpt lat="44.09936" lon="4.75655">
        <ele>73.878918</ele>
        <time>2025-02-03T12:09:38.024Z</time>
      </trkpt>
      <trkpt lat="44.09938" lon="4.75641">
        <ele>73.799691</ele>
        <time>2025-02-03T12:09:42.008Z</time>
      </trkpt>
      <trkpt lat="44.09939" lon="4.75628">
        <ele>73.722849</ele>
        <time>2025-02-03T12:09:48.015Z</time>
      </trkpt>
      <trkpt lat="44.0993" lon="4.7562">
        <ele>73.63686</ele>
        <time>2025-02-03T12:09:56.012Z</time>
      </trkpt>
      <trkpt lat="44.09919" lon="4.75625">
        <ele>73.545747</ele>
        <time>2025-02-03T12:10:00.012Z</time>
      </trkpt>
      <trkpt lat="44.09915" lon="4.75637">
        <ele>73.462112</ele>
        <time>2025-02-03T12:10:02.998Z</time>
      </trkpt>
      <trkpt lat="44.0991" lon="4.7565">
        <ele>73.379772</ele>
        <time>2025-02-03T12:10:06.015Z</time>
      </trkpt>
      <trkpt lat="44.09903" lon="4.75664">
        <ele>73.283984</ele>
        <time>2025-02-03T12:10:09.023Z</time>
      </trkpt>
      <trkpt lat="44.09897" lon="4.75677">
        <ele>73.191109</ele>
        <time>2025-02-03T12:10:12.013Z</time>
      </trkpt>
      <trkpt lat="44.09893" lon="4.75692">
        <ele>73.098102</ele>
        <time>2025-02-03T12:10:15.036Z</time>
      </trkpt>
      <trkpt lat="44.09888" lon="4.75706">
        <ele>73.004771</ele>
        <time>2025-02-03T12:10:18.021Z</time>
      </trkpt>
      <trkpt lat="44.09884" lon="4.7572">
        <ele>72.944872</ele>
        <time>2025-02-03T12:10:21.021Z</time>
      </trkpt>
      <trkpt lat="44.09882" lon="4.75733">
        <ele>72.976697</ele>
        <time>2025-02-03T12:10:24.015Z</time>
      </trkpt>
      <trkpt lat="44.09884" lon="4.75747">
        <ele>73.009719</ele>
        <time>2025-02-03T12:10:27.016Z</time>
      </trkpt>
      <trkpt lat="44.09884" lon="4.75763">
        <ele>73.047454</ele>
        <time>2025-02-03T12:10:30.023Z</time>
      </trkpt>
      <trkpt lat="44.09878" lon="4.75777">
        <ele>73.086276</ele>
        <time>2025-02-03T12:10:33.011Z</time>
      </trkpt>
      <trkpt lat="44.09872" lon="4.75792">
        <ele>73.124793</ele>
        <time>2025-02-03T12:10:36.011Z</time>
      </trkpt>
      <trkpt lat="44.09867" lon="4.75807">
        <ele>73.163399</ele>
        <time>2025-02-03T12:10:39.021Z</time>
      </trkpt>
      <trkpt lat="44.09861" lon="4.75821">
        <ele>73.202314</ele>
        <time>2025-02-03T12:10:42.014Z</time>
      </trkpt>
      <trkpt lat="44.09854" lon="4.75836">
        <ele>73.244007</ele>
        <time>2025-02-03T12:10:45.024Z</time>
      </trkpt>
      <trkpt lat="44.09848" lon="4.75851">
        <ele>73.283965</ele>
        <time>2025-02-03T12:10:48.012Z</time>
      </trkpt>
      <trkpt lat="44.09841" lon="4.75866">
        <ele>73.326898</ele>
        <time>2025-02-03T12:10:51.022Z</time>
      </trkpt>
      <trkpt lat="44.09833" lon="4.7588">
        <ele>73.366681</ele>
        <time>2025-02-03T12:10:54.019Z</time>
      </trkpt>
      <trkpt lat="44.09826" lon="4.75895">
        <ele>73.408196</ele>
        <time>2025-02-03T12:10:57.023Z</time>
      </trkpt>
      <trkpt lat="44.09818" lon="4.75908">
        <ele>73.450139</ele>
        <time>2025-02-03T12:11:00.019Z</time>
      </trkpt>
      <trkpt lat="44.0981" lon="4.75921">
        <ele>73.489238</ele>
        <time>2025-02-03T12:11:03.024Z</time>
      </trkpt>
      <trkpt lat="44.09804" lon="4.75935">
        <ele>73.534845</ele>
        <time>2025-02-03T12:11:06.016Z</time>
      </trkpt>
      <trkpt lat="44.09797" lon="4.75948">
        <ele>73.639714</ele>
        <time>2025-02-03T12:11:09.014Z</time>
      </trkpt>
      <trkpt lat="44.0979" lon="4.75961">
        <ele>73.747308</ele>
        <time>2025-02-03T12:11:12.016Z</time>
      </trkpt>
      <trkpt lat="44.09782" lon="4.75975">
        <ele>73.859537</ele>
        <time>2025-02-03T12:11:15.020Z</time>
      </trkpt>
      <trkpt lat="44.09774" lon="4.75989">
        <ele>73.973596</ele>
        <time>2025-02-03T12:11:18.008Z</time>
      </trkpt>
      <trkpt lat="44.09766" lon="4.76002">
        <ele>74.087084</ele>
        <time>2025-02-03T12:11:21.007Z</time>
      </trkpt>
      <trkpt lat="44.09759" lon="4.76016">
        <ele>74.198937</ele>
        <time>2025-02-03T12:11:24.016Z</time>
      </trkpt>
      <trkpt lat="44.09749" lon="4.76028">
        <ele>74.311812</ele>
        <time>2025-02-03T12:11:27.020Z</time>
      </trkpt>
      <trkpt lat="44.09742" lon="4.76039">
        <ele>74.413459</ele>
        <time>2025-02-03T12:11:30.041Z</time>
      </trkpt>
      <trkpt lat="44.09734" lon="4.76049">
        <ele>74.501526</ele>
        <time>2025-02-03T12:11:33.035Z</time>
      </trkpt>
      <trkpt lat="44.09727" lon="4.76059">
        <ele>74.593541</ele>
        <time>2025-02-03T12:11:37.020Z</time>
      </trkpt>
      <trkpt lat="44.09727" lon="4.76078">
        <ele>74.718293</ele>
        <time>2025-02-03T12:13:45.996Z</time>
      </trkpt>
      <trkpt lat="44.09731" lon="4.76092">
        <ele>74.810782</ele>
        <time>2025-02-03T12:13:51.023Z</time>
      </trkpt>
      <trkpt lat="44.09743" lon="4.76091">
        <ele>74.919552</ele>
        <time>2025-02-03T12:13:54.018Z</time>
      </trkpt>
      <trkpt lat="44.09756" lon="4.76088">
        <ele>75.039581</ele>
        <time>2025-02-03T12:13:57.029Z</time>
      </trkpt>
      <trkpt lat="44.09765" lon="4.76084">
        <ele>75.124053</ele>
        <time>2025-02-03T12:13:59.045Z</time>
      </trkpt>
      <trkpt lat="44.09777" lon="4.76079">
        <ele>75.164066</ele>
        <time>2025-02-03T12:14:02.008Z</time>
      </trkpt>
      <trkpt lat="44.09789" lon="4.76073">
        <ele>75.190281</ele>
        <time>2025-02-03T12:14:05.024Z</time>
      </trkpt>
      <trkpt lat="44.098" lon="4.76068">
        <ele>75.215692</ele>
        <time>2025-02-03T12:14:08.030Z</time>
      </trkpt>
      <trkpt lat="44.09811" lon="4.76062">
        <ele>75.241215</ele>
        <time>2025-02-03T12:14:11.030Z</time>
      </trkpt>
      <trkpt lat="44.09823" lon="4.76056">
        <ele>75.267246</ele>
        <time>2025-02-03T12:14:14.025Z</time>
      </trkpt>
      <trkpt lat="44.09834" lon="4.76049">
        <ele>75.29342</ele>
        <time>2025-02-03T12:14:17.037Z</time>
      </trkpt>
      <trkpt lat="44.09846" lon="4.76043">
        <ele>75.319425</ele>
        <time>2025-02-03T12:14:20.013Z</time>
      </trkpt>
      <trkpt lat="44.09858" lon="4.76036">
        <ele>75.347293</ele>
        <time>2025-02-03T12:14:23.042Z</time>
      </trkpt>
      <trkpt lat="44.0987" lon="4.76028">
        <ele>75.375268</ele>
        <time>2025-02-03T12:14:26.028Z</time>
      </trkpt>
      <trkpt lat="44.09881" lon="4.76022">
        <ele>75.402117</ele>
        <time>2025-02-03T12:14:29.030Z</time>
      </trkpt>
      <trkpt lat="44.09893" lon="4.76014">
        <ele>75.428875</ele>
        <time>2025-02-03T12:14:32.037Z</time>
      </trkpt>
      <trkpt lat="44.09904" lon="4.76007">
        <ele>75.454792</ele>
        <time>2025-02-03T12:14:35.022Z</time>
      </trkpt>
      <trkpt lat="44.09914" lon="4.76001">
        <ele>75.479129</ele>
        <time>2025-02-03T12:14:38.023Z</time>
      </trkpt>
      <trkpt lat="44.09926" lon="4.75995">
        <ele>75.504395</ele>
        <time>2025-02-03T12:14:41.025Z</time>
      </trkpt>
      <trkpt lat="44.09937" lon="4.75991">
        <ele>75.533106</ele>
        <time>2025-02-03T12:14:44.015Z</time>
      </trkpt>
      <trkpt lat="44.09948" lon="4.75985">
        <ele>75.568626</ele>
        <time>2025-02-03T12:14:47.025Z</time>
      </trkpt>
      <trkpt lat="44.09958" lon="4.75981">
        <ele>75.602041</ele>
        <time>2025-02-03T12:14:50.025Z</time>
      </trkpt>
      <trkpt lat="44.09968" lon="4.75978">
        <ele>75.632798</ele>
        <time>2025-02-03T12:14:53.032Z</time>
      </trkpt>
      <trkpt lat="44.09977" lon="4.75974">
        <ele>75.661067</ele>
        <time>2025-02-03T12:14:56.024Z</time>
      </trkpt>
      <trkpt lat="44.09986" lon="4.75971">
        <ele>75.69012</ele>
        <time>2025-02-03T12:14:59.037Z</time>
      </trkpt>
      <trkpt lat="44.09995" lon="4.75967">
        <ele>75.720777</ele>
        <time>2025-02-03T12:15:02.028Z</time>
      </trkpt>
      <trkpt lat="44.10005" lon="4.75965">
        <ele>75.751397</ele>
        <time>2025-02-03T12:15:05.026Z</time>
      </trkpt>
      <trkpt lat="44.10015" lon="4.75961">
        <ele>75.784215</ele>
        <time>2025-02-03T12:15:08.031Z</time>
      </trkpt>
      <trkpt lat="44.10026" lon="4.75958">
        <ele>75.817916</ele>
        <time>2025-02-03T12:15:11.025Z</time>
      </trkpt>
      <trkpt lat="44.10037" lon="4.75957">
        <ele>75.851512</ele>
        <time>2025-02-03T12:15:14.023Z</time>
      </trkpt>
      <trkpt lat="44.10048" lon="4.75955">
        <ele>75.885395</ele>
        <time>2025-02-03T12:15:17.026Z</time>
      </trkpt>
      <trkpt lat="44.10059" lon="4.75955">
        <ele>75.921924</ele>
        <time>2025-02-03T12:15:20.022Z</time>
      </trkpt>
      <trkpt lat="44.10071" lon="4.75956">
        <ele>75.95665</ele>
        <time>2025-02-03T12:15:23.026Z</time>
      </trkpt>
      <trkpt lat="44.10082" lon="4.75957">
        <ele>75.992007</ele>
        <time>2025-02-03T12:15:26.004Z</time>
      </trkpt>
      <trkpt lat="44.10093" lon="4.75959">
        <ele>76.026836</ele>
        <time>2025-02-03T12:15:28.994Z</time>
      </trkpt>
      <trkpt lat="44.10104" lon="4.7596">
        <ele>76.061576</ele>
        <time>2025-02-03T12:15:32.005Z</time>
      </trkpt>
      <trkpt lat="44.10115" lon="4.75961">
        <ele>76.069932</ele>
        <time>2025-02-03T12:15:35.028Z</time>
      </trkpt>
      <trkpt lat="44.10127" lon="4.75962">
        <ele>76.04736</ele>
        <time>2025-02-03T12:15:38.025Z</time>
      </trkpt>
      <trkpt lat="44.10137" lon="4.75961">
        <ele>76.028371</ele>
        <time>2025-02-03T12:15:41.034Z</time>
      </trkpt>
      <trkpt lat="44.10147" lon="4.75959">
        <ele>76.008846</ele>
        <time>2025-02-03T12:15:47.015Z</time>
      </trkpt>
      <trkpt lat="44.10154" lon="4.75951">
        <ele>75.990406</ele>
        <time>2025-02-03T12:15:51.018Z</time>
      </trkpt>
      <trkpt lat="44.10157" lon="4.75937">
        <ele>75.970566</ele>
        <time>2025-02-03T12:15:54.020Z</time>
      </trkpt>
      <trkpt lat="44.10161" lon="4.75924">
        <ele>75.95123</ele>
        <time>2025-02-03T12:15:57.043Z</time>
      </trkpt>
      <trkpt lat="44.10164" lon="4.75911">
        <ele>75.931559</ele>
        <time>2025-02-03T12:16:00.019Z</time>
      </trkpt>
      <trkpt lat="44.10167" lon="4.75898">
        <ele>75.912628</ele>
        <time>2025-02-03T12:16:03.016Z</time>
      </trkpt>
      <trkpt lat="44.10173" lon="4.75887">
        <ele>75.893121</ele>
        <time>2025-02-03T12:16:06.053Z</time>
      </trkpt>
      <trkpt lat="44.1018" lon="4.75876">
        <ele>75.873069</ele>
        <time>2025-02-03T12:16:09.009Z</time>
      </trkpt>
      <trkpt lat="44.10188" lon="4.75868">
        <ele>75.853203</ele>
        <time>2025-02-03T12:16:12.011Z</time>
      </trkpt>
      <trkpt lat="44.10198" lon="4.75862">
        <ele>75.833394</ele>
        <time>2025-02-03T12:16:15.013Z</time>
      </trkpt>
      <trkpt lat="44.10207" lon="4.75858">
        <ele>75.814404</ele>
        <time>2025-02-03T12:16:18.010Z</time>
      </trkpt>
      <trkpt lat="44.10217" lon="4.75858">
        <ele>75.795328</ele>
        <time>2025-02-03T12:16:21.016Z</time>
      </trkpt>
      <trkpt lat="44.10226" lon="4.75858">
        <ele>75.777443</ele>
        <time>2025-02-03T12:16:24.002Z</time>
      </trkpt>
      <trkpt lat="44.10235" lon="4.75859">
        <ele>75.759479</ele>
        <time>2025-02-03T12:16:27.040Z</time>
      </trkpt>
      <trkpt lat="44.10244" lon="4.75864">
        <ele>75.741019</ele>
        <time>2025-02-03T12:16:30.009Z</time>
      </trkpt>
      <trkpt lat="44.1025" lon="4.75874">
        <ele>75.667829</ele>
        <time>2025-02-03T12:16:33.009Z</time>
      </trkpt>
      <trkpt lat="44.1026" lon="4.75873">
        <ele>75.517284</ele>
        <time>2025-02-03T12:16:36.009Z</time>
      </trkpt>
      <trkpt lat="44.10263" lon="4.75861">
        <ele>75.370519</ele>
        <time>2025-02-03T12:16:38.998Z</time>
      </trkpt>
      <trkpt lat="44.10259" lon="4.75846">
        <ele>75.185518</ele>
        <time>2025-02-03T12:16:43.012Z</time>
      </trkpt>
      <trkpt lat="44.10261" lon="4.75833">
        <ele>75.031511</ele>
        <time>2025-02-03T12:16:48.013Z</time>
      </trkpt>
      <trkpt lat="44.10264" lon="4.75821">
        <ele>74.880921</ele>
        <time>2025-02-03T12:16:54.016Z</time>
      </trkpt>
      <trkpt lat="44.10266" lon="4.75809">
        <ele>74.73552</ele>
        <time>2025-02-03T12:16:59.037Z</time>
      </trkpt>
      <trkpt lat="44.10269" lon="4.75793">
        <ele>74.549157</ele>
        <time>2025-02-03T12:17:04.033Z</time>
      </trkpt>
      <trkpt lat="44.10273" lon="4.75781">
        <ele>74.402874</ele>
        <time>2025-02-03T12:17:07.007Z</time>
      </trkpt>
      <trkpt lat="44.10277" lon="4.75769">
        <ele>74.243281</ele>
        <time>2025-02-03T12:17:10.029Z</time>
      </trkpt>
      <trkpt lat="44.1028" lon="4.75755">
        <ele>74.077909</ele>
        <time>2025-02-03T12:17:13.991Z</time>
      </trkpt>
      <trkpt lat="44.10283" lon="4.75743">
        <ele>73.927082</ele>
        <time>2025-02-03T12:17:19.009Z</time>
      </trkpt>
      <trkpt lat="44.10278" lon="4.75729">
        <ele>73.747969</ele>
        <time>2025-02-03T12:17:43.006Z</time>
      </trkpt>
      <trkpt lat="44.10268" lon="4.75723">
        <ele>73.579128</ele>
        <time>2025-02-03T12:19:19.000Z</time>
      </trkpt>
      <trkpt lat="44.1026" lon="4.75715">
        <ele>73.416212</ele>
        <time>2025-02-03T12:19:24.999Z</time>
      </trkpt>
      <trkpt lat="44.10257" lon="4.75703">
        <ele>73.265679</ele>
        <time>2025-02-03T12:19:29.993Z</time>
      </trkpt>
      <trkpt lat="44.10248" lon="4.75692">
        <ele>73.083063</ele>
        <time>2025-02-03T12:19:33.998Z</time>
      </trkpt>
      <trkpt lat="44.1024" lon="4.75684">
        <ele>72.920803</ele>
        <time>2025-02-03T12:19:36.978Z</time>
      </trkpt>
      <trkpt lat="44.10232" lon="4.75674">
        <ele>72.688595</ele>
        <time>2025-02-03T12:19:40.000Z</time>
      </trkpt>
      <trkpt lat="44.10226" lon="4.75662">
        <ele>72.381709</ele>
        <time>2025-02-03T12:19:43.023Z</time>
      </trkpt>
      <trkpt lat="44.1022" lon="4.75651">
        <ele>72.106292</ele>
        <time>2025-02-03T12:19:45.994Z</time>
      </trkpt>
      <trkpt lat="44.10216" lon="4.7564">
        <ele>71.851372</ele>
        <time>2025-02-03T12:19:49.003Z</time>
      </trkpt>
      <trkpt lat="44.10211" lon="4.75629">
        <ele>71.572583</ele>
        <time>2025-02-03T12:19:53.018Z</time>
      </trkpt>
      <trkpt lat="44.10201" lon="4.75628">
        <ele>71.282319</ele>
        <time>2025-02-03T12:19:59.023Z</time>
      </trkpt>
      <trkpt lat="44.10192" lon="4.75632">
        <ele>71.019308</ele>
        <time>2025-02-03T12:20:02.011Z</time>
      </trkpt>
      <trkpt lat="44.10182" lon="4.75635">
        <ele>70.737086</ele>
        <time>2025-02-03T12:20:05.022Z</time>
      </trkpt>
      <trkpt lat="44.10172" lon="4.75638">
        <ele>70.45057</ele>
        <time>2025-02-03T12:20:08.014Z</time>
      </trkpt>
      <trkpt lat="44.10161" lon="4.75639">
        <ele>70.13016</ele>
        <time>2025-02-03T12:20:11.023Z</time>
      </trkpt>
      <trkpt lat="44.10151" lon="4.75642">
        <ele>69.851216</ele>
        <time>2025-02-03T12:20:13.983Z</time>
      </trkpt>
      <trkpt lat="44.10141" lon="4.75642">
        <ele>69.552537</ele>
        <time>2025-02-03T12:20:18.026Z</time>
      </trkpt>
      <trkpt lat="44.10134" lon="4.75653">
        <ele>69.263182</ele>
        <time>2025-02-03T12:20:27.012Z</time>
      </trkpt>
      <trkpt lat="44.10134" lon="4.75669">
        <ele>68.922122</ele>
        <time>2025-02-03T12:20:30.998Z</time>
      </trkpt>
      <trkpt lat="44.10136" lon="4.75683">
        <ele>68.635848</ele>
        <time>2025-02-03T12:20:34.008Z</time>
      </trkpt>
      <trkpt lat="44.10137" lon="4.75697">
        <ele>68.356342</ele>
        <time>2025-02-03T12:20:37.008Z</time>
      </trkpt>
      <trkpt lat="44.10138" lon="4.75713">
        <ele>68.036936</ele>
        <time>2025-02-03T12:20:39.997Z</time>
      </trkpt>
      <trkpt lat="44.10136" lon="4.75728">
        <ele>67.716203</ele>
        <time>2025-02-03T12:20:44.003Z</time>
      </trkpt>
      <trkpt lat="44.10135" lon="4.75742">
        <ele>68.371315</ele>
        <time>2025-02-03T12:20:47.024Z</time>
      </trkpt>
      <trkpt lat="44.10132" lon="4.75758">
        <ele>69.17011</ele>
        <time>2025-02-03T12:20:51.014Z</time>
      </trkpt>
      <trkpt lat="44.10133" lon="4.75771">
        <ele>69.785711</ele>
        <time>2025-02-03T12:20:55.014Z</time>
      </trkpt>
      <trkpt lat="44.10143" lon="4.75775">
        <ele>70.493484</ele>
        <time>2025-02-03T12:20:59.020Z</time>
      </trkpt>
      <trkpt lat="44.10154" lon="4.75779">
        <ele>71.232032</ele>
        <time>2025-02-03T12:21:03.020Z</time>
      </trkpt>
      <trkpt lat="44.10164" lon="4.75783">
        <ele>71.959059</ele>
        <time>2025-02-03T12:21:07.002Z</time>
      </trkpt>
      <trkpt lat="44.10173" lon="4.75789">
        <ele>72.619968</ele>
        <time>2025-02-03T12:21:11.024Z</time>
      </trkpt>
      <trkpt lat="44.10184" lon="4.75793">
        <ele>73.369593</ele>
        <time>2025-02-03T12:21:16.030Z</time>
      </trkpt>
      <trkpt lat="44.10193" lon="4.758">
        <ele>74.025609</ele>
        <time>2025-02-03T12:21:20.019Z</time>
      </trkpt>
      <trkpt lat="44.10201" lon="4.75806">
        <ele>74.684117</ele>
        <time>2025-02-03T12:21:24.019Z</time>
      </trkpt>
      <trkpt lat="44.1021" lon="4.75808">
        <ele>75.292559</ele>
        <time>2025-02-03T12:21:28.007Z</time>
      </trkpt>
      <trkpt lat="44.1022" lon="4.7581">
        <ele>75.956316</ele>
        <time>2025-02-03T12:21:32.006Z</time>
      </trkpt>
      <trkpt lat="44.10229" lon="4.75813">
        <ele>76.577622</ele>
        <time>2025-02-03T12:21:37.008Z</time>
      </trkpt>
      <trkpt lat="44.10241" lon="4.75811">
        <ele>77.396016</ele>
        <time>2025-02-03T13:39:32.309Z</time>
      </trkpt>
      <trkpt lat="44.10247" lon="4.75821">
        <ele>78.017724</ele>
        <time>2025-02-03T13:42:57.985Z</time>
      </trkpt>
      <trkpt lat="44.10255" lon="4.75829">
        <ele>78.700301</ele>
        <time>2025-02-03T13:43:03.016Z</time>
      </trkpt>
      <trkpt lat="44.10254" lon="4.75843">
        <ele>79.367768</ele>
        <time>2025-02-03T13:43:10.023Z</time>
      </trkpt>
      <trkpt lat="44.10236" lon="4.75851">
        <ele>79.667802</ele>
        <time>2025-02-03T13:43:43.022Z</time>
      </trkpt>
      <trkpt lat="44.10225" lon="4.75843">
        <ele>79.580989</ele>
        <time>2025-02-03T13:43:47.000Z</time>
      </trkpt>
      <trkpt lat="44.10216" lon="4.75835">
        <ele>79.502497</ele>
        <time>2025-02-03T13:43:50.015Z</time>
      </trkpt>
      <trkpt lat="44.10205" lon="4.75831">
        <ele>79.419942</ele>
        <time>2025-02-03T13:43:53.024Z</time>
      </trkpt>
      <trkpt lat="44.10192" lon="4.75828">
        <ele>79.327672</ele>
        <time>2025-02-03T13:43:56.016Z</time>
      </trkpt>
      <trkpt lat="44.1018" lon="4.75826">
        <ele>79.234127</ele>
        <time>2025-02-03T13:43:59.002Z</time>
      </trkpt>
      <trkpt lat="44.10171" lon="4.75825">
        <ele>79.168698</ele>
        <time>2025-02-03T13:44:00.982Z</time>
      </trkpt>
      <trkpt lat="44.10161" lon="4.75822">
        <ele>79.095339</ele>
        <time>2025-02-03T13:44:03.008Z</time>
      </trkpt>
      <trkpt lat="44.10151" lon="4.75819">
        <ele>79.02309</ele>
        <time>2025-02-03T13:44:05.019Z</time>
      </trkpt>
      <trkpt lat="44.10141" lon="4.75817">
        <ele>78.951587</ele>
        <time>2025-02-03T13:44:07.011Z</time>
      </trkpt>
      <trkpt lat="44.10131" lon="4.75815">
        <ele>78.876591</ele>
        <time>2025-02-03T13:44:09.008Z</time>
      </trkpt>
      <trkpt lat="44.1012" lon="4.75814">
        <ele>78.802571</ele>
        <time>2025-02-03T13:44:11.014Z</time>
      </trkpt>
      <trkpt lat="44.1011" lon="4.75811">
        <ele>78.723146</ele>
        <time>2025-02-03T13:44:13.022Z</time>
      </trkpt>
      <trkpt lat="44.10099" lon="4.7581">
        <ele>78.6462</ele>
        <time>2025-02-03T13:44:15.029Z</time>
      </trkpt>
      <trkpt lat="44.10088" lon="4.75807">
        <ele>78.568916</ele>
        <time>2025-02-03T13:44:17.016Z</time>
      </trkpt>
      <trkpt lat="44.10078" lon="4.75805">
        <ele>78.495114</ele>
        <time>2025-02-03T13:44:18.999Z</time>
      </trkpt>
      <trkpt lat="44.10068" lon="4.75802">
        <ele>78.42807</ele>
        <time>2025-02-03T13:44:21.007Z</time>
      </trkpt>
      <trkpt lat="44.10057" lon="4.75798">
        <ele>78.364302</ele>
        <time>2025-02-03T13:44:23.030Z</time>
      </trkpt>
      <trkpt lat="44.10046" lon="4.75794">
        <ele>78.300986</ele>
        <time>2025-02-03T13:44:25.003Z</time>
      </trkpt>
      <trkpt lat="44.10036" lon="4.75787">
        <ele>78.236318</ele>
        <time>2025-02-03T13:44:27.008Z</time>
      </trkpt>
      <trkpt lat="44.10026" lon="4.7578">
        <ele>78.17704</ele>
        <time>2025-02-03T13:44:29.006Z</time>
      </trkpt>
      <trkpt lat="44.10018" lon="4.75773">
        <ele>78.120538</ele>
        <time>2025-02-03T13:44:31.032Z</time>
      </trkpt>
      <trkpt lat="44.10009" lon="4.75766">
        <ele>78.062559</ele>
        <time>2025-02-03T13:44:33.027Z</time>
      </trkpt>
      <trkpt lat="44.09999" lon="4.7576">
        <ele>78.004546</ele>
        <time>2025-02-03T13:44:35.011Z</time>
      </trkpt>
      <trkpt lat="44.09987" lon="4.75752">
        <ele>77.927234</ele>
        <time>2025-02-03T13:44:38.009Z</time>
      </trkpt>
      <trkpt lat="44.09976" lon="4.75743">
        <ele>77.853677</ele>
        <time>2025-02-03T13:44:41.017Z</time>
      </trkpt>
      <trkpt lat="44.09964" lon="4.75735">
        <ele>77.782767</ele>
        <time>2025-02-03T13:44:43.983Z</time>
      </trkpt>
      <trkpt lat="44.09955" lon="4.75728">
        <ele>77.719923</ele>
        <time>2025-02-03T13:44:47.014Z</time>
      </trkpt>
      <trkpt lat="44.09946" lon="4.75717">
        <ele>77.654149</ele>
        <time>2025-02-03T13:44:50.003Z</time>
      </trkpt>
      <trkpt lat="44.09941" lon="4.75702">
        <ele>77.587302</ele>
        <time>2025-02-03T13:44:53.015Z</time>
      </trkpt>
      <trkpt lat="44.09939" lon="4.75685">
        <ele>77.518063</ele>
        <time>2025-02-03T13:44:56.005Z</time>
      </trkpt>
      <trkpt lat="44.09938" lon="4.7567">
        <ele>77.456204</ele>
        <time>2025-02-03T13:44:59.003Z</time>
      </trkpt>
      <trkpt lat="44.09937" lon="4.75656">
        <ele>77.5009</ele>
        <time>2025-02-03T13:45:02.019Z</time>
      </trkpt>
      <trkpt lat="44.09936" lon="4.7564">
        <ele>77.560371</ele>
        <time>2025-02-03T13:45:06.019Z</time>
      </trkpt>
      <trkpt lat="44.09933" lon="4.75624">
        <ele>77.619982</ele>
        <time>2025-02-03T13:45:10.008Z</time>
      </trkpt>
      <trkpt lat="44.09922" lon="4.75622">
        <ele>77.674197</ele>
        <time>2025-02-03T13:45:14.011Z</time>
      </trkpt>
      <trkpt lat="44.09916" lon="4.75634">
        <ele>77.725416</ele>
        <time>2025-02-03T13:45:17.017Z</time>
      </trkpt>
      <trkpt lat="44.09911" lon="4.75647">
        <ele>77.777251</ele>
        <time>2025-02-03T13:45:20.009Z</time>
      </trkpt>
      <trkpt lat="44.09905" lon="4.75661">
        <ele>77.836433</ele>
        <time>2025-02-03T13:45:23.025Z</time>
      </trkpt>
      <trkpt lat="44.09899" lon="4.75676">
        <ele>77.899132</ele>
        <time>2025-02-03T13:45:26.017Z</time>
      </trkpt>
      <trkpt lat="44.09894" lon="4.75692">
        <ele>77.965482</ele>
        <time>2025-02-03T13:45:29.012Z</time>
      </trkpt>
      <trkpt lat="44.09889" lon="4.75703">
        <ele>78.010716</ele>
        <time>2025-02-03T13:45:31.017Z</time>
      </trkpt>
      <trkpt lat="44.09885" lon="4.7572">
        <ele>78.076694</ele>
        <time>2025-02-03T13:45:34.003Z</time>
      </trkpt>
      <trkpt lat="44.09881" lon="4.75736">
        <ele>78.13571</ele>
        <time>2025-02-03T13:45:37.026Z</time>
      </trkpt>
      <trkpt lat="44.09885" lon="4.75752">
        <ele>78.19665</ele>
        <time>2025-02-03T13:45:40.012Z</time>
      </trkpt>
      <trkpt lat="44.0988" lon="4.75767">
        <ele>78.254489</ele>
        <time>2025-02-03T13:45:43.009Z</time>
      </trkpt>
      <trkpt lat="44.09875" lon="4.75783">
        <ele>78.318751</ele>
        <time>2025-02-03T13:45:46.012Z</time>
      </trkpt>
      <trkpt lat="44.09869" lon="4.75799">
        <ele>78.365646</ele>
        <time>2025-02-03T13:45:49.015Z</time>
      </trkpt>
      <trkpt lat="44.09864" lon="4.75815">
        <ele>78.37933</ele>
        <time>2025-02-03T13:45:52.007Z</time>
      </trkpt>
      <trkpt lat="44.09857" lon="4.75831">
        <ele>78.393141</ele>
        <time>2025-02-03T13:45:55.012Z</time>
      </trkpt>
      <trkpt lat="44.09852" lon="4.75841">
        <ele>78.402616</ele>
        <time>2025-02-03T13:45:57.020Z</time>
      </trkpt>
      <trkpt lat="44.09847" lon="4.75852">
        <ele>78.412152</ele>
        <time>2025-02-03T13:45:59.018Z</time>
      </trkpt>
      <trkpt lat="44.0984" lon="4.75868">
        <ele>78.426387</ele>
        <time>2025-02-03T13:46:01.999Z</time>
      </trkpt>
      <trkpt lat="44.09833" lon="4.75882">
        <ele>78.439492</ele>
        <time>2025-02-03T13:46:05.020Z</time>
      </trkpt>
      <trkpt lat="44.09826" lon="4.75896">
        <ele>78.452041</ele>
        <time>2025-02-03T13:46:08.008Z</time>
      </trkpt>
      <trkpt lat="44.09818" lon="4.7591">
        <ele>78.465698</ele>
        <time>2025-02-03T13:46:11.025Z</time>
      </trkpt>
      <trkpt lat="44.09811" lon="4.75925">
        <ele>78.47893</ele>
        <time>2025-02-03T13:46:13.997Z</time>
      </trkpt>
      <trkpt lat="44.09804" lon="4.75939">
        <ele>78.492284</ele>
        <time>2025-02-03T13:46:17.013Z</time>
      </trkpt>
      <trkpt lat="44.09799" lon="4.75949">
        <ele>78.501819</ele>
        <time>2025-02-03T13:46:19.036Z</time>
      </trkpt>
      <trkpt lat="44.09791" lon="4.75964">
        <ele>78.515537</ele>
        <time>2025-02-03T13:46:22.010Z</time>
      </trkpt>
      <trkpt lat="44.09782" lon="4.75978">
        <ele>78.529674</ele>
        <time>2025-02-03T13:46:24.983Z</time>
      </trkpt>
      <trkpt lat="44.09776" lon="4.75988">
        <ele>78.539565</ele>
        <time>2025-02-03T13:46:27.037Z</time>
      </trkpt>
      <trkpt lat="44.09768" lon="4.76001">
        <ele>78.543123</ele>
        <time>2025-02-03T13:46:30.012Z</time>
      </trkpt>
      <trkpt lat="44.0976" lon="4.76016">
        <ele>78.502594</ele>
        <time>2025-02-03T13:46:33.016Z</time>
      </trkpt>
      <trkpt lat="44.09751" lon="4.76029">
        <ele>78.463537</ele>
        <time>2025-02-03T13:46:36.028Z</time>
      </trkpt>
      <trkpt lat="44.09742" lon="4.76042">
        <ele>78.425423</ele>
        <time>2025-02-03T13:46:39.014Z</time>
      </trkpt>
      <trkpt lat="44.09734" lon="4.76052">
        <ele>78.392161</ele>
        <time>2025-02-03T13:46:42.017Z</time>
      </trkpt>
      <trkpt lat="44.09724" lon="4.7606">
        <ele>78.357885</ele>
        <time>2025-02-03T13:46:45.014Z</time>
      </trkpt>
      <trkpt lat="44.09715" lon="4.76071">
        <ele>78.320658</ele>
        <time>2025-02-03T13:46:48.022Z</time>
      </trkpt>
      <trkpt lat="44.09705" lon="4.76082">
        <ele>78.281708</ele>
        <time>2025-02-03T13:46:51.016Z</time>
      </trkpt>
      <trkpt lat="44.09693" lon="4.76089">
        <ele>78.243012</ele>
        <time>2025-02-03T13:46:54.011Z</time>
      </trkpt>
      <trkpt lat="44.09681" lon="4.76097">
        <ele>78.202494</ele>
        <time>2025-02-03T13:46:57.029Z</time>
      </trkpt>
      <trkpt lat="44.09673" lon="4.76104">
        <ele>78.173515</ele>
        <time>2025-02-03T13:46:59.015Z</time>
      </trkpt>
      <trkpt lat="44.09665" lon="4.7611">
        <ele>78.145327</ele>
        <time>2025-02-03T13:47:01.036Z</time>
      </trkpt>
      <trkpt lat="44.09656" lon="4.76116">
        <ele>78.115966</ele>
        <time>2025-02-03T13:47:03.012Z</time>
      </trkpt>
      <trkpt lat="44.09647" lon="4.76122">
        <ele>78.084889</ele>
        <time>2025-02-03T13:47:05.005Z</time>
      </trkpt>
      <trkpt lat="44.09638" lon="4.76128">
        <ele>78.055182</ele>
        <time>2025-02-03T13:47:07.006Z</time>
      </trkpt>
      <trkpt lat="44.09629" lon="4.76134">
        <ele>78.024097</ele>
        <time>2025-02-03T13:47:09.009Z</time>
      </trkpt>
      <trkpt lat="44.09619" lon="4.76139">
        <ele>78.008914</ele>
        <time>2025-02-03T13:47:11.017Z</time>
      </trkpt>
      <trkpt lat="44.0961" lon="4.76145">
        <ele>78.019152</ele>
        <time>2025-02-03T13:47:13.006Z</time>
      </trkpt>
      <trkpt lat="44.096" lon="4.7615">
        <ele>78.029555</ele>
        <time>2025-02-03T13:47:14.994Z</time>
      </trkpt>
      <trkpt lat="44.09591" lon="4.76156">
        <ele>78.039587</ele>
        <time>2025-02-03T13:47:17.007Z</time>
      </trkpt>
      <trkpt lat="44.09581" lon="4.76161">
        <ele>78.049556</ele>
        <time>2025-02-03T13:47:19.015Z</time>
      </trkpt>
      <trkpt lat="44.09572" lon="4.76166">
        <ele>78.059142</ele>
        <time>2025-02-03T13:47:21.004Z</time>
      </trkpt>
      <trkpt lat="44.09562" lon="4.76171">
        <ele>78.069521</ele>
        <time>2025-02-03T13:47:23.005Z</time>
      </trkpt>
      <trkpt lat="44.09552" lon="4.76175">
        <ele>78.07981</ele>
        <time>2025-02-03T13:47:25.011Z</time>
      </trkpt>
      <trkpt lat="44.09543" lon="4.7618">
        <ele>78.089773</ele>
        <time>2025-02-03T13:47:27.005Z</time>
      </trkpt>
      <trkpt lat="44.09533" lon="4.76185">
        <ele>78.099848</ele>
        <time>2025-02-03T13:47:29.006Z</time>
      </trkpt>
      <trkpt lat="44.09524" lon="4.76189">
        <ele>78.109769</ele>
        <time>2025-02-03T13:47:31.006Z</time>
      </trkpt>
      <trkpt lat="44.09514" lon="4.76192">
        <ele>78.12017</ele>
        <time>2025-02-03T13:47:32.996Z</time>
      </trkpt>
      <trkpt lat="44.09504" lon="4.76196">
        <ele>78.13004</ele>
        <time>2025-02-03T13:47:35.024Z</time>
      </trkpt>
      <trkpt lat="44.09494" lon="4.76199">
        <ele>78.140022</ele>
        <time>2025-02-03T13:47:37.023Z</time>
      </trkpt>
      <trkpt lat="44.09485" lon="4.76201">
        <ele>78.149595</ele>
        <time>2025-02-03T13:47:39.005Z</time>
      </trkpt>
      <trkpt lat="44.09475" lon="4.76203">
        <ele>78.159266</ele>
        <time>2025-02-03T13:47:41.011Z</time>
      </trkpt>
      <trkpt lat="44.09465" lon="4.76205">
        <ele>78.168898</ele>
        <time>2025-02-03T13:47:43.002Z</time>
      </trkpt>
      <trkpt lat="44.09457" lon="4.76208">
        <ele>78.177869</ele>
        <time>2025-02-03T13:47:44.974Z</time>
      </trkpt>
      <trkpt lat="44.09447" lon="4.7621">
        <ele>78.222545</ele>
        <time>2025-02-03T13:47:46.983Z</time>
      </trkpt>
      <trkpt lat="44.09437" lon="4.76212">
        <ele>78.308219</ele>
        <time>2025-02-03T13:47:48.986Z</time>
      </trkpt>
      <trkpt lat="44.09427" lon="4.76214">
        <ele>78.394923</ele>
        <time>2025-02-03T13:47:50.998Z</time>
      </trkpt>
      <trkpt lat="44.09418" lon="4.76215">
        <ele>78.477249</ele>
        <time>2025-02-03T13:47:53.006Z</time>
      </trkpt>
      <trkpt lat="44.09408" lon="4.76217">
        <ele>78.558259</ele>
        <time>2025-02-03T13:47:55.011Z</time>
      </trkpt>
      <trkpt lat="44.09399" lon="4.76218">
        <ele>78.640018</ele>
        <time>2025-02-03T13:47:57.001Z</time>
      </trkpt>
      <trkpt lat="44.09389" lon="4.76219">
        <ele>78.723746</ele>
        <time>2025-02-03T13:47:58.996Z</time>
      </trkpt>
      <trkpt lat="44.0938" lon="4.76221">
        <ele>78.808406</ele>
        <time>2025-02-03T13:48:00.984Z</time>
      </trkpt>
      <trkpt lat="44.0937" lon="4.76223">
        <ele>78.894164</ele>
        <time>2025-02-03T13:48:03.015Z</time>
      </trkpt>
      <trkpt lat="44.0936" lon="4.76225">
        <ele>78.978039</ele>
        <time>2025-02-03T13:48:05.007Z</time>
      </trkpt>
      <trkpt lat="44.09351" lon="4.76226">
        <ele>79.060906</ele>
        <time>2025-02-03T13:48:07.000Z</time>
      </trkpt>
      <trkpt lat="44.09341" lon="4.76228">
        <ele>79.146844</ele>
        <time>2025-02-03T13:48:09.006Z</time>
      </trkpt>
      <trkpt lat="44.09331" lon="4.7623">
        <ele>79.231367</ele>
        <time>2025-02-03T13:48:11.003Z</time>
      </trkpt>
      <trkpt lat="44.09322" lon="4.76231">
        <ele>79.315027</ele>
        <time>2025-02-03T13:48:12.979Z</time>
      </trkpt>
      <trkpt lat="44.09312" lon="4.76233">
        <ele>79.403939</ele>
        <time>2025-02-03T13:48:14.985Z</time>
      </trkpt>
      <trkpt lat="44.09302" lon="4.76235">
        <ele>79.489534</ele>
        <time>2025-02-03T13:48:16.990Z</time>
      </trkpt>
      <trkpt lat="44.09292" lon="4.76237">
        <ele>79.576151</ele>
        <time>2025-02-03T13:48:19.013Z</time>
      </trkpt>
      <trkpt lat="44.09282" lon="4.76239">
        <ele>79.663467</ele>
        <time>2025-02-03T13:48:21.000Z</time>
      </trkpt>
      <trkpt lat="44.09272" lon="4.7624">
        <ele>79.74079</ele>
        <time>2025-02-03T13:48:23.015Z</time>
      </trkpt>
      <trkpt lat="44.09262" lon="4.76239">
        <ele>79.732611</ele>
        <time>2025-02-03T13:48:25.003Z</time>
      </trkpt>
      <trkpt lat="44.09251" lon="4.76239">
        <ele>79.72363</ele>
        <time>2025-02-03T13:48:27.008Z</time>
      </trkpt>
      <trkpt lat="44.0924" lon="4.76242">
        <ele>79.714629</ele>
        <time>2025-02-03T13:48:28.986Z</time>
      </trkpt>
      <trkpt lat="44.0923" lon="4.76243">
        <ele>79.705826</ele>
        <time>2025-02-03T13:48:31.003Z</time>
      </trkpt>
      <trkpt lat="44.09219" lon="4.76245">
        <ele>79.69698</ele>
        <time>2025-02-03T13:48:32.992Z</time>
      </trkpt>
      <trkpt lat="44.09209" lon="4.76247">
        <ele>79.688349</ele>
        <time>2025-02-03T13:48:34.987Z</time>
      </trkpt>
      <trkpt lat="44.09199" lon="4.76249">
        <ele>79.67995</ele>
        <time>2025-02-03T13:48:36.993Z</time>
      </trkpt>
      <trkpt lat="44.09188" lon="4.76252">
        <ele>79.671039</ele>
        <time>2025-02-03T13:48:38.992Z</time>
      </trkpt>
      <trkpt lat="44.09178" lon="4.76255">
        <ele>79.662261</ele>
        <time>2025-02-03T13:48:40.989Z</time>
      </trkpt>
      <trkpt lat="44.09168" lon="4.76259">
        <ele>79.653241</ele>
        <time>2025-02-03T13:48:43.004Z</time>
      </trkpt>
      <trkpt lat="44.09157" lon="4.76262">
        <ele>79.644423</ele>
        <time>2025-02-03T13:48:44.989Z</time>
      </trkpt>
      <trkpt lat="44.09147" lon="4.76265">
        <ele>79.635594</ele>
        <time>2025-02-03T13:48:46.976Z</time>
      </trkpt>
      <trkpt lat="44.09137" lon="4.76269">
        <ele>79.626941</ele>
        <time>2025-02-03T13:48:48.985Z</time>
      </trkpt>
      <trkpt lat="44.09126" lon="4.76271">
        <ele>79.617839</ele>
        <time>2025-02-03T13:48:50.983Z</time>
      </trkpt>
      <trkpt lat="44.09115" lon="4.76273">
        <ele>79.608855</ele>
        <time>2025-02-03T13:48:52.993Z</time>
      </trkpt>
      <trkpt lat="44.09105" lon="4.76275">
        <ele>79.600162</ele>
        <time>2025-02-03T13:48:54.986Z</time>
      </trkpt>
      <trkpt lat="44.09094" lon="4.76276">
        <ele>79.583798</ele>
        <time>2025-02-03T13:48:56.990Z</time>
      </trkpt>
      <trkpt lat="44.09084" lon="4.76275">
        <ele>79.519169</ele>
        <time>2025-02-03T13:48:58.986Z</time>
      </trkpt>
      <trkpt lat="44.09073" lon="4.76276">
        <ele>79.454522</ele>
        <time>2025-02-03T13:49:00.979Z</time>
      </trkpt>
      <trkpt lat="44.09063" lon="4.76276">
        <ele>79.38923</ele>
        <time>2025-02-03T13:49:02.981Z</time>
      </trkpt>
      <trkpt lat="44.09052" lon="4.76277">
        <ele>79.322738</ele>
        <time>2025-02-03T13:49:04.979Z</time>
      </trkpt>
      <trkpt lat="44.0904" lon="4.76276">
        <ele>79.253156</ele>
        <time>2025-02-03T13:49:06.982Z</time>
      </trkpt>
      <trkpt lat="44.0903" lon="4.76277">
        <ele>79.187864</ele>
        <time>2025-02-03T13:49:08.977Z</time>
      </trkpt>
      <trkpt lat="44.09019" lon="4.76277">
        <ele>79.123235</ele>
        <time>2025-02-03T13:49:10.985Z</time>
      </trkpt>
      <trkpt lat="44.09009" lon="4.76277">
        <ele>79.060457</ele>
        <time>2025-02-03T13:49:12.975Z</time>
      </trkpt>
      <trkpt lat="44.08999" lon="4.76277">
        <ele>78.995834</ele>
        <time>2025-02-03T13:49:14.986Z</time>
      </trkpt>
      <trkpt lat="44.08989" lon="4.76276">
        <ele>78.933672</ele>
        <time>2025-02-03T13:49:16.979Z</time>
      </trkpt>
      <trkpt lat="44.08978" lon="4.76276">
        <ele>78.870796</ele>
        <time>2025-02-03T13:49:18.976Z</time>
      </trkpt>
      <trkpt lat="44.08968" lon="4.76273">
        <ele>78.805986</ele>
        <time>2025-02-03T13:49:20.983Z</time>
      </trkpt>
      <trkpt lat="44.08958" lon="4.7627">
        <ele>78.741035</ele>
        <time>2025-02-03T13:49:22.987Z</time>
      </trkpt>
      <trkpt lat="44.08948" lon="4.76268">
        <ele>78.680844</ele>
        <time>2025-02-03T13:49:24.977Z</time>
      </trkpt>
      <trkpt lat="44.08937" lon="4.76267">
        <ele>78.614977</ele>
        <time>2025-02-03T13:49:26.983Z</time>
      </trkpt>
      <trkpt lat="44.08928" lon="4.76266">
        <ele>78.556373</ele>
        <time>2025-02-03T13:49:28.989Z</time>
      </trkpt>
      <trkpt lat="44.08917" lon="4.76265">
        <ele>78.491628</ele>
        <time>2025-02-03T13:49:30.987Z</time>
      </trkpt>
      <trkpt lat="44.08907" lon="4.76264">
        <ele>78.606127</ele>
        <time>2025-02-03T13:49:32.981Z</time>
      </trkpt>
      <trkpt lat="44.08896" lon="4.76262">
        <ele>78.733168</ele>
        <time>2025-02-03T13:49:34.984Z</time>
      </trkpt>
      <trkpt lat="44.08887" lon="4.76259">
        <ele>78.856064</ele>
        <time>2025-02-03T13:49:36.985Z</time>
      </trkpt>
      <trkpt lat="44.08877" lon="4.76257">
        <ele>78.973669</ele>
        <time>2025-02-03T13:49:38.987Z</time>
      </trkpt>
      <trkpt lat="44.08867" lon="4.76258">
        <ele>79.100531</ele>
        <time>2025-02-03T13:49:40.986Z</time>
      </trkpt>
      <trkpt lat="44.08856" lon="4.76259">
        <ele>79.229629</ele>
        <time>2025-02-03T13:49:42.989Z</time>
      </trkpt>
      <trkpt lat="44.08846" lon="4.76259">
        <ele>79.359656</ele>
        <time>2025-02-03T13:49:44.993Z</time>
      </trkpt>
      <trkpt lat="44.08835" lon="4.7626">
        <ele>79.486028</ele>
        <time>2025-02-03T13:49:46.987Z</time>
      </trkpt>
      <trkpt lat="44.08825" lon="4.7626">
        <ele>79.613708</ele>
        <time>2025-02-03T13:49:48.989Z</time>
      </trkpt>
      <trkpt lat="44.08815" lon="4.76261">
        <ele>79.739348</ele>
        <time>2025-02-03T13:49:50.985Z</time>
      </trkpt>
      <trkpt lat="44.08804" lon="4.76262">
        <ele>79.86822</ele>
        <time>2025-02-03T13:49:52.993Z</time>
      </trkpt>
      <trkpt lat="44.08794" lon="4.76261">
        <ele>79.997165</ele>
        <time>2025-02-03T13:49:54.986Z</time>
      </trkpt>
      <trkpt lat="44.08784" lon="4.76262">
        <ele>80.122728</ele>
        <time>2025-02-03T13:49:56.987Z</time>
      </trkpt>
      <trkpt lat="44.08773" lon="4.76264">
        <ele>80.248846</ele>
        <time>2025-02-03T13:49:58.986Z</time>
      </trkpt>
      <trkpt lat="44.08763" lon="4.76266">
        <ele>80.3771</ele>
        <time>2025-02-03T13:50:00.989Z</time>
      </trkpt>
      <trkpt lat="44.08753" lon="4.76267">
        <ele>80.504044</ele>
        <time>2025-02-03T13:50:02.992Z</time>
      </trkpt>
      <trkpt lat="44.08743" lon="4.76268">
        <ele>80.625638</ele>
        <time>2025-02-03T13:50:04.976Z</time>
      </trkpt>
      <trkpt lat="44.08732" lon="4.76267">
        <ele>80.685645</ele>
        <time>2025-02-03T13:50:06.985Z</time>
      </trkpt>
      <trkpt lat="44.08722" lon="4.76266">
        <ele>80.673066</ele>
        <time>2025-02-03T13:50:08.995Z</time>
      </trkpt>
      <trkpt lat="44.08712" lon="4.76267">
        <ele>80.660969</ele>
        <time>2025-02-03T13:50:10.987Z</time>
      </trkpt>
      <trkpt lat="44.08699" lon="4.76267">
        <ele>80.644338</ele>
        <time>2025-02-03T13:50:13.992Z</time>
      </trkpt>
      <trkpt lat="44.08686" lon="4.76264">
        <ele>80.628287</ele>
        <time>2025-02-03T13:50:17.000Z</time>
      </trkpt>
      <trkpt lat="44.08677" lon="4.76261">
        <ele>80.61729</ele>
        <time>2025-02-03T13:50:19.000Z</time>
      </trkpt>
      <trkpt lat="44.08664" lon="4.76257">
        <ele>80.600611</ele>
        <time>2025-02-03T13:50:22.001Z</time>
      </trkpt>
      <trkpt lat="44.08655" lon="4.76254">
        <ele>80.589472</ele>
        <time>2025-02-03T13:50:23.998Z</time>
      </trkpt>
      <trkpt lat="44.08646" lon="4.76252">
        <ele>80.578253</ele>
        <time>2025-02-03T13:50:25.998Z</time>
      </trkpt>
      <trkpt lat="44.08633" lon="4.76248">
        <ele>80.561594</ele>
        <time>2025-02-03T13:50:29.000Z</time>
      </trkpt>
      <trkpt lat="44.08624" lon="4.76244">
        <ele>80.549892</ele>
        <time>2025-02-03T13:50:30.984Z</time>
      </trkpt>
      <trkpt lat="44.08615" lon="4.76241">
        <ele>80.538619</ele>
        <time>2025-02-03T13:50:32.988Z</time>
      </trkpt>
      <trkpt lat="44.08606" lon="4.76237">
        <ele>80.527369</ele>
        <time>2025-02-03T13:50:35.003Z</time>
      </trkpt>
      <trkpt lat="44.08597" lon="4.76233">
        <ele>80.515588</ele>
        <time>2025-02-03T13:50:37.005Z</time>
      </trkpt>
      <trkpt lat="44.08588" lon="4.76229">
        <ele>80.503978</ele>
        <time>2025-02-03T13:50:39.005Z</time>
      </trkpt>
      <trkpt lat="44.08579" lon="4.76226">
        <ele>80.492325</ele>
        <time>2025-02-03T13:50:40.998Z</time>
      </trkpt>
      <trkpt lat="44.0857" lon="4.76222">
        <ele>80.480672</ele>
        <time>2025-02-03T13:50:43.013Z</time>
      </trkpt>
      <trkpt lat="44.08561" lon="4.76218">
        <ele>80.458779</ele>
        <time>2025-02-03T13:50:45.009Z</time>
      </trkpt>
      <trkpt lat="44.08552" lon="4.76214">
        <ele>80.36782</ele>
        <time>2025-02-03T13:50:46.996Z</time>
      </trkpt>
      <trkpt lat="44.08542" lon="4.7621">
        <ele>80.275765</ele>
        <time>2025-02-03T13:50:49.009Z</time>
      </trkpt>
      <trkpt lat="44.08533" lon="4.76207">
        <ele>80.186439</ele>
        <time>2025-02-03T13:50:50.998Z</time>
      </trkpt>
      <trkpt lat="44.08524" lon="4.76203">
        <ele>80.096562</ele>
        <time>2025-02-03T13:50:53.007Z</time>
      </trkpt>
      <trkpt lat="44.08515" lon="4.76199">
        <ele>80.008255</ele>
        <time>2025-02-03T13:50:55.006Z</time>
      </trkpt>
      <trkpt lat="44.08506" lon="4.76196">
        <ele>79.921839</ele>
        <time>2025-02-03T13:50:57.010Z</time>
      </trkpt>
      <trkpt lat="44.08494" lon="4.76189">
        <ele>79.796314</ele>
        <time>2025-02-03T13:51:00.008Z</time>
      </trkpt>
      <trkpt lat="44.08485" lon="4.76186">
        <ele>79.70826</ele>
        <time>2025-02-03T13:51:01.998Z</time>
      </trkpt>
      <trkpt lat="44.08472" lon="4.76181">
        <ele>79.583092</ele>
        <time>2025-02-03T13:51:05.008Z</time>
      </trkpt>
      <trkpt lat="44.08459" lon="4.76176">
        <ele>79.458655</ele>
        <time>2025-02-03T13:51:08.002Z</time>
      </trkpt>
      <trkpt lat="44.08451" lon="4.76173">
        <ele>79.372422</ele>
        <time>2025-02-03T13:51:10.021Z</time>
      </trkpt>
      <trkpt lat="44.08438" lon="4.76168">
        <ele>79.252851</ele>
        <time>2025-02-03T13:51:13.015Z</time>
      </trkpt>
      <trkpt lat="44.08426" lon="4.76162">
        <ele>79.127466</ele>
        <time>2025-02-03T13:51:16.010Z</time>
      </trkpt>
      <trkpt lat="44.08417" lon="4.76158">
        <ele>79.038464</ele>
        <time>2025-02-03T13:51:17.973Z</time>
      </trkpt>
      <trkpt lat="44.08408" lon="4.76155">
        <ele>78.952411</ele>
        <time>2025-02-03T13:51:19.981Z</time>
      </trkpt>
      <trkpt lat="44.08395" lon="4.76149">
        <ele>78.825777</ele>
        <time>2025-02-03T13:51:23.007Z</time>
      </trkpt>
      <trkpt lat="44.08386" lon="4.76146">
        <ele>78.769704</ele>
        <time>2025-02-03T13:51:25.011Z</time>
      </trkpt>
      <trkpt lat="44.08377" lon="4.76142">
        <ele>78.764257</ele>
        <time>2025-02-03T13:51:27.014Z</time>
      </trkpt>
      <trkpt lat="44.08368" lon="4.76139">
        <ele>78.759019</ele>
        <time>2025-02-03T13:51:29.011Z</time>
      </trkpt>
      <trkpt lat="44.08359" lon="4.76136">
        <ele>78.753694</ele>
        <time>2025-02-03T13:51:31.006Z</time>
      </trkpt>
      <trkpt lat="44.0835" lon="4.76133">
        <ele>78.748391</ele>
        <time>2025-02-03T13:51:33.008Z</time>
      </trkpt>
      <trkpt lat="44.08341" lon="4.7613">
        <ele>78.74301</ele>
        <time>2025-02-03T13:51:35.012Z</time>
      </trkpt>
      <trkpt lat="44.08332" lon="4.76127">
        <ele>78.737746</ele>
        <time>2025-02-03T13:51:37.009Z</time>
      </trkpt>
      <trkpt lat="44.08324" lon="4.76123">
        <ele>78.732521</ele>
        <time>2025-02-03T13:51:39.007Z</time>
      </trkpt>
      <trkpt lat="44.08314" lon="4.76121">
        <ele>78.727063</ele>
        <time>2025-02-03T13:51:41.017Z</time>
      </trkpt>
      <trkpt lat="44.08301" lon="4.76118">
        <ele>78.719155</ele>
        <time>2025-02-03T13:51:44.000Z</time>
      </trkpt>
      <trkpt lat="44.08292" lon="4.76115">
        <ele>78.713625</ele>
        <time>2025-02-03T13:51:46.025Z</time>
      </trkpt>
      <trkpt lat="44.08282" lon="4.76113">
        <ele>78.708156</ele>
        <time>2025-02-03T13:51:48.001Z</time>
      </trkpt>
      <trkpt lat="44.08273" lon="4.76112">
        <ele>78.702702</ele>
        <time>2025-02-03T13:51:50.007Z</time>
      </trkpt>
      <trkpt lat="44.08263" lon="4.7611">
        <ele>78.697123</ele>
        <time>2025-02-03T13:51:52.025Z</time>
      </trkpt>
      <trkpt lat="44.08254" lon="4.76108">
        <ele>78.691643</ele>
        <time>2025-02-03T13:51:54.020Z</time>
      </trkpt>
      <trkpt lat="44.08244" lon="4.76107">
        <ele>78.686142</ele>
        <time>2025-02-03T13:51:55.987Z</time>
      </trkpt>
      <trkpt lat="44.08235" lon="4.76106">
        <ele>78.680642</ele>
        <time>2025-02-03T13:51:57.994Z</time>
      </trkpt>
      <trkpt lat="44.08226" lon="4.76105">
        <ele>78.675324</ele>
        <time>2025-02-03T13:52:00.027Z</time>
      </trkpt>
      <trkpt lat="44.08217" lon="4.76105">
        <ele>78.670123</ele>
        <time>2025-02-03T13:52:02.003Z</time>
      </trkpt>
      <trkpt lat="44.08207" lon="4.76105">
        <ele>78.624911</ele>
        <time>2025-02-03T13:52:04.019Z</time>
      </trkpt>
      <trkpt lat="44.08198" lon="4.76105">
        <ele>78.554246</ele>
        <time>2025-02-03T13:52:06.016Z</time>
      </trkpt>
      <trkpt lat="44.08185" lon="4.76106">
        <ele>78.454238</ele>
        <time>2025-02-03T13:52:09.001Z</time>
      </trkpt>
      <trkpt lat="44.08175" lon="4.76106">
        <ele>78.385828</ele>
        <time>2025-02-03T13:52:11.023Z</time>
      </trkpt>
      <trkpt lat="44.08162" lon="4.76107">
        <ele>78.28786</ele>
        <time>2025-02-03T13:52:14.003Z</time>
      </trkpt>
      <trkpt lat="44.08149" lon="4.76107">
        <ele>78.19007</ele>
        <time>2025-02-03T13:52:17.002Z</time>
      </trkpt>
      <trkpt lat="44.0814" lon="4.76107">
        <ele>78.12165</ele>
        <time>2025-02-03T13:52:19.009Z</time>
      </trkpt>
      <trkpt lat="44.08131" lon="4.7611">
        <ele>78.052447</ele>
        <time>2025-02-03T13:52:21.191Z</time>
      </trkpt>
      <trkpt lat="44.08122" lon="4.76112">
        <ele>77.981988</ele>
        <time>2025-02-03T13:52:22.988Z</time>
      </trkpt>
      <trkpt lat="44.08113" lon="4.76115">
        <ele>77.909844</ele>
        <time>2025-02-03T13:52:24.989Z</time>
      </trkpt>
      <trkpt lat="44.081" lon="4.76117">
        <ele>77.810149</ele>
        <time>2025-02-03T13:52:28.008Z</time>
      </trkpt>
      <trkpt lat="44.08091" lon="4.76119">
        <ele>77.742108</ele>
        <time>2025-02-03T13:52:30.029Z</time>
      </trkpt>
      <trkpt lat="44.08082" lon="4.76121">
        <ele>77.673019</ele>
        <time>2025-02-03T13:52:32.002Z</time>
      </trkpt>
      <trkpt lat="44.08072" lon="4.76124">
        <ele>77.602599</ele>
        <time>2025-02-03T13:52:34.023Z</time>
      </trkpt>
      <trkpt lat="44.08063" lon="4.76127">
        <ele>77.530228</ele>
        <time>2025-02-03T13:52:35.998Z</time>
      </trkpt>
      <trkpt lat="44.08054" lon="4.7613">
        <ele>77.457739</ele>
        <time>2025-02-03T13:52:38.004Z</time>
      </trkpt>
      <trkpt lat="44.08044" lon="4.76134">
        <ele>77.384573</ele>
        <time>2025-02-03T13:52:40.018Z</time>
      </trkpt>
      <trkpt lat="44.08035" lon="4.76137">
        <ele>77.316793</ele>
        <time>2025-02-03T13:52:42.002Z</time>
      </trkpt>
      <trkpt lat="44.08026" lon="4.76139">
        <ele>77.345896</ele>
        <time>2025-02-03T13:52:44.022Z</time>
      </trkpt>
      <trkpt lat="44.08017" lon="4.76144">
        <ele>77.375383</ele>
        <time>2025-02-03T13:52:46.000Z</time>
      </trkpt>
      <trkpt lat="44.08009" lon="4.76148">
        <ele>77.404455</ele>
        <time>2025-02-03T13:52:48.009Z</time>
      </trkpt>
      <trkpt lat="44.08" lon="4.76153">
        <ele>77.434265</ele>
        <time>2025-02-03T13:52:49.996Z</time>
      </trkpt>
      <trkpt lat="44.0799" lon="4.76155">
        <ele>77.464073</ele>
        <time>2025-02-03T13:52:52.003Z</time>
      </trkpt>
      <trkpt lat="44.07981" lon="4.7616">
        <ele>77.495306</ele>
        <time>2025-02-03T13:52:54.031Z</time>
      </trkpt>
      <trkpt lat="44.07973" lon="4.76169">
        <ele>77.526806</ele>
        <time>2025-02-03T13:52:56.005Z</time>
      </trkpt>
      <trkpt lat="44.07964" lon="4.76177">
        <ele>77.558818</ele>
        <time>2025-02-03T13:52:57.974Z</time>
      </trkpt>
      <trkpt lat="44.07957" lon="4.76184">
        <ele>77.58852</ele>
        <time>2025-02-03T13:52:59.977Z</time>
      </trkpt>
      <trkpt lat="44.07948" lon="4.76191">
        <ele>77.618692</ele>
        <time>2025-02-03T13:53:02.011Z</time>
      </trkpt>
      <trkpt lat="44.0794" lon="4.76197">
        <ele>77.647991</ele>
        <time>2025-02-03T13:53:04.009Z</time>
      </trkpt>
      <trkpt lat="44.07932" lon="4.76204">
        <ele>77.677714</ele>
        <time>2025-02-03T13:53:06.006Z</time>
      </trkpt>
      <trkpt lat="44.07923" lon="4.76211">
        <ele>77.709137</ele>
        <time>2025-02-03T13:53:08.015Z</time>
      </trkpt>
      <trkpt lat="44.07915" lon="4.76219">
        <ele>77.741171</ele>
        <time>2025-02-03T13:53:10.008Z</time>
      </trkpt>
      <trkpt lat="44.07906" lon="4.76227">
        <ele>77.773971</ele>
        <time>2025-02-03T13:53:12.010Z</time>
      </trkpt>
      <trkpt lat="44.07897" lon="4.76235">
        <ele>77.807425</ele>
        <time>2025-02-03T13:53:14.016Z</time>
      </trkpt>
      <trkpt lat="44.07888" lon="4.76244">
        <ele>77.841366</ele>
        <time>2025-02-03T13:53:16.000Z</time>
      </trkpt>
      <trkpt lat="44.0788" lon="4.76252">
        <ele>77.873508</ele>
        <time>2025-02-03T13:53:18.000Z</time>
      </trkpt>
      <trkpt lat="44.07871" lon="4.76261">
        <ele>77.793541</ele>
        <time>2025-02-03T13:53:20.005Z</time>
      </trkpt>
      <trkpt lat="44.07863" lon="4.76269">
        <ele>77.689017</ele>
        <time>2025-02-03T13:53:21.999Z</time>
      </trkpt>
      <trkpt lat="44.07854" lon="4.76277">
        <ele>77.5868</ele>
        <time>2025-02-03T13:53:24.023Z</time>
      </trkpt>
      <trkpt lat="44.07846" lon="4.76285">
        <ele>77.484787</ele>
        <time>2025-02-03T13:53:26.000Z</time>
      </trkpt>
      <trkpt lat="44.07838" lon="4.76292">
        <ele>77.38885</ele>
        <time>2025-02-03T13:53:27.997Z</time>
      </trkpt>
      <trkpt lat="44.07829" lon="4.763">
        <ele>77.285183</ele>
        <time>2025-02-03T13:53:30.011Z</time>
      </trkpt>
      <trkpt lat="44.0782" lon="4.76309">
        <ele>77.181933</ele>
        <time>2025-02-03T13:53:31.999Z</time>
      </trkpt>
      <trkpt lat="44.07812" lon="4.76317">
        <ele>77.075389</ele>
        <time>2025-02-03T13:53:34.269Z</time>
      </trkpt>
      <trkpt lat="44.07803" lon="4.76326">
        <ele>76.968885</ele>
        <time>2025-02-03T13:53:35.986Z</time>
      </trkpt>
      <trkpt lat="44.07794" lon="4.76334">
        <ele>76.859715</ele>
        <time>2025-02-03T13:53:38.007Z</time>
      </trkpt>
      <trkpt lat="44.07785" lon="4.76342">
        <ele>76.75316</ele>
        <time>2025-02-03T13:53:40.004Z</time>
      </trkpt>
      <trkpt lat="44.07776" lon="4.76351">
        <ele>76.644623</ele>
        <time>2025-02-03T13:53:42.024Z</time>
      </trkpt>
      <trkpt lat="44.07767" lon="4.7636">
        <ele>76.538118</ele>
        <time>2025-02-03T13:53:44.006Z</time>
      </trkpt>
      <trkpt lat="44.07758" lon="4.76368">
        <ele>76.431609</ele>
        <time>2025-02-03T13:53:46.007Z</time>
      </trkpt>
      <trkpt lat="44.07749" lon="4.76377">
        <ele>76.320592</ele>
        <time>2025-02-03T13:53:47.994Z</time>
      </trkpt>
      <trkpt lat="44.0774" lon="4.76386">
        <ele>76.208382</ele>
        <time>2025-02-03T13:53:49.991Z</time>
      </trkpt>
      <trkpt lat="44.07732" lon="4.76395">
        <ele>76.101332</ele>
        <time>2025-02-03T13:53:51.991Z</time>
      </trkpt>
      <trkpt lat="44.07723" lon="4.76404">
        <ele>76.019271</ele>
        <time>2025-02-03T13:53:54.013Z</time>
      </trkpt>
      <trkpt lat="44.07715" lon="4.76414">
        <ele>75.938328</ele>
        <time>2025-02-03T13:53:56.001Z</time>
      </trkpt>
      <trkpt lat="44.07707" lon="4.76423">
        <ele>75.859231</ele>
        <time>2025-02-03T13:53:58.028Z</time>
      </trkpt>
      <trkpt lat="44.07698" lon="4.76432">
        <ele>75.77907</ele>
        <time>2025-02-03T13:54:00.003Z</time>
      </trkpt>
      <trkpt lat="44.0769" lon="4.76442">
        <ele>75.696409</ele>
        <time>2025-02-03T13:54:02.007Z</time>
      </trkpt>
      <trkpt lat="44.07681" lon="4.76452">
        <ele>75.610896</ele>
        <time>2025-02-03T13:54:03.994Z</time>
      </trkpt>
      <trkpt lat="44.07673" lon="4.76463">
        <ele>75.527031</ele>
        <time>2025-02-03T13:54:06.002Z</time>
      </trkpt>
      <trkpt lat="44.07664" lon="4.76474">
        <ele>75.440762</ele>
        <time>2025-02-03T13:54:07.988Z</time>
      </trkpt>
      <trkpt lat="44.07657" lon="4.76485">
        <ele>75.35646</ele>
        <time>2025-02-03T13:54:10.005Z</time>
      </trkpt>
      <trkpt lat="44.07649" lon="4.76496">
        <ele>75.272154</ele>
        <time>2025-02-03T13:54:12.002Z</time>
      </trkpt>
      <trkpt lat="44.07641" lon="4.76507">
        <ele>75.189563</ele>
        <time>2025-02-03T13:54:14.007Z</time>
      </trkpt>
      <trkpt lat="44.07633" lon="4.76518">
        <ele>75.105644</ele>
        <time>2025-02-03T13:54:15.985Z</time>
      </trkpt>
      <trkpt lat="44.07624" lon="4.76528">
        <ele>75.019765</ele>
        <time>2025-02-03T13:54:17.980Z</time>
      </trkpt>
      <trkpt lat="44.07617" lon="4.7654">
        <ele>74.934948</ele>
        <time>2025-02-03T13:54:19.996Z</time>
      </trkpt>
      <trkpt lat="44.07609" lon="4.76551">
        <ele>74.851148</ele>
        <time>2025-02-03T13:54:22.009Z</time>
      </trkpt>
      <trkpt lat="44.07601" lon="4.76563">
        <ele>74.766208</ele>
        <time>2025-02-03T13:54:24.002Z</time>
      </trkpt>
      <trkpt lat="44.07594" lon="4.76574">
        <ele>74.809872</ele>
        <time>2025-02-03T13:54:26.009Z</time>
      </trkpt>
      <trkpt lat="44.07586" lon="4.76586">
        <ele>74.908345</ele>
        <time>2025-02-03T13:54:28.005Z</time>
      </trkpt>
      <trkpt lat="44.07579" lon="4.76597">
        <ele>75.005627</ele>
        <time>2025-02-03T13:54:30.013Z</time>
      </trkpt>
      <trkpt lat="44.07572" lon="4.76608">
        <ele>75.100204</ele>
        <time>2025-02-03T13:54:32.001Z</time>
      </trkpt>
      <trkpt lat="44.07564" lon="4.7662">
        <ele>75.197269</ele>
        <time>2025-02-03T13:54:34.005Z</time>
      </trkpt>
      <trkpt lat="44.07558" lon="4.76632">
        <ele>75.29038</ele>
        <time>2025-02-03T13:54:35.976Z</time>
      </trkpt>
      <trkpt lat="44.07552" lon="4.76643">
        <ele>75.382945</ele>
        <time>2025-02-03T13:54:37.993Z</time>
      </trkpt>
      <trkpt lat="44.07546" lon="4.76655">
        <ele>75.472425</ele>
        <time>2025-02-03T13:54:40.012Z</time>
      </trkpt>
      <trkpt lat="44.07539" lon="4.76666">
        <ele>75.566118</ele>
        <time>2025-02-03T13:54:42.014Z</time>
      </trkpt>
      <trkpt lat="44.07532" lon="4.76679">
        <ele>75.665397</ele>
        <time>2025-02-03T13:54:44.022Z</time>
      </trkpt>
      <trkpt lat="44.07526" lon="4.76692">
        <ele>75.765687</ele>
        <time>2025-02-03T13:54:46.005Z</time>
      </trkpt>
      <trkpt lat="44.07519" lon="4.76704">
        <ele>75.861852</ele>
        <time>2025-02-03T13:54:47.982Z</time>
      </trkpt>
      <trkpt lat="44.07513" lon="4.76717">
        <ele>75.959573</ele>
        <time>2025-02-03T13:54:50.004Z</time>
      </trkpt>
      <trkpt lat="44.07507" lon="4.76729">
        <ele>76.050178</ele>
        <time>2025-02-03T13:54:51.996Z</time>
      </trkpt>
      <trkpt lat="44.07502" lon="4.76741">
        <ele>76.144458</ele>
        <time>2025-02-03T13:54:54.013Z</time>
      </trkpt>
      <trkpt lat="44.07497" lon="4.76753">
        <ele>76.229769</ele>
        <time>2025-02-03T13:54:56.004Z</time>
      </trkpt>
      <trkpt lat="44.07493" lon="4.76766">
        <ele>76.316879</ele>
        <time>2025-02-03T13:54:57.994Z</time>
      </trkpt>
      <trkpt lat="44.0749" lon="4.76779">
        <ele>76.309844</ele>
        <time>2025-02-03T13:55:00.008Z</time>
      </trkpt>
      <trkpt lat="44.07487" lon="4.76791">
        <ele>76.292692</ele>
        <time>2025-02-03T13:55:01.999Z</time>
      </trkpt>
      <trkpt lat="44.07487" lon="4.76805">
        <ele>76.275307</ele>
        <time>2025-02-03T13:55:04.002Z</time>
      </trkpt>
      <trkpt lat="44.07488" lon="4.76819">
        <ele>76.257641</ele>
        <time>2025-02-03T13:55:05.996Z</time>
      </trkpt>
      <trkpt lat="44.07489" lon="4.76832">
        <ele>76.240044</ele>
        <time>2025-02-03T13:55:08.001Z</time>
      </trkpt>
      <trkpt lat="44.07491" lon="4.76845">
        <ele>76.222969</ele>
        <time>2025-02-03T13:55:09.998Z</time>
      </trkpt>
      <trkpt lat="44.07494" lon="4.76858">
        <ele>76.204916</ele>
        <time>2025-02-03T13:55:11.994Z</time>
      </trkpt>
      <trkpt lat="44.075" lon="4.76871">
        <ele>76.186363</ele>
        <time>2025-02-03T13:55:13.998Z</time>
      </trkpt>
      <trkpt lat="44.07506" lon="4.76881">
        <ele>76.168228</ele>
        <time>2025-02-03T13:55:15.997Z</time>
      </trkpt>
      <trkpt lat="44.07514" lon="4.7689">
        <ele>76.150284</ele>
        <time>2025-02-03T13:55:17.997Z</time>
      </trkpt>
      <trkpt lat="44.07523" lon="4.76898">
        <ele>76.131163</ele>
        <time>2025-02-03T13:55:19.984Z</time>
      </trkpt>
      <trkpt lat="44.07532" lon="4.76905">
        <ele>76.113443</ele>
        <time>2025-02-03T13:55:21.987Z</time>
      </trkpt>
      <trkpt lat="44.0754" lon="4.7691">
        <ele>76.096483</ele>
        <time>2025-02-03T13:55:24.010Z</time>
      </trkpt>
      <trkpt lat="44.07553" lon="4.76916">
        <ele>76.072876</ele>
        <time>2025-02-03T13:55:27.001Z</time>
      </trkpt>
      <trkpt lat="44.07565" lon="4.76921">
        <ele>76.049679</ele>
        <time>2025-02-03T13:55:30.001Z</time>
      </trkpt>
      <trkpt lat="44.07578" lon="4.76925">
        <ele>76.026027</ele>
        <time>2025-02-03T13:55:33.018Z</time>
      </trkpt>
      <trkpt lat="44.07587" lon="4.7693">
        <ele>76.008637</ele>
        <time>2025-02-03T13:55:35.020Z</time>
      </trkpt>
      <trkpt lat="44.07597" lon="4.76936">
        <ele>75.977819</ele>
        <time>2025-02-03T13:55:37.003Z</time>
      </trkpt>
      <trkpt lat="44.07606" lon="4.76942">
        <ele>75.94379</ele>
        <time>2025-02-03T13:55:39.006Z</time>
      </trkpt>
      <trkpt lat="44.07615" lon="4.76947">
        <ele>75.911689</ele>
        <time>2025-02-03T13:55:41.017Z</time>
      </trkpt>
      <trkpt lat="44.07624" lon="4.76952">
        <ele>75.87879</ele>
        <time>2025-02-03T13:55:42.980Z</time>
      </trkpt>
      <trkpt lat="44.07634" lon="4.76957">
        <ele>75.845275</ele>
        <time>2025-02-03T13:55:45.018Z</time>
      </trkpt>
      <trkpt lat="44.07643" lon="4.76962">
        <ele>75.813141</ele>
        <time>2025-02-03T13:55:47.001Z</time>
      </trkpt>
      <trkpt lat="44.07652" lon="4.76967">
        <ele>75.780331</ele>
        <time>2025-02-03T13:55:48.972Z</time>
      </trkpt>
      <trkpt lat="44.07661" lon="4.76972">
        <ele>75.749913</ele>
        <time>2025-02-03T13:55:51.017Z</time>
      </trkpt>
      <trkpt lat="44.07673" lon="4.76978">
        <ele>75.705746</ele>
        <time>2025-02-03T13:55:54.007Z</time>
      </trkpt>
      <trkpt lat="44.07681" lon="4.76983">
        <ele>75.675063</ele>
        <time>2025-02-03T13:55:56.003Z</time>
      </trkpt>
      <trkpt lat="44.07692" lon="4.76992">
        <ele>75.633277</ele>
        <time>2025-02-03T13:55:58.996Z</time>
      </trkpt>
      <trkpt lat="44.07697" lon="4.77008">
        <ele>75.592803</ele>
        <time>2025-02-03T13:56:01.991Z</time>
      </trkpt>
      <trkpt lat="44.07693" lon="4.77024">
        <ele>75.553453</ele>
        <time>2025-02-03T13:56:04.996Z</time>
      </trkpt>
      <trkpt lat="44.07687" lon="4.7704">
        <ele>75.509396</ele>
        <time>2025-02-03T13:56:08.015Z</time>
      </trkpt>
      <trkpt lat="44.07682" lon="4.77057">
        <ele>75.466</ele>
        <time>2025-02-03T13:56:10.994Z</time>
      </trkpt>
      <trkpt lat="44.0768" lon="4.7707">
        <ele>75.435395</ele>
        <time>2025-02-03T13:56:13.001Z</time>
      </trkpt>
      <trkpt lat="44.07677" lon="4.77082">
        <ele>75.41178</ele>
        <time>2025-02-03T13:56:15.022Z</time>
      </trkpt>
      <trkpt lat="44.07673" lon="4.77098">
        <ele>75.511735</ele>
        <time>2025-02-03T13:56:17.985Z</time>
      </trkpt>
      <trkpt lat="44.07666" lon="4.77112">
        <ele>75.611083</ele>
        <time>2025-02-03T13:56:20.981Z</time>
      </trkpt>
      <trkpt lat="44.07661" lon="4.77125">
        <ele>75.702801</ele>
        <time>2025-02-03T13:56:24.024Z</time>
      </trkpt>
      <trkpt lat="44.07654" lon="4.77137">
        <ele>75.786338</ele>
        <time>2025-02-03T13:56:27.013Z</time>
      </trkpt>
      <trkpt lat="44.07648" lon="4.77148">
        <ele>75.871778</ele>
        <time>2025-02-03T13:56:30.007Z</time>
      </trkpt>
      <trkpt lat="44.07641" lon="4.77159">
        <ele>75.954856</ele>
        <time>2025-02-03T13:56:33.001Z</time>
      </trkpt>
      <trkpt lat="44.07634" lon="4.77167">
        <ele>76.030701</ele>
        <time>2025-02-03T13:56:35.999Z</time>
      </trkpt>
      <trkpt lat="44.07625" lon="4.7717">
        <ele>76.105662</ele>
        <time>2025-02-03T13:56:39.994Z</time>
      </trkpt>
      <trkpt lat="44.07616" lon="4.77172">
        <ele>76.1819</ele>
        <time>2025-02-03T13:56:43.010Z</time>
      </trkpt>
      <trkpt lat="44.0761" lon="4.77183">
        <ele>76.262468</ele>
        <time>2025-02-03T13:56:45.993Z</time>
      </trkpt>
      <trkpt lat="44.076" lon="4.77186">
        <ele>76.342066</ele>
        <time>2025-02-03T13:56:49.006Z</time>
      </trkpt>
      <trkpt lat="44.07596" lon="4.77174">
        <ele>76.423039</ele>
        <time>2025-02-03T13:56:51.988Z</time>
      </trkpt>
      <trkpt lat="44.07588" lon="4.77161">
        <ele>76.520109</ele>
        <time>2025-02-03T13:56:56.013Z</time>
      </trkpt>
      <trkpt lat="44.0758" lon="4.7715">
        <ele>76.617449</ele>
        <time>2025-02-03T13:57:00.000Z</time>
      </trkpt>
      <trkpt lat="44.07571" lon="4.77139">
        <ele>76.714423</ele>
        <time>2025-02-03T13:57:03.003Z</time>
      </trkpt>
      <trkpt lat="44.07561" lon="4.77127">
        <ele>76.819656</ele>
        <time>2025-02-03T13:57:05.997Z</time>
      </trkpt>
      <trkpt lat="44.07551" lon="4.77118">
        <ele>76.914807</ele>
        <time>2025-02-03T13:57:09.010Z</time>
      </trkpt>
      <trkpt lat="44.0754" lon="4.77108">
        <ele>77.0082</ele>
        <time>2025-02-03T13:57:11.993Z</time>
      </trkpt>
      <trkpt lat="44.07528" lon="4.771">
        <ele>77.100925</ele>
        <time>2025-02-03T13:57:15.002Z</time>
      </trkpt>
      <trkpt lat="44.0752" lon="4.77094">
        <ele>77.165192</ele>
        <time>2025-02-03T13:57:17.006Z</time>
      </trkpt>
      <trkpt lat="44.07509" lon="4.77086">
        <ele>77.257521</ele>
        <time>2025-02-03T13:57:20.022Z</time>
      </trkpt>
      <trkpt lat="44.07501" lon="4.77081">
        <ele>77.321788</ele>
        <time>2025-02-03T13:57:22.006Z</time>
      </trkpt>
      <trkpt lat="44.07489" lon="4.77073">
        <ele>77.416279</ele>
        <time>2025-02-03T13:57:25.007Z</time>
      </trkpt>
      <trkpt lat="44.0748" lon="4.77068">
        <ele>77.480643</ele>
        <time>2025-02-03T13:57:27.006Z</time>
      </trkpt>
      <trkpt lat="44.07467" lon="4.77064">
        <ele>77.577132</ele>
        <time>2025-02-03T13:57:29.986Z</time>
      </trkpt>
      <trkpt lat="44.07454" lon="4.7706">
        <ele>77.670617</ele>
        <time>2025-02-03T13:57:33.006Z</time>
      </trkpt>
      <trkpt lat="44.07442" lon="4.77053">
        <ele>77.764981</ele>
        <time>2025-02-03T13:57:35.992Z</time>
      </trkpt>
      <trkpt lat="44.0743" lon="4.77047">
        <ele>77.857364</ele>
        <time>2025-02-03T13:57:38.992Z</time>
      </trkpt>
      <trkpt lat="44.07419" lon="4.77041">
        <ele>77.942229</ele>
        <time>2025-02-03T13:57:42.013Z</time>
      </trkpt>
      <trkpt lat="44.07408" lon="4.77036">
        <ele>78.023147</ele>
        <time>2025-02-03T13:57:45.016Z</time>
      </trkpt>
      <trkpt lat="44.07399" lon="4.77031">
        <ele>78.095292</ele>
        <time>2025-02-03T13:57:48.006Z</time>
      </trkpt>
      <trkpt lat="44.0739" lon="4.77026">
        <ele>78.164692</ele>
        <time>2025-02-03T13:57:52.027Z</time>
      </trkpt>
      <trkpt lat="44.07381" lon="4.77018">
        <ele>78.1689</ele>
        <time>2025-02-03T13:57:56.003Z</time>
      </trkpt>
      <trkpt lat="44.07372" lon="4.77009">
        <ele>78.173151</ele>
        <time>2025-02-03T13:57:59.999Z</time>
      </trkpt>
      <trkpt lat="44.07364" lon="4.77004">
        <ele>78.17702</ele>
        <time>2025-02-03T13:58:03.989Z</time>
      </trkpt>
      <trkpt lat="44.07354" lon="4.76997">
        <ele>78.181322</ele>
        <time>2025-02-03T13:58:07.985Z</time>
      </trkpt>
      <trkpt lat="44.07343" lon="4.76996">
        <ele>78.185835</ele>
        <time>2025-02-03T13:58:12.004Z</time>
      </trkpt>
      <trkpt lat="44.07336" lon="4.77008">
        <ele>78.190627</ele>
        <time>2025-02-03T13:58:15.985Z</time>
      </trkpt>
      <trkpt lat="44.07333" lon="4.77021">
        <ele>78.194472</ele>
        <time>2025-02-03T13:58:19.004Z</time>
      </trkpt>
      <trkpt lat="44.0733" lon="4.77035">
        <ele>78.198869</ele>
        <time>2025-02-03T13:58:23.016Z</time>
      </trkpt>
      <trkpt lat="44.07327" lon="4.77048">
        <ele>78.202839</ele>
        <time>2025-02-03T13:58:26.995Z</time>
      </trkpt>
      <trkpt lat="44.07324" lon="4.77062">
        <ele>78.20717</ele>
        <time>2025-02-03T13:58:30.999Z</time>
      </trkpt>
      <trkpt lat="44.0732" lon="4.77077">
        <ele>78.211843</ele>
        <time>2025-02-03T13:58:35.010Z</time>
      </trkpt>
      <trkpt lat="44.07317" lon="4.77089">
        <ele>78.215575</ele>
        <time>2025-02-03T13:58:38.003Z</time>
      </trkpt>
      <trkpt lat="44.07314" lon="4.77104">
        <ele>78.220235</ele>
        <time>2025-02-03T13:58:42.001Z</time>
      </trkpt>
      <trkpt lat="44.0731" lon="4.7712">
        <ele>78.225114</ele>
        <time>2025-02-03T13:58:45.992Z</time>
      </trkpt>
      <trkpt lat="44.07307" lon="4.77133">
        <ele>78.228987</ele>
        <time>2025-02-03T13:58:49.010Z</time>
      </trkpt>
      <trkpt lat="44.07304" lon="4.77145">
        <ele>78.232843</ele>
        <time>2025-02-03T13:58:52.003Z</time>
      </trkpt>
      <trkpt lat="44.07297" lon="4.77155">
        <ele>78.237001</ele>
        <time>2025-02-03T13:58:54.983Z</time>
      </trkpt>
      <trkpt lat="44.07288" lon="4.77163">
        <ele>78.13595</ele>
        <time>2025-02-03T13:58:58.008Z</time>
      </trkpt>
      <trkpt lat="44.07276" lon="4.77174">
        <ele>77.95414</ele>
        <time>2025-02-03T13:59:01.033Z</time>
      </trkpt>
      <trkpt lat="44.0727" lon="4.77187">
        <ele>77.809512</ele>
        <time>2025-02-03T13:59:02.999Z</time>
      </trkpt>
      <trkpt lat="44.07265" lon="4.77203">
        <ele>77.64382</ele>
        <time>2025-02-03T13:59:04.996Z</time>
      </trkpt>
      <trkpt lat="44.07261" lon="4.7722">
        <ele>77.478856</ele>
        <time>2025-02-03T13:59:06.992Z</time>
      </trkpt>
      <trkpt lat="44.07258" lon="4.77238">
        <ele>77.305604</ele>
        <time>2025-02-03T13:59:08.999Z</time>
      </trkpt>
      <trkpt lat="44.07254" lon="4.77255">
        <ele>77.139266</ele>
        <time>2025-02-03T13:59:11.008Z</time>
      </trkpt>
      <trkpt lat="44.0725" lon="4.77272">
        <ele>76.978014</ele>
        <time>2025-02-03T13:59:13.014Z</time>
      </trkpt>
      <trkpt lat="44.07247" lon="4.7729">
        <ele>76.809126</ele>
        <time>2025-02-03T13:59:15.010Z</time>
      </trkpt>
      <trkpt lat="44.07243" lon="4.77308">
        <ele>76.636773</ele>
        <time>2025-02-03T13:59:17.012Z</time>
      </trkpt>
      <trkpt lat="44.07241" lon="4.77325">
        <ele>76.471246</ele>
        <time>2025-02-03T13:59:18.992Z</time>
      </trkpt>
      <trkpt lat="44.07239" lon="4.77341">
        <ele>76.317782</ele>
        <time>2025-02-03T13:59:21.000Z</time>
      </trkpt>
      <trkpt lat="44.07237" lon="4.77356">
        <ele>76.177273</ele>
        <time>2025-02-03T13:59:23.002Z</time>
      </trkpt>
      <trkpt lat="44.07239" lon="4.77373">
        <ele>76.019834</ele>
        <time>2025-02-03T13:59:25.990Z</time>
      </trkpt>
      <trkpt lat="44.0724" lon="4.77387">
        <ele>75.923683</ele>
        <time>2025-02-03T13:59:28.994Z</time>
      </trkpt>
      <trkpt lat="44.07241" lon="4.774">
        <ele>75.965448</ele>
        <time>2025-02-03T13:59:32.025Z</time>
      </trkpt>
      <trkpt lat="44.0724" lon="4.77416">
        <ele>76.018788</ele>
        <time>2025-02-03T13:59:36.010Z</time>
      </trkpt>
      <trkpt lat="44.07238" lon="4.77431">
        <ele>76.065457</ele>
        <time>2025-02-03T13:59:39.000Z</time>
      </trkpt>
      <trkpt lat="44.07234" lon="4.77445">
        <ele>76.116154</ele>
        <time>2025-02-03T13:59:41.979Z</time>
      </trkpt>
      <trkpt lat="44.07231" lon="4.77461">
        <ele>76.166463</ele>
        <time>2025-02-03T13:59:45.010Z</time>
      </trkpt>
      <trkpt lat="44.07228" lon="4.77476">
        <ele>76.218532</ele>
        <time>2025-02-03T13:59:47.998Z</time>
      </trkpt>
      <trkpt lat="44.07226" lon="4.77493">
        <ele>76.271706</ele>
        <time>2025-02-03T13:59:51.000Z</time>
      </trkpt>
      <trkpt lat="44.07222" lon="4.7751">
        <ele>76.328042</ele>
        <time>2025-02-03T13:59:54.006Z</time>
      </trkpt>
      <trkpt lat="44.07219" lon="4.77526">
        <ele>76.381482</ele>
        <time>2025-02-03T13:59:57.019Z</time>
      </trkpt>
      <trkpt lat="44.07216" lon="4.77543">
        <ele>76.439067</ele>
        <time>2025-02-03T14:00:00.001Z</time>
      </trkpt>
      <trkpt lat="44.07213" lon="4.77561">
        <ele>76.497165</ele>
        <time>2025-02-03T14:00:02.995Z</time>
      </trkpt>
      <trkpt lat="44.0721" lon="4.77577">
        <ele>76.552631</ele>
        <time>2025-02-03T14:00:06.013Z</time>
      </trkpt>
      <trkpt lat="44.07207" lon="4.77595">
        <ele>76.609925</ele>
        <time>2025-02-03T14:00:09.012Z</time>
      </trkpt>
      <trkpt lat="44.07203" lon="4.77612">
        <ele>76.666699</ele>
        <time>2025-02-03T14:00:12.008Z</time>
      </trkpt>
      <trkpt lat="44.07201" lon="4.77629">
        <ele>76.720553</ele>
        <time>2025-02-03T14:00:14.997Z</time>
      </trkpt>
      <trkpt lat="44.07198" lon="4.77645">
        <ele>76.755252</ele>
        <time>2025-02-03T14:00:17.983Z</time>
      </trkpt>
      <trkpt lat="44.07194" lon="4.77662">
        <ele>76.790218</ele>
        <time>2025-02-03T14:00:20.984Z</time>
      </trkpt>
      <trkpt lat="44.07191" lon="4.7768">
        <ele>76.825858</ele>
        <time>2025-02-03T14:00:24.004Z</time>
      </trkpt>
      <trkpt lat="44.07188" lon="4.77697">
        <ele>76.86124</ele>
        <time>2025-02-03T14:00:26.983Z</time>
      </trkpt>
      <trkpt lat="44.07185" lon="4.77715">
        <ele>76.897266</ele>
        <time>2025-02-03T14:00:30.011Z</time>
      </trkpt>
      <trkpt lat="44.07181" lon="4.77732">
        <ele>76.93338</ele>
        <time>2025-02-03T14:00:32.998Z</time>
      </trkpt>
      <trkpt lat="44.07178" lon="4.7775">
        <ele>76.969088</ele>
        <time>2025-02-03T14:00:35.976Z</time>
      </trkpt>
      <trkpt lat="44.07175" lon="4.77767">
        <ele>77.00415</ele>
        <time>2025-02-03T14:00:39.011Z</time>
      </trkpt>
      <trkpt lat="44.07172" lon="4.77784">
        <ele>77.038758</ele>
        <time>2025-02-03T14:00:41.996Z</time>
      </trkpt>
      <trkpt lat="44.0717" lon="4.778">
        <ele>77.071884</ele>
        <time>2025-02-03T14:00:45.001Z</time>
      </trkpt>
      <trkpt lat="44.07166" lon="4.77816">
        <ele>77.105552</ele>
        <time>2025-02-03T14:00:47.991Z</time>
      </trkpt>
      <trkpt lat="44.07163" lon="4.77833">
        <ele>77.139843</ele>
        <time>2025-02-03T14:00:51.007Z</time>
      </trkpt>
      <trkpt lat="44.0716" lon="4.7785">
        <ele>77.174973</ele>
        <time>2025-02-03T14:00:54.001Z</time>
      </trkpt>
      <trkpt lat="44.07158" lon="4.77866">
        <ele>77.208388</ele>
        <time>2025-02-03T14:00:57.013Z</time>
      </trkpt>
      <trkpt lat="44.07156" lon="4.77883">
        <ele>77.237596</ele>
        <time>2025-02-03T14:00:59.977Z</time>
      </trkpt>
      <trkpt lat="44.07153" lon="4.77899">
        <ele>77.265855</ele>
        <time>2025-02-03T14:01:02.996Z</time>
      </trkpt>
      <trkpt lat="44.0715" lon="4.77915">
        <ele>77.294773</ele>
        <time>2025-02-03T14:01:06.001Z</time>
      </trkpt>
      <trkpt lat="44.07147" lon="4.77931">
        <ele>77.321822</ele>
        <time>2025-02-03T14:01:09.004Z</time>
      </trkpt>
      <trkpt lat="44.07144" lon="4.77946">
        <ele>77.349424</ele>
        <time>2025-02-03T14:01:11.998Z</time>
      </trkpt>
      <trkpt lat="44.07141" lon="4.77963">
        <ele>77.379056</ele>
        <time>2025-02-03T14:01:14.994Z</time>
      </trkpt>
      <trkpt lat="44.07138" lon="4.7798">
        <ele>77.407862</ele>
        <time>2025-02-03T14:01:17.999Z</time>
      </trkpt>
      <trkpt lat="44.07135" lon="4.77997">
        <ele>77.438071</ele>
        <time>2025-02-03T14:01:21.014Z</time>
      </trkpt>
      <trkpt lat="44.07131" lon="4.78015">
        <ele>77.469528</ele>
        <time>2025-02-03T14:01:23.998Z</time>
      </trkpt>
      <trkpt lat="44.07128" lon="4.78032">
        <ele>77.499766</ele>
        <time>2025-02-03T14:01:27.003Z</time>
      </trkpt>
      <trkpt lat="44.07125" lon="4.7805">
        <ele>77.530393</ele>
        <time>2025-02-03T14:01:30.009Z</time>
      </trkpt>
      <trkpt lat="44.07122" lon="4.78068">
        <ele>77.562404</ele>
        <time>2025-02-03T14:01:32.994Z</time>
      </trkpt>
      <trkpt lat="44.0712" lon="4.7808">
        <ele>77.58394</ele>
        <time>2025-02-03T14:01:35.002Z</time>
      </trkpt>
      <trkpt lat="44.07116" lon="4.78098">
        <ele>77.615115</ele>
        <time>2025-02-03T14:01:38.002Z</time>
      </trkpt>
      <trkpt lat="44.07114" lon="4.78111">
        <ele>77.636816</ele>
        <time>2025-02-03T14:01:40.004Z</time>
      </trkpt>
      <trkpt lat="44.07111" lon="4.78128">
        <ele>77.661078</ele>
        <time>2025-02-03T14:01:43.001Z</time>
      </trkpt>
      <trkpt lat="44.07107" lon="4.78145">
        <ele>77.683427</ele>
        <time>2025-02-03T14:01:46.015Z</time>
      </trkpt>
      <trkpt lat="44.07104" lon="4.78162">
        <ele>77.706331</ele>
        <time>2025-02-03T14:01:49.002Z</time>
      </trkpt>
      <trkpt lat="44.071" lon="4.7818">
        <ele>77.729989</ele>
        <time>2025-02-03T14:01:52.000Z</time>
      </trkpt>
      <trkpt lat="44.07098" lon="4.78192">
        <ele>77.746014</ele>
        <time>2025-02-03T14:01:54.018Z</time>
      </trkpt>
      <trkpt lat="44.07095" lon="4.78204">
        <ele>77.762072</ele>
        <time>2025-02-03T14:01:55.998Z</time>
      </trkpt>
      <trkpt lat="44.07091" lon="4.78222">
        <ele>77.785081</ele>
        <time>2025-02-03T14:01:58.999Z</time>
      </trkpt>
      <trkpt lat="44.07086" lon="4.78238">
        <ele>77.807502</ele>
        <time>2025-02-03T14:02:01.993Z</time>
      </trkpt>
      <trkpt lat="44.07081" lon="4.78255">
        <ele>77.831304</ele>
        <time>2025-02-03T14:02:05.031Z</time>
      </trkpt>
      <trkpt lat="44.07077" lon="4.78266">
        <ele>77.847644</ele>
        <time>2025-02-03T14:02:07.005Z</time>
      </trkpt>
      <trkpt lat="44.07072" lon="4.78277">
        <ele>77.863824</ele>
        <time>2025-02-03T14:02:09.002Z</time>
      </trkpt>
      <trkpt lat="44.07068" lon="4.78292">
        <ele>77.884497</ele>
        <time>2025-02-03T14:02:12.018Z</time>
      </trkpt>
      <trkpt lat="44.07064" lon="4.78305">
        <ele>77.902496</ele>
        <time>2025-02-03T14:02:16.009Z</time>
      </trkpt>
      <trkpt lat="44.07059" lon="4.7832">
        <ele>77.922814</ele>
        <time>2025-02-03T14:02:20.997Z</time>
      </trkpt>
      <trkpt lat="44.07054" lon="4.78336">
        <ele>77.944863</ele>
        <time>2025-02-03T14:02:23.997Z</time>
      </trkpt>
      <trkpt lat="44.07049" lon="4.78349">
        <ele>77.964061</ele>
        <time>2025-02-03T14:02:26.023Z</time>
      </trkpt>
      <trkpt lat="44.07045" lon="4.78365">
        <ele>77.986614</ele>
        <time>2025-02-03T14:02:28.022Z</time>
      </trkpt>
      <trkpt lat="44.07041" lon="4.78381">
        <ele>78.007579</ele>
        <time>2025-02-03T14:02:30.002Z</time>
      </trkpt>
      <trkpt lat="44.07037" lon="4.78395">
        <ele>78.02767</ele>
        <time>2025-02-03T14:02:32.014Z</time>
      </trkpt>
      <trkpt lat="44.07032" lon="4.78408">
        <ele>78.047168</ele>
        <time>2025-02-03T14:02:33.998Z</time>
      </trkpt>
      <trkpt lat="44.07027" lon="4.78421">
        <ele>78.066055</ele>
        <time>2025-02-03T14:02:36.006Z</time>
      </trkpt>
      <trkpt lat="44.07022" lon="4.78435">
        <ele>78.085917</ele>
        <time>2025-02-03T14:02:38.001Z</time>
      </trkpt>
      <trkpt lat="44.07016" lon="4.78448">
        <ele>78.105924</ele>
        <time>2025-02-03T14:02:40.001Z</time>
      </trkpt>
      <trkpt lat="44.07011" lon="4.78461">
        <ele>78.125388</ele>
        <time>2025-02-03T14:02:42.001Z</time>
      </trkpt>
      <trkpt lat="44.07006" lon="4.78474">
        <ele>78.144275</ele>
        <time>2025-02-03T14:02:44.004Z</time>
      </trkpt>
      <trkpt lat="44.07001" lon="4.78486">
        <ele>78.16286</ele>
        <time>2025-02-03T14:02:46.000Z</time>
      </trkpt>
      <trkpt lat="44.06996" lon="4.78499">
        <ele>78.182618</ele>
        <time>2025-02-03T14:02:48.006Z</time>
      </trkpt>
      <trkpt lat="44.0699" lon="4.78512">
        <ele>78.201801</ele>
        <time>2025-02-03T14:02:50.002Z</time>
      </trkpt>
      <trkpt lat="44.06984" lon="4.78525">
        <ele>78.221539</ele>
        <time>2025-02-03T14:02:51.987Z</time>
      </trkpt>
      <trkpt lat="44.06978" lon="4.78537">
        <ele>78.241124</ele>
        <time>2025-02-03T14:02:54.008Z</time>
      </trkpt>
      <trkpt lat="44.06972" lon="4.7855">
        <ele>78.260802</ele>
        <time>2025-02-03T14:02:55.992Z</time>
      </trkpt>
      <trkpt lat="44.06966" lon="4.78562">
        <ele>78.279733</ele>
        <time>2025-02-03T14:02:58.009Z</time>
      </trkpt>
      <trkpt lat="44.06961" lon="4.78574">
        <ele>78.31039</ele>
        <time>2025-02-03T14:02:59.997Z</time>
      </trkpt>
      <trkpt lat="44.06955" lon="4.78586">
        <ele>78.345079</ele>
        <time>2025-02-03T14:03:02.007Z</time>
      </trkpt>
      <trkpt lat="44.06948" lon="4.78597">
        <ele>78.381041</ele>
        <time>2025-02-03T14:03:04.003Z</time>
      </trkpt>
      <trkpt lat="44.06942" lon="4.78609">
        <ele>78.417122</ele>
        <time>2025-02-03T14:03:06.005Z</time>
      </trkpt>
      <trkpt lat="44.06936" lon="4.7862">
        <ele>78.452205</ele>
        <time>2025-02-03T14:03:07.994Z</time>
      </trkpt>
      <trkpt lat="44.06929" lon="4.78631">
        <ele>78.487415</ele>
        <time>2025-02-03T14:03:10.000Z</time>
      </trkpt>
      <trkpt lat="44.06923" lon="4.78642">
        <ele>78.522374</ele>
        <time>2025-02-03T14:03:11.999Z</time>
      </trkpt>
      <trkpt lat="44.06916" lon="4.78654">
        <ele>78.5575</ele>
        <time>2025-02-03T14:03:13.996Z</time>
      </trkpt>
      <trkpt lat="44.0691" lon="4.78664">
        <ele>78.591744</ele>
        <time>2025-02-03T14:03:15.999Z</time>
      </trkpt>
      <trkpt lat="44.06903" lon="4.78675">
        <ele>78.626358</ele>
        <time>2025-02-03T14:03:18.010Z</time>
      </trkpt>
      <trkpt lat="44.06896" lon="4.78686">
        <ele>78.662351</ele>
        <time>2025-02-03T14:03:19.998Z</time>
      </trkpt>
      <trkpt lat="44.0689" lon="4.78697">
        <ele>78.697459</ele>
        <time>2025-02-03T14:03:22.007Z</time>
      </trkpt>
      <trkpt lat="44.06883" lon="4.78707">
        <ele>78.731669</ele>
        <time>2025-02-03T14:03:23.999Z</time>
      </trkpt>
      <trkpt lat="44.06876" lon="4.78716">
        <ele>78.765588</ele>
        <time>2025-02-03T14:03:26.005Z</time>
      </trkpt>
      <trkpt lat="44.06869" lon="4.78727">
        <ele>78.799563</ele>
        <time>2025-02-03T14:03:28.009Z</time>
      </trkpt>
      <trkpt lat="44.06862" lon="4.78737">
        <ele>78.83426</ele>
        <time>2025-02-03T14:03:30.009Z</time>
      </trkpt>
      <trkpt lat="44.06855" lon="4.78747">
        <ele>78.868648</ele>
        <time>2025-02-03T14:03:32.000Z</time>
      </trkpt>
      <trkpt lat="44.06848" lon="4.78757">
        <ele>78.894851</ele>
        <time>2025-02-03T14:03:34.005Z</time>
      </trkpt>
      <trkpt lat="44.06841" lon="4.78767">
        <ele>78.831963</ele>
        <time>2025-02-03T14:03:35.999Z</time>
      </trkpt>
      <trkpt lat="44.06834" lon="4.78777">
        <ele>78.768426</ele>
        <time>2025-02-03T14:03:38.002Z</time>
      </trkpt>
      <trkpt lat="44.06826" lon="4.78786">
        <ele>78.703419</ele>
        <time>2025-02-03T14:03:39.994Z</time>
      </trkpt>
      <trkpt lat="44.06819" lon="4.78796">
        <ele>78.64065</ele>
        <time>2025-02-03T14:03:41.998Z</time>
      </trkpt>
      <trkpt lat="44.06811" lon="4.78805">
        <ele>78.576345</ele>
        <time>2025-02-03T14:03:44.278Z</time>
      </trkpt>
      <trkpt lat="44.06804" lon="4.78814">
        <ele>78.512362</ele>
        <time>2025-02-03T14:03:46.001Z</time>
      </trkpt>
      <trkpt lat="44.06796" lon="4.78823">
        <ele>78.447207</ele>
        <time>2025-02-03T14:03:48.015Z</time>
      </trkpt>
      <trkpt lat="44.06788" lon="4.78832">
        <ele>78.381559</ele>
        <time>2025-02-03T14:03:49.989Z</time>
      </trkpt>
      <trkpt lat="44.06779" lon="4.78841">
        <ele>78.315414</ele>
        <time>2025-02-03T14:03:52.005Z</time>
      </trkpt>
      <trkpt lat="44.06772" lon="4.7885">
        <ele>78.252209</ele>
        <time>2025-02-03T14:03:54.010Z</time>
      </trkpt>
      <trkpt lat="44.06764" lon="4.78859">
        <ele>78.186766</ele>
        <time>2025-02-03T14:03:55.983Z</time>
      </trkpt>
      <trkpt lat="44.06756" lon="4.78867">
        <ele>78.123836</ele>
        <time>2025-02-03T14:03:57.998Z</time>
      </trkpt>
      <trkpt lat="44.06748" lon="4.78874">
        <ele>78.063514</ele>
        <time>2025-02-03T14:04:00.004Z</time>
      </trkpt>
      <trkpt lat="44.06739" lon="4.78879">
        <ele>78.006408</ele>
        <time>2025-02-03T14:04:02.032Z</time>
      </trkpt>
      <trkpt lat="44.0673" lon="4.7889">
        <ele>77.932094</ele>
        <time>2025-02-03T14:04:04.992Z</time>
      </trkpt>
      <trkpt lat="44.06724" lon="4.78903">
        <ele>77.856297</ele>
        <time>2025-02-03T14:04:08.004Z</time>
      </trkpt>
      <trkpt lat="44.06723" lon="4.78919">
        <ele>77.785019</ele>
        <time>2025-02-03T14:04:11.027Z</time>
      </trkpt>
      <trkpt lat="44.06729" lon="4.78931">
        <ele>77.628253</ele>
        <time>2025-02-03T14:04:13.989Z</time>
      </trkpt>
      <trkpt lat="44.06735" lon="4.78944">
        <ele>77.430232</ele>
        <time>2025-02-03T14:04:17.028Z</time>
      </trkpt>
      <trkpt lat="44.06741" lon="4.78957">
        <ele>77.221775</ele>
        <time>2025-02-03T14:04:19.998Z</time>
      </trkpt>
      <trkpt lat="44.06743" lon="4.78972">
        <ele>77.017226</ele>
        <time>2025-02-03T14:04:22.990Z</time>
      </trkpt>
      <trkpt lat="44.06738" lon="4.78982">
        <ele>76.845272</ele>
        <time>2025-02-03T14:04:25.005Z</time>
      </trkpt>
      <trkpt lat="44.06726" lon="4.78989">
        <ele>76.606253</ele>
        <time>2025-02-03T14:04:26.992Z</time>
      </trkpt>
      <trkpt lat="44.06713" lon="4.78999">
        <ele>76.325814</ele>
        <time>2025-02-03T14:04:28.969Z</time>
      </trkpt>
      <trkpt lat="44.06699" lon="4.79011">
        <ele>76.02692</ele>
        <time>2025-02-03T14:04:31.002Z</time>
      </trkpt>
      <trkpt lat="44.06685" lon="4.79021">
        <ele>75.735485</ele>
        <time>2025-02-03T14:04:32.997Z</time>
      </trkpt>
      <trkpt lat="44.06671" lon="4.79032">
        <ele>75.447266</ele>
        <time>2025-02-03T14:04:35.011Z</time>
      </trkpt>
      <trkpt lat="44.06658" lon="4.79041">
        <ele>75.170198</ele>
        <time>2025-02-03T14:04:37.000Z</time>
      </trkpt>
      <trkpt lat="44.06644" lon="4.79049">
        <ele>74.899253</ele>
        <time>2025-02-03T14:04:39.001Z</time>
      </trkpt>
      <trkpt lat="44.06631" lon="4.79058">
        <ele>74.627183</ele>
        <time>2025-02-03T14:04:41.001Z</time>
      </trkpt>
      <trkpt lat="44.06618" lon="4.79066">
        <ele>74.443928</ele>
        <time>2025-02-03T14:04:43.000Z</time>
      </trkpt>
      <trkpt lat="44.06605" lon="4.79074">
        <ele>74.485544</ele>
        <time>2025-02-03T14:04:45.001Z</time>
      </trkpt>
      <trkpt lat="44.06593" lon="4.79082">
        <ele>74.525132</ele>
        <time>2025-02-03T14:04:46.984Z</time>
      </trkpt>
      <trkpt lat="44.06582" lon="4.7909">
        <ele>74.56429</ele>
        <time>2025-02-03T14:04:48.993Z</time>
      </trkpt>
      <trkpt lat="44.06571" lon="4.79098">
        <ele>74.602541</ele>
        <time>2025-02-03T14:04:50.994Z</time>
      </trkpt>
      <trkpt lat="44.0656" lon="4.79105">
        <ele>74.638188</ele>
        <time>2025-02-03T14:04:53.011Z</time>
      </trkpt>
      <trkpt lat="44.0655" lon="4.79112">
        <ele>74.673376</ele>
        <time>2025-02-03T14:04:55.012Z</time>
      </trkpt>
      <trkpt lat="44.06538" lon="4.79118">
        <ele>74.710371</ele>
        <time>2025-02-03T14:04:57.001Z</time>
      </trkpt>
      <trkpt lat="44.06527" lon="4.79123">
        <ele>74.745222</ele>
        <time>2025-02-03T14:04:58.995Z</time>
      </trkpt>
      <trkpt lat="44.06517" lon="4.79129">
        <ele>74.779865</ele>
        <time>2025-02-03T14:05:01.005Z</time>
      </trkpt>
      <trkpt lat="44.06506" lon="4.79134">
        <ele>74.814643</ele>
        <time>2025-02-03T14:05:03.005Z</time>
      </trkpt>
      <trkpt lat="44.06495" lon="4.79139">
        <ele>74.850135</ele>
        <time>2025-02-03T14:05:04.997Z</time>
      </trkpt>
      <trkpt lat="44.06483" lon="4.79145">
        <ele>74.886994</ele>
        <time>2025-02-03T14:05:07.045Z</time>
      </trkpt>
      <trkpt lat="44.06473" lon="4.7915">
        <ele>74.919624</ele>
        <time>2025-02-03T14:05:08.998Z</time>
      </trkpt>
      <trkpt lat="44.06463" lon="4.79155">
        <ele>74.952983</ele>
        <time>2025-02-03T14:05:10.997Z</time>
      </trkpt>
      <trkpt lat="44.06452" lon="4.79159">
        <ele>74.96192</ele>
        <time>2025-02-03T14:05:12.988Z</time>
      </trkpt>
      <trkpt lat="44.06442" lon="4.79163">
        <ele>74.901669</ele>
        <time>2025-02-03T14:05:14.994Z</time>
      </trkpt>
      <trkpt lat="44.06433" lon="4.79166">
        <ele>74.845483</ele>
        <time>2025-02-03T14:05:16.995Z</time>
      </trkpt>
      <trkpt lat="44.06423" lon="4.79169">
        <ele>74.789639</ele>
        <time>2025-02-03T14:05:18.999Z</time>
      </trkpt>
      <trkpt lat="44.06414" lon="4.79172">
        <ele>74.736104</ele>
        <time>2025-02-03T14:05:21.001Z</time>
      </trkpt>
      <trkpt lat="44.06405" lon="4.79177">
        <ele>74.682784</ele>
        <time>2025-02-03T14:05:22.999Z</time>
      </trkpt>
      <trkpt lat="44.06394" lon="4.79185">
        <ele>74.6154</ele>
        <time>2025-02-03T14:05:25.990Z</time>
      </trkpt>
      <trkpt lat="44.06389" lon="4.79195">
        <ele>74.563939</ele>
        <time>2025-02-03T14:05:28.999Z</time>
      </trkpt>
      <trkpt lat="44.06377" lon="4.79191">
        <ele>74.496071</ele>
        <time>2025-02-03T14:05:32.989Z</time>
      </trkpt>
      <trkpt lat="44.06364" lon="4.79194">
        <ele>74.421807</ele>
        <time>2025-02-03T14:05:36.024Z</time>
      </trkpt>
      <trkpt lat="44.06354" lon="4.79198">
        <ele>74.362955</ele>
        <time>2025-02-03T14:05:38.009Z</time>
      </trkpt>
      <trkpt lat="44.06344" lon="4.79201">
        <ele>74.303548</ele>
        <time>2025-02-03T14:05:39.987Z</time>
      </trkpt>
      <trkpt lat="44.06333" lon="4.79204">
        <ele>74.244693</ele>
        <time>2025-02-03T14:05:42.009Z</time>
      </trkpt>
      <trkpt lat="44.06323" lon="4.79206">
        <ele>74.188219</ele>
        <time>2025-02-03T14:05:44.008Z</time>
      </trkpt>
      <trkpt lat="44.06313" lon="4.79209">
        <ele>74.127591</ele>
        <time>2025-02-03T14:05:45.969Z</time>
      </trkpt>
      <trkpt lat="44.06302" lon="4.7921">
        <ele>74.065064</ele>
        <time>2025-02-03T14:05:47.975Z</time>
      </trkpt>
      <trkpt lat="44.06291" lon="4.79212">
        <ele>74.002998</ele>
        <time>2025-02-03T14:05:50.002Z</time>
      </trkpt>
      <trkpt lat="44.0628" lon="4.79216">
        <ele>73.978613</ele>
        <time>2025-02-03T14:05:52.013Z</time>
      </trkpt>
      <trkpt lat="44.0627" lon="4.79219">
        <ele>74.02701</ele>
        <time>2025-02-03T14:05:54.007Z</time>
      </trkpt>
      <trkpt lat="44.06259" lon="4.7922">
        <ele>74.076435</ele>
        <time>2025-02-03T14:05:56.013Z</time>
      </trkpt>
      <trkpt lat="44.06248" lon="4.79222">
        <ele>74.124642</ele>
        <time>2025-02-03T14:05:58.003Z</time>
      </trkpt>
      <trkpt lat="44.06238" lon="4.79223">
        <ele>74.1718</ele>
        <time>2025-02-03T14:05:59.999Z</time>
      </trkpt>
      <trkpt lat="44.06228" lon="4.79224">
        <ele>74.218288</ele>
        <time>2025-02-03T14:06:02.011Z</time>
      </trkpt>
      <trkpt lat="44.06218" lon="4.79224">
        <ele>74.262987</ele>
        <time>2025-02-03T14:06:04.008Z</time>
      </trkpt>
      <trkpt lat="44.06208" lon="4.79227">
        <ele>74.309343</ele>
        <time>2025-02-03T14:06:06.001Z</time>
      </trkpt>
      <trkpt lat="44.06198" lon="4.79228">
        <ele>74.354625</ele>
        <time>2025-02-03T14:06:07.990Z</time>
      </trkpt>
      <trkpt lat="44.06188" lon="4.79228">
        <ele>74.400202</ele>
        <time>2025-02-03T14:06:10.002Z</time>
      </trkpt>
      <trkpt lat="44.06178" lon="4.79227">
        <ele>74.447013</ele>
        <time>2025-02-03T14:06:12.018Z</time>
      </trkpt>
      <trkpt lat="44.06168" lon="4.79227">
        <ele>74.493947</ele>
        <time>2025-02-03T14:06:13.992Z</time>
      </trkpt>
      <trkpt lat="44.06157" lon="4.79227">
        <ele>74.540954</ele>
        <time>2025-02-03T14:06:16.002Z</time>
      </trkpt>
      <trkpt lat="44.06147" lon="4.79228">
        <ele>74.587506</ele>
        <time>2025-02-03T14:06:18.003Z</time>
      </trkpt>
      <trkpt lat="44.06137" lon="4.79228">
        <ele>74.633533</ele>
        <time>2025-02-03T14:06:19.999Z</time>
      </trkpt>
      <trkpt lat="44.06127" lon="4.79229">
        <ele>74.679111</ele>
        <time>2025-02-03T14:06:22.012Z</time>
      </trkpt>
      <trkpt lat="44.06117" lon="4.79229">
        <ele>74.725608</ele>
        <time>2025-02-03T14:06:24.017Z</time>
      </trkpt>
      <trkpt lat="44.06106" lon="4.79229">
        <ele>74.773007</ele>
        <time>2025-02-03T14:06:26.005Z</time>
      </trkpt>
      <trkpt lat="44.06096" lon="4.79227">
        <ele>74.79727</ele>
        <time>2025-02-03T14:06:28.014Z</time>
      </trkpt>
      <trkpt lat="44.06086" lon="4.79226">
        <ele>74.815903</ele>
        <time>2025-02-03T14:06:30.024Z</time>
      </trkpt>
      <trkpt lat="44.06076" lon="4.79225">
        <ele>74.83509</ele>
        <time>2025-02-03T14:06:32.001Z</time>
      </trkpt>
      <trkpt lat="44.06067" lon="4.79223">
        <ele>74.852796</ele>
        <time>2025-02-03T14:06:34.014Z</time>
      </trkpt>
      <trkpt lat="44.06057" lon="4.79222">
        <ele>74.871269</ele>
        <time>2025-02-03T14:06:36.005Z</time>
      </trkpt>
      <trkpt lat="44.06048" lon="4.79221">
        <ele>74.888974</ele>
        <time>2025-02-03T14:06:38.002Z</time>
      </trkpt>
      <trkpt lat="44.06038" lon="4.79219">
        <ele>74.907245</ele>
        <time>2025-02-03T14:06:40.016Z</time>
      </trkpt>
      <trkpt lat="44.06029" lon="4.79217">
        <ele>74.924455</ele>
        <time>2025-02-03T14:06:42.008Z</time>
      </trkpt>
      <trkpt lat="44.0602" lon="4.79216">
        <ele>74.94279</ele>
        <time>2025-02-03T14:06:43.989Z</time>
      </trkpt>
      <trkpt lat="44.0601" lon="4.79214">
        <ele>74.961163</ele>
        <time>2025-02-03T14:06:46.003Z</time>
      </trkpt>
      <trkpt lat="44.06" lon="4.79211">
        <ele>74.980305</ele>
        <time>2025-02-03T14:06:48.004Z</time>
      </trkpt>
      <trkpt lat="44.0599" lon="4.7921">
        <ele>74.999784</ele>
        <time>2025-02-03T14:06:49.999Z</time>
      </trkpt>
      <trkpt lat="44.0598" lon="4.79208">
        <ele>75.019025</ele>
        <time>2025-02-03T14:06:52.002Z</time>
      </trkpt>
      <trkpt lat="44.0597" lon="4.79206">
        <ele>75.037463</ele>
        <time>2025-02-03T14:06:54.008Z</time>
      </trkpt>
      <trkpt lat="44.05961" lon="4.79203">
        <ele>75.055155</ele>
        <time>2025-02-03T14:06:55.997Z</time>
      </trkpt>
      <trkpt lat="44.05951" lon="4.79201">
        <ele>75.074131</ele>
        <time>2025-02-03T14:06:58.010Z</time>
      </trkpt>
      <trkpt lat="44.05942" lon="4.79199">
        <ele>75.091964</ele>
        <time>2025-02-03T14:07:00.005Z</time>
      </trkpt>
      <trkpt lat="44.05932" lon="4.79196">
        <ele>75.110373</ele>
        <time>2025-02-03T14:07:02.005Z</time>
      </trkpt>
      <trkpt lat="44.05923" lon="4.79194">
        <ele>75.118748</ele>
        <time>2025-02-03T14:07:04.024Z</time>
      </trkpt>
      <trkpt lat="44.05913" lon="4.79191">
        <ele>75.112137</ele>
        <time>2025-02-03T14:07:06.006Z</time>
      </trkpt>
      <trkpt lat="44.05903" lon="4.79189">
        <ele>75.105135</ele>
        <time>2025-02-03T14:07:07.994Z</time>
      </trkpt>
      <trkpt lat="44.05893" lon="4.79187">
        <ele>75.098616</ele>
        <time>2025-02-03T14:07:10.001Z</time>
      </trkpt>
      <trkpt lat="44.05883" lon="4.79184">
        <ele>75.091622</ele>
        <time>2025-02-03T14:07:12.008Z</time>
      </trkpt>
      <trkpt lat="44.05874" lon="4.79182">
        <ele>75.085145</ele>
        <time>2025-02-03T14:07:13.982Z</time>
      </trkpt>
      <trkpt lat="44.05864" lon="4.79179">
        <ele>75.078525</ele>
        <time>2025-02-03T14:07:15.985Z</time>
      </trkpt>
      <trkpt lat="44.05855" lon="4.79177">
        <ele>75.072198</ele>
        <time>2025-02-03T14:07:18.023Z</time>
      </trkpt>
      <trkpt lat="44.05846" lon="4.79174">
        <ele>75.065757</ele>
        <time>2025-02-03T14:07:20.018Z</time>
      </trkpt>
      <trkpt lat="44.05836" lon="4.79172">
        <ele>75.059231</ele>
        <time>2025-02-03T14:07:22.009Z</time>
      </trkpt>
      <trkpt lat="44.05826" lon="4.7917">
        <ele>75.05257</ele>
        <time>2025-02-03T14:07:24.009Z</time>
      </trkpt>
      <trkpt lat="44.05817" lon="4.79167">
        <ele>75.046102</ele>
        <time>2025-02-03T14:07:26.008Z</time>
      </trkpt>
      <trkpt lat="44.05807" lon="4.79165">
        <ele>75.039433</ele>
        <time>2025-02-03T14:07:28.010Z</time>
      </trkpt>
      <trkpt lat="44.05798" lon="4.79162">
        <ele>75.032813</ele>
        <time>2025-02-03T14:07:30.015Z</time>
      </trkpt>
      <trkpt lat="44.05788" lon="4.7916">
        <ele>75.02602</ele>
        <time>2025-02-03T14:07:32.005Z</time>
      </trkpt>
      <trkpt lat="44.05778" lon="4.79157">
        <ele>75.019342</ele>
        <time>2025-02-03T14:07:33.998Z</time>
      </trkpt>
      <trkpt lat="44.05769" lon="4.79155">
        <ele>75.012855</ele>
        <time>2025-02-03T14:07:36.009Z</time>
      </trkpt>
      <trkpt lat="44.05759" lon="4.79153">
        <ele>75.006182</ele>
        <time>2025-02-03T14:07:38.007Z</time>
      </trkpt>
      <trkpt lat="44.0575" lon="4.79151">
        <ele>74.999872</ele>
        <time>2025-02-03T14:07:39.984Z</time>
      </trkpt>
      <trkpt lat="44.0574" lon="4.79148">
        <ele>74.933355</ele>
        <time>2025-02-03T14:07:42.032Z</time>
      </trkpt>
      <trkpt lat="44.05731" lon="4.79146">
        <ele>74.866953</ele>
        <time>2025-02-03T14:07:43.984Z</time>
      </trkpt>
      <trkpt lat="44.05722" lon="4.79144">
        <ele>74.800631</ele>
        <time>2025-02-03T14:07:45.984Z</time>
      </trkpt>
      <trkpt lat="44.05713" lon="4.79142">
        <ele>74.735456</ele>
        <time>2025-02-03T14:07:48.002Z</time>
      </trkpt>
      <trkpt lat="44.05703" lon="4.79139">
        <ele>74.665146</ele>
        <time>2025-02-03T14:07:50.010Z</time>
      </trkpt>
      <trkpt lat="44.05694" lon="4.79137">
        <ele>74.598824</ele>
        <time>2025-02-03T14:07:52.003Z</time>
      </trkpt>
      <trkpt lat="44.05681" lon="4.79134">
        <ele>74.502155</ele>
        <time>2025-02-03T14:07:55.004Z</time>
      </trkpt>
      <trkpt lat="44.05672" lon="4.79131">
        <ele>74.43637</ele>
        <time>2025-02-03T14:07:57.002Z</time>
      </trkpt>
      <trkpt lat="44.05663" lon="4.79129">
        <ele>74.370584</ele>
        <time>2025-02-03T14:07:59.008Z</time>
      </trkpt>
      <trkpt lat="44.05654" lon="4.79127">
        <ele>74.304884</ele>
        <time>2025-02-03T14:08:01.005Z</time>
      </trkpt>
      <trkpt lat="44.05641" lon="4.79129">
        <ele>74.211728</ele>
        <time>2025-02-03T14:08:04.005Z</time>
      </trkpt>
      <trkpt lat="44.05628" lon="4.79132">
        <ele>74.118656</ele>
        <time>2025-02-03T14:08:06.990Z</time>
      </trkpt>
      <trkpt lat="44.05617" lon="4.79134">
        <ele>74.04028</ele>
        <time>2025-02-03T14:08:09.997Z</time>
      </trkpt>
      <trkpt lat="44.05606" lon="4.79132">
        <ele>73.962538</ele>
        <time>2025-02-03T14:08:13.988Z</time>
      </trkpt>
      <trkpt lat="44.05602" lon="4.79119">
        <ele>73.89237</ele>
        <time>2025-02-03T14:08:17.011Z</time>
      </trkpt>
      <trkpt lat="44.05596" lon="4.79103">
        <ele>73.7977</ele>
        <time>2025-02-03T14:08:19.990Z</time>
      </trkpt>
      <trkpt lat="44.05591" lon="4.79092">
        <ele>73.730336</ele>
        <time>2025-02-03T14:08:22.005Z</time>
      </trkpt>
      <trkpt lat="44.05583" lon="4.79079">
        <ele>73.596119</ele>
        <time>2025-02-03T14:08:25.001Z</time>
      </trkpt>
      <trkpt lat="44.05571" lon="4.79081">
        <ele>73.463093</ele>
        <time>2025-02-03T14:08:27.999Z</time>
      </trkpt>
      <trkpt lat="44.05562" lon="4.79086">
        <ele>73.348439</ele>
        <time>2025-02-03T14:08:31.001Z</time>
      </trkpt>
      <trkpt lat="44.05554" lon="4.79096">
        <ele>73.216443</ele>
        <time>2025-02-03T14:08:33.985Z</time>
      </trkpt>
      <trkpt lat="44.05543" lon="4.79106">
        <ele>73.068895</ele>
        <time>2025-02-03T14:08:36.987Z</time>
      </trkpt>
      <trkpt lat="44.05533" lon="4.79117">
        <ele>72.919977</ele>
        <time>2025-02-03T14:08:39.988Z</time>
      </trkpt>
      <trkpt lat="44.05522" lon="4.79127">
        <ele>72.767674</ele>
        <time>2025-02-03T14:08:42.973Z</time>
      </trkpt>
      <trkpt lat="44.05515" lon="4.79135">
        <ele>72.663124</ele>
        <time>2025-02-03T14:08:44.988Z</time>
      </trkpt>
      <trkpt lat="44.05508" lon="4.79142">
        <ele>72.55759</ele>
        <time>2025-02-03T14:08:46.986Z</time>
      </trkpt>
      <trkpt lat="44.055" lon="4.7915">
        <ele>72.450176</ele>
        <time>2025-02-03T14:08:49.002Z</time>
      </trkpt>
      <trkpt lat="44.05493" lon="4.79157">
        <ele>72.342209</ele>
        <time>2025-02-03T14:08:51.007Z</time>
      </trkpt>
      <trkpt lat="44.05482" lon="4.79168">
        <ele>72.185164</ele>
        <time>2025-02-03T14:08:54.005Z</time>
      </trkpt>
      <trkpt lat="44.05474" lon="4.79176">
        <ele>72.07442</ele>
        <time>2025-02-03T14:08:56.007Z</time>
      </trkpt>
      <trkpt lat="44.05463" lon="4.79187">
        <ele>71.917065</ele>
        <time>2025-02-03T14:08:59.001Z</time>
      </trkpt>
      <trkpt lat="44.05455" lon="4.79195">
        <ele>71.806774</ele>
        <time>2025-02-03T14:09:01.007Z</time>
      </trkpt>
      <trkpt lat="44.05445" lon="4.79204">
        <ele>71.663518</ele>
        <time>2025-02-03T14:09:04.029Z</time>
      </trkpt>
      <trkpt lat="44.05434" lon="4.79214">
        <ele>71.665385</ele>
        <time>2025-02-03T14:09:06.998Z</time>
      </trkpt>
      <trkpt lat="44.05427" lon="4.79221">
        <ele>71.70104</ele>
        <time>2025-02-03T14:09:09.001Z</time>
      </trkpt>
      <trkpt lat="44.05419" lon="4.79229">
        <ele>71.737336</ele>
        <time>2025-02-03T14:09:10.993Z</time>
      </trkpt>
      <trkpt lat="44.05412" lon="4.79236">
        <ele>71.77349</ele>
        <time>2025-02-03T14:09:13.014Z</time>
      </trkpt>
      <trkpt lat="44.05401" lon="4.79247">
        <ele>71.826714</ele>
        <time>2025-02-03T14:09:16.005Z</time>
      </trkpt>
      <trkpt lat="44.0539" lon="4.79258">
        <ele>71.879777</ele>
        <time>2025-02-03T14:09:19.017Z</time>
      </trkpt>
      <trkpt lat="44.05382" lon="4.79264">
        <ele>71.918172</ele>
        <time>2025-02-03T14:09:20.988Z</time>
      </trkpt>
      <trkpt lat="44.05374" lon="4.79272">
        <ele>71.956288</ele>
        <time>2025-02-03T14:09:22.977Z</time>
      </trkpt>
      <trkpt lat="44.05366" lon="4.79279">
        <ele>71.994542</ele>
        <time>2025-02-03T14:09:24.998Z</time>
      </trkpt>
      <trkpt lat="44.05357" lon="4.79287">
        <ele>72.034763</ele>
        <time>2025-02-03T14:09:26.975Z</time>
      </trkpt>
      <trkpt lat="44.05348" lon="4.79294">
        <ele>72.076323</ele>
        <time>2025-02-03T14:09:28.970Z</time>
      </trkpt>
      <trkpt lat="44.0534" lon="4.79302">
        <ele>72.117211</ele>
        <time>2025-02-03T14:09:31.002Z</time>
      </trkpt>
      <trkpt lat="44.05331" lon="4.7931">
        <ele>72.158134</ele>
        <time>2025-02-03T14:09:32.995Z</time>
      </trkpt>
      <trkpt lat="44.05321" lon="4.79316">
        <ele>72.200499</ele>
        <time>2025-02-03T14:09:35.003Z</time>
      </trkpt>
      <trkpt lat="44.05313" lon="4.79323">
        <ele>72.240009</ele>
        <time>2025-02-03T14:09:37.000Z</time>
      </trkpt>
      <trkpt lat="44.05304" lon="4.79331">
        <ele>72.280348</ele>
        <time>2025-02-03T14:09:38.999Z</time>
      </trkpt>
      <trkpt lat="44.05295" lon="4.79337">
        <ele>72.319715</ele>
        <time>2025-02-03T14:09:40.993Z</time>
      </trkpt>
      <trkpt lat="44.05286" lon="4.79344">
        <ele>72.383513</ele>
        <time>2025-02-03T14:09:43.011Z</time>
      </trkpt>
      <trkpt lat="44.05278" lon="4.79352">
        <ele>72.468832</ele>
        <time>2025-02-03T14:09:45.001Z</time>
      </trkpt>
      <trkpt lat="44.05269" lon="4.7936">
        <ele>72.554482</ele>
        <time>2025-02-03T14:09:47.001Z</time>
      </trkpt>
      <trkpt lat="44.05261" lon="4.79367">
        <ele>72.637163</ele>
        <time>2025-02-03T14:09:49.020Z</time>
      </trkpt>
      <trkpt lat="44.05253" lon="4.79373">
        <ele>72.713907</ele>
        <time>2025-02-03T14:09:50.997Z</time>
      </trkpt>
      <trkpt lat="44.05243" lon="4.7938">
        <ele>72.806654</ele>
        <time>2025-02-03T14:09:53.993Z</time>
      </trkpt>
      <trkpt lat="44.05235" lon="4.79388">
        <ele>72.894006</ele>
        <time>2025-02-03T14:09:56.994Z</time>
      </trkpt>
      <trkpt lat="44.05228" lon="4.79397">
        <ele>72.97495</ele>
        <time>2025-02-03T14:09:59.999Z</time>
      </trkpt>
      <trkpt lat="44.0522" lon="4.79406">
        <ele>73.05598</ele>
        <time>2025-02-03T14:10:03.005Z</time>
      </trkpt>
      <trkpt lat="44.05214" lon="4.79417">
        <ele>73.143027</ele>
        <time>2025-02-03T14:10:06.004Z</time>
      </trkpt>
      <trkpt lat="44.05208" lon="4.79428">
        <ele>73.230276</ele>
        <time>2025-02-03T14:10:09.006Z</time>
      </trkpt>
      <trkpt lat="44.05201" lon="4.7944">
        <ele>73.320121</ele>
        <time>2025-02-03T14:10:12.005Z</time>
      </trkpt>
      <trkpt lat="44.05193" lon="4.79452">
        <ele>73.420613</ele>
        <time>2025-02-03T14:10:14.991Z</time>
      </trkpt>
      <trkpt lat="44.05185" lon="4.79464">
        <ele>73.5175</ele>
        <time>2025-02-03T14:10:18.002Z</time>
      </trkpt>
      <trkpt lat="44.05178" lon="4.79476">
        <ele>73.614721</ele>
        <time>2025-02-03T14:10:20.995Z</time>
      </trkpt>
      <trkpt lat="44.05171" lon="4.7949">
        <ele>73.715844</ele>
        <time>2025-02-03T14:10:24.004Z</time>
      </trkpt>
      <trkpt lat="44.05162" lon="4.79502">
        <ele>73.817358</ele>
        <time>2025-02-03T14:10:26.982Z</time>
      </trkpt>
      <trkpt lat="44.05155" lon="4.79515">
        <ele>73.778852</ele>
        <time>2025-02-03T14:10:29.986Z</time>
      </trkpt>
      <trkpt lat="44.05147" lon="4.79529">
        <ele>73.630447</ele>
        <time>2025-02-03T14:10:33.011Z</time>
      </trkpt>
      <trkpt lat="44.05138" lon="4.79543">
        <ele>73.480515</ele>
        <time>2025-02-03T14:10:36.006Z</time>
      </trkpt>
      <trkpt lat="44.0513" lon="4.79557">
        <ele>73.328785</ele>
        <time>2025-02-03T14:10:39.020Z</time>
      </trkpt>
      <trkpt lat="44.05124" lon="4.79568">
        <ele>73.220571</ele>
        <time>2025-02-03T14:10:41.013Z</time>
      </trkpt>
      <trkpt lat="44.05117" lon="4.79578">
        <ele>73.108405</ele>
        <time>2025-02-03T14:10:43.011Z</time>
      </trkpt>
      <trkpt lat="44.05111" lon="4.79588">
        <ele>72.99686</ele>
        <time>2025-02-03T14:10:45.022Z</time>
      </trkpt>
      <trkpt lat="44.05105" lon="4.796">
        <ele>72.880389</ele>
        <time>2025-02-03T14:10:47.003Z</time>
      </trkpt>
      <trkpt lat="44.05098" lon="4.79611">
        <ele>72.760554</ele>
        <time>2025-02-03T14:10:49.017Z</time>
      </trkpt>
      <trkpt lat="44.05092" lon="4.79623">
        <ele>72.643341</ele>
        <time>2025-02-03T14:10:51.010Z</time>
      </trkpt>
      <trkpt lat="44.05085" lon="4.79633">
        <ele>72.527585</ele>
        <time>2025-02-03T14:10:53.011Z</time>
      </trkpt>
      <trkpt lat="44.05078" lon="4.79644">
        <ele>72.410842</ele>
        <time>2025-02-03T14:10:54.992Z</time>
      </trkpt>
      <trkpt lat="44.05072" lon="4.79656">
        <ele>72.28907</ele>
        <time>2025-02-03T14:10:57.003Z</time>
      </trkpt>
      <trkpt lat="44.05065" lon="4.79667">
        <ele>72.16998</ele>
        <time>2025-02-03T14:10:58.992Z</time>
      </trkpt>
      <trkpt lat="44.05058" lon="4.79678">
        <ele>72.052767</ele>
        <time>2025-02-03T14:11:01.014Z</time>
      </trkpt>
      <trkpt lat="44.05052" lon="4.7969">
        <ele>71.932069</ele>
        <time>2025-02-03T14:11:03.013Z</time>
      </trkpt>
      <trkpt lat="44.05045" lon="4.79701">
        <ele>71.81833</ele>
        <time>2025-02-03T14:11:05.013Z</time>
      </trkpt>
      <trkpt lat="44.05038" lon="4.79712">
        <ele>71.781547</ele>
        <time>2025-02-03T14:11:06.998Z</time>
      </trkpt>
      <trkpt lat="44.05031" lon="4.79723">
        <ele>71.742908</ele>
        <time>2025-02-03T14:11:09.017Z</time>
      </trkpt>
      <trkpt lat="44.05025" lon="4.79735">
        <ele>71.704789</ele>
        <time>2025-02-03T14:11:11.014Z</time>
      </trkpt>
      <trkpt lat="44.05017" lon="4.79747">
        <ele>71.664453</ele>
        <time>2025-02-03T14:11:13.009Z</time>
      </trkpt>
      <trkpt lat="44.0501" lon="4.79759">
        <ele>71.62631</ele>
        <time>2025-02-03T14:11:15.001Z</time>
      </trkpt>
      <trkpt lat="44.05003" lon="4.79771">
        <ele>71.586659</ele>
        <time>2025-02-03T14:11:17.002Z</time>
      </trkpt>
      <trkpt lat="44.04996" lon="4.79782">
        <ele>71.548409</ele>
        <time>2025-02-03T14:11:18.996Z</time>
      </trkpt>
      <trkpt lat="44.04989" lon="4.79794">
        <ele>71.50862</ele>
        <time>2025-02-03T14:11:20.997Z</time>
      </trkpt>
      <trkpt lat="44.04982" lon="4.79806">
        <ele>71.46801</ele>
        <time>2025-02-03T14:11:23.007Z</time>
      </trkpt>
      <trkpt lat="44.04975" lon="4.79818">
        <ele>71.429989</ele>
        <time>2025-02-03T14:11:24.971Z</time>
      </trkpt>
      <trkpt lat="44.04968" lon="4.79829">
        <ele>71.391154</ele>
        <time>2025-02-03T14:11:27.001Z</time>
      </trkpt>
      <trkpt lat="44.04961" lon="4.79841">
        <ele>71.351728</ele>
        <time>2025-02-03T14:11:29.006Z</time>
      </trkpt>
      <trkpt lat="44.04954" lon="4.79853">
        <ele>71.313316</ele>
        <time>2025-02-03T14:11:31.011Z</time>
      </trkpt>
      <trkpt lat="44.04947" lon="4.79865">
        <ele>71.273665</ele>
        <time>2025-02-03T14:11:33.013Z</time>
      </trkpt>
      <trkpt lat="44.0494" lon="4.79877">
        <ele>71.234437</ele>
        <time>2025-02-03T14:11:35.025Z</time>
      </trkpt>
      <trkpt lat="44.04933" lon="4.79889">
        <ele>71.193572</ele>
        <time>2025-02-03T14:11:36.976Z</time>
      </trkpt>
      <trkpt lat="44.04926" lon="4.79901">
        <ele>71.160224</ele>
        <time>2025-02-03T14:11:38.996Z</time>
      </trkpt>
      <trkpt lat="44.04919" lon="4.79913">
        <ele>71.129337</ele>
        <time>2025-02-03T14:11:41.015Z</time>
      </trkpt>
      <trkpt lat="44.04913" lon="4.79924">
        <ele>71.099512</ele>
        <time>2025-02-03T14:11:43.001Z</time>
      </trkpt>
      <trkpt lat="44.04907" lon="4.79937">
        <ele>71.069026</ele>
        <time>2025-02-03T14:11:44.999Z</time>
      </trkpt>
      <trkpt lat="44.049" lon="4.79949">
        <ele>71.037533</ele>
        <time>2025-02-03T14:11:47.018Z</time>
      </trkpt>
      <trkpt lat="44.04894" lon="4.79963">
        <ele>71.004687</ele>
        <time>2025-02-03T14:11:49.008Z</time>
      </trkpt>
      <trkpt lat="44.04887" lon="4.79977">
        <ele>70.969526</ele>
        <time>2025-02-03T14:11:51.002Z</time>
      </trkpt>
      <trkpt lat="44.0488" lon="4.79991">
        <ele>70.934865</ele>
        <time>2025-02-03T14:11:53.010Z</time>
      </trkpt>
      <trkpt lat="44.04874" lon="4.80004">
        <ele>70.9025</ele>
        <time>2025-02-03T14:11:55.018Z</time>
      </trkpt>
      <trkpt lat="44.04869" lon="4.80016">
        <ele>70.873305</ele>
        <time>2025-02-03T14:11:57.019Z</time>
      </trkpt>
      <trkpt lat="44.04861" lon="4.8003">
        <ele>70.837152</ele>
        <time>2025-02-03T14:12:00.007Z</time>
      </trkpt>
      <trkpt lat="44.0486" lon="4.80043">
        <ele>70.810708</ele>
        <time>2025-02-03T14:12:02.000Z</time>
      </trkpt>
      <trkpt lat="44.04858" lon="4.80056">
        <ele>70.784639</ele>
        <time>2025-02-03T14:12:03.998Z</time>
      </trkpt>
      <trkpt lat="44.04853" lon="4.80072">
        <ele>70.748717</ele>
        <time>2025-02-03T14:12:07.014Z</time>
      </trkpt>
      <trkpt lat="44.0485" lon="4.80088">
        <ele>70.714448</ele>
        <time>2025-02-03T14:12:10.010Z</time>
      </trkpt>
      <trkpt lat="44.04843" lon="4.801">
        <ele>70.68229</ele>
        <time>2025-02-03T14:12:13.013Z</time>
      </trkpt>
      <trkpt lat="44.04835" lon="4.80107">
        <ele>70.656743</ele>
        <time>2025-02-03T14:12:16.017Z</time>
      </trkpt>
      <trkpt lat="44.04828" lon="4.80118">
        <ele>70.628633</ele>
        <time>2025-02-03T14:12:19.018Z</time>
      </trkpt>
      <trkpt lat="44.04821" lon="4.80129">
        <ele>70.600311</ele>
        <time>2025-02-03T14:12:22.026Z</time>
      </trkpt>
      <trkpt lat="44.04814" lon="4.80139">
        <ele>70.572234</ele>
        <time>2025-02-03T14:12:25.001Z</time>
      </trkpt>
      <trkpt lat="44.04806" lon="4.80151">
        <ele>70.540876</ele>
        <time>2025-02-03T14:12:28.012Z</time>
      </trkpt>
      <trkpt lat="44.04798" lon="4.80161">
        <ele>70.511332</ele>
        <time>2025-02-03T14:12:31.014Z</time>
      </trkpt>
      <trkpt lat="44.04791" lon="4.80175">
        <ele>70.478748</ele>
        <time>2025-02-03T14:12:34.011Z</time>
      </trkpt>
      <trkpt lat="44.04783" lon="4.80188">
        <ele>70.445014</ele>
        <time>2025-02-03T14:12:37.008Z</time>
      </trkpt>
      <trkpt lat="44.04775" lon="4.80202">
        <ele>70.41067</ele>
        <time>2025-02-03T14:12:40.014Z</time>
      </trkpt>
      <trkpt lat="44.04766" lon="4.80213">
        <ele>70.377749</ele>
        <time>2025-02-03T14:12:42.984Z</time>
      </trkpt>
      <trkpt lat="44.04758" lon="4.80226">
        <ele>70.344094</ele>
        <time>2025-02-03T14:12:46.002Z</time>
      </trkpt>
      <trkpt lat="44.0475" lon="4.80239">
        <ele>70.309671</ele>
        <time>2025-02-03T14:12:49.013Z</time>
      </trkpt>
      <trkpt lat="44.04741" lon="4.80254">
        <ele>70.273873</ele>
        <time>2025-02-03T14:12:52.000Z</time>
      </trkpt>
      <trkpt lat="44.04733" lon="4.80267">
        <ele>70.239747</ele>
        <time>2025-02-03T14:12:55.006Z</time>
      </trkpt>
      <trkpt lat="44.04725" lon="4.8028">
        <ele>70.206353</ele>
        <time>2025-02-03T14:12:57.993Z</time>
      </trkpt>
      <trkpt lat="44.04717" lon="4.80293">
        <ele>70.212165</ele>
        <time>2025-02-03T14:13:01.013Z</time>
      </trkpt>
      <trkpt lat="44.0471" lon="4.80303">
        <ele>70.293203</ele>
        <time>2025-02-03T14:13:03.007Z</time>
      </trkpt>
      <trkpt lat="44.04704" lon="4.80312">
        <ele>70.374296</ele>
        <time>2025-02-03T14:13:05.000Z</time>
      </trkpt>
      <trkpt lat="44.04697" lon="4.80321">
        <ele>70.45734</ele>
        <time>2025-02-03T14:13:07.010Z</time>
      </trkpt>
      <trkpt lat="44.04691" lon="4.80331">
        <ele>70.539089</ele>
        <time>2025-02-03T14:13:08.992Z</time>
      </trkpt>
      <trkpt lat="44.04685" lon="4.8034">
        <ele>70.620063</ele>
        <time>2025-02-03T14:13:11.094Z</time>
      </trkpt>
      <trkpt lat="44.04678" lon="4.80349">
        <ele>70.700286</ele>
        <time>2025-02-03T14:13:13.007Z</time>
      </trkpt>
      <trkpt lat="44.04672" lon="4.8036">
        <ele>70.784628</ele>
        <time>2025-02-03T14:13:14.990Z</time>
      </trkpt>
      <trkpt lat="44.04666" lon="4.80371">
        <ele>70.874501</ele>
        <time>2025-02-03T14:13:17.018Z</time>
      </trkpt>
      <trkpt lat="44.04659" lon="4.80381">
        <ele>70.962023</ele>
        <time>2025-02-03T14:13:19.017Z</time>
      </trkpt>
      <trkpt lat="44.04653" lon="4.8039">
        <ele>71.041477</ele>
        <time>2025-02-03T14:13:20.999Z</time>
      </trkpt>
      <trkpt lat="44.04647" lon="4.804">
        <ele>71.126533</ele>
        <time>2025-02-03T14:13:23.014Z</time>
      </trkpt>
      <trkpt lat="44.0464" lon="4.8041">
        <ele>71.212682</ele>
        <time>2025-02-03T14:13:24.999Z</time>
      </trkpt>
      <trkpt lat="44.04634" lon="4.8042">
        <ele>71.295151</ele>
        <time>2025-02-03T14:13:27.000Z</time>
      </trkpt>
      <trkpt lat="44.04627" lon="4.80429">
        <ele>71.381914</ele>
        <time>2025-02-03T14:13:29.001Z</time>
      </trkpt>
      <trkpt lat="44.0462" lon="4.80439">
        <ele>71.468375</ele>
        <time>2025-02-03T14:13:31.017Z</time>
      </trkpt>
      <trkpt lat="44.04614" lon="4.8045">
        <ele>71.555539</ele>
        <time>2025-02-03T14:13:33.001Z</time>
      </trkpt>
      <trkpt lat="44.04606" lon="4.80459">
        <ele>71.643493</ele>
        <time>2025-02-03T14:13:35.004Z</time>
      </trkpt>
      <trkpt lat="44.04599" lon="4.80469">
        <ele>71.729642</ele>
        <time>2025-02-03T14:13:37.007Z</time>
      </trkpt>
      <trkpt lat="44.04593" lon="4.80479">
        <ele>71.76409</ele>
        <time>2025-02-03T14:13:39.005Z</time>
      </trkpt>
      <trkpt lat="44.04586" lon="4.80489">
        <ele>71.764978</ele>
        <time>2025-02-03T14:13:41.004Z</time>
      </trkpt>
      <trkpt lat="44.04579" lon="4.805">
        <ele>71.765913</ele>
        <time>2025-02-03T14:13:43.007Z</time>
      </trkpt>
      <trkpt lat="44.04572" lon="4.8051">
        <ele>71.766816</ele>
        <time>2025-02-03T14:13:45.004Z</time>
      </trkpt>
      <trkpt lat="44.04566" lon="4.80521">
        <ele>71.76775</ele>
        <time>2025-02-03T14:13:47.016Z</time>
      </trkpt>
      <trkpt lat="44.04559" lon="4.80531">
        <ele>71.768667</ele>
        <time>2025-02-03T14:13:49.003Z</time>
      </trkpt>
      <trkpt lat="44.04552" lon="4.80542">
        <ele>71.769646</ele>
        <time>2025-02-03T14:13:51.026Z</time>
      </trkpt>
      <trkpt lat="44.04545" lon="4.80553">
        <ele>71.77054</ele>
        <time>2025-02-03T14:13:53.005Z</time>
      </trkpt>
      <trkpt lat="44.04539" lon="4.80564">
        <ele>71.771458</ele>
        <time>2025-02-03T14:13:55.003Z</time>
      </trkpt>
      <trkpt lat="44.04532" lon="4.80574">
        <ele>71.772369</ele>
        <time>2025-02-03T14:13:57.027Z</time>
      </trkpt>
      <trkpt lat="44.04525" lon="4.80584">
        <ele>71.773265</ele>
        <time>2025-02-03T14:13:59.003Z</time>
      </trkpt>
      <trkpt lat="44.04518" lon="4.80594">
        <ele>71.774159</ele>
        <time>2025-02-03T14:14:01.011Z</time>
      </trkpt>
      <trkpt lat="44.04512" lon="4.80604">
        <ele>71.775065</ele>
        <time>2025-02-03T14:14:03.014Z</time>
      </trkpt>
      <trkpt lat="44.04504" lon="4.80615">
        <ele>71.776003</ele>
        <time>2025-02-03T14:14:05.000Z</time>
      </trkpt>
      <trkpt lat="44.04498" lon="4.80626">
        <ele>71.776967</ele>
        <time>2025-02-03T14:14:07.004Z</time>
      </trkpt>
      <trkpt lat="44.04491" lon="4.80636">
        <ele>71.777853</ele>
        <time>2025-02-03T14:14:09.010Z</time>
      </trkpt>
      <trkpt lat="44.04484" lon="4.80647">
        <ele>71.778762</ele>
        <time>2025-02-03T14:14:10.999Z</time>
      </trkpt>
      <trkpt lat="44.04478" lon="4.80657">
        <ele>71.779696</ele>
        <time>2025-02-03T14:14:13.008Z</time>
      </trkpt>
      <trkpt lat="44.0447" lon="4.80669">
        <ele>71.791154</ele>
        <time>2025-02-03T14:14:15.009Z</time>
      </trkpt>
      <trkpt lat="44.04463" lon="4.80679">
        <ele>71.803967</ele>
        <time>2025-02-03T14:14:17.016Z</time>
      </trkpt>
      <trkpt lat="44.04457" lon="4.8069">
        <ele>71.816506</ele>
        <time>2025-02-03T14:14:19.015Z</time>
      </trkpt>
      <trkpt lat="44.0445" lon="4.80701">
        <ele>71.828779</ele>
        <time>2025-02-03T14:14:21.003Z</time>
      </trkpt>
      <trkpt lat="44.04443" lon="4.80711">
        <ele>71.840871</ele>
        <time>2025-02-03T14:14:22.998Z</time>
      </trkpt>
      <trkpt lat="44.04437" lon="4.80721">
        <ele>71.852865</ele>
        <time>2025-02-03T14:14:25.002Z</time>
      </trkpt>
      <trkpt lat="44.0443" lon="4.80731">
        <ele>71.865006</ele>
        <time>2025-02-03T14:14:27.020Z</time>
      </trkpt>
      <trkpt lat="44.04424" lon="4.80742">
        <ele>71.877332</ele>
        <time>2025-02-03T14:14:29.020Z</time>
      </trkpt>
      <trkpt lat="44.04417" lon="4.80753">
        <ele>71.889604</ele>
        <time>2025-02-03T14:14:31.008Z</time>
      </trkpt>
      <trkpt lat="44.04411" lon="4.80763">
        <ele>71.901679</ele>
        <time>2025-02-03T14:14:33.015Z</time>
      </trkpt>
      <trkpt lat="44.04404" lon="4.80773">
        <ele>71.913805</ele>
        <time>2025-02-03T14:14:35.000Z</time>
      </trkpt>
      <trkpt lat="44.04398" lon="4.80784">
        <ele>71.925851</ele>
        <time>2025-02-03T14:14:37.007Z</time>
      </trkpt>
      <trkpt lat="44.04392" lon="4.80794">
        <ele>71.93738</ele>
        <time>2025-02-03T14:14:39.022Z</time>
      </trkpt>
      <trkpt lat="44.04385" lon="4.80804">
        <ele>71.949177</ele>
        <time>2025-02-03T14:14:41.001Z</time>
      </trkpt>
      <trkpt lat="44.04379" lon="4.80813">
        <ele>71.960615</ele>
        <time>2025-02-03T14:14:43.008Z</time>
      </trkpt>
      <trkpt lat="44.04373" lon="4.80823">
        <ele>71.9722</ele>
        <time>2025-02-03T14:14:45.013Z</time>
      </trkpt>
      <trkpt lat="44.04366" lon="4.80833">
        <ele>71.984179</ele>
        <time>2025-02-03T14:14:47.007Z</time>
      </trkpt>
      <trkpt lat="44.0436" lon="4.80843">
        <ele>71.996041</ele>
        <time>2025-02-03T14:14:49.018Z</time>
      </trkpt>
      <trkpt lat="44.04353" lon="4.80854">
        <ele>71.919121</ele>
        <time>2025-02-03T14:14:51.002Z</time>
      </trkpt>
      <trkpt lat="44.04346" lon="4.80864">
        <ele>71.802116</ele>
        <time>2025-02-03T14:14:52.997Z</time>
      </trkpt>
      <trkpt lat="44.0434" lon="4.80874">
        <ele>71.688169</ele>
        <time>2025-02-03T14:14:55.003Z</time>
      </trkpt>
      <trkpt lat="44.04333" lon="4.80885">
        <ele>71.574102</ele>
        <time>2025-02-03T14:14:56.998Z</time>
      </trkpt>
      <trkpt lat="44.04327" lon="4.80895">
        <ele>71.460668</ele>
        <time>2025-02-03T14:14:59.011Z</time>
      </trkpt>
      <trkpt lat="44.04321" lon="4.80905">
        <ele>71.349595</ele>
        <time>2025-02-03T14:15:00.996Z</time>
      </trkpt>
      <trkpt lat="44.04315" lon="4.80915">
        <ele>71.239251</ele>
        <time>2025-02-03T14:15:03.017Z</time>
      </trkpt>
      <trkpt lat="44.0431" lon="4.80926">
        <ele>71.133791</ele>
        <time>2025-02-03T14:15:05.000Z</time>
      </trkpt>
      <trkpt lat="44.04304" lon="4.80935">
        <ele>71.028823</ele>
        <time>2025-02-03T14:15:07.008Z</time>
      </trkpt>
      <trkpt lat="44.04297" lon="4.80943">
        <ele>70.921944</ele>
        <time>2025-02-03T14:15:09.004Z</time>
      </trkpt>
      <trkpt lat="44.04288" lon="4.80957">
        <ele>70.770661</ele>
        <time>2025-02-03T14:15:12.000Z</time>
      </trkpt>
      <trkpt lat="44.04282" lon="4.80966">
        <ele>70.662583</ele>
        <time>2025-02-03T14:15:14.005Z</time>
      </trkpt>
      <trkpt lat="44.04275" lon="4.80975">
        <ele>70.554029</ele>
        <time>2025-02-03T14:15:15.978Z</time>
      </trkpt>
      <trkpt lat="44.04269" lon="4.80984">
        <ele>70.445278</ele>
        <time>2025-02-03T14:15:18.012Z</time>
      </trkpt>
      <trkpt lat="44.04262" lon="4.80993">
        <ele>70.339805</ele>
        <time>2025-02-03T14:15:20.009Z</time>
      </trkpt>
      <trkpt lat="44.04254" lon="4.81006">
        <ele>70.191167</ele>
        <time>2025-02-03T14:15:23.001Z</time>
      </trkpt>
      <trkpt lat="44.04244" lon="4.81018">
        <ele>70.040101</ele>
        <time>2025-02-03T14:15:26.004Z</time>
      </trkpt>
      <trkpt lat="44.04237" lon="4.81027">
        <ele>69.934969</ele>
        <time>2025-02-03T14:15:28.012Z</time>
      </trkpt>
      <trkpt lat="44.04231" lon="4.81036">
        <ele>69.865063</ele>
        <time>2025-02-03T14:15:30.015Z</time>
      </trkpt>
      <trkpt lat="44.04224" lon="4.81045">
        <ele>69.809978</ele>
        <time>2025-02-03T14:15:32.003Z</time>
      </trkpt>
      <trkpt lat="44.04218" lon="4.81055">
        <ele>69.754776</ele>
        <time>2025-02-03T14:15:34.010Z</time>
      </trkpt>
      <trkpt lat="44.04211" lon="4.81065">
        <ele>69.696216</ele>
        <time>2025-02-03T14:15:36.000Z</time>
      </trkpt>
      <trkpt lat="44.04204" lon="4.81074">
        <ele>69.637427</ele>
        <time>2025-02-03T14:15:38.004Z</time>
      </trkpt>
      <trkpt lat="44.04197" lon="4.81084">
        <ele>69.578661</ele>
        <time>2025-02-03T14:15:40.000Z</time>
      </trkpt>
      <trkpt lat="44.04189" lon="4.81093">
        <ele>69.518738</ele>
        <time>2025-02-03T14:15:41.995Z</time>
      </trkpt>
      <trkpt lat="44.04181" lon="4.81102">
        <ele>69.458221</ele>
        <time>2025-02-03T14:15:44.016Z</time>
      </trkpt>
      <trkpt lat="44.04174" lon="4.81111">
        <ele>69.399983</ele>
        <time>2025-02-03T14:15:46.030Z</time>
      </trkpt>
      <trkpt lat="44.04166" lon="4.8112">
        <ele>69.340018</ele>
        <time>2025-02-03T14:15:47.997Z</time>
      </trkpt>
      <trkpt lat="44.04158" lon="4.8113">
        <ele>69.279951</ele>
        <time>2025-02-03T14:15:49.998Z</time>
      </trkpt>
      <trkpt lat="44.04151" lon="4.81139">
        <ele>69.222195</ele>
        <time>2025-02-03T14:15:52.011Z</time>
      </trkpt>
      <trkpt lat="44.04143" lon="4.81148">
        <ele>69.161229</ele>
        <time>2025-02-03T14:15:54.017Z</time>
      </trkpt>
      <trkpt lat="44.04136" lon="4.81159">
        <ele>69.099802</ele>
        <time>2025-02-03T14:15:56.011Z</time>
      </trkpt>
      <trkpt lat="44.04128" lon="4.81168">
        <ele>69.038388</ele>
        <time>2025-02-03T14:15:58.013Z</time>
      </trkpt>
      <trkpt lat="44.0412" lon="4.81178">
        <ele>68.975798</ele>
        <time>2025-02-03T14:16:00.003Z</time>
      </trkpt>
      <trkpt lat="44.04112" lon="4.81188">
        <ele>68.912259</ele>
        <time>2025-02-03T14:16:02.005Z</time>
      </trkpt>
      <trkpt lat="44.04104" lon="4.81198">
        <ele>68.847668</ele>
        <time>2025-02-03T14:16:04.007Z</time>
      </trkpt>
      <trkpt lat="44.04095" lon="4.81207">
        <ele>68.989545</ele>
        <time>2025-02-03T14:16:06.007Z</time>
      </trkpt>
      <trkpt lat="44.04087" lon="4.81216">
        <ele>69.143894</ele>
        <time>2025-02-03T14:16:08.009Z</time>
      </trkpt>
      <trkpt lat="44.04079" lon="4.81225">
        <ele>69.301758</ele>
        <time>2025-02-03T14:16:10.003Z</time>
      </trkpt>
      <trkpt lat="44.0407" lon="4.81234">
        <ele>69.466166</ele>
        <time>2025-02-03T14:16:11.989Z</time>
      </trkpt>
      <trkpt lat="44.04061" lon="4.81243">
        <ele>69.629344</ele>
        <time>2025-02-03T14:16:14.004Z</time>
      </trkpt>
      <trkpt lat="44.04052" lon="4.81251">
        <ele>69.783436</ele>
        <time>2025-02-03T14:16:15.996Z</time>
      </trkpt>
      <trkpt lat="44.04044" lon="4.8126">
        <ele>69.93267</ele>
        <time>2025-02-03T14:16:18.003Z</time>
      </trkpt>
      <trkpt lat="44.04036" lon="4.81269">
        <ele>70.090017</ele>
        <time>2025-02-03T14:16:19.997Z</time>
      </trkpt>
      <trkpt lat="44.04028" lon="4.81277">
        <ele>70.239375</ele>
        <time>2025-02-03T14:16:21.991Z</time>
      </trkpt>
      <trkpt lat="44.0402" lon="4.81285">
        <ele>70.389155</ele>
        <time>2025-02-03T14:16:24.001Z</time>
      </trkpt>
      <trkpt lat="44.04011" lon="4.81292">
        <ele>70.5355</ele>
        <time>2025-02-03T14:16:26.001Z</time>
      </trkpt>
      <trkpt lat="44.04003" lon="4.81298">
        <ele>70.67373</ele>
        <time>2025-02-03T14:16:28.006Z</time>
      </trkpt>
      <trkpt lat="44.03995" lon="4.81303">
        <ele>70.809767</ele>
        <time>2025-02-03T14:16:30.021Z</time>
      </trkpt>
      <trkpt lat="44.03986" lon="4.81307">
        <ele>70.946952</ele>
        <time>2025-02-03T14:16:31.986Z</time>
      </trkpt>
      <trkpt lat="44.03974" lon="4.81315">
        <ele>71.14469</ele>
        <time>2025-02-03T14:16:35.010Z</time>
      </trkpt>
      <trkpt lat="44.03962" lon="4.81321">
        <ele>71.338824</ele>
        <time>2025-02-03T14:16:37.992Z</time>
      </trkpt>
      <trkpt lat="44.0395" lon="4.81328">
        <ele>71.528989</ele>
        <time>2025-02-03T14:16:41.023Z</time>
      </trkpt>
      <trkpt lat="44.03938" lon="4.81336">
        <ele>71.714382</ele>
        <time>2025-02-03T14:16:44.001Z</time>
      </trkpt>
      <trkpt lat="44.03926" lon="4.81343">
        <ele>71.900207</ele>
        <time>2025-02-03T14:16:47.008Z</time>
      </trkpt>
      <trkpt lat="44.03915" lon="4.81351">
        <ele>72.076457</ele>
        <time>2025-02-03T14:16:50.015Z</time>
      </trkpt>
      <trkpt lat="44.03905" lon="4.81358">
        <ele>72.250958</ele>
        <time>2025-02-03T14:16:53.024Z</time>
      </trkpt>
      <trkpt lat="44.03894" lon="4.81366">
        <ele>72.429527</ele>
        <time>2025-02-03T14:16:56.019Z</time>
      </trkpt>
      <trkpt lat="44.03883" lon="4.81374">
        <ele>72.607298</ele>
        <time>2025-02-03T14:16:59.002Z</time>
      </trkpt>
      <trkpt lat="44.03872" lon="4.81383">
        <ele>72.782201</ele>
        <time>2025-02-03T14:17:02.005Z</time>
      </trkpt>
      <trkpt lat="44.03862" lon="4.81392">
        <ele>72.955217</ele>
        <time>2025-02-03T14:17:04.997Z</time>
      </trkpt>
      <trkpt lat="44.03853" lon="4.81402">
        <ele>73.129466</ele>
        <time>2025-02-03T14:17:08.008Z</time>
      </trkpt>
      <trkpt lat="44.03842" lon="4.81411">
        <ele>73.308367</ele>
        <time>2025-02-03T14:17:10.995Z</time>
      </trkpt>
      <trkpt lat="44.03832" lon="4.81421">
        <ele>73.480076</ele>
        <time>2025-02-03T14:17:14.004Z</time>
      </trkpt>
      <trkpt lat="44.03823" lon="4.81431">
        <ele>73.657168</ele>
        <time>2025-02-03T14:17:17.013Z</time>
      </trkpt>
      <trkpt lat="44.03812" lon="4.81441">
        <ele>73.841321</ele>
        <time>2025-02-03T14:17:20.018Z</time>
      </trkpt>
      <trkpt lat="44.03801" lon="4.81451">
        <ele>74.027844</ele>
        <time>2025-02-03T14:17:23.005Z</time>
      </trkpt>
      <trkpt lat="44.0379" lon="4.81461">
        <ele>74.154391</ele>
        <time>2025-02-03T14:17:26.018Z</time>
      </trkpt>
      <trkpt lat="44.03783" lon="4.81468">
        <ele>74.204313</ele>
        <time>2025-02-03T14:17:28.063Z</time>
      </trkpt>
      <trkpt lat="44.03775" lon="4.81476">
        <ele>74.257105</ele>
        <time>2025-02-03T14:17:29.983Z</time>
      </trkpt>
      <trkpt lat="44.03767" lon="4.81483">
        <ele>74.307636</ele>
        <time>2025-02-03T14:17:31.993Z</time>
      </trkpt>
      <trkpt lat="44.03759" lon="4.81491">
        <ele>74.360684</ele>
        <time>2025-02-03T14:17:34.021Z</time>
      </trkpt>
      <trkpt lat="44.03752" lon="4.81499">
        <ele>74.415189</ele>
        <time>2025-02-03T14:17:36.002Z</time>
      </trkpt>
      <trkpt lat="44.03744" lon="4.81506">
        <ele>74.465961</ele>
        <time>2025-02-03T14:17:38.001Z</time>
      </trkpt>
      <trkpt lat="44.03736" lon="4.81514">
        <ele>74.518074</ele>
        <time>2025-02-03T14:17:40.014Z</time>
      </trkpt>
      <trkpt lat="44.03729" lon="4.81522">
        <ele>74.570441</ele>
        <time>2025-02-03T14:17:41.993Z</time>
      </trkpt>
      <trkpt lat="44.03721" lon="4.81529">
        <ele>74.623251</ele>
        <time>2025-02-03T14:17:43.996Z</time>
      </trkpt>
      <trkpt lat="44.0371" lon="4.8154">
        <ele>74.697797</ele>
        <time>2025-02-03T14:17:47.001Z</time>
      </trkpt>
      <trkpt lat="44.03699" lon="4.81551">
        <ele>74.77168</ele>
        <time>2025-02-03T14:17:49.998Z</time>
      </trkpt>
      <trkpt lat="44.03688" lon="4.81561">
        <ele>74.845328</ele>
        <time>2025-02-03T14:17:53.004Z</time>
      </trkpt>
      <trkpt lat="44.0368" lon="4.81569">
        <ele>74.896986</ele>
        <time>2025-02-03T14:17:55.004Z</time>
      </trkpt>
      <trkpt lat="44.03669" lon="4.8158">
        <ele>74.970189</ele>
        <time>2025-02-03T14:17:58.020Z</time>
      </trkpt>
      <trkpt lat="44.03658" lon="4.8159">
        <ele>75.044059</ele>
        <time>2025-02-03T14:18:00.993Z</time>
      </trkpt>
      <trkpt lat="44.03648" lon="4.81601">
        <ele>75.085231</ele>
        <time>2025-02-03T14:18:03.999Z</time>
      </trkpt>
      <trkpt lat="44.0364" lon="4.81608">
        <ele>74.984479</ele>
        <time>2025-02-03T14:18:05.995Z</time>
      </trkpt>
      <trkpt lat="44.03633" lon="4.81615">
        <ele>74.887289</ele>
        <time>2025-02-03T14:18:07.999Z</time>
      </trkpt>
      <trkpt lat="44.03621" lon="4.81626">
        <ele>74.739548</ele>
        <time>2025-02-03T14:18:11.016Z</time>
      </trkpt>
      <trkpt lat="44.03614" lon="4.81633">
        <ele>74.641455</ele>
        <time>2025-02-03T14:18:12.993Z</time>
      </trkpt>
      <trkpt lat="44.03606" lon="4.8164">
        <ele>74.540298</ele>
        <time>2025-02-03T14:18:15.002Z</time>
      </trkpt>
      <trkpt lat="44.03598" lon="4.81648">
        <ele>74.437367</ele>
        <time>2025-02-03T14:18:17.013Z</time>
      </trkpt>
      <trkpt lat="44.03591" lon="4.81656">
        <ele>74.337482</ele>
        <time>2025-02-03T14:18:19.008Z</time>
      </trkpt>
      <trkpt lat="44.03583" lon="4.81663">
        <ele>74.23274</ele>
        <time>2025-02-03T14:18:21.002Z</time>
      </trkpt>
      <trkpt lat="44.03575" lon="4.8167">
        <ele>74.127997</ele>
        <time>2025-02-03T14:18:23.007Z</time>
      </trkpt>
      <trkpt lat="44.03566" lon="4.81678">
        <ele>74.02102</ele>
        <time>2025-02-03T14:18:25.004Z</time>
      </trkpt>
      <trkpt lat="44.03558" lon="4.81685">
        <ele>73.914947</ele>
        <time>2025-02-03T14:18:27.016Z</time>
      </trkpt>
      <trkpt lat="44.0355" lon="4.81693">
        <ele>73.807893</ele>
        <time>2025-02-03T14:18:29.001Z</time>
      </trkpt>
      <trkpt lat="44.03542" lon="4.81701">
        <ele>73.703607</ele>
        <time>2025-02-03T14:18:30.999Z</time>
      </trkpt>
      <trkpt lat="44.03534" lon="4.81709">
        <ele>73.598791</ele>
        <time>2025-02-03T14:18:33.003Z</time>
      </trkpt>
      <trkpt lat="44.03526" lon="4.81718">
        <ele>73.489255</ele>
        <time>2025-02-03T14:18:35.014Z</time>
      </trkpt>
      <trkpt lat="44.03519" lon="4.81729">
        <ele>73.369016</ele>
        <time>2025-02-03T14:18:37.006Z</time>
      </trkpt>
      <trkpt lat="44.03511" lon="4.81742">
        <ele>73.23942</ele>
        <time>2025-02-03T14:18:39.009Z</time>
      </trkpt>
      <trkpt lat="44.03504" lon="4.81754">
        <ele>73.109555</ele>
        <time>2025-02-03T14:18:41.015Z</time>
      </trkpt>
      <trkpt lat="44.03498" lon="4.81763">
        <ele>72.97835</ele>
        <time>2025-02-03T14:18:43.025Z</time>
      </trkpt>
      <trkpt lat="44.03491" lon="4.81774">
        <ele>72.836982</ele>
        <time>2025-02-03T14:18:44.997Z</time>
      </trkpt>
      <trkpt lat="44.03486" lon="4.81791">
        <ele>72.657321</ele>
        <time>2025-02-03T14:18:47.995Z</time>
      </trkpt>
      <trkpt lat="44.03482" lon="4.81805">
        <ele>72.511818</ele>
        <time>2025-02-03T14:18:51.013Z</time>
      </trkpt>
      <trkpt lat="44.03477" lon="4.81817">
        <ele>72.374191</ele>
        <time>2025-02-03T14:18:54.984Z</time>
      </trkpt>
      <trkpt lat="44.03473" lon="4.81828">
        <ele>72.243567</ele>
        <time>2025-02-03T14:18:58.989Z</time>
      </trkpt>
      <trkpt lat="44.0346" lon="4.8182">
        <ele>72.048467</ele>
        <time>2025-02-03T14:21:38.990Z</time>
      </trkpt>
      <trkpt lat="44.03454" lon="4.8181">
        <ele>71.919721</ele>
        <time>2025-02-03T14:21:41.990Z</time>
      </trkpt>
      <trkpt lat="44.03448" lon="4.81799">
        <ele>71.785937</ele>
        <time>2025-02-03T14:21:44.993Z</time>
      </trkpt>
      <trkpt lat="44.03441" lon="4.8179">
        <ele>71.657907</ele>
        <time>2025-02-03T14:21:47.983Z</time>
      </trkpt>
      <trkpt lat="44.03449" lon="4.818">
        <ele>71.513955</ele>
        <time>2025-02-03T14:23:39.996Z</time>
      </trkpt>
      <trkpt lat="44.03455" lon="4.81811">
        <ele>71.37957</ele>
        <time>2025-02-03T14:23:44.005Z</time>
      </trkpt>
      <trkpt lat="44.03457" lon="4.81823">
        <ele>71.252664</ele>
        <time>2025-02-03T14:23:49.033Z</time>
      </trkpt>
      <trkpt lat="44.03456" lon="4.81809">
        <ele>71.112112</ele>
        <time>2025-02-03T14:23:56.003Z</time>
      </trkpt>
      <trkpt lat="44.03448" lon="4.81797">
        <ele>70.946374</ele>
        <time>2025-02-03T14:24:00.004Z</time>
      </trkpt>
      <trkpt lat="44.0344" lon="4.8179">
        <ele>70.813968</ele>
        <time>2025-02-03T14:24:03.021Z</time>
      </trkpt>
      <trkpt lat="44.03431" lon="4.81788">
        <ele>70.690502</ele>
        <time>2025-02-03T14:24:06.011Z</time>
      </trkpt>
      <trkpt lat="44.0342" lon="4.81791">
        <ele>70.751258</ele>
        <time>2025-02-03T14:24:10.000Z</time>
      </trkpt>
      <trkpt lat="44.03411" lon="4.81797">
        <ele>70.813885</ele>
        <time>2025-02-03T14:24:12.999Z</time>
      </trkpt>
      <trkpt lat="44.03402" lon="4.81803">
        <ele>70.878904</ele>
        <time>2025-02-03T14:24:15.998Z</time>
      </trkpt>
      <trkpt lat="44.03394" lon="4.81808">
        <ele>70.939168</ele>
        <time>2025-02-03T14:24:18.979Z</time>
      </trkpt>
      <trkpt lat="44.03385" lon="4.81815">
        <ele>71.010791</ele>
        <time>2025-02-03T14:24:23.001Z</time>
      </trkpt>
      <trkpt lat="44.03376" lon="4.81821">
        <ele>71.070435</ele>
        <time>2025-02-03T14:24:26.002Z</time>
      </trkpt>
      <trkpt lat="44.03368" lon="4.81826">
        <ele>71.131288</ele>
        <time>2025-02-03T14:24:29.009Z</time>
      </trkpt>
      <trkpt lat="44.0336" lon="4.81833">
        <ele>71.192529</ele>
        <time>2025-02-03T14:24:32.002Z</time>
      </trkpt>
      <trkpt lat="44.03351" lon="4.81838">
        <ele>71.25836</ele>
        <time>2025-02-03T14:24:35.019Z</time>
      </trkpt>
      <trkpt lat="44.03341" lon="4.81844">
        <ele>71.326752</ele>
        <time>2025-02-03T14:24:38.021Z</time>
      </trkpt>
      <trkpt lat="44.03331" lon="4.81851">
        <ele>71.399721</ele>
        <time>2025-02-03T14:24:41.000Z</time>
      </trkpt>
      <trkpt lat="44.03321" lon="4.81857">
        <ele>71.474711</ele>
        <time>2025-02-03T14:24:44.007Z</time>
      </trkpt>
      <trkpt lat="44.0331" lon="4.81864">
        <ele>71.554258</ele>
        <time>2025-02-03T14:24:46.997Z</time>
      </trkpt>
      <trkpt lat="44.03299" lon="4.81871">
        <ele>71.631595</ele>
        <time>2025-02-03T14:24:50.009Z</time>
      </trkpt>
      <trkpt lat="44.03288" lon="4.81877">
        <ele>71.708543</ele>
        <time>2025-02-03T14:24:53.005Z</time>
      </trkpt>
      <trkpt lat="44.03277" lon="4.81884">
        <ele>71.788753</ele>
        <time>2025-02-03T14:24:56.003Z</time>
      </trkpt>
      <trkpt lat="44.03266" lon="4.8189">
        <ele>71.866549</ele>
        <time>2025-02-03T14:24:58.999Z</time>
      </trkpt>
      <trkpt lat="44.03254" lon="4.81895">
        <ele>71.890499</ele>
        <time>2025-02-03T14:25:02.004Z</time>
      </trkpt>
      <trkpt lat="44.03242" lon="4.81901">
        <ele>71.91409</ele>
        <time>2025-02-03T14:25:05.008Z</time>
      </trkpt>
      <trkpt lat="44.0323" lon="4.81907">
        <ele>71.93733</ele>
        <time>2025-02-03T14:25:07.996Z</time>
      </trkpt>
      <trkpt lat="44.03219" lon="4.81913">
        <ele>71.960655</ele>
        <time>2025-02-03T14:25:11.003Z</time>
      </trkpt>
      <trkpt lat="44.03208" lon="4.8192">
        <ele>71.98257</ele>
        <time>2025-02-03T14:25:13.997Z</time>
      </trkpt>
      <trkpt lat="44.03197" lon="4.81926">
        <ele>72.005204</ele>
        <time>2025-02-03T14:25:17.014Z</time>
      </trkpt>
      <trkpt lat="44.03185" lon="4.81931">
        <ele>72.028946</ele>
        <time>2025-02-03T14:25:19.993Z</time>
      </trkpt>
      <trkpt lat="44.03174" lon="4.81936">
        <ele>72.051827</ele>
        <time>2025-02-03T14:25:23.011Z</time>
      </trkpt>
      <trkpt lat="44.03162" lon="4.81942">
        <ele>72.07489</ele>
        <time>2025-02-03T14:25:25.996Z</time>
      </trkpt>
      <trkpt lat="44.0315" lon="4.81947">
        <ele>72.098312</ele>
        <time>2025-02-03T14:25:28.997Z</time>
      </trkpt>
      <trkpt lat="44.03138" lon="4.81953">
        <ele>72.122039</ele>
        <time>2025-02-03T14:25:32.003Z</time>
      </trkpt>
      <trkpt lat="44.03127" lon="4.81958">
        <ele>72.14581</ele>
        <time>2025-02-03T14:25:35.000Z</time>
      </trkpt>
      <trkpt lat="44.03114" lon="4.81964">
        <ele>72.170026</ele>
        <time>2025-02-03T14:25:38.018Z</time>
      </trkpt>
      <trkpt lat="44.03102" lon="4.81969">
        <ele>72.195077</ele>
        <time>2025-02-03T14:25:41.002Z</time>
      </trkpt>
      <trkpt lat="44.03093" lon="4.81973">
        <ele>72.204793</ele>
        <time>2025-02-03T14:25:43.008Z</time>
      </trkpt>
      <trkpt lat="44.03084" lon="4.81977">
        <ele>72.202777</ele>
        <time>2025-02-03T14:25:44.999Z</time>
      </trkpt>
      <trkpt lat="44.03075" lon="4.8198">
        <ele>72.200744</ele>
        <time>2025-02-03T14:25:47.000Z</time>
      </trkpt>
      <trkpt lat="44.03066" lon="4.81983">
        <ele>72.198702</ele>
        <time>2025-02-03T14:25:49.014Z</time>
      </trkpt>
      <trkpt lat="44.03057" lon="4.81986">
        <ele>72.19663</ele>
        <time>2025-02-03T14:25:50.999Z</time>
      </trkpt>
      <trkpt lat="44.03048" lon="4.81989">
        <ele>72.194616</ele>
        <time>2025-02-03T14:25:53.002Z</time>
      </trkpt>
      <trkpt lat="44.03036" lon="4.81994">
        <ele>72.191745</ele>
        <time>2025-02-03T14:25:55.997Z</time>
      </trkpt>
      <trkpt lat="44.03027" lon="4.81996">
        <ele>72.189748</ele>
        <time>2025-02-03T14:25:58.003Z</time>
      </trkpt>
      <trkpt lat="44.03015" lon="4.82001">
        <ele>72.187</ele>
        <time>2025-02-03T14:26:01.002Z</time>
      </trkpt>
      <trkpt lat="44.03003" lon="4.82006">
        <ele>72.184256</ele>
        <time>2025-02-03T14:26:04.011Z</time>
      </trkpt>
      <trkpt lat="44.0299" lon="4.8201">
        <ele>72.181417</ele>
        <time>2025-02-03T14:26:07.003Z</time>
      </trkpt>
      <trkpt lat="44.02978" lon="4.82014">
        <ele>72.178561</ele>
        <time>2025-02-03T14:26:10.004Z</time>
      </trkpt>
      <trkpt lat="44.02965" lon="4.82017">
        <ele>72.175778</ele>
        <time>2025-02-03T14:26:12.990Z</time>
      </trkpt>
      <trkpt lat="44.02953" lon="4.8202">
        <ele>72.17301</ele>
        <time>2025-02-03T14:26:15.988Z</time>
      </trkpt>
      <trkpt lat="44.0294" lon="4.82024">
        <ele>72.170179</ele>
        <time>2025-02-03T14:26:18.996Z</time>
      </trkpt>
      <trkpt lat="44.02928" lon="4.82028">
        <ele>72.167346</ele>
        <time>2025-02-03T14:26:21.995Z</time>
      </trkpt>
      <trkpt lat="44.02915" lon="4.82031">
        <ele>72.167987</ele>
        <time>2025-02-03T14:26:25.017Z</time>
      </trkpt>
      <trkpt lat="44.02903" lon="4.82034">
        <ele>72.172074</ele>
        <time>2025-02-03T14:26:28.002Z</time>
      </trkpt>
      <trkpt lat="44.02892" lon="4.82036">
        <ele>72.175866</ele>
        <time>2025-02-03T14:26:30.996Z</time>
      </trkpt>
      <trkpt lat="44.02881" lon="4.82037">
        <ele>72.179367</ele>
        <time>2025-02-03T14:26:34.013Z</time>
      </trkpt>
      <trkpt lat="44.02871" lon="4.8204">
        <ele>72.182662</ele>
        <time>2025-02-03T14:26:36.997Z</time>
      </trkpt>
      <trkpt lat="44.02862" lon="4.82043">
        <ele>72.18562</ele>
        <time>2025-02-03T14:26:39.996Z</time>
      </trkpt>
      <trkpt lat="44.02852" lon="4.82045">
        <ele>72.189192</ele>
        <time>2025-02-03T14:26:43.998Z</time>
      </trkpt>
      <trkpt lat="44.02842" lon="4.82047">
        <ele>72.192464</ele>
        <time>2025-02-03T14:26:48.997Z</time>
      </trkpt>
      <trkpt lat="44.02832" lon="4.82047">
        <ele>72.195623</ele>
        <time>2025-02-03T14:26:54.977Z</time>
      </trkpt>
      <trkpt lat="44.02823" lon="4.82048">
        <ele>72.198823</ele>
        <time>2025-02-03T14:27:02.994Z</time>
      </trkpt>
      <trkpt lat="44.02812" lon="4.82051">
        <ele>72.202235</ele>
        <time>2025-02-03T14:27:37.991Z</time>
      </trkpt>
      <trkpt lat="44.02802" lon="4.82053">
        <ele>72.205533</ele>
        <time>2025-02-03T14:27:41.995Z</time>
      </trkpt>
      <trkpt lat="44.02791" lon="4.82055">
        <ele>72.209412</ele>
        <time>2025-02-03T14:27:45.996Z</time>
      </trkpt>
      <trkpt lat="44.02782" lon="4.82056">
        <ele>72.212412</ele>
        <time>2025-02-03T14:27:49.001Z</time>
      </trkpt>
      <trkpt lat="44.02772" lon="4.82058">
        <ele>72.215523</ele>
        <time>2025-02-03T14:27:51.994Z</time>
      </trkpt>
      <trkpt lat="44.02763" lon="4.8206">
        <ele>72.218637</ele>
        <time>2025-02-03T14:27:55.007Z</time>
      </trkpt>
      <trkpt lat="44.02753" lon="4.82061">
        <ele>72.221911</ele>
        <time>2025-02-03T14:27:57.996Z</time>
      </trkpt>
      <trkpt lat="44.02743" lon="4.82062">
        <ele>72.223531</ele>
        <time>2025-02-03T14:28:00.999Z</time>
      </trkpt>
      <trkpt lat="44.02732" lon="4.82065">
        <ele>72.198099</ele>
        <time>2025-02-03T14:28:04.020Z</time>
      </trkpt>
      <trkpt lat="44.02721" lon="4.82066">
        <ele>72.170863</ele>
        <time>2025-02-03T14:28:06.994Z</time>
      </trkpt>
      <trkpt lat="44.0271" lon="4.82068">
        <ele>72.144646</ele>
        <time>2025-02-03T14:28:09.996Z</time>
      </trkpt>
      <trkpt lat="44.02698" lon="4.8207">
        <ele>72.117815</ele>
        <time>2025-02-03T14:28:13.012Z</time>
      </trkpt>
      <trkpt lat="44.02687" lon="4.82071">
        <ele>72.090397</ele>
        <time>2025-02-03T14:28:15.996Z</time>
      </trkpt>
      <trkpt lat="44.02675" lon="4.82073">
        <ele>72.063008</ele>
        <time>2025-02-03T14:28:18.992Z</time>
      </trkpt>
      <trkpt lat="44.02663" lon="4.82075">
        <ele>72.033842</ele>
        <time>2025-02-03T14:28:22.003Z</time>
      </trkpt>
      <trkpt lat="44.02651" lon="4.82077">
        <ele>72.00531</ele>
        <time>2025-02-03T14:28:25.003Z</time>
      </trkpt>
      <trkpt lat="44.02638" lon="4.82079">
        <ele>71.975532</ele>
        <time>2025-02-03T14:28:27.999Z</time>
      </trkpt>
      <trkpt lat="44.02626" lon="4.8208">
        <ele>71.946031</ele>
        <time>2025-02-03T14:28:31.008Z</time>
      </trkpt>
      <trkpt lat="44.02613" lon="4.82081">
        <ele>71.916061</ele>
        <time>2025-02-03T14:28:34.005Z</time>
      </trkpt>
      <trkpt lat="44.026" lon="4.82083">
        <ele>71.886268</ele>
        <time>2025-02-03T14:28:37.003Z</time>
      </trkpt>
      <trkpt lat="44.02589" lon="4.82085">
        <ele>71.85833</ele>
        <time>2025-02-03T14:28:39.997Z</time>
      </trkpt>
      <trkpt lat="44.02577" lon="4.82086">
        <ele>71.830443</ele>
        <time>2025-02-03T14:28:42.999Z</time>
      </trkpt>
      <trkpt lat="44.02565" lon="4.82089">
        <ele>71.802167</ele>
        <time>2025-02-03T14:28:45.995Z</time>
      </trkpt>
      <trkpt lat="44.02553" lon="4.82091">
        <ele>71.775924</ele>
        <time>2025-02-03T14:28:49.006Z</time>
      </trkpt>
      <trkpt lat="44.02541" lon="4.82092">
        <ele>71.749068</ele>
        <time>2025-02-03T14:28:51.999Z</time>
      </trkpt>
      <trkpt lat="44.02529" lon="4.82094">
        <ele>71.722247</ele>
        <time>2025-02-03T14:28:55.002Z</time>
      </trkpt>
      <trkpt lat="44.02517" lon="4.82096">
        <ele>71.69561</ele>
        <time>2025-02-03T14:28:57.993Z</time>
      </trkpt>
      <trkpt lat="44.02505" lon="4.82098">
        <ele>71.668498</ele>
        <time>2025-02-03T14:29:00.996Z</time>
      </trkpt>
      <trkpt lat="44.02493" lon="4.821">
        <ele>71.642115</ele>
        <time>2025-02-03T14:29:04.005Z</time>
      </trkpt>
      <trkpt lat="44.02481" lon="4.82101">
        <ele>71.615748</ele>
        <time>2025-02-03T14:29:07.010Z</time>
      </trkpt>
      <trkpt lat="44.02469" lon="4.82103">
        <ele>71.589395</ele>
        <time>2025-02-03T14:29:09.992Z</time>
      </trkpt>
      <trkpt lat="44.02457" lon="4.82104">
        <ele>71.563042</ele>
        <time>2025-02-03T14:29:12.994Z</time>
      </trkpt>
      <trkpt lat="44.02446" lon="4.82106">
        <ele>71.537519</ele>
        <time>2025-02-03T14:29:15.988Z</time>
      </trkpt>
      <trkpt lat="44.02434" lon="4.82108">
        <ele>71.511853</ele>
        <time>2025-02-03T14:29:18.994Z</time>
      </trkpt>
      <trkpt lat="44.02422" lon="4.8211">
        <ele>71.486074</ele>
        <time>2025-02-03T14:29:21.984Z</time>
      </trkpt>
      <trkpt lat="44.02411" lon="4.82111">
        <ele>71.460349</ele>
        <time>2025-02-03T14:29:25.023Z</time>
      </trkpt>
      <trkpt lat="44.02399" lon="4.82113">
        <ele>71.434168</ele>
        <time>2025-02-03T14:29:28.009Z</time>
      </trkpt>
      <trkpt lat="44.02387" lon="4.82115">
        <ele>71.406937</ele>
        <time>2025-02-03T14:29:31.000Z</time>
      </trkpt>
      <trkpt lat="44.02375" lon="4.82116">
        <ele>71.427213</ele>
        <time>2025-02-03T14:29:34.010Z</time>
      </trkpt>
      <trkpt lat="44.02363" lon="4.82118">
        <ele>71.452314</ele>
        <time>2025-02-03T14:29:37.000Z</time>
      </trkpt>
      <trkpt lat="44.02351" lon="4.82119">
        <ele>71.476985</ele>
        <time>2025-02-03T14:29:40.004Z</time>
      </trkpt>
      <trkpt lat="44.02339" lon="4.8212">
        <ele>71.500577</ele>
        <time>2025-02-03T14:29:43.000Z</time>
      </trkpt>
      <trkpt lat="44.02327" lon="4.82123">
        <ele>71.524805</ele>
        <time>2025-02-03T14:29:45.998Z</time>
      </trkpt>
      <trkpt lat="44.02315" lon="4.82124">
        <ele>71.549261</ele>
        <time>2025-02-03T14:29:49.007Z</time>
      </trkpt>
      <trkpt lat="44.02303" lon="4.82126">
        <ele>71.57488</ele>
        <time>2025-02-03T14:29:51.993Z</time>
      </trkpt>
      <trkpt lat="44.0229" lon="4.82129">
        <ele>71.601345</ele>
        <time>2025-02-03T14:29:54.997Z</time>
      </trkpt>
      <trkpt lat="44.02277" lon="4.82131">
        <ele>71.62685</ele>
        <time>2025-02-03T14:29:58.007Z</time>
      </trkpt>
      <trkpt lat="44.02265" lon="4.82132">
        <ele>71.652545</ele>
        <time>2025-02-03T14:30:00.995Z</time>
      </trkpt>
      <trkpt lat="44.02253" lon="4.82133">
        <ele>71.677418</ele>
        <time>2025-02-03T14:30:04.017Z</time>
      </trkpt>
      <trkpt lat="44.0224" lon="4.82136">
        <ele>71.703001</ele>
        <time>2025-02-03T14:30:07.006Z</time>
      </trkpt>
      <trkpt lat="44.02228" lon="4.82137">
        <ele>71.728131</ele>
        <time>2025-02-03T14:30:10.016Z</time>
      </trkpt>
      <trkpt lat="44.02215" lon="4.82139">
        <ele>71.753478</ele>
        <time>2025-02-03T14:30:12.995Z</time>
      </trkpt>
      <trkpt lat="44.02203" lon="4.82141">
        <ele>71.750551</ele>
        <time>2025-02-03T14:30:16.016Z</time>
      </trkpt>
      <trkpt lat="44.0219" lon="4.82142">
        <ele>71.690606</ele>
        <time>2025-02-03T14:30:19.015Z</time>
      </trkpt>
      <trkpt lat="44.02177" lon="4.82145">
        <ele>71.62986</ele>
        <time>2025-02-03T14:30:21.993Z</time>
      </trkpt>
      <trkpt lat="44.02165" lon="4.82147">
        <ele>71.569435</ele>
        <time>2025-02-03T14:30:25.020Z</time>
      </trkpt>
      <trkpt lat="44.02153" lon="4.82148">
        <ele>71.513921</ele>
        <time>2025-02-03T14:30:27.991Z</time>
      </trkpt>
      <trkpt lat="44.02141" lon="4.82149">
        <ele>71.458192</ele>
        <time>2025-02-03T14:30:31.010Z</time>
      </trkpt>
      <trkpt lat="44.02129" lon="4.82151">
        <ele>71.402397</ele>
        <time>2025-02-03T14:30:34.017Z</time>
      </trkpt>
      <trkpt lat="44.02117" lon="4.82153">
        <ele>71.346134</ele>
        <time>2025-02-03T14:30:37.006Z</time>
      </trkpt>
      <trkpt lat="44.02105" lon="4.82154">
        <ele>71.289525</ele>
        <time>2025-02-03T14:30:39.994Z</time>
      </trkpt>
      <trkpt lat="44.02094" lon="4.82159">
        <ele>71.234053</ele>
        <time>2025-02-03T14:30:42.984Z</time>
      </trkpt>
      <trkpt lat="44.02082" lon="4.82161">
        <ele>71.178012</ele>
        <time>2025-02-03T14:30:45.997Z</time>
      </trkpt>
      <trkpt lat="44.0207" lon="4.82163">
        <ele>71.120779</ele>
        <time>2025-02-03T14:30:48.999Z</time>
      </trkpt>
      <trkpt lat="44.02059" lon="4.82164">
        <ele>71.06654</ele>
        <time>2025-02-03T14:30:51.994Z</time>
      </trkpt>
      <trkpt lat="44.02048" lon="4.82165">
        <ele>71.014618</ele>
        <time>2025-02-03T14:30:54.999Z</time>
      </trkpt>
      <trkpt lat="44.02036" lon="4.82166">
        <ele>70.959524</ele>
        <time>2025-02-03T14:30:57.997Z</time>
      </trkpt>
      <trkpt lat="44.02025" lon="4.82167">
        <ele>70.922029</ele>
        <time>2025-02-03T14:31:01.024Z</time>
      </trkpt>
      <trkpt lat="44.02014" lon="4.82169">
        <ele>70.914277</ele>
        <time>2025-02-03T14:31:03.998Z</time>
      </trkpt>
      <trkpt lat="44.02003" lon="4.82172">
        <ele>70.906836</ele>
        <time>2025-02-03T14:31:06.998Z</time>
      </trkpt>
      <trkpt lat="44.01992" lon="4.82173">
        <ele>70.89941</ele>
        <time>2025-02-03T14:31:09.991Z</time>
      </trkpt>
      <trkpt lat="44.01981" lon="4.82175">
        <ele>70.891566</ele>
        <time>2025-02-03T14:31:12.996Z</time>
      </trkpt>
      <trkpt lat="44.0197" lon="4.82177">
        <ele>70.883526</ele>
        <time>2025-02-03T14:31:16.002Z</time>
      </trkpt>
      <trkpt lat="44.01958" lon="4.82179">
        <ele>70.875781</ele>
        <time>2025-02-03T14:31:19.008Z</time>
      </trkpt>
      <trkpt lat="44.01947" lon="4.82182">
        <ele>70.867802</ele>
        <time>2025-02-03T14:31:22.000Z</time>
      </trkpt>
      <trkpt lat="44.01935" lon="4.82184">
        <ele>70.859679</ele>
        <time>2025-02-03T14:31:25.013Z</time>
      </trkpt>
      <trkpt lat="44.01924" lon="4.82188">
        <ele>70.851664</ele>
        <time>2025-02-03T14:31:28.006Z</time>
      </trkpt>
      <trkpt lat="44.01913" lon="4.82192">
        <ele>70.844041</ele>
        <time>2025-02-03T14:31:31.003Z</time>
      </trkpt>
      <trkpt lat="44.01902" lon="4.82195">
        <ele>70.835869</ele>
        <time>2025-02-03T14:31:34.012Z</time>
      </trkpt>
      <trkpt lat="44.01891" lon="4.82199">
        <ele>70.828154</ele>
        <time>2025-02-03T14:31:37.019Z</time>
      </trkpt>
      <trkpt lat="44.01881" lon="4.82203">
        <ele>70.820733</ele>
        <time>2025-02-03T14:31:39.995Z</time>
      </trkpt>
      <trkpt lat="44.01871" lon="4.82208">
        <ele>70.813312</ele>
        <time>2025-02-03T14:31:43.005Z</time>
      </trkpt>
      <trkpt lat="44.0186" lon="4.82212">
        <ele>70.805848</ele>
        <time>2025-02-03T14:31:46.011Z</time>
      </trkpt>
      <trkpt lat="44.0185" lon="4.82218">
        <ele>70.817109</ele>
        <time>2025-02-03T14:31:48.999Z</time>
      </trkpt>
      <trkpt lat="44.01841" lon="4.82223">
        <ele>70.878005</ele>
        <time>2025-02-03T14:31:51.996Z</time>
      </trkpt>
      <trkpt lat="44.01831" lon="4.82229">
        <ele>70.939588</ele>
        <time>2025-02-03T14:31:55.003Z</time>
      </trkpt>
      <trkpt lat="44.01822" lon="4.82235">
        <ele>70.99991</ele>
        <time>2025-02-03T14:31:58.000Z</time>
      </trkpt>
      <trkpt lat="44.01814" lon="4.82243">
        <ele>71.057563</ele>
        <time>2025-02-03T14:32:01.003Z</time>
      </trkpt>
      <trkpt lat="44.01805" lon="4.82253">
        <ele>71.129392</ele>
        <time>2025-02-03T14:32:05.003Z</time>
      </trkpt>
      <trkpt lat="44.01796" lon="4.82259">
        <ele>71.186178</ele>
        <time>2025-02-03T14:32:08.003Z</time>
      </trkpt>
      <trkpt lat="44.01786" lon="4.82261">
        <ele>71.249893</ele>
        <time>2025-02-03T14:32:12.007Z</time>
      </trkpt>
      <trkpt lat="44.01776" lon="4.82262">
        <ele>71.308043</ele>
        <time>2025-02-03T14:32:16.999Z</time>
      </trkpt>
      <trkpt lat="44.01766" lon="4.82265">
        <ele>71.367777</ele>
        <time>2025-02-03T14:32:23.982Z</time>
      </trkpt>
      <trkpt lat="44.01758" lon="4.82272">
        <ele>71.422987</ele>
        <time>2025-02-03T14:32:34.000Z</time>
      </trkpt>
      <trkpt lat="44.01711" lon="4.82319">
        <ele>71.7726</ele>
        <time>2025-02-03T14:43:10.002Z</time>
      </trkpt>
      <trkpt lat="44.01703" lon="4.82329">
        <ele>71.831718</ele>
        <time>2025-02-03T14:43:13.998Z</time>
      </trkpt>
      <trkpt lat="44.01694" lon="4.8234">
        <ele>71.888737</ele>
        <time>2025-02-03T14:43:18.018Z</time>
      </trkpt>
      <trkpt lat="44.01686" lon="4.82349">
        <ele>71.91952</ele>
        <time>2025-02-03T14:43:21.005Z</time>
      </trkpt>
      <trkpt lat="44.01678" lon="4.82359">
        <ele>71.948806</ele>
        <time>2025-02-03T14:43:24.017Z</time>
      </trkpt>
      <trkpt lat="44.0167" lon="4.8237">
        <ele>71.980169</ele>
        <time>2025-02-03T14:43:27.000Z</time>
      </trkpt>
      <trkpt lat="44.01662" lon="4.8238">
        <ele>72.0105</ele>
        <time>2025-02-03T14:43:30.001Z</time>
      </trkpt>
      <trkpt lat="44.01655" lon="4.82392">
        <ele>72.042197</ele>
        <time>2025-02-03T14:43:33.007Z</time>
      </trkpt>
      <trkpt lat="44.01646" lon="4.82403">
        <ele>72.074939</ele>
        <time>2025-02-03T14:43:36.013Z</time>
      </trkpt>
      <trkpt lat="44.01638" lon="4.82414">
        <ele>72.107702</ele>
        <time>2025-02-03T14:43:39.006Z</time>
      </trkpt>
      <trkpt lat="44.01631" lon="4.82427">
        <ele>72.140865</ele>
        <time>2025-02-03T14:43:41.997Z</time>
      </trkpt>
      <trkpt lat="44.01624" lon="4.8244">
        <ele>72.173902</ele>
        <time>2025-02-03T14:43:45.011Z</time>
      </trkpt>
      <trkpt lat="44.01617" lon="4.82453">
        <ele>72.206731</ele>
        <time>2025-02-03T14:43:47.998Z</time>
      </trkpt>
      <trkpt lat="44.0161" lon="4.82466">
        <ele>72.239451</ele>
        <time>2025-02-03T14:43:50.998Z</time>
      </trkpt>
      <trkpt lat="44.01603" lon="4.82479">
        <ele>72.2736</ele>
        <time>2025-02-03T14:43:54.017Z</time>
      </trkpt>
      <trkpt lat="44.01596" lon="4.82493">
        <ele>72.307421</ele>
        <time>2025-02-03T14:43:57.000Z</time>
      </trkpt>
      <trkpt lat="44.01588" lon="4.82507">
        <ele>72.34306</ele>
        <time>2025-02-03T14:43:59.998Z</time>
      </trkpt>
      <trkpt lat="44.01581" lon="4.82522">
        <ele>72.378716</ele>
        <time>2025-02-03T14:44:03.002Z</time>
      </trkpt>
      <trkpt lat="44.01575" lon="4.82537">
        <ele>72.537273</ele>
        <time>2025-02-03T14:44:06.000Z</time>
      </trkpt>
      <trkpt lat="44.01569" lon="4.82552">
        <ele>72.711791</ele>
        <time>2025-02-03T14:44:09.006Z</time>
      </trkpt>
      <trkpt lat="44.01564" lon="4.82569">
        <ele>72.893052</ele>
        <time>2025-02-03T14:44:11.992Z</time>
      </trkpt>
      <trkpt lat="44.01557" lon="4.82585">
        <ele>73.077297</ele>
        <time>2025-02-03T14:44:14.982Z</time>
      </trkpt>
      <trkpt lat="44.01552" lon="4.82601">
        <ele>73.254406</ele>
        <time>2025-02-03T14:44:17.991Z</time>
      </trkpt>
      <trkpt lat="44.01546" lon="4.82616">
        <ele>73.425513</ele>
        <time>2025-02-03T14:44:20.997Z</time>
      </trkpt>
      <trkpt lat="44.01543" lon="4.82631">
        <ele>73.580988</ele>
        <time>2025-02-03T14:44:23.998Z</time>
      </trkpt>
      <trkpt lat="44.0154" lon="4.82645">
        <ele>73.725593</ele>
        <time>2025-02-03T14:44:26.982Z</time>
      </trkpt>
      <trkpt lat="44.01538" lon="4.82659">
        <ele>73.863341</ele>
        <time>2025-02-03T14:44:30.000Z</time>
      </trkpt>
      <trkpt lat="44.01536" lon="4.82671">
        <ele>73.99313</ele>
        <time>2025-02-03T14:44:33.009Z</time>
      </trkpt>
      <trkpt lat="44.01533" lon="4.82686">
        <ele>74.138289</ele>
        <time>2025-02-03T14:44:36.013Z</time>
      </trkpt>
      <trkpt lat="44.0153" lon="4.82702">
        <ele>74.307651</ele>
        <time>2025-02-03T14:44:39.019Z</time>
      </trkpt>
      <trkpt lat="44.01529" lon="4.82719">
        <ele>74.473524</ele>
        <time>2025-02-03T14:44:41.983Z</time>
      </trkpt>
      <trkpt lat="44.01527" lon="4.82736">
        <ele>74.643152</ele>
        <time>2025-02-03T14:44:45.008Z</time>
      </trkpt>
      <trkpt lat="44.01527" lon="4.82753">
        <ele>74.818383</ele>
        <time>2025-02-03T14:44:48.000Z</time>
      </trkpt>
      <trkpt lat="44.01527" lon="4.8277">
        <ele>74.863263</ele>
        <time>2025-02-03T14:44:51.000Z</time>
      </trkpt>
      <trkpt lat="44.01528" lon="4.82786">
        <ele>74.851416</ele>
        <time>2025-02-03T14:44:54.018Z</time>
      </trkpt>
      <trkpt lat="44.01529" lon="4.82803">
        <ele>74.839638</ele>
        <time>2025-02-03T14:44:57.012Z</time>
      </trkpt>
      <trkpt lat="44.01529" lon="4.82819">
        <ele>74.828168</ele>
        <time>2025-02-03T14:45:00.030Z</time>
      </trkpt>
      <trkpt lat="44.0153" lon="4.82835">
        <ele>74.816263</ele>
        <time>2025-02-03T14:45:02.994Z</time>
      </trkpt>
      <trkpt lat="44.01528" lon="4.82852">
        <ele>74.803724</ele>
        <time>2025-02-03T14:45:05.999Z</time>
      </trkpt>
      <trkpt lat="44.01524" lon="4.82869">
        <ele>74.791275</ele>
        <time>2025-02-03T14:45:09.010Z</time>
      </trkpt>
      <trkpt lat="44.01518" lon="4.82885">
        <ele>74.778821</ele>
        <time>2025-02-03T14:45:11.983Z</time>
      </trkpt>
      <trkpt lat="44.01512" lon="4.82899">
        <ele>74.766494</ele>
        <time>2025-02-03T14:45:15.019Z</time>
      </trkpt>
      <trkpt lat="44.01505" lon="4.82914">
        <ele>74.753917</ele>
        <time>2025-02-03T14:45:18.013Z</time>
      </trkpt>
      <trkpt lat="44.01499" lon="4.82929">
        <ele>74.7416</ele>
        <time>2025-02-03T14:45:20.981Z</time>
      </trkpt>
      <trkpt lat="44.01496" lon="4.82944">
        <ele>74.730093</ele>
        <time>2025-02-03T14:45:24.009Z</time>
      </trkpt>
      <trkpt lat="44.01494" lon="4.82962">
        <ele>74.717675</ele>
        <time>2025-02-03T14:45:26.987Z</time>
      </trkpt>
      <trkpt lat="44.01493" lon="4.82977">
        <ele>74.706776</ele>
        <time>2025-02-03T14:45:28.983Z</time>
      </trkpt>
      <trkpt lat="44.01489" lon="4.82994">
        <ele>74.693624</ele>
        <time>2025-02-03T14:45:31.003Z</time>
      </trkpt>
      <trkpt lat="44.01487" lon="4.83011">
        <ele>74.553378</ele>
        <time>2025-02-03T14:45:33.003Z</time>
      </trkpt>
      <trkpt lat="44.01481" lon="4.83028">
        <ele>74.384763</ele>
        <time>2025-02-03T14:45:35.001Z</time>
      </trkpt>
      <trkpt lat="44.01475" lon="4.83044">
        <ele>74.224301</ele>
        <time>2025-02-03T14:45:37.018Z</time>
      </trkpt>
      <trkpt lat="44.0147" lon="4.8306">
        <ele>74.066704</ele>
        <time>2025-02-03T14:45:39.002Z</time>
      </trkpt>
      <trkpt lat="44.01468" lon="4.83077">
        <ele>73.91212</ele>
        <time>2025-02-03T14:45:40.995Z</time>
      </trkpt>
      <trkpt lat="44.01464" lon="4.83092">
        <ele>73.761108</ele>
        <time>2025-02-03T14:45:43.003Z</time>
      </trkpt>
      <trkpt lat="44.01459" lon="4.83107">
        <ele>73.61382</ele>
        <time>2025-02-03T14:45:44.994Z</time>
      </trkpt>
      <trkpt lat="44.01456" lon="4.83122">
        <ele>73.469769</ele>
        <time>2025-02-03T14:45:46.979Z</time>
      </trkpt>
      <trkpt lat="44.01451" lon="4.83137">
        <ele>73.326976</ele>
        <time>2025-02-03T14:45:49.002Z</time>
      </trkpt>
      <trkpt lat="44.01447" lon="4.83151">
        <ele>73.185605</ele>
        <time>2025-02-03T14:45:50.981Z</time>
      </trkpt>
      <trkpt lat="44.01441" lon="4.83164">
        <ele>73.04682</ele>
        <time>2025-02-03T14:45:53.000Z</time>
      </trkpt>
      <trkpt lat="44.01436" lon="4.83178">
        <ele>72.908714</ele>
        <time>2025-02-03T14:45:54.999Z</time>
      </trkpt>
      <trkpt lat="44.01432" lon="4.83191">
        <ele>72.782919</ele>
        <time>2025-02-03T14:45:57.019Z</time>
      </trkpt>
      <trkpt lat="44.01433" lon="4.83203">
        <ele>72.665466</ele>
        <time>2025-02-03T14:45:58.999Z</time>
      </trkpt>
      <trkpt lat="44.01426" lon="4.83215">
        <ele>72.523029</ele>
        <time>2025-02-03T14:46:01.995Z</time>
      </trkpt>
      <trkpt lat="44.01414" lon="4.83219">
        <ele>72.492171</ele>
        <time>2025-02-03T14:46:04.995Z</time>
      </trkpt>
      <trkpt lat="44.01411" lon="4.83232">
        <ele>72.636206</ele>
        <time>2025-02-03T14:46:07.993Z</time>
      </trkpt>
      <trkpt lat="44.01408" lon="4.83245">
        <ele>72.791455</ele>
        <time>2025-02-03T14:46:11.010Z</time>
      </trkpt>
      <trkpt lat="44.01405" lon="4.83259">
        <ele>72.94316</ele>
        <time>2025-02-03T14:46:14.010Z</time>
      </trkpt>
      <trkpt lat="44.01403" lon="4.83272">
        <ele>73.090245</ele>
        <time>2025-02-03T14:46:17.005Z</time>
      </trkpt>
      <trkpt lat="44.014" lon="4.83288">
        <ele>73.265859</ele>
        <time>2025-02-03T14:46:21.015Z</time>
      </trkpt>
      <trkpt lat="44.01397" lon="4.83301">
        <ele>73.41963</ele>
        <time>2025-02-03T14:46:26.000Z</time>
      </trkpt>
      <trkpt lat="44.01388" lon="4.83297">
        <ele>73.565515</ele>
        <time>2025-02-03T14:47:13.992Z</time>
      </trkpt>
      <trkpt lat="44.01379" lon="4.83295">
        <ele>73.703256</ele>
        <time>2025-02-03T14:47:18.019Z</time>
      </trkpt>
      <trkpt lat="44.01368" lon="4.83291">
        <ele>73.871955</ele>
        <time>2025-02-03T14:47:23.006Z</time>
      </trkpt>
      <trkpt lat="44.01358" lon="4.83289">
        <ele>74.017487</ele>
        <time>2025-02-03T14:47:27.016Z</time>
      </trkpt>
      <trkpt lat="44.01349" lon="4.83287">
        <ele>74.159702</ele>
        <time>2025-02-03T14:47:30.997Z</time>
      </trkpt>
      <trkpt lat="44.01339" lon="4.83285">
        <ele>74.301875</ele>
        <time>2025-02-03T14:47:34.993Z</time>
      </trkpt>
      <trkpt lat="44.0133" lon="4.83283">
        <ele>74.448483</ele>
        <time>2025-02-03T14:47:39.003Z</time>
      </trkpt>
      <trkpt lat="44.0132" lon="4.8328">
        <ele>74.598647</ele>
        <time>2025-02-03T14:47:42.994Z</time>
      </trkpt>
      <trkpt lat="44.01309" lon="4.83277">
        <ele>74.759345</ele>
        <time>2025-02-03T14:47:46.998Z</time>
      </trkpt>
      <trkpt lat="44.01298" lon="4.83274">
        <ele>74.935416</ele>
        <time>2025-02-03T14:47:51.003Z</time>
      </trkpt>
      <trkpt lat="44.01287" lon="4.83271">
        <ele>75.110223</ele>
        <time>2025-02-03T14:47:55.027Z</time>
      </trkpt>
      <trkpt lat="44.01275" lon="4.83267">
        <ele>74.890862</ele>
        <time>2025-02-03T14:47:59.005Z</time>
      </trkpt>
      <trkpt lat="44.01265" lon="4.83265">
        <ele>74.67009</ele>
        <time>2025-02-03T14:48:01.998Z</time>
      </trkpt>
      <trkpt lat="44.01254" lon="4.83262">
        <ele>74.4306</ele>
        <time>2025-02-03T14:48:04.999Z</time>
      </trkpt>
      <trkpt lat="44.01241" lon="4.83258">
        <ele>74.142156</ele>
        <time>2025-02-03T14:48:08.005Z</time>
      </trkpt>
      <trkpt lat="44.01228" lon="4.83255">
        <ele>73.856162</ele>
        <time>2025-02-03T14:48:10.998Z</time>
      </trkpt>
      <trkpt lat="44.0122" lon="4.83252">
        <ele>73.656371</ele>
        <time>2025-02-03T14:48:14.009Z</time>
      </trkpt>
      <trkpt lat="44.01215" lon="4.8324">
        <ele>73.4293</ele>
        <time>2025-02-03T14:48:21.989Z</time>
      </trkpt>
      <trkpt lat="44.01218" lon="4.83228">
        <ele>73.228574</ele>
        <time>2025-02-03T14:48:27.998Z</time>
      </trkpt>
      <trkpt lat="44.01219" lon="4.83213">
        <ele>72.988023</ele>
        <time>2025-02-03T14:50:34.999Z</time>
      </trkpt>
      <trkpt lat="44.01222" lon="4.832">
        <ele>72.780554</ele>
        <time>2025-02-03T14:50:37.988Z</time>
      </trkpt>
      <trkpt lat="44.01225" lon="4.83184">
        <ele>72.524019</ele>
        <time>2025-02-03T14:50:42.010Z</time>
      </trkpt>
      <trkpt lat="44.01228" lon="4.83172">
        <ele>72.322977</ele>
        <time>2025-02-03T14:50:44.998Z</time>
      </trkpt>
      <trkpt lat="44.01231" lon="4.8316">
        <ele>72.119992</ele>
        <time>2025-02-03T14:50:48.014Z</time>
      </trkpt>
      <trkpt lat="44.01235" lon="4.83145">
        <ele>71.859762</ele>
        <time>2025-02-03T14:50:51.996Z</time>
      </trkpt>
      <trkpt lat="44.01238" lon="4.83133">
        <ele>71.658304</ele>
        <time>2025-02-03T14:50:54.993Z</time>
      </trkpt>
      <trkpt lat="44.01242" lon="4.8312">
        <ele>71.439249</ele>
        <time>2025-02-03T14:50:57.997Z</time>
      </trkpt>
      <trkpt lat="44.01246" lon="4.83107">
        <ele>71.2281</ele>
        <time>2025-02-03T14:51:00.998Z</time>
      </trkpt>
      <trkpt lat="44.01249" lon="4.83096">
        <ele>71.246204</ele>
        <time>2025-02-03T14:51:04.014Z</time>
      </trkpt>
      <trkpt lat="44.01253" lon="4.83083">
        <ele>71.340208</ele>
        <time>2025-02-03T14:51:06.998Z</time>
      </trkpt>
      <trkpt lat="44.01256" lon="4.83071">
        <ele>71.436865</ele>
        <time>2025-02-03T14:51:09.996Z</time>
      </trkpt>
      <trkpt lat="44.01258" lon="4.83057">
        <ele>71.536202</ele>
        <time>2025-02-03T14:51:13.009Z</time>
      </trkpt>
      <trkpt lat="44.01256" lon="4.83042">
        <ele>71.638634</ele>
        <time>2025-02-03T14:51:15.985Z</time>
      </trkpt>
      <trkpt lat="44.01256" lon="4.83029">
        <ele>71.736949</ele>
        <time>2025-02-03T14:51:18.993Z</time>
      </trkpt>
      <trkpt lat="44.01254" lon="4.83015">
        <ele>71.834883</ele>
        <time>2025-02-03T14:51:22.000Z</time>
      </trkpt>
      <trkpt lat="44.01253" lon="4.83001">
        <ele>71.932962</ele>
        <time>2025-02-03T14:51:25.007Z</time>
      </trkpt>
      <trkpt lat="44.01252" lon="4.82987">
        <ele>72.0381</ele>
        <time>2025-02-03T14:51:27.994Z</time>
      </trkpt>
      <trkpt lat="44.0125" lon="4.82971">
        <ele>72.146881</ele>
        <time>2025-02-03T14:51:30.992Z</time>
      </trkpt>
      <trkpt lat="44.0125" lon="4.82956">
        <ele>72.258524</ele>
        <time>2025-02-03T14:51:33.984Z</time>
      </trkpt>
      <trkpt lat="44.0125" lon="4.82939">
        <ele>72.376493</ele>
        <time>2025-02-03T14:51:37.003Z</time>
      </trkpt>
      <trkpt lat="44.01251" lon="4.82924">
        <ele>72.487088</ele>
        <time>2025-02-03T14:51:40.037Z</time>
      </trkpt>
      <trkpt lat="44.01251" lon="4.82907">
        <ele>72.605094</ele>
        <time>2025-02-03T14:51:42.994Z</time>
      </trkpt>
      <trkpt lat="44.0125" lon="4.82894">
        <ele>72.701626</ele>
        <time>2025-02-03T14:51:45.996Z</time>
      </trkpt>
      <trkpt lat="44.01246" lon="4.8288">
        <ele>72.804075</ele>
        <time>2025-02-03T14:51:49.989Z</time>
      </trkpt>
      <trkpt lat="44.01238" lon="4.8287">
        <ele>72.906981</ele>
        <time>2025-02-03T14:51:53.996Z</time>
      </trkpt>
      <trkpt lat="44.01228" lon="4.82863">
        <ele>72.940479</ele>
        <time>2025-02-03T14:51:57.982Z</time>
      </trkpt>
      <trkpt lat="44.0122" lon="4.82855">
        <ele>72.921161</ele>
        <time>2025-02-03T14:52:01.015Z</time>
      </trkpt>
      <trkpt lat="44.01214" lon="4.82845">
        <ele>72.901709</ele>
        <time>2025-02-03T14:52:03.992Z</time>
      </trkpt>
      <trkpt lat="44.01208" lon="4.82835">
        <ele>72.880991</ele>
        <time>2025-02-03T14:52:07.017Z</time>
      </trkpt>
      <trkpt lat="44.01201" lon="4.82824">
        <ele>72.859112</ele>
        <time>2025-02-03T14:52:10.009Z</time>
      </trkpt>
      <trkpt lat="44.01194" lon="4.82812">
        <ele>72.83613</ele>
        <time>2025-02-03T14:52:13.003Z</time>
      </trkpt>
      <trkpt lat="44.01189" lon="4.828">
        <ele>72.814203</ele>
        <time>2025-02-03T14:52:15.987Z</time>
      </trkpt>
      <trkpt lat="44.01193" lon="4.82784">
        <ele>72.789946</ele>
        <time>2025-02-03T14:52:18.998Z</time>
      </trkpt>
      <trkpt lat="44.01199" lon="4.82771">
        <ele>72.766287</ele>
        <time>2025-02-03T14:52:21.998Z</time>
      </trkpt>
      <trkpt lat="44.01201" lon="4.82755">
        <ele>72.741562</ele>
        <time>2025-02-03T14:52:24.992Z</time>
      </trkpt>
      <trkpt lat="44.01199" lon="4.82739">
        <ele>72.716751</ele>
        <time>2025-02-03T14:52:27.991Z</time>
      </trkpt>
      <trkpt lat="44.01196" lon="4.82724">
        <ele>72.693898</ele>
        <time>2025-02-03T14:52:30.995Z</time>
      </trkpt>
      <trkpt lat="44.01195" lon="4.8271">
        <ele>72.671864</ele>
        <time>2025-02-03T14:52:34.008Z</time>
      </trkpt>
      <trkpt lat="44.01193" lon="4.82696">
        <ele>72.649831</ele>
        <time>2025-02-03T14:52:37.009Z</time>
      </trkpt>
      <trkpt lat="44.01193" lon="4.82683">
        <ele>72.630404</ele>
        <time>2025-02-03T14:52:40.016Z</time>
      </trkpt>
      <trkpt lat="44.01196" lon="4.82671">
        <ele>72.610968</ele>
        <time>2025-02-03T14:52:42.988Z</time>
      </trkpt>
      <trkpt lat="44.01199" lon="4.82655">
        <ele>72.585799</ele>
        <time>2025-02-03T14:52:46.996Z</time>
      </trkpt>
      <trkpt lat="44.01196" lon="4.8264">
        <ele>72.489821</ele>
        <time>2025-02-03T14:52:49.990Z</time>
      </trkpt>
      <trkpt lat="44.01191" lon="4.82624">
        <ele>72.315022</ele>
        <time>2025-02-03T14:52:52.987Z</time>
      </trkpt>
      <trkpt lat="44.01187" lon="4.82612">
        <ele>72.184312</ele>
        <time>2025-02-03T14:52:54.992Z</time>
      </trkpt>
      <trkpt lat="44.01184" lon="4.826">
        <ele>72.049255</ele>
        <time>2025-02-03T14:52:57.006Z</time>
      </trkpt>
      <trkpt lat="44.01179" lon="4.82587">
        <ele>71.904969</ele>
        <time>2025-02-03T14:52:58.977Z</time>
      </trkpt>
      <trkpt lat="44.01175" lon="4.82574">
        <ele>71.759191</ele>
        <time>2025-02-03T14:53:00.984Z</time>
      </trkpt>
      <trkpt lat="44.0117" lon="4.82559">
        <ele>71.599478</ele>
        <time>2025-02-03T14:53:03.028Z</time>
      </trkpt>
      <trkpt lat="44.01165" lon="4.82544">
        <ele>71.43291</ele>
        <time>2025-02-03T14:53:04.997Z</time>
      </trkpt>
      <trkpt lat="44.0116" lon="4.82529">
        <ele>71.263936</ele>
        <time>2025-02-03T14:53:06.996Z</time>
      </trkpt>
      <trkpt lat="44.01155" lon="4.82514">
        <ele>71.099431</ele>
        <time>2025-02-03T14:53:08.978Z</time>
      </trkpt>
      <trkpt lat="44.0115" lon="4.82499">
        <ele>70.935894</ele>
        <time>2025-02-03T14:53:10.972Z</time>
      </trkpt>
      <trkpt lat="44.01145" lon="4.82484">
        <ele>70.767832</ele>
        <time>2025-02-03T14:53:13.002Z</time>
      </trkpt>
      <trkpt lat="44.0114" lon="4.82469">
        <ele>70.60628</ele>
        <time>2025-02-03T14:53:15.003Z</time>
      </trkpt>
      <trkpt lat="44.01136" lon="4.82455">
        <ele>70.447248</ele>
        <time>2025-02-03T14:53:16.983Z</time>
      </trkpt>
      <trkpt lat="44.01131" lon="4.82441">
        <ele>70.292438</ele>
        <time>2025-02-03T14:53:18.989Z</time>
      </trkpt>
      <trkpt lat="44.01126" lon="4.82428">
        <ele>70.144484</ele>
        <time>2025-02-03T14:53:20.990Z</time>
      </trkpt>
      <trkpt lat="44.0112" lon="4.82415">
        <ele>70.067759</ele>
        <time>2025-02-03T14:53:23.002Z</time>
      </trkpt>
      <trkpt lat="44.01114" lon="4.82404">
        <ele>70.063739</ele>
        <time>2025-02-03T14:53:25.003Z</time>
      </trkpt>
      <trkpt lat="44.01107" lon="4.82394">
        <ele>70.059947</ele>
        <time>2025-02-03T14:53:26.996Z</time>
      </trkpt>
      <trkpt lat="44.01099" lon="4.82386">
        <ele>70.056118</ele>
        <time>2025-02-03T14:53:28.990Z</time>
      </trkpt>
      <trkpt lat="44.01091" lon="4.82378">
        <ele>70.052339</ele>
        <time>2025-02-03T14:53:30.987Z</time>
      </trkpt>
      <trkpt lat="44.01082" lon="4.82372">
        <ele>70.048521</ele>
        <time>2025-02-03T14:53:32.979Z</time>
      </trkpt>
      <trkpt lat="44.01073" lon="4.82368">
        <ele>70.044879</ele>
        <time>2025-02-03T14:53:34.987Z</time>
      </trkpt>
      <trkpt lat="44.01064" lon="4.82366">
        <ele>70.041277</ele>
        <time>2025-02-03T14:53:36.986Z</time>
      </trkpt>
      <trkpt lat="44.01055" lon="4.82363">
        <ele>70.037641</ele>
        <time>2025-02-03T14:53:38.988Z</time>
      </trkpt>
      <trkpt lat="44.01045" lon="4.82362">
        <ele>70.033902</ele>
        <time>2025-02-03T14:53:40.990Z</time>
      </trkpt>
      <trkpt lat="44.01036" lon="4.82361">
        <ele>70.030224</ele>
        <time>2025-02-03T14:53:42.994Z</time>
      </trkpt>
      <trkpt lat="44.01027" lon="4.82359">
        <ele>70.02667</ele>
        <time>2025-02-03T14:53:44.999Z</time>
      </trkpt>
      <trkpt lat="44.01017" lon="4.82358">
        <ele>70.022999</ele>
        <time>2025-02-03T14:53:46.998Z</time>
      </trkpt>
      <trkpt lat="44.01004" lon="4.82357">
        <ele>70.017713</ele>
        <time>2025-02-03T14:53:50.007Z</time>
      </trkpt>
      <trkpt lat="44.0099" lon="4.82356">
        <ele>70.012349</ele>
        <time>2025-02-03T14:53:52.991Z</time>
      </trkpt>
      <trkpt lat="44.00977" lon="4.82356">
        <ele>70.00718</ele>
        <time>2025-02-03T14:53:55.991Z</time>
      </trkpt>
      <trkpt lat="44.00964" lon="4.82354">
        <ele>70.00217</ele>
        <time>2025-02-03T14:53:58.993Z</time>
      </trkpt>
      <trkpt lat="44.00955" lon="4.82353">
        <ele>70.014264</ele>
        <time>2025-02-03T14:54:00.998Z</time>
      </trkpt>
      <trkpt lat="44.00946" lon="4.82352">
        <ele>70.050703</ele>
        <time>2025-02-03T14:54:03.014Z</time>
      </trkpt>
      <trkpt lat="44.00936" lon="4.82351">
        <ele>70.087404</ele>
        <time>2025-02-03T14:54:04.994Z</time>
      </trkpt>
      <trkpt lat="44.00923" lon="4.8235">
        <ele>70.139237</ele>
        <time>2025-02-03T14:54:07.988Z</time>
      </trkpt>
      <trkpt lat="44.00914" lon="4.82349">
        <ele>70.174783</ele>
        <time>2025-02-03T14:54:09.996Z</time>
      </trkpt>
      <trkpt lat="44.00905" lon="4.82349">
        <ele>70.211855</ele>
        <time>2025-02-03T14:54:11.988Z</time>
      </trkpt>
      <trkpt lat="44.00896" lon="4.82349">
        <ele>70.248139</ele>
        <time>2025-02-03T14:54:14.017Z</time>
      </trkpt>
      <trkpt lat="44.00886" lon="4.8235">
        <ele>70.284052</ele>
        <time>2025-02-03T14:54:15.994Z</time>
      </trkpt>
      <trkpt lat="44.00877" lon="4.8235">
        <ele>70.31956</ele>
        <time>2025-02-03T14:54:18.019Z</time>
      </trkpt>
      <trkpt lat="44.00864" lon="4.8235">
        <ele>70.372011</ele>
        <time>2025-02-03T14:54:21.010Z</time>
      </trkpt>
      <trkpt lat="44.00855" lon="4.82352">
        <ele>70.407664</ele>
        <time>2025-02-03T14:54:22.989Z</time>
      </trkpt>
      <trkpt lat="44.00842" lon="4.82352">
        <ele>70.460961</ele>
        <time>2025-02-03T14:54:25.988Z</time>
      </trkpt>
      <trkpt lat="44.00828" lon="4.82354">
        <ele>70.513684</ele>
        <time>2025-02-03T14:54:29.010Z</time>
      </trkpt>
      <trkpt lat="44.00815" lon="4.82356">
        <ele>70.565653</ele>
        <time>2025-02-03T14:54:31.991Z</time>
      </trkpt>
      <trkpt lat="44.00802" lon="4.82358">
        <ele>70.617564</ele>
        <time>2025-02-03T14:54:34.968Z</time>
      </trkpt>
      <trkpt lat="44.00793" lon="4.82359">
        <ele>70.654277</ele>
        <time>2025-02-03T14:54:36.968Z</time>
      </trkpt>
      <trkpt lat="44.00779" lon="4.82361">
        <ele>70.707555</ele>
        <time>2025-02-03T14:54:39.994Z</time>
      </trkpt>
      <trkpt lat="44.00766" lon="4.82363">
        <ele>70.730855</ele>
        <time>2025-02-03T14:54:42.993Z</time>
      </trkpt>
      <trkpt lat="44.00752" lon="4.82363">
        <ele>70.753585</ele>
        <time>2025-02-03T14:54:46.014Z</time>
      </trkpt>
      <trkpt lat="44.00743" lon="4.82364">
        <ele>70.768706</ele>
        <time>2025-02-03T14:54:48.013Z</time>
      </trkpt>
      <trkpt lat="44.00734" lon="4.82366">
        <ele>70.784148</ele>
        <time>2025-02-03T14:54:49.998Z</time>
      </trkpt>
      <trkpt lat="44.00721" lon="4.82368">
        <ele>70.806675</ele>
        <time>2025-02-03T14:54:53.000Z</time>
      </trkpt>
      <trkpt lat="44.00712" lon="4.8237">
        <ele>70.821771</ele>
        <time>2025-02-03T14:54:54.993Z</time>
      </trkpt>
      <trkpt lat="44.00702" lon="4.82372">
        <ele>70.837448</ele>
        <time>2025-02-03T14:54:57.022Z</time>
      </trkpt>
      <trkpt lat="44.00693" lon="4.82372">
        <ele>70.852734</ele>
        <time>2025-02-03T14:54:59.005Z</time>
      </trkpt>
      <trkpt lat="44.00684" lon="4.82374">
        <ele>70.868141</ele>
        <time>2025-02-03T14:55:00.996Z</time>
      </trkpt>
      <trkpt lat="44.00675" lon="4.82375">
        <ele>70.883104</ele>
        <time>2025-02-03T14:55:03.006Z</time>
      </trkpt>
      <trkpt lat="44.00666" lon="4.82376">
        <ele>70.898052</ele>
        <time>2025-02-03T14:55:04.998Z</time>
      </trkpt>
      <trkpt lat="44.00657" lon="4.82377">
        <ele>70.913346</ele>
        <time>2025-02-03T14:55:06.993Z</time>
      </trkpt>
      <trkpt lat="44.00643" lon="4.82378">
        <ele>70.935606</ele>
        <time>2025-02-03T14:55:09.986Z</time>
      </trkpt>
      <trkpt lat="44.0063" lon="4.8238">
        <ele>70.957667</ele>
        <time>2025-02-03T14:55:13.002Z</time>
      </trkpt>
      <trkpt lat="44.00617" lon="4.82382">
        <ele>70.979851</ele>
        <time>2025-02-03T14:55:16.006Z</time>
      </trkpt>
      <trkpt lat="44.00604" lon="4.82384">
        <ele>71.001329</ele>
        <time>2025-02-03T14:55:18.979Z</time>
      </trkpt>
      <trkpt lat="44.00591" lon="4.82386">
        <ele>71.027114</ele>
        <time>2025-02-03T14:55:21.995Z</time>
      </trkpt>
      <trkpt lat="44.00578" lon="4.82387">
        <ele>71.053875</ele>
        <time>2025-02-03T14:55:24.989Z</time>
      </trkpt>
      <trkpt lat="44.00565" lon="4.82389">
        <ele>71.081157</ele>
        <time>2025-02-03T14:55:27.994Z</time>
      </trkpt>
      <trkpt lat="44.00553" lon="4.82391">
        <ele>71.108154</ele>
        <time>2025-02-03T14:55:30.994Z</time>
      </trkpt>
      <trkpt lat="44.00544" lon="4.82392">
        <ele>71.127353</ele>
        <time>2025-02-03T14:55:33.006Z</time>
      </trkpt>
      <trkpt lat="44.00534" lon="4.82393">
        <ele>71.147122</ele>
        <time>2025-02-03T14:55:35.003Z</time>
      </trkpt>
      <trkpt lat="44.00521" lon="4.82395">
        <ele>71.174778</ele>
        <time>2025-02-03T14:55:38.002Z</time>
      </trkpt>
      <trkpt lat="44.00509" lon="4.82396">
        <ele>71.202136</ele>
        <time>2025-02-03T14:55:40.994Z</time>
      </trkpt>
      <trkpt lat="44.00495" lon="4.82398">
        <ele>71.230944</ele>
        <time>2025-02-03T14:55:43.996Z</time>
      </trkpt>
      <trkpt lat="44.00482" lon="4.824">
        <ele>71.259489</ele>
        <time>2025-02-03T14:55:46.989Z</time>
      </trkpt>
      <trkpt lat="44.00468" lon="4.82401">
        <ele>71.287481</ele>
        <time>2025-02-03T14:55:49.999Z</time>
      </trkpt>
      <trkpt lat="44.00459" lon="4.82402">
        <ele>71.306646</ele>
        <time>2025-02-03T14:55:52.019Z</time>
      </trkpt>
      <trkpt lat="44.00446" lon="4.82404">
        <ele>71.334897</ele>
        <time>2025-02-03T14:55:55.008Z</time>
      </trkpt>
      <trkpt lat="44.00437" lon="4.82405">
        <ele>71.354062</ele>
        <time>2025-02-03T14:55:56.991Z</time>
      </trkpt>
      <trkpt lat="44.00424" lon="4.82406">
        <ele>71.382748</ele>
        <time>2025-02-03T14:56:00.007Z</time>
      </trkpt>
      <trkpt lat="44.0041" lon="4.82409">
        <ele>71.379218</ele>
        <time>2025-02-03T14:56:02.989Z</time>
      </trkpt>
      <trkpt lat="44.00401" lon="4.8241">
        <ele>71.371265</ele>
        <time>2025-02-03T14:56:04.989Z</time>
      </trkpt>
      <trkpt lat="44.00392" lon="4.82411">
        <ele>71.363304</ele>
        <time>2025-02-03T14:56:07.011Z</time>
      </trkpt>
      <trkpt lat="44.00379" lon="4.82413">
        <ele>71.351626</ele>
        <time>2025-02-03T14:56:10.013Z</time>
      </trkpt>
      <trkpt lat="44.0037" lon="4.82414">
        <ele>71.34369</ele>
        <time>2025-02-03T14:56:12.001Z</time>
      </trkpt>
      <trkpt lat="44.00357" lon="4.82417">
        <ele>71.331972</ele>
        <time>2025-02-03T14:56:15.002Z</time>
      </trkpt>
      <trkpt lat="44.00348" lon="4.82418">
        <ele>71.32387</ele>
        <time>2025-02-03T14:56:16.996Z</time>
      </trkpt>
      <trkpt lat="44.00334" lon="4.82419">
        <ele>71.311888</ele>
        <time>2025-02-03T14:56:20.003Z</time>
      </trkpt>
      <trkpt lat="44.00325" lon="4.8242">
        <ele>71.303585</ele>
        <time>2025-02-03T14:56:21.991Z</time>
      </trkpt>
      <trkpt lat="44.00315" lon="4.82422">
        <ele>71.2952</ele>
        <time>2025-02-03T14:56:23.993Z</time>
      </trkpt>
      <trkpt lat="44.00306" lon="4.82423">
        <ele>71.287006</ele>
        <time>2025-02-03T14:56:26.003Z</time>
      </trkpt>
      <trkpt lat="44.00293" lon="4.82425">
        <ele>71.275233</ele>
        <time>2025-02-03T14:56:29.011Z</time>
      </trkpt>
      <trkpt lat="44.00279" lon="4.82427">
        <ele>71.263286</ele>
        <time>2025-02-03T14:56:32.007Z</time>
      </trkpt>
      <trkpt lat="44.0027" lon="4.82428">
        <ele>71.255339</ele>
        <time>2025-02-03T14:56:34.003Z</time>
      </trkpt>
      <trkpt lat="44.00261" lon="4.8243">
        <ele>71.247029</ele>
        <time>2025-02-03T14:56:35.992Z</time>
      </trkpt>
      <trkpt lat="44.00252" lon="4.82431">
        <ele>71.238807</ele>
        <time>2025-02-03T14:56:37.991Z</time>
      </trkpt>
      <trkpt lat="44.00242" lon="4.82432">
        <ele>71.230793</ele>
        <time>2025-02-03T14:56:39.993Z</time>
      </trkpt>
      <trkpt lat="44.00233" lon="4.82434">
        <ele>71.216829</ele>
        <time>2025-02-03T14:56:41.996Z</time>
      </trkpt>
      <trkpt lat="44.00224" lon="4.82435">
        <ele>71.202978</ele>
        <time>2025-02-03T14:56:44.001Z</time>
      </trkpt>
      <trkpt lat="44.00215" lon="4.82436">
        <ele>71.189454</ele>
        <time>2025-02-03T14:56:45.990Z</time>
      </trkpt>
      <trkpt lat="44.00201" lon="4.82437">
        <ele>71.169317</ele>
        <time>2025-02-03T14:56:48.995Z</time>
      </trkpt>
      <trkpt lat="44.00192" lon="4.82439">
        <ele>71.154969</ele>
        <time>2025-02-03T14:56:50.999Z</time>
      </trkpt>
      <trkpt lat="44.00183" lon="4.8244">
        <ele>71.141138</ele>
        <time>2025-02-03T14:56:53.009Z</time>
      </trkpt>
      <trkpt lat="44.00174" lon="4.82441">
        <ele>71.127315</ele>
        <time>2025-02-03T14:56:54.996Z</time>
      </trkpt>
      <trkpt lat="44.00164" lon="4.82442">
        <ele>71.112877</ele>
        <time>2025-02-03T14:56:56.991Z</time>
      </trkpt>
      <trkpt lat="44.00155" lon="4.82444">
        <ele>71.098897</ele>
        <time>2025-02-03T14:56:58.998Z</time>
      </trkpt>
      <trkpt lat="44.00146" lon="4.82445">
        <ele>71.085354</ele>
        <time>2025-02-03T14:57:00.992Z</time>
      </trkpt>
      <trkpt lat="44.00136" lon="4.82446">
        <ele>71.07124</ele>
        <time>2025-02-03T14:57:02.986Z</time>
      </trkpt>
      <trkpt lat="44.00127" lon="4.82446">
        <ele>71.056984</ele>
        <time>2025-02-03T14:57:05.003Z</time>
      </trkpt>
      <trkpt lat="44.00117" lon="4.82447">
        <ele>71.042594</ele>
        <time>2025-02-03T14:57:06.991Z</time>
      </trkpt>
      <trkpt lat="44.00104" lon="4.82448">
        <ele>71.022363</ele>
        <time>2025-02-03T14:57:10.014Z</time>
      </trkpt>
      <trkpt lat="44.00094" lon="4.82448">
        <ele>71.007664</ele>
        <time>2025-02-03T14:57:12.011Z</time>
      </trkpt>
      <trkpt lat="44.00084" lon="4.82449">
        <ele>70.993569</ele>
        <time>2025-02-03T14:57:14.008Z</time>
      </trkpt>
      <trkpt lat="44.00075" lon="4.82449">
        <ele>70.979487</ele>
        <time>2025-02-03T14:57:15.993Z</time>
      </trkpt>
      <trkpt lat="44.00066" lon="4.82449">
        <ele>70.965253</ele>
        <time>2025-02-03T14:57:17.994Z</time>
      </trkpt>
      <trkpt lat="44.00052" lon="4.82449">
        <ele>70.917963</ele>
        <time>2025-02-03T14:57:20.986Z</time>
      </trkpt>
      <trkpt lat="44.00039" lon="4.82448">
        <ele>70.863032</ele>
        <time>2025-02-03T14:57:24.003Z</time>
      </trkpt>
      <trkpt lat="44.0003" lon="4.82448">
        <ele>70.823153</ele>
        <time>2025-02-03T14:57:25.982Z</time>
      </trkpt>
      <trkpt lat="44.0002" lon="4.82447">
        <ele>70.785322</ele>
        <time>2025-02-03T14:57:28.004Z</time>
      </trkpt>
      <trkpt lat="44.00011" lon="4.82446">
        <ele>70.747031</ele>
        <time>2025-02-03T14:57:29.996Z</time>
      </trkpt>
      <trkpt lat="44.00002" lon="4.82446">
        <ele>70.707151</ele>
        <time>2025-02-03T14:57:32.012Z</time>
      </trkpt>
      <trkpt lat="43.99992" lon="4.82446">
        <ele>70.668102</ele>
        <time>2025-02-03T14:57:34.003Z</time>
      </trkpt>
      <trkpt lat="43.99979" lon="4.82446">
        <ele>70.613682</ele>
        <time>2025-02-03T14:57:37.017Z</time>
      </trkpt>
      <trkpt lat="43.99966" lon="4.82445">
        <ele>70.559212</ele>
        <time>2025-02-03T14:57:39.989Z</time>
      </trkpt>
      <trkpt lat="43.99957" lon="4.82445">
        <ele>70.520164</ele>
        <time>2025-02-03T14:57:41.990Z</time>
      </trkpt>
      <trkpt lat="43.99947" lon="4.82444">
        <ele>70.481416</ele>
        <time>2025-02-03T14:57:43.999Z</time>
      </trkpt>
      <trkpt lat="43.99934" lon="4.82443">
        <ele>70.424374</ele>
        <time>2025-02-03T14:57:46.993Z</time>
      </trkpt>
      <trkpt lat="43.99924" lon="4.82441">
        <ele>70.38348</ele>
        <time>2025-02-03T14:57:49.011Z</time>
      </trkpt>
      <trkpt lat="43.9991" lon="4.82441">
        <ele>70.327372</ele>
        <time>2025-02-03T14:57:51.982Z</time>
      </trkpt>
      <trkpt lat="43.99901" lon="4.8244">
        <ele>70.287007</ele>
        <time>2025-02-03T14:57:54.004Z</time>
      </trkpt>
      <trkpt lat="43.99891" lon="4.82439">
        <ele>70.247703</ele>
        <time>2025-02-03T14:57:55.988Z</time>
      </trkpt>
      <trkpt lat="43.99882" lon="4.82437">
        <ele>70.213021</ele>
        <time>2025-02-03T14:57:57.990Z</time>
      </trkpt>
      <trkpt lat="43.99872" lon="4.82436">
        <ele>70.206707</ele>
        <time>2025-02-03T14:57:59.989Z</time>
      </trkpt>
      <trkpt lat="43.99859" lon="4.82434">
        <ele>70.198145</ele>
        <time>2025-02-03T14:58:03.002Z</time>
      </trkpt>
      <trkpt lat="43.9985" lon="4.82432">
        <ele>70.192263</ele>
        <time>2025-02-03T14:58:05.012Z</time>
      </trkpt>
      <trkpt lat="43.99837" lon="4.82429">
        <ele>70.18386</ele>
        <time>2025-02-03T14:58:08.004Z</time>
      </trkpt>
      <trkpt lat="43.99828" lon="4.82427">
        <ele>70.178105</ele>
        <time>2025-02-03T14:58:09.994Z</time>
      </trkpt>
      <trkpt lat="43.99818" lon="4.82425">
        <ele>70.171663</ele>
        <time>2025-02-03T14:58:11.994Z</time>
      </trkpt>
      <trkpt lat="43.99809" lon="4.82423">
        <ele>70.165703</ele>
        <time>2025-02-03T14:58:14.002Z</time>
      </trkpt>
      <trkpt lat="43.99799" lon="4.82421">
        <ele>70.159547</ele>
        <time>2025-02-03T14:58:16.012Z</time>
      </trkpt>
      <trkpt lat="43.99789" lon="4.82419">
        <ele>70.153202</ele>
        <time>2025-02-03T14:58:18.008Z</time>
      </trkpt>
      <trkpt lat="43.9978" lon="4.82417">
        <ele>70.147038</ele>
        <time>2025-02-03T14:58:19.966Z</time>
      </trkpt>
      <trkpt lat="43.99771" lon="4.82415">
        <ele>70.141008</ele>
        <time>2025-02-03T14:58:21.995Z</time>
      </trkpt>
      <trkpt lat="43.99761" lon="4.82413">
        <ele>70.135112</ele>
        <time>2025-02-03T14:58:24.015Z</time>
      </trkpt>
      <trkpt lat="43.99752" lon="4.82411">
        <ele>70.12916</ele>
        <time>2025-02-03T14:58:25.994Z</time>
      </trkpt>
      <trkpt lat="43.99743" lon="4.82408">
        <ele>70.122954</ele>
        <time>2025-02-03T14:58:27.979Z</time>
      </trkpt>
      <trkpt lat="43.99734" lon="4.82406">
        <ele>70.117027</ele>
        <time>2025-02-03T14:58:29.999Z</time>
      </trkpt>
      <trkpt lat="43.99724" lon="4.82404">
        <ele>70.111081</ele>
        <time>2025-02-03T14:58:32.007Z</time>
      </trkpt>
      <trkpt lat="43.99715" lon="4.82402">
        <ele>70.105099</ele>
        <time>2025-02-03T14:58:34.017Z</time>
      </trkpt>
      <trkpt lat="43.99706" lon="4.824">
        <ele>70.099032</ele>
        <time>2025-02-03T14:58:35.995Z</time>
      </trkpt>
      <trkpt lat="43.99696" lon="4.82398">
        <ele>70.110829</ele>
        <time>2025-02-03T14:58:37.993Z</time>
      </trkpt>
      <trkpt lat="43.99687" lon="4.82395">
        <ele>70.123166</ele>
        <time>2025-02-03T14:58:39.995Z</time>
      </trkpt>
      <trkpt lat="43.99678" lon="4.82393">
        <ele>70.135746</ele>
        <time>2025-02-03T14:58:42.016Z</time>
      </trkpt>
      <trkpt lat="43.99669" lon="4.82391">
        <ele>70.147791</ele>
        <time>2025-02-03T14:58:44.016Z</time>
      </trkpt>
      <trkpt lat="43.99656" lon="4.82388">
        <ele>70.165052</ele>
        <time>2025-02-03T14:58:46.995Z</time>
      </trkpt>
      <trkpt lat="43.99643" lon="4.82385">
        <ele>70.181733</ele>
        <time>2025-02-03T14:58:49.997Z</time>
      </trkpt>
      <trkpt lat="43.99632" lon="4.82382">
        <ele>70.196475</ele>
        <time>2025-02-03T14:58:52.993Z</time>
      </trkpt>
      <trkpt lat="43.99623" lon="4.8238">
        <ele>70.209534</ele>
        <time>2025-02-03T14:58:55.986Z</time>
      </trkpt>
      <trkpt lat="43.99616" lon="4.82369">
        <ele>70.223764</ele>
        <time>2025-02-03T14:58:59.991Z</time>
      </trkpt>
      <trkpt lat="43.99614" lon="4.82355">
        <ele>70.237409</ele>
        <time>2025-02-03T14:59:02.981Z</time>
      </trkpt>
      <trkpt lat="43.99603" lon="4.82347">
        <ele>70.253456</ele>
        <time>2025-02-03T14:59:05.985Z</time>
      </trkpt>
      <trkpt lat="43.9959" lon="4.82346">
        <ele>70.270435</ele>
        <time>2025-02-03T14:59:08.981Z</time>
      </trkpt>
      <trkpt lat="43.99581" lon="4.82344">
        <ele>70.282436</ele>
        <time>2025-02-03T14:59:10.995Z</time>
      </trkpt>
      <trkpt lat="43.99572" lon="4.82344">
        <ele>70.294581</ele>
        <time>2025-02-03T14:59:12.974Z</time>
      </trkpt>
      <trkpt lat="43.99558" lon="4.82343">
        <ele>70.312423</ele>
        <time>2025-02-03T14:59:15.995Z</time>
      </trkpt>
      <trkpt lat="43.99545" lon="4.82342">
        <ele>70.329632</ele>
        <time>2025-02-03T14:59:18.994Z</time>
      </trkpt>
      <trkpt lat="43.99533" lon="4.82335">
        <ele>70.49099</ele>
        <time>2025-02-03T14:59:21.987Z</time>
      </trkpt>
      <trkpt lat="43.99526" lon="4.82326">
        <ele>70.657146</ele>
        <time>2025-02-03T14:59:23.984Z</time>
      </trkpt>
      <trkpt lat="43.99522" lon="4.82314">
        <ele>70.819967</ele>
        <time>2025-02-03T14:59:25.976Z</time>
      </trkpt>
      <trkpt lat="43.9952" lon="4.82302">
        <ele>70.988029</ele>
        <time>2025-02-03T14:59:27.983Z</time>
      </trkpt>
      <trkpt lat="43.99519" lon="4.82284">
        <ele>71.213244</ele>
        <time>2025-02-03T14:59:30.986Z</time>
      </trkpt>
      <trkpt lat="43.9952" lon="4.82267">
        <ele>71.435052</ele>
        <time>2025-02-03T14:59:34.023Z</time>
      </trkpt>
      <trkpt lat="43.99523" lon="4.82254">
        <ele>71.614026</ele>
        <time>2025-02-03T14:59:36.980Z</time>
      </trkpt>
      <trkpt lat="43.99525" lon="4.82238">
        <ele>71.826598</ele>
        <time>2025-02-03T14:59:40.986Z</time>
      </trkpt>
      <trkpt lat="43.99527" lon="4.82225">
        <ele>71.989206</ele>
        <time>2025-02-03T14:59:44.005Z</time>
      </trkpt>
      <trkpt lat="43.99528" lon="4.82213">
        <ele>72.151621</ele>
        <time>2025-02-03T14:59:47.001Z</time>
      </trkpt>
      <trkpt lat="43.99529" lon="4.82198">
        <ele>72.349314</ele>
        <time>2025-02-03T14:59:50.986Z</time>
      </trkpt>
      <trkpt lat="43.9953" lon="4.82185">
        <ele>72.519828</ele>
        <time>2025-02-03T14:59:54.993Z</time>
      </trkpt>
      <trkpt lat="43.99531" lon="4.82172">
        <ele>72.685558</ele>
        <time>2025-02-03T14:59:58.996Z</time>
      </trkpt>
      <trkpt lat="43.99531" lon="4.82159">
        <ele>72.851053</ele>
        <time>2025-02-03T15:00:02.997Z</time>
      </trkpt>
      <trkpt lat="43.99529" lon="4.82144">
        <ele>73.049238</ele>
        <time>2025-02-03T15:00:07.990Z</time>
      </trkpt>
      <trkpt lat="43.99522" lon="4.82133">
        <ele>73.244182</ele>
        <time>2025-02-03T15:00:12.989Z</time>
      </trkpt>
      <trkpt lat="43.99512" lon="4.8213">
        <ele>73.421716</ele>
        <time>2025-02-03T15:00:18.992Z</time>
      </trkpt>
      <trkpt lat="43.99502" lon="4.82129">
        <ele>73.503495</ele>
        <time>2025-02-03T15:00:23.994Z</time>
      </trkpt>
      <trkpt lat="43.99491" lon="4.82128">
        <ele>73.137493</ele>
        <time>2025-02-03T15:00:29.992Z</time>
      </trkpt>
      <trkpt lat="43.99485" lon="4.82142">
        <ele>72.739541</ele>
        <time>2025-02-03T15:00:34.979Z</time>
      </trkpt>
      <trkpt lat="43.99483" lon="4.82159">
        <ele>72.344267</ele>
        <time>2025-02-03T15:00:37.992Z</time>
      </trkpt>
      <trkpt lat="43.99483" lon="4.82171">
        <ele>72.034957</ele>
        <time>2025-02-03T15:00:39.993Z</time>
      </trkpt>
      <trkpt lat="43.99482" lon="4.82186">
        <ele>71.689985</ele>
        <time>2025-02-03T15:00:41.970Z</time>
      </trkpt>
      <trkpt lat="43.99481" lon="4.82201">
        <ele>71.310465</ele>
        <time>2025-02-03T15:00:44.010Z</time>
      </trkpt>
      <trkpt lat="43.9948" lon="4.82218">
        <ele>70.904468</ele>
        <time>2025-02-03T15:00:45.987Z</time>
      </trkpt>
      <trkpt lat="43.99479" lon="4.82237">
        <ele>70.445866</ele>
        <time>2025-02-03T15:00:47.990Z</time>
      </trkpt>
      <trkpt lat="43.99478" lon="4.82257">
        <ele>69.96643</ele>
        <time>2025-02-03T15:00:49.995Z</time>
      </trkpt>
      <trkpt lat="43.99476" lon="4.82278">
        <ele>69.462337</ele>
        <time>2025-02-03T15:00:51.969Z</time>
      </trkpt>
      <trkpt lat="43.99472" lon="4.82297">
        <ele>68.976608</ele>
        <time>2025-02-03T15:00:53.982Z</time>
      </trkpt>
      <trkpt lat="43.99464" lon="4.82311">
        <ele>68.541009</ele>
        <time>2025-02-03T15:00:55.994Z</time>
      </trkpt>
      <trkpt lat="43.99452" lon="4.82318">
        <ele>68.100426</ele>
        <time>2025-02-03T15:00:57.990Z</time>
      </trkpt>
      <trkpt lat="43.9944" lon="4.82319">
        <ele>67.696977</ele>
        <time>2025-02-03T15:00:59.995Z</time>
      </trkpt>
      <trkpt lat="43.99427" lon="4.82316">
        <ele>67.611681</ele>
        <time>2025-02-03T15:01:01.977Z</time>
      </trkpt>
      <trkpt lat="43.99414" lon="4.82313">
        <ele>67.730825</ele>
        <time>2025-02-03T15:01:03.993Z</time>
      </trkpt>
      <trkpt lat="43.99402" lon="4.82309">
        <ele>67.84058</ele>
        <time>2025-02-03T15:01:05.989Z</time>
      </trkpt>
      <trkpt lat="43.99391" lon="4.82306">
        <ele>67.948434</ele>
        <time>2025-02-03T15:01:08.013Z</time>
      </trkpt>
      <trkpt lat="43.99379" lon="4.82303">
        <ele>68.056288</ele>
        <time>2025-02-03T15:01:09.988Z</time>
      </trkpt>
      <trkpt lat="43.99368" lon="4.82301">
        <ele>68.156433</ele>
        <time>2025-02-03T15:01:11.997Z</time>
      </trkpt>
      <trkpt lat="43.99357" lon="4.82299">
        <ele>68.256976</ele>
        <time>2025-02-03T15:01:14.009Z</time>
      </trkpt>
      <trkpt lat="43.99346" lon="4.82298">
        <ele>68.354086</ele>
        <time>2025-02-03T15:01:15.993Z</time>
      </trkpt>
      <trkpt lat="43.99336" lon="4.82295">
        <ele>68.445766</ele>
        <time>2025-02-03T15:01:17.981Z</time>
      </trkpt>
      <trkpt lat="43.99326" lon="4.82293">
        <ele>68.544126</ele>
        <time>2025-02-03T15:01:19.979Z</time>
      </trkpt>
      <trkpt lat="43.99315" lon="4.82291">
        <ele>68.642072</ele>
        <time>2025-02-03T15:01:21.992Z</time>
      </trkpt>
      <trkpt lat="43.99304" lon="4.82288">
        <ele>68.738226</ele>
        <time>2025-02-03T15:01:23.990Z</time>
      </trkpt>
      <trkpt lat="43.99294" lon="4.82286">
        <ele>68.833021</ele>
        <time>2025-02-03T15:01:26.002Z</time>
      </trkpt>
      <trkpt lat="43.99284" lon="4.82283">
        <ele>68.922475</ele>
        <time>2025-02-03T15:01:27.992Z</time>
      </trkpt>
      <trkpt lat="43.99275" lon="4.8228">
        <ele>69.01232</ele>
        <time>2025-02-03T15:01:29.971Z</time>
      </trkpt>
      <trkpt lat="43.99265" lon="4.82278">
        <ele>69.100037</ele>
        <time>2025-02-03T15:01:31.978Z</time>
      </trkpt>
      <trkpt lat="43.99256" lon="4.82277">
        <ele>69.173669</ele>
        <time>2025-02-03T15:01:33.969Z</time>
      </trkpt>
      <trkpt lat="43.99246" lon="4.82275">
        <ele>69.199753</ele>
        <time>2025-02-03T15:01:35.989Z</time>
      </trkpt>
      <trkpt lat="43.99237" lon="4.82272">
        <ele>69.225192</ele>
        <time>2025-02-03T15:01:38.002Z</time>
      </trkpt>
      <trkpt lat="43.99228" lon="4.82271">
        <ele>69.251166</ele>
        <time>2025-02-03T15:01:39.986Z</time>
      </trkpt>
      <trkpt lat="43.99219" lon="4.82269">
        <ele>69.27653</ele>
        <time>2025-02-03T15:01:41.984Z</time>
      </trkpt>
      <trkpt lat="43.9921" lon="4.82266">
        <ele>69.302098</ele>
        <time>2025-02-03T15:01:43.976Z</time>
      </trkpt>
      <trkpt lat="43.99201" lon="4.82264">
        <ele>69.32712</ele>
        <time>2025-02-03T15:01:45.977Z</time>
      </trkpt>
      <trkpt lat="43.99192" lon="4.82261">
        <ele>69.353042</ele>
        <time>2025-02-03T15:01:47.989Z</time>
      </trkpt>
      <trkpt lat="43.99183" lon="4.8226">
        <ele>69.378695</ele>
        <time>2025-02-03T15:01:50.003Z</time>
      </trkpt>
      <trkpt lat="43.99173" lon="4.82258">
        <ele>69.406453</ele>
        <time>2025-02-03T15:01:51.993Z</time>
      </trkpt>
      <trkpt lat="43.99162" lon="4.82256">
        <ele>69.435582</ele>
        <time>2025-02-03T15:01:53.985Z</time>
      </trkpt>
      <trkpt lat="43.99152" lon="4.82253">
        <ele>69.464017</ele>
        <time>2025-02-03T15:01:56.002Z</time>
      </trkpt>
      <trkpt lat="43.99143" lon="4.82251">
        <ele>69.491362</ele>
        <time>2025-02-03T15:01:58.005Z</time>
      </trkpt>
      <trkpt lat="43.99133" lon="4.82248">
        <ele>69.518238</ele>
        <time>2025-02-03T15:01:59.990Z</time>
      </trkpt>
      <trkpt lat="43.99124" lon="4.82246">
        <ele>69.545001</ele>
        <time>2025-02-03T15:02:02.023Z</time>
      </trkpt>
      <trkpt lat="43.99114" lon="4.82243">
        <ele>69.572111</ele>
        <time>2025-02-03T15:02:03.996Z</time>
      </trkpt>
      <trkpt lat="43.99104" lon="4.8224">
        <ele>69.599612</ele>
        <time>2025-02-03T15:02:05.996Z</time>
      </trkpt>
      <trkpt lat="43.99094" lon="4.82237">
        <ele>69.628551</ele>
        <time>2025-02-03T15:02:08.000Z</time>
      </trkpt>
      <trkpt lat="43.99084" lon="4.82235">
        <ele>69.65586</ele>
        <time>2025-02-03T15:02:09.986Z</time>
      </trkpt>
      <trkpt lat="43.99075" lon="4.82232">
        <ele>69.610163</ele>
        <time>2025-02-03T15:02:11.992Z</time>
      </trkpt>
      <trkpt lat="43.99065" lon="4.8223">
        <ele>69.517633</ele>
        <time>2025-02-03T15:02:14.004Z</time>
      </trkpt>
      <trkpt lat="43.99055" lon="4.82229">
        <ele>69.43002</ele>
        <time>2025-02-03T15:02:15.985Z</time>
      </trkpt>
      <trkpt lat="43.99046" lon="4.82227">
        <ele>69.34517</ele>
        <time>2025-02-03T15:02:17.989Z</time>
      </trkpt>
      <trkpt lat="43.99037" lon="4.82225">
        <ele>69.261509</ele>
        <time>2025-02-03T15:02:20.018Z</time>
      </trkpt>
      <trkpt lat="43.99025" lon="4.82218">
        <ele>69.137822</ele>
        <time>2025-02-03T15:02:22.998Z</time>
      </trkpt>
      <trkpt lat="43.99017" lon="4.82212">
        <ele>69.05455</ele>
        <time>2025-02-03T15:02:24.993Z</time>
      </trkpt>
      <trkpt lat="43.99006" lon="4.82204">
        <ele>68.93654</ele>
        <time>2025-02-03T15:02:27.986Z</time>
      </trkpt>
      <trkpt lat="43.98993" lon="4.822">
        <ele>68.819898</ele>
        <time>2025-02-03T15:02:30.991Z</time>
      </trkpt>
      <trkpt lat="43.98981" lon="4.82198">
        <ele>68.70045</ele>
        <time>2025-02-03T15:02:33.998Z</time>
      </trkpt>
      <trkpt lat="43.98969" lon="4.82195">
        <ele>68.591662</ele>
        <time>2025-02-03T15:02:37.002Z</time>
      </trkpt>
      <trkpt lat="43.98958" lon="4.82192">
        <ele>68.486991</ele>
        <time>2025-02-03T15:02:39.991Z</time>
      </trkpt>
      <trkpt lat="43.98948" lon="4.82188">
        <ele>68.387323</ele>
        <time>2025-02-03T15:02:42.991Z</time>
      </trkpt>
      <trkpt lat="43.98937" lon="4.82184">
        <ele>68.288921</ele>
        <time>2025-02-03T15:02:46.015Z</time>
      </trkpt>
      <trkpt lat="43.98926" lon="4.82181">
        <ele>68.182662</ele>
        <time>2025-02-03T15:02:48.990Z</time>
      </trkpt>
      <trkpt lat="43.98914" lon="4.82181">
        <ele>68.069567</ele>
        <time>2025-02-03T15:02:51.999Z</time>
      </trkpt>
      <trkpt lat="43.98901" lon="4.82179">
        <ele>67.988054</ele>
        <time>2025-02-03T15:02:54.992Z</time>
      </trkpt>
      <trkpt lat="43.98892" lon="4.8218">
        <ele>67.968292</ele>
        <time>2025-02-03T15:02:57.010Z</time>
      </trkpt>
      <trkpt lat="43.98882" lon="4.8218">
        <ele>67.947252</ele>
        <time>2025-02-03T15:02:58.985Z</time>
      </trkpt>
      <trkpt lat="43.98873" lon="4.82181">
        <ele>67.927249</ele>
        <time>2025-02-03T15:03:00.998Z</time>
      </trkpt>
      <trkpt lat="43.98864" lon="4.82181">
        <ele>67.906212</ele>
        <time>2025-02-03T15:03:02.994Z</time>
      </trkpt>
      <trkpt lat="43.98854" lon="4.82181">
        <ele>67.885379</ele>
        <time>2025-02-03T15:03:04.985Z</time>
      </trkpt>
      <trkpt lat="43.98845" lon="4.8218">
        <ele>67.864939</ele>
        <time>2025-02-03T15:03:06.973Z</time>
      </trkpt>
      <trkpt lat="43.98836" lon="4.82178">
        <ele>67.84434</ele>
        <time>2025-02-03T15:03:09.002Z</time>
      </trkpt>
      <trkpt lat="43.98826" lon="4.82176">
        <ele>67.82337</ele>
        <time>2025-02-03T15:03:10.999Z</time>
      </trkpt>
      <trkpt lat="43.98817" lon="4.82174">
        <ele>67.80229</ele>
        <time>2025-02-03T15:03:13.000Z</time>
      </trkpt>
      <trkpt lat="43.98807" lon="4.82173">
        <ele>67.78092</ele>
        <time>2025-02-03T15:03:14.995Z</time>
      </trkpt>
      <trkpt lat="43.98796" lon="4.82171">
        <ele>67.757519</ele>
        <time>2025-02-03T15:03:17.007Z</time>
      </trkpt>
      <trkpt lat="43.98785" lon="4.82168">
        <ele>67.732825</ele>
        <time>2025-02-03T15:03:18.999Z</time>
      </trkpt>
      <trkpt lat="43.98774" lon="4.82166">
        <ele>67.707077</ele>
        <time>2025-02-03T15:03:20.994Z</time>
      </trkpt>
      <trkpt lat="43.98762" lon="4.82163">
        <ele>67.680896</ele>
        <time>2025-02-03T15:03:22.983Z</time>
      </trkpt>
      <trkpt lat="43.9875" lon="4.8216">
        <ele>67.653608</ele>
        <time>2025-02-03T15:03:25.003Z</time>
      </trkpt>
      <trkpt lat="43.98737" lon="4.82158">
        <ele>67.626452</ele>
        <time>2025-02-03T15:03:26.990Z</time>
      </trkpt>
      <trkpt lat="43.98726" lon="4.82157">
        <ele>67.628261</ele>
        <time>2025-02-03T15:03:28.987Z</time>
      </trkpt>
      <trkpt lat="43.98714" lon="4.82156">
        <ele>67.733945</ele>
        <time>2025-02-03T15:03:30.994Z</time>
      </trkpt>
      <trkpt lat="43.98704" lon="4.82156">
        <ele>67.829117</ele>
        <time>2025-02-03T15:03:32.988Z</time>
      </trkpt>
      <trkpt lat="43.98691" lon="4.82156">
        <ele>67.955645</ele>
        <time>2025-02-03T15:03:36.031Z</time>
      </trkpt>
      <trkpt lat="43.98679" lon="4.82153">
        <ele>68.069353</ele>
        <time>2025-02-03T15:03:38.985Z</time>
      </trkpt>
      <trkpt lat="43.98668" lon="4.82149">
        <ele>68.183294</ele>
        <time>2025-02-03T15:03:42.007Z</time>
      </trkpt>
      <trkpt lat="43.98655" lon="4.82146">
        <ele>68.30347</ele>
        <time>2025-02-03T15:03:44.969Z</time>
      </trkpt>
      <trkpt lat="43.98643" lon="4.82144">
        <ele>68.423453</ele>
        <time>2025-02-03T15:03:47.994Z</time>
      </trkpt>
      <trkpt lat="43.9863" lon="4.8214">
        <ele>68.547236</ele>
        <time>2025-02-03T15:03:51.009Z</time>
      </trkpt>
      <trkpt lat="43.98617" lon="4.82137">
        <ele>68.671547</ele>
        <time>2025-02-03T15:03:53.979Z</time>
      </trkpt>
      <trkpt lat="43.98604" lon="4.82133">
        <ele>68.798652</ele>
        <time>2025-02-03T15:03:56.981Z</time>
      </trkpt>
      <trkpt lat="43.98595" lon="4.82131">
        <ele>68.885109</ele>
        <time>2025-02-03T15:03:58.972Z</time>
      </trkpt>
      <trkpt lat="43.98586" lon="4.8213">
        <ele>68.974615</ele>
        <time>2025-02-03T15:04:00.984Z</time>
      </trkpt>
      <trkpt lat="43.98576" lon="4.82129">
        <ele>69.062862</ele>
        <time>2025-02-03T15:04:03.005Z</time>
      </trkpt>
      <trkpt lat="43.98564" lon="4.82126">
        <ele>69.186902</ele>
        <time>2025-02-03T15:04:05.992Z</time>
      </trkpt>
      <trkpt lat="43.98554" lon="4.82125">
        <ele>69.279629</ele>
        <time>2025-02-03T15:04:07.992Z</time>
      </trkpt>
      <trkpt lat="43.98544" lon="4.82123">
        <ele>69.254864</ele>
        <time>2025-02-03T15:04:10.000Z</time>
      </trkpt>
      <trkpt lat="43.98534" lon="4.82121">
        <ele>69.15912</ele>
        <time>2025-02-03T15:04:12.009Z</time>
      </trkpt>
      <trkpt lat="43.98524" lon="4.82119">
        <ele>69.060112</ele>
        <time>2025-02-03T15:04:13.992Z</time>
      </trkpt>
      <trkpt lat="43.98515" lon="4.82117">
        <ele>68.967286</ele>
        <time>2025-02-03T15:04:16.004Z</time>
      </trkpt>
      <trkpt lat="43.98505" lon="4.82115">
        <ele>68.871429</ele>
        <time>2025-02-03T15:04:18.008Z</time>
      </trkpt>
      <trkpt lat="43.98495" lon="4.82112">
        <ele>68.768293</ele>
        <time>2025-02-03T15:04:19.987Z</time>
      </trkpt>
      <trkpt lat="43.98484" lon="4.8211">
        <ele>68.657926</ele>
        <time>2025-02-03T15:04:21.990Z</time>
      </trkpt>
      <trkpt lat="43.98472" lon="4.82107">
        <ele>68.539868</ele>
        <time>2025-02-03T15:04:23.980Z</time>
      </trkpt>
      <trkpt lat="43.9846" lon="4.82104">
        <ele>68.414895</ele>
        <time>2025-02-03T15:04:26.000Z</time>
      </trkpt>
      <trkpt lat="43.98446" lon="4.82101">
        <ele>68.282368</ele>
        <time>2025-02-03T15:04:27.991Z</time>
      </trkpt>
      <trkpt lat="43.98433" lon="4.82098">
        <ele>68.149732</ele>
        <time>2025-02-03T15:04:29.993Z</time>
      </trkpt>
      <trkpt lat="43.9842" lon="4.82096">
        <ele>68.014384</ele>
        <time>2025-02-03T15:04:31.993Z</time>
      </trkpt>
      <trkpt lat="43.98406" lon="4.82093">
        <ele>67.878513</ele>
        <time>2025-02-03T15:04:33.991Z</time>
      </trkpt>
      <trkpt lat="43.98392" lon="4.82091">
        <ele>67.744239</ele>
        <time>2025-02-03T15:04:35.984Z</time>
      </trkpt>
      <trkpt lat="43.98379" lon="4.82089">
        <ele>67.613568</ele>
        <time>2025-02-03T15:04:37.978Z</time>
      </trkpt>
      <trkpt lat="43.98366" lon="4.82087">
        <ele>67.509551</ele>
        <time>2025-02-03T15:04:39.978Z</time>
      </trkpt>
      <trkpt lat="43.98352" lon="4.82085">
        <ele>67.437533</ele>
        <time>2025-02-03T15:04:41.997Z</time>
      </trkpt>
      <trkpt lat="43.98339" lon="4.82084">
        <ele>67.367261</ele>
        <time>2025-02-03T15:04:43.993Z</time>
      </trkpt>
      <trkpt lat="43.98326" lon="4.82083">
        <ele>67.293734</ele>
        <time>2025-02-03T15:04:45.991Z</time>
      </trkpt>
      <trkpt lat="43.98313" lon="4.82081">
        <ele>67.223462</ele>
        <time>2025-02-03T15:04:47.972Z</time>
      </trkpt>
      <trkpt lat="43.983" lon="4.8208">
        <ele>67.152194</ele>
        <time>2025-02-03T15:04:49.979Z</time>
      </trkpt>
      <trkpt lat="43.98286" lon="4.82079">
        <ele>67.078774</ele>
        <time>2025-02-03T15:04:51.985Z</time>
      </trkpt>
      <trkpt lat="43.98273" lon="4.82077">
        <ele>67.00629</ele>
        <time>2025-02-03T15:04:53.977Z</time>
      </trkpt>
      <trkpt lat="43.9826" lon="4.82076">
        <ele>66.936524</ele>
        <time>2025-02-03T15:04:55.998Z</time>
      </trkpt>
      <trkpt lat="43.98247" lon="4.82074">
        <ele>66.867188</ele>
        <time>2025-02-03T15:04:58.012Z</time>
      </trkpt>
      <trkpt lat="43.98234" lon="4.82072">
        <ele>66.797769</ele>
        <time>2025-02-03T15:04:59.995Z</time>
      </trkpt>
      <trkpt lat="43.98222" lon="4.82071">
        <ele>66.730266</ele>
        <time>2025-02-03T15:05:01.999Z</time>
      </trkpt>
      <trkpt lat="43.98209" lon="4.8207">
        <ele>66.663921</ele>
        <time>2025-02-03T15:05:04.006Z</time>
      </trkpt>
      <trkpt lat="43.98197" lon="4.82069">
        <ele>66.597305</ele>
        <time>2025-02-03T15:05:06.003Z</time>
      </trkpt>
      <trkpt lat="43.98185" lon="4.82068">
        <ele>66.528302</ele>
        <time>2025-02-03T15:05:08.005Z</time>
      </trkpt>
      <trkpt lat="43.98173" lon="4.82067">
        <ele>66.451169</ele>
        <time>2025-02-03T15:05:09.992Z</time>
      </trkpt>
      <trkpt lat="43.9816" lon="4.82066">
        <ele>66.374578</ele>
        <time>2025-02-03T15:05:12.002Z</time>
      </trkpt>
      <trkpt lat="43.98148" lon="4.82064">
        <ele>66.29763</ele>
        <time>2025-02-03T15:05:13.999Z</time>
      </trkpt>
      <trkpt lat="43.98136" lon="4.82063">
        <ele>66.222269</ele>
        <time>2025-02-03T15:05:16.001Z</time>
      </trkpt>
      <trkpt lat="43.98123" lon="4.82061">
        <ele>66.144968</ele>
        <time>2025-02-03T15:05:17.989Z</time>
      </trkpt>
      <trkpt lat="43.98111" lon="4.8206">
        <ele>66.068316</ele>
        <time>2025-02-03T15:05:20.015Z</time>
      </trkpt>
      <trkpt lat="43.98099" lon="4.82059">
        <ele>65.99477</ele>
        <time>2025-02-03T15:05:22.004Z</time>
      </trkpt>
      <trkpt lat="43.98087" lon="4.82057">
        <ele>65.917468</ele>
        <time>2025-02-03T15:05:23.972Z</time>
      </trkpt>
      <trkpt lat="43.98074" lon="4.82056">
        <ele>65.840704</ele>
        <time>2025-02-03T15:05:25.992Z</time>
      </trkpt>
      <trkpt lat="43.98062" lon="4.82054">
        <ele>65.763437</ele>
        <time>2025-02-03T15:05:27.992Z</time>
      </trkpt>
      <trkpt lat="43.9805" lon="4.82054">
        <ele>65.689382</ele>
        <time>2025-02-03T15:05:30.014Z</time>
      </trkpt>
      <trkpt lat="43.98037" lon="4.82053">
        <ele>65.612285</ele>
        <time>2025-02-03T15:05:31.988Z</time>
      </trkpt>
      <trkpt lat="43.98025" lon="4.82051">
        <ele>65.539858</ele>
        <time>2025-02-03T15:05:34.016Z</time>
      </trkpt>
      <trkpt lat="43.98014" lon="4.8205">
        <ele>65.467542</ele>
        <time>2025-02-03T15:05:35.990Z</time>
      </trkpt>
      <trkpt lat="43.98002" lon="4.82049">
        <ele>65.509295</ele>
        <time>2025-02-03T15:05:37.990Z</time>
      </trkpt>
      <trkpt lat="43.9799" lon="4.82048">
        <ele>65.551988</ele>
        <time>2025-02-03T15:05:39.993Z</time>
      </trkpt>
      <trkpt lat="43.97979" lon="4.82046">
        <ele>65.594775</ele>
        <time>2025-02-03T15:05:42.003Z</time>
      </trkpt>
      <trkpt lat="43.97967" lon="4.82045">
        <ele>65.636464</ele>
        <time>2025-02-03T15:05:43.983Z</time>
      </trkpt>
      <trkpt lat="43.97956" lon="4.82044">
        <ele>65.679595</ele>
        <time>2025-02-03T15:05:45.977Z</time>
      </trkpt>
      <trkpt lat="43.97944" lon="4.82041">
        <ele>65.723094</ele>
        <time>2025-02-03T15:05:47.988Z</time>
      </trkpt>
      <trkpt lat="43.97933" lon="4.8204">
        <ele>65.764761</ele>
        <time>2025-02-03T15:05:49.996Z</time>
      </trkpt>
      <trkpt lat="43.97922" lon="4.82039">
        <ele>65.802791</ele>
        <time>2025-02-03T15:05:51.989Z</time>
      </trkpt>
      <trkpt lat="43.97913" lon="4.82036">
        <ele>65.838682</ele>
        <time>2025-02-03T15:05:54.012Z</time>
      </trkpt>
      <trkpt lat="43.97903" lon="4.82034">
        <ele>65.875611</ele>
        <time>2025-02-03T15:05:55.992Z</time>
      </trkpt>
      <trkpt lat="43.9789" lon="4.82031">
        <ele>65.923589</ele>
        <time>2025-02-03T15:05:58.964Z</time>
      </trkpt>
      <trkpt lat="43.97878" lon="4.82028">
        <ele>65.969391</ele>
        <time>2025-02-03T15:06:02.004Z</time>
      </trkpt>
      <trkpt lat="43.97866" lon="4.82026">
        <ele>66.010956</ele>
        <time>2025-02-03T15:06:04.979Z</time>
      </trkpt>
      <trkpt lat="43.97856" lon="4.82024">
        <ele>66.047524</ele>
        <time>2025-02-03T15:06:07.976Z</time>
      </trkpt>
      <trkpt lat="43.97847" lon="4.82025">
        <ele>66.08281</ele>
        <time>2025-02-03T15:06:11.001Z</time>
      </trkpt>
      <trkpt lat="43.97834" lon="4.82029">
        <ele>66.126628</ele>
        <time>2025-02-03T15:06:13.974Z</time>
      </trkpt>
      <trkpt lat="43.97823" lon="4.82031">
        <ele>66.124826</ele>
        <time>2025-02-03T15:06:16.986Z</time>
      </trkpt>
      <trkpt lat="43.97814" lon="4.82033">
        <ele>66.12329</ele>
        <time>2025-02-03T15:06:20.984Z</time>
      </trkpt>
      <trkpt lat="43.97805" lon="4.82035">
        <ele>66.121682</ele>
        <time>2025-02-03T15:06:25.989Z</time>
      </trkpt>
      <trkpt lat="43.97795" lon="4.82036">
        <ele>66.120073</ele>
        <time>2025-02-03T15:06:29.990Z</time>
      </trkpt>
      <trkpt lat="43.97784" lon="4.82036">
        <ele>66.118179</ele>
        <time>2025-02-03T15:06:33.979Z</time>
      </trkpt>
      <trkpt lat="43.97775" lon="4.82036">
        <ele>66.116605</ele>
        <time>2025-02-03T15:06:36.981Z</time>
      </trkpt>
      <trkpt lat="43.97765" lon="4.82037">
        <ele>66.11496</ele>
        <time>2025-02-03T15:06:39.979Z</time>
      </trkpt>
      <trkpt lat="43.97754" lon="4.82038">
        <ele>66.113157</ele>
        <time>2025-02-03T15:06:42.982Z</time>
      </trkpt>
      <trkpt lat="43.97744" lon="4.82039">
        <ele>66.111414</ele>
        <time>2025-02-03T15:06:45.991Z</time>
      </trkpt>
      <trkpt lat="43.97732" lon="4.82039">
        <ele>66.109434</ele>
        <time>2025-02-03T15:06:49.010Z</time>
      </trkpt>
      <trkpt lat="43.9772" lon="4.8204">
        <ele>66.107368</ele>
        <time>2025-02-03T15:06:52.006Z</time>
      </trkpt>
      <trkpt lat="43.97707" lon="4.82041">
        <ele>66.105182</ele>
        <time>2025-02-03T15:06:54.980Z</time>
      </trkpt>
      <trkpt lat="43.97694" lon="4.82043">
        <ele>66.102972</ele>
        <time>2025-02-03T15:06:57.992Z</time>
      </trkpt>
      <trkpt lat="43.97685" lon="4.82044">
        <ele>66.101427</ele>
        <time>2025-02-03T15:06:59.989Z</time>
      </trkpt>
      <trkpt lat="43.97673" lon="4.82045">
        <ele>66.099345</ele>
        <time>2025-02-03T15:07:03.007Z</time>
      </trkpt>
      <trkpt lat="43.97662" lon="4.82047">
        <ele>66.097456</ele>
        <time>2025-02-03T15:07:06.024Z</time>
      </trkpt>
      <trkpt lat="43.9765" lon="4.82047">
        <ele>66.123352</ele>
        <time>2025-02-03T15:07:09.981Z</time>
      </trkpt>
      <trkpt lat="43.9764" lon="4.82048">
        <ele>66.170903</ele>
        <time>2025-02-03T15:07:13.994Z</time>
      </trkpt>
      <trkpt lat="43.9763" lon="4.82044">
        <ele>66.215467</ele>
        <time>2025-02-03T15:07:17.989Z</time>
      </trkpt>
      <trkpt lat="43.97621" lon="4.82042">
        <ele>66.257656</ele>
        <time>2025-02-03T15:07:21.983Z</time>
      </trkpt>
      <trkpt lat="43.97611" lon="4.82038">
        <ele>66.306543</ele>
        <time>2025-02-03T15:07:26.985Z</time>
      </trkpt>
      <trkpt lat="43.97601" lon="4.82036">
        <ele>66.354077</ele>
        <time>2025-02-03T15:07:32.988Z</time>
      </trkpt>
      <trkpt lat="43.9759" lon="4.82036">
        <ele>66.401981</ele>
        <time>2025-02-03T15:07:39.988Z</time>
      </trkpt>
      <trkpt lat="43.97581" lon="4.82045">
        <ele>66.454058</ele>
        <time>2025-02-03T15:07:43.983Z</time>
      </trkpt>
      <trkpt lat="43.9757" lon="4.82053">
        <ele>66.509481</ele>
        <time>2025-02-03T15:07:46.977Z</time>
      </trkpt>
      <trkpt lat="43.97559" lon="4.82056">
        <ele>66.558522</ele>
        <time>2025-02-03T15:07:49.010Z</time>
      </trkpt>
      <trkpt lat="43.97548" lon="4.82054">
        <ele>66.610366</ele>
        <time>2025-02-03T15:07:50.989Z</time>
      </trkpt>
      <trkpt lat="43.97536" lon="4.82052">
        <ele>66.665714</ele>
        <time>2025-02-03T15:07:52.987Z</time>
      </trkpt>
      <trkpt lat="43.97524" lon="4.8205">
        <ele>66.720701</ele>
        <time>2025-02-03T15:07:55.014Z</time>
      </trkpt>
      <trkpt lat="43.97512" lon="4.82047">
        <ele>66.776049</ele>
        <time>2025-02-03T15:07:57.006Z</time>
      </trkpt>
      <trkpt lat="43.975" lon="4.82044">
        <ele>66.829892</ele>
        <time>2025-02-03T15:07:58.967Z</time>
      </trkpt>
      <trkpt lat="43.97489" lon="4.82038">
        <ele>66.884763</ele>
        <time>2025-02-03T15:08:01.014Z</time>
      </trkpt>
      <trkpt lat="43.9748" lon="4.82028">
        <ele>66.906801</ele>
        <time>2025-02-03T15:08:02.990Z</time>
      </trkpt>
      <trkpt lat="43.97471" lon="4.8202">
        <ele>66.87953</ele>
        <time>2025-02-03T15:08:04.987Z</time>
      </trkpt>
      <trkpt lat="43.9746" lon="4.82014">
        <ele>66.852667</ele>
        <time>2025-02-03T15:08:06.988Z</time>
      </trkpt>
      <trkpt lat="43.97449" lon="4.8201">
        <ele>66.82492</ele>
        <time>2025-02-03T15:08:08.988Z</time>
      </trkpt>
      <trkpt lat="43.97438" lon="4.82005">
        <ele>66.798397</ele>
        <time>2025-02-03T15:08:11.002Z</time>
      </trkpt>
      <trkpt lat="43.97428" lon="4.82">
        <ele>66.773214</ele>
        <time>2025-02-03T15:08:12.989Z</time>
      </trkpt>
      <trkpt lat="43.97419" lon="4.81994">
        <ele>66.747952</ele>
        <time>2025-02-03T15:08:14.982Z</time>
      </trkpt>
      <trkpt lat="43.9741" lon="4.81986">
        <ele>66.72312</ele>
        <time>2025-02-03T15:08:16.984Z</time>
      </trkpt>
      <trkpt lat="43.97401" lon="4.81978">
        <ele>66.699084</ele>
        <time>2025-02-03T15:08:18.969Z</time>
      </trkpt>
      <trkpt lat="43.97393" lon="4.8197">
        <ele>66.674652</ele>
        <time>2025-02-03T15:08:21.011Z</time>
      </trkpt>
      <trkpt lat="43.97385" lon="4.81962">
        <ele>66.6512</ele>
        <time>2025-02-03T15:08:22.992Z</time>
      </trkpt>
      <trkpt lat="43.97377" lon="4.81952">
        <ele>66.626585</ele>
        <time>2025-02-03T15:08:24.997Z</time>
      </trkpt>
      <trkpt lat="43.97371" lon="4.81943">
        <ele>66.604138</ele>
        <time>2025-02-03T15:08:27.000Z</time>
      </trkpt>
      <trkpt lat="43.97364" lon="4.81934">
        <ele>66.582392</ele>
        <time>2025-02-03T15:08:28.997Z</time>
      </trkpt>
      <trkpt lat="43.97356" lon="4.8192">
        <ele>66.551747</ele>
        <time>2025-02-03T15:08:31.993Z</time>
      </trkpt>
      <trkpt lat="43.97349" lon="4.81906">
        <ele>66.523108</ele>
        <time>2025-02-03T15:08:34.989Z</time>
      </trkpt>
      <trkpt lat="43.97344" lon="4.81894">
        <ele>66.499144</ele>
        <time>2025-02-03T15:08:37.990Z</time>
      </trkpt>
      <trkpt lat="43.97338" lon="4.81881">
        <ele>66.577043</ele>
        <time>2025-02-03T15:08:41.995Z</time>
      </trkpt>
      <trkpt lat="43.97333" lon="4.81867">
        <ele>66.719961</ele>
        <time>2025-02-03T15:08:46.005Z</time>
      </trkpt>
      <trkpt lat="43.9733" lon="4.81853">
        <ele>66.856004</ele>
        <time>2025-02-03T15:08:49.989Z</time>
      </trkpt>
      <trkpt lat="43.97326" lon="4.81841">
        <ele>66.975721</ele>
        <time>2025-02-03T15:08:54.001Z</time>
      </trkpt>
      <trkpt lat="43.97323" lon="4.81829">
        <ele>67.090364</ele>
        <time>2025-02-03T15:08:57.996Z</time>
      </trkpt>
      <trkpt lat="43.97319" lon="4.81816">
        <ele>67.216564</ele>
        <time>2025-02-03T15:09:03.005Z</time>
      </trkpt>
      <trkpt lat="43.97317" lon="4.81802">
        <ele>67.3457</ele>
        <time>2025-02-03T15:09:06.994Z</time>
      </trkpt>
      <trkpt lat="43.97314" lon="4.8179">
        <ele>67.465053</ele>
        <time>2025-02-03T15:09:09.997Z</time>
      </trkpt>
      <trkpt lat="43.97306" lon="4.81782">
        <ele>67.587525</ele>
        <time>2025-02-03T15:09:12.974Z</time>
      </trkpt>
      <trkpt lat="43.97295" lon="4.8178">
        <ele>67.72543</ele>
        <time>2025-02-03T15:09:15.986Z</time>
      </trkpt>
      <trkpt lat="43.97284" lon="4.81779">
        <ele>67.864594</ele>
        <time>2025-02-03T15:09:18.992Z</time>
      </trkpt>
      <trkpt lat="43.97273" lon="4.81779">
        <ele>68.002412</ele>
        <time>2025-02-03T15:09:22.037Z</time>
      </trkpt>
      <trkpt lat="43.97262" lon="4.81778">
        <ele>68.141576</ele>
        <time>2025-02-03T15:09:24.963Z</time>
      </trkpt>
      <trkpt lat="43.97251" lon="4.81778">
        <ele>68.280656</ele>
        <time>2025-02-03T15:09:27.996Z</time>
      </trkpt>
      <trkpt lat="43.9724" lon="4.8178">
        <ele>68.41502</ele>
        <time>2025-02-03T15:09:30.984Z</time>
      </trkpt>
      <trkpt lat="43.97229" lon="4.81777">
        <ele>68.556145</ele>
        <time>2025-02-03T15:09:33.989Z</time>
      </trkpt>
      <trkpt lat="43.97218" lon="4.81777">
        <ele>68.702702</ele>
        <time>2025-02-03T15:09:37.015Z</time>
      </trkpt>
      <trkpt lat="43.97205" lon="4.81775">
        <ele>68.81093</ele>
        <time>2025-02-03T15:09:40.000Z</time>
      </trkpt>
      <trkpt lat="43.97193" lon="4.81771">
        <ele>68.888324</ele>
        <time>2025-02-03T15:09:43.008Z</time>
      </trkpt>
      <trkpt lat="43.97181" lon="4.81769">
        <ele>68.963196</ele>
        <time>2025-02-03T15:09:45.986Z</time>
      </trkpt>
      <trkpt lat="43.9717" lon="4.81768">
        <ele>69.029842</ele>
        <time>2025-02-03T15:09:49.013Z</time>
      </trkpt>
      <trkpt lat="43.97159" lon="4.81767">
        <ele>69.095393</ele>
        <time>2025-02-03T15:09:51.998Z</time>
      </trkpt>
      <trkpt lat="43.97148" lon="4.81765">
        <ele>69.161476</ele>
        <time>2025-02-03T15:09:54.983Z</time>
      </trkpt>
      <trkpt lat="43.97138" lon="4.81764">
        <ele>69.225089</ele>
        <time>2025-02-03T15:09:57.986Z</time>
      </trkpt>
      <trkpt lat="43.97127" lon="4.81762">
        <ele>69.295067</ele>
        <time>2025-02-03T15:10:01.000Z</time>
      </trkpt>
      <trkpt lat="43.97116" lon="4.8176">
        <ele>69.360422</ele>
        <time>2025-02-03T15:10:03.991Z</time>
      </trkpt>
      <trkpt lat="43.97105" lon="4.81758">
        <ele>69.428805</ele>
        <time>2025-02-03T15:10:06.985Z</time>
      </trkpt>
      <trkpt lat="43.97094" lon="4.81755">
        <ele>69.497307</ele>
        <time>2025-02-03T15:10:09.988Z</time>
      </trkpt>
      <trkpt lat="43.97083" lon="4.81754">
        <ele>69.561608</ele>
        <time>2025-02-03T15:10:12.990Z</time>
      </trkpt>
      <trkpt lat="43.97073" lon="4.81753">
        <ele>69.623765</ele>
        <time>2025-02-03T15:10:15.988Z</time>
      </trkpt>
      <trkpt lat="43.97064" lon="4.81751">
        <ele>69.681679</ele>
        <time>2025-02-03T15:10:18.992Z</time>
      </trkpt>
      <trkpt lat="43.97054" lon="4.81749">
        <ele>69.740804</ele>
        <time>2025-02-03T15:10:22.990Z</time>
      </trkpt>
      <trkpt lat="43.97045" lon="4.81748">
        <ele>69.798476</ele>
        <time>2025-02-03T15:10:27.999Z</time>
      </trkpt>
      <trkpt lat="43.97036" lon="4.81747">
        <ele>69.854891</ele>
        <time>2025-02-03T15:10:33.997Z</time>
      </trkpt>
      <trkpt lat="43.97025" lon="4.81745">
        <ele>69.80251</ele>
        <time>2025-02-03T15:16:30.988Z</time>
      </trkpt>
      <trkpt lat="43.97015" lon="4.81745">
        <ele>69.748298</ele>
        <time>2025-02-03T15:16:35.979Z</time>
      </trkpt>
      <trkpt lat="43.97005" lon="4.81743">
        <ele>69.687356</ele>
        <time>2025-02-03T15:16:40.018Z</time>
      </trkpt>
      <trkpt lat="43.96993" lon="4.81741">
        <ele>69.619696</ele>
        <time>2025-02-03T15:16:43.983Z</time>
      </trkpt>
      <trkpt lat="43.96984" lon="4.81739">
        <ele>69.567132</ele>
        <time>2025-02-03T15:16:47.010Z</time>
      </trkpt>
      <trkpt lat="43.96974" lon="4.81737">
        <ele>69.507152</ele>
        <time>2025-02-03T15:16:49.973Z</time>
      </trkpt>
      <trkpt lat="43.96963" lon="4.81736">
        <ele>69.443484</ele>
        <time>2025-02-03T15:16:52.966Z</time>
      </trkpt>
      <trkpt lat="43.96952" lon="4.81734">
        <ele>69.377558</ele>
        <time>2025-02-03T15:16:55.967Z</time>
      </trkpt>
      <trkpt lat="43.9694" lon="4.81732">
        <ele>69.309182</ele>
        <time>2025-02-03T15:16:58.994Z</time>
      </trkpt>
      <trkpt lat="43.96928" lon="4.8173">
        <ele>69.23932</ele>
        <time>2025-02-03T15:17:01.997Z</time>
      </trkpt>
      <trkpt lat="43.96916" lon="4.81728">
        <ele>69.167418</ele>
        <time>2025-02-03T15:17:05.003Z</time>
      </trkpt>
      <trkpt lat="43.96903" lon="4.81726">
        <ele>69.095785</ele>
        <time>2025-02-03T15:17:07.993Z</time>
      </trkpt>
      <trkpt lat="43.96891" lon="4.81723">
        <ele>69.026108</ele>
        <time>2025-02-03T15:17:11.007Z</time>
      </trkpt>
      <trkpt lat="43.9688" lon="4.8172">
        <ele>68.957329</ele>
        <time>2025-02-03T15:17:14.024Z</time>
      </trkpt>
      <trkpt lat="43.96867" lon="4.81718">
        <ele>68.883617</ele>
        <time>2025-02-03T15:17:16.993Z</time>
      </trkpt>
      <trkpt lat="43.96855" lon="4.81716">
        <ele>68.816525</ele>
        <time>2025-02-03T15:17:19.997Z</time>
      </trkpt>
      <trkpt lat="43.96843" lon="4.81715">
        <ele>68.771181</ele>
        <time>2025-02-03T15:17:22.992Z</time>
      </trkpt>
      <trkpt lat="43.96831" lon="4.81713">
        <ele>68.72341</ele>
        <time>2025-02-03T15:17:25.992Z</time>
      </trkpt>
      <trkpt lat="43.96818" lon="4.81711">
        <ele>68.674149</ele>
        <time>2025-02-03T15:17:29.009Z</time>
      </trkpt>
      <trkpt lat="43.96805" lon="4.81709">
        <ele>68.624206</ele>
        <time>2025-02-03T15:17:31.990Z</time>
      </trkpt>
      <trkpt lat="43.96793" lon="4.81707">
        <ele>68.577091</ele>
        <time>2025-02-03T15:17:34.994Z</time>
      </trkpt>
      <trkpt lat="43.96781" lon="4.81705">
        <ele>68.531253</ele>
        <time>2025-02-03T15:17:38.007Z</time>
      </trkpt>
      <trkpt lat="43.96768" lon="4.81703">
        <ele>68.482834</ele>
        <time>2025-02-03T15:17:41.002Z</time>
      </trkpt>
      <trkpt lat="43.96755" lon="4.817">
        <ele>68.433768</ele>
        <time>2025-02-03T15:17:43.987Z</time>
      </trkpt>
      <trkpt lat="43.96743" lon="4.81697">
        <ele>68.384375</ele>
        <time>2025-02-03T15:17:46.994Z</time>
      </trkpt>
      <trkpt lat="43.96731" lon="4.81695">
        <ele>68.337261</ele>
        <time>2025-02-03T15:17:49.989Z</time>
      </trkpt>
      <trkpt lat="43.96718" lon="4.81692">
        <ele>68.288284</ele>
        <time>2025-02-03T15:17:53.010Z</time>
      </trkpt>
      <trkpt lat="43.96705" lon="4.8169">
        <ele>68.238478</ele>
        <time>2025-02-03T15:17:56.007Z</time>
      </trkpt>
      <trkpt lat="43.96696" lon="4.81688">
        <ele>68.20379</ele>
        <time>2025-02-03T15:17:57.993Z</time>
      </trkpt>
      <trkpt lat="43.96683" lon="4.81685">
        <ele>68.153267</ele>
        <time>2025-02-03T15:18:00.985Z</time>
      </trkpt>
      <trkpt lat="43.9667" lon="4.81682">
        <ele>68.070858</ele>
        <time>2025-02-03T15:18:04.010Z</time>
      </trkpt>
      <trkpt lat="43.96657" lon="4.81678">
        <ele>67.968389</ele>
        <time>2025-02-03T15:18:06.993Z</time>
      </trkpt>
      <trkpt lat="43.96648" lon="4.81676">
        <ele>67.897259</ele>
        <time>2025-02-03T15:18:09.011Z</time>
      </trkpt>
      <trkpt lat="43.96639" lon="4.81673">
        <ele>67.824758</ele>
        <time>2025-02-03T15:18:10.987Z</time>
      </trkpt>
      <trkpt lat="43.96626" lon="4.81669">
        <ele>67.719667</ele>
        <time>2025-02-03T15:18:14.003Z</time>
      </trkpt>
      <trkpt lat="43.96613" lon="4.81665">
        <ele>67.616344</ele>
        <time>2025-02-03T15:18:16.994Z</time>
      </trkpt>
      <trkpt lat="43.96604" lon="4.81662">
        <ele>67.545003</ele>
        <time>2025-02-03T15:18:18.992Z</time>
      </trkpt>
      <trkpt lat="43.96592" lon="4.81659">
        <ele>67.443965</ele>
        <time>2025-02-03T15:18:21.989Z</time>
      </trkpt>
      <trkpt lat="43.96582" lon="4.81659">
        <ele>67.371367</ele>
        <time>2025-02-03T15:18:24.011Z</time>
      </trkpt>
      <trkpt lat="43.96574" lon="4.81664">
        <ele>67.300577</ele>
        <time>2025-02-03T15:18:26.003Z</time>
      </trkpt>
      <trkpt lat="43.96562" lon="4.81671">
        <ele>67.201193</ele>
        <time>2025-02-03T15:18:29.003Z</time>
      </trkpt>
      <trkpt lat="43.9655" lon="4.81679">
        <ele>67.100157</ele>
        <time>2025-02-03T15:18:31.978Z</time>
      </trkpt>
      <trkpt lat="43.96539" lon="4.81684">
        <ele>67.010177</ele>
        <time>2025-02-03T15:18:34.997Z</time>
      </trkpt>
      <trkpt lat="43.96529" lon="4.81686">
        <ele>66.924219</ele>
        <time>2025-02-03T15:18:37.989Z</time>
      </trkpt>
      <trkpt lat="43.96515" lon="4.81688">
        <ele>66.820465</ele>
        <time>2025-02-03T15:18:40.997Z</time>
      </trkpt>
      <trkpt lat="43.96508" lon="4.81701">
        <ele>66.728818</ele>
        <time>2025-02-03T15:18:43.987Z</time>
      </trkpt>
      <trkpt lat="43.96504" lon="4.81716">
        <ele>66.674239</ele>
        <time>2025-02-03T15:18:46.986Z</time>
      </trkpt>
      <trkpt lat="43.96501" lon="4.81731">
        <ele>66.624496</ele>
        <time>2025-02-03T15:18:50.004Z</time>
      </trkpt>
      <trkpt lat="43.96493" lon="4.81738">
        <ele>66.579734</ele>
        <time>2025-02-03T15:18:53.011Z</time>
      </trkpt>
      <trkpt lat="43.96485" lon="4.81745">
        <ele>66.536318</ele>
        <time>2025-02-03T15:18:55.985Z</time>
      </trkpt>
      <trkpt lat="43.96477" lon="4.81754">
        <ele>66.489521</ele>
        <time>2025-02-03T15:18:59.001Z</time>
      </trkpt>
      <trkpt lat="43.96467" lon="4.81757">
        <ele>66.439662</ele>
        <time>2025-02-03T15:19:01.999Z</time>
      </trkpt>
      <trkpt lat="43.96455" lon="4.81757">
        <ele>66.382825</ele>
        <time>2025-02-03T15:19:05.021Z</time>
      </trkpt>
      <trkpt lat="43.96445" lon="4.8176">
        <ele>66.335248</ele>
        <time>2025-02-03T15:19:07.989Z</time>
      </trkpt>
      <trkpt lat="43.96437" lon="4.8175">
        <ele>66.285504</ele>
        <time>2025-02-03T15:19:11.000Z</time>
      </trkpt>
      <trkpt lat="43.96431" lon="4.81738">
        <ele>66.235974</ele>
        <time>2025-02-03T15:19:13.984Z</time>
      </trkpt>
      <trkpt lat="43.96425" lon="4.81725">
        <ele>66.187052</ele>
        <time>2025-02-03T15:19:17.016Z</time>
      </trkpt>
      <trkpt lat="43.96422" lon="4.81711">
        <ele>66.137846</ele>
        <time>2025-02-03T15:19:19.984Z</time>
      </trkpt>
      <trkpt lat="43.9642" lon="4.81696">
        <ele>66.08448</ele>
        <time>2025-02-03T15:19:22.986Z</time>
      </trkpt>
      <trkpt lat="43.9642" lon="4.81679">
        <ele>66.028006</ele>
        <time>2025-02-03T15:19:25.988Z</time>
      </trkpt>
      <trkpt lat="43.96417" lon="4.81664">
        <ele>65.976167</ele>
        <time>2025-02-03T15:19:28.993Z</time>
      </trkpt>
      <trkpt lat="43.96413" lon="4.8165">
        <ele>65.926779</ele>
        <time>2025-02-03T15:19:31.987Z</time>
      </trkpt>
      <trkpt lat="43.9641" lon="4.81635">
        <ele>65.865209</ele>
        <time>2025-02-03T15:19:34.995Z</time>
      </trkpt>
      <trkpt lat="43.96404" lon="4.81621">
        <ele>65.787376</ele>
        <time>2025-02-03T15:19:37.999Z</time>
      </trkpt>
      <trkpt lat="43.96398" lon="4.81608">
        <ele>65.708783</ele>
        <time>2025-02-03T15:19:40.995Z</time>
      </trkpt>
      <trkpt lat="43.96388" lon="4.81596">
        <ele>65.624292</ele>
        <time>2025-02-03T15:19:43.987Z</time>
      </trkpt>
      <trkpt lat="43.96378" lon="4.81585">
        <ele>65.53593</ele>
        <time>2025-02-03T15:19:47.011Z</time>
      </trkpt>
      <trkpt lat="43.96368" lon="4.81575">
        <ele>65.450685</ele>
        <time>2025-02-03T15:19:49.976Z</time>
      </trkpt>
      <trkpt lat="43.96358" lon="4.81563">
        <ele>65.362186</ele>
        <time>2025-02-03T15:19:52.999Z</time>
      </trkpt>
      <trkpt lat="43.96348" lon="4.81551">
        <ele>65.274382</ele>
        <time>2025-02-03T15:19:56.001Z</time>
      </trkpt>
      <trkpt lat="43.96338" lon="4.81539">
        <ele>65.186625</ele>
        <time>2025-02-03T15:19:59.003Z</time>
      </trkpt>
      <trkpt lat="43.96329" lon="4.81527">
        <ele>65.09701</ele>
        <time>2025-02-03T15:20:02.006Z</time>
      </trkpt>
      <trkpt lat="43.96319" lon="4.81515">
        <ele>65.009253</ele>
        <time>2025-02-03T15:20:04.999Z</time>
      </trkpt>
      <trkpt lat="43.96309" lon="4.81504">
        <ele>64.921586</ele>
        <time>2025-02-03T15:20:07.998Z</time>
      </trkpt>
      <trkpt lat="43.96298" lon="4.81491">
        <ele>64.830468</ele>
        <time>2025-02-03T15:20:10.993Z</time>
      </trkpt>
      <trkpt lat="43.96292" lon="4.81483">
        <ele>64.768137</ele>
        <time>2025-02-03T15:20:12.993Z</time>
      </trkpt>
      <trkpt lat="43.96282" lon="4.8147">
        <ele>64.677332</ele>
        <time>2025-02-03T15:20:15.987Z</time>
      </trkpt>
      <trkpt lat="43.96275" lon="4.81461">
        <ele>64.690007</ele>
        <time>2025-02-03T15:20:18.009Z</time>
      </trkpt>
      <trkpt lat="43.96265" lon="4.81449">
        <ele>64.707803</ele>
        <time>2025-02-03T15:20:20.978Z</time>
      </trkpt>
      <trkpt lat="43.96257" lon="4.81442">
        <ele>64.719845</ele>
        <time>2025-02-03T15:20:22.974Z</time>
      </trkpt>
      <trkpt lat="43.9625" lon="4.81434">
        <ele>64.73207</ele>
        <time>2025-02-03T15:20:24.989Z</time>
      </trkpt>
      <trkpt lat="43.96239" lon="4.81424">
        <ele>64.749828</ele>
        <time>2025-02-03T15:20:27.991Z</time>
      </trkpt>
      <trkpt lat="43.96232" lon="4.81415">
        <ele>64.762478</ele>
        <time>2025-02-03T15:20:29.984Z</time>
      </trkpt>
      <trkpt lat="43.96224" lon="4.81408">
        <ele>64.775343</ele>
        <time>2025-02-03T15:20:31.998Z</time>
      </trkpt>
      <trkpt lat="43.96216" lon="4.81399">
        <ele>64.788511</ele>
        <time>2025-02-03T15:20:34.001Z</time>
      </trkpt>
      <trkpt lat="43.96208" lon="4.81391">
        <ele>64.801821</ele>
        <time>2025-02-03T15:20:35.991Z</time>
      </trkpt>
      <trkpt lat="43.962" lon="4.81384">
        <ele>64.814674</ele>
        <time>2025-02-03T15:20:37.990Z</time>
      </trkpt>
      <trkpt lat="43.96191" lon="4.81378">
        <ele>64.827721</ele>
        <time>2025-02-03T15:20:39.988Z</time>
      </trkpt>
      <trkpt lat="43.96182" lon="4.81373">
        <ele>64.840947</ele>
        <time>2025-02-03T15:20:41.979Z</time>
      </trkpt>
      <trkpt lat="43.96173" lon="4.81367">
        <ele>64.85403</ele>
        <time>2025-02-03T15:20:43.994Z</time>
      </trkpt>
      <trkpt lat="43.96165" lon="4.81362">
        <ele>64.866665</ele>
        <time>2025-02-03T15:20:45.994Z</time>
      </trkpt>
      <trkpt lat="43.96156" lon="4.81357">
        <ele>64.87963</ele>
        <time>2025-02-03T15:20:47.994Z</time>
      </trkpt>
      <trkpt lat="43.96147" lon="4.81349">
        <ele>64.893009</ele>
        <time>2025-02-03T15:20:50.011Z</time>
      </trkpt>
      <trkpt lat="43.96139" lon="4.81341">
        <ele>64.906435</ele>
        <time>2025-02-03T15:20:51.993Z</time>
      </trkpt>
      <trkpt lat="43.96132" lon="4.81332">
        <ele>64.916922</ele>
        <time>2025-02-03T15:20:53.988Z</time>
      </trkpt>
      <trkpt lat="43.96125" lon="4.81322">
        <ele>64.90742</ele>
        <time>2025-02-03T15:20:55.999Z</time>
      </trkpt>
      <trkpt lat="43.96118" lon="4.81313">
        <ele>64.897879</ele>
        <time>2025-02-03T15:20:57.996Z</time>
      </trkpt>
      <trkpt lat="43.9611" lon="4.81304">
        <ele>64.888039</ele>
        <time>2025-02-03T15:20:59.999Z</time>
      </trkpt>
      <trkpt lat="43.96102" lon="4.81294">
        <ele>64.877807</ele>
        <time>2025-02-03T15:21:01.997Z</time>
      </trkpt>
      <trkpt lat="43.96094" lon="4.81285">
        <ele>64.867727</ele>
        <time>2025-02-03T15:21:03.999Z</time>
      </trkpt>
      <trkpt lat="43.96087" lon="4.81275">
        <ele>64.857614</ele>
        <time>2025-02-03T15:21:05.997Z</time>
      </trkpt>
      <trkpt lat="43.9608" lon="4.81266">
        <ele>64.848193</ele>
        <time>2025-02-03T15:21:07.996Z</time>
      </trkpt>
      <trkpt lat="43.96074" lon="4.81256">
        <ele>64.839272</ele>
        <time>2025-02-03T15:21:09.998Z</time>
      </trkpt>
      <trkpt lat="43.96069" lon="4.81245">
        <ele>64.829983</ele>
        <time>2025-02-03T15:21:11.990Z</time>
      </trkpt>
      <trkpt lat="43.96064" lon="4.81233">
        <ele>64.820132</ele>
        <time>2025-02-03T15:21:13.986Z</time>
      </trkpt>
      <trkpt lat="43.96059" lon="4.8122">
        <ele>64.810122</ele>
        <time>2025-02-03T15:21:15.980Z</time>
      </trkpt>
      <trkpt lat="43.96053" lon="4.81208">
        <ele>64.800242</ele>
        <time>2025-02-03T15:21:17.998Z</time>
      </trkpt>
      <trkpt lat="43.96049" lon="4.81196">
        <ele>64.790222</ele>
        <time>2025-02-03T15:21:19.990Z</time>
      </trkpt>
      <trkpt lat="43.96044" lon="4.81183">
        <ele>64.780388</ele>
        <time>2025-02-03T15:21:21.998Z</time>
      </trkpt>
      <trkpt lat="43.96039" lon="4.81171">
        <ele>64.770815</ele>
        <time>2025-02-03T15:21:24.020Z</time>
      </trkpt>
      <trkpt lat="43.96034" lon="4.8116">
        <ele>64.761438</ele>
        <time>2025-02-03T15:21:25.994Z</time>
      </trkpt>
      <trkpt lat="43.96029" lon="4.81148">
        <ele>64.751769</ele>
        <time>2025-02-03T15:21:27.990Z</time>
      </trkpt>
      <trkpt lat="43.96024" lon="4.81136">
        <ele>64.746614</ele>
        <time>2025-02-03T15:21:30.000Z</time>
      </trkpt>
      <trkpt lat="43.9602" lon="4.81124">
        <ele>64.792466</ele>
        <time>2025-02-03T15:21:31.979Z</time>
      </trkpt>
      <trkpt lat="43.96015" lon="4.81112">
        <ele>64.838608</ele>
        <time>2025-02-03T15:21:34.004Z</time>
      </trkpt>
      <trkpt lat="43.9601" lon="4.811">
        <ele>64.882501</ele>
        <time>2025-02-03T15:21:35.982Z</time>
      </trkpt>
      <trkpt lat="43.96005" lon="4.81088">
        <ele>64.928296</ele>
        <time>2025-02-03T15:21:37.997Z</time>
      </trkpt>
      <trkpt lat="43.96" lon="4.81077">
        <ele>64.971152</ele>
        <time>2025-02-03T15:21:40.011Z</time>
      </trkpt>
      <trkpt lat="43.95996" lon="4.81066">
        <ele>65.013203</ele>
        <time>2025-02-03T15:21:41.983Z</time>
      </trkpt>
      <trkpt lat="43.95991" lon="4.81055">
        <ele>65.055097</ele>
        <time>2025-02-03T15:21:44.002Z</time>
      </trkpt>
      <trkpt lat="43.95987" lon="4.81043">
        <ele>65.098944</ele>
        <time>2025-02-03T15:21:45.992Z</time>
      </trkpt>
      <trkpt lat="43.95983" lon="4.81032">
        <ele>65.140768</ele>
        <time>2025-02-03T15:21:47.965Z</time>
      </trkpt>
      <trkpt lat="43.95978" lon="4.81021">
        <ele>65.183568</ele>
        <time>2025-02-03T15:21:49.968Z</time>
      </trkpt>
      <trkpt lat="43.95973" lon="4.8101">
        <ele>65.22689</ele>
        <time>2025-02-03T15:21:51.983Z</time>
      </trkpt>
      <trkpt lat="43.95969" lon="4.80999">
        <ele>65.269977</ele>
        <time>2025-02-03T15:21:53.967Z</time>
      </trkpt>
      <trkpt lat="43.95965" lon="4.80987">
        <ele>65.311738</ele>
        <time>2025-02-03T15:21:55.998Z</time>
      </trkpt>
      <trkpt lat="43.9596" lon="4.80976">
        <ele>65.354306</ele>
        <time>2025-02-03T15:21:57.998Z</time>
      </trkpt>
      <trkpt lat="43.95956" lon="4.80965">
        <ele>65.395908</ele>
        <time>2025-02-03T15:22:00.015Z</time>
      </trkpt>
      <trkpt lat="43.95951" lon="4.80954">
        <ele>65.439411</ele>
        <time>2025-02-03T15:22:02.003Z</time>
      </trkpt>
      <trkpt lat="43.95946" lon="4.80943">
        <ele>65.482062</ele>
        <time>2025-02-03T15:22:04.002Z</time>
      </trkpt>
      <trkpt lat="43.95937" lon="4.8093">
        <ele>65.54401</ele>
        <time>2025-02-03T15:22:06.976Z</time>
      </trkpt>
      <trkpt lat="43.95925" lon="4.8092">
        <ele>65.583928</ele>
        <time>2025-02-03T15:22:09.986Z</time>
      </trkpt>
      <trkpt lat="43.95917" lon="4.80915">
        <ele>65.597648</ele>
        <time>2025-02-03T15:22:11.980Z</time>
      </trkpt>
      <trkpt lat="43.95905" lon="4.80907">
        <ele>65.617864</ele>
        <time>2025-02-03T15:22:14.998Z</time>
      </trkpt>
      <trkpt lat="43.95893" lon="4.80901">
        <ele>65.638112</ele>
        <time>2025-02-03T15:22:17.967Z</time>
      </trkpt>
      <trkpt lat="43.95884" lon="4.80895">
        <ele>65.652115</ele>
        <time>2025-02-03T15:22:19.982Z</time>
      </trkpt>
      <trkpt lat="43.95873" lon="4.80885">
        <ele>65.672369</ele>
        <time>2025-02-03T15:22:23.012Z</time>
      </trkpt>
      <trkpt lat="43.95864" lon="4.80873">
        <ele>65.691617</ele>
        <time>2025-02-03T15:22:25.994Z</time>
      </trkpt>
      <trkpt lat="43.95854" lon="4.8086">
        <ele>65.712096</ele>
        <time>2025-02-03T15:22:29.002Z</time>
      </trkpt>
      <trkpt lat="43.95848" lon="4.80851">
        <ele>65.725879</ele>
        <time>2025-02-03T15:22:30.999Z</time>
      </trkpt>
      <trkpt lat="43.95841" lon="4.80836">
        <ele>65.745032</ele>
        <time>2025-02-03T15:22:33.995Z</time>
      </trkpt>
      <trkpt lat="43.95837" lon="4.8082">
        <ele>65.763431</ele>
        <time>2025-02-03T15:22:36.994Z</time>
      </trkpt>
      <trkpt lat="43.95833" lon="4.80803">
        <ele>65.782655</ele>
        <time>2025-02-03T15:22:39.995Z</time>
      </trkpt>
      <trkpt lat="43.95831" lon="4.80791">
        <ele>65.796577</ele>
        <time>2025-02-03T15:22:41.991Z</time>
      </trkpt>
      <trkpt lat="43.95829" lon="4.80779">
        <ele>65.810485</ele>
        <time>2025-02-03T15:22:43.987Z</time>
      </trkpt>
      <trkpt lat="43.95826" lon="4.80761">
        <ele>65.830529</ele>
        <time>2025-02-03T15:22:47.004Z</time>
      </trkpt>
      <trkpt lat="43.95823" lon="4.80749">
        <ele>65.844307</ele>
        <time>2025-02-03T15:22:49.006Z</time>
      </trkpt>
      <trkpt lat="43.95821" lon="4.80731">
        <ele>65.757967</ele>
        <time>2025-02-03T15:22:52.016Z</time>
      </trkpt>
      <trkpt lat="43.95819" lon="4.80715">
        <ele>65.664175</ele>
        <time>2025-02-03T15:22:54.994Z</time>
      </trkpt>
      <trkpt lat="43.95817" lon="4.80701">
        <ele>65.579651</ele>
        <time>2025-02-03T15:22:57.993Z</time>
      </trkpt>
      <trkpt lat="43.95814" lon="4.80685">
        <ele>65.489118</ele>
        <time>2025-02-03T15:23:00.989Z</time>
      </trkpt>
      <trkpt lat="43.95813" lon="4.80668">
        <ele>65.390784</ele>
        <time>2025-02-03T15:23:03.998Z</time>
      </trkpt>
      <trkpt lat="43.95811" lon="4.80651">
        <ele>65.293756</ele>
        <time>2025-02-03T15:23:06.995Z</time>
      </trkpt>
      <trkpt lat="43.9581" lon="4.80634">
        <ele>65.194282</ele>
        <time>2025-02-03T15:23:10.020Z</time>
      </trkpt>
      <trkpt lat="43.95808" lon="4.80617">
        <ele>65.093318</ele>
        <time>2025-02-03T15:23:13.020Z</time>
      </trkpt>
      <trkpt lat="43.95805" lon="4.806">
        <ele>64.992946</ele>
        <time>2025-02-03T15:23:15.998Z</time>
      </trkpt>
      <trkpt lat="43.95802" lon="4.80582">
        <ele>64.888853</ele>
        <time>2025-02-03T15:23:19.002Z</time>
      </trkpt>
      <trkpt lat="43.95799" lon="4.80564">
        <ele>64.785299</ele>
        <time>2025-02-03T15:23:22.011Z</time>
      </trkpt>
      <trkpt lat="43.95795" lon="4.80547">
        <ele>64.681846</ele>
        <time>2025-02-03T15:23:24.991Z</time>
      </trkpt>
      <trkpt lat="43.95791" lon="4.8053">
        <ele>64.575478</ele>
        <time>2025-02-03T15:23:28.003Z</time>
      </trkpt>
      <trkpt lat="43.95787" lon="4.80518">
        <ele>64.501956</ele>
        <time>2025-02-03T15:23:30.003Z</time>
      </trkpt>
      <trkpt lat="43.95784" lon="4.80506">
        <ele>64.427549</ele>
        <time>2025-02-03T15:23:31.994Z</time>
      </trkpt>
      <trkpt lat="43.9578" lon="4.80493">
        <ele>64.388309</ele>
        <time>2025-02-03T15:23:34.020Z</time>
      </trkpt>
      <trkpt lat="43.95774" lon="4.80476">
        <ele>64.341886</ele>
        <time>2025-02-03T15:23:36.994Z</time>
      </trkpt>
      <trkpt lat="43.95771" lon="4.80465">
        <ele>64.310603</ele>
        <time>2025-02-03T15:23:39.002Z</time>
      </trkpt>
      <trkpt lat="43.95766" lon="4.80448">
        <ele>64.265914</ele>
        <time>2025-02-03T15:23:41.988Z</time>
      </trkpt>
      <trkpt lat="43.9576" lon="4.80433">
        <ele>64.222399</ele>
        <time>2025-02-03T15:23:44.991Z</time>
      </trkpt>
      <trkpt lat="43.95754" lon="4.80416">
        <ele>64.177991</ele>
        <time>2025-02-03T15:23:47.987Z</time>
      </trkpt>
      <trkpt lat="43.95749" lon="4.80401">
        <ele>64.134846</ele>
        <time>2025-02-03T15:23:50.992Z</time>
      </trkpt>
      <trkpt lat="43.95744" lon="4.80385">
        <ele>64.092901</ele>
        <time>2025-02-03T15:23:53.987Z</time>
      </trkpt>
      <trkpt lat="43.95738" lon="4.80371">
        <ele>64.052956</ele>
        <time>2025-02-03T15:23:57.001Z</time>
      </trkpt>
      <trkpt lat="43.95733" lon="4.80357">
        <ele>64.013545</ele>
        <time>2025-02-03T15:23:59.989Z</time>
      </trkpt>
      <trkpt lat="43.95727" lon="4.80346">
        <ele>63.978664</ele>
        <time>2025-02-03T15:24:02.993Z</time>
      </trkpt>
      <trkpt lat="43.95721" lon="4.80333">
        <ele>63.940155</ele>
        <time>2025-02-03T15:24:06.986Z</time>
      </trkpt>
      <trkpt lat="43.95719" lon="4.8032">
        <ele>63.906344</ele>
        <time>2025-02-03T15:24:09.988Z</time>
      </trkpt>
      <trkpt lat="43.95716" lon="4.80306">
        <ele>63.871045</ele>
        <time>2025-02-03T15:24:12.994Z</time>
      </trkpt>
      <trkpt lat="43.9571" lon="4.80293">
        <ele>63.833507</ele>
        <time>2025-02-03T15:24:15.998Z</time>
      </trkpt>
      <trkpt lat="43.95706" lon="4.80281">
        <ele>63.799166</ele>
        <time>2025-02-03T15:24:19.007Z</time>
      </trkpt>
      <trkpt lat="43.95701" lon="4.80267">
        <ele>63.918551</ele>
        <time>2025-02-03T15:24:21.994Z</time>
      </trkpt>
      <trkpt lat="43.95697" lon="4.80252">
        <ele>64.065359</ele>
        <time>2025-02-03T15:24:24.996Z</time>
      </trkpt>
      <trkpt lat="43.95692" lon="4.80237">
        <ele>64.210569</ele>
        <time>2025-02-03T15:24:27.992Z</time>
      </trkpt>
      <trkpt lat="43.95687" lon="4.80222">
        <ele>64.356068</ele>
        <time>2025-02-03T15:24:30.989Z</time>
      </trkpt>
      <trkpt lat="43.95681" lon="4.80207">
        <ele>64.500839</ele>
        <time>2025-02-03T15:24:34.012Z</time>
      </trkpt>
      <trkpt lat="43.95677" lon="4.80193">
        <ele>64.639408</ele>
        <time>2025-02-03T15:24:37.009Z</time>
      </trkpt>
      <trkpt lat="43.95672" lon="4.80178">
        <ele>64.782134</ele>
        <time>2025-02-03T15:24:39.982Z</time>
      </trkpt>
      <trkpt lat="43.95668" lon="4.80163">
        <ele>64.927665</ele>
        <time>2025-02-03T15:24:42.995Z</time>
      </trkpt>
      <trkpt lat="43.95662" lon="4.80148">
        <ele>65.077146</ele>
        <time>2025-02-03T15:24:45.990Z</time>
      </trkpt>
      <trkpt lat="43.95657" lon="4.80132">
        <ele>65.228205</ele>
        <time>2025-02-03T15:24:48.996Z</time>
      </trkpt>
      <trkpt lat="43.95651" lon="4.80116">
        <ele>65.385353</ele>
        <time>2025-02-03T15:24:51.995Z</time>
      </trkpt>
      <trkpt lat="43.95645" lon="4.801">
        <ele>65.544933</ele>
        <time>2025-02-03T15:24:54.995Z</time>
      </trkpt>
      <trkpt lat="43.95639" lon="4.80084">
        <ele>65.708218</ele>
        <time>2025-02-03T15:24:58.013Z</time>
      </trkpt>
      <trkpt lat="43.95633" lon="4.80068">
        <ele>65.864076</ele>
        <time>2025-02-03T15:25:01.004Z</time>
      </trkpt>
      <trkpt lat="43.95627" lon="4.80059">
        <ele>65.977998</ele>
        <time>2025-02-03T15:25:02.985Z</time>
      </trkpt>
      <trkpt lat="43.95621" lon="4.80049">
        <ele>66.077948</ele>
        <time>2025-02-03T15:25:04.993Z</time>
      </trkpt>
      <trkpt lat="43.95615" lon="4.80039">
        <ele>66.171604</ele>
        <time>2025-02-03T15:25:06.992Z</time>
      </trkpt>
      <trkpt lat="43.95609" lon="4.80029">
        <ele>66.264369</ele>
        <time>2025-02-03T15:25:09.002Z</time>
      </trkpt>
      <trkpt lat="43.956" lon="4.80016">
        <ele>66.395189</ele>
        <time>2025-02-03T15:25:11.996Z</time>
      </trkpt>
      <trkpt lat="43.95594" lon="4.80006">
        <ele>66.486518</ele>
        <time>2025-02-03T15:25:14.009Z</time>
      </trkpt>
      <trkpt lat="43.95589" lon="4.79997">
        <ele>66.57707</ele>
        <time>2025-02-03T15:25:16.001Z</time>
      </trkpt>
      <trkpt lat="43.95583" lon="4.79987">
        <ele>66.669521</ele>
        <time>2025-02-03T15:25:18.010Z</time>
      </trkpt>
      <trkpt lat="43.95575" lon="4.79972">
        <ele>66.806163</ele>
        <time>2025-02-03T15:25:21.019Z</time>
      </trkpt>
      <trkpt lat="43.95566" lon="4.79958">
        <ele>66.94118</ele>
        <time>2025-02-03T15:25:24.012Z</time>
      </trkpt>
      <trkpt lat="43.95557" lon="4.79945">
        <ele>67.074577</ele>
        <time>2025-02-03T15:25:26.986Z</time>
      </trkpt>
      <trkpt lat="43.95549" lon="4.79929">
        <ele>67.215337</ele>
        <time>2025-02-03T15:25:30.019Z</time>
      </trkpt>
      <trkpt lat="43.95543" lon="4.79919">
        <ele>67.309086</ele>
        <time>2025-02-03T15:25:31.996Z</time>
      </trkpt>
      <trkpt lat="43.95537" lon="4.79909">
        <ele>67.404709</ele>
        <time>2025-02-03T15:25:34.003Z</time>
      </trkpt>
      <trkpt lat="43.95531" lon="4.799">
        <ele>67.497248</ele>
        <time>2025-02-03T15:25:35.992Z</time>
      </trkpt>
      <trkpt lat="43.95525" lon="4.79889">
        <ele>67.593663</ele>
        <time>2025-02-03T15:25:38.008Z</time>
      </trkpt>
      <trkpt lat="43.95516" lon="4.79875">
        <ele>67.729102</ele>
        <time>2025-02-03T15:25:41.012Z</time>
      </trkpt>
      <trkpt lat="43.95507" lon="4.79861">
        <ele>67.85287</ele>
        <time>2025-02-03T15:25:44.005Z</time>
      </trkpt>
      <trkpt lat="43.95501" lon="4.7985">
        <ele>67.916044</ele>
        <time>2025-02-03T15:25:45.994Z</time>
      </trkpt>
      <trkpt lat="43.95494" lon="4.79841">
        <ele>67.978149</ele>
        <time>2025-02-03T15:25:48.003Z</time>
      </trkpt>
      <trkpt lat="43.95489" lon="4.79831">
        <ele>68.038626</ele>
        <time>2025-02-03T15:25:49.991Z</time>
      </trkpt>
      <trkpt lat="43.95481" lon="4.79816">
        <ele>68.125862</ele>
        <time>2025-02-03T15:25:53.005Z</time>
      </trkpt>
      <trkpt lat="43.95475" lon="4.79806">
        <ele>68.184504</ele>
        <time>2025-02-03T15:25:54.989Z</time>
      </trkpt>
      <trkpt lat="43.95469" lon="4.79796">
        <ele>68.244207</ele>
        <time>2025-02-03T15:25:57.003Z</time>
      </trkpt>
      <trkpt lat="43.95464" lon="4.79786">
        <ele>68.30464</ele>
        <time>2025-02-03T15:25:58.996Z</time>
      </trkpt>
      <trkpt lat="43.95455" lon="4.79772">
        <ele>68.392449</ele>
        <time>2025-02-03T15:26:01.991Z</time>
      </trkpt>
      <trkpt lat="43.95449" lon="4.79762">
        <ele>68.453333</ele>
        <time>2025-02-03T15:26:04.013Z</time>
      </trkpt>
      <trkpt lat="43.95442" lon="4.79748">
        <ele>68.53413</ele>
        <time>2025-02-03T15:26:07.019Z</time>
      </trkpt>
      <trkpt lat="43.95433" lon="4.79735">
        <ele>68.618933</ele>
        <time>2025-02-03T15:26:09.993Z</time>
      </trkpt>
      <trkpt lat="43.95426" lon="4.79727">
        <ele>68.678571</ele>
        <time>2025-02-03T15:26:11.981Z</time>
      </trkpt>
      <trkpt lat="43.95418" lon="4.79722">
        <ele>68.738635</ele>
        <time>2025-02-03T15:26:14.002Z</time>
      </trkpt>
      <trkpt lat="43.95405" lon="4.79718">
        <ele>68.825317</ele>
        <time>2025-02-03T15:26:16.990Z</time>
      </trkpt>
      <trkpt lat="43.95396" lon="4.79716">
        <ele>68.885307</ele>
        <time>2025-02-03T15:26:19.012Z</time>
      </trkpt>
      <trkpt lat="43.95387" lon="4.79714">
        <ele>68.946595</ele>
        <time>2025-02-03T15:26:20.999Z</time>
      </trkpt>
      <trkpt lat="43.95377" lon="4.79714">
        <ele>69.00817</ele>
        <time>2025-02-03T15:26:22.990Z</time>
      </trkpt>
      <trkpt lat="43.95367" lon="4.79712">
        <ele>69.072275</ele>
        <time>2025-02-03T15:26:25.003Z</time>
      </trkpt>
      <trkpt lat="43.95358" lon="4.79709">
        <ele>69.134339</ele>
        <time>2025-02-03T15:26:27.004Z</time>
      </trkpt>
      <trkpt lat="43.95346" lon="4.79706">
        <ele>69.215621</ele>
        <time>2025-02-03T15:26:30.013Z</time>
      </trkpt>
      <trkpt lat="43.95334" lon="4.79709">
        <ele>69.295895</ele>
        <time>2025-02-03T15:26:32.992Z</time>
      </trkpt>
      <trkpt lat="43.95323" lon="4.79709">
        <ele>69.364665</ele>
        <time>2025-02-03T15:26:35.995Z</time>
      </trkpt>
      <trkpt lat="43.95314" lon="4.79706">
        <ele>69.428337</ele>
        <time>2025-02-03T15:26:38.990Z</time>
      </trkpt>
      <trkpt lat="43.95305" lon="4.79704">
        <ele>69.488704</ele>
        <time>2025-02-03T15:26:41.989Z</time>
      </trkpt>
      <trkpt lat="43.95295" lon="4.79702">
        <ele>69.55496</ele>
        <time>2025-02-03T15:26:45.987Z</time>
      </trkpt>
      <trkpt lat="43.95283" lon="4.797">
        <ele>69.630414</ele>
        <time>2025-02-03T15:26:51.002Z</time>
      </trkpt>
      <trkpt lat="43.95273" lon="4.79699">
        <ele>69.694718</ele>
        <time>2025-02-03T15:26:54.993Z</time>
      </trkpt>
      <trkpt lat="43.95264" lon="4.79697">
        <ele>69.755453</ele>
        <time>2025-02-03T15:26:59.001Z</time>
      </trkpt>
      <trkpt lat="43.95254" lon="4.79695">
        <ele>69.820026</ele>
        <time>2025-02-03T15:27:03.991Z</time>
      </trkpt>
      <trkpt lat="43.95245" lon="4.79698">
        <ele>69.886237</ele>
        <time>2025-02-03T15:27:08.999Z</time>
      </trkpt>
      <trkpt lat="43.95239" lon="4.79709">
        <ele>69.948214</ele>
        <time>2025-02-03T15:27:12.993Z</time>
      </trkpt>
      <trkpt lat="43.95235" lon="4.79721">
        <ele>70.012928</ele>
        <time>2025-02-03T15:27:16.985Z</time>
      </trkpt>
      <trkpt lat="43.95231" lon="4.79734">
        <ele>70.081089</ele>
        <time>2025-02-03T15:27:20.991Z</time>
      </trkpt>
      <trkpt lat="43.95227" lon="4.79747">
        <ele>70.147261</ele>
        <time>2025-02-03T15:27:25.004Z</time>
      </trkpt>
      <trkpt lat="43.95222" lon="4.79762">
        <ele>70.303997</ele>
        <time>2025-02-03T15:27:29.010Z</time>
      </trkpt>
      <trkpt lat="43.95217" lon="4.79776">
        <ele>70.502142</ele>
        <time>2025-02-03T15:27:32.995Z</time>
      </trkpt>
      <trkpt lat="43.95213" lon="4.79789">
        <ele>70.671462</ele>
        <time>2025-02-03T15:27:36.000Z</time>
      </trkpt>
      <trkpt lat="43.95209" lon="4.79803">
        <ele>70.874695</ele>
        <time>2025-02-03T15:27:40.005Z</time>
      </trkpt>
      <trkpt lat="43.95204" lon="4.79817">
        <ele>71.072103</ele>
        <time>2025-02-03T15:27:44.001Z</time>
      </trkpt>
      <trkpt lat="43.95201" lon="4.79833">
        <ele>71.281712</ele>
        <time>2025-02-03T15:27:47.996Z</time>
      </trkpt>
      <trkpt lat="43.95196" lon="4.79848">
        <ele>71.482917</ele>
        <time>2025-02-03T15:27:51.995Z</time>
      </trkpt>
      <trkpt lat="43.95192" lon="4.79863">
        <ele>71.688809</ele>
        <time>2025-02-03T15:27:56.012Z</time>
      </trkpt>
      <trkpt lat="43.95188" lon="4.79878">
        <ele>71.896386</ele>
        <time>2025-02-03T15:28:00.019Z</time>
      </trkpt>
      <trkpt lat="43.95185" lon="4.79893">
        <ele>72.091986</ele>
        <time>2025-02-03T15:28:04.005Z</time>
      </trkpt>
      <trkpt lat="43.95182" lon="4.79905">
        <ele>72.258928</ele>
        <time>2025-02-03T15:28:07.998Z</time>
      </trkpt>
      <trkpt lat="43.95178" lon="4.79919">
        <ele>72.45338</ele>
        <time>2025-02-03T15:28:13.005Z</time>
      </trkpt>
      <trkpt lat="43.95174" lon="4.79936">
        <ele>72.670003</ele>
        <time>2025-02-03T15:32:41.005Z</time>
      </trkpt>
      <trkpt lat="43.95169" lon="4.79946">
        <ele>72.836628</ele>
        <time>2025-02-03T15:32:49.974Z</time>
      </trkpt>
      <trkpt lat="43.95165" lon="4.79959">
        <ele>73.009189</ele>
        <time>2025-02-03T15:32:54.989Z</time>
      </trkpt>
      <trkpt lat="43.95161" lon="4.79971">
        <ele>73.190472</ele>
        <time>2025-02-03T15:32:59.013Z</time>
      </trkpt>
      <trkpt lat="43.95156" lon="4.79986">
        <ele>73.311862</ele>
        <time>2025-02-03T15:33:02.994Z</time>
      </trkpt>
      <trkpt lat="43.95153" lon="4.79999">
        <ele>73.048811</ele>
        <time>2025-02-03T15:33:05.996Z</time>
      </trkpt>
      <trkpt lat="43.95149" lon="4.80012">
        <ele>72.767446</ele>
        <time>2025-02-03T15:33:09.012Z</time>
      </trkpt>
      <trkpt lat="43.95145" lon="4.80025">
        <ele>72.4788</ele>
        <time>2025-02-03T15:33:11.994Z</time>
      </trkpt>
      <trkpt lat="43.95141" lon="4.8004">
        <ele>72.158901</ele>
        <time>2025-02-03T15:33:14.995Z</time>
      </trkpt>
      <trkpt lat="43.95136" lon="4.80057">
        <ele>71.814482</ele>
        <time>2025-02-03T15:33:18.018Z</time>
      </trkpt>
      <trkpt lat="43.95133" lon="4.80068">
        <ele>71.56067</ele>
        <time>2025-02-03T15:33:20.008Z</time>
      </trkpt>
      <trkpt lat="43.95129" lon="4.80081">
        <ele>71.291927</ele>
        <time>2025-02-03T15:33:22.010Z</time>
      </trkpt>
      <trkpt lat="43.95125" lon="4.80095">
        <ele>71.000373</ele>
        <time>2025-02-03T15:33:24.001Z</time>
      </trkpt>
      <trkpt lat="43.95121" lon="4.8011">
        <ele>70.683258</ele>
        <time>2025-02-03T15:33:25.995Z</time>
      </trkpt>
      <trkpt lat="43.95117" lon="4.80124">
        <ele>70.386672</ele>
        <time>2025-02-03T15:33:27.996Z</time>
      </trkpt>
      <trkpt lat="43.95114" lon="4.80137">
        <ele>70.109529</ele>
        <time>2025-02-03T15:33:30.006Z</time>
      </trkpt>
      <trkpt lat="43.9511" lon="4.80151">
        <ele>69.815058</ele>
        <time>2025-02-03T15:33:31.998Z</time>
      </trkpt>
      <trkpt lat="43.95105" lon="4.80165">
        <ele>69.512217</ele>
        <time>2025-02-03T15:33:34.022Z</time>
      </trkpt>
      <trkpt lat="43.95102" lon="4.80178">
        <ele>69.234236</ele>
        <time>2025-02-03T15:33:36.020Z</time>
      </trkpt>
      <trkpt lat="43.95098" lon="4.80189">
        <ele>68.979079</ele>
        <time>2025-02-03T15:33:38.018Z</time>
      </trkpt>
      <trkpt lat="43.95094" lon="4.80206">
        <ele>68.619999</ele>
        <time>2025-02-03T15:33:40.994Z</time>
      </trkpt>
      <trkpt lat="43.95091" lon="4.80225">
        <ele>68.321895</ele>
        <time>2025-02-03T15:33:43.975Z</time>
      </trkpt>
      <trkpt lat="43.95084" lon="4.80237">
        <ele>68.151931</ele>
        <time>2025-02-03T15:33:46.991Z</time>
      </trkpt>
      <trkpt lat="43.95077" lon="4.80246">
        <ele>68.001591</ele>
        <time>2025-02-03T15:33:50.015Z</time>
      </trkpt>
      <trkpt lat="43.95066" lon="4.80249">
        <ele>67.829711</ele>
        <time>2025-02-03T15:33:54.002Z</time>
      </trkpt>
      <trkpt lat="43.95057" lon="4.80243">
        <ele>67.67937</ele>
        <time>2025-02-03T15:33:57.987Z</time>
      </trkpt>
      <trkpt lat="43.95046" lon="4.80242">
        <ele>67.505086</ele>
        <time>2025-02-03T15:34:03.008Z</time>
      </trkpt>
      <trkpt lat="43.95036" lon="4.80243">
        <ele>67.35951</ele>
        <time>2025-02-03T15:34:11.999Z</time>
      </trkpt>
      <trkpt lat="43.9503" lon="4.80255">
        <ele>67.196795</ele>
        <time>2025-02-03T15:34:17.982Z</time>
      </trkpt>
      <trkpt lat="43.9503" lon="4.80271">
        <ele>67.027258</ele>
        <time>2025-02-03T15:34:22.984Z</time>
      </trkpt>
      <trkpt lat="43.95032" lon="4.80286">
        <ele>66.861705</ele>
        <time>2025-02-03T15:34:28.001Z</time>
      </trkpt>
      <trkpt lat="43.95032" lon="4.80299">
        <ele>66.717699</ele>
        <time>2025-02-03T15:34:31.993Z</time>
      </trkpt>
      <trkpt lat="43.95031" lon="4.80313">
        <ele>66.552892</ele>
        <time>2025-02-03T15:34:36.030Z</time>
      </trkpt>
      <trkpt lat="43.95029" lon="4.80328">
        <ele>66.387182</ele>
        <time>2025-02-03T15:34:39.979Z</time>
      </trkpt>
      <trkpt lat="43.95027" lon="4.80343">
        <ele>66.214366</ele>
        <time>2025-02-03T15:34:44.002Z</time>
      </trkpt>
      <trkpt lat="43.95025" lon="4.80357">
        <ele>66.060631</ele>
        <time>2025-02-03T15:34:47.998Z</time>
      </trkpt>
      <trkpt lat="43.95022" lon="4.80371">
        <ele>65.895961</ele>
        <time>2025-02-03T15:34:51.996Z</time>
      </trkpt>
      <trkpt lat="43.9502" lon="4.80385">
        <ele>65.740138</ele>
        <time>2025-02-03T15:34:55.995Z</time>
      </trkpt>
      <trkpt lat="43.95015" lon="4.80397">
        <ele>65.688213</ele>
        <time>2025-02-03T15:35:00.979Z</time>
      </trkpt>
      <trkpt lat="43.95005" lon="4.80393">
        <ele>65.816661</ele>
        <time>2025-02-03T15:35:04.974Z</time>
      </trkpt>
      <trkpt lat="43.94993" lon="4.8039">
        <ele>65.972737</ele>
        <time>2025-02-03T15:35:08.995Z</time>
      </trkpt>
      <trkpt lat="43.94984" lon="4.80387">
        <ele>66.099503</ele>
        <time>2025-02-03T15:35:12.006Z</time>
      </trkpt>
      <trkpt lat="43.94972" lon="4.80383">
        <ele>66.248825</ele>
        <time>2025-02-03T15:35:15.985Z</time>
      </trkpt>
      <trkpt lat="43.94962" lon="4.80378">
        <ele>66.392223</ele>
        <time>2025-02-03T15:35:19.987Z</time>
      </trkpt>
      <trkpt lat="43.94953" lon="4.80375">
        <ele>66.514205</ele>
        <time>2025-02-03T15:35:23.006Z</time>
      </trkpt>
      <trkpt lat="43.94942" lon="4.80372">
        <ele>66.646494</ele>
        <time>2025-02-03T15:35:25.984Z</time>
      </trkpt>
      <trkpt lat="43.94933" lon="4.8037">
        <ele>66.774175</ele>
        <time>2025-02-03T15:35:28.975Z</time>
      </trkpt>
      <trkpt lat="43.94923" lon="4.80367">
        <ele>66.907416</ele>
        <time>2025-02-03T15:35:31.986Z</time>
      </trkpt>
      <trkpt lat="43.94913" lon="4.80362">
        <ele>67.040171</ele>
        <time>2025-02-03T15:35:35.014Z</time>
      </trkpt>
      <trkpt lat="43.94904" lon="4.80357">
        <ele>67.170542</ele>
        <time>2025-02-03T15:35:37.996Z</time>
      </trkpt>
      <trkpt lat="43.94894" lon="4.80363">
        <ele>67.303448</ele>
        <time>2025-02-03T15:35:43.976Z</time>
      </trkpt>
      <trkpt lat="43.9489" lon="4.80376">
        <ele>67.432659</ele>
        <time>2025-02-03T15:35:46.978Z</time>
      </trkpt>
      <trkpt lat="43.94887" lon="4.8039">
        <ele>67.56603</ele>
        <time>2025-02-03T15:35:50.022Z</time>
      </trkpt>
      <trkpt lat="43.94886" lon="4.80403">
        <ele>67.692153</ele>
        <time>2025-02-03T15:35:52.992Z</time>
      </trkpt>
      <trkpt lat="43.94884" lon="4.80416">
        <ele>67.812921</ele>
        <time>2025-02-03T15:35:55.991Z</time>
      </trkpt>
      <trkpt lat="43.94882" lon="4.80432">
        <ele>67.957664</ele>
        <time>2025-02-03T15:36:00.009Z</time>
      </trkpt>
      <trkpt lat="43.94881" lon="4.80445">
        <ele>67.957664</ele>
        <time>2025-02-03T15:36:02.981Z</time>
      </trkpt>
      <trkpt lat="43.94879" lon="4.8046">
        <ele>67.957664</ele>
        <time>2025-02-03T15:36:06.984Z</time>
      </trkpt>
      <trkpt lat="43.94877" lon="4.80472">
        <ele>67.957664</ele>
        <time>2025-02-03T15:36:11.002Z</time>
      </trkpt>
      <trkpt lat="43.94875" lon="4.80487">
        <ele>67.957664</ele>
        <time>2025-02-03T15:36:14.987Z</time>
      </trkpt>
      <trkpt lat="43.94865" lon="4.80491">
        <ele>67.957664</ele>
        <time>2025-02-03T15:36:19.965Z</time>
      </trkpt>
      <trkpt lat="43.94855" lon="4.80488">
        <ele>67.957664</ele>
        <time>2025-02-03T15:36:22.985Z</time>
      </trkpt>
      <trkpt lat="43.94845" lon="4.80487">
        <ele>67.957664</ele>
        <time>2025-02-03T15:36:25.979Z</time>
      </trkpt>
      <trkpt lat="43.94833" lon="4.80489">
        <ele>67.957664</ele>
        <time>2025-02-03T15:36:28.977Z</time>
      </trkpt>
      <trkpt lat="43.94824" lon="4.80494">
        <ele>67.957664</ele>
        <time>2025-02-03T15:36:31.986Z</time>
      </trkpt>
      <trkpt lat="43.94818" lon="4.80504">
        <ele>67.957664</ele>
        <time>2025-02-03T15:36:38.998Z</time>
      </trkpt>
      <trkpt lat="43.94812" lon="4.80517">
        <ele>67.957664</ele>
        <time>2025-02-03T15:36:43.994Z</time>
      </trkpt>
      <trkpt lat="43.94809" lon="4.80531">
        <ele>67.957664</ele>
        <time>2025-02-03T15:36:48.970Z</time>
      </trkpt>
      <trkpt lat="43.94808" lon="4.80545">
        <ele>67.957664</ele>
        <time>2025-02-03T15:36:54.013Z</time>
      </trkpt>
      <trkpt lat="43.94805" lon="4.80559">
        <ele>67.957664</ele>
        <time>2025-02-03T15:36:58.983Z</time>
      </trkpt>
      <trkpt lat="43.94803" lon="4.80572">
        <ele>67.957664</ele>
        <time>2025-02-03T15:37:04.012Z</time>
      </trkpt>
      <trkpt lat="43.94795" lon="4.80578">
        <ele>67.957664</ele>
        <time>2025-02-03T15:37:11.026Z</time>
      </trkpt>
      <trkpt lat="43.94785" lon="4.80584">
        <ele>67.957664</ele>
        <time>2025-02-03T15:37:16.978Z</time>
      </trkpt>
      <trkpt lat="43.94775" lon="4.80583">
        <ele>67.957664</ele>
        <time>2025-02-03T15:37:21.989Z</time>
      </trkpt>
      <trkpt lat="43.94764" lon="4.80584">
        <ele>67.957664</ele>
        <time>2025-02-03T15:37:26.997Z</time>
      </trkpt>
    </trkseg>
  </trk>
</gpx>